<?xml version="1.0" encoding="UTF-8" standalone="no" ?>
<gpx xmlns="http://www.topografix.com/GPX/1/1" xmlns:xsi="http://www.w3.org/2001/XMLSchema-instance" xsi:schemaLocation="http://www.topografix.com/GPX/1/1 http://www.topografix.com/GPX/1/1/gpx.xsd" version="1.1" creator="VisuGPX - https://www.visugpx.com">
  <metadata>
    <name>Sortie VTT Tecou Cadalen</name>
    <desc><![CDATA[Sortie XC]]></desc>
  </metadata>
  <trk>
    <name><![CDATA[Sortie VTT Tecou Cadalen]]></name>
    <trkseg>
      <trkpt lat="43.86327" lon="1.8875">
        <ele>148.6</ele>
        <time>2020-07-15T12:02:03Z</time>
      </trkpt>
      <trkpt lat="43.86322" lon="1.88758">
        <ele>148.2</ele>
        <time>2020-07-15T12:02:04Z</time>
      </trkpt>
      <trkpt lat="43.86317" lon="1.88767">
        <ele>147.8</ele>
        <time>2020-07-15T12:02:05Z</time>
      </trkpt>
      <trkpt lat="43.86313" lon="1.88777">
        <ele>147.4</ele>
        <time>2020-07-15T12:02:06Z</time>
      </trkpt>
      <trkpt lat="43.8631" lon="1.88788">
        <ele>147</ele>
        <time>2020-07-15T12:02:07Z</time>
      </trkpt>
      <trkpt lat="43.86307" lon="1.888">
        <ele>146.6</ele>
        <time>2020-07-15T12:02:08Z</time>
      </trkpt>
      <trkpt lat="43.86304" lon="1.88814">
        <ele>146</ele>
        <time>2020-07-15T12:02:09Z</time>
      </trkpt>
      <trkpt lat="43.86302" lon="1.88827">
        <ele>145.6</ele>
        <time>2020-07-15T12:02:10Z</time>
      </trkpt>
      <trkpt lat="43.86302" lon="1.8884">
        <ele>145</ele>
        <time>2020-07-15T12:02:11Z</time>
      </trkpt>
      <trkpt lat="43.86305" lon="1.88855">
        <ele>144.6</ele>
        <time>2020-07-15T12:02:12Z</time>
      </trkpt>
      <trkpt lat="43.86308" lon="1.88869">
        <ele>144.2</ele>
        <time>2020-07-15T12:02:13Z</time>
      </trkpt>
      <trkpt lat="43.8631" lon="1.88882">
        <ele>144</ele>
        <time>2020-07-15T12:02:14Z</time>
      </trkpt>
      <trkpt lat="43.86312" lon="1.88894">
        <ele>143.8</ele>
        <time>2020-07-15T12:02:15Z</time>
      </trkpt>
      <trkpt lat="43.86313" lon="1.88907">
        <ele>144</ele>
        <time>2020-07-15T12:02:16Z</time>
      </trkpt>
      <trkpt lat="43.86314" lon="1.88918">
        <ele>144.2</ele>
        <time>2020-07-15T12:02:17Z</time>
      </trkpt>
      <trkpt lat="43.86314" lon="1.88927">
        <ele>144.4</ele>
        <time>2020-07-15T12:02:18Z</time>
      </trkpt>
      <trkpt lat="43.86313" lon="1.88935">
        <ele>145</ele>
        <time>2020-07-15T12:02:19Z</time>
      </trkpt>
      <trkpt lat="43.86312" lon="1.88941">
        <ele>145.4</ele>
        <time>2020-07-15T12:02:20Z</time>
      </trkpt>
      <trkpt lat="43.86311" lon="1.88948">
        <ele>146</ele>
        <time>2020-07-15T12:02:21Z</time>
      </trkpt>
      <trkpt lat="43.86309" lon="1.88953">
        <ele>146.6</ele>
        <time>2020-07-15T12:02:22Z</time>
      </trkpt>
      <trkpt lat="43.86306" lon="1.88958">
        <ele>147.2</ele>
        <time>2020-07-15T12:02:23Z</time>
      </trkpt>
      <trkpt lat="43.86305" lon="1.88963">
        <ele>147.6</ele>
        <time>2020-07-15T12:02:24Z</time>
      </trkpt>
      <trkpt lat="43.86302" lon="1.88968">
        <ele>148</ele>
        <time>2020-07-15T12:02:25Z</time>
      </trkpt>
      <trkpt lat="43.86299" lon="1.88972">
        <ele>148.6</ele>
        <time>2020-07-15T12:02:26Z</time>
      </trkpt>
      <trkpt lat="43.86296" lon="1.88977">
        <ele>149</ele>
        <time>2020-07-15T12:02:27Z</time>
      </trkpt>
      <trkpt lat="43.86294" lon="1.88981">
        <ele>149.4</ele>
        <time>2020-07-15T12:02:28Z</time>
      </trkpt>
      <trkpt lat="43.86292" lon="1.88985">
        <ele>149.8</ele>
        <time>2020-07-15T12:02:29Z</time>
      </trkpt>
      <trkpt lat="43.86289" lon="1.88989">
        <ele>150.2</ele>
        <time>2020-07-15T12:02:30Z</time>
      </trkpt>
      <trkpt lat="43.86286" lon="1.88992">
        <ele>150.8</ele>
        <time>2020-07-15T12:02:31Z</time>
      </trkpt>
      <trkpt lat="43.86283" lon="1.88996">
        <ele>151.2</ele>
        <time>2020-07-15T12:02:32Z</time>
      </trkpt>
      <trkpt lat="43.8628" lon="1.89">
        <ele>151.6</ele>
        <time>2020-07-15T12:02:33Z</time>
      </trkpt>
      <trkpt lat="43.86276" lon="1.89004">
        <ele>152</ele>
        <time>2020-07-15T12:02:34Z</time>
      </trkpt>
      <trkpt lat="43.86274" lon="1.89008">
        <ele>152.4</ele>
        <time>2020-07-15T12:02:35Z</time>
      </trkpt>
      <trkpt lat="43.86271" lon="1.89011">
        <ele>152.8</ele>
        <time>2020-07-15T12:02:36Z</time>
      </trkpt>
      <trkpt lat="43.86268" lon="1.89015">
        <ele>153.2</ele>
        <time>2020-07-15T12:02:37Z</time>
      </trkpt>
      <trkpt lat="43.86265" lon="1.89019">
        <ele>153.6</ele>
        <time>2020-07-15T12:02:38Z</time>
      </trkpt>
      <trkpt lat="43.86262" lon="1.89023">
        <ele>154</ele>
        <time>2020-07-15T12:02:39Z</time>
      </trkpt>
      <trkpt lat="43.86259" lon="1.89028">
        <ele>154.4</ele>
        <time>2020-07-15T12:02:40Z</time>
      </trkpt>
      <trkpt lat="43.86256" lon="1.89033">
        <ele>154.6</ele>
        <time>2020-07-15T12:02:41Z</time>
      </trkpt>
      <trkpt lat="43.86253" lon="1.89038">
        <ele>154.8</ele>
        <time>2020-07-15T12:02:42Z</time>
      </trkpt>
      <trkpt lat="43.86249" lon="1.89043">
        <ele>155</ele>
        <time>2020-07-15T12:02:43Z</time>
      </trkpt>
      <trkpt lat="43.86245" lon="1.89047">
        <ele>155.2</ele>
        <time>2020-07-15T12:02:44Z</time>
      </trkpt>
      <trkpt lat="43.86242" lon="1.89052">
        <ele>155.2</ele>
        <time>2020-07-15T12:02:45Z</time>
      </trkpt>
      <trkpt lat="43.86238" lon="1.89057">
        <ele>155.4</ele>
        <time>2020-07-15T12:02:46Z</time>
      </trkpt>
      <trkpt lat="43.86234" lon="1.89062">
        <ele>155.4</ele>
        <time>2020-07-15T12:02:47Z</time>
      </trkpt>
      <trkpt lat="43.86229" lon="1.89067">
        <ele>155.4</ele>
        <time>2020-07-15T12:02:48Z</time>
      </trkpt>
      <trkpt lat="43.86226" lon="1.89073">
        <ele>155.6</ele>
        <time>2020-07-15T12:02:49Z</time>
      </trkpt>
      <trkpt lat="43.86222" lon="1.89078">
        <ele>155.8</ele>
        <time>2020-07-15T12:02:50Z</time>
      </trkpt>
      <trkpt lat="43.86218" lon="1.89084">
        <ele>155.8</ele>
        <time>2020-07-15T12:02:51Z</time>
      </trkpt>
      <trkpt lat="43.86214" lon="1.89089">
        <ele>156</ele>
        <time>2020-07-15T12:02:52Z</time>
      </trkpt>
      <trkpt lat="43.8621" lon="1.89093">
        <ele>156</ele>
        <time>2020-07-15T12:02:53Z</time>
      </trkpt>
      <trkpt lat="43.86206" lon="1.89098">
        <ele>156</ele>
        <time>2020-07-15T12:02:54Z</time>
      </trkpt>
      <trkpt lat="43.86202" lon="1.89103">
        <ele>156</ele>
        <time>2020-07-15T12:02:55Z</time>
      </trkpt>
      <trkpt lat="43.86198" lon="1.89107">
        <ele>156.4</ele>
        <time>2020-07-15T12:02:56Z</time>
      </trkpt>
      <trkpt lat="43.86194" lon="1.89112">
        <ele>156.4</ele>
        <time>2020-07-15T12:02:57Z</time>
      </trkpt>
      <trkpt lat="43.8619" lon="1.89118">
        <ele>156.6</ele>
        <time>2020-07-15T12:02:58Z</time>
      </trkpt>
      <trkpt lat="43.86186" lon="1.89123">
        <ele>156.8</ele>
        <time>2020-07-15T12:02:59Z</time>
      </trkpt>
      <trkpt lat="43.86182" lon="1.89128">
        <ele>157</ele>
        <time>2020-07-15T12:03:00Z</time>
      </trkpt>
      <trkpt lat="43.86179" lon="1.89133">
        <ele>157.2</ele>
        <time>2020-07-15T12:03:01Z</time>
      </trkpt>
      <trkpt lat="43.86175" lon="1.89138">
        <ele>157.6</ele>
        <time>2020-07-15T12:03:02Z</time>
      </trkpt>
      <trkpt lat="43.86171" lon="1.89142">
        <ele>157.8</ele>
        <time>2020-07-15T12:03:03Z</time>
      </trkpt>
      <trkpt lat="43.86168" lon="1.89147">
        <ele>158</ele>
        <time>2020-07-15T12:03:04Z</time>
      </trkpt>
      <trkpt lat="43.86164" lon="1.89151">
        <ele>158.4</ele>
        <time>2020-07-15T12:03:05Z</time>
      </trkpt>
      <trkpt lat="43.8616" lon="1.89156">
        <ele>158.6</ele>
        <time>2020-07-15T12:03:06Z</time>
      </trkpt>
      <trkpt lat="43.86157" lon="1.89161">
        <ele>158.8</ele>
        <time>2020-07-15T12:03:07Z</time>
      </trkpt>
      <trkpt lat="43.86154" lon="1.89166">
        <ele>159.2</ele>
        <time>2020-07-15T12:03:08Z</time>
      </trkpt>
      <trkpt lat="43.8615" lon="1.89171">
        <ele>159.4</ele>
        <time>2020-07-15T12:03:09Z</time>
      </trkpt>
      <trkpt lat="43.86147" lon="1.89176">
        <ele>159.8</ele>
        <time>2020-07-15T12:03:10Z</time>
      </trkpt>
      <trkpt lat="43.86144" lon="1.89181">
        <ele>160</ele>
        <time>2020-07-15T12:03:11Z</time>
      </trkpt>
      <trkpt lat="43.86141" lon="1.89187">
        <ele>160.2</ele>
        <time>2020-07-15T12:03:12Z</time>
      </trkpt>
      <trkpt lat="43.86138" lon="1.89192">
        <ele>160.4</ele>
        <time>2020-07-15T12:03:13Z</time>
      </trkpt>
      <trkpt lat="43.86136" lon="1.89198">
        <ele>160.6</ele>
        <time>2020-07-15T12:03:14Z</time>
      </trkpt>
      <trkpt lat="43.86134" lon="1.89204">
        <ele>160.8</ele>
        <time>2020-07-15T12:03:15Z</time>
      </trkpt>
      <trkpt lat="43.86132" lon="1.89211">
        <ele>161</ele>
        <time>2020-07-15T12:03:16Z</time>
      </trkpt>
      <trkpt lat="43.8613" lon="1.89217">
        <ele>161.2</ele>
        <time>2020-07-15T12:03:17Z</time>
      </trkpt>
      <trkpt lat="43.86128" lon="1.89223">
        <ele>161.4</ele>
        <time>2020-07-15T12:03:18Z</time>
      </trkpt>
      <trkpt lat="43.86126" lon="1.89229">
        <ele>161.6</ele>
        <time>2020-07-15T12:03:19Z</time>
      </trkpt>
      <trkpt lat="43.86124" lon="1.89235">
        <ele>161.8</ele>
        <time>2020-07-15T12:03:20Z</time>
      </trkpt>
      <trkpt lat="43.86122" lon="1.89242">
        <ele>162.2</ele>
        <time>2020-07-15T12:03:21Z</time>
      </trkpt>
      <trkpt lat="43.8612" lon="1.89248">
        <ele>162.4</ele>
        <time>2020-07-15T12:03:22Z</time>
      </trkpt>
      <trkpt lat="43.86118" lon="1.89255">
        <ele>162.6</ele>
        <time>2020-07-15T12:03:23Z</time>
      </trkpt>
      <trkpt lat="43.86117" lon="1.89262">
        <ele>162.8</ele>
        <time>2020-07-15T12:03:24Z</time>
      </trkpt>
      <trkpt lat="43.86115" lon="1.89268">
        <ele>163</ele>
        <time>2020-07-15T12:03:25Z</time>
      </trkpt>
      <trkpt lat="43.86114" lon="1.89275">
        <ele>163.2</ele>
        <time>2020-07-15T12:03:26Z</time>
      </trkpt>
      <trkpt lat="43.86113" lon="1.89281">
        <ele>163.4</ele>
        <time>2020-07-15T12:03:27Z</time>
      </trkpt>
      <trkpt lat="43.86111" lon="1.89287">
        <ele>163.8</ele>
        <time>2020-07-15T12:03:28Z</time>
      </trkpt>
      <trkpt lat="43.8611" lon="1.89294">
        <ele>164</ele>
        <time>2020-07-15T12:03:29Z</time>
      </trkpt>
      <trkpt lat="43.86108" lon="1.893">
        <ele>164.4</ele>
        <time>2020-07-15T12:03:30Z</time>
      </trkpt>
      <trkpt lat="43.86107" lon="1.89306">
        <ele>164.6</ele>
        <time>2020-07-15T12:03:31Z</time>
      </trkpt>
      <trkpt lat="43.86105" lon="1.89311">
        <ele>165</ele>
        <time>2020-07-15T12:03:32Z</time>
      </trkpt>
      <trkpt lat="43.86104" lon="1.89317">
        <ele>165.2</ele>
        <time>2020-07-15T12:03:33Z</time>
      </trkpt>
      <trkpt lat="43.86102" lon="1.89323">
        <ele>165.6</ele>
        <time>2020-07-15T12:03:34Z</time>
      </trkpt>
      <trkpt lat="43.86101" lon="1.89328">
        <ele>166</ele>
        <time>2020-07-15T12:03:35Z</time>
      </trkpt>
      <trkpt lat="43.861" lon="1.89334">
        <ele>166.2</ele>
        <time>2020-07-15T12:03:36Z</time>
      </trkpt>
      <trkpt lat="43.86099" lon="1.8934">
        <ele>166.6</ele>
        <time>2020-07-15T12:03:37Z</time>
      </trkpt>
      <trkpt lat="43.86098" lon="1.89345">
        <ele>166.8</ele>
        <time>2020-07-15T12:03:38Z</time>
      </trkpt>
      <trkpt lat="43.86097" lon="1.89351">
        <ele>167.2</ele>
        <time>2020-07-15T12:03:39Z</time>
      </trkpt>
      <trkpt lat="43.86096" lon="1.89356">
        <ele>167.4</ele>
        <time>2020-07-15T12:03:40Z</time>
      </trkpt>
      <trkpt lat="43.86095" lon="1.89361">
        <ele>167.8</ele>
        <time>2020-07-15T12:03:41Z</time>
      </trkpt>
      <trkpt lat="43.86094" lon="1.89367">
        <ele>168</ele>
        <time>2020-07-15T12:03:42Z</time>
      </trkpt>
      <trkpt lat="43.86093" lon="1.89372">
        <ele>168.4</ele>
        <time>2020-07-15T12:03:43Z</time>
      </trkpt>
      <trkpt lat="43.86092" lon="1.89378">
        <ele>168.6</ele>
        <time>2020-07-15T12:03:44Z</time>
      </trkpt>
      <trkpt lat="43.86092" lon="1.89384">
        <ele>169</ele>
        <time>2020-07-15T12:03:45Z</time>
      </trkpt>
      <trkpt lat="43.86092" lon="1.8939">
        <ele>169.2</ele>
        <time>2020-07-15T12:03:46Z</time>
      </trkpt>
      <trkpt lat="43.86091" lon="1.89396">
        <ele>169.4</ele>
        <time>2020-07-15T12:03:47Z</time>
      </trkpt>
      <trkpt lat="43.86091" lon="1.89401">
        <ele>169.6</ele>
        <time>2020-07-15T12:03:48Z</time>
      </trkpt>
      <trkpt lat="43.86091" lon="1.89407">
        <ele>169.8</ele>
        <time>2020-07-15T12:03:49Z</time>
      </trkpt>
      <trkpt lat="43.86089" lon="1.89411">
        <ele>170</ele>
        <time>2020-07-15T12:03:50Z</time>
      </trkpt>
      <trkpt lat="43.86087" lon="1.89415">
        <ele>170.4</ele>
        <time>2020-07-15T12:03:51Z</time>
      </trkpt>
      <trkpt lat="43.86084" lon="1.89418">
        <ele>170.6</ele>
        <time>2020-07-15T12:03:52Z</time>
      </trkpt>
      <trkpt lat="43.86082" lon="1.8942">
        <ele>170.8</ele>
        <time>2020-07-15T12:03:53Z</time>
      </trkpt>
      <trkpt lat="43.8608" lon="1.89424">
        <ele>171.2</ele>
        <time>2020-07-15T12:03:54Z</time>
      </trkpt>
      <trkpt lat="43.86079" lon="1.89426">
        <ele>171.6</ele>
        <time>2020-07-15T12:03:55Z</time>
      </trkpt>
      <trkpt lat="43.86076" lon="1.89428">
        <ele>172</ele>
        <time>2020-07-15T12:03:56Z</time>
      </trkpt>
      <trkpt lat="43.86074" lon="1.89429">
        <ele>172.4</ele>
        <time>2020-07-15T12:03:57Z</time>
      </trkpt>
      <trkpt lat="43.86071" lon="1.8943">
        <ele>172.6</ele>
        <time>2020-07-15T12:03:58Z</time>
      </trkpt>
      <trkpt lat="43.86068" lon="1.89431">
        <ele>173</ele>
        <time>2020-07-15T12:03:59Z</time>
      </trkpt>
      <trkpt lat="43.86066" lon="1.8943">
        <ele>173.4</ele>
        <time>2020-07-15T12:04:00Z</time>
      </trkpt>
      <trkpt lat="43.86063" lon="1.89429">
        <ele>173.8</ele>
        <time>2020-07-15T12:04:01Z</time>
      </trkpt>
      <trkpt lat="43.86061" lon="1.89427">
        <ele>174</ele>
        <time>2020-07-15T12:04:02Z</time>
      </trkpt>
      <trkpt lat="43.86058" lon="1.89426">
        <ele>174.4</ele>
        <time>2020-07-15T12:04:03Z</time>
      </trkpt>
      <trkpt lat="43.86055" lon="1.89425">
        <ele>174.6</ele>
        <time>2020-07-15T12:04:04Z</time>
      </trkpt>
      <trkpt lat="43.86053" lon="1.89423">
        <ele>175</ele>
        <time>2020-07-15T12:04:05Z</time>
      </trkpt>
      <trkpt lat="43.8605" lon="1.89421">
        <ele>175.2</ele>
        <time>2020-07-15T12:04:06Z</time>
      </trkpt>
      <trkpt lat="43.86048" lon="1.89419">
        <ele>175.6</ele>
        <time>2020-07-15T12:04:07Z</time>
      </trkpt>
      <trkpt lat="43.86046" lon="1.89417">
        <ele>176</ele>
        <time>2020-07-15T12:04:08Z</time>
      </trkpt>
      <trkpt lat="43.86043" lon="1.89415">
        <ele>176.2</ele>
        <time>2020-07-15T12:04:09Z</time>
      </trkpt>
      <trkpt lat="43.86041" lon="1.89413">
        <ele>176.6</ele>
        <time>2020-07-15T12:04:10Z</time>
      </trkpt>
      <trkpt lat="43.86038" lon="1.89411">
        <ele>176.8</ele>
        <time>2020-07-15T12:04:11Z</time>
      </trkpt>
      <trkpt lat="43.86036" lon="1.89408">
        <ele>177</ele>
        <time>2020-07-15T12:04:12Z</time>
      </trkpt>
      <trkpt lat="43.86034" lon="1.89406">
        <ele>177.2</ele>
        <time>2020-07-15T12:04:13Z</time>
      </trkpt>
      <trkpt lat="43.86031" lon="1.89404">
        <ele>177.4</ele>
        <time>2020-07-15T12:04:14Z</time>
      </trkpt>
      <trkpt lat="43.86029" lon="1.89401">
        <ele>177.6</ele>
        <time>2020-07-15T12:04:15Z</time>
      </trkpt>
      <trkpt lat="43.86026" lon="1.89398">
        <ele>177.8</ele>
        <time>2020-07-15T12:04:16Z</time>
      </trkpt>
      <trkpt lat="43.86024" lon="1.89396">
        <ele>177.8</ele>
        <time>2020-07-15T12:04:17Z</time>
      </trkpt>
      <trkpt lat="43.86021" lon="1.89394">
        <ele>178</ele>
        <time>2020-07-15T12:04:18Z</time>
      </trkpt>
      <trkpt lat="43.86019" lon="1.89391">
        <ele>178.2</ele>
        <time>2020-07-15T12:04:19Z</time>
      </trkpt>
      <trkpt lat="43.86017" lon="1.89388">
        <ele>178.2</ele>
        <time>2020-07-15T12:04:20Z</time>
      </trkpt>
      <trkpt lat="43.86014" lon="1.89386">
        <ele>178.4</ele>
        <time>2020-07-15T12:04:21Z</time>
      </trkpt>
      <trkpt lat="43.86011" lon="1.89386">
        <ele>178.4</ele>
        <time>2020-07-15T12:04:22Z</time>
      </trkpt>
      <trkpt lat="43.86009" lon="1.89388">
        <ele>178.6</ele>
        <time>2020-07-15T12:04:23Z</time>
      </trkpt>
      <trkpt lat="43.86007" lon="1.8939">
        <ele>178.8</ele>
        <time>2020-07-15T12:04:24Z</time>
      </trkpt>
      <trkpt lat="43.86004" lon="1.89392">
        <ele>178.8</ele>
        <time>2020-07-15T12:04:25Z</time>
      </trkpt>
      <trkpt lat="43.86001" lon="1.89394">
        <ele>179</ele>
        <time>2020-07-15T12:04:26Z</time>
      </trkpt>
      <trkpt lat="43.85998" lon="1.89393">
        <ele>179</ele>
        <time>2020-07-15T12:04:27Z</time>
      </trkpt>
      <trkpt lat="43.85995" lon="1.89392">
        <ele>179</ele>
        <time>2020-07-15T12:04:28Z</time>
      </trkpt>
      <trkpt lat="43.85991" lon="1.8939">
        <ele>179</ele>
        <time>2020-07-15T12:04:29Z</time>
      </trkpt>
      <trkpt lat="43.85988" lon="1.89388">
        <ele>179.2</ele>
        <time>2020-07-15T12:04:30Z</time>
      </trkpt>
      <trkpt lat="43.85985" lon="1.89385">
        <ele>179.2</ele>
        <time>2020-07-15T12:04:31Z</time>
      </trkpt>
      <trkpt lat="43.85982" lon="1.89382">
        <ele>179.2</ele>
        <time>2020-07-15T12:04:32Z</time>
      </trkpt>
      <trkpt lat="43.85978" lon="1.89379">
        <ele>179.2</ele>
        <time>2020-07-15T12:04:33Z</time>
      </trkpt>
      <trkpt lat="43.85975" lon="1.89376">
        <ele>179.2</ele>
        <time>2020-07-15T12:04:34Z</time>
      </trkpt>
      <trkpt lat="43.85972" lon="1.89372">
        <ele>179.4</ele>
        <time>2020-07-15T12:04:35Z</time>
      </trkpt>
      <trkpt lat="43.85969" lon="1.89369">
        <ele>179.4</ele>
        <time>2020-07-15T12:04:36Z</time>
      </trkpt>
      <trkpt lat="43.85965" lon="1.89366">
        <ele>179.4</ele>
        <time>2020-07-15T12:04:37Z</time>
      </trkpt>
      <trkpt lat="43.85962" lon="1.89362">
        <ele>179.2</ele>
        <time>2020-07-15T12:04:38Z</time>
      </trkpt>
      <trkpt lat="43.85959" lon="1.89358">
        <ele>179.2</ele>
        <time>2020-07-15T12:04:39Z</time>
      </trkpt>
      <trkpt lat="43.85955" lon="1.89355">
        <ele>179.2</ele>
        <time>2020-07-15T12:04:40Z</time>
      </trkpt>
      <trkpt lat="43.85951" lon="1.89351">
        <ele>179</ele>
        <time>2020-07-15T12:04:41Z</time>
      </trkpt>
      <trkpt lat="43.85948" lon="1.89348">
        <ele>179</ele>
        <time>2020-07-15T12:04:42Z</time>
      </trkpt>
      <trkpt lat="43.85945" lon="1.89344">
        <ele>179.2</ele>
        <time>2020-07-15T12:04:43Z</time>
      </trkpt>
      <trkpt lat="43.85944" lon="1.8934">
        <ele>179.2</ele>
        <time>2020-07-15T12:04:44Z</time>
      </trkpt>
      <trkpt lat="43.85944" lon="1.89336">
        <ele>179.2</ele>
        <time>2020-07-15T12:04:45Z</time>
      </trkpt>
      <trkpt lat="43.85946" lon="1.89331">
        <ele>179.4</ele>
        <time>2020-07-15T12:04:46Z</time>
      </trkpt>
      <trkpt lat="43.85947" lon="1.89326">
        <ele>179.4</ele>
        <time>2020-07-15T12:04:47Z</time>
      </trkpt>
      <trkpt lat="43.8595" lon="1.89321">
        <ele>179.6</ele>
        <time>2020-07-15T12:04:48Z</time>
      </trkpt>
      <trkpt lat="43.85952" lon="1.89316">
        <ele>179.6</ele>
        <time>2020-07-15T12:04:49Z</time>
      </trkpt>
      <trkpt lat="43.85954" lon="1.89312">
        <ele>179.6</ele>
        <time>2020-07-15T12:04:50Z</time>
      </trkpt>
      <trkpt lat="43.85957" lon="1.89307">
        <ele>179.6</ele>
        <time>2020-07-15T12:04:51Z</time>
      </trkpt>
      <trkpt lat="43.85959" lon="1.89303">
        <ele>179.8</ele>
        <time>2020-07-15T12:04:52Z</time>
      </trkpt>
      <trkpt lat="43.85962" lon="1.89298">
        <ele>179.8</ele>
        <time>2020-07-15T12:04:53Z</time>
      </trkpt>
      <trkpt lat="43.85965" lon="1.89293">
        <ele>179.6</ele>
        <time>2020-07-15T12:04:54Z</time>
      </trkpt>
      <trkpt lat="43.85968" lon="1.89288">
        <ele>179.8</ele>
        <time>2020-07-15T12:04:55Z</time>
      </trkpt>
      <trkpt lat="43.85971" lon="1.89283">
        <ele>179.6</ele>
        <time>2020-07-15T12:04:56Z</time>
      </trkpt>
      <trkpt lat="43.85974" lon="1.89279">
        <ele>179.6</ele>
        <time>2020-07-15T12:04:57Z</time>
      </trkpt>
      <trkpt lat="43.85976" lon="1.89274">
        <ele>179.6</ele>
        <time>2020-07-15T12:04:58Z</time>
      </trkpt>
      <trkpt lat="43.85979" lon="1.89269">
        <ele>179.6</ele>
        <time>2020-07-15T12:04:59Z</time>
      </trkpt>
      <trkpt lat="43.85981" lon="1.89265">
        <ele>179.6</ele>
        <time>2020-07-15T12:05:00Z</time>
      </trkpt>
      <trkpt lat="43.85984" lon="1.89262">
        <ele>179.4</ele>
        <time>2020-07-15T12:05:01Z</time>
      </trkpt>
      <trkpt lat="43.85987" lon="1.89263">
        <ele>179.4</ele>
        <time>2020-07-15T12:05:02Z</time>
      </trkpt>
      <trkpt lat="43.85989" lon="1.89265">
        <ele>179.4</ele>
        <time>2020-07-15T12:05:03Z</time>
      </trkpt>
      <trkpt lat="43.85992" lon="1.89267">
        <ele>179.4</ele>
        <time>2020-07-15T12:05:04Z</time>
      </trkpt>
      <trkpt lat="43.85995" lon="1.89271">
        <ele>179.2</ele>
        <time>2020-07-15T12:05:05Z</time>
      </trkpt>
      <trkpt lat="43.85998" lon="1.89274">
        <ele>179.2</ele>
        <time>2020-07-15T12:05:06Z</time>
      </trkpt>
      <trkpt lat="43.86002" lon="1.89278">
        <ele>179.2</ele>
        <time>2020-07-15T12:05:07Z</time>
      </trkpt>
      <trkpt lat="43.86006" lon="1.89282">
        <ele>179.2</ele>
        <time>2020-07-15T12:05:08Z</time>
      </trkpt>
      <trkpt lat="43.8601" lon="1.89286">
        <ele>179</ele>
        <time>2020-07-15T12:05:09Z</time>
      </trkpt>
      <trkpt lat="43.86015" lon="1.89291">
        <ele>179</ele>
        <time>2020-07-15T12:05:10Z</time>
      </trkpt>
      <trkpt lat="43.86019" lon="1.89295">
        <ele>178.8</ele>
        <time>2020-07-15T12:05:11Z</time>
      </trkpt>
      <trkpt lat="43.86024" lon="1.89299">
        <ele>178.8</ele>
        <time>2020-07-15T12:05:12Z</time>
      </trkpt>
      <trkpt lat="43.86028" lon="1.89303">
        <ele>178.6</ele>
        <time>2020-07-15T12:05:13Z</time>
      </trkpt>
      <trkpt lat="43.86033" lon="1.89307">
        <ele>178.6</ele>
        <time>2020-07-15T12:05:14Z</time>
      </trkpt>
      <trkpt lat="43.86037" lon="1.89312">
        <ele>178.4</ele>
        <time>2020-07-15T12:05:15Z</time>
      </trkpt>
      <trkpt lat="43.86042" lon="1.89316">
        <ele>178.2</ele>
        <time>2020-07-15T12:05:16Z</time>
      </trkpt>
      <trkpt lat="43.86046" lon="1.89321">
        <ele>178</ele>
        <time>2020-07-15T12:05:17Z</time>
      </trkpt>
      <trkpt lat="43.86047" lon="1.89326">
        <ele>177.8</ele>
        <time>2020-07-15T12:05:18Z</time>
      </trkpt>
      <trkpt lat="43.86047" lon="1.89331">
        <ele>177.6</ele>
        <time>2020-07-15T12:05:19Z</time>
      </trkpt>
      <trkpt lat="43.86046" lon="1.89337">
        <ele>177.4</ele>
        <time>2020-07-15T12:05:20Z</time>
      </trkpt>
      <trkpt lat="43.86044" lon="1.89342">
        <ele>177.4</ele>
        <time>2020-07-15T12:05:21Z</time>
      </trkpt>
      <trkpt lat="43.86043" lon="1.89347">
        <ele>177.4</ele>
        <time>2020-07-15T12:05:22Z</time>
      </trkpt>
      <trkpt lat="43.86044" lon="1.89352">
        <ele>177.2</ele>
        <time>2020-07-15T12:05:23Z</time>
      </trkpt>
      <trkpt lat="43.86047" lon="1.89356">
        <ele>177.2</ele>
        <time>2020-07-15T12:05:24Z</time>
      </trkpt>
      <trkpt lat="43.8605" lon="1.89359">
        <ele>177</ele>
        <time>2020-07-15T12:05:25Z</time>
      </trkpt>
      <trkpt lat="43.86055" lon="1.89362">
        <ele>176.8</ele>
        <time>2020-07-15T12:05:26Z</time>
      </trkpt>
      <trkpt lat="43.86058" lon="1.89366">
        <ele>176.6</ele>
        <time>2020-07-15T12:05:27Z</time>
      </trkpt>
      <trkpt lat="43.86063" lon="1.8937">
        <ele>176.4</ele>
        <time>2020-07-15T12:05:28Z</time>
      </trkpt>
      <trkpt lat="43.86068" lon="1.89375">
        <ele>176</ele>
        <time>2020-07-15T12:05:29Z</time>
      </trkpt>
      <trkpt lat="43.86071" lon="1.89379">
        <ele>175.6</ele>
        <time>2020-07-15T12:05:30Z</time>
      </trkpt>
      <trkpt lat="43.86074" lon="1.89385">
        <ele>175.2</ele>
        <time>2020-07-15T12:05:31Z</time>
      </trkpt>
      <trkpt lat="43.86076" lon="1.89391">
        <ele>174.6</ele>
        <time>2020-07-15T12:05:32Z</time>
      </trkpt>
      <trkpt lat="43.86076" lon="1.89398">
        <ele>174.4</ele>
        <time>2020-07-15T12:05:33Z</time>
      </trkpt>
      <trkpt lat="43.86075" lon="1.89405">
        <ele>174.2</ele>
        <time>2020-07-15T12:05:34Z</time>
      </trkpt>
      <trkpt lat="43.86074" lon="1.89411">
        <ele>174</ele>
        <time>2020-07-15T12:05:35Z</time>
      </trkpt>
      <trkpt lat="43.86072" lon="1.89416">
        <ele>174</ele>
        <time>2020-07-15T12:05:36Z</time>
      </trkpt>
      <trkpt lat="43.8607" lon="1.89421">
        <ele>174</ele>
        <time>2020-07-15T12:05:37Z</time>
      </trkpt>
      <trkpt lat="43.86067" lon="1.89424">
        <ele>174</ele>
        <time>2020-07-15T12:05:38Z</time>
      </trkpt>
      <trkpt lat="43.86064" lon="1.89426">
        <ele>174.2</ele>
        <time>2020-07-15T12:05:39Z</time>
      </trkpt>
      <trkpt lat="43.8606" lon="1.89425">
        <ele>174.2</ele>
        <time>2020-07-15T12:05:40Z</time>
      </trkpt>
      <trkpt lat="43.86057" lon="1.89424">
        <ele>174.4</ele>
        <time>2020-07-15T12:05:41Z</time>
      </trkpt>
      <trkpt lat="43.86054" lon="1.89422">
        <ele>174.8</ele>
        <time>2020-07-15T12:05:42Z</time>
      </trkpt>
      <trkpt lat="43.8605" lon="1.89419">
        <ele>175</ele>
        <time>2020-07-15T12:05:43Z</time>
      </trkpt>
      <trkpt lat="43.86047" lon="1.89417">
        <ele>175.4</ele>
        <time>2020-07-15T12:05:44Z</time>
      </trkpt>
      <trkpt lat="43.86044" lon="1.89414">
        <ele>175.6</ele>
        <time>2020-07-15T12:05:45Z</time>
      </trkpt>
      <trkpt lat="43.8604" lon="1.89411">
        <ele>176</ele>
        <time>2020-07-15T12:05:46Z</time>
      </trkpt>
      <trkpt lat="43.86036" lon="1.89407">
        <ele>176.4</ele>
        <time>2020-07-15T12:05:47Z</time>
      </trkpt>
      <trkpt lat="43.86033" lon="1.89403">
        <ele>176.8</ele>
        <time>2020-07-15T12:05:48Z</time>
      </trkpt>
      <trkpt lat="43.86029" lon="1.894">
        <ele>177.2</ele>
        <time>2020-07-15T12:05:49Z</time>
      </trkpt>
      <trkpt lat="43.86025" lon="1.89396">
        <ele>177.4</ele>
        <time>2020-07-15T12:05:50Z</time>
      </trkpt>
      <trkpt lat="43.86021" lon="1.89392">
        <ele>177.6</ele>
        <time>2020-07-15T12:05:51Z</time>
      </trkpt>
      <trkpt lat="43.86017" lon="1.89388">
        <ele>177.8</ele>
        <time>2020-07-15T12:05:52Z</time>
      </trkpt>
      <trkpt lat="43.86013" lon="1.89386">
        <ele>178</ele>
        <time>2020-07-15T12:05:53Z</time>
      </trkpt>
      <trkpt lat="43.86009" lon="1.89387">
        <ele>178.2</ele>
        <time>2020-07-15T12:05:54Z</time>
      </trkpt>
      <trkpt lat="43.86006" lon="1.8939">
        <ele>178.4</ele>
        <time>2020-07-15T12:05:55Z</time>
      </trkpt>
      <trkpt lat="43.86002" lon="1.89392">
        <ele>178.4</ele>
        <time>2020-07-15T12:05:56Z</time>
      </trkpt>
      <trkpt lat="43.85999" lon="1.89392">
        <ele>178.6</ele>
        <time>2020-07-15T12:05:57Z</time>
      </trkpt>
      <trkpt lat="43.85994" lon="1.89391">
        <ele>178.6</ele>
        <time>2020-07-15T12:05:58Z</time>
      </trkpt>
      <trkpt lat="43.8599" lon="1.89388">
        <ele>178.8</ele>
        <time>2020-07-15T12:05:59Z</time>
      </trkpt>
      <trkpt lat="43.85986" lon="1.89385">
        <ele>178.6</ele>
        <time>2020-07-15T12:06:00Z</time>
      </trkpt>
      <trkpt lat="43.85982" lon="1.89382">
        <ele>178.6</ele>
        <time>2020-07-15T12:06:01Z</time>
      </trkpt>
      <trkpt lat="43.85978" lon="1.89378">
        <ele>178.6</ele>
        <time>2020-07-15T12:06:02Z</time>
      </trkpt>
      <trkpt lat="43.85974" lon="1.89374">
        <ele>178.8</ele>
        <time>2020-07-15T12:06:03Z</time>
      </trkpt>
      <trkpt lat="43.8597" lon="1.8937">
        <ele>178.8</ele>
        <time>2020-07-15T12:06:04Z</time>
      </trkpt>
      <trkpt lat="43.85966" lon="1.89366">
        <ele>178.8</ele>
        <time>2020-07-15T12:06:05Z</time>
      </trkpt>
      <trkpt lat="43.85962" lon="1.89362">
        <ele>179</ele>
        <time>2020-07-15T12:06:06Z</time>
      </trkpt>
      <trkpt lat="43.85959" lon="1.89359">
        <ele>179</ele>
        <time>2020-07-15T12:06:07Z</time>
      </trkpt>
      <trkpt lat="43.85954" lon="1.89355">
        <ele>179</ele>
        <time>2020-07-15T12:06:08Z</time>
      </trkpt>
      <trkpt lat="43.8595" lon="1.89351">
        <ele>179.2</ele>
        <time>2020-07-15T12:06:09Z</time>
      </trkpt>
      <trkpt lat="43.85947" lon="1.89347">
        <ele>179</ele>
        <time>2020-07-15T12:06:10Z</time>
      </trkpt>
      <trkpt lat="43.85944" lon="1.89344">
        <ele>179.2</ele>
        <time>2020-07-15T12:06:11Z</time>
      </trkpt>
      <trkpt lat="43.85941" lon="1.89341">
        <ele>179</ele>
        <time>2020-07-15T12:06:12Z</time>
      </trkpt>
      <trkpt lat="43.8594" lon="1.8934">
        <ele>179.2</ele>
        <time>2020-07-15T12:06:30Z</time>
      </trkpt>
      <trkpt lat="43.8594" lon="1.8934">
        <ele>179.2</ele>
        <time>2020-07-15T12:06:31Z</time>
      </trkpt>
      <trkpt lat="43.85943" lon="1.89342">
        <ele>179</ele>
        <time>2020-07-15T12:06:32Z</time>
      </trkpt>
      <trkpt lat="43.85946" lon="1.89344">
        <ele>179</ele>
        <time>2020-07-15T12:06:33Z</time>
      </trkpt>
      <trkpt lat="43.85948" lon="1.89347">
        <ele>179</ele>
        <time>2020-07-15T12:06:34Z</time>
      </trkpt>
      <trkpt lat="43.85952" lon="1.8935">
        <ele>179</ele>
        <time>2020-07-15T12:06:35Z</time>
      </trkpt>
      <trkpt lat="43.85955" lon="1.89353">
        <ele>179</ele>
        <time>2020-07-15T12:06:36Z</time>
      </trkpt>
      <trkpt lat="43.85959" lon="1.89357">
        <ele>179</ele>
        <time>2020-07-15T12:06:37Z</time>
      </trkpt>
      <trkpt lat="43.85962" lon="1.89361">
        <ele>179</ele>
        <time>2020-07-15T12:06:38Z</time>
      </trkpt>
      <trkpt lat="43.85966" lon="1.89366">
        <ele>179</ele>
        <time>2020-07-15T12:06:39Z</time>
      </trkpt>
      <trkpt lat="43.8597" lon="1.8937">
        <ele>179</ele>
        <time>2020-07-15T12:06:40Z</time>
      </trkpt>
      <trkpt lat="43.85974" lon="1.89374">
        <ele>179</ele>
        <time>2020-07-15T12:06:41Z</time>
      </trkpt>
      <trkpt lat="43.85978" lon="1.89379">
        <ele>178.8</ele>
        <time>2020-07-15T12:06:42Z</time>
      </trkpt>
      <trkpt lat="43.85983" lon="1.89383">
        <ele>178.8</ele>
        <time>2020-07-15T12:06:43Z</time>
      </trkpt>
      <trkpt lat="43.85987" lon="1.89387">
        <ele>178.8</ele>
        <time>2020-07-15T12:06:44Z</time>
      </trkpt>
      <trkpt lat="43.85992" lon="1.8939">
        <ele>178.8</ele>
        <time>2020-07-15T12:06:45Z</time>
      </trkpt>
      <trkpt lat="43.85997" lon="1.89392">
        <ele>178.8</ele>
        <time>2020-07-15T12:06:46Z</time>
      </trkpt>
      <trkpt lat="43.86002" lon="1.89392">
        <ele>178.8</ele>
        <time>2020-07-15T12:06:47Z</time>
      </trkpt>
      <trkpt lat="43.86006" lon="1.89389">
        <ele>178.8</ele>
        <time>2020-07-15T12:06:48Z</time>
      </trkpt>
      <trkpt lat="43.8601" lon="1.89386">
        <ele>178.8</ele>
        <time>2020-07-15T12:06:49Z</time>
      </trkpt>
      <trkpt lat="43.86014" lon="1.89386">
        <ele>178.6</ele>
        <time>2020-07-15T12:06:50Z</time>
      </trkpt>
      <trkpt lat="43.86017" lon="1.89388">
        <ele>178.4</ele>
        <time>2020-07-15T12:06:51Z</time>
      </trkpt>
      <trkpt lat="43.86021" lon="1.89391">
        <ele>178.4</ele>
        <time>2020-07-15T12:06:52Z</time>
      </trkpt>
      <trkpt lat="43.86025" lon="1.89395">
        <ele>178.2</ele>
        <time>2020-07-15T12:06:53Z</time>
      </trkpt>
      <trkpt lat="43.8603" lon="1.894">
        <ele>178</ele>
        <time>2020-07-15T12:06:54Z</time>
      </trkpt>
      <trkpt lat="43.86034" lon="1.89405">
        <ele>177.8</ele>
        <time>2020-07-15T12:06:55Z</time>
      </trkpt>
      <trkpt lat="43.86039" lon="1.89411">
        <ele>177.6</ele>
        <time>2020-07-15T12:06:56Z</time>
      </trkpt>
      <trkpt lat="43.86045" lon="1.89415">
        <ele>177.4</ele>
        <time>2020-07-15T12:06:57Z</time>
      </trkpt>
      <trkpt lat="43.8605" lon="1.8942">
        <ele>177.2</ele>
        <time>2020-07-15T12:06:58Z</time>
      </trkpt>
      <trkpt lat="43.86056" lon="1.89424">
        <ele>176.6</ele>
        <time>2020-07-15T12:06:59Z</time>
      </trkpt>
      <trkpt lat="43.86062" lon="1.89427">
        <ele>176.2</ele>
        <time>2020-07-15T12:07:00Z</time>
      </trkpt>
      <trkpt lat="43.86066" lon="1.89429">
        <ele>175.6</ele>
        <time>2020-07-15T12:07:01Z</time>
      </trkpt>
      <trkpt lat="43.86071" lon="1.89428">
        <ele>174.8</ele>
        <time>2020-07-15T12:07:02Z</time>
      </trkpt>
      <trkpt lat="43.86076" lon="1.89426">
        <ele>174.2</ele>
        <time>2020-07-15T12:07:03Z</time>
      </trkpt>
      <trkpt lat="43.8608" lon="1.89423">
        <ele>173.6</ele>
        <time>2020-07-15T12:07:04Z</time>
      </trkpt>
      <trkpt lat="43.86083" lon="1.89419">
        <ele>173</ele>
        <time>2020-07-15T12:07:05Z</time>
      </trkpt>
      <trkpt lat="43.86086" lon="1.89416">
        <ele>172.4</ele>
        <time>2020-07-15T12:07:06Z</time>
      </trkpt>
      <trkpt lat="43.86088" lon="1.89414">
        <ele>172</ele>
        <time>2020-07-15T12:07:07Z</time>
      </trkpt>
      <trkpt lat="43.86089" lon="1.89414">
        <ele>171.6</ele>
        <time>2020-07-15T12:07:08Z</time>
      </trkpt>
      <trkpt lat="43.86091" lon="1.89416">
        <ele>171.4</ele>
        <time>2020-07-15T12:07:09Z</time>
      </trkpt>
      <trkpt lat="43.86092" lon="1.8942">
        <ele>171.2</ele>
        <time>2020-07-15T12:07:10Z</time>
      </trkpt>
      <trkpt lat="43.86093" lon="1.89425">
        <ele>171</ele>
        <time>2020-07-15T12:07:11Z</time>
      </trkpt>
      <trkpt lat="43.86092" lon="1.89432">
        <ele>170.8</ele>
        <time>2020-07-15T12:07:12Z</time>
      </trkpt>
      <trkpt lat="43.86092" lon="1.89438">
        <ele>170.8</ele>
        <time>2020-07-15T12:07:13Z</time>
      </trkpt>
      <trkpt lat="43.86091" lon="1.89444">
        <ele>170.8</ele>
        <time>2020-07-15T12:07:14Z</time>
      </trkpt>
      <trkpt lat="43.86092" lon="1.89451">
        <ele>170.8</ele>
        <time>2020-07-15T12:07:15Z</time>
      </trkpt>
      <trkpt lat="43.86092" lon="1.89458">
        <ele>170.8</ele>
        <time>2020-07-15T12:07:16Z</time>
      </trkpt>
      <trkpt lat="43.86092" lon="1.89466">
        <ele>170.6</ele>
        <time>2020-07-15T12:07:17Z</time>
      </trkpt>
      <trkpt lat="43.86092" lon="1.89475">
        <ele>170.6</ele>
        <time>2020-07-15T12:07:18Z</time>
      </trkpt>
      <trkpt lat="43.86093" lon="1.89483">
        <ele>170.6</ele>
        <time>2020-07-15T12:07:19Z</time>
      </trkpt>
      <trkpt lat="43.86093" lon="1.89491">
        <ele>170.6</ele>
        <time>2020-07-15T12:07:20Z</time>
      </trkpt>
      <trkpt lat="43.86093" lon="1.89499">
        <ele>170.8</ele>
        <time>2020-07-15T12:07:21Z</time>
      </trkpt>
      <trkpt lat="43.86093" lon="1.89507">
        <ele>170.8</ele>
        <time>2020-07-15T12:07:22Z</time>
      </trkpt>
      <trkpt lat="43.86093" lon="1.89515">
        <ele>171</ele>
        <time>2020-07-15T12:07:23Z</time>
      </trkpt>
      <trkpt lat="43.86094" lon="1.89523">
        <ele>171.2</ele>
        <time>2020-07-15T12:07:24Z</time>
      </trkpt>
      <trkpt lat="43.86094" lon="1.89531">
        <ele>171.4</ele>
        <time>2020-07-15T12:07:25Z</time>
      </trkpt>
      <trkpt lat="43.86094" lon="1.89539">
        <ele>171.4</ele>
        <time>2020-07-15T12:07:26Z</time>
      </trkpt>
      <trkpt lat="43.86093" lon="1.89546">
        <ele>171.4</ele>
        <time>2020-07-15T12:07:27Z</time>
      </trkpt>
      <trkpt lat="43.86094" lon="1.89555">
        <ele>171.4</ele>
        <time>2020-07-15T12:07:28Z</time>
      </trkpt>
      <trkpt lat="43.86094" lon="1.89563">
        <ele>171.4</ele>
        <time>2020-07-15T12:07:29Z</time>
      </trkpt>
      <trkpt lat="43.86094" lon="1.89571">
        <ele>171.4</ele>
        <time>2020-07-15T12:07:30Z</time>
      </trkpt>
      <trkpt lat="43.86093" lon="1.89579">
        <ele>171.4</ele>
        <time>2020-07-15T12:07:31Z</time>
      </trkpt>
      <trkpt lat="43.86092" lon="1.89588">
        <ele>171.4</ele>
        <time>2020-07-15T12:07:32Z</time>
      </trkpt>
      <trkpt lat="43.86092" lon="1.89596">
        <ele>171.4</ele>
        <time>2020-07-15T12:07:33Z</time>
      </trkpt>
      <trkpt lat="43.8609" lon="1.89605">
        <ele>171.4</ele>
        <time>2020-07-15T12:07:34Z</time>
      </trkpt>
      <trkpt lat="43.86089" lon="1.89614">
        <ele>171.4</ele>
        <time>2020-07-15T12:07:35Z</time>
      </trkpt>
      <trkpt lat="43.86087" lon="1.89622">
        <ele>171.2</ele>
        <time>2020-07-15T12:07:36Z</time>
      </trkpt>
      <trkpt lat="43.86085" lon="1.89631">
        <ele>171.2</ele>
        <time>2020-07-15T12:07:37Z</time>
      </trkpt>
      <trkpt lat="43.86083" lon="1.89639">
        <ele>171.2</ele>
        <time>2020-07-15T12:07:38Z</time>
      </trkpt>
      <trkpt lat="43.86081" lon="1.89648">
        <ele>171.2</ele>
        <time>2020-07-15T12:07:39Z</time>
      </trkpt>
      <trkpt lat="43.86079" lon="1.89656">
        <ele>171.4</ele>
        <time>2020-07-15T12:07:40Z</time>
      </trkpt>
      <trkpt lat="43.86077" lon="1.89664">
        <ele>171.2</ele>
        <time>2020-07-15T12:07:41Z</time>
      </trkpt>
      <trkpt lat="43.86075" lon="1.89672">
        <ele>171.2</ele>
        <time>2020-07-15T12:07:42Z</time>
      </trkpt>
      <trkpt lat="43.86073" lon="1.89681">
        <ele>171.2</ele>
        <time>2020-07-15T12:07:43Z</time>
      </trkpt>
      <trkpt lat="43.86071" lon="1.89689">
        <ele>171.4</ele>
        <time>2020-07-15T12:07:44Z</time>
      </trkpt>
      <trkpt lat="43.86069" lon="1.89697">
        <ele>171.4</ele>
        <time>2020-07-15T12:07:45Z</time>
      </trkpt>
      <trkpt lat="43.86066" lon="1.89704">
        <ele>171.4</ele>
        <time>2020-07-15T12:07:46Z</time>
      </trkpt>
      <trkpt lat="43.86064" lon="1.89712">
        <ele>171.4</ele>
        <time>2020-07-15T12:07:47Z</time>
      </trkpt>
      <trkpt lat="43.86062" lon="1.8972">
        <ele>171.4</ele>
        <time>2020-07-15T12:07:48Z</time>
      </trkpt>
      <trkpt lat="43.8606" lon="1.89728">
        <ele>171.6</ele>
        <time>2020-07-15T12:07:49Z</time>
      </trkpt>
      <trkpt lat="43.86057" lon="1.89736">
        <ele>171.6</ele>
        <time>2020-07-15T12:07:50Z</time>
      </trkpt>
      <trkpt lat="43.86055" lon="1.89743">
        <ele>171.8</ele>
        <time>2020-07-15T12:07:51Z</time>
      </trkpt>
      <trkpt lat="43.86053" lon="1.89751">
        <ele>172</ele>
        <time>2020-07-15T12:07:52Z</time>
      </trkpt>
      <trkpt lat="43.8605" lon="1.89759">
        <ele>172.2</ele>
        <time>2020-07-15T12:07:53Z</time>
      </trkpt>
      <trkpt lat="43.86048" lon="1.89766">
        <ele>172.2</ele>
        <time>2020-07-15T12:07:54Z</time>
      </trkpt>
      <trkpt lat="43.86046" lon="1.89774">
        <ele>172.4</ele>
        <time>2020-07-15T12:07:55Z</time>
      </trkpt>
      <trkpt lat="43.86043" lon="1.89781">
        <ele>172.6</ele>
        <time>2020-07-15T12:07:56Z</time>
      </trkpt>
      <trkpt lat="43.86041" lon="1.89789">
        <ele>172.8</ele>
        <time>2020-07-15T12:07:57Z</time>
      </trkpt>
      <trkpt lat="43.86039" lon="1.89796">
        <ele>173</ele>
        <time>2020-07-15T12:07:58Z</time>
      </trkpt>
      <trkpt lat="43.86037" lon="1.89803">
        <ele>173</ele>
        <time>2020-07-15T12:07:59Z</time>
      </trkpt>
      <trkpt lat="43.86034" lon="1.8981">
        <ele>173.2</ele>
        <time>2020-07-15T12:08:00Z</time>
      </trkpt>
      <trkpt lat="43.86032" lon="1.89817">
        <ele>173.2</ele>
        <time>2020-07-15T12:08:01Z</time>
      </trkpt>
      <trkpt lat="43.86029" lon="1.89824">
        <ele>173.4</ele>
        <time>2020-07-15T12:08:02Z</time>
      </trkpt>
      <trkpt lat="43.86027" lon="1.89831">
        <ele>173.6</ele>
        <time>2020-07-15T12:08:03Z</time>
      </trkpt>
      <trkpt lat="43.86025" lon="1.89837">
        <ele>173.8</ele>
        <time>2020-07-15T12:08:04Z</time>
      </trkpt>
      <trkpt lat="43.86022" lon="1.89844">
        <ele>174</ele>
        <time>2020-07-15T12:08:05Z</time>
      </trkpt>
      <trkpt lat="43.8602" lon="1.89852">
        <ele>174.2</ele>
        <time>2020-07-15T12:08:06Z</time>
      </trkpt>
      <trkpt lat="43.86018" lon="1.89859">
        <ele>174.4</ele>
        <time>2020-07-15T12:08:07Z</time>
      </trkpt>
      <trkpt lat="43.86015" lon="1.89866">
        <ele>174.4</ele>
        <time>2020-07-15T12:08:08Z</time>
      </trkpt>
      <trkpt lat="43.86013" lon="1.89874">
        <ele>174.6</ele>
        <time>2020-07-15T12:08:09Z</time>
      </trkpt>
      <trkpt lat="43.86011" lon="1.89881">
        <ele>174.8</ele>
        <time>2020-07-15T12:08:10Z</time>
      </trkpt>
      <trkpt lat="43.86009" lon="1.89889">
        <ele>175</ele>
        <time>2020-07-15T12:08:11Z</time>
      </trkpt>
      <trkpt lat="43.86007" lon="1.89897">
        <ele>175.2</ele>
        <time>2020-07-15T12:08:12Z</time>
      </trkpt>
      <trkpt lat="43.86005" lon="1.89904">
        <ele>175.4</ele>
        <time>2020-07-15T12:08:13Z</time>
      </trkpt>
      <trkpt lat="43.86003" lon="1.89911">
        <ele>175.6</ele>
        <time>2020-07-15T12:08:14Z</time>
      </trkpt>
      <trkpt lat="43.86002" lon="1.89918">
        <ele>175.8</ele>
        <time>2020-07-15T12:08:15Z</time>
      </trkpt>
      <trkpt lat="43.86" lon="1.89926">
        <ele>176</ele>
        <time>2020-07-15T12:08:16Z</time>
      </trkpt>
      <trkpt lat="43.85998" lon="1.89933">
        <ele>176.2</ele>
        <time>2020-07-15T12:08:17Z</time>
      </trkpt>
      <trkpt lat="43.85996" lon="1.8994">
        <ele>176.6</ele>
        <time>2020-07-15T12:08:18Z</time>
      </trkpt>
      <trkpt lat="43.85995" lon="1.89948">
        <ele>176.8</ele>
        <time>2020-07-15T12:08:19Z</time>
      </trkpt>
      <trkpt lat="43.85993" lon="1.89955">
        <ele>177</ele>
        <time>2020-07-15T12:08:20Z</time>
      </trkpt>
      <trkpt lat="43.85991" lon="1.89963">
        <ele>177.2</ele>
        <time>2020-07-15T12:08:21Z</time>
      </trkpt>
      <trkpt lat="43.85989" lon="1.8997">
        <ele>177.4</ele>
        <time>2020-07-15T12:08:22Z</time>
      </trkpt>
      <trkpt lat="43.85988" lon="1.89978">
        <ele>177.8</ele>
        <time>2020-07-15T12:08:23Z</time>
      </trkpt>
      <trkpt lat="43.85986" lon="1.89986">
        <ele>178</ele>
        <time>2020-07-15T12:08:24Z</time>
      </trkpt>
      <trkpt lat="43.85984" lon="1.89994">
        <ele>178.2</ele>
        <time>2020-07-15T12:08:25Z</time>
      </trkpt>
      <trkpt lat="43.85983" lon="1.90002">
        <ele>178.2</ele>
        <time>2020-07-15T12:08:26Z</time>
      </trkpt>
      <trkpt lat="43.85982" lon="1.9001">
        <ele>178.2</ele>
        <time>2020-07-15T12:08:27Z</time>
      </trkpt>
      <trkpt lat="43.85981" lon="1.90018">
        <ele>178.2</ele>
        <time>2020-07-15T12:08:28Z</time>
      </trkpt>
      <trkpt lat="43.8598" lon="1.90026">
        <ele>178.2</ele>
        <time>2020-07-15T12:08:29Z</time>
      </trkpt>
      <trkpt lat="43.85979" lon="1.90035">
        <ele>178.4</ele>
        <time>2020-07-15T12:08:30Z</time>
      </trkpt>
      <trkpt lat="43.85978" lon="1.90043">
        <ele>178.4</ele>
        <time>2020-07-15T12:08:31Z</time>
      </trkpt>
      <trkpt lat="43.85978" lon="1.90052">
        <ele>178.4</ele>
        <time>2020-07-15T12:08:32Z</time>
      </trkpt>
      <trkpt lat="43.85977" lon="1.9006">
        <ele>178.6</ele>
        <time>2020-07-15T12:08:33Z</time>
      </trkpt>
      <trkpt lat="43.85977" lon="1.90068">
        <ele>178.6</ele>
        <time>2020-07-15T12:08:34Z</time>
      </trkpt>
      <trkpt lat="43.85976" lon="1.90076">
        <ele>178.6</ele>
        <time>2020-07-15T12:08:35Z</time>
      </trkpt>
      <trkpt lat="43.85976" lon="1.90085">
        <ele>178.8</ele>
        <time>2020-07-15T12:08:36Z</time>
      </trkpt>
      <trkpt lat="43.85975" lon="1.90093">
        <ele>178.6</ele>
        <time>2020-07-15T12:08:37Z</time>
      </trkpt>
      <trkpt lat="43.85975" lon="1.90102">
        <ele>178.6</ele>
        <time>2020-07-15T12:08:38Z</time>
      </trkpt>
      <trkpt lat="43.85974" lon="1.9011">
        <ele>178.6</ele>
        <time>2020-07-15T12:08:39Z</time>
      </trkpt>
      <trkpt lat="43.85973" lon="1.90118">
        <ele>178.6</ele>
        <time>2020-07-15T12:08:40Z</time>
      </trkpt>
      <trkpt lat="43.85973" lon="1.90127">
        <ele>178.8</ele>
        <time>2020-07-15T12:08:41Z</time>
      </trkpt>
      <trkpt lat="43.85973" lon="1.90135">
        <ele>178.8</ele>
        <time>2020-07-15T12:08:42Z</time>
      </trkpt>
      <trkpt lat="43.85972" lon="1.90144">
        <ele>178.8</ele>
        <time>2020-07-15T12:08:43Z</time>
      </trkpt>
      <trkpt lat="43.85971" lon="1.90152">
        <ele>178.8</ele>
        <time>2020-07-15T12:08:44Z</time>
      </trkpt>
      <trkpt lat="43.85971" lon="1.9016">
        <ele>178.8</ele>
        <time>2020-07-15T12:08:45Z</time>
      </trkpt>
      <trkpt lat="43.8597" lon="1.90169">
        <ele>178.8</ele>
        <time>2020-07-15T12:08:46Z</time>
      </trkpt>
      <trkpt lat="43.8597" lon="1.90177">
        <ele>179</ele>
        <time>2020-07-15T12:08:47Z</time>
      </trkpt>
      <trkpt lat="43.85969" lon="1.90185">
        <ele>179</ele>
        <time>2020-07-15T12:08:48Z</time>
      </trkpt>
      <trkpt lat="43.85968" lon="1.90194">
        <ele>179</ele>
        <time>2020-07-15T12:08:49Z</time>
      </trkpt>
      <trkpt lat="43.85968" lon="1.90202">
        <ele>179</ele>
        <time>2020-07-15T12:08:50Z</time>
      </trkpt>
      <trkpt lat="43.85967" lon="1.9021">
        <ele>179.2</ele>
        <time>2020-07-15T12:08:51Z</time>
      </trkpt>
      <trkpt lat="43.85967" lon="1.90218">
        <ele>179.2</ele>
        <time>2020-07-15T12:08:52Z</time>
      </trkpt>
      <trkpt lat="43.85966" lon="1.90227">
        <ele>179.4</ele>
        <time>2020-07-15T12:08:53Z</time>
      </trkpt>
      <trkpt lat="43.85965" lon="1.90235">
        <ele>179.4</ele>
        <time>2020-07-15T12:08:54Z</time>
      </trkpt>
      <trkpt lat="43.85964" lon="1.90243">
        <ele>179.4</ele>
        <time>2020-07-15T12:08:55Z</time>
      </trkpt>
      <trkpt lat="43.85963" lon="1.90251">
        <ele>179.6</ele>
        <time>2020-07-15T12:08:56Z</time>
      </trkpt>
      <trkpt lat="43.85962" lon="1.90259">
        <ele>179.8</ele>
        <time>2020-07-15T12:08:57Z</time>
      </trkpt>
      <trkpt lat="43.85961" lon="1.90267">
        <ele>179.8</ele>
        <time>2020-07-15T12:08:58Z</time>
      </trkpt>
      <trkpt lat="43.8596" lon="1.90275">
        <ele>180</ele>
        <time>2020-07-15T12:08:59Z</time>
      </trkpt>
      <trkpt lat="43.85959" lon="1.90282">
        <ele>180</ele>
        <time>2020-07-15T12:09:00Z</time>
      </trkpt>
      <trkpt lat="43.85957" lon="1.9029">
        <ele>180.2</ele>
        <time>2020-07-15T12:09:01Z</time>
      </trkpt>
      <trkpt lat="43.85955" lon="1.90298">
        <ele>180.4</ele>
        <time>2020-07-15T12:09:02Z</time>
      </trkpt>
      <trkpt lat="43.85954" lon="1.90306">
        <ele>180.4</ele>
        <time>2020-07-15T12:09:03Z</time>
      </trkpt>
      <trkpt lat="43.85952" lon="1.90313">
        <ele>180.6</ele>
        <time>2020-07-15T12:09:04Z</time>
      </trkpt>
      <trkpt lat="43.85951" lon="1.90321">
        <ele>180.8</ele>
        <time>2020-07-15T12:09:05Z</time>
      </trkpt>
      <trkpt lat="43.85949" lon="1.90328">
        <ele>181</ele>
        <time>2020-07-15T12:09:06Z</time>
      </trkpt>
      <trkpt lat="43.85947" lon="1.90335">
        <ele>181.2</ele>
        <time>2020-07-15T12:09:07Z</time>
      </trkpt>
      <trkpt lat="43.85945" lon="1.90343">
        <ele>181.4</ele>
        <time>2020-07-15T12:09:08Z</time>
      </trkpt>
      <trkpt lat="43.85943" lon="1.9035">
        <ele>181.6</ele>
        <time>2020-07-15T12:09:09Z</time>
      </trkpt>
      <trkpt lat="43.85941" lon="1.90357">
        <ele>181.8</ele>
        <time>2020-07-15T12:09:10Z</time>
      </trkpt>
      <trkpt lat="43.85939" lon="1.90364">
        <ele>182</ele>
        <time>2020-07-15T12:09:11Z</time>
      </trkpt>
      <trkpt lat="43.85938" lon="1.90371">
        <ele>182.2</ele>
        <time>2020-07-15T12:09:12Z</time>
      </trkpt>
      <trkpt lat="43.85936" lon="1.90377">
        <ele>182.6</ele>
        <time>2020-07-15T12:09:13Z</time>
      </trkpt>
      <trkpt lat="43.85934" lon="1.90384">
        <ele>182.8</ele>
        <time>2020-07-15T12:09:14Z</time>
      </trkpt>
      <trkpt lat="43.85932" lon="1.90391">
        <ele>183</ele>
        <time>2020-07-15T12:09:15Z</time>
      </trkpt>
      <trkpt lat="43.85931" lon="1.90397">
        <ele>183.4</ele>
        <time>2020-07-15T12:09:16Z</time>
      </trkpt>
      <trkpt lat="43.85929" lon="1.90403">
        <ele>183.8</ele>
        <time>2020-07-15T12:09:17Z</time>
      </trkpt>
      <trkpt lat="43.85927" lon="1.90409">
        <ele>184</ele>
        <time>2020-07-15T12:09:18Z</time>
      </trkpt>
      <trkpt lat="43.85926" lon="1.90416">
        <ele>184.4</ele>
        <time>2020-07-15T12:09:19Z</time>
      </trkpt>
      <trkpt lat="43.85924" lon="1.90422">
        <ele>184.6</ele>
        <time>2020-07-15T12:09:20Z</time>
      </trkpt>
      <trkpt lat="43.85923" lon="1.90429">
        <ele>185</ele>
        <time>2020-07-15T12:09:21Z</time>
      </trkpt>
      <trkpt lat="43.85921" lon="1.90435">
        <ele>185.2</ele>
        <time>2020-07-15T12:09:22Z</time>
      </trkpt>
      <trkpt lat="43.85919" lon="1.90441">
        <ele>185.4</ele>
        <time>2020-07-15T12:09:23Z</time>
      </trkpt>
      <trkpt lat="43.85918" lon="1.90448">
        <ele>185.8</ele>
        <time>2020-07-15T12:09:24Z</time>
      </trkpt>
      <trkpt lat="43.85917" lon="1.90454">
        <ele>186</ele>
        <time>2020-07-15T12:09:25Z</time>
      </trkpt>
      <trkpt lat="43.85915" lon="1.90461">
        <ele>186.2</ele>
        <time>2020-07-15T12:09:26Z</time>
      </trkpt>
      <trkpt lat="43.85914" lon="1.90467">
        <ele>186.4</ele>
        <time>2020-07-15T12:09:27Z</time>
      </trkpt>
      <trkpt lat="43.85912" lon="1.90474">
        <ele>186.8</ele>
        <time>2020-07-15T12:09:28Z</time>
      </trkpt>
      <trkpt lat="43.85911" lon="1.9048">
        <ele>187</ele>
        <time>2020-07-15T12:09:29Z</time>
      </trkpt>
      <trkpt lat="43.8591" lon="1.90487">
        <ele>187.2</ele>
        <time>2020-07-15T12:09:30Z</time>
      </trkpt>
      <trkpt lat="43.85908" lon="1.90494">
        <ele>187.4</ele>
        <time>2020-07-15T12:09:31Z</time>
      </trkpt>
      <trkpt lat="43.85907" lon="1.905">
        <ele>187.8</ele>
        <time>2020-07-15T12:09:32Z</time>
      </trkpt>
      <trkpt lat="43.85906" lon="1.90507">
        <ele>188</ele>
        <time>2020-07-15T12:09:33Z</time>
      </trkpt>
      <trkpt lat="43.85904" lon="1.90513">
        <ele>188.2</ele>
        <time>2020-07-15T12:09:34Z</time>
      </trkpt>
      <trkpt lat="43.85903" lon="1.9052">
        <ele>188.6</ele>
        <time>2020-07-15T12:09:35Z</time>
      </trkpt>
      <trkpt lat="43.85902" lon="1.90527">
        <ele>188.8</ele>
        <time>2020-07-15T12:09:36Z</time>
      </trkpt>
      <trkpt lat="43.85901" lon="1.90534">
        <ele>189</ele>
        <time>2020-07-15T12:09:37Z</time>
      </trkpt>
      <trkpt lat="43.85899" lon="1.90541">
        <ele>189.2</ele>
        <time>2020-07-15T12:09:38Z</time>
      </trkpt>
      <trkpt lat="43.85897" lon="1.90548">
        <ele>189.4</ele>
        <time>2020-07-15T12:09:39Z</time>
      </trkpt>
      <trkpt lat="43.85896" lon="1.90554">
        <ele>189.6</ele>
        <time>2020-07-15T12:09:40Z</time>
      </trkpt>
      <trkpt lat="43.85894" lon="1.90562">
        <ele>189.8</ele>
        <time>2020-07-15T12:09:41Z</time>
      </trkpt>
      <trkpt lat="43.85891" lon="1.90569">
        <ele>190</ele>
        <time>2020-07-15T12:09:42Z</time>
      </trkpt>
      <trkpt lat="43.85889" lon="1.90576">
        <ele>190.2</ele>
        <time>2020-07-15T12:09:43Z</time>
      </trkpt>
      <trkpt lat="43.85888" lon="1.90583">
        <ele>190.2</ele>
        <time>2020-07-15T12:09:44Z</time>
      </trkpt>
      <trkpt lat="43.85886" lon="1.9059">
        <ele>190.4</ele>
        <time>2020-07-15T12:09:45Z</time>
      </trkpt>
      <trkpt lat="43.85883" lon="1.90598">
        <ele>190.4</ele>
        <time>2020-07-15T12:09:46Z</time>
      </trkpt>
      <trkpt lat="43.85881" lon="1.90605">
        <ele>190.4</ele>
        <time>2020-07-15T12:09:47Z</time>
      </trkpt>
      <trkpt lat="43.85879" lon="1.90612">
        <ele>190.6</ele>
        <time>2020-07-15T12:09:48Z</time>
      </trkpt>
      <trkpt lat="43.85876" lon="1.90619">
        <ele>190.6</ele>
        <time>2020-07-15T12:09:49Z</time>
      </trkpt>
      <trkpt lat="43.85874" lon="1.90627">
        <ele>190.6</ele>
        <time>2020-07-15T12:09:50Z</time>
      </trkpt>
      <trkpt lat="43.85872" lon="1.90634">
        <ele>190.8</ele>
        <time>2020-07-15T12:09:51Z</time>
      </trkpt>
      <trkpt lat="43.8587" lon="1.90642">
        <ele>190.8</ele>
        <time>2020-07-15T12:09:52Z</time>
      </trkpt>
      <trkpt lat="43.85867" lon="1.90649">
        <ele>190.8</ele>
        <time>2020-07-15T12:09:53Z</time>
      </trkpt>
      <trkpt lat="43.85865" lon="1.90657">
        <ele>191</ele>
        <time>2020-07-15T12:09:54Z</time>
      </trkpt>
      <trkpt lat="43.85862" lon="1.90665">
        <ele>191</ele>
        <time>2020-07-15T12:09:55Z</time>
      </trkpt>
      <trkpt lat="43.8586" lon="1.90673">
        <ele>191</ele>
        <time>2020-07-15T12:09:56Z</time>
      </trkpt>
      <trkpt lat="43.85857" lon="1.90681">
        <ele>191</ele>
        <time>2020-07-15T12:09:57Z</time>
      </trkpt>
      <trkpt lat="43.85854" lon="1.90689">
        <ele>191</ele>
        <time>2020-07-15T12:09:58Z</time>
      </trkpt>
      <trkpt lat="43.85852" lon="1.90697">
        <ele>190.8</ele>
        <time>2020-07-15T12:09:59Z</time>
      </trkpt>
      <trkpt lat="43.8585" lon="1.90705">
        <ele>191</ele>
        <time>2020-07-15T12:10:00Z</time>
      </trkpt>
      <trkpt lat="43.85847" lon="1.90713">
        <ele>191</ele>
        <time>2020-07-15T12:10:01Z</time>
      </trkpt>
      <trkpt lat="43.85844" lon="1.90721">
        <ele>191</ele>
        <time>2020-07-15T12:10:02Z</time>
      </trkpt>
      <trkpt lat="43.85842" lon="1.90729">
        <ele>191.2</ele>
        <time>2020-07-15T12:10:03Z</time>
      </trkpt>
      <trkpt lat="43.8584" lon="1.90737">
        <ele>191.4</ele>
        <time>2020-07-15T12:10:04Z</time>
      </trkpt>
      <trkpt lat="43.85837" lon="1.90745">
        <ele>191.4</ele>
        <time>2020-07-15T12:10:05Z</time>
      </trkpt>
      <trkpt lat="43.85835" lon="1.90753">
        <ele>191.4</ele>
        <time>2020-07-15T12:10:06Z</time>
      </trkpt>
      <trkpt lat="43.85833" lon="1.90761">
        <ele>191.4</ele>
        <time>2020-07-15T12:10:07Z</time>
      </trkpt>
      <trkpt lat="43.85831" lon="1.9077">
        <ele>191.6</ele>
        <time>2020-07-15T12:10:08Z</time>
      </trkpt>
      <trkpt lat="43.85829" lon="1.90778">
        <ele>191.6</ele>
        <time>2020-07-15T12:10:09Z</time>
      </trkpt>
      <trkpt lat="43.85827" lon="1.90786">
        <ele>191.6</ele>
        <time>2020-07-15T12:10:10Z</time>
      </trkpt>
      <trkpt lat="43.85826" lon="1.90795">
        <ele>191.6</ele>
        <time>2020-07-15T12:10:11Z</time>
      </trkpt>
      <trkpt lat="43.85825" lon="1.90803">
        <ele>191.6</ele>
        <time>2020-07-15T12:10:12Z</time>
      </trkpt>
      <trkpt lat="43.85824" lon="1.90811">
        <ele>191.8</ele>
        <time>2020-07-15T12:10:13Z</time>
      </trkpt>
      <trkpt lat="43.85824" lon="1.9082">
        <ele>191.8</ele>
        <time>2020-07-15T12:10:14Z</time>
      </trkpt>
      <trkpt lat="43.85823" lon="1.90828">
        <ele>191.8</ele>
        <time>2020-07-15T12:10:15Z</time>
      </trkpt>
      <trkpt lat="43.85823" lon="1.90836">
        <ele>192</ele>
        <time>2020-07-15T12:10:16Z</time>
      </trkpt>
      <trkpt lat="43.85823" lon="1.90845">
        <ele>192</ele>
        <time>2020-07-15T12:10:17Z</time>
      </trkpt>
      <trkpt lat="43.85823" lon="1.90853">
        <ele>192.2</ele>
        <time>2020-07-15T12:10:18Z</time>
      </trkpt>
      <trkpt lat="43.85823" lon="1.90861">
        <ele>192.2</ele>
        <time>2020-07-15T12:10:19Z</time>
      </trkpt>
      <trkpt lat="43.85823" lon="1.9087">
        <ele>192.4</ele>
        <time>2020-07-15T12:10:20Z</time>
      </trkpt>
      <trkpt lat="43.85823" lon="1.90878">
        <ele>192.4</ele>
        <time>2020-07-15T12:10:21Z</time>
      </trkpt>
      <trkpt lat="43.85823" lon="1.90886">
        <ele>192.6</ele>
        <time>2020-07-15T12:10:22Z</time>
      </trkpt>
      <trkpt lat="43.85823" lon="1.90894">
        <ele>192.8</ele>
        <time>2020-07-15T12:10:23Z</time>
      </trkpt>
      <trkpt lat="43.85823" lon="1.90903">
        <ele>193</ele>
        <time>2020-07-15T12:10:24Z</time>
      </trkpt>
      <trkpt lat="43.85822" lon="1.90911">
        <ele>193</ele>
        <time>2020-07-15T12:10:25Z</time>
      </trkpt>
      <trkpt lat="43.85822" lon="1.90919">
        <ele>193.2</ele>
        <time>2020-07-15T12:10:26Z</time>
      </trkpt>
      <trkpt lat="43.85822" lon="1.90927">
        <ele>193.2</ele>
        <time>2020-07-15T12:10:27Z</time>
      </trkpt>
      <trkpt lat="43.85822" lon="1.90936">
        <ele>193.4</ele>
        <time>2020-07-15T12:10:28Z</time>
      </trkpt>
      <trkpt lat="43.85821" lon="1.90944">
        <ele>193.4</ele>
        <time>2020-07-15T12:10:29Z</time>
      </trkpt>
      <trkpt lat="43.85821" lon="1.90953">
        <ele>193.6</ele>
        <time>2020-07-15T12:10:30Z</time>
      </trkpt>
      <trkpt lat="43.8582" lon="1.90961">
        <ele>193.8</ele>
        <time>2020-07-15T12:10:31Z</time>
      </trkpt>
      <trkpt lat="43.85819" lon="1.90969">
        <ele>193.8</ele>
        <time>2020-07-15T12:10:32Z</time>
      </trkpt>
      <trkpt lat="43.85818" lon="1.90978">
        <ele>194</ele>
        <time>2020-07-15T12:10:33Z</time>
      </trkpt>
      <trkpt lat="43.85817" lon="1.90986">
        <ele>194</ele>
        <time>2020-07-15T12:10:34Z</time>
      </trkpt>
      <trkpt lat="43.85815" lon="1.90994">
        <ele>194</ele>
        <time>2020-07-15T12:10:35Z</time>
      </trkpt>
      <trkpt lat="43.85813" lon="1.91002">
        <ele>194</ele>
        <time>2020-07-15T12:10:36Z</time>
      </trkpt>
      <trkpt lat="43.85812" lon="1.91011">
        <ele>194</ele>
        <time>2020-07-15T12:10:37Z</time>
      </trkpt>
      <trkpt lat="43.8581" lon="1.91019">
        <ele>194.2</ele>
        <time>2020-07-15T12:10:38Z</time>
      </trkpt>
      <trkpt lat="43.85808" lon="1.91027">
        <ele>194.2</ele>
        <time>2020-07-15T12:10:39Z</time>
      </trkpt>
      <trkpt lat="43.85807" lon="1.91035">
        <ele>194.2</ele>
        <time>2020-07-15T12:10:40Z</time>
      </trkpt>
      <trkpt lat="43.85806" lon="1.91044">
        <ele>194.2</ele>
        <time>2020-07-15T12:10:41Z</time>
      </trkpt>
      <trkpt lat="43.85804" lon="1.91052">
        <ele>194.2</ele>
        <time>2020-07-15T12:10:42Z</time>
      </trkpt>
      <trkpt lat="43.85802" lon="1.91061">
        <ele>194.2</ele>
        <time>2020-07-15T12:10:43Z</time>
      </trkpt>
      <trkpt lat="43.85801" lon="1.9107">
        <ele>194.2</ele>
        <time>2020-07-15T12:10:44Z</time>
      </trkpt>
      <trkpt lat="43.85799" lon="1.91079">
        <ele>194.2</ele>
        <time>2020-07-15T12:10:45Z</time>
      </trkpt>
      <trkpt lat="43.85798" lon="1.91088">
        <ele>194.2</ele>
        <time>2020-07-15T12:10:46Z</time>
      </trkpt>
      <trkpt lat="43.85796" lon="1.91097">
        <ele>194</ele>
        <time>2020-07-15T12:10:47Z</time>
      </trkpt>
      <trkpt lat="43.85794" lon="1.91107">
        <ele>193.8</ele>
        <time>2020-07-15T12:10:48Z</time>
      </trkpt>
      <trkpt lat="43.85792" lon="1.91118">
        <ele>193.4</ele>
        <time>2020-07-15T12:10:49Z</time>
      </trkpt>
      <trkpt lat="43.85791" lon="1.91128">
        <ele>193</ele>
        <time>2020-07-15T12:10:50Z</time>
      </trkpt>
      <trkpt lat="43.8579" lon="1.9114">
        <ele>192.8</ele>
        <time>2020-07-15T12:10:51Z</time>
      </trkpt>
      <trkpt lat="43.85789" lon="1.91152">
        <ele>192.6</ele>
        <time>2020-07-15T12:10:52Z</time>
      </trkpt>
      <trkpt lat="43.85788" lon="1.91165">
        <ele>192</ele>
        <time>2020-07-15T12:10:53Z</time>
      </trkpt>
      <trkpt lat="43.85786" lon="1.91178">
        <ele>191.2</ele>
        <time>2020-07-15T12:10:54Z</time>
      </trkpt>
      <trkpt lat="43.85783" lon="1.91192">
        <ele>190.4</ele>
        <time>2020-07-15T12:10:55Z</time>
      </trkpt>
      <trkpt lat="43.85782" lon="1.91207">
        <ele>189.4</ele>
        <time>2020-07-15T12:10:56Z</time>
      </trkpt>
      <trkpt lat="43.8578" lon="1.91222">
        <ele>188.4</ele>
        <time>2020-07-15T12:10:57Z</time>
      </trkpt>
      <trkpt lat="43.85778" lon="1.91238">
        <ele>187.8</ele>
        <time>2020-07-15T12:10:58Z</time>
      </trkpt>
      <trkpt lat="43.85776" lon="1.91254">
        <ele>186.8</ele>
        <time>2020-07-15T12:10:59Z</time>
      </trkpt>
      <trkpt lat="43.85774" lon="1.91268">
        <ele>186</ele>
        <time>2020-07-15T12:11:00Z</time>
      </trkpt>
      <trkpt lat="43.85771" lon="1.91285">
        <ele>185.4</ele>
        <time>2020-07-15T12:11:01Z</time>
      </trkpt>
      <trkpt lat="43.85767" lon="1.91302">
        <ele>184.6</ele>
        <time>2020-07-15T12:11:02Z</time>
      </trkpt>
      <trkpt lat="43.85762" lon="1.91317">
        <ele>183.8</ele>
        <time>2020-07-15T12:11:03Z</time>
      </trkpt>
      <trkpt lat="43.85757" lon="1.91333">
        <ele>183</ele>
        <time>2020-07-15T12:11:04Z</time>
      </trkpt>
      <trkpt lat="43.85752" lon="1.91347">
        <ele>182.6</ele>
        <time>2020-07-15T12:11:05Z</time>
      </trkpt>
      <trkpt lat="43.85746" lon="1.91361">
        <ele>182.6</ele>
        <time>2020-07-15T12:11:06Z</time>
      </trkpt>
      <trkpt lat="43.8574" lon="1.91374">
        <ele>182.4</ele>
        <time>2020-07-15T12:11:07Z</time>
      </trkpt>
      <trkpt lat="43.85735" lon="1.91388">
        <ele>182.2</ele>
        <time>2020-07-15T12:11:08Z</time>
      </trkpt>
      <trkpt lat="43.8573" lon="1.91401">
        <ele>181.8</ele>
        <time>2020-07-15T12:11:09Z</time>
      </trkpt>
      <trkpt lat="43.85724" lon="1.91414">
        <ele>181.6</ele>
        <time>2020-07-15T12:11:10Z</time>
      </trkpt>
      <trkpt lat="43.8572" lon="1.91427">
        <ele>181.6</ele>
        <time>2020-07-15T12:11:11Z</time>
      </trkpt>
      <trkpt lat="43.85715" lon="1.91439">
        <ele>181.6</ele>
        <time>2020-07-15T12:11:12Z</time>
      </trkpt>
      <trkpt lat="43.85709" lon="1.91452">
        <ele>181.6</ele>
        <time>2020-07-15T12:11:13Z</time>
      </trkpt>
      <trkpt lat="43.85705" lon="1.91464">
        <ele>181.8</ele>
        <time>2020-07-15T12:11:14Z</time>
      </trkpt>
      <trkpt lat="43.85701" lon="1.91476">
        <ele>182</ele>
        <time>2020-07-15T12:11:15Z</time>
      </trkpt>
      <trkpt lat="43.85701" lon="1.91489">
        <ele>182</ele>
        <time>2020-07-15T12:11:16Z</time>
      </trkpt>
      <trkpt lat="43.857" lon="1.91503">
        <ele>182</ele>
        <time>2020-07-15T12:11:17Z</time>
      </trkpt>
      <trkpt lat="43.85701" lon="1.91516">
        <ele>182.2</ele>
        <time>2020-07-15T12:11:18Z</time>
      </trkpt>
      <trkpt lat="43.85701" lon="1.9153">
        <ele>182.2</ele>
        <time>2020-07-15T12:11:19Z</time>
      </trkpt>
      <trkpt lat="43.85702" lon="1.91542">
        <ele>182.4</ele>
        <time>2020-07-15T12:11:20Z</time>
      </trkpt>
      <trkpt lat="43.85703" lon="1.91554">
        <ele>182.4</ele>
        <time>2020-07-15T12:11:21Z</time>
      </trkpt>
      <trkpt lat="43.85703" lon="1.91566">
        <ele>182.6</ele>
        <time>2020-07-15T12:11:22Z</time>
      </trkpt>
      <trkpt lat="43.85703" lon="1.91577">
        <ele>182.8</ele>
        <time>2020-07-15T12:11:23Z</time>
      </trkpt>
      <trkpt lat="43.85704" lon="1.91588">
        <ele>183</ele>
        <time>2020-07-15T12:11:24Z</time>
      </trkpt>
      <trkpt lat="43.85704" lon="1.91598">
        <ele>183.4</ele>
        <time>2020-07-15T12:11:25Z</time>
      </trkpt>
      <trkpt lat="43.85704" lon="1.91607">
        <ele>183.6</ele>
        <time>2020-07-15T12:11:26Z</time>
      </trkpt>
      <trkpt lat="43.85705" lon="1.91618">
        <ele>184</ele>
        <time>2020-07-15T12:11:27Z</time>
      </trkpt>
      <trkpt lat="43.85705" lon="1.91627">
        <ele>184.4</ele>
        <time>2020-07-15T12:11:28Z</time>
      </trkpt>
      <trkpt lat="43.85705" lon="1.91635">
        <ele>184.8</ele>
        <time>2020-07-15T12:11:29Z</time>
      </trkpt>
      <trkpt lat="43.85706" lon="1.91643">
        <ele>185.4</ele>
        <time>2020-07-15T12:11:30Z</time>
      </trkpt>
      <trkpt lat="43.85706" lon="1.91651">
        <ele>185.8</ele>
        <time>2020-07-15T12:11:31Z</time>
      </trkpt>
      <trkpt lat="43.85706" lon="1.91659">
        <ele>186.2</ele>
        <time>2020-07-15T12:11:32Z</time>
      </trkpt>
      <trkpt lat="43.85707" lon="1.91666">
        <ele>186.6</ele>
        <time>2020-07-15T12:11:33Z</time>
      </trkpt>
      <trkpt lat="43.85708" lon="1.91673">
        <ele>186.8</ele>
        <time>2020-07-15T12:11:34Z</time>
      </trkpt>
      <trkpt lat="43.85708" lon="1.91679">
        <ele>187.2</ele>
        <time>2020-07-15T12:11:35Z</time>
      </trkpt>
      <trkpt lat="43.85709" lon="1.91686">
        <ele>187.6</ele>
        <time>2020-07-15T12:11:36Z</time>
      </trkpt>
      <trkpt lat="43.8571" lon="1.91693">
        <ele>188</ele>
        <time>2020-07-15T12:11:37Z</time>
      </trkpt>
      <trkpt lat="43.85711" lon="1.91699">
        <ele>188.4</ele>
        <time>2020-07-15T12:11:38Z</time>
      </trkpt>
      <trkpt lat="43.85712" lon="1.91706">
        <ele>188.8</ele>
        <time>2020-07-15T12:11:39Z</time>
      </trkpt>
      <trkpt lat="43.85713" lon="1.91712">
        <ele>189.2</ele>
        <time>2020-07-15T12:11:40Z</time>
      </trkpt>
      <trkpt lat="43.85714" lon="1.91718">
        <ele>189.6</ele>
        <time>2020-07-15T12:11:41Z</time>
      </trkpt>
      <trkpt lat="43.85716" lon="1.91724">
        <ele>190</ele>
        <time>2020-07-15T12:11:42Z</time>
      </trkpt>
      <trkpt lat="43.85717" lon="1.9173">
        <ele>190.4</ele>
        <time>2020-07-15T12:11:43Z</time>
      </trkpt>
      <trkpt lat="43.85719" lon="1.91736">
        <ele>190.6</ele>
        <time>2020-07-15T12:11:44Z</time>
      </trkpt>
      <trkpt lat="43.8572" lon="1.91742">
        <ele>191</ele>
        <time>2020-07-15T12:11:45Z</time>
      </trkpt>
      <trkpt lat="43.85721" lon="1.91748">
        <ele>191.4</ele>
        <time>2020-07-15T12:11:46Z</time>
      </trkpt>
      <trkpt lat="43.85722" lon="1.91755">
        <ele>191.8</ele>
        <time>2020-07-15T12:11:47Z</time>
      </trkpt>
      <trkpt lat="43.85724" lon="1.91761">
        <ele>192.2</ele>
        <time>2020-07-15T12:11:48Z</time>
      </trkpt>
      <trkpt lat="43.85724" lon="1.91767">
        <ele>192.6</ele>
        <time>2020-07-15T12:11:49Z</time>
      </trkpt>
      <trkpt lat="43.85725" lon="1.91773">
        <ele>192.8</ele>
        <time>2020-07-15T12:11:50Z</time>
      </trkpt>
      <trkpt lat="43.85726" lon="1.9178">
        <ele>193.2</ele>
        <time>2020-07-15T12:11:51Z</time>
      </trkpt>
      <trkpt lat="43.85727" lon="1.91786">
        <ele>193.4</ele>
        <time>2020-07-15T12:11:52Z</time>
      </trkpt>
      <trkpt lat="43.85729" lon="1.91793">
        <ele>193.6</ele>
        <time>2020-07-15T12:11:53Z</time>
      </trkpt>
      <trkpt lat="43.8573" lon="1.91799">
        <ele>194</ele>
        <time>2020-07-15T12:11:54Z</time>
      </trkpt>
      <trkpt lat="43.85731" lon="1.91805">
        <ele>194.2</ele>
        <time>2020-07-15T12:11:55Z</time>
      </trkpt>
      <trkpt lat="43.85732" lon="1.91812">
        <ele>194.6</ele>
        <time>2020-07-15T12:11:56Z</time>
      </trkpt>
      <trkpt lat="43.85733" lon="1.91818">
        <ele>195</ele>
        <time>2020-07-15T12:11:57Z</time>
      </trkpt>
      <trkpt lat="43.85734" lon="1.91825">
        <ele>195.2</ele>
        <time>2020-07-15T12:11:58Z</time>
      </trkpt>
      <trkpt lat="43.85735" lon="1.91831">
        <ele>195.4</ele>
        <time>2020-07-15T12:11:59Z</time>
      </trkpt>
      <trkpt lat="43.85736" lon="1.91837">
        <ele>195.6</ele>
        <time>2020-07-15T12:12:00Z</time>
      </trkpt>
      <trkpt lat="43.85737" lon="1.91844">
        <ele>196</ele>
        <time>2020-07-15T12:12:01Z</time>
      </trkpt>
      <trkpt lat="43.85737" lon="1.9185">
        <ele>196</ele>
        <time>2020-07-15T12:12:02Z</time>
      </trkpt>
      <trkpt lat="43.85738" lon="1.91857">
        <ele>196.2</ele>
        <time>2020-07-15T12:12:03Z</time>
      </trkpt>
      <trkpt lat="43.85738" lon="1.91865">
        <ele>196.4</ele>
        <time>2020-07-15T12:12:04Z</time>
      </trkpt>
      <trkpt lat="43.85738" lon="1.91873">
        <ele>196.4</ele>
        <time>2020-07-15T12:12:05Z</time>
      </trkpt>
      <trkpt lat="43.85737" lon="1.91881">
        <ele>196.4</ele>
        <time>2020-07-15T12:12:06Z</time>
      </trkpt>
      <trkpt lat="43.85736" lon="1.91889">
        <ele>196.6</ele>
        <time>2020-07-15T12:12:07Z</time>
      </trkpt>
      <trkpt lat="43.85735" lon="1.91897">
        <ele>196.4</ele>
        <time>2020-07-15T12:12:08Z</time>
      </trkpt>
      <trkpt lat="43.85733" lon="1.91905">
        <ele>196.4</ele>
        <time>2020-07-15T12:12:09Z</time>
      </trkpt>
      <trkpt lat="43.8573" lon="1.91914">
        <ele>196.4</ele>
        <time>2020-07-15T12:12:10Z</time>
      </trkpt>
      <trkpt lat="43.85728" lon="1.91922">
        <ele>196.6</ele>
        <time>2020-07-15T12:12:11Z</time>
      </trkpt>
      <trkpt lat="43.85725" lon="1.9193">
        <ele>196.6</ele>
        <time>2020-07-15T12:12:12Z</time>
      </trkpt>
      <trkpt lat="43.85722" lon="1.91937">
        <ele>196.6</ele>
        <time>2020-07-15T12:12:13Z</time>
      </trkpt>
      <trkpt lat="43.85718" lon="1.91945">
        <ele>196.6</ele>
        <time>2020-07-15T12:12:14Z</time>
      </trkpt>
      <trkpt lat="43.85714" lon="1.91952">
        <ele>196.6</ele>
        <time>2020-07-15T12:12:15Z</time>
      </trkpt>
      <trkpt lat="43.85711" lon="1.91959">
        <ele>196.6</ele>
        <time>2020-07-15T12:12:16Z</time>
      </trkpt>
      <trkpt lat="43.85707" lon="1.91967">
        <ele>196.6</ele>
        <time>2020-07-15T12:12:17Z</time>
      </trkpt>
      <trkpt lat="43.85704" lon="1.91975">
        <ele>196.4</ele>
        <time>2020-07-15T12:12:18Z</time>
      </trkpt>
      <trkpt lat="43.85701" lon="1.91983">
        <ele>196.4</ele>
        <time>2020-07-15T12:12:19Z</time>
      </trkpt>
      <trkpt lat="43.85697" lon="1.91991">
        <ele>196.4</ele>
        <time>2020-07-15T12:12:20Z</time>
      </trkpt>
      <trkpt lat="43.85695" lon="1.91999">
        <ele>196.2</ele>
        <time>2020-07-15T12:12:21Z</time>
      </trkpt>
      <trkpt lat="43.85692" lon="1.92008">
        <ele>196</ele>
        <time>2020-07-15T12:12:22Z</time>
      </trkpt>
      <trkpt lat="43.8569" lon="1.92017">
        <ele>196</ele>
        <time>2020-07-15T12:12:23Z</time>
      </trkpt>
      <trkpt lat="43.85689" lon="1.92025">
        <ele>196</ele>
        <time>2020-07-15T12:12:24Z</time>
      </trkpt>
      <trkpt lat="43.85687" lon="1.92034">
        <ele>195.8</ele>
        <time>2020-07-15T12:12:25Z</time>
      </trkpt>
      <trkpt lat="43.85687" lon="1.92043">
        <ele>195.6</ele>
        <time>2020-07-15T12:12:26Z</time>
      </trkpt>
      <trkpt lat="43.85686" lon="1.92052">
        <ele>195.6</ele>
        <time>2020-07-15T12:12:27Z</time>
      </trkpt>
      <trkpt lat="43.85685" lon="1.92061">
        <ele>195.6</ele>
        <time>2020-07-15T12:12:28Z</time>
      </trkpt>
      <trkpt lat="43.85684" lon="1.9207">
        <ele>195.4</ele>
        <time>2020-07-15T12:12:29Z</time>
      </trkpt>
      <trkpt lat="43.85684" lon="1.92079">
        <ele>195.4</ele>
        <time>2020-07-15T12:12:30Z</time>
      </trkpt>
      <trkpt lat="43.85683" lon="1.92089">
        <ele>195.4</ele>
        <time>2020-07-15T12:12:31Z</time>
      </trkpt>
      <trkpt lat="43.85682" lon="1.92098">
        <ele>195.4</ele>
        <time>2020-07-15T12:12:32Z</time>
      </trkpt>
      <trkpt lat="43.85682" lon="1.92107">
        <ele>195.4</ele>
        <time>2020-07-15T12:12:33Z</time>
      </trkpt>
      <trkpt lat="43.85681" lon="1.92116">
        <ele>195.4</ele>
        <time>2020-07-15T12:12:34Z</time>
      </trkpt>
      <trkpt lat="43.8568" lon="1.92125">
        <ele>195.6</ele>
        <time>2020-07-15T12:12:35Z</time>
      </trkpt>
      <trkpt lat="43.8568" lon="1.92134">
        <ele>195.6</ele>
        <time>2020-07-15T12:12:36Z</time>
      </trkpt>
      <trkpt lat="43.85678" lon="1.92142">
        <ele>195.8</ele>
        <time>2020-07-15T12:12:37Z</time>
      </trkpt>
      <trkpt lat="43.85676" lon="1.92151">
        <ele>195.8</ele>
        <time>2020-07-15T12:12:38Z</time>
      </trkpt>
      <trkpt lat="43.85674" lon="1.9216">
        <ele>195.8</ele>
        <time>2020-07-15T12:12:39Z</time>
      </trkpt>
      <trkpt lat="43.85672" lon="1.92168">
        <ele>196</ele>
        <time>2020-07-15T12:12:40Z</time>
      </trkpt>
      <trkpt lat="43.85669" lon="1.92176">
        <ele>196</ele>
        <time>2020-07-15T12:12:41Z</time>
      </trkpt>
      <trkpt lat="43.85666" lon="1.92184">
        <ele>196</ele>
        <time>2020-07-15T12:12:42Z</time>
      </trkpt>
      <trkpt lat="43.85664" lon="1.92192">
        <ele>196</ele>
        <time>2020-07-15T12:12:43Z</time>
      </trkpt>
      <trkpt lat="43.85661" lon="1.922">
        <ele>196</ele>
        <time>2020-07-15T12:12:44Z</time>
      </trkpt>
      <trkpt lat="43.85659" lon="1.92208">
        <ele>196</ele>
        <time>2020-07-15T12:12:45Z</time>
      </trkpt>
      <trkpt lat="43.85658" lon="1.92217">
        <ele>196</ele>
        <time>2020-07-15T12:12:46Z</time>
      </trkpt>
      <trkpt lat="43.85657" lon="1.92226">
        <ele>196</ele>
        <time>2020-07-15T12:12:47Z</time>
      </trkpt>
      <trkpt lat="43.85658" lon="1.92234">
        <ele>196.2</ele>
        <time>2020-07-15T12:12:48Z</time>
      </trkpt>
      <trkpt lat="43.8566" lon="1.92242">
        <ele>196.2</ele>
        <time>2020-07-15T12:12:49Z</time>
      </trkpt>
      <trkpt lat="43.85662" lon="1.92251">
        <ele>196.2</ele>
        <time>2020-07-15T12:12:50Z</time>
      </trkpt>
      <trkpt lat="43.85664" lon="1.92259">
        <ele>196.2</ele>
        <time>2020-07-15T12:12:51Z</time>
      </trkpt>
      <trkpt lat="43.85667" lon="1.92267">
        <ele>196.2</ele>
        <time>2020-07-15T12:12:52Z</time>
      </trkpt>
      <trkpt lat="43.85669" lon="1.92275">
        <ele>196.4</ele>
        <time>2020-07-15T12:12:53Z</time>
      </trkpt>
      <trkpt lat="43.85672" lon="1.92283">
        <ele>196.4</ele>
        <time>2020-07-15T12:12:54Z</time>
      </trkpt>
      <trkpt lat="43.85674" lon="1.92291">
        <ele>196.4</ele>
        <time>2020-07-15T12:12:55Z</time>
      </trkpt>
      <trkpt lat="43.85677" lon="1.92299">
        <ele>196.6</ele>
        <time>2020-07-15T12:12:56Z</time>
      </trkpt>
      <trkpt lat="43.85679" lon="1.92307">
        <ele>196.6</ele>
        <time>2020-07-15T12:12:57Z</time>
      </trkpt>
      <trkpt lat="43.85682" lon="1.92315">
        <ele>196.6</ele>
        <time>2020-07-15T12:12:58Z</time>
      </trkpt>
      <trkpt lat="43.85684" lon="1.92323">
        <ele>196.8</ele>
        <time>2020-07-15T12:12:59Z</time>
      </trkpt>
      <trkpt lat="43.85687" lon="1.9233">
        <ele>196.8</ele>
        <time>2020-07-15T12:13:00Z</time>
      </trkpt>
      <trkpt lat="43.8569" lon="1.92338">
        <ele>197</ele>
        <time>2020-07-15T12:13:01Z</time>
      </trkpt>
      <trkpt lat="43.85692" lon="1.92345">
        <ele>197</ele>
        <time>2020-07-15T12:13:02Z</time>
      </trkpt>
      <trkpt lat="43.85695" lon="1.92353">
        <ele>197</ele>
        <time>2020-07-15T12:13:03Z</time>
      </trkpt>
      <trkpt lat="43.85698" lon="1.92361">
        <ele>197</ele>
        <time>2020-07-15T12:13:04Z</time>
      </trkpt>
      <trkpt lat="43.85701" lon="1.92368">
        <ele>197</ele>
        <time>2020-07-15T12:13:05Z</time>
      </trkpt>
      <trkpt lat="43.85703" lon="1.92376">
        <ele>197</ele>
        <time>2020-07-15T12:13:06Z</time>
      </trkpt>
      <trkpt lat="43.85706" lon="1.92385">
        <ele>197</ele>
        <time>2020-07-15T12:13:07Z</time>
      </trkpt>
      <trkpt lat="43.85709" lon="1.92393">
        <ele>197</ele>
        <time>2020-07-15T12:13:08Z</time>
      </trkpt>
      <trkpt lat="43.85713" lon="1.92401">
        <ele>196.8</ele>
        <time>2020-07-15T12:13:09Z</time>
      </trkpt>
      <trkpt lat="43.85716" lon="1.92409">
        <ele>196.8</ele>
        <time>2020-07-15T12:13:10Z</time>
      </trkpt>
      <trkpt lat="43.8572" lon="1.92418">
        <ele>196.6</ele>
        <time>2020-07-15T12:13:11Z</time>
      </trkpt>
      <trkpt lat="43.85723" lon="1.92426">
        <ele>196.6</ele>
        <time>2020-07-15T12:13:12Z</time>
      </trkpt>
      <trkpt lat="43.85726" lon="1.92435">
        <ele>196.6</ele>
        <time>2020-07-15T12:13:13Z</time>
      </trkpt>
      <trkpt lat="43.8573" lon="1.92444">
        <ele>196.4</ele>
        <time>2020-07-15T12:13:14Z</time>
      </trkpt>
      <trkpt lat="43.85733" lon="1.92453">
        <ele>196.2</ele>
        <time>2020-07-15T12:13:15Z</time>
      </trkpt>
      <trkpt lat="43.85737" lon="1.92462">
        <ele>196.2</ele>
        <time>2020-07-15T12:13:16Z</time>
      </trkpt>
      <trkpt lat="43.8574" lon="1.92471">
        <ele>196</ele>
        <time>2020-07-15T12:13:17Z</time>
      </trkpt>
      <trkpt lat="43.85744" lon="1.9248">
        <ele>196</ele>
        <time>2020-07-15T12:13:18Z</time>
      </trkpt>
      <trkpt lat="43.85747" lon="1.92489">
        <ele>196</ele>
        <time>2020-07-15T12:13:19Z</time>
      </trkpt>
      <trkpt lat="43.85751" lon="1.92498">
        <ele>196</ele>
        <time>2020-07-15T12:13:20Z</time>
      </trkpt>
      <trkpt lat="43.85754" lon="1.92507">
        <ele>196</ele>
        <time>2020-07-15T12:13:21Z</time>
      </trkpt>
      <trkpt lat="43.85757" lon="1.92516">
        <ele>196</ele>
        <time>2020-07-15T12:13:22Z</time>
      </trkpt>
      <trkpt lat="43.8576" lon="1.92525">
        <ele>196</ele>
        <time>2020-07-15T12:13:23Z</time>
      </trkpt>
      <trkpt lat="43.85764" lon="1.92534">
        <ele>196.2</ele>
        <time>2020-07-15T12:13:24Z</time>
      </trkpt>
      <trkpt lat="43.85767" lon="1.92543">
        <ele>196.2</ele>
        <time>2020-07-15T12:13:25Z</time>
      </trkpt>
      <trkpt lat="43.8577" lon="1.92552">
        <ele>196.4</ele>
        <time>2020-07-15T12:13:26Z</time>
      </trkpt>
      <trkpt lat="43.85774" lon="1.9256">
        <ele>196.6</ele>
        <time>2020-07-15T12:13:27Z</time>
      </trkpt>
      <trkpt lat="43.85777" lon="1.92569">
        <ele>196.6</ele>
        <time>2020-07-15T12:13:28Z</time>
      </trkpt>
      <trkpt lat="43.8578" lon="1.92577">
        <ele>196.8</ele>
        <time>2020-07-15T12:13:29Z</time>
      </trkpt>
      <trkpt lat="43.85783" lon="1.92585">
        <ele>197</ele>
        <time>2020-07-15T12:13:30Z</time>
      </trkpt>
      <trkpt lat="43.85786" lon="1.92594">
        <ele>197</ele>
        <time>2020-07-15T12:13:31Z</time>
      </trkpt>
      <trkpt lat="43.85789" lon="1.92602">
        <ele>197.2</ele>
        <time>2020-07-15T12:13:32Z</time>
      </trkpt>
      <trkpt lat="43.85791" lon="1.9261">
        <ele>197.4</ele>
        <time>2020-07-15T12:13:33Z</time>
      </trkpt>
      <trkpt lat="43.85792" lon="1.92618">
        <ele>197.6</ele>
        <time>2020-07-15T12:13:34Z</time>
      </trkpt>
      <trkpt lat="43.85792" lon="1.92627">
        <ele>197.8</ele>
        <time>2020-07-15T12:13:35Z</time>
      </trkpt>
      <trkpt lat="43.8579" lon="1.92635">
        <ele>198</ele>
        <time>2020-07-15T12:13:36Z</time>
      </trkpt>
      <trkpt lat="43.85786" lon="1.92641">
        <ele>198</ele>
        <time>2020-07-15T12:13:37Z</time>
      </trkpt>
      <trkpt lat="43.85782" lon="1.92646">
        <ele>198.2</ele>
        <time>2020-07-15T12:13:38Z</time>
      </trkpt>
      <trkpt lat="43.85777" lon="1.92651">
        <ele>198.4</ele>
        <time>2020-07-15T12:13:39Z</time>
      </trkpt>
      <trkpt lat="43.85772" lon="1.92656">
        <ele>198.4</ele>
        <time>2020-07-15T12:13:40Z</time>
      </trkpt>
      <trkpt lat="43.85766" lon="1.92661">
        <ele>198.4</ele>
        <time>2020-07-15T12:13:41Z</time>
      </trkpt>
      <trkpt lat="43.85761" lon="1.92666">
        <ele>198.4</ele>
        <time>2020-07-15T12:13:42Z</time>
      </trkpt>
      <trkpt lat="43.85756" lon="1.92671">
        <ele>198.4</ele>
        <time>2020-07-15T12:13:43Z</time>
      </trkpt>
      <trkpt lat="43.85751" lon="1.92676">
        <ele>198.4</ele>
        <time>2020-07-15T12:13:44Z</time>
      </trkpt>
      <trkpt lat="43.85746" lon="1.92681">
        <ele>198.6</ele>
        <time>2020-07-15T12:13:45Z</time>
      </trkpt>
      <trkpt lat="43.85741" lon="1.92686">
        <ele>198.8</ele>
        <time>2020-07-15T12:13:46Z</time>
      </trkpt>
      <trkpt lat="43.85736" lon="1.92691">
        <ele>198.8</ele>
        <time>2020-07-15T12:13:47Z</time>
      </trkpt>
      <trkpt lat="43.8573" lon="1.92696">
        <ele>198.8</ele>
        <time>2020-07-15T12:13:48Z</time>
      </trkpt>
      <trkpt lat="43.85726" lon="1.92701">
        <ele>198.8</ele>
        <time>2020-07-15T12:13:49Z</time>
      </trkpt>
      <trkpt lat="43.8572" lon="1.92707">
        <ele>198.6</ele>
        <time>2020-07-15T12:13:50Z</time>
      </trkpt>
      <trkpt lat="43.85716" lon="1.92712">
        <ele>198.6</ele>
        <time>2020-07-15T12:13:51Z</time>
      </trkpt>
      <trkpt lat="43.85711" lon="1.92717">
        <ele>198.6</ele>
        <time>2020-07-15T12:13:52Z</time>
      </trkpt>
      <trkpt lat="43.85705" lon="1.92722">
        <ele>198.8</ele>
        <time>2020-07-15T12:13:53Z</time>
      </trkpt>
      <trkpt lat="43.857" lon="1.92727">
        <ele>198.8</ele>
        <time>2020-07-15T12:13:54Z</time>
      </trkpt>
      <trkpt lat="43.85695" lon="1.92732">
        <ele>198.8</ele>
        <time>2020-07-15T12:13:55Z</time>
      </trkpt>
      <trkpt lat="43.85691" lon="1.92737">
        <ele>199</ele>
        <time>2020-07-15T12:13:56Z</time>
      </trkpt>
      <trkpt lat="43.85685" lon="1.92742">
        <ele>198.8</ele>
        <time>2020-07-15T12:13:57Z</time>
      </trkpt>
      <trkpt lat="43.85681" lon="1.92747">
        <ele>199</ele>
        <time>2020-07-15T12:13:58Z</time>
      </trkpt>
      <trkpt lat="43.85677" lon="1.92754">
        <ele>199</ele>
        <time>2020-07-15T12:13:59Z</time>
      </trkpt>
      <trkpt lat="43.85675" lon="1.9276">
        <ele>199</ele>
        <time>2020-07-15T12:14:00Z</time>
      </trkpt>
      <trkpt lat="43.85674" lon="1.92768">
        <ele>199</ele>
        <time>2020-07-15T12:14:01Z</time>
      </trkpt>
      <trkpt lat="43.85675" lon="1.92775">
        <ele>199.2</ele>
        <time>2020-07-15T12:14:02Z</time>
      </trkpt>
      <trkpt lat="43.85677" lon="1.92782">
        <ele>199.2</ele>
        <time>2020-07-15T12:14:03Z</time>
      </trkpt>
      <trkpt lat="43.85679" lon="1.92789">
        <ele>199.2</ele>
        <time>2020-07-15T12:14:04Z</time>
      </trkpt>
      <trkpt lat="43.85682" lon="1.92795">
        <ele>199.2</ele>
        <time>2020-07-15T12:14:05Z</time>
      </trkpt>
      <trkpt lat="43.85684" lon="1.92802">
        <ele>199.2</ele>
        <time>2020-07-15T12:14:06Z</time>
      </trkpt>
      <trkpt lat="43.85685" lon="1.92808">
        <ele>199.2</ele>
        <time>2020-07-15T12:14:07Z</time>
      </trkpt>
      <trkpt lat="43.85685" lon="1.92812">
        <ele>199.4</ele>
        <time>2020-07-15T12:14:08Z</time>
      </trkpt>
      <trkpt lat="43.85683" lon="1.92816">
        <ele>199.4</ele>
        <time>2020-07-15T12:14:09Z</time>
      </trkpt>
      <trkpt lat="43.85679" lon="1.92819">
        <ele>199.6</ele>
        <time>2020-07-15T12:14:10Z</time>
      </trkpt>
      <trkpt lat="43.85674" lon="1.92821">
        <ele>199.6</ele>
        <time>2020-07-15T12:14:11Z</time>
      </trkpt>
      <trkpt lat="43.85669" lon="1.92824">
        <ele>199.8</ele>
        <time>2020-07-15T12:14:12Z</time>
      </trkpt>
      <trkpt lat="43.85664" lon="1.92826">
        <ele>200</ele>
        <time>2020-07-15T12:14:13Z</time>
      </trkpt>
      <trkpt lat="43.85659" lon="1.92829">
        <ele>200</ele>
        <time>2020-07-15T12:14:14Z</time>
      </trkpt>
      <trkpt lat="43.85653" lon="1.92832">
        <ele>200</ele>
        <time>2020-07-15T12:14:15Z</time>
      </trkpt>
      <trkpt lat="43.85647" lon="1.92835">
        <ele>200</ele>
        <time>2020-07-15T12:14:16Z</time>
      </trkpt>
      <trkpt lat="43.85642" lon="1.92838">
        <ele>200</ele>
        <time>2020-07-15T12:14:17Z</time>
      </trkpt>
      <trkpt lat="43.85637" lon="1.92841">
        <ele>199.8</ele>
        <time>2020-07-15T12:14:18Z</time>
      </trkpt>
      <trkpt lat="43.85631" lon="1.92844">
        <ele>199.8</ele>
        <time>2020-07-15T12:14:19Z</time>
      </trkpt>
      <trkpt lat="43.85626" lon="1.92847">
        <ele>199.8</ele>
        <time>2020-07-15T12:14:20Z</time>
      </trkpt>
      <trkpt lat="43.85621" lon="1.92849">
        <ele>200</ele>
        <time>2020-07-15T12:14:21Z</time>
      </trkpt>
      <trkpt lat="43.85615" lon="1.92852">
        <ele>200</ele>
        <time>2020-07-15T12:14:22Z</time>
      </trkpt>
      <trkpt lat="43.85609" lon="1.92855">
        <ele>200</ele>
        <time>2020-07-15T12:14:23Z</time>
      </trkpt>
      <trkpt lat="43.85604" lon="1.92857">
        <ele>200.2</ele>
        <time>2020-07-15T12:14:24Z</time>
      </trkpt>
      <trkpt lat="43.85598" lon="1.9286">
        <ele>200.2</ele>
        <time>2020-07-15T12:14:25Z</time>
      </trkpt>
      <trkpt lat="43.85593" lon="1.92863">
        <ele>200.4</ele>
        <time>2020-07-15T12:14:26Z</time>
      </trkpt>
      <trkpt lat="43.85587" lon="1.92865">
        <ele>200.6</ele>
        <time>2020-07-15T12:14:27Z</time>
      </trkpt>
      <trkpt lat="43.85581" lon="1.92868">
        <ele>200.8</ele>
        <time>2020-07-15T12:14:28Z</time>
      </trkpt>
      <trkpt lat="43.85576" lon="1.9287">
        <ele>200.8</ele>
        <time>2020-07-15T12:14:29Z</time>
      </trkpt>
      <trkpt lat="43.8557" lon="1.92873">
        <ele>201</ele>
        <time>2020-07-15T12:14:30Z</time>
      </trkpt>
      <trkpt lat="43.85565" lon="1.92875">
        <ele>201</ele>
        <time>2020-07-15T12:14:31Z</time>
      </trkpt>
      <trkpt lat="43.8556" lon="1.92878">
        <ele>201</ele>
        <time>2020-07-15T12:14:32Z</time>
      </trkpt>
      <trkpt lat="43.85554" lon="1.92881">
        <ele>201</ele>
        <time>2020-07-15T12:14:33Z</time>
      </trkpt>
      <trkpt lat="43.85548" lon="1.92884">
        <ele>201</ele>
        <time>2020-07-15T12:14:34Z</time>
      </trkpt>
      <trkpt lat="43.85543" lon="1.92886">
        <ele>201</ele>
        <time>2020-07-15T12:14:35Z</time>
      </trkpt>
      <trkpt lat="43.85538" lon="1.92889">
        <ele>201</ele>
        <time>2020-07-15T12:14:36Z</time>
      </trkpt>
      <trkpt lat="43.85532" lon="1.92892">
        <ele>201.2</ele>
        <time>2020-07-15T12:14:37Z</time>
      </trkpt>
      <trkpt lat="43.85526" lon="1.92894">
        <ele>201.2</ele>
        <time>2020-07-15T12:14:38Z</time>
      </trkpt>
      <trkpt lat="43.85521" lon="1.92897">
        <ele>201.4</ele>
        <time>2020-07-15T12:14:39Z</time>
      </trkpt>
      <trkpt lat="43.85516" lon="1.929">
        <ele>201.4</ele>
        <time>2020-07-15T12:14:40Z</time>
      </trkpt>
      <trkpt lat="43.85511" lon="1.92902">
        <ele>201.4</ele>
        <time>2020-07-15T12:14:41Z</time>
      </trkpt>
      <trkpt lat="43.85505" lon="1.92905">
        <ele>201.4</ele>
        <time>2020-07-15T12:14:42Z</time>
      </trkpt>
      <trkpt lat="43.85499" lon="1.92909">
        <ele>201.4</ele>
        <time>2020-07-15T12:14:43Z</time>
      </trkpt>
      <trkpt lat="43.85494" lon="1.92912">
        <ele>201.4</ele>
        <time>2020-07-15T12:14:44Z</time>
      </trkpt>
      <trkpt lat="43.85489" lon="1.92915">
        <ele>201.4</ele>
        <time>2020-07-15T12:14:45Z</time>
      </trkpt>
      <trkpt lat="43.85484" lon="1.92919">
        <ele>201.4</ele>
        <time>2020-07-15T12:14:46Z</time>
      </trkpt>
      <trkpt lat="43.85478" lon="1.92922">
        <ele>201.4</ele>
        <time>2020-07-15T12:14:47Z</time>
      </trkpt>
      <trkpt lat="43.85474" lon="1.92925">
        <ele>201.4</ele>
        <time>2020-07-15T12:14:48Z</time>
      </trkpt>
      <trkpt lat="43.85468" lon="1.92928">
        <ele>201.4</ele>
        <time>2020-07-15T12:14:49Z</time>
      </trkpt>
      <trkpt lat="43.85463" lon="1.92931">
        <ele>201.4</ele>
        <time>2020-07-15T12:14:50Z</time>
      </trkpt>
      <trkpt lat="43.85457" lon="1.92934">
        <ele>201.4</ele>
        <time>2020-07-15T12:14:51Z</time>
      </trkpt>
      <trkpt lat="43.85452" lon="1.92937">
        <ele>201.6</ele>
        <time>2020-07-15T12:14:52Z</time>
      </trkpt>
      <trkpt lat="43.85446" lon="1.9294">
        <ele>201.6</ele>
        <time>2020-07-15T12:14:53Z</time>
      </trkpt>
      <trkpt lat="43.85441" lon="1.92943">
        <ele>201.6</ele>
        <time>2020-07-15T12:14:54Z</time>
      </trkpt>
      <trkpt lat="43.85436" lon="1.92945">
        <ele>201.6</ele>
        <time>2020-07-15T12:14:55Z</time>
      </trkpt>
      <trkpt lat="43.85431" lon="1.92947">
        <ele>201.6</ele>
        <time>2020-07-15T12:14:56Z</time>
      </trkpt>
      <trkpt lat="43.85426" lon="1.9295">
        <ele>201.6</ele>
        <time>2020-07-15T12:14:57Z</time>
      </trkpt>
      <trkpt lat="43.85421" lon="1.92953">
        <ele>201.6</ele>
        <time>2020-07-15T12:14:58Z</time>
      </trkpt>
      <trkpt lat="43.85417" lon="1.92958">
        <ele>201.6</ele>
        <time>2020-07-15T12:14:59Z</time>
      </trkpt>
      <trkpt lat="43.85415" lon="1.92963">
        <ele>201.6</ele>
        <time>2020-07-15T12:15:00Z</time>
      </trkpt>
      <trkpt lat="43.85415" lon="1.9297">
        <ele>201.4</ele>
        <time>2020-07-15T12:15:01Z</time>
      </trkpt>
      <trkpt lat="43.85416" lon="1.92975">
        <ele>201.4</ele>
        <time>2020-07-15T12:15:02Z</time>
      </trkpt>
      <trkpt lat="43.85418" lon="1.92984">
        <ele>201.4</ele>
        <time>2020-07-15T12:15:03Z</time>
      </trkpt>
      <trkpt lat="43.85421" lon="1.92991">
        <ele>201.4</ele>
        <time>2020-07-15T12:15:04Z</time>
      </trkpt>
      <trkpt lat="43.85424" lon="1.92998">
        <ele>201.4</ele>
        <time>2020-07-15T12:15:05Z</time>
      </trkpt>
      <trkpt lat="43.85428" lon="1.93005">
        <ele>201.4</ele>
        <time>2020-07-15T12:15:06Z</time>
      </trkpt>
      <trkpt lat="43.85431" lon="1.93012">
        <ele>201.4</ele>
        <time>2020-07-15T12:15:07Z</time>
      </trkpt>
      <trkpt lat="43.85434" lon="1.93019">
        <ele>201.4</ele>
        <time>2020-07-15T12:15:08Z</time>
      </trkpt>
      <trkpt lat="43.85437" lon="1.93027">
        <ele>201.6</ele>
        <time>2020-07-15T12:15:09Z</time>
      </trkpt>
      <trkpt lat="43.8544" lon="1.93034">
        <ele>201.6</ele>
        <time>2020-07-15T12:15:10Z</time>
      </trkpt>
      <trkpt lat="43.85442" lon="1.93042">
        <ele>201.6</ele>
        <time>2020-07-15T12:15:11Z</time>
      </trkpt>
      <trkpt lat="43.85445" lon="1.9305">
        <ele>201.6</ele>
        <time>2020-07-15T12:15:12Z</time>
      </trkpt>
      <trkpt lat="43.85447" lon="1.93059">
        <ele>201.6</ele>
        <time>2020-07-15T12:15:13Z</time>
      </trkpt>
      <trkpt lat="43.85449" lon="1.93068">
        <ele>201.4</ele>
        <time>2020-07-15T12:15:14Z</time>
      </trkpt>
      <trkpt lat="43.8545" lon="1.93076">
        <ele>201.4</ele>
        <time>2020-07-15T12:15:15Z</time>
      </trkpt>
      <trkpt lat="43.85451" lon="1.93085">
        <ele>201.4</ele>
        <time>2020-07-15T12:15:16Z</time>
      </trkpt>
      <trkpt lat="43.85452" lon="1.93095">
        <ele>201.4</ele>
        <time>2020-07-15T12:15:17Z</time>
      </trkpt>
      <trkpt lat="43.85453" lon="1.93104">
        <ele>201.4</ele>
        <time>2020-07-15T12:15:18Z</time>
      </trkpt>
      <trkpt lat="43.85454" lon="1.93113">
        <ele>201.4</ele>
        <time>2020-07-15T12:15:19Z</time>
      </trkpt>
      <trkpt lat="43.85453" lon="1.93122">
        <ele>201.4</ele>
        <time>2020-07-15T12:15:20Z</time>
      </trkpt>
      <trkpt lat="43.85452" lon="1.93131">
        <ele>201.4</ele>
        <time>2020-07-15T12:15:21Z</time>
      </trkpt>
      <trkpt lat="43.85451" lon="1.9314">
        <ele>201.2</ele>
        <time>2020-07-15T12:15:22Z</time>
      </trkpt>
      <trkpt lat="43.85449" lon="1.93149">
        <ele>201.2</ele>
        <time>2020-07-15T12:15:23Z</time>
      </trkpt>
      <trkpt lat="43.85447" lon="1.93158">
        <ele>201.2</ele>
        <time>2020-07-15T12:15:24Z</time>
      </trkpt>
      <trkpt lat="43.85444" lon="1.93166">
        <ele>201.4</ele>
        <time>2020-07-15T12:15:25Z</time>
      </trkpt>
      <trkpt lat="43.85441" lon="1.93174">
        <ele>201.4</ele>
        <time>2020-07-15T12:15:26Z</time>
      </trkpt>
      <trkpt lat="43.85438" lon="1.93182">
        <ele>201.4</ele>
        <time>2020-07-15T12:15:27Z</time>
      </trkpt>
      <trkpt lat="43.85434" lon="1.93189">
        <ele>201.4</ele>
        <time>2020-07-15T12:15:28Z</time>
      </trkpt>
      <trkpt lat="43.8543" lon="1.93196">
        <ele>201.6</ele>
        <time>2020-07-15T12:15:29Z</time>
      </trkpt>
      <trkpt lat="43.85426" lon="1.93203">
        <ele>201.6</ele>
        <time>2020-07-15T12:15:30Z</time>
      </trkpt>
      <trkpt lat="43.85422" lon="1.9321">
        <ele>201.6</ele>
        <time>2020-07-15T12:15:31Z</time>
      </trkpt>
      <trkpt lat="43.85417" lon="1.93216">
        <ele>201.6</ele>
        <time>2020-07-15T12:15:32Z</time>
      </trkpt>
      <trkpt lat="43.85412" lon="1.93222">
        <ele>201.8</ele>
        <time>2020-07-15T12:15:33Z</time>
      </trkpt>
      <trkpt lat="43.85407" lon="1.93228">
        <ele>201.8</ele>
        <time>2020-07-15T12:15:34Z</time>
      </trkpt>
      <trkpt lat="43.85402" lon="1.93234">
        <ele>201.8</ele>
        <time>2020-07-15T12:15:35Z</time>
      </trkpt>
      <trkpt lat="43.85397" lon="1.93239">
        <ele>201.8</ele>
        <time>2020-07-15T12:15:36Z</time>
      </trkpt>
      <trkpt lat="43.85392" lon="1.93245">
        <ele>201.6</ele>
        <time>2020-07-15T12:15:37Z</time>
      </trkpt>
      <trkpt lat="43.85387" lon="1.9325">
        <ele>201.4</ele>
        <time>2020-07-15T12:15:38Z</time>
      </trkpt>
      <trkpt lat="43.85382" lon="1.93255">
        <ele>201.4</ele>
        <time>2020-07-15T12:15:39Z</time>
      </trkpt>
      <trkpt lat="43.85377" lon="1.93261">
        <ele>201.2</ele>
        <time>2020-07-15T12:15:40Z</time>
      </trkpt>
      <trkpt lat="43.85372" lon="1.93266">
        <ele>201.2</ele>
        <time>2020-07-15T12:15:41Z</time>
      </trkpt>
      <trkpt lat="43.85367" lon="1.93271">
        <ele>201.2</ele>
        <time>2020-07-15T12:15:42Z</time>
      </trkpt>
      <trkpt lat="43.85362" lon="1.93276">
        <ele>201</ele>
        <time>2020-07-15T12:15:43Z</time>
      </trkpt>
      <trkpt lat="43.85357" lon="1.93281">
        <ele>201</ele>
        <time>2020-07-15T12:15:44Z</time>
      </trkpt>
      <trkpt lat="43.85351" lon="1.93286">
        <ele>201.2</ele>
        <time>2020-07-15T12:15:45Z</time>
      </trkpt>
      <trkpt lat="43.85346" lon="1.93291">
        <ele>201.2</ele>
        <time>2020-07-15T12:15:46Z</time>
      </trkpt>
      <trkpt lat="43.85341" lon="1.93296">
        <ele>201.2</ele>
        <time>2020-07-15T12:15:47Z</time>
      </trkpt>
      <trkpt lat="43.85335" lon="1.93301">
        <ele>201.2</ele>
        <time>2020-07-15T12:15:48Z</time>
      </trkpt>
      <trkpt lat="43.8533" lon="1.93306">
        <ele>201.2</ele>
        <time>2020-07-15T12:15:49Z</time>
      </trkpt>
      <trkpt lat="43.85325" lon="1.93311">
        <ele>201</ele>
        <time>2020-07-15T12:15:50Z</time>
      </trkpt>
      <trkpt lat="43.8532" lon="1.93316">
        <ele>201</ele>
        <time>2020-07-15T12:15:51Z</time>
      </trkpt>
      <trkpt lat="43.85313" lon="1.93321">
        <ele>201</ele>
        <time>2020-07-15T12:15:52Z</time>
      </trkpt>
      <trkpt lat="43.85308" lon="1.93326">
        <ele>201</ele>
        <time>2020-07-15T12:15:53Z</time>
      </trkpt>
      <trkpt lat="43.85302" lon="1.93331">
        <ele>201</ele>
        <time>2020-07-15T12:15:54Z</time>
      </trkpt>
      <trkpt lat="43.85297" lon="1.93336">
        <ele>200.8</ele>
        <time>2020-07-15T12:15:55Z</time>
      </trkpt>
      <trkpt lat="43.85292" lon="1.93341">
        <ele>200.8</ele>
        <time>2020-07-15T12:15:56Z</time>
      </trkpt>
      <trkpt lat="43.85286" lon="1.93346">
        <ele>200.6</ele>
        <time>2020-07-15T12:15:57Z</time>
      </trkpt>
      <trkpt lat="43.85281" lon="1.93352">
        <ele>200.4</ele>
        <time>2020-07-15T12:15:58Z</time>
      </trkpt>
      <trkpt lat="43.85275" lon="1.93356">
        <ele>200.2</ele>
        <time>2020-07-15T12:15:59Z</time>
      </trkpt>
      <trkpt lat="43.8527" lon="1.93361">
        <ele>200.2</ele>
        <time>2020-07-15T12:16:00Z</time>
      </trkpt>
      <trkpt lat="43.85264" lon="1.93366">
        <ele>200.2</ele>
        <time>2020-07-15T12:16:01Z</time>
      </trkpt>
      <trkpt lat="43.85259" lon="1.93371">
        <ele>200.2</ele>
        <time>2020-07-15T12:16:02Z</time>
      </trkpt>
      <trkpt lat="43.85254" lon="1.93376">
        <ele>200.2</ele>
        <time>2020-07-15T12:16:03Z</time>
      </trkpt>
      <trkpt lat="43.85247" lon="1.93381">
        <ele>200.2</ele>
        <time>2020-07-15T12:16:04Z</time>
      </trkpt>
      <trkpt lat="43.85242" lon="1.93386">
        <ele>200.2</ele>
        <time>2020-07-15T12:16:05Z</time>
      </trkpt>
      <trkpt lat="43.85237" lon="1.93391">
        <ele>200.2</ele>
        <time>2020-07-15T12:16:06Z</time>
      </trkpt>
      <trkpt lat="43.85231" lon="1.93396">
        <ele>200.2</ele>
        <time>2020-07-15T12:16:07Z</time>
      </trkpt>
      <trkpt lat="43.85226" lon="1.93401">
        <ele>200.2</ele>
        <time>2020-07-15T12:16:08Z</time>
      </trkpt>
      <trkpt lat="43.85221" lon="1.93406">
        <ele>200.2</ele>
        <time>2020-07-15T12:16:09Z</time>
      </trkpt>
      <trkpt lat="43.85215" lon="1.93411">
        <ele>200.2</ele>
        <time>2020-07-15T12:16:10Z</time>
      </trkpt>
      <trkpt lat="43.8521" lon="1.93416">
        <ele>200</ele>
        <time>2020-07-15T12:16:11Z</time>
      </trkpt>
      <trkpt lat="43.85205" lon="1.93421">
        <ele>200.2</ele>
        <time>2020-07-15T12:16:12Z</time>
      </trkpt>
      <trkpt lat="43.852" lon="1.93426">
        <ele>200.2</ele>
        <time>2020-07-15T12:16:13Z</time>
      </trkpt>
      <trkpt lat="43.85195" lon="1.9343">
        <ele>200.2</ele>
        <time>2020-07-15T12:16:14Z</time>
      </trkpt>
      <trkpt lat="43.8519" lon="1.93435">
        <ele>200.4</ele>
        <time>2020-07-15T12:16:15Z</time>
      </trkpt>
      <trkpt lat="43.85185" lon="1.93439">
        <ele>200.4</ele>
        <time>2020-07-15T12:16:16Z</time>
      </trkpt>
      <trkpt lat="43.85181" lon="1.93443">
        <ele>200.6</ele>
        <time>2020-07-15T12:16:17Z</time>
      </trkpt>
      <trkpt lat="43.85177" lon="1.93446">
        <ele>200.6</ele>
        <time>2020-07-15T12:16:18Z</time>
      </trkpt>
      <trkpt lat="43.85174" lon="1.93447">
        <ele>200.6</ele>
        <time>2020-07-15T12:16:19Z</time>
      </trkpt>
      <trkpt lat="43.85172" lon="1.93445">
        <ele>200.6</ele>
        <time>2020-07-15T12:16:20Z</time>
      </trkpt>
      <trkpt lat="43.8517" lon="1.93442">
        <ele>200.6</ele>
        <time>2020-07-15T12:16:21Z</time>
      </trkpt>
      <trkpt lat="43.85169" lon="1.93438">
        <ele>200.6</ele>
        <time>2020-07-15T12:16:22Z</time>
      </trkpt>
      <trkpt lat="43.85169" lon="1.93434">
        <ele>200.4</ele>
        <time>2020-07-15T12:16:23Z</time>
      </trkpt>
      <trkpt lat="43.85169" lon="1.93428">
        <ele>200.4</ele>
        <time>2020-07-15T12:16:24Z</time>
      </trkpt>
      <trkpt lat="43.85169" lon="1.93422">
        <ele>200.4</ele>
        <time>2020-07-15T12:16:25Z</time>
      </trkpt>
      <trkpt lat="43.85169" lon="1.93415">
        <ele>200.2</ele>
        <time>2020-07-15T12:16:26Z</time>
      </trkpt>
      <trkpt lat="43.85169" lon="1.93408">
        <ele>200.2</ele>
        <time>2020-07-15T12:16:27Z</time>
      </trkpt>
      <trkpt lat="43.85168" lon="1.934">
        <ele>200</ele>
        <time>2020-07-15T12:16:28Z</time>
      </trkpt>
      <trkpt lat="43.85168" lon="1.93393">
        <ele>200</ele>
        <time>2020-07-15T12:16:29Z</time>
      </trkpt>
      <trkpt lat="43.85167" lon="1.93385">
        <ele>200</ele>
        <time>2020-07-15T12:16:30Z</time>
      </trkpt>
      <trkpt lat="43.85167" lon="1.93378">
        <ele>200.2</ele>
        <time>2020-07-15T12:16:31Z</time>
      </trkpt>
      <trkpt lat="43.85166" lon="1.9337">
        <ele>200.4</ele>
        <time>2020-07-15T12:16:32Z</time>
      </trkpt>
      <trkpt lat="43.85166" lon="1.93362">
        <ele>200.6</ele>
        <time>2020-07-15T12:16:33Z</time>
      </trkpt>
      <trkpt lat="43.85166" lon="1.93355">
        <ele>200.6</ele>
        <time>2020-07-15T12:16:34Z</time>
      </trkpt>
      <trkpt lat="43.85166" lon="1.93348">
        <ele>200.6</ele>
        <time>2020-07-15T12:16:35Z</time>
      </trkpt>
      <trkpt lat="43.85166" lon="1.93341">
        <ele>200.6</ele>
        <time>2020-07-15T12:16:36Z</time>
      </trkpt>
      <trkpt lat="43.85167" lon="1.93334">
        <ele>200.8</ele>
        <time>2020-07-15T12:16:37Z</time>
      </trkpt>
      <trkpt lat="43.85167" lon="1.93328">
        <ele>201</ele>
        <time>2020-07-15T12:16:38Z</time>
      </trkpt>
      <trkpt lat="43.85165" lon="1.93324">
        <ele>201.2</ele>
        <time>2020-07-15T12:16:39Z</time>
      </trkpt>
      <trkpt lat="43.85163" lon="1.93324">
        <ele>201.6</ele>
        <time>2020-07-15T12:16:40Z</time>
      </trkpt>
      <trkpt lat="43.85159" lon="1.93324">
        <ele>201.8</ele>
        <time>2020-07-15T12:16:41Z</time>
      </trkpt>
      <trkpt lat="43.85156" lon="1.93326">
        <ele>202</ele>
        <time>2020-07-15T12:16:42Z</time>
      </trkpt>
      <trkpt lat="43.85152" lon="1.93328">
        <ele>202.2</ele>
        <time>2020-07-15T12:16:43Z</time>
      </trkpt>
      <trkpt lat="43.85148" lon="1.9333">
        <ele>202.4</ele>
        <time>2020-07-15T12:16:44Z</time>
      </trkpt>
      <trkpt lat="43.85144" lon="1.93333">
        <ele>202.4</ele>
        <time>2020-07-15T12:16:45Z</time>
      </trkpt>
      <trkpt lat="43.8514" lon="1.93335">
        <ele>202.6</ele>
        <time>2020-07-15T12:16:46Z</time>
      </trkpt>
      <trkpt lat="43.85135" lon="1.93338">
        <ele>202.6</ele>
        <time>2020-07-15T12:16:47Z</time>
      </trkpt>
      <trkpt lat="43.8513" lon="1.9334">
        <ele>202.8</ele>
        <time>2020-07-15T12:16:48Z</time>
      </trkpt>
      <trkpt lat="43.85126" lon="1.93342">
        <ele>203</ele>
        <time>2020-07-15T12:16:49Z</time>
      </trkpt>
      <trkpt lat="43.85121" lon="1.93344">
        <ele>203</ele>
        <time>2020-07-15T12:16:50Z</time>
      </trkpt>
      <trkpt lat="43.85115" lon="1.93346">
        <ele>203.2</ele>
        <time>2020-07-15T12:16:51Z</time>
      </trkpt>
      <trkpt lat="43.85111" lon="1.93348">
        <ele>203.2</ele>
        <time>2020-07-15T12:16:52Z</time>
      </trkpt>
      <trkpt lat="43.85106" lon="1.9335">
        <ele>203.4</ele>
        <time>2020-07-15T12:16:53Z</time>
      </trkpt>
      <trkpt lat="43.85101" lon="1.93351">
        <ele>203.4</ele>
        <time>2020-07-15T12:16:54Z</time>
      </trkpt>
      <trkpt lat="43.85096" lon="1.93352">
        <ele>203.6</ele>
        <time>2020-07-15T12:16:55Z</time>
      </trkpt>
      <trkpt lat="43.85092" lon="1.93352">
        <ele>203.6</ele>
        <time>2020-07-15T12:16:56Z</time>
      </trkpt>
      <trkpt lat="43.85087" lon="1.93353">
        <ele>203.8</ele>
        <time>2020-07-15T12:16:57Z</time>
      </trkpt>
      <trkpt lat="43.85082" lon="1.93354">
        <ele>204</ele>
        <time>2020-07-15T12:16:58Z</time>
      </trkpt>
      <trkpt lat="43.85078" lon="1.93355">
        <ele>204.2</ele>
        <time>2020-07-15T12:16:59Z</time>
      </trkpt>
      <trkpt lat="43.85074" lon="1.93356">
        <ele>204.2</ele>
        <time>2020-07-15T12:17:00Z</time>
      </trkpt>
      <trkpt lat="43.85068" lon="1.93358">
        <ele>204.4</ele>
        <time>2020-07-15T12:17:01Z</time>
      </trkpt>
      <trkpt lat="43.85064" lon="1.93359">
        <ele>204.6</ele>
        <time>2020-07-15T12:17:02Z</time>
      </trkpt>
      <trkpt lat="43.85059" lon="1.9336">
        <ele>204.6</ele>
        <time>2020-07-15T12:17:03Z</time>
      </trkpt>
      <trkpt lat="43.85054" lon="1.93361">
        <ele>204.8</ele>
        <time>2020-07-15T12:17:04Z</time>
      </trkpt>
      <trkpt lat="43.85049" lon="1.93363">
        <ele>204.8</ele>
        <time>2020-07-15T12:17:05Z</time>
      </trkpt>
      <trkpt lat="43.85045" lon="1.93364">
        <ele>204.8</ele>
        <time>2020-07-15T12:17:06Z</time>
      </trkpt>
      <trkpt lat="43.8504" lon="1.93365">
        <ele>205</ele>
        <time>2020-07-15T12:17:07Z</time>
      </trkpt>
      <trkpt lat="43.85035" lon="1.93366">
        <ele>205</ele>
        <time>2020-07-15T12:17:08Z</time>
      </trkpt>
      <trkpt lat="43.8503" lon="1.93368">
        <ele>205.2</ele>
        <time>2020-07-15T12:17:09Z</time>
      </trkpt>
      <trkpt lat="43.85026" lon="1.93369">
        <ele>205.2</ele>
        <time>2020-07-15T12:17:10Z</time>
      </trkpt>
      <trkpt lat="43.85021" lon="1.9337">
        <ele>205.4</ele>
        <time>2020-07-15T12:17:11Z</time>
      </trkpt>
      <trkpt lat="43.85016" lon="1.93372">
        <ele>205.6</ele>
        <time>2020-07-15T12:17:12Z</time>
      </trkpt>
      <trkpt lat="43.85012" lon="1.93373">
        <ele>205.8</ele>
        <time>2020-07-15T12:17:13Z</time>
      </trkpt>
      <trkpt lat="43.85008" lon="1.93374">
        <ele>205.8</ele>
        <time>2020-07-15T12:17:14Z</time>
      </trkpt>
      <trkpt lat="43.85003" lon="1.93376">
        <ele>206</ele>
        <time>2020-07-15T12:17:15Z</time>
      </trkpt>
      <trkpt lat="43.84998" lon="1.93377">
        <ele>206.2</ele>
        <time>2020-07-15T12:17:16Z</time>
      </trkpt>
      <trkpt lat="43.84994" lon="1.93379">
        <ele>206.4</ele>
        <time>2020-07-15T12:17:17Z</time>
      </trkpt>
      <trkpt lat="43.84989" lon="1.93381">
        <ele>206.4</ele>
        <time>2020-07-15T12:17:18Z</time>
      </trkpt>
      <trkpt lat="43.84985" lon="1.93383">
        <ele>206.4</ele>
        <time>2020-07-15T12:17:19Z</time>
      </trkpt>
      <trkpt lat="43.8498" lon="1.93384">
        <ele>206.6</ele>
        <time>2020-07-15T12:17:20Z</time>
      </trkpt>
      <trkpt lat="43.84976" lon="1.93386">
        <ele>206.4</ele>
        <time>2020-07-15T12:17:21Z</time>
      </trkpt>
      <trkpt lat="43.84972" lon="1.93387">
        <ele>206.4</ele>
        <time>2020-07-15T12:17:22Z</time>
      </trkpt>
      <trkpt lat="43.84967" lon="1.93389">
        <ele>206.6</ele>
        <time>2020-07-15T12:17:23Z</time>
      </trkpt>
      <trkpt lat="43.84963" lon="1.93391">
        <ele>206.8</ele>
        <time>2020-07-15T12:17:24Z</time>
      </trkpt>
      <trkpt lat="43.84959" lon="1.93393">
        <ele>206.8</ele>
        <time>2020-07-15T12:17:25Z</time>
      </trkpt>
      <trkpt lat="43.84954" lon="1.93394">
        <ele>206.8</ele>
        <time>2020-07-15T12:17:26Z</time>
      </trkpt>
      <trkpt lat="43.8495" lon="1.93395">
        <ele>206.8</ele>
        <time>2020-07-15T12:17:27Z</time>
      </trkpt>
      <trkpt lat="43.84945" lon="1.93397">
        <ele>206.8</ele>
        <time>2020-07-15T12:17:28Z</time>
      </trkpt>
      <trkpt lat="43.84941" lon="1.93398">
        <ele>206.8</ele>
        <time>2020-07-15T12:17:29Z</time>
      </trkpt>
      <trkpt lat="43.84937" lon="1.934">
        <ele>206.8</ele>
        <time>2020-07-15T12:17:30Z</time>
      </trkpt>
      <trkpt lat="43.84932" lon="1.93401">
        <ele>207</ele>
        <time>2020-07-15T12:17:31Z</time>
      </trkpt>
      <trkpt lat="43.84928" lon="1.93403">
        <ele>207</ele>
        <time>2020-07-15T12:17:32Z</time>
      </trkpt>
      <trkpt lat="43.84923" lon="1.93404">
        <ele>207.2</ele>
        <time>2020-07-15T12:17:33Z</time>
      </trkpt>
      <trkpt lat="43.84919" lon="1.93406">
        <ele>207.2</ele>
        <time>2020-07-15T12:17:34Z</time>
      </trkpt>
      <trkpt lat="43.84915" lon="1.93408">
        <ele>207.4</ele>
        <time>2020-07-15T12:17:35Z</time>
      </trkpt>
      <trkpt lat="43.8491" lon="1.93409">
        <ele>207.4</ele>
        <time>2020-07-15T12:17:36Z</time>
      </trkpt>
      <trkpt lat="43.84906" lon="1.9341">
        <ele>207.6</ele>
        <time>2020-07-15T12:17:37Z</time>
      </trkpt>
      <trkpt lat="43.84902" lon="1.93412">
        <ele>207.6</ele>
        <time>2020-07-15T12:17:38Z</time>
      </trkpt>
      <trkpt lat="43.84897" lon="1.93413">
        <ele>207.6</ele>
        <time>2020-07-15T12:17:39Z</time>
      </trkpt>
      <trkpt lat="43.84893" lon="1.93415">
        <ele>207.6</ele>
        <time>2020-07-15T12:17:40Z</time>
      </trkpt>
      <trkpt lat="43.84889" lon="1.93416">
        <ele>207.6</ele>
        <time>2020-07-15T12:17:41Z</time>
      </trkpt>
      <trkpt lat="43.84885" lon="1.93418">
        <ele>207.6</ele>
        <time>2020-07-15T12:17:42Z</time>
      </trkpt>
      <trkpt lat="43.8488" lon="1.93419">
        <ele>207.6</ele>
        <time>2020-07-15T12:17:43Z</time>
      </trkpt>
      <trkpt lat="43.84876" lon="1.93421">
        <ele>207.6</ele>
        <time>2020-07-15T12:17:44Z</time>
      </trkpt>
      <trkpt lat="43.84871" lon="1.93423">
        <ele>207.8</ele>
        <time>2020-07-15T12:17:45Z</time>
      </trkpt>
      <trkpt lat="43.84866" lon="1.93424">
        <ele>207.8</ele>
        <time>2020-07-15T12:17:46Z</time>
      </trkpt>
      <trkpt lat="43.84862" lon="1.93426">
        <ele>207.8</ele>
        <time>2020-07-15T12:17:47Z</time>
      </trkpt>
      <trkpt lat="43.84858" lon="1.93427">
        <ele>208</ele>
        <time>2020-07-15T12:17:48Z</time>
      </trkpt>
      <trkpt lat="43.84855" lon="1.93429">
        <ele>208</ele>
        <time>2020-07-15T12:17:49Z</time>
      </trkpt>
      <trkpt lat="43.84852" lon="1.9343">
        <ele>208</ele>
        <time>2020-07-15T12:17:50Z</time>
      </trkpt>
      <trkpt lat="43.84851" lon="1.93433">
        <ele>207.8</ele>
        <time>2020-07-15T12:17:51Z</time>
      </trkpt>
      <trkpt lat="43.84851" lon="1.93436">
        <ele>207.8</ele>
        <time>2020-07-15T12:17:52Z</time>
      </trkpt>
      <trkpt lat="43.84852" lon="1.9344">
        <ele>207.6</ele>
        <time>2020-07-15T12:17:53Z</time>
      </trkpt>
      <trkpt lat="43.84853" lon="1.93444">
        <ele>207.6</ele>
        <time>2020-07-15T12:17:54Z</time>
      </trkpt>
      <trkpt lat="43.84855" lon="1.93449">
        <ele>207.4</ele>
        <time>2020-07-15T12:17:55Z</time>
      </trkpt>
      <trkpt lat="43.84856" lon="1.93453">
        <ele>207.4</ele>
        <time>2020-07-15T12:17:56Z</time>
      </trkpt>
      <trkpt lat="43.84858" lon="1.9346">
        <ele>207.2</ele>
        <time>2020-07-15T12:17:57Z</time>
      </trkpt>
      <trkpt lat="43.84861" lon="1.93467">
        <ele>207</ele>
        <time>2020-07-15T12:17:58Z</time>
      </trkpt>
      <trkpt lat="43.84863" lon="1.93473">
        <ele>206.8</ele>
        <time>2020-07-15T12:17:59Z</time>
      </trkpt>
      <trkpt lat="43.84864" lon="1.93478">
        <ele>206.6</ele>
        <time>2020-07-15T12:18:00Z</time>
      </trkpt>
      <trkpt lat="43.84868" lon="1.93488">
        <ele>206.4</ele>
        <time>2020-07-15T12:18:01Z</time>
      </trkpt>
      <trkpt lat="43.8487" lon="1.93495">
        <ele>206.2</ele>
        <time>2020-07-15T12:18:02Z</time>
      </trkpt>
      <trkpt lat="43.84872" lon="1.93503">
        <ele>205.8</ele>
        <time>2020-07-15T12:18:03Z</time>
      </trkpt>
      <trkpt lat="43.84875" lon="1.93511">
        <ele>205.4</ele>
        <time>2020-07-15T12:18:04Z</time>
      </trkpt>
      <trkpt lat="43.84878" lon="1.93519">
        <ele>205.2</ele>
        <time>2020-07-15T12:18:05Z</time>
      </trkpt>
      <trkpt lat="43.84881" lon="1.93527">
        <ele>204.8</ele>
        <time>2020-07-15T12:18:06Z</time>
      </trkpt>
      <trkpt lat="43.84884" lon="1.93534">
        <ele>204.4</ele>
        <time>2020-07-15T12:18:07Z</time>
      </trkpt>
      <trkpt lat="43.84886" lon="1.93542">
        <ele>204</ele>
        <time>2020-07-15T12:18:08Z</time>
      </trkpt>
      <trkpt lat="43.84888" lon="1.93551">
        <ele>203.8</ele>
        <time>2020-07-15T12:18:09Z</time>
      </trkpt>
      <trkpt lat="43.8489" lon="1.93559">
        <ele>203.4</ele>
        <time>2020-07-15T12:18:10Z</time>
      </trkpt>
      <trkpt lat="43.84892" lon="1.93566">
        <ele>203.2</ele>
        <time>2020-07-15T12:18:11Z</time>
      </trkpt>
      <trkpt lat="43.84894" lon="1.93574">
        <ele>203</ele>
        <time>2020-07-15T12:18:12Z</time>
      </trkpt>
      <trkpt lat="43.84896" lon="1.9358">
        <ele>202.8</ele>
        <time>2020-07-15T12:18:13Z</time>
      </trkpt>
      <trkpt lat="43.84899" lon="1.93587">
        <ele>202.6</ele>
        <time>2020-07-15T12:18:14Z</time>
      </trkpt>
      <trkpt lat="43.849" lon="1.93593">
        <ele>202.4</ele>
        <time>2020-07-15T12:18:15Z</time>
      </trkpt>
      <trkpt lat="43.84901" lon="1.93599">
        <ele>202.2</ele>
        <time>2020-07-15T12:18:16Z</time>
      </trkpt>
      <trkpt lat="43.849" lon="1.93604">
        <ele>202</ele>
        <time>2020-07-15T12:18:17Z</time>
      </trkpt>
      <trkpt lat="43.84899" lon="1.93608">
        <ele>202</ele>
        <time>2020-07-15T12:18:18Z</time>
      </trkpt>
      <trkpt lat="43.84897" lon="1.93611">
        <ele>202</ele>
        <time>2020-07-15T12:18:19Z</time>
      </trkpt>
      <trkpt lat="43.84894" lon="1.93614">
        <ele>202</ele>
        <time>2020-07-15T12:18:20Z</time>
      </trkpt>
      <trkpt lat="43.84892" lon="1.93619">
        <ele>202</ele>
        <time>2020-07-15T12:18:21Z</time>
      </trkpt>
      <trkpt lat="43.84891" lon="1.93625">
        <ele>201.8</ele>
        <time>2020-07-15T12:18:22Z</time>
      </trkpt>
      <trkpt lat="43.84892" lon="1.93632">
        <ele>201.6</ele>
        <time>2020-07-15T12:18:23Z</time>
      </trkpt>
      <trkpt lat="43.84892" lon="1.93639">
        <ele>201.4</ele>
        <time>2020-07-15T12:18:24Z</time>
      </trkpt>
      <trkpt lat="43.84893" lon="1.93647">
        <ele>201</ele>
        <time>2020-07-15T12:18:25Z</time>
      </trkpt>
      <trkpt lat="43.84894" lon="1.93654">
        <ele>200.8</ele>
        <time>2020-07-15T12:18:26Z</time>
      </trkpt>
      <trkpt lat="43.84895" lon="1.9366">
        <ele>200.4</ele>
        <time>2020-07-15T12:18:27Z</time>
      </trkpt>
      <trkpt lat="43.84894" lon="1.93664">
        <ele>200.2</ele>
        <time>2020-07-15T12:18:28Z</time>
      </trkpt>
      <trkpt lat="43.84893" lon="1.93667">
        <ele>200</ele>
        <time>2020-07-15T12:18:29Z</time>
      </trkpt>
      <trkpt lat="43.8489" lon="1.93668">
        <ele>199.8</ele>
        <time>2020-07-15T12:18:30Z</time>
      </trkpt>
      <trkpt lat="43.84887" lon="1.93667">
        <ele>199.6</ele>
        <time>2020-07-15T12:18:31Z</time>
      </trkpt>
      <trkpt lat="43.84885" lon="1.93666">
        <ele>199.6</ele>
        <time>2020-07-15T12:18:32Z</time>
      </trkpt>
      <trkpt lat="43.84882" lon="1.93665">
        <ele>199.6</ele>
        <time>2020-07-15T12:18:33Z</time>
      </trkpt>
      <trkpt lat="43.8488" lon="1.93664">
        <ele>199.6</ele>
        <time>2020-07-15T12:18:34Z</time>
      </trkpt>
      <trkpt lat="43.84877" lon="1.93663">
        <ele>199.6</ele>
        <time>2020-07-15T12:18:35Z</time>
      </trkpt>
      <trkpt lat="43.84874" lon="1.93663">
        <ele>199.6</ele>
        <time>2020-07-15T12:18:36Z</time>
      </trkpt>
      <trkpt lat="43.84872" lon="1.93663">
        <ele>199.8</ele>
        <time>2020-07-15T12:18:37Z</time>
      </trkpt>
      <trkpt lat="43.84869" lon="1.93663">
        <ele>199.8</ele>
        <time>2020-07-15T12:18:38Z</time>
      </trkpt>
      <trkpt lat="43.84868" lon="1.93663">
        <ele>199.8</ele>
        <time>2020-07-15T12:18:39Z</time>
      </trkpt>
      <trkpt lat="43.84866" lon="1.93665">
        <ele>200</ele>
        <time>2020-07-15T12:18:40Z</time>
      </trkpt>
      <trkpt lat="43.84866" lon="1.93667">
        <ele>200</ele>
        <time>2020-07-15T12:18:41Z</time>
      </trkpt>
      <trkpt lat="43.84866" lon="1.93671">
        <ele>200</ele>
        <time>2020-07-15T12:18:42Z</time>
      </trkpt>
      <trkpt lat="43.84866" lon="1.93675">
        <ele>200</ele>
        <time>2020-07-15T12:18:43Z</time>
      </trkpt>
      <trkpt lat="43.84867" lon="1.93679">
        <ele>199.8</ele>
        <time>2020-07-15T12:18:44Z</time>
      </trkpt>
      <trkpt lat="43.84867" lon="1.93684">
        <ele>199.4</ele>
        <time>2020-07-15T12:18:45Z</time>
      </trkpt>
      <trkpt lat="43.84866" lon="1.93688">
        <ele>199.2</ele>
        <time>2020-07-15T12:18:46Z</time>
      </trkpt>
      <trkpt lat="43.84863" lon="1.93691">
        <ele>199.2</ele>
        <time>2020-07-15T12:18:47Z</time>
      </trkpt>
      <trkpt lat="43.8486" lon="1.93693">
        <ele>199.2</ele>
        <time>2020-07-15T12:18:48Z</time>
      </trkpt>
      <trkpt lat="43.84857" lon="1.93694">
        <ele>199.2</ele>
        <time>2020-07-15T12:18:49Z</time>
      </trkpt>
      <trkpt lat="43.84853" lon="1.93694">
        <ele>199.2</ele>
        <time>2020-07-15T12:18:50Z</time>
      </trkpt>
      <trkpt lat="43.8485" lon="1.93695">
        <ele>199.2</ele>
        <time>2020-07-15T12:18:51Z</time>
      </trkpt>
      <trkpt lat="43.84848" lon="1.93698">
        <ele>199.2</ele>
        <time>2020-07-15T12:18:52Z</time>
      </trkpt>
      <trkpt lat="43.84845" lon="1.93702">
        <ele>199.2</ele>
        <time>2020-07-15T12:18:53Z</time>
      </trkpt>
      <trkpt lat="43.84841" lon="1.93705">
        <ele>199.4</ele>
        <time>2020-07-15T12:18:54Z</time>
      </trkpt>
      <trkpt lat="43.84837" lon="1.93707">
        <ele>199.6</ele>
        <time>2020-07-15T12:18:55Z</time>
      </trkpt>
      <trkpt lat="43.84833" lon="1.93709">
        <ele>199.8</ele>
        <time>2020-07-15T12:18:56Z</time>
      </trkpt>
      <trkpt lat="43.84829" lon="1.9371">
        <ele>200</ele>
        <time>2020-07-15T12:18:57Z</time>
      </trkpt>
      <trkpt lat="43.84825" lon="1.93712">
        <ele>200.4</ele>
        <time>2020-07-15T12:18:58Z</time>
      </trkpt>
      <trkpt lat="43.84822" lon="1.93715">
        <ele>200.6</ele>
        <time>2020-07-15T12:18:59Z</time>
      </trkpt>
      <trkpt lat="43.84819" lon="1.93716">
        <ele>201</ele>
        <time>2020-07-15T12:19:00Z</time>
      </trkpt>
      <trkpt lat="43.84815" lon="1.93718">
        <ele>201.4</ele>
        <time>2020-07-15T12:19:01Z</time>
      </trkpt>
      <trkpt lat="43.84811" lon="1.93718">
        <ele>201.6</ele>
        <time>2020-07-15T12:19:02Z</time>
      </trkpt>
      <trkpt lat="43.84807" lon="1.93718">
        <ele>201.8</ele>
        <time>2020-07-15T12:19:03Z</time>
      </trkpt>
      <trkpt lat="43.84804" lon="1.93717">
        <ele>202</ele>
        <time>2020-07-15T12:19:04Z</time>
      </trkpt>
      <trkpt lat="43.84799" lon="1.93717">
        <ele>202</ele>
        <time>2020-07-15T12:19:05Z</time>
      </trkpt>
      <trkpt lat="43.84795" lon="1.93717">
        <ele>202</ele>
        <time>2020-07-15T12:19:06Z</time>
      </trkpt>
      <trkpt lat="43.8479" lon="1.93717">
        <ele>202</ele>
        <time>2020-07-15T12:19:07Z</time>
      </trkpt>
      <trkpt lat="43.84784" lon="1.93717">
        <ele>202</ele>
        <time>2020-07-15T12:19:08Z</time>
      </trkpt>
      <trkpt lat="43.84779" lon="1.93718">
        <ele>202</ele>
        <time>2020-07-15T12:19:09Z</time>
      </trkpt>
      <trkpt lat="43.84775" lon="1.93719">
        <ele>202.2</ele>
        <time>2020-07-15T12:19:10Z</time>
      </trkpt>
      <trkpt lat="43.84771" lon="1.9372">
        <ele>202.2</ele>
        <time>2020-07-15T12:19:11Z</time>
      </trkpt>
      <trkpt lat="43.84768" lon="1.9372">
        <ele>202.6</ele>
        <time>2020-07-15T12:19:12Z</time>
      </trkpt>
      <trkpt lat="43.84763" lon="1.93722">
        <ele>202.8</ele>
        <time>2020-07-15T12:19:13Z</time>
      </trkpt>
      <trkpt lat="43.8476" lon="1.93723">
        <ele>203</ele>
        <time>2020-07-15T12:19:14Z</time>
      </trkpt>
      <trkpt lat="43.84756" lon="1.93725">
        <ele>203.2</ele>
        <time>2020-07-15T12:19:15Z</time>
      </trkpt>
      <trkpt lat="43.84752" lon="1.93726">
        <ele>203.4</ele>
        <time>2020-07-15T12:19:16Z</time>
      </trkpt>
      <trkpt lat="43.84748" lon="1.93728">
        <ele>203.6</ele>
        <time>2020-07-15T12:19:17Z</time>
      </trkpt>
      <trkpt lat="43.84744" lon="1.93729">
        <ele>203.8</ele>
        <time>2020-07-15T12:19:18Z</time>
      </trkpt>
      <trkpt lat="43.8474" lon="1.93731">
        <ele>204</ele>
        <time>2020-07-15T12:19:19Z</time>
      </trkpt>
      <trkpt lat="43.84737" lon="1.93733">
        <ele>204.2</ele>
        <time>2020-07-15T12:19:20Z</time>
      </trkpt>
      <trkpt lat="43.84733" lon="1.93735">
        <ele>204.4</ele>
        <time>2020-07-15T12:19:21Z</time>
      </trkpt>
      <trkpt lat="43.8473" lon="1.93737">
        <ele>204.8</ele>
        <time>2020-07-15T12:19:22Z</time>
      </trkpt>
      <trkpt lat="43.84727" lon="1.9374">
        <ele>205</ele>
        <time>2020-07-15T12:19:23Z</time>
      </trkpt>
      <trkpt lat="43.84724" lon="1.93742">
        <ele>205.2</ele>
        <time>2020-07-15T12:19:24Z</time>
      </trkpt>
      <trkpt lat="43.84721" lon="1.93745">
        <ele>205.4</ele>
        <time>2020-07-15T12:19:25Z</time>
      </trkpt>
      <trkpt lat="43.84718" lon="1.93748">
        <ele>205.8</ele>
        <time>2020-07-15T12:19:26Z</time>
      </trkpt>
      <trkpt lat="43.84715" lon="1.9375">
        <ele>206</ele>
        <time>2020-07-15T12:19:27Z</time>
      </trkpt>
      <trkpt lat="43.84712" lon="1.93751">
        <ele>206.2</ele>
        <time>2020-07-15T12:19:28Z</time>
      </trkpt>
      <trkpt lat="43.84709" lon="1.93754">
        <ele>206.4</ele>
        <time>2020-07-15T12:19:29Z</time>
      </trkpt>
      <trkpt lat="43.84706" lon="1.93756">
        <ele>206.6</ele>
        <time>2020-07-15T12:19:30Z</time>
      </trkpt>
      <trkpt lat="43.84703" lon="1.93759">
        <ele>206.8</ele>
        <time>2020-07-15T12:19:31Z</time>
      </trkpt>
      <trkpt lat="43.847" lon="1.93762">
        <ele>207</ele>
        <time>2020-07-15T12:19:32Z</time>
      </trkpt>
      <trkpt lat="43.84697" lon="1.93764">
        <ele>207.2</ele>
        <time>2020-07-15T12:19:33Z</time>
      </trkpt>
      <trkpt lat="43.84694" lon="1.93767">
        <ele>207.4</ele>
        <time>2020-07-15T12:19:34Z</time>
      </trkpt>
      <trkpt lat="43.84691" lon="1.93769">
        <ele>207.4</ele>
        <time>2020-07-15T12:19:35Z</time>
      </trkpt>
      <trkpt lat="43.84688" lon="1.93772">
        <ele>207.6</ele>
        <time>2020-07-15T12:19:36Z</time>
      </trkpt>
      <trkpt lat="43.84684" lon="1.93775">
        <ele>207.6</ele>
        <time>2020-07-15T12:19:37Z</time>
      </trkpt>
      <trkpt lat="43.84681" lon="1.93777">
        <ele>207.8</ele>
        <time>2020-07-15T12:19:38Z</time>
      </trkpt>
      <trkpt lat="43.84677" lon="1.93779">
        <ele>208</ele>
        <time>2020-07-15T12:19:39Z</time>
      </trkpt>
      <trkpt lat="43.84673" lon="1.93782">
        <ele>208.2</ele>
        <time>2020-07-15T12:19:40Z</time>
      </trkpt>
      <trkpt lat="43.8467" lon="1.93784">
        <ele>208.2</ele>
        <time>2020-07-15T12:19:41Z</time>
      </trkpt>
      <trkpt lat="43.84667" lon="1.93787">
        <ele>208.4</ele>
        <time>2020-07-15T12:19:42Z</time>
      </trkpt>
      <trkpt lat="43.84663" lon="1.93789">
        <ele>208.6</ele>
        <time>2020-07-15T12:19:43Z</time>
      </trkpt>
      <trkpt lat="43.8466" lon="1.93791">
        <ele>208.8</ele>
        <time>2020-07-15T12:19:44Z</time>
      </trkpt>
      <trkpt lat="43.84657" lon="1.93793">
        <ele>209</ele>
        <time>2020-07-15T12:19:45Z</time>
      </trkpt>
      <trkpt lat="43.84654" lon="1.93796">
        <ele>209</ele>
        <time>2020-07-15T12:19:46Z</time>
      </trkpt>
      <trkpt lat="43.8465" lon="1.93798">
        <ele>209.2</ele>
        <time>2020-07-15T12:19:47Z</time>
      </trkpt>
      <trkpt lat="43.84647" lon="1.93801">
        <ele>209.2</ele>
        <time>2020-07-15T12:19:48Z</time>
      </trkpt>
      <trkpt lat="43.84644" lon="1.93803">
        <ele>209.4</ele>
        <time>2020-07-15T12:19:49Z</time>
      </trkpt>
      <trkpt lat="43.84641" lon="1.93805">
        <ele>209.8</ele>
        <time>2020-07-15T12:19:50Z</time>
      </trkpt>
      <trkpt lat="43.84638" lon="1.93807">
        <ele>210</ele>
        <time>2020-07-15T12:19:51Z</time>
      </trkpt>
      <trkpt lat="43.84635" lon="1.93809">
        <ele>210.2</ele>
        <time>2020-07-15T12:19:52Z</time>
      </trkpt>
      <trkpt lat="43.84632" lon="1.93811">
        <ele>210.2</ele>
        <time>2020-07-15T12:19:53Z</time>
      </trkpt>
      <trkpt lat="43.84629" lon="1.93813">
        <ele>210.6</ele>
        <time>2020-07-15T12:19:54Z</time>
      </trkpt>
      <trkpt lat="43.84626" lon="1.93815">
        <ele>210.8</ele>
        <time>2020-07-15T12:19:55Z</time>
      </trkpt>
      <trkpt lat="43.84623" lon="1.93817">
        <ele>211</ele>
        <time>2020-07-15T12:19:56Z</time>
      </trkpt>
      <trkpt lat="43.84621" lon="1.93819">
        <ele>211.2</ele>
        <time>2020-07-15T12:19:57Z</time>
      </trkpt>
      <trkpt lat="43.84618" lon="1.93821">
        <ele>211.4</ele>
        <time>2020-07-15T12:19:58Z</time>
      </trkpt>
      <trkpt lat="43.84615" lon="1.93823">
        <ele>211.8</ele>
        <time>2020-07-15T12:19:59Z</time>
      </trkpt>
      <trkpt lat="43.84612" lon="1.93825">
        <ele>212</ele>
        <time>2020-07-15T12:20:00Z</time>
      </trkpt>
      <trkpt lat="43.84608" lon="1.93827">
        <ele>212.2</ele>
        <time>2020-07-15T12:20:01Z</time>
      </trkpt>
      <trkpt lat="43.84604" lon="1.93828">
        <ele>212.4</ele>
        <time>2020-07-15T12:20:02Z</time>
      </trkpt>
      <trkpt lat="43.84601" lon="1.9383">
        <ele>212.4</ele>
        <time>2020-07-15T12:20:03Z</time>
      </trkpt>
      <trkpt lat="43.84597" lon="1.93832">
        <ele>212.6</ele>
        <time>2020-07-15T12:20:04Z</time>
      </trkpt>
      <trkpt lat="43.84593" lon="1.93833">
        <ele>212.8</ele>
        <time>2020-07-15T12:20:05Z</time>
      </trkpt>
      <trkpt lat="43.84589" lon="1.93835">
        <ele>212.8</ele>
        <time>2020-07-15T12:20:06Z</time>
      </trkpt>
      <trkpt lat="43.84586" lon="1.93836">
        <ele>213</ele>
        <time>2020-07-15T12:20:07Z</time>
      </trkpt>
      <trkpt lat="43.84582" lon="1.93837">
        <ele>213</ele>
        <time>2020-07-15T12:20:08Z</time>
      </trkpt>
      <trkpt lat="43.84578" lon="1.93839">
        <ele>213</ele>
        <time>2020-07-15T12:20:09Z</time>
      </trkpt>
      <trkpt lat="43.84575" lon="1.9384">
        <ele>213.2</ele>
        <time>2020-07-15T12:20:10Z</time>
      </trkpt>
      <trkpt lat="43.8457" lon="1.93841">
        <ele>213.4</ele>
        <time>2020-07-15T12:20:11Z</time>
      </trkpt>
      <trkpt lat="43.84565" lon="1.93842">
        <ele>213.4</ele>
        <time>2020-07-15T12:20:12Z</time>
      </trkpt>
      <trkpt lat="43.84561" lon="1.93843">
        <ele>213.6</ele>
        <time>2020-07-15T12:20:13Z</time>
      </trkpt>
      <trkpt lat="43.84556" lon="1.93844">
        <ele>214</ele>
        <time>2020-07-15T12:20:14Z</time>
      </trkpt>
      <trkpt lat="43.84552" lon="1.93846">
        <ele>214</ele>
        <time>2020-07-15T12:20:15Z</time>
      </trkpt>
      <trkpt lat="43.84548" lon="1.93848">
        <ele>214</ele>
        <time>2020-07-15T12:20:16Z</time>
      </trkpt>
      <trkpt lat="43.84543" lon="1.93849">
        <ele>214</ele>
        <time>2020-07-15T12:20:17Z</time>
      </trkpt>
      <trkpt lat="43.84539" lon="1.9385">
        <ele>214.2</ele>
        <time>2020-07-15T12:20:18Z</time>
      </trkpt>
      <trkpt lat="43.84535" lon="1.93851">
        <ele>214.2</ele>
        <time>2020-07-15T12:20:19Z</time>
      </trkpt>
      <trkpt lat="43.8453" lon="1.93853">
        <ele>214.4</ele>
        <time>2020-07-15T12:20:20Z</time>
      </trkpt>
      <trkpt lat="43.84525" lon="1.93854">
        <ele>214.6</ele>
        <time>2020-07-15T12:20:21Z</time>
      </trkpt>
      <trkpt lat="43.84521" lon="1.93855">
        <ele>214.8</ele>
        <time>2020-07-15T12:20:22Z</time>
      </trkpt>
      <trkpt lat="43.84516" lon="1.93857">
        <ele>214.8</ele>
        <time>2020-07-15T12:20:23Z</time>
      </trkpt>
      <trkpt lat="43.84512" lon="1.93858">
        <ele>215</ele>
        <time>2020-07-15T12:20:24Z</time>
      </trkpt>
      <trkpt lat="43.84507" lon="1.9386">
        <ele>215</ele>
        <time>2020-07-15T12:20:25Z</time>
      </trkpt>
      <trkpt lat="43.84502" lon="1.93861">
        <ele>215.2</ele>
        <time>2020-07-15T12:20:26Z</time>
      </trkpt>
      <trkpt lat="43.84498" lon="1.93863">
        <ele>215.2</ele>
        <time>2020-07-15T12:20:27Z</time>
      </trkpt>
      <trkpt lat="43.84493" lon="1.93864">
        <ele>215.4</ele>
        <time>2020-07-15T12:20:28Z</time>
      </trkpt>
      <trkpt lat="43.84488" lon="1.93866">
        <ele>215.4</ele>
        <time>2020-07-15T12:20:29Z</time>
      </trkpt>
      <trkpt lat="43.84484" lon="1.93867">
        <ele>215.6</ele>
        <time>2020-07-15T12:20:30Z</time>
      </trkpt>
      <trkpt lat="43.84479" lon="1.93868">
        <ele>215.6</ele>
        <time>2020-07-15T12:20:31Z</time>
      </trkpt>
      <trkpt lat="43.84475" lon="1.9387">
        <ele>215.6</ele>
        <time>2020-07-15T12:20:32Z</time>
      </trkpt>
      <trkpt lat="43.8447" lon="1.93872">
        <ele>215.8</ele>
        <time>2020-07-15T12:20:33Z</time>
      </trkpt>
      <trkpt lat="43.84466" lon="1.93873">
        <ele>215.8</ele>
        <time>2020-07-15T12:20:34Z</time>
      </trkpt>
      <trkpt lat="43.84462" lon="1.93875">
        <ele>216</ele>
        <time>2020-07-15T12:20:35Z</time>
      </trkpt>
      <trkpt lat="43.84458" lon="1.93876">
        <ele>216.2</ele>
        <time>2020-07-15T12:20:36Z</time>
      </trkpt>
      <trkpt lat="43.84454" lon="1.93877">
        <ele>216.2</ele>
        <time>2020-07-15T12:20:37Z</time>
      </trkpt>
      <trkpt lat="43.84449" lon="1.93878">
        <ele>216.4</ele>
        <time>2020-07-15T12:20:38Z</time>
      </trkpt>
      <trkpt lat="43.84445" lon="1.93879">
        <ele>216.6</ele>
        <time>2020-07-15T12:20:39Z</time>
      </trkpt>
      <trkpt lat="43.84441" lon="1.9388">
        <ele>216.8</ele>
        <time>2020-07-15T12:20:40Z</time>
      </trkpt>
      <trkpt lat="43.84437" lon="1.93882">
        <ele>217</ele>
        <time>2020-07-15T12:20:41Z</time>
      </trkpt>
      <trkpt lat="43.84433" lon="1.93883">
        <ele>217.2</ele>
        <time>2020-07-15T12:20:42Z</time>
      </trkpt>
      <trkpt lat="43.84429" lon="1.93884">
        <ele>217.4</ele>
        <time>2020-07-15T12:20:43Z</time>
      </trkpt>
      <trkpt lat="43.84425" lon="1.93885">
        <ele>217.6</ele>
        <time>2020-07-15T12:20:44Z</time>
      </trkpt>
      <trkpt lat="43.84411" lon="1.9389">
        <ele>218.6</ele>
        <time>2020-07-15T12:21:11Z</time>
      </trkpt>
      <trkpt lat="43.84407" lon="1.93891">
        <ele>218.6</ele>
        <time>2020-07-15T12:21:12Z</time>
      </trkpt>
      <trkpt lat="43.84404" lon="1.93892">
        <ele>218.8</ele>
        <time>2020-07-15T12:21:13Z</time>
      </trkpt>
      <trkpt lat="43.84399" lon="1.93893">
        <ele>218.8</ele>
        <time>2020-07-15T12:21:14Z</time>
      </trkpt>
      <trkpt lat="43.84396" lon="1.93894">
        <ele>219</ele>
        <time>2020-07-15T12:21:15Z</time>
      </trkpt>
      <trkpt lat="43.84392" lon="1.93896">
        <ele>219</ele>
        <time>2020-07-15T12:21:16Z</time>
      </trkpt>
      <trkpt lat="43.84388" lon="1.93898">
        <ele>219.2</ele>
        <time>2020-07-15T12:21:17Z</time>
      </trkpt>
      <trkpt lat="43.84385" lon="1.939">
        <ele>219.2</ele>
        <time>2020-07-15T12:21:18Z</time>
      </trkpt>
      <trkpt lat="43.84382" lon="1.93902">
        <ele>219.4</ele>
        <time>2020-07-15T12:21:19Z</time>
      </trkpt>
      <trkpt lat="43.84379" lon="1.93904">
        <ele>219.6</ele>
        <time>2020-07-15T12:21:20Z</time>
      </trkpt>
      <trkpt lat="43.84377" lon="1.93907">
        <ele>219.6</ele>
        <time>2020-07-15T12:21:21Z</time>
      </trkpt>
      <trkpt lat="43.84375" lon="1.9391">
        <ele>219.8</ele>
        <time>2020-07-15T12:21:22Z</time>
      </trkpt>
      <trkpt lat="43.84374" lon="1.93916">
        <ele>219.8</ele>
        <time>2020-07-15T12:21:23Z</time>
      </trkpt>
      <trkpt lat="43.84374" lon="1.93923">
        <ele>219.8</ele>
        <time>2020-07-15T12:21:24Z</time>
      </trkpt>
      <trkpt lat="43.84375" lon="1.9393">
        <ele>219.8</ele>
        <time>2020-07-15T12:21:25Z</time>
      </trkpt>
      <trkpt lat="43.84377" lon="1.93938">
        <ele>219.8</ele>
        <time>2020-07-15T12:21:26Z</time>
      </trkpt>
      <trkpt lat="43.84379" lon="1.93946">
        <ele>219.6</ele>
        <time>2020-07-15T12:21:27Z</time>
      </trkpt>
      <trkpt lat="43.8438" lon="1.93955">
        <ele>219.6</ele>
        <time>2020-07-15T12:21:28Z</time>
      </trkpt>
      <trkpt lat="43.84382" lon="1.93964">
        <ele>219.2</ele>
        <time>2020-07-15T12:21:29Z</time>
      </trkpt>
      <trkpt lat="43.84384" lon="1.93973">
        <ele>219</ele>
        <time>2020-07-15T12:21:30Z</time>
      </trkpt>
      <trkpt lat="43.84386" lon="1.93983">
        <ele>218.8</ele>
        <time>2020-07-15T12:21:31Z</time>
      </trkpt>
      <trkpt lat="43.84388" lon="1.93992">
        <ele>218.6</ele>
        <time>2020-07-15T12:21:32Z</time>
      </trkpt>
      <trkpt lat="43.8439" lon="1.94002">
        <ele>218.2</ele>
        <time>2020-07-15T12:21:33Z</time>
      </trkpt>
      <trkpt lat="43.84392" lon="1.94011">
        <ele>218</ele>
        <time>2020-07-15T12:21:34Z</time>
      </trkpt>
      <trkpt lat="43.84393" lon="1.94021">
        <ele>217.8</ele>
        <time>2020-07-15T12:21:35Z</time>
      </trkpt>
      <trkpt lat="43.84394" lon="1.9403">
        <ele>217.8</ele>
        <time>2020-07-15T12:21:36Z</time>
      </trkpt>
      <trkpt lat="43.84396" lon="1.94039">
        <ele>217.6</ele>
        <time>2020-07-15T12:21:37Z</time>
      </trkpt>
      <trkpt lat="43.84398" lon="1.94049">
        <ele>217.4</ele>
        <time>2020-07-15T12:21:38Z</time>
      </trkpt>
      <trkpt lat="43.84399" lon="1.94059">
        <ele>217.2</ele>
        <time>2020-07-15T12:21:39Z</time>
      </trkpt>
      <trkpt lat="43.84401" lon="1.94069">
        <ele>216.8</ele>
        <time>2020-07-15T12:21:40Z</time>
      </trkpt>
      <trkpt lat="43.84403" lon="1.94079">
        <ele>216.6</ele>
        <time>2020-07-15T12:21:41Z</time>
      </trkpt>
      <trkpt lat="43.84406" lon="1.94089">
        <ele>216.4</ele>
        <time>2020-07-15T12:21:42Z</time>
      </trkpt>
      <trkpt lat="43.84407" lon="1.94099">
        <ele>216</ele>
        <time>2020-07-15T12:21:43Z</time>
      </trkpt>
      <trkpt lat="43.84409" lon="1.94109">
        <ele>215.6</ele>
        <time>2020-07-15T12:21:44Z</time>
      </trkpt>
      <trkpt lat="43.84411" lon="1.94119">
        <ele>215.4</ele>
        <time>2020-07-15T12:21:45Z</time>
      </trkpt>
      <trkpt lat="43.84413" lon="1.94129">
        <ele>215</ele>
        <time>2020-07-15T12:21:46Z</time>
      </trkpt>
      <trkpt lat="43.84415" lon="1.94139">
        <ele>214.6</ele>
        <time>2020-07-15T12:21:47Z</time>
      </trkpt>
      <trkpt lat="43.84417" lon="1.94149">
        <ele>214.4</ele>
        <time>2020-07-15T12:21:48Z</time>
      </trkpt>
      <trkpt lat="43.84419" lon="1.94159">
        <ele>214.2</ele>
        <time>2020-07-15T12:21:49Z</time>
      </trkpt>
      <trkpt lat="43.84421" lon="1.94168">
        <ele>213.8</ele>
        <time>2020-07-15T12:21:50Z</time>
      </trkpt>
      <trkpt lat="43.84423" lon="1.94178">
        <ele>213.6</ele>
        <time>2020-07-15T12:21:51Z</time>
      </trkpt>
      <trkpt lat="43.84425" lon="1.94188">
        <ele>213.2</ele>
        <time>2020-07-15T12:21:52Z</time>
      </trkpt>
      <trkpt lat="43.84427" lon="1.94199">
        <ele>212.8</ele>
        <time>2020-07-15T12:21:53Z</time>
      </trkpt>
      <trkpt lat="43.84429" lon="1.94209">
        <ele>212.4</ele>
        <time>2020-07-15T12:21:54Z</time>
      </trkpt>
      <trkpt lat="43.84432" lon="1.94219">
        <ele>212</ele>
        <time>2020-07-15T12:21:55Z</time>
      </trkpt>
      <trkpt lat="43.84434" lon="1.94229">
        <ele>211.6</ele>
        <time>2020-07-15T12:21:56Z</time>
      </trkpt>
      <trkpt lat="43.84436" lon="1.94239">
        <ele>211</ele>
        <time>2020-07-15T12:21:57Z</time>
      </trkpt>
      <trkpt lat="43.84438" lon="1.94249">
        <ele>210.4</ele>
        <time>2020-07-15T12:21:58Z</time>
      </trkpt>
      <trkpt lat="43.8444" lon="1.94259">
        <ele>209.8</ele>
        <time>2020-07-15T12:21:59Z</time>
      </trkpt>
      <trkpt lat="43.84443" lon="1.94269">
        <ele>209.2</ele>
        <time>2020-07-15T12:22:00Z</time>
      </trkpt>
      <trkpt lat="43.84445" lon="1.9428">
        <ele>208.6</ele>
        <time>2020-07-15T12:22:01Z</time>
      </trkpt>
      <trkpt lat="43.84447" lon="1.94291">
        <ele>208.2</ele>
        <time>2020-07-15T12:22:02Z</time>
      </trkpt>
      <trkpt lat="43.84449" lon="1.94301">
        <ele>207.6</ele>
        <time>2020-07-15T12:22:03Z</time>
      </trkpt>
      <trkpt lat="43.84451" lon="1.94311">
        <ele>207.2</ele>
        <time>2020-07-15T12:22:04Z</time>
      </trkpt>
      <trkpt lat="43.84452" lon="1.9432">
        <ele>206.8</ele>
        <time>2020-07-15T12:22:05Z</time>
      </trkpt>
      <trkpt lat="43.84454" lon="1.94329">
        <ele>206.4</ele>
        <time>2020-07-15T12:22:06Z</time>
      </trkpt>
      <trkpt lat="43.84456" lon="1.94337">
        <ele>206.2</ele>
        <time>2020-07-15T12:22:07Z</time>
      </trkpt>
      <trkpt lat="43.84459" lon="1.94345">
        <ele>206.2</ele>
        <time>2020-07-15T12:22:08Z</time>
      </trkpt>
      <trkpt lat="43.84461" lon="1.94352">
        <ele>206.2</ele>
        <time>2020-07-15T12:22:09Z</time>
      </trkpt>
      <trkpt lat="43.84462" lon="1.94359">
        <ele>206.4</ele>
        <time>2020-07-15T12:22:10Z</time>
      </trkpt>
      <trkpt lat="43.84464" lon="1.94365">
        <ele>206.6</ele>
        <time>2020-07-15T12:22:11Z</time>
      </trkpt>
      <trkpt lat="43.84466" lon="1.94372">
        <ele>206.8</ele>
        <time>2020-07-15T12:22:12Z</time>
      </trkpt>
      <trkpt lat="43.84469" lon="1.94379">
        <ele>207</ele>
        <time>2020-07-15T12:22:13Z</time>
      </trkpt>
      <trkpt lat="43.8447" lon="1.94386">
        <ele>207.4</ele>
        <time>2020-07-15T12:22:14Z</time>
      </trkpt>
      <trkpt lat="43.84472" lon="1.94393">
        <ele>207.6</ele>
        <time>2020-07-15T12:22:15Z</time>
      </trkpt>
      <trkpt lat="43.84473" lon="1.94399">
        <ele>208</ele>
        <time>2020-07-15T12:22:16Z</time>
      </trkpt>
      <trkpt lat="43.84475" lon="1.94405">
        <ele>208.4</ele>
        <time>2020-07-15T12:22:17Z</time>
      </trkpt>
      <trkpt lat="43.84476" lon="1.94411">
        <ele>208.8</ele>
        <time>2020-07-15T12:22:18Z</time>
      </trkpt>
      <trkpt lat="43.84478" lon="1.94417">
        <ele>209.2</ele>
        <time>2020-07-15T12:22:19Z</time>
      </trkpt>
      <trkpt lat="43.84479" lon="1.94423">
        <ele>209.4</ele>
        <time>2020-07-15T12:22:20Z</time>
      </trkpt>
      <trkpt lat="43.8448" lon="1.94429">
        <ele>209.8</ele>
        <time>2020-07-15T12:22:21Z</time>
      </trkpt>
      <trkpt lat="43.84481" lon="1.94434">
        <ele>210</ele>
        <time>2020-07-15T12:22:22Z</time>
      </trkpt>
      <trkpt lat="43.84483" lon="1.9444">
        <ele>210.4</ele>
        <time>2020-07-15T12:22:23Z</time>
      </trkpt>
      <trkpt lat="43.84485" lon="1.94445">
        <ele>210.8</ele>
        <time>2020-07-15T12:22:24Z</time>
      </trkpt>
      <trkpt lat="43.84486" lon="1.9445">
        <ele>211.2</ele>
        <time>2020-07-15T12:22:25Z</time>
      </trkpt>
      <trkpt lat="43.84487" lon="1.94455">
        <ele>211.6</ele>
        <time>2020-07-15T12:22:26Z</time>
      </trkpt>
      <trkpt lat="43.84488" lon="1.9446">
        <ele>212</ele>
        <time>2020-07-15T12:22:27Z</time>
      </trkpt>
      <trkpt lat="43.84489" lon="1.94465">
        <ele>212.4</ele>
        <time>2020-07-15T12:22:28Z</time>
      </trkpt>
      <trkpt lat="43.8449" lon="1.94469">
        <ele>212.8</ele>
        <time>2020-07-15T12:22:29Z</time>
      </trkpt>
      <trkpt lat="43.84491" lon="1.94472">
        <ele>213.2</ele>
        <time>2020-07-15T12:22:30Z</time>
      </trkpt>
      <trkpt lat="43.84492" lon="1.94475">
        <ele>213.6</ele>
        <time>2020-07-15T12:22:31Z</time>
      </trkpt>
      <trkpt lat="43.84493" lon="1.94477">
        <ele>214</ele>
        <time>2020-07-15T12:22:32Z</time>
      </trkpt>
      <trkpt lat="43.84493" lon="1.9448">
        <ele>214.4</ele>
        <time>2020-07-15T12:22:33Z</time>
      </trkpt>
      <trkpt lat="43.84491" lon="1.94483">
        <ele>214.8</ele>
        <time>2020-07-15T12:22:34Z</time>
      </trkpt>
      <trkpt lat="43.84489" lon="1.94486">
        <ele>215</ele>
        <time>2020-07-15T12:22:35Z</time>
      </trkpt>
      <trkpt lat="43.84487" lon="1.94489">
        <ele>215.4</ele>
        <time>2020-07-15T12:22:36Z</time>
      </trkpt>
      <trkpt lat="43.84485" lon="1.94492">
        <ele>215.6</ele>
        <time>2020-07-15T12:22:37Z</time>
      </trkpt>
      <trkpt lat="43.84483" lon="1.94495">
        <ele>216</ele>
        <time>2020-07-15T12:22:38Z</time>
      </trkpt>
      <trkpt lat="43.84481" lon="1.94498">
        <ele>216.2</ele>
        <time>2020-07-15T12:22:39Z</time>
      </trkpt>
      <trkpt lat="43.84478" lon="1.94502">
        <ele>216.4</ele>
        <time>2020-07-15T12:22:40Z</time>
      </trkpt>
      <trkpt lat="43.84476" lon="1.94505">
        <ele>216.6</ele>
        <time>2020-07-15T12:22:41Z</time>
      </trkpt>
      <trkpt lat="43.84473" lon="1.94508">
        <ele>217</ele>
        <time>2020-07-15T12:22:42Z</time>
      </trkpt>
      <trkpt lat="43.84471" lon="1.94511">
        <ele>217.2</ele>
        <time>2020-07-15T12:22:43Z</time>
      </trkpt>
      <trkpt lat="43.84468" lon="1.94514">
        <ele>217.4</ele>
        <time>2020-07-15T12:22:44Z</time>
      </trkpt>
      <trkpt lat="43.84466" lon="1.94517">
        <ele>217.8</ele>
        <time>2020-07-15T12:22:45Z</time>
      </trkpt>
      <trkpt lat="43.84464" lon="1.9452">
        <ele>218</ele>
        <time>2020-07-15T12:22:46Z</time>
      </trkpt>
      <trkpt lat="43.84461" lon="1.94523">
        <ele>218.2</ele>
        <time>2020-07-15T12:22:47Z</time>
      </trkpt>
      <trkpt lat="43.84459" lon="1.94526">
        <ele>218.6</ele>
        <time>2020-07-15T12:22:48Z</time>
      </trkpt>
      <trkpt lat="43.84457" lon="1.94529">
        <ele>219</ele>
        <time>2020-07-15T12:22:49Z</time>
      </trkpt>
      <trkpt lat="43.84454" lon="1.94532">
        <ele>219.2</ele>
        <time>2020-07-15T12:22:50Z</time>
      </trkpt>
      <trkpt lat="43.84452" lon="1.94536">
        <ele>219.6</ele>
        <time>2020-07-15T12:22:51Z</time>
      </trkpt>
      <trkpt lat="43.8445" lon="1.94539">
        <ele>220</ele>
        <time>2020-07-15T12:22:52Z</time>
      </trkpt>
      <trkpt lat="43.84448" lon="1.94542">
        <ele>220.2</ele>
        <time>2020-07-15T12:22:53Z</time>
      </trkpt>
      <trkpt lat="43.84445" lon="1.94545">
        <ele>220.6</ele>
        <time>2020-07-15T12:22:54Z</time>
      </trkpt>
      <trkpt lat="43.84443" lon="1.94548">
        <ele>221</ele>
        <time>2020-07-15T12:22:55Z</time>
      </trkpt>
      <trkpt lat="43.8444" lon="1.94551">
        <ele>221.2</ele>
        <time>2020-07-15T12:22:56Z</time>
      </trkpt>
      <trkpt lat="43.84438" lon="1.94554">
        <ele>221.6</ele>
        <time>2020-07-15T12:22:57Z</time>
      </trkpt>
      <trkpt lat="43.84436" lon="1.94557">
        <ele>222</ele>
        <time>2020-07-15T12:22:58Z</time>
      </trkpt>
      <trkpt lat="43.84434" lon="1.94561">
        <ele>222.2</ele>
        <time>2020-07-15T12:22:59Z</time>
      </trkpt>
      <trkpt lat="43.84432" lon="1.94564">
        <ele>222.6</ele>
        <time>2020-07-15T12:23:00Z</time>
      </trkpt>
      <trkpt lat="43.84429" lon="1.94568">
        <ele>223</ele>
        <time>2020-07-15T12:23:01Z</time>
      </trkpt>
      <trkpt lat="43.84427" lon="1.94571">
        <ele>223.2</ele>
        <time>2020-07-15T12:23:02Z</time>
      </trkpt>
      <trkpt lat="43.84425" lon="1.94574">
        <ele>223.6</ele>
        <time>2020-07-15T12:23:03Z</time>
      </trkpt>
      <trkpt lat="43.84423" lon="1.94578">
        <ele>224</ele>
        <time>2020-07-15T12:23:04Z</time>
      </trkpt>
      <trkpt lat="43.84421" lon="1.94581">
        <ele>224.2</ele>
        <time>2020-07-15T12:23:05Z</time>
      </trkpt>
      <trkpt lat="43.84419" lon="1.94585">
        <ele>224.6</ele>
        <time>2020-07-15T12:23:06Z</time>
      </trkpt>
      <trkpt lat="43.84417" lon="1.94588">
        <ele>225</ele>
        <time>2020-07-15T12:23:07Z</time>
      </trkpt>
      <trkpt lat="43.84416" lon="1.94592">
        <ele>225.2</ele>
        <time>2020-07-15T12:23:08Z</time>
      </trkpt>
      <trkpt lat="43.84414" lon="1.94595">
        <ele>225.6</ele>
        <time>2020-07-15T12:23:09Z</time>
      </trkpt>
      <trkpt lat="43.84412" lon="1.94599">
        <ele>226</ele>
        <time>2020-07-15T12:23:10Z</time>
      </trkpt>
      <trkpt lat="43.84411" lon="1.94603">
        <ele>226.2</ele>
        <time>2020-07-15T12:23:11Z</time>
      </trkpt>
      <trkpt lat="43.84409" lon="1.94607">
        <ele>226.6</ele>
        <time>2020-07-15T12:23:12Z</time>
      </trkpt>
      <trkpt lat="43.84408" lon="1.9461">
        <ele>226.8</ele>
        <time>2020-07-15T12:23:13Z</time>
      </trkpt>
      <trkpt lat="43.84407" lon="1.94614">
        <ele>227.2</ele>
        <time>2020-07-15T12:23:14Z</time>
      </trkpt>
      <trkpt lat="43.84405" lon="1.94618">
        <ele>227.4</ele>
        <time>2020-07-15T12:23:15Z</time>
      </trkpt>
      <trkpt lat="43.84404" lon="1.94622">
        <ele>227.8</ele>
        <time>2020-07-15T12:23:16Z</time>
      </trkpt>
      <trkpt lat="43.84403" lon="1.94627">
        <ele>228.2</ele>
        <time>2020-07-15T12:23:17Z</time>
      </trkpt>
      <trkpt lat="43.84401" lon="1.94631">
        <ele>228.4</ele>
        <time>2020-07-15T12:23:18Z</time>
      </trkpt>
      <trkpt lat="43.844" lon="1.94635">
        <ele>228.8</ele>
        <time>2020-07-15T12:23:19Z</time>
      </trkpt>
      <trkpt lat="43.84399" lon="1.9464">
        <ele>229.2</ele>
        <time>2020-07-15T12:23:20Z</time>
      </trkpt>
      <trkpt lat="43.84398" lon="1.94644">
        <ele>229.4</ele>
        <time>2020-07-15T12:23:21Z</time>
      </trkpt>
      <trkpt lat="43.84397" lon="1.94649">
        <ele>229.8</ele>
        <time>2020-07-15T12:23:22Z</time>
      </trkpt>
      <trkpt lat="43.84396" lon="1.94654">
        <ele>230.2</ele>
        <time>2020-07-15T12:23:23Z</time>
      </trkpt>
      <trkpt lat="43.84395" lon="1.94659">
        <ele>230.6</ele>
        <time>2020-07-15T12:23:24Z</time>
      </trkpt>
      <trkpt lat="43.84393" lon="1.94664">
        <ele>230.8</ele>
        <time>2020-07-15T12:23:25Z</time>
      </trkpt>
      <trkpt lat="43.84393" lon="1.9467">
        <ele>231.2</ele>
        <time>2020-07-15T12:23:26Z</time>
      </trkpt>
      <trkpt lat="43.84391" lon="1.94675">
        <ele>231.6</ele>
        <time>2020-07-15T12:23:27Z</time>
      </trkpt>
      <trkpt lat="43.8439" lon="1.94681">
        <ele>232</ele>
        <time>2020-07-15T12:23:28Z</time>
      </trkpt>
      <trkpt lat="43.84389" lon="1.94686">
        <ele>232.2</ele>
        <time>2020-07-15T12:23:29Z</time>
      </trkpt>
      <trkpt lat="43.84388" lon="1.94692">
        <ele>232.6</ele>
        <time>2020-07-15T12:23:30Z</time>
      </trkpt>
      <trkpt lat="43.84386" lon="1.94698">
        <ele>233</ele>
        <time>2020-07-15T12:23:31Z</time>
      </trkpt>
      <trkpt lat="43.84385" lon="1.94703">
        <ele>233.4</ele>
        <time>2020-07-15T12:23:32Z</time>
      </trkpt>
      <trkpt lat="43.84384" lon="1.94709">
        <ele>233.6</ele>
        <time>2020-07-15T12:23:33Z</time>
      </trkpt>
      <trkpt lat="43.84383" lon="1.94715">
        <ele>234</ele>
        <time>2020-07-15T12:23:34Z</time>
      </trkpt>
      <trkpt lat="43.84382" lon="1.9472">
        <ele>234.2</ele>
        <time>2020-07-15T12:23:35Z</time>
      </trkpt>
      <trkpt lat="43.84381" lon="1.94726">
        <ele>234.6</ele>
        <time>2020-07-15T12:23:36Z</time>
      </trkpt>
      <trkpt lat="43.8438" lon="1.94732">
        <ele>234.8</ele>
        <time>2020-07-15T12:23:37Z</time>
      </trkpt>
      <trkpt lat="43.84379" lon="1.94737">
        <ele>235.2</ele>
        <time>2020-07-15T12:23:38Z</time>
      </trkpt>
      <trkpt lat="43.84378" lon="1.94742">
        <ele>235.6</ele>
        <time>2020-07-15T12:23:39Z</time>
      </trkpt>
      <trkpt lat="43.84377" lon="1.94748">
        <ele>235.8</ele>
        <time>2020-07-15T12:23:40Z</time>
      </trkpt>
      <trkpt lat="43.84376" lon="1.94753">
        <ele>236.2</ele>
        <time>2020-07-15T12:23:41Z</time>
      </trkpt>
      <trkpt lat="43.84375" lon="1.94759">
        <ele>236.6</ele>
        <time>2020-07-15T12:23:42Z</time>
      </trkpt>
      <trkpt lat="43.84374" lon="1.94764">
        <ele>237</ele>
        <time>2020-07-15T12:23:43Z</time>
      </trkpt>
      <trkpt lat="43.84374" lon="1.9477">
        <ele>237.4</ele>
        <time>2020-07-15T12:23:44Z</time>
      </trkpt>
      <trkpt lat="43.84372" lon="1.94775">
        <ele>237.8</ele>
        <time>2020-07-15T12:23:45Z</time>
      </trkpt>
      <trkpt lat="43.84371" lon="1.94781">
        <ele>238.2</ele>
        <time>2020-07-15T12:23:46Z</time>
      </trkpt>
      <trkpt lat="43.8437" lon="1.94787">
        <ele>238.6</ele>
        <time>2020-07-15T12:23:47Z</time>
      </trkpt>
      <trkpt lat="43.84369" lon="1.94792">
        <ele>239</ele>
        <time>2020-07-15T12:23:48Z</time>
      </trkpt>
      <trkpt lat="43.84368" lon="1.94798">
        <ele>239.4</ele>
        <time>2020-07-15T12:23:49Z</time>
      </trkpt>
      <trkpt lat="43.84367" lon="1.94803">
        <ele>239.8</ele>
        <time>2020-07-15T12:23:50Z</time>
      </trkpt>
      <trkpt lat="43.84366" lon="1.94809">
        <ele>240.2</ele>
        <time>2020-07-15T12:23:51Z</time>
      </trkpt>
      <trkpt lat="43.84364" lon="1.94814">
        <ele>240.6</ele>
        <time>2020-07-15T12:23:52Z</time>
      </trkpt>
      <trkpt lat="43.84363" lon="1.94819">
        <ele>241</ele>
        <time>2020-07-15T12:23:53Z</time>
      </trkpt>
      <trkpt lat="43.84361" lon="1.94823">
        <ele>241.6</ele>
        <time>2020-07-15T12:23:54Z</time>
      </trkpt>
      <trkpt lat="43.84359" lon="1.94828">
        <ele>242</ele>
        <time>2020-07-15T12:23:55Z</time>
      </trkpt>
      <trkpt lat="43.84357" lon="1.94832">
        <ele>242.6</ele>
        <time>2020-07-15T12:23:56Z</time>
      </trkpt>
      <trkpt lat="43.84354" lon="1.94836">
        <ele>243</ele>
        <time>2020-07-15T12:23:57Z</time>
      </trkpt>
      <trkpt lat="43.84352" lon="1.94841">
        <ele>243.6</ele>
        <time>2020-07-15T12:23:58Z</time>
      </trkpt>
      <trkpt lat="43.8435" lon="1.94845">
        <ele>244.2</ele>
        <time>2020-07-15T12:23:59Z</time>
      </trkpt>
      <trkpt lat="43.84348" lon="1.94849">
        <ele>244.6</ele>
        <time>2020-07-15T12:24:00Z</time>
      </trkpt>
      <trkpt lat="43.84346" lon="1.94853">
        <ele>245.2</ele>
        <time>2020-07-15T12:24:01Z</time>
      </trkpt>
      <trkpt lat="43.84344" lon="1.94858">
        <ele>245.8</ele>
        <time>2020-07-15T12:24:02Z</time>
      </trkpt>
      <trkpt lat="43.84341" lon="1.94862">
        <ele>246.2</ele>
        <time>2020-07-15T12:24:03Z</time>
      </trkpt>
      <trkpt lat="43.8434" lon="1.94866">
        <ele>246.8</ele>
        <time>2020-07-15T12:24:04Z</time>
      </trkpt>
      <trkpt lat="43.84337" lon="1.94871">
        <ele>247.2</ele>
        <time>2020-07-15T12:24:05Z</time>
      </trkpt>
      <trkpt lat="43.84335" lon="1.94875">
        <ele>247.8</ele>
        <time>2020-07-15T12:24:06Z</time>
      </trkpt>
      <trkpt lat="43.84332" lon="1.9488">
        <ele>248.2</ele>
        <time>2020-07-15T12:24:07Z</time>
      </trkpt>
      <trkpt lat="43.8433" lon="1.94885">
        <ele>248.6</ele>
        <time>2020-07-15T12:24:08Z</time>
      </trkpt>
      <trkpt lat="43.84327" lon="1.94889">
        <ele>249</ele>
        <time>2020-07-15T12:24:09Z</time>
      </trkpt>
      <trkpt lat="43.84325" lon="1.94894">
        <ele>249.4</ele>
        <time>2020-07-15T12:24:10Z</time>
      </trkpt>
      <trkpt lat="43.84324" lon="1.94898">
        <ele>249.8</ele>
        <time>2020-07-15T12:24:11Z</time>
      </trkpt>
      <trkpt lat="43.84321" lon="1.94903">
        <ele>250</ele>
        <time>2020-07-15T12:24:12Z</time>
      </trkpt>
      <trkpt lat="43.84319" lon="1.94907">
        <ele>250.4</ele>
        <time>2020-07-15T12:24:13Z</time>
      </trkpt>
      <trkpt lat="43.84317" lon="1.94912">
        <ele>250.6</ele>
        <time>2020-07-15T12:24:14Z</time>
      </trkpt>
      <trkpt lat="43.84315" lon="1.94917">
        <ele>250.8</ele>
        <time>2020-07-15T12:24:15Z</time>
      </trkpt>
      <trkpt lat="43.84314" lon="1.94922">
        <ele>251.2</ele>
        <time>2020-07-15T12:24:16Z</time>
      </trkpt>
      <trkpt lat="43.84312" lon="1.94927">
        <ele>251.4</ele>
        <time>2020-07-15T12:24:17Z</time>
      </trkpt>
      <trkpt lat="43.8431" lon="1.94931">
        <ele>251.6</ele>
        <time>2020-07-15T12:24:18Z</time>
      </trkpt>
      <trkpt lat="43.84309" lon="1.94936">
        <ele>251.8</ele>
        <time>2020-07-15T12:24:19Z</time>
      </trkpt>
      <trkpt lat="43.84307" lon="1.94941">
        <ele>252</ele>
        <time>2020-07-15T12:24:20Z</time>
      </trkpt>
      <trkpt lat="43.84305" lon="1.94946">
        <ele>252.2</ele>
        <time>2020-07-15T12:24:21Z</time>
      </trkpt>
      <trkpt lat="43.84304" lon="1.9495">
        <ele>252.2</ele>
        <time>2020-07-15T12:24:22Z</time>
      </trkpt>
      <trkpt lat="43.84302" lon="1.94956">
        <ele>252.2</ele>
        <time>2020-07-15T12:24:23Z</time>
      </trkpt>
      <trkpt lat="43.843" lon="1.94962">
        <ele>252</ele>
        <time>2020-07-15T12:24:24Z</time>
      </trkpt>
      <trkpt lat="43.84298" lon="1.94968">
        <ele>251.8</ele>
        <time>2020-07-15T12:24:25Z</time>
      </trkpt>
      <trkpt lat="43.84296" lon="1.94975">
        <ele>251.4</ele>
        <time>2020-07-15T12:24:26Z</time>
      </trkpt>
      <trkpt lat="43.84293" lon="1.94984">
        <ele>250.8</ele>
        <time>2020-07-15T12:24:27Z</time>
      </trkpt>
      <trkpt lat="43.8429" lon="1.94992">
        <ele>250.2</ele>
        <time>2020-07-15T12:24:28Z</time>
      </trkpt>
      <trkpt lat="43.84286" lon="1.95">
        <ele>249.6</ele>
        <time>2020-07-15T12:24:29Z</time>
      </trkpt>
      <trkpt lat="43.84281" lon="1.95008">
        <ele>248.8</ele>
        <time>2020-07-15T12:24:30Z</time>
      </trkpt>
      <trkpt lat="43.84277" lon="1.95014">
        <ele>248.2</ele>
        <time>2020-07-15T12:24:31Z</time>
      </trkpt>
      <trkpt lat="43.84274" lon="1.95019">
        <ele>247.6</ele>
        <time>2020-07-15T12:24:32Z</time>
      </trkpt>
      <trkpt lat="43.84273" lon="1.95023">
        <ele>247</ele>
        <time>2020-07-15T12:24:33Z</time>
      </trkpt>
      <trkpt lat="43.84274" lon="1.95028">
        <ele>246.6</ele>
        <time>2020-07-15T12:24:34Z</time>
      </trkpt>
      <trkpt lat="43.84278" lon="1.95031">
        <ele>246.4</ele>
        <time>2020-07-15T12:24:35Z</time>
      </trkpt>
      <trkpt lat="43.84282" lon="1.95034">
        <ele>246.2</ele>
        <time>2020-07-15T12:24:36Z</time>
      </trkpt>
      <trkpt lat="43.84286" lon="1.95037">
        <ele>246</ele>
        <time>2020-07-15T12:24:37Z</time>
      </trkpt>
      <trkpt lat="43.84291" lon="1.9504">
        <ele>245.8</ele>
        <time>2020-07-15T12:24:38Z</time>
      </trkpt>
      <trkpt lat="43.84296" lon="1.95043">
        <ele>245.8</ele>
        <time>2020-07-15T12:24:39Z</time>
      </trkpt>
      <trkpt lat="43.84301" lon="1.95047">
        <ele>245.6</ele>
        <time>2020-07-15T12:24:40Z</time>
      </trkpt>
      <trkpt lat="43.84306" lon="1.9505">
        <ele>245.6</ele>
        <time>2020-07-15T12:24:41Z</time>
      </trkpt>
      <trkpt lat="43.8431" lon="1.95054">
        <ele>245.6</ele>
        <time>2020-07-15T12:24:42Z</time>
      </trkpt>
      <trkpt lat="43.84316" lon="1.95058">
        <ele>245.6</ele>
        <time>2020-07-15T12:24:43Z</time>
      </trkpt>
      <trkpt lat="43.84321" lon="1.95061">
        <ele>245.6</ele>
        <time>2020-07-15T12:24:44Z</time>
      </trkpt>
      <trkpt lat="43.84326" lon="1.95065">
        <ele>245.4</ele>
        <time>2020-07-15T12:24:45Z</time>
      </trkpt>
      <trkpt lat="43.84332" lon="1.95068">
        <ele>245.2</ele>
        <time>2020-07-15T12:24:46Z</time>
      </trkpt>
      <trkpt lat="43.84338" lon="1.95072">
        <ele>245.2</ele>
        <time>2020-07-15T12:24:47Z</time>
      </trkpt>
      <trkpt lat="43.84343" lon="1.95076">
        <ele>245</ele>
        <time>2020-07-15T12:24:48Z</time>
      </trkpt>
      <trkpt lat="43.84349" lon="1.9508">
        <ele>245</ele>
        <time>2020-07-15T12:24:49Z</time>
      </trkpt>
      <trkpt lat="43.84355" lon="1.95084">
        <ele>244.8</ele>
        <time>2020-07-15T12:24:50Z</time>
      </trkpt>
      <trkpt lat="43.84361" lon="1.95087">
        <ele>244.6</ele>
        <time>2020-07-15T12:24:51Z</time>
      </trkpt>
      <trkpt lat="43.84367" lon="1.9509">
        <ele>244.4</ele>
        <time>2020-07-15T12:24:52Z</time>
      </trkpt>
      <trkpt lat="43.84374" lon="1.95092">
        <ele>244.2</ele>
        <time>2020-07-15T12:24:53Z</time>
      </trkpt>
      <trkpt lat="43.84381" lon="1.95093">
        <ele>244</ele>
        <time>2020-07-15T12:24:54Z</time>
      </trkpt>
      <trkpt lat="43.84387" lon="1.95094">
        <ele>243.8</ele>
        <time>2020-07-15T12:24:55Z</time>
      </trkpt>
      <trkpt lat="43.84393" lon="1.95094">
        <ele>243.8</ele>
        <time>2020-07-15T12:24:56Z</time>
      </trkpt>
      <trkpt lat="43.844" lon="1.95094">
        <ele>243.6</ele>
        <time>2020-07-15T12:24:57Z</time>
      </trkpt>
      <trkpt lat="43.84406" lon="1.95093">
        <ele>243.4</ele>
        <time>2020-07-15T12:24:58Z</time>
      </trkpt>
      <trkpt lat="43.84412" lon="1.95092">
        <ele>243.2</ele>
        <time>2020-07-15T12:24:59Z</time>
      </trkpt>
      <trkpt lat="43.84417" lon="1.9509">
        <ele>243.4</ele>
        <time>2020-07-15T12:25:00Z</time>
      </trkpt>
      <trkpt lat="43.84421" lon="1.95089">
        <ele>243.4</ele>
        <time>2020-07-15T12:25:01Z</time>
      </trkpt>
      <trkpt lat="43.84425" lon="1.95089">
        <ele>243.6</ele>
        <time>2020-07-15T12:25:02Z</time>
      </trkpt>
      <trkpt lat="43.84427" lon="1.95088">
        <ele>243.6</ele>
        <time>2020-07-15T12:25:03Z</time>
      </trkpt>
      <trkpt lat="43.84429" lon="1.95089">
        <ele>243.8</ele>
        <time>2020-07-15T12:25:04Z</time>
      </trkpt>
      <trkpt lat="43.8443" lon="1.95089">
        <ele>243.8</ele>
        <time>2020-07-15T12:25:05Z</time>
      </trkpt>
      <trkpt lat="43.84431" lon="1.95092">
        <ele>243.8</ele>
        <time>2020-07-15T12:25:06Z</time>
      </trkpt>
      <trkpt lat="43.84432" lon="1.95094">
        <ele>243.6</ele>
        <time>2020-07-15T12:25:07Z</time>
      </trkpt>
      <trkpt lat="43.84433" lon="1.95098">
        <ele>243.4</ele>
        <time>2020-07-15T12:25:08Z</time>
      </trkpt>
      <trkpt lat="43.84436" lon="1.95102">
        <ele>243.2</ele>
        <time>2020-07-15T12:25:09Z</time>
      </trkpt>
      <trkpt lat="43.84439" lon="1.95106">
        <ele>242.8</ele>
        <time>2020-07-15T12:25:10Z</time>
      </trkpt>
      <trkpt lat="43.84443" lon="1.95111">
        <ele>242.6</ele>
        <time>2020-07-15T12:25:11Z</time>
      </trkpt>
      <trkpt lat="43.84446" lon="1.95117">
        <ele>242.2</ele>
        <time>2020-07-15T12:25:12Z</time>
      </trkpt>
      <trkpt lat="43.8445" lon="1.95123">
        <ele>241.6</ele>
        <time>2020-07-15T12:25:13Z</time>
      </trkpt>
      <trkpt lat="43.84454" lon="1.9513">
        <ele>241.2</ele>
        <time>2020-07-15T12:25:14Z</time>
      </trkpt>
      <trkpt lat="43.84458" lon="1.95137">
        <ele>240.8</ele>
        <time>2020-07-15T12:25:15Z</time>
      </trkpt>
      <trkpt lat="43.84462" lon="1.95146">
        <ele>240.4</ele>
        <time>2020-07-15T12:25:16Z</time>
      </trkpt>
      <trkpt lat="43.84466" lon="1.95154">
        <ele>239.8</ele>
        <time>2020-07-15T12:25:17Z</time>
      </trkpt>
      <trkpt lat="43.84471" lon="1.95163">
        <ele>239.2</ele>
        <time>2020-07-15T12:25:18Z</time>
      </trkpt>
      <trkpt lat="43.84477" lon="1.95172">
        <ele>238.4</ele>
        <time>2020-07-15T12:25:19Z</time>
      </trkpt>
      <trkpt lat="43.84483" lon="1.95181">
        <ele>237.6</ele>
        <time>2020-07-15T12:25:20Z</time>
      </trkpt>
      <trkpt lat="43.84489" lon="1.95191">
        <ele>236.8</ele>
        <time>2020-07-15T12:25:21Z</time>
      </trkpt>
      <trkpt lat="43.84497" lon="1.95199">
        <ele>236.2</ele>
        <time>2020-07-15T12:25:22Z</time>
      </trkpt>
      <trkpt lat="43.84504" lon="1.95208">
        <ele>235.2</ele>
        <time>2020-07-15T12:25:23Z</time>
      </trkpt>
      <trkpt lat="43.84513" lon="1.95216">
        <ele>234.2</ele>
        <time>2020-07-15T12:25:24Z</time>
      </trkpt>
      <trkpt lat="43.84521" lon="1.95223">
        <ele>233.4</ele>
        <time>2020-07-15T12:25:25Z</time>
      </trkpt>
      <trkpt lat="43.84529" lon="1.9523">
        <ele>232.6</ele>
        <time>2020-07-15T12:25:26Z</time>
      </trkpt>
      <trkpt lat="43.84537" lon="1.95237">
        <ele>232</ele>
        <time>2020-07-15T12:25:27Z</time>
      </trkpt>
      <trkpt lat="43.84545" lon="1.95245">
        <ele>231.6</ele>
        <time>2020-07-15T12:25:28Z</time>
      </trkpt>
      <trkpt lat="43.84552" lon="1.95254">
        <ele>231</ele>
        <time>2020-07-15T12:25:29Z</time>
      </trkpt>
      <trkpt lat="43.8456" lon="1.95262">
        <ele>230.2</ele>
        <time>2020-07-15T12:25:30Z</time>
      </trkpt>
      <trkpt lat="43.84568" lon="1.95271">
        <ele>229.2</ele>
        <time>2020-07-15T12:25:31Z</time>
      </trkpt>
      <trkpt lat="43.84576" lon="1.95279">
        <ele>228</ele>
        <time>2020-07-15T12:25:32Z</time>
      </trkpt>
      <trkpt lat="43.84584" lon="1.95287">
        <ele>227</ele>
        <time>2020-07-15T12:25:33Z</time>
      </trkpt>
      <trkpt lat="43.84591" lon="1.95296">
        <ele>226.2</ele>
        <time>2020-07-15T12:25:34Z</time>
      </trkpt>
      <trkpt lat="43.84597" lon="1.95306">
        <ele>225.4</ele>
        <time>2020-07-15T12:25:35Z</time>
      </trkpt>
      <trkpt lat="43.84602" lon="1.95316">
        <ele>224.6</ele>
        <time>2020-07-15T12:25:36Z</time>
      </trkpt>
      <trkpt lat="43.84606" lon="1.95329">
        <ele>223.4</ele>
        <time>2020-07-15T12:25:37Z</time>
      </trkpt>
      <trkpt lat="43.84611" lon="1.95342">
        <ele>222.6</ele>
        <time>2020-07-15T12:25:38Z</time>
      </trkpt>
      <trkpt lat="43.84616" lon="1.95355">
        <ele>221.8</ele>
        <time>2020-07-15T12:25:39Z</time>
      </trkpt>
      <trkpt lat="43.84622" lon="1.95368">
        <ele>221</ele>
        <time>2020-07-15T12:25:40Z</time>
      </trkpt>
      <trkpt lat="43.84628" lon="1.95381">
        <ele>220.2</ele>
        <time>2020-07-15T12:25:41Z</time>
      </trkpt>
      <trkpt lat="43.84634" lon="1.95393">
        <ele>219.4</ele>
        <time>2020-07-15T12:25:42Z</time>
      </trkpt>
      <trkpt lat="43.84639" lon="1.95407">
        <ele>218.2</ele>
        <time>2020-07-15T12:25:43Z</time>
      </trkpt>
      <trkpt lat="43.84646" lon="1.9542">
        <ele>217.2</ele>
        <time>2020-07-15T12:25:44Z</time>
      </trkpt>
      <trkpt lat="43.84651" lon="1.95433">
        <ele>216.4</ele>
        <time>2020-07-15T12:25:45Z</time>
      </trkpt>
      <trkpt lat="43.84656" lon="1.95446">
        <ele>215.6</ele>
        <time>2020-07-15T12:25:46Z</time>
      </trkpt>
      <trkpt lat="43.84661" lon="1.95457">
        <ele>214.6</ele>
        <time>2020-07-15T12:25:47Z</time>
      </trkpt>
      <trkpt lat="43.84667" lon="1.95468">
        <ele>214</ele>
        <time>2020-07-15T12:25:48Z</time>
      </trkpt>
      <trkpt lat="43.84672" lon="1.95479">
        <ele>213.2</ele>
        <time>2020-07-15T12:25:49Z</time>
      </trkpt>
      <trkpt lat="43.84678" lon="1.95488">
        <ele>212.8</ele>
        <time>2020-07-15T12:25:50Z</time>
      </trkpt>
      <trkpt lat="43.84682" lon="1.95497">
        <ele>212</ele>
        <time>2020-07-15T12:25:51Z</time>
      </trkpt>
      <trkpt lat="43.84687" lon="1.95505">
        <ele>211.6</ele>
        <time>2020-07-15T12:25:52Z</time>
      </trkpt>
      <trkpt lat="43.84691" lon="1.95511">
        <ele>211</ele>
        <time>2020-07-15T12:25:53Z</time>
      </trkpt>
      <trkpt lat="43.84693" lon="1.95516">
        <ele>210.4</ele>
        <time>2020-07-15T12:25:54Z</time>
      </trkpt>
      <trkpt lat="43.84694" lon="1.95521">
        <ele>210</ele>
        <time>2020-07-15T12:25:55Z</time>
      </trkpt>
      <trkpt lat="43.84693" lon="1.95526">
        <ele>209.4</ele>
        <time>2020-07-15T12:25:56Z</time>
      </trkpt>
      <trkpt lat="43.8469" lon="1.9553">
        <ele>209.2</ele>
        <time>2020-07-15T12:25:57Z</time>
      </trkpt>
      <trkpt lat="43.84686" lon="1.95534">
        <ele>209</ele>
        <time>2020-07-15T12:25:58Z</time>
      </trkpt>
      <trkpt lat="43.84681" lon="1.95539">
        <ele>208.6</ele>
        <time>2020-07-15T12:25:59Z</time>
      </trkpt>
      <trkpt lat="43.84676" lon="1.95544">
        <ele>208.4</ele>
        <time>2020-07-15T12:26:00Z</time>
      </trkpt>
      <trkpt lat="43.84671" lon="1.9555">
        <ele>208.2</ele>
        <time>2020-07-15T12:26:01Z</time>
      </trkpt>
      <trkpt lat="43.84667" lon="1.95555">
        <ele>208.2</ele>
        <time>2020-07-15T12:26:02Z</time>
      </trkpt>
      <trkpt lat="43.84662" lon="1.95561">
        <ele>208</ele>
        <time>2020-07-15T12:26:03Z</time>
      </trkpt>
      <trkpt lat="43.84657" lon="1.95567">
        <ele>208</ele>
        <time>2020-07-15T12:26:04Z</time>
      </trkpt>
      <trkpt lat="43.84654" lon="1.95573">
        <ele>208</ele>
        <time>2020-07-15T12:26:05Z</time>
      </trkpt>
      <trkpt lat="43.84649" lon="1.95579">
        <ele>208</ele>
        <time>2020-07-15T12:26:06Z</time>
      </trkpt>
      <trkpt lat="43.84646" lon="1.95585">
        <ele>208</ele>
        <time>2020-07-15T12:26:07Z</time>
      </trkpt>
      <trkpt lat="43.84642" lon="1.95591">
        <ele>208</ele>
        <time>2020-07-15T12:26:08Z</time>
      </trkpt>
      <trkpt lat="43.84639" lon="1.95598">
        <ele>208</ele>
        <time>2020-07-15T12:26:09Z</time>
      </trkpt>
      <trkpt lat="43.84635" lon="1.95605">
        <ele>208.2</ele>
        <time>2020-07-15T12:26:10Z</time>
      </trkpt>
      <trkpt lat="43.84632" lon="1.95611">
        <ele>208.2</ele>
        <time>2020-07-15T12:26:11Z</time>
      </trkpt>
      <trkpt lat="43.84629" lon="1.95618">
        <ele>208.6</ele>
        <time>2020-07-15T12:26:12Z</time>
      </trkpt>
      <trkpt lat="43.84626" lon="1.95624">
        <ele>208.8</ele>
        <time>2020-07-15T12:26:13Z</time>
      </trkpt>
      <trkpt lat="43.84623" lon="1.95631">
        <ele>208.8</ele>
        <time>2020-07-15T12:26:14Z</time>
      </trkpt>
      <trkpt lat="43.84619" lon="1.95638">
        <ele>209</ele>
        <time>2020-07-15T12:26:15Z</time>
      </trkpt>
      <trkpt lat="43.84616" lon="1.95644">
        <ele>209</ele>
        <time>2020-07-15T12:26:16Z</time>
      </trkpt>
      <trkpt lat="43.84613" lon="1.95651">
        <ele>209.2</ele>
        <time>2020-07-15T12:26:17Z</time>
      </trkpt>
      <trkpt lat="43.84611" lon="1.95658">
        <ele>209.4</ele>
        <time>2020-07-15T12:26:18Z</time>
      </trkpt>
      <trkpt lat="43.84609" lon="1.95665">
        <ele>209.6</ele>
        <time>2020-07-15T12:26:19Z</time>
      </trkpt>
      <trkpt lat="43.84606" lon="1.95672">
        <ele>209.6</ele>
        <time>2020-07-15T12:26:20Z</time>
      </trkpt>
      <trkpt lat="43.84604" lon="1.9568">
        <ele>209.8</ele>
        <time>2020-07-15T12:26:21Z</time>
      </trkpt>
      <trkpt lat="43.84602" lon="1.95687">
        <ele>210</ele>
        <time>2020-07-15T12:26:22Z</time>
      </trkpt>
      <trkpt lat="43.846" lon="1.95695">
        <ele>210.2</ele>
        <time>2020-07-15T12:26:23Z</time>
      </trkpt>
      <trkpt lat="43.84597" lon="1.95702">
        <ele>210.2</ele>
        <time>2020-07-15T12:26:24Z</time>
      </trkpt>
      <trkpt lat="43.84595" lon="1.9571">
        <ele>210.4</ele>
        <time>2020-07-15T12:26:25Z</time>
      </trkpt>
      <trkpt lat="43.84593" lon="1.95718">
        <ele>210.6</ele>
        <time>2020-07-15T12:26:26Z</time>
      </trkpt>
      <trkpt lat="43.84591" lon="1.95725">
        <ele>210.6</ele>
        <time>2020-07-15T12:26:27Z</time>
      </trkpt>
      <trkpt lat="43.84588" lon="1.95733">
        <ele>210.6</ele>
        <time>2020-07-15T12:26:28Z</time>
      </trkpt>
      <trkpt lat="43.84586" lon="1.9574">
        <ele>210.6</ele>
        <time>2020-07-15T12:26:29Z</time>
      </trkpt>
      <trkpt lat="43.84583" lon="1.95747">
        <ele>210.8</ele>
        <time>2020-07-15T12:26:30Z</time>
      </trkpt>
      <trkpt lat="43.8458" lon="1.95754">
        <ele>211</ele>
        <time>2020-07-15T12:26:31Z</time>
      </trkpt>
      <trkpt lat="43.84577" lon="1.95762">
        <ele>211.2</ele>
        <time>2020-07-15T12:26:32Z</time>
      </trkpt>
      <trkpt lat="43.84574" lon="1.95769">
        <ele>211.2</ele>
        <time>2020-07-15T12:26:33Z</time>
      </trkpt>
      <trkpt lat="43.84571" lon="1.95776">
        <ele>211.2</ele>
        <time>2020-07-15T12:26:34Z</time>
      </trkpt>
      <trkpt lat="43.84568" lon="1.95784">
        <ele>211.2</ele>
        <time>2020-07-15T12:26:35Z</time>
      </trkpt>
      <trkpt lat="43.84564" lon="1.95791">
        <ele>211.2</ele>
        <time>2020-07-15T12:26:36Z</time>
      </trkpt>
      <trkpt lat="43.84561" lon="1.95797">
        <ele>211.4</ele>
        <time>2020-07-15T12:26:37Z</time>
      </trkpt>
      <trkpt lat="43.84557" lon="1.95804">
        <ele>211.4</ele>
        <time>2020-07-15T12:26:38Z</time>
      </trkpt>
      <trkpt lat="43.84554" lon="1.9581">
        <ele>211.4</ele>
        <time>2020-07-15T12:26:39Z</time>
      </trkpt>
      <trkpt lat="43.8455" lon="1.95817">
        <ele>211.4</ele>
        <time>2020-07-15T12:26:40Z</time>
      </trkpt>
      <trkpt lat="43.84546" lon="1.95823">
        <ele>211.6</ele>
        <time>2020-07-15T12:26:41Z</time>
      </trkpt>
      <trkpt lat="43.84543" lon="1.95829">
        <ele>211.6</ele>
        <time>2020-07-15T12:26:42Z</time>
      </trkpt>
      <trkpt lat="43.84539" lon="1.95836">
        <ele>211.8</ele>
        <time>2020-07-15T12:26:43Z</time>
      </trkpt>
      <trkpt lat="43.84535" lon="1.95842">
        <ele>211.8</ele>
        <time>2020-07-15T12:26:44Z</time>
      </trkpt>
      <trkpt lat="43.84531" lon="1.95849">
        <ele>211.8</ele>
        <time>2020-07-15T12:26:45Z</time>
      </trkpt>
      <trkpt lat="43.84527" lon="1.95855">
        <ele>212</ele>
        <time>2020-07-15T12:26:46Z</time>
      </trkpt>
      <trkpt lat="43.84523" lon="1.95862">
        <ele>212</ele>
        <time>2020-07-15T12:26:47Z</time>
      </trkpt>
      <trkpt lat="43.8452" lon="1.95868">
        <ele>212.2</ele>
        <time>2020-07-15T12:26:48Z</time>
      </trkpt>
      <trkpt lat="43.84517" lon="1.95875">
        <ele>212.4</ele>
        <time>2020-07-15T12:26:49Z</time>
      </trkpt>
      <trkpt lat="43.84514" lon="1.95882">
        <ele>212.6</ele>
        <time>2020-07-15T12:26:50Z</time>
      </trkpt>
      <trkpt lat="43.8451" lon="1.95889">
        <ele>212.6</ele>
        <time>2020-07-15T12:26:51Z</time>
      </trkpt>
      <trkpt lat="43.84508" lon="1.95896">
        <ele>212.8</ele>
        <time>2020-07-15T12:26:52Z</time>
      </trkpt>
      <trkpt lat="43.84505" lon="1.95904">
        <ele>212.8</ele>
        <time>2020-07-15T12:26:53Z</time>
      </trkpt>
      <trkpt lat="43.84502" lon="1.95911">
        <ele>213</ele>
        <time>2020-07-15T12:26:54Z</time>
      </trkpt>
      <trkpt lat="43.84499" lon="1.95918">
        <ele>213</ele>
        <time>2020-07-15T12:26:55Z</time>
      </trkpt>
      <trkpt lat="43.84497" lon="1.95926">
        <ele>213.2</ele>
        <time>2020-07-15T12:26:56Z</time>
      </trkpt>
      <trkpt lat="43.84494" lon="1.95933">
        <ele>213.4</ele>
        <time>2020-07-15T12:26:57Z</time>
      </trkpt>
      <trkpt lat="43.84491" lon="1.9594">
        <ele>213.6</ele>
        <time>2020-07-15T12:26:58Z</time>
      </trkpt>
      <trkpt lat="43.84489" lon="1.95947">
        <ele>213.8</ele>
        <time>2020-07-15T12:26:59Z</time>
      </trkpt>
      <trkpt lat="43.84487" lon="1.95954">
        <ele>213.8</ele>
        <time>2020-07-15T12:27:00Z</time>
      </trkpt>
      <trkpt lat="43.84484" lon="1.95962">
        <ele>213.8</ele>
        <time>2020-07-15T12:27:01Z</time>
      </trkpt>
      <trkpt lat="43.84481" lon="1.95969">
        <ele>214</ele>
        <time>2020-07-15T12:27:02Z</time>
      </trkpt>
      <trkpt lat="43.84479" lon="1.95975">
        <ele>214.2</ele>
        <time>2020-07-15T12:27:03Z</time>
      </trkpt>
      <trkpt lat="43.84475" lon="1.95982">
        <ele>214.4</ele>
        <time>2020-07-15T12:27:04Z</time>
      </trkpt>
      <trkpt lat="43.84473" lon="1.95989">
        <ele>214.6</ele>
        <time>2020-07-15T12:27:05Z</time>
      </trkpt>
      <trkpt lat="43.8447" lon="1.95996">
        <ele>214.6</ele>
        <time>2020-07-15T12:27:06Z</time>
      </trkpt>
      <trkpt lat="43.84466" lon="1.96002">
        <ele>214.8</ele>
        <time>2020-07-15T12:27:07Z</time>
      </trkpt>
      <trkpt lat="43.84463" lon="1.96009">
        <ele>215</ele>
        <time>2020-07-15T12:27:08Z</time>
      </trkpt>
      <trkpt lat="43.84459" lon="1.96015">
        <ele>215.2</ele>
        <time>2020-07-15T12:27:09Z</time>
      </trkpt>
      <trkpt lat="43.84456" lon="1.96021">
        <ele>215.4</ele>
        <time>2020-07-15T12:27:10Z</time>
      </trkpt>
      <trkpt lat="43.84452" lon="1.96027">
        <ele>215.6</ele>
        <time>2020-07-15T12:27:11Z</time>
      </trkpt>
      <trkpt lat="43.84449" lon="1.96033">
        <ele>215.8</ele>
        <time>2020-07-15T12:27:12Z</time>
      </trkpt>
      <trkpt lat="43.84445" lon="1.96039">
        <ele>215.8</ele>
        <time>2020-07-15T12:27:13Z</time>
      </trkpt>
      <trkpt lat="43.84441" lon="1.96044">
        <ele>216</ele>
        <time>2020-07-15T12:27:14Z</time>
      </trkpt>
      <trkpt lat="43.84437" lon="1.9605">
        <ele>216.2</ele>
        <time>2020-07-15T12:27:15Z</time>
      </trkpt>
      <trkpt lat="43.84433" lon="1.96055">
        <ele>216.4</ele>
        <time>2020-07-15T12:27:16Z</time>
      </trkpt>
      <trkpt lat="43.8443" lon="1.96061">
        <ele>216.4</ele>
        <time>2020-07-15T12:27:17Z</time>
      </trkpt>
      <trkpt lat="43.84426" lon="1.96067">
        <ele>216.6</ele>
        <time>2020-07-15T12:27:18Z</time>
      </trkpt>
      <trkpt lat="43.84422" lon="1.96072">
        <ele>216.8</ele>
        <time>2020-07-15T12:27:19Z</time>
      </trkpt>
      <trkpt lat="43.84419" lon="1.96078">
        <ele>217</ele>
        <time>2020-07-15T12:27:20Z</time>
      </trkpt>
      <trkpt lat="43.84415" lon="1.96084">
        <ele>217.2</ele>
        <time>2020-07-15T12:27:21Z</time>
      </trkpt>
      <trkpt lat="43.84412" lon="1.96089">
        <ele>217.4</ele>
        <time>2020-07-15T12:27:22Z</time>
      </trkpt>
      <trkpt lat="43.8441" lon="1.96093">
        <ele>217.6</ele>
        <time>2020-07-15T12:27:23Z</time>
      </trkpt>
      <trkpt lat="43.84407" lon="1.96095">
        <ele>217.6</ele>
        <time>2020-07-15T12:27:24Z</time>
      </trkpt>
      <trkpt lat="43.84406" lon="1.96098">
        <ele>217.8</ele>
        <time>2020-07-15T12:27:25Z</time>
      </trkpt>
      <trkpt lat="43.84403" lon="1.96101">
        <ele>218</ele>
        <time>2020-07-15T12:27:26Z</time>
      </trkpt>
      <trkpt lat="43.84401" lon="1.96105">
        <ele>218</ele>
        <time>2020-07-15T12:27:27Z</time>
      </trkpt>
      <trkpt lat="43.84398" lon="1.96109">
        <ele>218.2</ele>
        <time>2020-07-15T12:27:28Z</time>
      </trkpt>
      <trkpt lat="43.84395" lon="1.96113">
        <ele>218.4</ele>
        <time>2020-07-15T12:27:29Z</time>
      </trkpt>
      <trkpt lat="43.84391" lon="1.96118">
        <ele>218.4</ele>
        <time>2020-07-15T12:27:30Z</time>
      </trkpt>
      <trkpt lat="43.84388" lon="1.96122">
        <ele>218.6</ele>
        <time>2020-07-15T12:27:31Z</time>
      </trkpt>
      <trkpt lat="43.84384" lon="1.96127">
        <ele>218.6</ele>
        <time>2020-07-15T12:27:32Z</time>
      </trkpt>
      <trkpt lat="43.84381" lon="1.96132">
        <ele>218.8</ele>
        <time>2020-07-15T12:27:33Z</time>
      </trkpt>
      <trkpt lat="43.84378" lon="1.96137">
        <ele>218.8</ele>
        <time>2020-07-15T12:27:34Z</time>
      </trkpt>
      <trkpt lat="43.84375" lon="1.96143">
        <ele>218.8</ele>
        <time>2020-07-15T12:27:35Z</time>
      </trkpt>
      <trkpt lat="43.84372" lon="1.96148">
        <ele>219</ele>
        <time>2020-07-15T12:27:36Z</time>
      </trkpt>
      <trkpt lat="43.84368" lon="1.96153">
        <ele>219</ele>
        <time>2020-07-15T12:27:37Z</time>
      </trkpt>
      <trkpt lat="43.84364" lon="1.96158">
        <ele>219</ele>
        <time>2020-07-15T12:27:38Z</time>
      </trkpt>
      <trkpt lat="43.84361" lon="1.96163">
        <ele>219.2</ele>
        <time>2020-07-15T12:27:39Z</time>
      </trkpt>
      <trkpt lat="43.84358" lon="1.96167">
        <ele>219.2</ele>
        <time>2020-07-15T12:27:40Z</time>
      </trkpt>
      <trkpt lat="43.84354" lon="1.96172">
        <ele>219.2</ele>
        <time>2020-07-15T12:27:41Z</time>
      </trkpt>
      <trkpt lat="43.84351" lon="1.96177">
        <ele>219.4</ele>
        <time>2020-07-15T12:27:42Z</time>
      </trkpt>
      <trkpt lat="43.84347" lon="1.96182">
        <ele>219.4</ele>
        <time>2020-07-15T12:27:43Z</time>
      </trkpt>
      <trkpt lat="43.84344" lon="1.96187">
        <ele>219.4</ele>
        <time>2020-07-15T12:27:44Z</time>
      </trkpt>
      <trkpt lat="43.8434" lon="1.96191">
        <ele>219.4</ele>
        <time>2020-07-15T12:27:45Z</time>
      </trkpt>
      <trkpt lat="43.84337" lon="1.96195">
        <ele>219.4</ele>
        <time>2020-07-15T12:27:46Z</time>
      </trkpt>
      <trkpt lat="43.84333" lon="1.962">
        <ele>219.4</ele>
        <time>2020-07-15T12:27:47Z</time>
      </trkpt>
      <trkpt lat="43.8433" lon="1.96205">
        <ele>219.4</ele>
        <time>2020-07-15T12:27:48Z</time>
      </trkpt>
      <trkpt lat="43.84326" lon="1.9621">
        <ele>219.6</ele>
        <time>2020-07-15T12:27:49Z</time>
      </trkpt>
      <trkpt lat="43.84322" lon="1.96214">
        <ele>219.6</ele>
        <time>2020-07-15T12:27:50Z</time>
      </trkpt>
      <trkpt lat="43.84318" lon="1.96219">
        <ele>219.6</ele>
        <time>2020-07-15T12:27:51Z</time>
      </trkpt>
      <trkpt lat="43.84314" lon="1.96222">
        <ele>219.8</ele>
        <time>2020-07-15T12:27:52Z</time>
      </trkpt>
      <trkpt lat="43.8431" lon="1.96226">
        <ele>219.8</ele>
        <time>2020-07-15T12:27:53Z</time>
      </trkpt>
      <trkpt lat="43.84306" lon="1.9623">
        <ele>219.8</ele>
        <time>2020-07-15T12:27:54Z</time>
      </trkpt>
      <trkpt lat="43.84302" lon="1.96234">
        <ele>220</ele>
        <time>2020-07-15T12:27:55Z</time>
      </trkpt>
      <trkpt lat="43.84298" lon="1.96237">
        <ele>220</ele>
        <time>2020-07-15T12:27:56Z</time>
      </trkpt>
      <trkpt lat="43.84293" lon="1.96241">
        <ele>220</ele>
        <time>2020-07-15T12:27:57Z</time>
      </trkpt>
      <trkpt lat="43.84289" lon="1.96244">
        <ele>220</ele>
        <time>2020-07-15T12:27:58Z</time>
      </trkpt>
      <trkpt lat="43.84285" lon="1.96248">
        <ele>220</ele>
        <time>2020-07-15T12:27:59Z</time>
      </trkpt>
      <trkpt lat="43.84281" lon="1.96251">
        <ele>220.2</ele>
        <time>2020-07-15T12:28:00Z</time>
      </trkpt>
      <trkpt lat="43.84277" lon="1.96255">
        <ele>220.2</ele>
        <time>2020-07-15T12:28:01Z</time>
      </trkpt>
      <trkpt lat="43.84272" lon="1.96258">
        <ele>220.2</ele>
        <time>2020-07-15T12:28:02Z</time>
      </trkpt>
      <trkpt lat="43.84267" lon="1.96261">
        <ele>220.4</ele>
        <time>2020-07-15T12:28:03Z</time>
      </trkpt>
      <trkpt lat="43.84263" lon="1.96264">
        <ele>220.4</ele>
        <time>2020-07-15T12:28:04Z</time>
      </trkpt>
      <trkpt lat="43.84259" lon="1.96268">
        <ele>220.6</ele>
        <time>2020-07-15T12:28:05Z</time>
      </trkpt>
      <trkpt lat="43.84255" lon="1.96271">
        <ele>220.6</ele>
        <time>2020-07-15T12:28:06Z</time>
      </trkpt>
      <trkpt lat="43.8425" lon="1.96275">
        <ele>220.8</ele>
        <time>2020-07-15T12:28:07Z</time>
      </trkpt>
      <trkpt lat="43.84246" lon="1.96278">
        <ele>220.8</ele>
        <time>2020-07-15T12:28:08Z</time>
      </trkpt>
      <trkpt lat="43.84242" lon="1.96282">
        <ele>221</ele>
        <time>2020-07-15T12:28:09Z</time>
      </trkpt>
      <trkpt lat="43.84238" lon="1.96285">
        <ele>221</ele>
        <time>2020-07-15T12:28:10Z</time>
      </trkpt>
      <trkpt lat="43.84234" lon="1.96289">
        <ele>221.2</ele>
        <time>2020-07-15T12:28:11Z</time>
      </trkpt>
      <trkpt lat="43.84229" lon="1.96292">
        <ele>221.2</ele>
        <time>2020-07-15T12:28:12Z</time>
      </trkpt>
      <trkpt lat="43.84225" lon="1.96296">
        <ele>221.2</ele>
        <time>2020-07-15T12:28:13Z</time>
      </trkpt>
      <trkpt lat="43.84221" lon="1.96299">
        <ele>221.4</ele>
        <time>2020-07-15T12:28:14Z</time>
      </trkpt>
      <trkpt lat="43.84217" lon="1.96303">
        <ele>221.6</ele>
        <time>2020-07-15T12:28:15Z</time>
      </trkpt>
      <trkpt lat="43.84213" lon="1.96307">
        <ele>221.6</ele>
        <time>2020-07-15T12:28:16Z</time>
      </trkpt>
      <trkpt lat="43.84209" lon="1.9631">
        <ele>221.8</ele>
        <time>2020-07-15T12:28:17Z</time>
      </trkpt>
      <trkpt lat="43.84205" lon="1.96314">
        <ele>222</ele>
        <time>2020-07-15T12:28:18Z</time>
      </trkpt>
      <trkpt lat="43.84202" lon="1.96317">
        <ele>222.2</ele>
        <time>2020-07-15T12:28:19Z</time>
      </trkpt>
      <trkpt lat="43.84198" lon="1.96321">
        <ele>222.4</ele>
        <time>2020-07-15T12:28:20Z</time>
      </trkpt>
      <trkpt lat="43.84194" lon="1.96325">
        <ele>222.6</ele>
        <time>2020-07-15T12:28:21Z</time>
      </trkpt>
      <trkpt lat="43.8419" lon="1.96329">
        <ele>223</ele>
        <time>2020-07-15T12:28:22Z</time>
      </trkpt>
      <trkpt lat="43.84187" lon="1.96332">
        <ele>223.2</ele>
        <time>2020-07-15T12:28:23Z</time>
      </trkpt>
      <trkpt lat="43.84183" lon="1.96336">
        <ele>223.4</ele>
        <time>2020-07-15T12:28:24Z</time>
      </trkpt>
      <trkpt lat="43.84179" lon="1.96339">
        <ele>223.4</ele>
        <time>2020-07-15T12:28:25Z</time>
      </trkpt>
      <trkpt lat="43.84176" lon="1.96343">
        <ele>223.6</ele>
        <time>2020-07-15T12:28:26Z</time>
      </trkpt>
      <trkpt lat="43.84172" lon="1.96347">
        <ele>223.6</ele>
        <time>2020-07-15T12:28:27Z</time>
      </trkpt>
      <trkpt lat="43.84168" lon="1.96351">
        <ele>223.8</ele>
        <time>2020-07-15T12:28:28Z</time>
      </trkpt>
      <trkpt lat="43.84164" lon="1.96354">
        <ele>224</ele>
        <time>2020-07-15T12:28:29Z</time>
      </trkpt>
      <trkpt lat="43.8416" lon="1.96358">
        <ele>224</ele>
        <time>2020-07-15T12:28:30Z</time>
      </trkpt>
      <trkpt lat="43.84156" lon="1.96362">
        <ele>224.2</ele>
        <time>2020-07-15T12:28:31Z</time>
      </trkpt>
      <trkpt lat="43.84152" lon="1.96366">
        <ele>224.4</ele>
        <time>2020-07-15T12:28:32Z</time>
      </trkpt>
      <trkpt lat="43.84149" lon="1.96369">
        <ele>224.6</ele>
        <time>2020-07-15T12:28:33Z</time>
      </trkpt>
      <trkpt lat="43.84145" lon="1.96373">
        <ele>224.6</ele>
        <time>2020-07-15T12:28:34Z</time>
      </trkpt>
      <trkpt lat="43.84141" lon="1.96376">
        <ele>224.8</ele>
        <time>2020-07-15T12:28:35Z</time>
      </trkpt>
      <trkpt lat="43.84137" lon="1.9638">
        <ele>224.8</ele>
        <time>2020-07-15T12:28:36Z</time>
      </trkpt>
      <trkpt lat="43.84133" lon="1.96383">
        <ele>225</ele>
        <time>2020-07-15T12:28:37Z</time>
      </trkpt>
      <trkpt lat="43.84129" lon="1.96387">
        <ele>225.2</ele>
        <time>2020-07-15T12:28:38Z</time>
      </trkpt>
      <trkpt lat="43.84126" lon="1.9639">
        <ele>225.2</ele>
        <time>2020-07-15T12:28:39Z</time>
      </trkpt>
      <trkpt lat="43.84123" lon="1.96394">
        <ele>225.4</ele>
        <time>2020-07-15T12:28:40Z</time>
      </trkpt>
      <trkpt lat="43.84119" lon="1.96398">
        <ele>225.6</ele>
        <time>2020-07-15T12:28:41Z</time>
      </trkpt>
      <trkpt lat="43.84119" lon="1.96403">
        <ele>225.6</ele>
        <time>2020-07-15T12:28:42Z</time>
      </trkpt>
      <trkpt lat="43.8412" lon="1.96409">
        <ele>225.6</ele>
        <time>2020-07-15T12:28:43Z</time>
      </trkpt>
      <trkpt lat="43.84124" lon="1.96414">
        <ele>225.6</ele>
        <time>2020-07-15T12:28:44Z</time>
      </trkpt>
      <trkpt lat="43.84127" lon="1.96419">
        <ele>225.4</ele>
        <time>2020-07-15T12:28:45Z</time>
      </trkpt>
      <trkpt lat="43.84132" lon="1.96425">
        <ele>225.2</ele>
        <time>2020-07-15T12:28:46Z</time>
      </trkpt>
      <trkpt lat="43.84136" lon="1.96431">
        <ele>225</ele>
        <time>2020-07-15T12:28:47Z</time>
      </trkpt>
      <trkpt lat="43.84141" lon="1.96437">
        <ele>224.8</ele>
        <time>2020-07-15T12:28:48Z</time>
      </trkpt>
      <trkpt lat="43.84146" lon="1.96443">
        <ele>224.6</ele>
        <time>2020-07-15T12:28:49Z</time>
      </trkpt>
      <trkpt lat="43.84151" lon="1.96449">
        <ele>224.4</ele>
        <time>2020-07-15T12:28:50Z</time>
      </trkpt>
      <trkpt lat="43.84156" lon="1.96455">
        <ele>224</ele>
        <time>2020-07-15T12:28:51Z</time>
      </trkpt>
      <trkpt lat="43.84161" lon="1.96462">
        <ele>223.8</ele>
        <time>2020-07-15T12:28:52Z</time>
      </trkpt>
      <trkpt lat="43.84166" lon="1.96468">
        <ele>223.6</ele>
        <time>2020-07-15T12:28:53Z</time>
      </trkpt>
      <trkpt lat="43.84171" lon="1.96474">
        <ele>223.4</ele>
        <time>2020-07-15T12:28:54Z</time>
      </trkpt>
      <trkpt lat="43.84177" lon="1.9648">
        <ele>223</ele>
        <time>2020-07-15T12:28:55Z</time>
      </trkpt>
      <trkpt lat="43.84182" lon="1.96487">
        <ele>222.8</ele>
        <time>2020-07-15T12:28:56Z</time>
      </trkpt>
      <trkpt lat="43.84188" lon="1.96493">
        <ele>222.4</ele>
        <time>2020-07-15T12:28:57Z</time>
      </trkpt>
      <trkpt lat="43.84193" lon="1.965">
        <ele>222.2</ele>
        <time>2020-07-15T12:28:58Z</time>
      </trkpt>
      <trkpt lat="43.84198" lon="1.96506">
        <ele>222</ele>
        <time>2020-07-15T12:28:59Z</time>
      </trkpt>
      <trkpt lat="43.84203" lon="1.96512">
        <ele>221.8</ele>
        <time>2020-07-15T12:29:00Z</time>
      </trkpt>
      <trkpt lat="43.84209" lon="1.96518">
        <ele>221.6</ele>
        <time>2020-07-15T12:29:01Z</time>
      </trkpt>
      <trkpt lat="43.84214" lon="1.96525">
        <ele>221.2</ele>
        <time>2020-07-15T12:29:02Z</time>
      </trkpt>
      <trkpt lat="43.84219" lon="1.96531">
        <ele>220.8</ele>
        <time>2020-07-15T12:29:03Z</time>
      </trkpt>
      <trkpt lat="43.84222" lon="1.9654">
        <ele>220.6</ele>
        <time>2020-07-15T12:29:04Z</time>
      </trkpt>
      <trkpt lat="43.84226" lon="1.96548">
        <ele>220.2</ele>
        <time>2020-07-15T12:29:05Z</time>
      </trkpt>
      <trkpt lat="43.84228" lon="1.96558">
        <ele>220</ele>
        <time>2020-07-15T12:29:06Z</time>
      </trkpt>
      <trkpt lat="43.8423" lon="1.96567">
        <ele>219.6</ele>
        <time>2020-07-15T12:29:07Z</time>
      </trkpt>
      <trkpt lat="43.84232" lon="1.96576">
        <ele>219.4</ele>
        <time>2020-07-15T12:29:08Z</time>
      </trkpt>
      <trkpt lat="43.84234" lon="1.96586">
        <ele>219.2</ele>
        <time>2020-07-15T12:29:09Z</time>
      </trkpt>
      <trkpt lat="43.84235" lon="1.96595">
        <ele>219</ele>
        <time>2020-07-15T12:29:10Z</time>
      </trkpt>
      <trkpt lat="43.84237" lon="1.96604">
        <ele>218.8</ele>
        <time>2020-07-15T12:29:11Z</time>
      </trkpt>
      <trkpt lat="43.84238" lon="1.96613">
        <ele>218.6</ele>
        <time>2020-07-15T12:29:12Z</time>
      </trkpt>
      <trkpt lat="43.84238" lon="1.96622">
        <ele>218.4</ele>
        <time>2020-07-15T12:29:13Z</time>
      </trkpt>
      <trkpt lat="43.84237" lon="1.96631">
        <ele>218.2</ele>
        <time>2020-07-15T12:29:14Z</time>
      </trkpt>
      <trkpt lat="43.84235" lon="1.96639">
        <ele>218</ele>
        <time>2020-07-15T12:29:15Z</time>
      </trkpt>
      <trkpt lat="43.84232" lon="1.96646">
        <ele>217.8</ele>
        <time>2020-07-15T12:29:16Z</time>
      </trkpt>
      <trkpt lat="43.84229" lon="1.96653">
        <ele>217.6</ele>
        <time>2020-07-15T12:29:17Z</time>
      </trkpt>
      <trkpt lat="43.84224" lon="1.9666">
        <ele>217.4</ele>
        <time>2020-07-15T12:29:18Z</time>
      </trkpt>
      <trkpt lat="43.84221" lon="1.96667">
        <ele>217.2</ele>
        <time>2020-07-15T12:29:19Z</time>
      </trkpt>
      <trkpt lat="43.84217" lon="1.96674">
        <ele>217</ele>
        <time>2020-07-15T12:29:20Z</time>
      </trkpt>
      <trkpt lat="43.84214" lon="1.9668">
        <ele>216.8</ele>
        <time>2020-07-15T12:29:21Z</time>
      </trkpt>
      <trkpt lat="43.84211" lon="1.96688">
        <ele>216.6</ele>
        <time>2020-07-15T12:29:22Z</time>
      </trkpt>
      <trkpt lat="43.84212" lon="1.96696">
        <ele>216.4</ele>
        <time>2020-07-15T12:29:23Z</time>
      </trkpt>
      <trkpt lat="43.84215" lon="1.96703">
        <ele>216.2</ele>
        <time>2020-07-15T12:29:24Z</time>
      </trkpt>
      <trkpt lat="43.84219" lon="1.9671">
        <ele>215.8</ele>
        <time>2020-07-15T12:29:25Z</time>
      </trkpt>
      <trkpt lat="43.84224" lon="1.96716">
        <ele>215.4</ele>
        <time>2020-07-15T12:29:26Z</time>
      </trkpt>
      <trkpt lat="43.84229" lon="1.96722">
        <ele>215.2</ele>
        <time>2020-07-15T12:29:27Z</time>
      </trkpt>
      <trkpt lat="43.84234" lon="1.96728">
        <ele>215</ele>
        <time>2020-07-15T12:29:28Z</time>
      </trkpt>
      <trkpt lat="43.84239" lon="1.96734">
        <ele>214.8</ele>
        <time>2020-07-15T12:29:29Z</time>
      </trkpt>
      <trkpt lat="43.84244" lon="1.96739">
        <ele>214.6</ele>
        <time>2020-07-15T12:29:30Z</time>
      </trkpt>
      <trkpt lat="43.84249" lon="1.96743">
        <ele>214.4</ele>
        <time>2020-07-15T12:29:31Z</time>
      </trkpt>
      <trkpt lat="43.84254" lon="1.96748">
        <ele>214.4</ele>
        <time>2020-07-15T12:29:32Z</time>
      </trkpt>
      <trkpt lat="43.84258" lon="1.96753">
        <ele>214.2</ele>
        <time>2020-07-15T12:29:33Z</time>
      </trkpt>
      <trkpt lat="43.84263" lon="1.96757">
        <ele>214</ele>
        <time>2020-07-15T12:29:34Z</time>
      </trkpt>
      <trkpt lat="43.84267" lon="1.9676">
        <ele>214</ele>
        <time>2020-07-15T12:29:35Z</time>
      </trkpt>
      <trkpt lat="43.8427" lon="1.96763">
        <ele>213.8</ele>
        <time>2020-07-15T12:29:36Z</time>
      </trkpt>
      <trkpt lat="43.84273" lon="1.96766">
        <ele>213.6</ele>
        <time>2020-07-15T12:29:37Z</time>
      </trkpt>
      <trkpt lat="43.84275" lon="1.96769">
        <ele>213.6</ele>
        <time>2020-07-15T12:29:38Z</time>
      </trkpt>
      <trkpt lat="43.84277" lon="1.96772">
        <ele>213.6</ele>
        <time>2020-07-15T12:29:39Z</time>
      </trkpt>
      <trkpt lat="43.84279" lon="1.96774">
        <ele>213.6</ele>
        <time>2020-07-15T12:29:40Z</time>
      </trkpt>
      <trkpt lat="43.84281" lon="1.96776">
        <ele>213.6</ele>
        <time>2020-07-15T12:29:41Z</time>
      </trkpt>
      <trkpt lat="43.84284" lon="1.96777">
        <ele>213.6</ele>
        <time>2020-07-15T12:29:42Z</time>
      </trkpt>
      <trkpt lat="43.84288" lon="1.96778">
        <ele>213.6</ele>
        <time>2020-07-15T12:29:43Z</time>
      </trkpt>
      <trkpt lat="43.84292" lon="1.9678">
        <ele>213.6</ele>
        <time>2020-07-15T12:29:44Z</time>
      </trkpt>
      <trkpt lat="43.84297" lon="1.96781">
        <ele>213.6</ele>
        <time>2020-07-15T12:29:45Z</time>
      </trkpt>
      <trkpt lat="43.84301" lon="1.96783">
        <ele>213.6</ele>
        <time>2020-07-15T12:29:46Z</time>
      </trkpt>
      <trkpt lat="43.84306" lon="1.96785">
        <ele>213.4</ele>
        <time>2020-07-15T12:29:47Z</time>
      </trkpt>
      <trkpt lat="43.8431" lon="1.96788">
        <ele>213.4</ele>
        <time>2020-07-15T12:29:48Z</time>
      </trkpt>
      <trkpt lat="43.84314" lon="1.96791">
        <ele>213.4</ele>
        <time>2020-07-15T12:29:49Z</time>
      </trkpt>
      <trkpt lat="43.84316" lon="1.96794">
        <ele>213.6</ele>
        <time>2020-07-15T12:29:50Z</time>
      </trkpt>
      <trkpt lat="43.84315" lon="1.96797">
        <ele>213.6</ele>
        <time>2020-07-15T12:29:51Z</time>
      </trkpt>
      <trkpt lat="43.84314" lon="1.968">
        <ele>213.8</ele>
        <time>2020-07-15T12:29:52Z</time>
      </trkpt>
      <trkpt lat="43.84312" lon="1.96803">
        <ele>214</ele>
        <time>2020-07-15T12:29:53Z</time>
      </trkpt>
      <trkpt lat="43.84311" lon="1.96806">
        <ele>214.2</ele>
        <time>2020-07-15T12:29:54Z</time>
      </trkpt>
      <trkpt lat="43.8431" lon="1.9681">
        <ele>214.2</ele>
        <time>2020-07-15T12:29:55Z</time>
      </trkpt>
      <trkpt lat="43.84309" lon="1.96814">
        <ele>214.4</ele>
        <time>2020-07-15T12:29:56Z</time>
      </trkpt>
      <trkpt lat="43.84309" lon="1.96819">
        <ele>214.6</ele>
        <time>2020-07-15T12:29:57Z</time>
      </trkpt>
      <trkpt lat="43.84308" lon="1.96824">
        <ele>214.8</ele>
        <time>2020-07-15T12:29:58Z</time>
      </trkpt>
      <trkpt lat="43.84308" lon="1.96829">
        <ele>215</ele>
        <time>2020-07-15T12:29:59Z</time>
      </trkpt>
      <trkpt lat="43.84307" lon="1.96833">
        <ele>215.4</ele>
        <time>2020-07-15T12:30:00Z</time>
      </trkpt>
      <trkpt lat="43.84306" lon="1.96839">
        <ele>215.6</ele>
        <time>2020-07-15T12:30:01Z</time>
      </trkpt>
      <trkpt lat="43.84305" lon="1.96844">
        <ele>216</ele>
        <time>2020-07-15T12:30:02Z</time>
      </trkpt>
      <trkpt lat="43.84304" lon="1.96849">
        <ele>216.4</ele>
        <time>2020-07-15T12:30:03Z</time>
      </trkpt>
      <trkpt lat="43.84303" lon="1.96853">
        <ele>216.8</ele>
        <time>2020-07-15T12:30:04Z</time>
      </trkpt>
      <trkpt lat="43.84302" lon="1.96858">
        <ele>217.4</ele>
        <time>2020-07-15T12:30:05Z</time>
      </trkpt>
      <trkpt lat="43.84301" lon="1.96862">
        <ele>217.8</ele>
        <time>2020-07-15T12:30:06Z</time>
      </trkpt>
      <trkpt lat="43.843" lon="1.96866">
        <ele>218.4</ele>
        <time>2020-07-15T12:30:07Z</time>
      </trkpt>
      <trkpt lat="43.84299" lon="1.9687">
        <ele>218.8</ele>
        <time>2020-07-15T12:30:08Z</time>
      </trkpt>
      <trkpt lat="43.84298" lon="1.96874">
        <ele>219.2</ele>
        <time>2020-07-15T12:30:09Z</time>
      </trkpt>
      <trkpt lat="43.84296" lon="1.96878">
        <ele>219.6</ele>
        <time>2020-07-15T12:30:10Z</time>
      </trkpt>
      <trkpt lat="43.84295" lon="1.96882">
        <ele>220</ele>
        <time>2020-07-15T12:30:11Z</time>
      </trkpt>
      <trkpt lat="43.84294" lon="1.96886">
        <ele>220.2</ele>
        <time>2020-07-15T12:30:12Z</time>
      </trkpt>
      <trkpt lat="43.84292" lon="1.9689">
        <ele>220.6</ele>
        <time>2020-07-15T12:30:13Z</time>
      </trkpt>
      <trkpt lat="43.8429" lon="1.96895">
        <ele>220.8</ele>
        <time>2020-07-15T12:30:14Z</time>
      </trkpt>
      <trkpt lat="43.84288" lon="1.96899">
        <ele>221</ele>
        <time>2020-07-15T12:30:15Z</time>
      </trkpt>
      <trkpt lat="43.84287" lon="1.96904">
        <ele>221</ele>
        <time>2020-07-15T12:30:16Z</time>
      </trkpt>
      <trkpt lat="43.84285" lon="1.96908">
        <ele>221.2</ele>
        <time>2020-07-15T12:30:17Z</time>
      </trkpt>
      <trkpt lat="43.84283" lon="1.96912">
        <ele>221.4</ele>
        <time>2020-07-15T12:30:18Z</time>
      </trkpt>
      <trkpt lat="43.84282" lon="1.96917">
        <ele>221.6</ele>
        <time>2020-07-15T12:30:19Z</time>
      </trkpt>
      <trkpt lat="43.8428" lon="1.96921">
        <ele>221.8</ele>
        <time>2020-07-15T12:30:20Z</time>
      </trkpt>
      <trkpt lat="43.84279" lon="1.96926">
        <ele>222</ele>
        <time>2020-07-15T12:30:21Z</time>
      </trkpt>
      <trkpt lat="43.84277" lon="1.9693">
        <ele>222.2</ele>
        <time>2020-07-15T12:30:22Z</time>
      </trkpt>
      <trkpt lat="43.84275" lon="1.96935">
        <ele>222.6</ele>
        <time>2020-07-15T12:30:23Z</time>
      </trkpt>
      <trkpt lat="43.84273" lon="1.9694">
        <ele>223</ele>
        <time>2020-07-15T12:30:24Z</time>
      </trkpt>
      <trkpt lat="43.84271" lon="1.96944">
        <ele>223.2</ele>
        <time>2020-07-15T12:30:25Z</time>
      </trkpt>
      <trkpt lat="43.84269" lon="1.96948">
        <ele>223.6</ele>
        <time>2020-07-15T12:30:26Z</time>
      </trkpt>
      <trkpt lat="43.84267" lon="1.96952">
        <ele>224</ele>
        <time>2020-07-15T12:30:27Z</time>
      </trkpt>
      <trkpt lat="43.84265" lon="1.96956">
        <ele>224.6</ele>
        <time>2020-07-15T12:30:28Z</time>
      </trkpt>
      <trkpt lat="43.84263" lon="1.9696">
        <ele>225</ele>
        <time>2020-07-15T12:30:29Z</time>
      </trkpt>
      <trkpt lat="43.84261" lon="1.96964">
        <ele>225.4</ele>
        <time>2020-07-15T12:30:30Z</time>
      </trkpt>
      <trkpt lat="43.84258" lon="1.96968">
        <ele>225.8</ele>
        <time>2020-07-15T12:30:31Z</time>
      </trkpt>
      <trkpt lat="43.84255" lon="1.96972">
        <ele>226.4</ele>
        <time>2020-07-15T12:30:32Z</time>
      </trkpt>
      <trkpt lat="43.84253" lon="1.96976">
        <ele>226.8</ele>
        <time>2020-07-15T12:30:33Z</time>
      </trkpt>
      <trkpt lat="43.8425" lon="1.96979">
        <ele>227.4</ele>
        <time>2020-07-15T12:30:34Z</time>
      </trkpt>
      <trkpt lat="43.84248" lon="1.96983">
        <ele>227.8</ele>
        <time>2020-07-15T12:30:35Z</time>
      </trkpt>
      <trkpt lat="43.84245" lon="1.96986">
        <ele>228.4</ele>
        <time>2020-07-15T12:30:36Z</time>
      </trkpt>
      <trkpt lat="43.84242" lon="1.96989">
        <ele>228.8</ele>
        <time>2020-07-15T12:30:37Z</time>
      </trkpt>
      <trkpt lat="43.8424" lon="1.96992">
        <ele>229.2</ele>
        <time>2020-07-15T12:30:38Z</time>
      </trkpt>
      <trkpt lat="43.84237" lon="1.96996">
        <ele>229.6</ele>
        <time>2020-07-15T12:30:39Z</time>
      </trkpt>
      <trkpt lat="43.84234" lon="1.96999">
        <ele>230</ele>
        <time>2020-07-15T12:30:40Z</time>
      </trkpt>
      <trkpt lat="43.84232" lon="1.97002">
        <ele>230.4</ele>
        <time>2020-07-15T12:30:41Z</time>
      </trkpt>
      <trkpt lat="43.84229" lon="1.97006">
        <ele>230.8</ele>
        <time>2020-07-15T12:30:42Z</time>
      </trkpt>
      <trkpt lat="43.84226" lon="1.97009">
        <ele>231.2</ele>
        <time>2020-07-15T12:30:43Z</time>
      </trkpt>
      <trkpt lat="43.84224" lon="1.97013">
        <ele>231.8</ele>
        <time>2020-07-15T12:30:44Z</time>
      </trkpt>
      <trkpt lat="43.84221" lon="1.97016">
        <ele>232.2</ele>
        <time>2020-07-15T12:30:45Z</time>
      </trkpt>
      <trkpt lat="43.84218" lon="1.9702">
        <ele>232.6</ele>
        <time>2020-07-15T12:30:46Z</time>
      </trkpt>
      <trkpt lat="43.84216" lon="1.97023">
        <ele>233.2</ele>
        <time>2020-07-15T12:30:47Z</time>
      </trkpt>
      <trkpt lat="43.84213" lon="1.97026">
        <ele>233.6</ele>
        <time>2020-07-15T12:30:48Z</time>
      </trkpt>
      <trkpt lat="43.84211" lon="1.9703">
        <ele>234</ele>
        <time>2020-07-15T12:30:49Z</time>
      </trkpt>
      <trkpt lat="43.84209" lon="1.97033">
        <ele>234.6</ele>
        <time>2020-07-15T12:30:50Z</time>
      </trkpt>
      <trkpt lat="43.84206" lon="1.97036">
        <ele>235.2</ele>
        <time>2020-07-15T12:30:51Z</time>
      </trkpt>
      <trkpt lat="43.84204" lon="1.97039">
        <ele>235.6</ele>
        <time>2020-07-15T12:30:52Z</time>
      </trkpt>
      <trkpt lat="43.84202" lon="1.97042">
        <ele>236</ele>
        <time>2020-07-15T12:30:53Z</time>
      </trkpt>
      <trkpt lat="43.842" lon="1.97045">
        <ele>236.4</ele>
        <time>2020-07-15T12:30:54Z</time>
      </trkpt>
      <trkpt lat="43.84198" lon="1.97048">
        <ele>236.8</ele>
        <time>2020-07-15T12:30:55Z</time>
      </trkpt>
      <trkpt lat="43.84195" lon="1.97051">
        <ele>237</ele>
        <time>2020-07-15T12:30:56Z</time>
      </trkpt>
      <trkpt lat="43.84193" lon="1.97055">
        <ele>237.4</ele>
        <time>2020-07-15T12:30:57Z</time>
      </trkpt>
      <trkpt lat="43.84191" lon="1.97059">
        <ele>237.6</ele>
        <time>2020-07-15T12:30:58Z</time>
      </trkpt>
      <trkpt lat="43.84189" lon="1.97063">
        <ele>237.8</ele>
        <time>2020-07-15T12:30:59Z</time>
      </trkpt>
      <trkpt lat="43.84187" lon="1.97066">
        <ele>238.2</ele>
        <time>2020-07-15T12:31:00Z</time>
      </trkpt>
      <trkpt lat="43.84186" lon="1.9707">
        <ele>238.4</ele>
        <time>2020-07-15T12:31:01Z</time>
      </trkpt>
      <trkpt lat="43.84185" lon="1.97074">
        <ele>238.6</ele>
        <time>2020-07-15T12:31:02Z</time>
      </trkpt>
      <trkpt lat="43.84184" lon="1.97078">
        <ele>238.8</ele>
        <time>2020-07-15T12:31:03Z</time>
      </trkpt>
      <trkpt lat="43.84184" lon="1.97083">
        <ele>239.2</ele>
        <time>2020-07-15T12:31:04Z</time>
      </trkpt>
      <trkpt lat="43.84182" lon="1.97088">
        <ele>239.4</ele>
        <time>2020-07-15T12:31:05Z</time>
      </trkpt>
      <trkpt lat="43.84182" lon="1.97093">
        <ele>239.6</ele>
        <time>2020-07-15T12:31:06Z</time>
      </trkpt>
      <trkpt lat="43.84181" lon="1.97098">
        <ele>239.8</ele>
        <time>2020-07-15T12:31:07Z</time>
      </trkpt>
      <trkpt lat="43.84181" lon="1.97102">
        <ele>240</ele>
        <time>2020-07-15T12:31:08Z</time>
      </trkpt>
      <trkpt lat="43.8418" lon="1.97106">
        <ele>240.2</ele>
        <time>2020-07-15T12:31:09Z</time>
      </trkpt>
      <trkpt lat="43.84179" lon="1.97112">
        <ele>240.2</ele>
        <time>2020-07-15T12:31:10Z</time>
      </trkpt>
      <trkpt lat="43.84178" lon="1.97117">
        <ele>240.4</ele>
        <time>2020-07-15T12:31:11Z</time>
      </trkpt>
      <trkpt lat="43.84177" lon="1.97123">
        <ele>240.4</ele>
        <time>2020-07-15T12:31:12Z</time>
      </trkpt>
      <trkpt lat="43.84176" lon="1.97128">
        <ele>240.6</ele>
        <time>2020-07-15T12:31:13Z</time>
      </trkpt>
      <trkpt lat="43.84176" lon="1.97134">
        <ele>240.6</ele>
        <time>2020-07-15T12:31:14Z</time>
      </trkpt>
      <trkpt lat="43.84175" lon="1.97139">
        <ele>240.6</ele>
        <time>2020-07-15T12:31:15Z</time>
      </trkpt>
      <trkpt lat="43.84174" lon="1.97145">
        <ele>240.6</ele>
        <time>2020-07-15T12:31:16Z</time>
      </trkpt>
      <trkpt lat="43.84174" lon="1.97152">
        <ele>240.4</ele>
        <time>2020-07-15T12:31:17Z</time>
      </trkpt>
      <trkpt lat="43.84173" lon="1.97159">
        <ele>240.4</ele>
        <time>2020-07-15T12:31:18Z</time>
      </trkpt>
      <trkpt lat="43.84172" lon="1.97166">
        <ele>240.4</ele>
        <time>2020-07-15T12:31:19Z</time>
      </trkpt>
      <trkpt lat="43.84171" lon="1.97173">
        <ele>240.4</ele>
        <time>2020-07-15T12:31:20Z</time>
      </trkpt>
      <trkpt lat="43.8417" lon="1.9718">
        <ele>240.4</ele>
        <time>2020-07-15T12:31:21Z</time>
      </trkpt>
      <trkpt lat="43.84169" lon="1.97187">
        <ele>240.4</ele>
        <time>2020-07-15T12:31:22Z</time>
      </trkpt>
      <trkpt lat="43.84168" lon="1.97195">
        <ele>240.4</ele>
        <time>2020-07-15T12:31:23Z</time>
      </trkpt>
      <trkpt lat="43.84168" lon="1.97203">
        <ele>240.4</ele>
        <time>2020-07-15T12:31:24Z</time>
      </trkpt>
      <trkpt lat="43.84168" lon="1.97211">
        <ele>240.4</ele>
        <time>2020-07-15T12:31:25Z</time>
      </trkpt>
      <trkpt lat="43.84167" lon="1.97219">
        <ele>240.4</ele>
        <time>2020-07-15T12:31:26Z</time>
      </trkpt>
      <trkpt lat="43.84166" lon="1.97226">
        <ele>240.4</ele>
        <time>2020-07-15T12:31:27Z</time>
      </trkpt>
      <trkpt lat="43.84165" lon="1.97234">
        <ele>240.4</ele>
        <time>2020-07-15T12:31:28Z</time>
      </trkpt>
      <trkpt lat="43.84164" lon="1.97242">
        <ele>240.6</ele>
        <time>2020-07-15T12:31:29Z</time>
      </trkpt>
      <trkpt lat="43.84163" lon="1.97249">
        <ele>240.6</ele>
        <time>2020-07-15T12:31:30Z</time>
      </trkpt>
      <trkpt lat="43.84162" lon="1.97256">
        <ele>240.8</ele>
        <time>2020-07-15T12:31:31Z</time>
      </trkpt>
      <trkpt lat="43.8416" lon="1.97262">
        <ele>241</ele>
        <time>2020-07-15T12:31:32Z</time>
      </trkpt>
      <trkpt lat="43.84158" lon="1.97268">
        <ele>241.2</ele>
        <time>2020-07-15T12:31:33Z</time>
      </trkpt>
      <trkpt lat="43.84156" lon="1.97274">
        <ele>241.2</ele>
        <time>2020-07-15T12:31:34Z</time>
      </trkpt>
      <trkpt lat="43.84153" lon="1.97281">
        <ele>241.4</ele>
        <time>2020-07-15T12:31:35Z</time>
      </trkpt>
      <trkpt lat="43.84151" lon="1.97287">
        <ele>241.6</ele>
        <time>2020-07-15T12:31:36Z</time>
      </trkpt>
      <trkpt lat="43.84149" lon="1.97293">
        <ele>241.8</ele>
        <time>2020-07-15T12:31:37Z</time>
      </trkpt>
      <trkpt lat="43.84147" lon="1.97298">
        <ele>242</ele>
        <time>2020-07-15T12:31:38Z</time>
      </trkpt>
      <trkpt lat="43.84145" lon="1.97304">
        <ele>242.4</ele>
        <time>2020-07-15T12:31:39Z</time>
      </trkpt>
      <trkpt lat="43.84143" lon="1.97309">
        <ele>242.6</ele>
        <time>2020-07-15T12:31:40Z</time>
      </trkpt>
      <trkpt lat="43.84142" lon="1.97314">
        <ele>242.8</ele>
        <time>2020-07-15T12:31:41Z</time>
      </trkpt>
      <trkpt lat="43.8414" lon="1.9732">
        <ele>243</ele>
        <time>2020-07-15T12:31:42Z</time>
      </trkpt>
      <trkpt lat="43.84139" lon="1.97326">
        <ele>243.2</ele>
        <time>2020-07-15T12:31:43Z</time>
      </trkpt>
      <trkpt lat="43.84136" lon="1.97332">
        <ele>243.2</ele>
        <time>2020-07-15T12:31:44Z</time>
      </trkpt>
      <trkpt lat="43.84134" lon="1.97338">
        <ele>243.4</ele>
        <time>2020-07-15T12:31:45Z</time>
      </trkpt>
      <trkpt lat="43.84132" lon="1.97345">
        <ele>243.4</ele>
        <time>2020-07-15T12:31:46Z</time>
      </trkpt>
      <trkpt lat="43.84129" lon="1.97351">
        <ele>243.4</ele>
        <time>2020-07-15T12:31:47Z</time>
      </trkpt>
      <trkpt lat="43.84127" lon="1.97357">
        <ele>243.4</ele>
        <time>2020-07-15T12:31:48Z</time>
      </trkpt>
      <trkpt lat="43.84124" lon="1.97363">
        <ele>243.6</ele>
        <time>2020-07-15T12:31:49Z</time>
      </trkpt>
      <trkpt lat="43.84122" lon="1.97369">
        <ele>243.4</ele>
        <time>2020-07-15T12:31:50Z</time>
      </trkpt>
      <trkpt lat="43.84119" lon="1.97374">
        <ele>243.6</ele>
        <time>2020-07-15T12:31:51Z</time>
      </trkpt>
      <trkpt lat="43.84115" lon="1.97379">
        <ele>243.4</ele>
        <time>2020-07-15T12:31:52Z</time>
      </trkpt>
      <trkpt lat="43.8411" lon="1.97384">
        <ele>243.4</ele>
        <time>2020-07-15T12:31:53Z</time>
      </trkpt>
      <trkpt lat="43.84105" lon="1.97388">
        <ele>243.2</ele>
        <time>2020-07-15T12:31:54Z</time>
      </trkpt>
      <trkpt lat="43.84099" lon="1.97392">
        <ele>243.2</ele>
        <time>2020-07-15T12:31:55Z</time>
      </trkpt>
      <trkpt lat="43.84093" lon="1.97396">
        <ele>243</ele>
        <time>2020-07-15T12:31:56Z</time>
      </trkpt>
      <trkpt lat="43.84087" lon="1.974">
        <ele>242.8</ele>
        <time>2020-07-15T12:31:57Z</time>
      </trkpt>
      <trkpt lat="43.84081" lon="1.97404">
        <ele>242.6</ele>
        <time>2020-07-15T12:31:58Z</time>
      </trkpt>
      <trkpt lat="43.84074" lon="1.97408">
        <ele>242.2</ele>
        <time>2020-07-15T12:31:59Z</time>
      </trkpt>
      <trkpt lat="43.84068" lon="1.97411">
        <ele>242</ele>
        <time>2020-07-15T12:32:00Z</time>
      </trkpt>
      <trkpt lat="43.8406" lon="1.97416">
        <ele>241.8</ele>
        <time>2020-07-15T12:32:01Z</time>
      </trkpt>
      <trkpt lat="43.84053" lon="1.9742">
        <ele>241.4</ele>
        <time>2020-07-15T12:32:02Z</time>
      </trkpt>
      <trkpt lat="43.84045" lon="1.97424">
        <ele>241.2</ele>
        <time>2020-07-15T12:32:03Z</time>
      </trkpt>
      <trkpt lat="43.84038" lon="1.97429">
        <ele>240.6</ele>
        <time>2020-07-15T12:32:04Z</time>
      </trkpt>
      <trkpt lat="43.84031" lon="1.97435">
        <ele>240</ele>
        <time>2020-07-15T12:32:05Z</time>
      </trkpt>
      <trkpt lat="43.84026" lon="1.97441">
        <ele>239.6</ele>
        <time>2020-07-15T12:32:06Z</time>
      </trkpt>
      <trkpt lat="43.84023" lon="1.97448">
        <ele>239.2</ele>
        <time>2020-07-15T12:32:07Z</time>
      </trkpt>
      <trkpt lat="43.8402" lon="1.97455">
        <ele>238.8</ele>
        <time>2020-07-15T12:32:08Z</time>
      </trkpt>
      <trkpt lat="43.84018" lon="1.97462">
        <ele>238.6</ele>
        <time>2020-07-15T12:32:09Z</time>
      </trkpt>
      <trkpt lat="43.84015" lon="1.97468">
        <ele>238.4</ele>
        <time>2020-07-15T12:32:10Z</time>
      </trkpt>
      <trkpt lat="43.8401" lon="1.97473">
        <ele>238.2</ele>
        <time>2020-07-15T12:32:11Z</time>
      </trkpt>
      <trkpt lat="43.84005" lon="1.97478">
        <ele>238</ele>
        <time>2020-07-15T12:32:12Z</time>
      </trkpt>
      <trkpt lat="43.83999" lon="1.97482">
        <ele>237.8</ele>
        <time>2020-07-15T12:32:13Z</time>
      </trkpt>
      <trkpt lat="43.83994" lon="1.97487">
        <ele>237.8</ele>
        <time>2020-07-15T12:32:14Z</time>
      </trkpt>
      <trkpt lat="43.83989" lon="1.97492">
        <ele>237.8</ele>
        <time>2020-07-15T12:32:15Z</time>
      </trkpt>
      <trkpt lat="43.83983" lon="1.97496">
        <ele>237.8</ele>
        <time>2020-07-15T12:32:16Z</time>
      </trkpt>
      <trkpt lat="43.83978" lon="1.97501">
        <ele>237.8</ele>
        <time>2020-07-15T12:32:17Z</time>
      </trkpt>
      <trkpt lat="43.83973" lon="1.97506">
        <ele>237.8</ele>
        <time>2020-07-15T12:32:18Z</time>
      </trkpt>
      <trkpt lat="43.83968" lon="1.97511">
        <ele>238</ele>
        <time>2020-07-15T12:32:19Z</time>
      </trkpt>
      <trkpt lat="43.83962" lon="1.97515">
        <ele>238</ele>
        <time>2020-07-15T12:32:20Z</time>
      </trkpt>
      <trkpt lat="43.83957" lon="1.9752">
        <ele>238.2</ele>
        <time>2020-07-15T12:32:21Z</time>
      </trkpt>
      <trkpt lat="43.83952" lon="1.97525">
        <ele>238.2</ele>
        <time>2020-07-15T12:32:22Z</time>
      </trkpt>
      <trkpt lat="43.83946" lon="1.9753">
        <ele>238.2</ele>
        <time>2020-07-15T12:32:23Z</time>
      </trkpt>
      <trkpt lat="43.83941" lon="1.97535">
        <ele>238.2</ele>
        <time>2020-07-15T12:32:24Z</time>
      </trkpt>
      <trkpt lat="43.83936" lon="1.9754">
        <ele>238.4</ele>
        <time>2020-07-15T12:32:25Z</time>
      </trkpt>
      <trkpt lat="43.83931" lon="1.97545">
        <ele>238.2</ele>
        <time>2020-07-15T12:32:26Z</time>
      </trkpt>
      <trkpt lat="43.83926" lon="1.97551">
        <ele>238.2</ele>
        <time>2020-07-15T12:32:27Z</time>
      </trkpt>
      <trkpt lat="43.83921" lon="1.97556">
        <ele>238.2</ele>
        <time>2020-07-15T12:32:28Z</time>
      </trkpt>
      <trkpt lat="43.83917" lon="1.97561">
        <ele>238.2</ele>
        <time>2020-07-15T12:32:29Z</time>
      </trkpt>
      <trkpt lat="43.83912" lon="1.97566">
        <ele>238.4</ele>
        <time>2020-07-15T12:32:30Z</time>
      </trkpt>
      <trkpt lat="43.83907" lon="1.97571">
        <ele>238.6</ele>
        <time>2020-07-15T12:32:31Z</time>
      </trkpt>
      <trkpt lat="43.83902" lon="1.97577">
        <ele>238.6</ele>
        <time>2020-07-15T12:32:32Z</time>
      </trkpt>
      <trkpt lat="43.83897" lon="1.97582">
        <ele>238.6</ele>
        <time>2020-07-15T12:32:33Z</time>
      </trkpt>
      <trkpt lat="43.83893" lon="1.97587">
        <ele>238.8</ele>
        <time>2020-07-15T12:32:34Z</time>
      </trkpt>
      <trkpt lat="43.83888" lon="1.97592">
        <ele>239</ele>
        <time>2020-07-15T12:32:35Z</time>
      </trkpt>
      <trkpt lat="43.83883" lon="1.97597">
        <ele>239.2</ele>
        <time>2020-07-15T12:32:36Z</time>
      </trkpt>
      <trkpt lat="43.83878" lon="1.97601">
        <ele>239.2</ele>
        <time>2020-07-15T12:32:37Z</time>
      </trkpt>
      <trkpt lat="43.83872" lon="1.97604">
        <ele>239.4</ele>
        <time>2020-07-15T12:32:38Z</time>
      </trkpt>
      <trkpt lat="43.83867" lon="1.97606">
        <ele>239.4</ele>
        <time>2020-07-15T12:32:39Z</time>
      </trkpt>
      <trkpt lat="43.83861" lon="1.97606">
        <ele>239.6</ele>
        <time>2020-07-15T12:32:40Z</time>
      </trkpt>
      <trkpt lat="43.83855" lon="1.97605">
        <ele>239.6</ele>
        <time>2020-07-15T12:32:41Z</time>
      </trkpt>
      <trkpt lat="43.8385" lon="1.97602">
        <ele>239.8</ele>
        <time>2020-07-15T12:32:42Z</time>
      </trkpt>
      <trkpt lat="43.83845" lon="1.97598">
        <ele>240</ele>
        <time>2020-07-15T12:32:43Z</time>
      </trkpt>
      <trkpt lat="43.8384" lon="1.97594">
        <ele>240</ele>
        <time>2020-07-15T12:32:44Z</time>
      </trkpt>
      <trkpt lat="43.83836" lon="1.97588">
        <ele>240.2</ele>
        <time>2020-07-15T12:32:45Z</time>
      </trkpt>
      <trkpt lat="43.83832" lon="1.97583">
        <ele>240.4</ele>
        <time>2020-07-15T12:32:46Z</time>
      </trkpt>
      <trkpt lat="43.83828" lon="1.97578">
        <ele>240.6</ele>
        <time>2020-07-15T12:32:47Z</time>
      </trkpt>
      <trkpt lat="43.83823" lon="1.97573">
        <ele>240.6</ele>
        <time>2020-07-15T12:32:48Z</time>
      </trkpt>
      <trkpt lat="43.8382" lon="1.97568">
        <ele>240.8</ele>
        <time>2020-07-15T12:32:49Z</time>
      </trkpt>
      <trkpt lat="43.83815" lon="1.97563">
        <ele>241</ele>
        <time>2020-07-15T12:32:50Z</time>
      </trkpt>
      <trkpt lat="43.83811" lon="1.97559">
        <ele>241.2</ele>
        <time>2020-07-15T12:32:51Z</time>
      </trkpt>
      <trkpt lat="43.83807" lon="1.97554">
        <ele>241.2</ele>
        <time>2020-07-15T12:32:52Z</time>
      </trkpt>
      <trkpt lat="43.83803" lon="1.97549">
        <ele>241.4</ele>
        <time>2020-07-15T12:32:53Z</time>
      </trkpt>
      <trkpt lat="43.83799" lon="1.97544">
        <ele>241.6</ele>
        <time>2020-07-15T12:32:54Z</time>
      </trkpt>
      <trkpt lat="43.83796" lon="1.9754">
        <ele>241.8</ele>
        <time>2020-07-15T12:32:55Z</time>
      </trkpt>
      <trkpt lat="43.83792" lon="1.97536">
        <ele>242.2</ele>
        <time>2020-07-15T12:32:56Z</time>
      </trkpt>
      <trkpt lat="43.83788" lon="1.97532">
        <ele>242.4</ele>
        <time>2020-07-15T12:32:57Z</time>
      </trkpt>
      <trkpt lat="43.83785" lon="1.97527">
        <ele>242.6</ele>
        <time>2020-07-15T12:32:58Z</time>
      </trkpt>
      <trkpt lat="43.83782" lon="1.97523">
        <ele>243</ele>
        <time>2020-07-15T12:32:59Z</time>
      </trkpt>
      <trkpt lat="43.83779" lon="1.9752">
        <ele>243.2</ele>
        <time>2020-07-15T12:33:00Z</time>
      </trkpt>
      <trkpt lat="43.83775" lon="1.97516">
        <ele>243.4</ele>
        <time>2020-07-15T12:33:01Z</time>
      </trkpt>
      <trkpt lat="43.83772" lon="1.97512">
        <ele>243.8</ele>
        <time>2020-07-15T12:33:02Z</time>
      </trkpt>
      <trkpt lat="43.83769" lon="1.97508">
        <ele>244</ele>
        <time>2020-07-15T12:33:03Z</time>
      </trkpt>
      <trkpt lat="43.83766" lon="1.97505">
        <ele>244.4</ele>
        <time>2020-07-15T12:33:04Z</time>
      </trkpt>
      <trkpt lat="43.83763" lon="1.97501">
        <ele>244.6</ele>
        <time>2020-07-15T12:33:05Z</time>
      </trkpt>
      <trkpt lat="43.8376" lon="1.97497">
        <ele>245</ele>
        <time>2020-07-15T12:33:06Z</time>
      </trkpt>
      <trkpt lat="43.83757" lon="1.97494">
        <ele>245.4</ele>
        <time>2020-07-15T12:33:07Z</time>
      </trkpt>
      <trkpt lat="43.83754" lon="1.9749">
        <ele>245.8</ele>
        <time>2020-07-15T12:33:08Z</time>
      </trkpt>
      <trkpt lat="43.83751" lon="1.97487">
        <ele>246.2</ele>
        <time>2020-07-15T12:33:09Z</time>
      </trkpt>
      <trkpt lat="43.83749" lon="1.97483">
        <ele>246.4</ele>
        <time>2020-07-15T12:33:10Z</time>
      </trkpt>
      <trkpt lat="43.83746" lon="1.97479">
        <ele>246.8</ele>
        <time>2020-07-15T12:33:11Z</time>
      </trkpt>
      <trkpt lat="43.83743" lon="1.97476">
        <ele>247</ele>
        <time>2020-07-15T12:33:12Z</time>
      </trkpt>
      <trkpt lat="43.8374" lon="1.97473">
        <ele>247.4</ele>
        <time>2020-07-15T12:33:13Z</time>
      </trkpt>
      <trkpt lat="43.83738" lon="1.97469">
        <ele>247.8</ele>
        <time>2020-07-15T12:33:14Z</time>
      </trkpt>
      <trkpt lat="43.83735" lon="1.97466">
        <ele>248</ele>
        <time>2020-07-15T12:33:15Z</time>
      </trkpt>
      <trkpt lat="43.83732" lon="1.97462">
        <ele>248.4</ele>
        <time>2020-07-15T12:33:16Z</time>
      </trkpt>
      <trkpt lat="43.83729" lon="1.97459">
        <ele>248.8</ele>
        <time>2020-07-15T12:33:17Z</time>
      </trkpt>
      <trkpt lat="43.83726" lon="1.97456">
        <ele>249.2</ele>
        <time>2020-07-15T12:33:18Z</time>
      </trkpt>
      <trkpt lat="43.83723" lon="1.97453">
        <ele>249.6</ele>
        <time>2020-07-15T12:33:19Z</time>
      </trkpt>
      <trkpt lat="43.8372" lon="1.97449">
        <ele>249.8</ele>
        <time>2020-07-15T12:33:20Z</time>
      </trkpt>
      <trkpt lat="43.83717" lon="1.97446">
        <ele>250.2</ele>
        <time>2020-07-15T12:33:21Z</time>
      </trkpt>
      <trkpt lat="43.83714" lon="1.97444">
        <ele>250.6</ele>
        <time>2020-07-15T12:33:22Z</time>
      </trkpt>
      <trkpt lat="43.83711" lon="1.97442">
        <ele>251</ele>
        <time>2020-07-15T12:33:23Z</time>
      </trkpt>
      <trkpt lat="43.83707" lon="1.9744">
        <ele>251.2</ele>
        <time>2020-07-15T12:33:24Z</time>
      </trkpt>
      <trkpt lat="43.83704" lon="1.97439">
        <ele>251.6</ele>
        <time>2020-07-15T12:33:25Z</time>
      </trkpt>
      <trkpt lat="43.83701" lon="1.97438">
        <ele>252</ele>
        <time>2020-07-15T12:33:26Z</time>
      </trkpt>
      <trkpt lat="43.83698" lon="1.97437">
        <ele>252.2</ele>
        <time>2020-07-15T12:33:27Z</time>
      </trkpt>
      <trkpt lat="43.83695" lon="1.97436">
        <ele>252.6</ele>
        <time>2020-07-15T12:33:28Z</time>
      </trkpt>
      <trkpt lat="43.83691" lon="1.97436">
        <ele>253</ele>
        <time>2020-07-15T12:33:29Z</time>
      </trkpt>
      <trkpt lat="43.83687" lon="1.97436">
        <ele>253.4</ele>
        <time>2020-07-15T12:33:30Z</time>
      </trkpt>
      <trkpt lat="43.83684" lon="1.97436">
        <ele>253.6</ele>
        <time>2020-07-15T12:33:31Z</time>
      </trkpt>
      <trkpt lat="43.8368" lon="1.97436">
        <ele>254</ele>
        <time>2020-07-15T12:33:32Z</time>
      </trkpt>
      <trkpt lat="43.83677" lon="1.97436">
        <ele>254.4</ele>
        <time>2020-07-15T12:33:33Z</time>
      </trkpt>
      <trkpt lat="43.83674" lon="1.97436">
        <ele>254.6</ele>
        <time>2020-07-15T12:33:34Z</time>
      </trkpt>
      <trkpt lat="43.8367" lon="1.97435">
        <ele>255</ele>
        <time>2020-07-15T12:33:35Z</time>
      </trkpt>
      <trkpt lat="43.83667" lon="1.97436">
        <ele>255.4</ele>
        <time>2020-07-15T12:33:36Z</time>
      </trkpt>
      <trkpt lat="43.83663" lon="1.97436">
        <ele>255.6</ele>
        <time>2020-07-15T12:33:37Z</time>
      </trkpt>
      <trkpt lat="43.8366" lon="1.97437">
        <ele>255.8</ele>
        <time>2020-07-15T12:33:38Z</time>
      </trkpt>
      <trkpt lat="43.83656" lon="1.97438">
        <ele>256.2</ele>
        <time>2020-07-15T12:33:39Z</time>
      </trkpt>
      <trkpt lat="43.83654" lon="1.9744">
        <ele>256.4</ele>
        <time>2020-07-15T12:33:40Z</time>
      </trkpt>
      <trkpt lat="43.8365" lon="1.9744">
        <ele>256.8</ele>
        <time>2020-07-15T12:33:41Z</time>
      </trkpt>
      <trkpt lat="43.83648" lon="1.97439">
        <ele>256.8</ele>
        <time>2020-07-15T12:33:42Z</time>
      </trkpt>
      <trkpt lat="43.83645" lon="1.97438">
        <ele>257</ele>
        <time>2020-07-15T12:33:43Z</time>
      </trkpt>
      <trkpt lat="43.83643" lon="1.97439">
        <ele>257.2</ele>
        <time>2020-07-15T12:33:44Z</time>
      </trkpt>
      <trkpt lat="43.83641" lon="1.97441">
        <ele>257.4</ele>
        <time>2020-07-15T12:33:45Z</time>
      </trkpt>
      <trkpt lat="43.83638" lon="1.97444">
        <ele>257.4</ele>
        <time>2020-07-15T12:33:46Z</time>
      </trkpt>
      <trkpt lat="43.83636" lon="1.97446">
        <ele>257.6</ele>
        <time>2020-07-15T12:33:47Z</time>
      </trkpt>
      <trkpt lat="43.83634" lon="1.97449">
        <ele>257.8</ele>
        <time>2020-07-15T12:33:48Z</time>
      </trkpt>
      <trkpt lat="43.83632" lon="1.97451">
        <ele>258</ele>
        <time>2020-07-15T12:33:49Z</time>
      </trkpt>
      <trkpt lat="43.83629" lon="1.97454">
        <ele>258</ele>
        <time>2020-07-15T12:33:50Z</time>
      </trkpt>
      <trkpt lat="43.83626" lon="1.97456">
        <ele>258.4</ele>
        <time>2020-07-15T12:33:51Z</time>
      </trkpt>
      <trkpt lat="43.83624" lon="1.97458">
        <ele>258.6</ele>
        <time>2020-07-15T12:33:52Z</time>
      </trkpt>
      <trkpt lat="43.83621" lon="1.97461">
        <ele>258.8</ele>
        <time>2020-07-15T12:33:53Z</time>
      </trkpt>
      <trkpt lat="43.83619" lon="1.97463">
        <ele>259.2</ele>
        <time>2020-07-15T12:33:54Z</time>
      </trkpt>
      <trkpt lat="43.83616" lon="1.97465">
        <ele>259.6</ele>
        <time>2020-07-15T12:33:55Z</time>
      </trkpt>
      <trkpt lat="43.83613" lon="1.97467">
        <ele>260</ele>
        <time>2020-07-15T12:33:56Z</time>
      </trkpt>
      <trkpt lat="43.8361" lon="1.97468">
        <ele>260.6</ele>
        <time>2020-07-15T12:33:57Z</time>
      </trkpt>
      <trkpt lat="43.83608" lon="1.97469">
        <ele>261</ele>
        <time>2020-07-15T12:33:58Z</time>
      </trkpt>
      <trkpt lat="43.83604" lon="1.9747">
        <ele>261.4</ele>
        <time>2020-07-15T12:33:59Z</time>
      </trkpt>
      <trkpt lat="43.83601" lon="1.97471">
        <ele>262</ele>
        <time>2020-07-15T12:34:00Z</time>
      </trkpt>
      <trkpt lat="43.83598" lon="1.9747">
        <ele>262.6</ele>
        <time>2020-07-15T12:34:01Z</time>
      </trkpt>
      <trkpt lat="43.83595" lon="1.9747">
        <ele>263</ele>
        <time>2020-07-15T12:34:02Z</time>
      </trkpt>
      <trkpt lat="43.83592" lon="1.9747">
        <ele>263.6</ele>
        <time>2020-07-15T12:34:03Z</time>
      </trkpt>
      <trkpt lat="43.83589" lon="1.97469">
        <ele>264.2</ele>
        <time>2020-07-15T12:34:04Z</time>
      </trkpt>
      <trkpt lat="43.83586" lon="1.97468">
        <ele>264.8</ele>
        <time>2020-07-15T12:34:05Z</time>
      </trkpt>
      <trkpt lat="43.83583" lon="1.97467">
        <ele>265.4</ele>
        <time>2020-07-15T12:34:06Z</time>
      </trkpt>
      <trkpt lat="43.8358" lon="1.97465">
        <ele>266.2</ele>
        <time>2020-07-15T12:34:07Z</time>
      </trkpt>
      <trkpt lat="43.83578" lon="1.97464">
        <ele>266.8</ele>
        <time>2020-07-15T12:34:08Z</time>
      </trkpt>
      <trkpt lat="43.83575" lon="1.97463">
        <ele>267.4</ele>
        <time>2020-07-15T12:34:09Z</time>
      </trkpt>
      <trkpt lat="43.83572" lon="1.97462">
        <ele>268</ele>
        <time>2020-07-15T12:34:10Z</time>
      </trkpt>
      <trkpt lat="43.83569" lon="1.97462">
        <ele>268.6</ele>
        <time>2020-07-15T12:34:11Z</time>
      </trkpt>
      <trkpt lat="43.83566" lon="1.97462">
        <ele>269.2</ele>
        <time>2020-07-15T12:34:12Z</time>
      </trkpt>
      <trkpt lat="43.83564" lon="1.97462">
        <ele>269.6</ele>
        <time>2020-07-15T12:34:13Z</time>
      </trkpt>
      <trkpt lat="43.83561" lon="1.97463">
        <ele>270.2</ele>
        <time>2020-07-15T12:34:14Z</time>
      </trkpt>
      <trkpt lat="43.83558" lon="1.97464">
        <ele>270.6</ele>
        <time>2020-07-15T12:34:15Z</time>
      </trkpt>
      <trkpt lat="43.83556" lon="1.97466">
        <ele>271.2</ele>
        <time>2020-07-15T12:34:16Z</time>
      </trkpt>
      <trkpt lat="43.83553" lon="1.97467">
        <ele>271.6</ele>
        <time>2020-07-15T12:34:17Z</time>
      </trkpt>
      <trkpt lat="43.8355" lon="1.97469">
        <ele>271.8</ele>
        <time>2020-07-15T12:34:18Z</time>
      </trkpt>
      <trkpt lat="43.83547" lon="1.9747">
        <ele>272.2</ele>
        <time>2020-07-15T12:34:19Z</time>
      </trkpt>
      <trkpt lat="43.83544" lon="1.97471">
        <ele>272.4</ele>
        <time>2020-07-15T12:34:20Z</time>
      </trkpt>
      <trkpt lat="43.83541" lon="1.97473">
        <ele>272.8</ele>
        <time>2020-07-15T12:34:21Z</time>
      </trkpt>
      <trkpt lat="43.83538" lon="1.97474">
        <ele>273</ele>
        <time>2020-07-15T12:34:22Z</time>
      </trkpt>
      <trkpt lat="43.83535" lon="1.97476">
        <ele>273.4</ele>
        <time>2020-07-15T12:34:23Z</time>
      </trkpt>
      <trkpt lat="43.83532" lon="1.97477">
        <ele>273.6</ele>
        <time>2020-07-15T12:34:24Z</time>
      </trkpt>
      <trkpt lat="43.8353" lon="1.97478">
        <ele>274</ele>
        <time>2020-07-15T12:34:25Z</time>
      </trkpt>
      <trkpt lat="43.83527" lon="1.97479">
        <ele>274.4</ele>
        <time>2020-07-15T12:34:26Z</time>
      </trkpt>
      <trkpt lat="43.83524" lon="1.9748">
        <ele>274.6</ele>
        <time>2020-07-15T12:34:27Z</time>
      </trkpt>
      <trkpt lat="43.83521" lon="1.97481">
        <ele>275</ele>
        <time>2020-07-15T12:34:28Z</time>
      </trkpt>
      <trkpt lat="43.83517" lon="1.97482">
        <ele>275.4</ele>
        <time>2020-07-15T12:34:29Z</time>
      </trkpt>
      <trkpt lat="43.83514" lon="1.97483">
        <ele>275.6</ele>
        <time>2020-07-15T12:34:30Z</time>
      </trkpt>
      <trkpt lat="43.83511" lon="1.97483">
        <ele>276</ele>
        <time>2020-07-15T12:34:31Z</time>
      </trkpt>
      <trkpt lat="43.83508" lon="1.97483">
        <ele>276.2</ele>
        <time>2020-07-15T12:34:32Z</time>
      </trkpt>
      <trkpt lat="43.83505" lon="1.97483">
        <ele>276.4</ele>
        <time>2020-07-15T12:34:33Z</time>
      </trkpt>
      <trkpt lat="43.83502" lon="1.97483">
        <ele>276.8</ele>
        <time>2020-07-15T12:34:34Z</time>
      </trkpt>
      <trkpt lat="43.83499" lon="1.97482">
        <ele>277</ele>
        <time>2020-07-15T12:34:35Z</time>
      </trkpt>
      <trkpt lat="43.83496" lon="1.97481">
        <ele>277.2</ele>
        <time>2020-07-15T12:34:36Z</time>
      </trkpt>
      <trkpt lat="43.83493" lon="1.9748">
        <ele>277.6</ele>
        <time>2020-07-15T12:34:37Z</time>
      </trkpt>
      <trkpt lat="43.8349" lon="1.97478">
        <ele>277.8</ele>
        <time>2020-07-15T12:34:38Z</time>
      </trkpt>
      <trkpt lat="43.83487" lon="1.97476">
        <ele>278.2</ele>
        <time>2020-07-15T12:34:39Z</time>
      </trkpt>
      <trkpt lat="43.83484" lon="1.97474">
        <ele>278.2</ele>
        <time>2020-07-15T12:34:40Z</time>
      </trkpt>
      <trkpt lat="43.8348" lon="1.97472">
        <ele>278.4</ele>
        <time>2020-07-15T12:34:41Z</time>
      </trkpt>
      <trkpt lat="43.83477" lon="1.9747">
        <ele>278.6</ele>
        <time>2020-07-15T12:34:42Z</time>
      </trkpt>
      <trkpt lat="43.83474" lon="1.97468">
        <ele>279</ele>
        <time>2020-07-15T12:34:43Z</time>
      </trkpt>
      <trkpt lat="43.83471" lon="1.97466">
        <ele>279.2</ele>
        <time>2020-07-15T12:34:44Z</time>
      </trkpt>
      <trkpt lat="43.83467" lon="1.97464">
        <ele>279.4</ele>
        <time>2020-07-15T12:34:45Z</time>
      </trkpt>
      <trkpt lat="43.83464" lon="1.97461">
        <ele>279.8</ele>
        <time>2020-07-15T12:34:46Z</time>
      </trkpt>
      <trkpt lat="43.83461" lon="1.9746">
        <ele>280</ele>
        <time>2020-07-15T12:34:47Z</time>
      </trkpt>
      <trkpt lat="43.83458" lon="1.97458">
        <ele>280.2</ele>
        <time>2020-07-15T12:34:48Z</time>
      </trkpt>
      <trkpt lat="43.83455" lon="1.97456">
        <ele>280.4</ele>
        <time>2020-07-15T12:34:49Z</time>
      </trkpt>
      <trkpt lat="43.83451" lon="1.97454">
        <ele>280.8</ele>
        <time>2020-07-15T12:34:50Z</time>
      </trkpt>
      <trkpt lat="43.83448" lon="1.97452">
        <ele>281</ele>
        <time>2020-07-15T12:34:51Z</time>
      </trkpt>
      <trkpt lat="43.83444" lon="1.97451">
        <ele>281.4</ele>
        <time>2020-07-15T12:34:52Z</time>
      </trkpt>
      <trkpt lat="43.8344" lon="1.9745">
        <ele>281.6</ele>
        <time>2020-07-15T12:34:53Z</time>
      </trkpt>
      <trkpt lat="43.83436" lon="1.97449">
        <ele>281.8</ele>
        <time>2020-07-15T12:34:54Z</time>
      </trkpt>
      <trkpt lat="43.83432" lon="1.97448">
        <ele>282.2</ele>
        <time>2020-07-15T12:34:55Z</time>
      </trkpt>
      <trkpt lat="43.83429" lon="1.97447">
        <ele>282.6</ele>
        <time>2020-07-15T12:34:56Z</time>
      </trkpt>
      <trkpt lat="43.83426" lon="1.97447">
        <ele>282.8</ele>
        <time>2020-07-15T12:34:57Z</time>
      </trkpt>
      <trkpt lat="43.83422" lon="1.97447">
        <ele>283.2</ele>
        <time>2020-07-15T12:34:58Z</time>
      </trkpt>
      <trkpt lat="43.83419" lon="1.97448">
        <ele>283.6</ele>
        <time>2020-07-15T12:34:59Z</time>
      </trkpt>
      <trkpt lat="43.83415" lon="1.97449">
        <ele>283.8</ele>
        <time>2020-07-15T12:35:00Z</time>
      </trkpt>
      <trkpt lat="43.83411" lon="1.9745">
        <ele>284.2</ele>
        <time>2020-07-15T12:35:01Z</time>
      </trkpt>
      <trkpt lat="43.83408" lon="1.97451">
        <ele>284.4</ele>
        <time>2020-07-15T12:35:02Z</time>
      </trkpt>
      <trkpt lat="43.83404" lon="1.97452">
        <ele>284.6</ele>
        <time>2020-07-15T12:35:03Z</time>
      </trkpt>
      <trkpt lat="43.834" lon="1.97453">
        <ele>284.8</ele>
        <time>2020-07-15T12:35:04Z</time>
      </trkpt>
      <trkpt lat="43.83397" lon="1.97454">
        <ele>285</ele>
        <time>2020-07-15T12:35:05Z</time>
      </trkpt>
      <trkpt lat="43.83393" lon="1.97455">
        <ele>285.2</ele>
        <time>2020-07-15T12:35:06Z</time>
      </trkpt>
      <trkpt lat="43.83389" lon="1.97456">
        <ele>285.2</ele>
        <time>2020-07-15T12:35:07Z</time>
      </trkpt>
      <trkpt lat="43.83385" lon="1.97457">
        <ele>285.4</ele>
        <time>2020-07-15T12:35:08Z</time>
      </trkpt>
      <trkpt lat="43.83381" lon="1.97458">
        <ele>285.4</ele>
        <time>2020-07-15T12:35:09Z</time>
      </trkpt>
      <trkpt lat="43.83376" lon="1.9746">
        <ele>285.4</ele>
        <time>2020-07-15T12:35:10Z</time>
      </trkpt>
      <trkpt lat="43.83371" lon="1.97463">
        <ele>285.2</ele>
        <time>2020-07-15T12:35:11Z</time>
      </trkpt>
      <trkpt lat="43.83366" lon="1.97466">
        <ele>285</ele>
        <time>2020-07-15T12:35:12Z</time>
      </trkpt>
      <trkpt lat="43.83361" lon="1.97469">
        <ele>284.8</ele>
        <time>2020-07-15T12:35:13Z</time>
      </trkpt>
      <trkpt lat="43.83355" lon="1.97473">
        <ele>284.6</ele>
        <time>2020-07-15T12:35:14Z</time>
      </trkpt>
      <trkpt lat="43.8335" lon="1.97477">
        <ele>284.4</ele>
        <time>2020-07-15T12:35:15Z</time>
      </trkpt>
      <trkpt lat="43.83344" lon="1.9748">
        <ele>284.2</ele>
        <time>2020-07-15T12:35:16Z</time>
      </trkpt>
      <trkpt lat="43.83338" lon="1.97484">
        <ele>284</ele>
        <time>2020-07-15T12:35:17Z</time>
      </trkpt>
      <trkpt lat="43.83332" lon="1.97487">
        <ele>283.8</ele>
        <time>2020-07-15T12:35:18Z</time>
      </trkpt>
      <trkpt lat="43.83326" lon="1.9749">
        <ele>283.6</ele>
        <time>2020-07-15T12:35:19Z</time>
      </trkpt>
      <trkpt lat="43.8332" lon="1.97492">
        <ele>283.4</ele>
        <time>2020-07-15T12:35:20Z</time>
      </trkpt>
      <trkpt lat="43.83315" lon="1.97495">
        <ele>283.4</ele>
        <time>2020-07-15T12:35:21Z</time>
      </trkpt>
      <trkpt lat="43.8331" lon="1.97498">
        <ele>283.4</ele>
        <time>2020-07-15T12:35:22Z</time>
      </trkpt>
      <trkpt lat="43.83305" lon="1.97502">
        <ele>283.6</ele>
        <time>2020-07-15T12:35:23Z</time>
      </trkpt>
      <trkpt lat="43.83302" lon="1.97506">
        <ele>284</ele>
        <time>2020-07-15T12:35:24Z</time>
      </trkpt>
      <trkpt lat="43.83299" lon="1.9751">
        <ele>284.2</ele>
        <time>2020-07-15T12:35:25Z</time>
      </trkpt>
      <trkpt lat="43.83295" lon="1.97515">
        <ele>284.4</ele>
        <time>2020-07-15T12:35:26Z</time>
      </trkpt>
      <trkpt lat="43.83292" lon="1.97519">
        <ele>284.4</ele>
        <time>2020-07-15T12:35:27Z</time>
      </trkpt>
      <trkpt lat="43.83289" lon="1.97524">
        <ele>284.8</ele>
        <time>2020-07-15T12:35:28Z</time>
      </trkpt>
      <trkpt lat="43.83286" lon="1.97528">
        <ele>285</ele>
        <time>2020-07-15T12:35:29Z</time>
      </trkpt>
      <trkpt lat="43.83283" lon="1.97532">
        <ele>285.4</ele>
        <time>2020-07-15T12:35:30Z</time>
      </trkpt>
      <trkpt lat="43.8328" lon="1.97536">
        <ele>285.6</ele>
        <time>2020-07-15T12:35:31Z</time>
      </trkpt>
      <trkpt lat="43.83278" lon="1.97539">
        <ele>286</ele>
        <time>2020-07-15T12:35:32Z</time>
      </trkpt>
      <trkpt lat="43.83275" lon="1.97542">
        <ele>286.4</ele>
        <time>2020-07-15T12:35:33Z</time>
      </trkpt>
      <trkpt lat="43.83272" lon="1.97545">
        <ele>286.8</ele>
        <time>2020-07-15T12:35:34Z</time>
      </trkpt>
      <trkpt lat="43.83269" lon="1.97548">
        <ele>287.2</ele>
        <time>2020-07-15T12:35:35Z</time>
      </trkpt>
      <trkpt lat="43.83266" lon="1.9755">
        <ele>287.6</ele>
        <time>2020-07-15T12:35:36Z</time>
      </trkpt>
      <trkpt lat="43.83263" lon="1.97553">
        <ele>288</ele>
        <time>2020-07-15T12:35:37Z</time>
      </trkpt>
      <trkpt lat="43.8326" lon="1.97555">
        <ele>288.4</ele>
        <time>2020-07-15T12:35:38Z</time>
      </trkpt>
      <trkpt lat="43.83258" lon="1.97557">
        <ele>288.8</ele>
        <time>2020-07-15T12:35:39Z</time>
      </trkpt>
      <trkpt lat="43.83255" lon="1.9756">
        <ele>289</ele>
        <time>2020-07-15T12:35:40Z</time>
      </trkpt>
      <trkpt lat="43.83252" lon="1.97563">
        <ele>289.4</ele>
        <time>2020-07-15T12:35:41Z</time>
      </trkpt>
      <trkpt lat="43.83249" lon="1.97566">
        <ele>289.6</ele>
        <time>2020-07-15T12:35:42Z</time>
      </trkpt>
      <trkpt lat="43.83246" lon="1.9757">
        <ele>289.8</ele>
        <time>2020-07-15T12:35:43Z</time>
      </trkpt>
      <trkpt lat="43.83243" lon="1.97574">
        <ele>290</ele>
        <time>2020-07-15T12:35:44Z</time>
      </trkpt>
      <trkpt lat="43.8324" lon="1.97577">
        <ele>290.2</ele>
        <time>2020-07-15T12:35:45Z</time>
      </trkpt>
      <trkpt lat="43.83237" lon="1.97581">
        <ele>290.4</ele>
        <time>2020-07-15T12:35:46Z</time>
      </trkpt>
      <trkpt lat="43.83234" lon="1.97584">
        <ele>290.4</ele>
        <time>2020-07-15T12:35:47Z</time>
      </trkpt>
      <trkpt lat="43.83231" lon="1.97587">
        <ele>290.6</ele>
        <time>2020-07-15T12:35:48Z</time>
      </trkpt>
      <trkpt lat="43.83228" lon="1.97591">
        <ele>290.8</ele>
        <time>2020-07-15T12:35:49Z</time>
      </trkpt>
      <trkpt lat="43.83224" lon="1.97594">
        <ele>291</ele>
        <time>2020-07-15T12:35:50Z</time>
      </trkpt>
      <trkpt lat="43.83221" lon="1.97597">
        <ele>291</ele>
        <time>2020-07-15T12:35:51Z</time>
      </trkpt>
      <trkpt lat="43.83217" lon="1.97601">
        <ele>291</ele>
        <time>2020-07-15T12:35:52Z</time>
      </trkpt>
      <trkpt lat="43.83213" lon="1.97605">
        <ele>291</ele>
        <time>2020-07-15T12:35:53Z</time>
      </trkpt>
      <trkpt lat="43.8321" lon="1.97609">
        <ele>291</ele>
        <time>2020-07-15T12:35:54Z</time>
      </trkpt>
      <trkpt lat="43.83206" lon="1.97613">
        <ele>291</ele>
        <time>2020-07-15T12:35:55Z</time>
      </trkpt>
      <trkpt lat="43.83202" lon="1.97618">
        <ele>291</ele>
        <time>2020-07-15T12:35:56Z</time>
      </trkpt>
      <trkpt lat="43.83198" lon="1.97623">
        <ele>291</ele>
        <time>2020-07-15T12:35:57Z</time>
      </trkpt>
      <trkpt lat="43.83194" lon="1.97628">
        <ele>290.8</ele>
        <time>2020-07-15T12:35:58Z</time>
      </trkpt>
      <trkpt lat="43.8319" lon="1.97632">
        <ele>290.8</ele>
        <time>2020-07-15T12:35:59Z</time>
      </trkpt>
      <trkpt lat="43.83187" lon="1.97637">
        <ele>290.8</ele>
        <time>2020-07-15T12:36:00Z</time>
      </trkpt>
      <trkpt lat="43.83182" lon="1.97642">
        <ele>290.8</ele>
        <time>2020-07-15T12:36:01Z</time>
      </trkpt>
      <trkpt lat="43.83178" lon="1.97646">
        <ele>290.8</ele>
        <time>2020-07-15T12:36:02Z</time>
      </trkpt>
      <trkpt lat="43.83173" lon="1.9765">
        <ele>291</ele>
        <time>2020-07-15T12:36:03Z</time>
      </trkpt>
      <trkpt lat="43.83169" lon="1.97654">
        <ele>291</ele>
        <time>2020-07-15T12:36:04Z</time>
      </trkpt>
      <trkpt lat="43.83165" lon="1.97657">
        <ele>291.2</ele>
        <time>2020-07-15T12:36:05Z</time>
      </trkpt>
      <trkpt lat="43.83161" lon="1.9766">
        <ele>291.4</ele>
        <time>2020-07-15T12:36:06Z</time>
      </trkpt>
      <trkpt lat="43.83157" lon="1.97664">
        <ele>291.6</ele>
        <time>2020-07-15T12:36:07Z</time>
      </trkpt>
      <trkpt lat="43.83154" lon="1.97667">
        <ele>291.8</ele>
        <time>2020-07-15T12:36:08Z</time>
      </trkpt>
      <trkpt lat="43.83149" lon="1.97669">
        <ele>292</ele>
        <time>2020-07-15T12:36:09Z</time>
      </trkpt>
      <trkpt lat="43.83146" lon="1.97671">
        <ele>292.2</ele>
        <time>2020-07-15T12:36:10Z</time>
      </trkpt>
      <trkpt lat="43.83141" lon="1.97673">
        <ele>292.2</ele>
        <time>2020-07-15T12:36:11Z</time>
      </trkpt>
      <trkpt lat="43.83138" lon="1.97674">
        <ele>292.4</ele>
        <time>2020-07-15T12:36:12Z</time>
      </trkpt>
      <trkpt lat="43.83133" lon="1.97676">
        <ele>292.6</ele>
        <time>2020-07-15T12:36:13Z</time>
      </trkpt>
      <trkpt lat="43.8313" lon="1.97678">
        <ele>292.6</ele>
        <time>2020-07-15T12:36:14Z</time>
      </trkpt>
      <trkpt lat="43.83125" lon="1.97679">
        <ele>292.6</ele>
        <time>2020-07-15T12:36:15Z</time>
      </trkpt>
      <trkpt lat="43.8312" lon="1.97682">
        <ele>292.6</ele>
        <time>2020-07-15T12:36:16Z</time>
      </trkpt>
      <trkpt lat="43.83117" lon="1.97685">
        <ele>292.6</ele>
        <time>2020-07-15T12:36:17Z</time>
      </trkpt>
      <trkpt lat="43.83114" lon="1.97689">
        <ele>292.6</ele>
        <time>2020-07-15T12:36:18Z</time>
      </trkpt>
      <trkpt lat="43.8311" lon="1.97694">
        <ele>292.8</ele>
        <time>2020-07-15T12:36:19Z</time>
      </trkpt>
      <trkpt lat="43.83108" lon="1.97699">
        <ele>292.8</ele>
        <time>2020-07-15T12:36:20Z</time>
      </trkpt>
      <trkpt lat="43.83105" lon="1.97705">
        <ele>292.8</ele>
        <time>2020-07-15T12:36:21Z</time>
      </trkpt>
      <trkpt lat="43.83102" lon="1.9771">
        <ele>292.8</ele>
        <time>2020-07-15T12:36:22Z</time>
      </trkpt>
      <trkpt lat="43.83101" lon="1.97715">
        <ele>292.8</ele>
        <time>2020-07-15T12:36:23Z</time>
      </trkpt>
      <trkpt lat="43.83098" lon="1.9772">
        <ele>292.8</ele>
        <time>2020-07-15T12:36:24Z</time>
      </trkpt>
      <trkpt lat="43.83096" lon="1.97725">
        <ele>292.8</ele>
        <time>2020-07-15T12:36:25Z</time>
      </trkpt>
      <trkpt lat="43.83093" lon="1.9773">
        <ele>292.8</ele>
        <time>2020-07-15T12:36:26Z</time>
      </trkpt>
      <trkpt lat="43.83089" lon="1.97735">
        <ele>292.8</ele>
        <time>2020-07-15T12:36:27Z</time>
      </trkpt>
      <trkpt lat="43.83086" lon="1.9774">
        <ele>293</ele>
        <time>2020-07-15T12:36:28Z</time>
      </trkpt>
      <trkpt lat="43.83083" lon="1.97745">
        <ele>293</ele>
        <time>2020-07-15T12:36:29Z</time>
      </trkpt>
      <trkpt lat="43.8308" lon="1.97749">
        <ele>293</ele>
        <time>2020-07-15T12:36:30Z</time>
      </trkpt>
      <trkpt lat="43.83077" lon="1.97752">
        <ele>293.2</ele>
        <time>2020-07-15T12:36:31Z</time>
      </trkpt>
      <trkpt lat="43.83073" lon="1.97755">
        <ele>293.2</ele>
        <time>2020-07-15T12:36:32Z</time>
      </trkpt>
      <trkpt lat="43.83069" lon="1.97758">
        <ele>293.2</ele>
        <time>2020-07-15T12:36:33Z</time>
      </trkpt>
      <trkpt lat="43.83066" lon="1.97762">
        <ele>293.4</ele>
        <time>2020-07-15T12:36:34Z</time>
      </trkpt>
      <trkpt lat="43.83062" lon="1.97766">
        <ele>293.4</ele>
        <time>2020-07-15T12:36:35Z</time>
      </trkpt>
      <trkpt lat="43.83059" lon="1.9777">
        <ele>293.6</ele>
        <time>2020-07-15T12:36:36Z</time>
      </trkpt>
      <trkpt lat="43.83057" lon="1.97775">
        <ele>293.6</ele>
        <time>2020-07-15T12:36:37Z</time>
      </trkpt>
      <trkpt lat="43.83054" lon="1.97779">
        <ele>293.8</ele>
        <time>2020-07-15T12:36:38Z</time>
      </trkpt>
      <trkpt lat="43.8305" lon="1.97783">
        <ele>293.8</ele>
        <time>2020-07-15T12:36:39Z</time>
      </trkpt>
      <trkpt lat="43.83047" lon="1.97787">
        <ele>294</ele>
        <time>2020-07-15T12:36:40Z</time>
      </trkpt>
      <trkpt lat="43.83044" lon="1.97791">
        <ele>294</ele>
        <time>2020-07-15T12:36:41Z</time>
      </trkpt>
      <trkpt lat="43.83042" lon="1.97794">
        <ele>294.2</ele>
        <time>2020-07-15T12:36:42Z</time>
      </trkpt>
      <trkpt lat="43.83039" lon="1.97799">
        <ele>294.2</ele>
        <time>2020-07-15T12:36:43Z</time>
      </trkpt>
      <trkpt lat="43.83037" lon="1.97802">
        <ele>294.4</ele>
        <time>2020-07-15T12:36:44Z</time>
      </trkpt>
      <trkpt lat="43.83035" lon="1.97806">
        <ele>294.6</ele>
        <time>2020-07-15T12:36:45Z</time>
      </trkpt>
      <trkpt lat="43.83031" lon="1.97811">
        <ele>294.8</ele>
        <time>2020-07-15T12:36:46Z</time>
      </trkpt>
      <trkpt lat="43.83028" lon="1.97815">
        <ele>294.8</ele>
        <time>2020-07-15T12:36:47Z</time>
      </trkpt>
      <trkpt lat="43.83025" lon="1.97819">
        <ele>295</ele>
        <time>2020-07-15T12:36:48Z</time>
      </trkpt>
      <trkpt lat="43.83021" lon="1.97823">
        <ele>295</ele>
        <time>2020-07-15T12:36:49Z</time>
      </trkpt>
      <trkpt lat="43.83018" lon="1.97827">
        <ele>295.2</ele>
        <time>2020-07-15T12:36:50Z</time>
      </trkpt>
      <trkpt lat="43.83015" lon="1.97831">
        <ele>295.2</ele>
        <time>2020-07-15T12:36:51Z</time>
      </trkpt>
      <trkpt lat="43.83012" lon="1.97835">
        <ele>295.4</ele>
        <time>2020-07-15T12:36:52Z</time>
      </trkpt>
      <trkpt lat="43.83008" lon="1.97839">
        <ele>295.4</ele>
        <time>2020-07-15T12:36:53Z</time>
      </trkpt>
      <trkpt lat="43.83005" lon="1.97843">
        <ele>295.4</ele>
        <time>2020-07-15T12:36:54Z</time>
      </trkpt>
      <trkpt lat="43.83001" lon="1.97848">
        <ele>295.6</ele>
        <time>2020-07-15T12:36:55Z</time>
      </trkpt>
      <trkpt lat="43.82998" lon="1.97852">
        <ele>295.6</ele>
        <time>2020-07-15T12:36:56Z</time>
      </trkpt>
      <trkpt lat="43.82995" lon="1.97856">
        <ele>295.8</ele>
        <time>2020-07-15T12:36:57Z</time>
      </trkpt>
      <trkpt lat="43.82991" lon="1.9786">
        <ele>296</ele>
        <time>2020-07-15T12:36:58Z</time>
      </trkpt>
      <trkpt lat="43.82988" lon="1.97864">
        <ele>296.2</ele>
        <time>2020-07-15T12:36:59Z</time>
      </trkpt>
      <trkpt lat="43.82985" lon="1.97868">
        <ele>296.4</ele>
        <time>2020-07-15T12:37:00Z</time>
      </trkpt>
      <trkpt lat="43.82981" lon="1.97873">
        <ele>296.6</ele>
        <time>2020-07-15T12:37:01Z</time>
      </trkpt>
      <trkpt lat="43.82978" lon="1.97878">
        <ele>296.8</ele>
        <time>2020-07-15T12:37:02Z</time>
      </trkpt>
      <trkpt lat="43.82975" lon="1.97882">
        <ele>297</ele>
        <time>2020-07-15T12:37:03Z</time>
      </trkpt>
      <trkpt lat="43.82972" lon="1.97886">
        <ele>297.4</ele>
        <time>2020-07-15T12:37:04Z</time>
      </trkpt>
      <trkpt lat="43.82969" lon="1.97889">
        <ele>297.6</ele>
        <time>2020-07-15T12:37:05Z</time>
      </trkpt>
      <trkpt lat="43.82966" lon="1.97893">
        <ele>298</ele>
        <time>2020-07-15T12:37:06Z</time>
      </trkpt>
      <trkpt lat="43.82962" lon="1.97896">
        <ele>298.2</ele>
        <time>2020-07-15T12:37:07Z</time>
      </trkpt>
      <trkpt lat="43.82959" lon="1.97899">
        <ele>298.6</ele>
        <time>2020-07-15T12:37:08Z</time>
      </trkpt>
      <trkpt lat="43.82956" lon="1.97903">
        <ele>298.8</ele>
        <time>2020-07-15T12:37:09Z</time>
      </trkpt>
      <trkpt lat="43.82953" lon="1.97907">
        <ele>299.2</ele>
        <time>2020-07-15T12:37:10Z</time>
      </trkpt>
      <trkpt lat="43.82949" lon="1.97912">
        <ele>299.4</ele>
        <time>2020-07-15T12:37:11Z</time>
      </trkpt>
      <trkpt lat="43.82946" lon="1.97916">
        <ele>299.6</ele>
        <time>2020-07-15T12:37:12Z</time>
      </trkpt>
      <trkpt lat="43.82943" lon="1.97921">
        <ele>299.8</ele>
        <time>2020-07-15T12:37:13Z</time>
      </trkpt>
      <trkpt lat="43.8294" lon="1.97924">
        <ele>300</ele>
        <time>2020-07-15T12:37:14Z</time>
      </trkpt>
      <trkpt lat="43.82937" lon="1.97928">
        <ele>300.2</ele>
        <time>2020-07-15T12:37:15Z</time>
      </trkpt>
      <trkpt lat="43.82933" lon="1.97932">
        <ele>300.4</ele>
        <time>2020-07-15T12:37:16Z</time>
      </trkpt>
      <trkpt lat="43.82929" lon="1.97935">
        <ele>300.4</ele>
        <time>2020-07-15T12:37:17Z</time>
      </trkpt>
      <trkpt lat="43.82925" lon="1.97936">
        <ele>300.6</ele>
        <time>2020-07-15T12:37:18Z</time>
      </trkpt>
      <trkpt lat="43.82922" lon="1.97936">
        <ele>300.6</ele>
        <time>2020-07-15T12:37:19Z</time>
      </trkpt>
      <trkpt lat="43.82918" lon="1.97935">
        <ele>300.4</ele>
        <time>2020-07-15T12:37:20Z</time>
      </trkpt>
      <trkpt lat="43.82914" lon="1.97933">
        <ele>300.4</ele>
        <time>2020-07-15T12:37:21Z</time>
      </trkpt>
      <trkpt lat="43.82911" lon="1.97932">
        <ele>300.2</ele>
        <time>2020-07-15T12:37:22Z</time>
      </trkpt>
      <trkpt lat="43.82908" lon="1.97931">
        <ele>300</ele>
        <time>2020-07-15T12:37:23Z</time>
      </trkpt>
      <trkpt lat="43.82904" lon="1.97931">
        <ele>299.8</ele>
        <time>2020-07-15T12:37:24Z</time>
      </trkpt>
      <trkpt lat="43.829" lon="1.97931">
        <ele>299.8</ele>
        <time>2020-07-15T12:37:25Z</time>
      </trkpt>
      <trkpt lat="43.82897" lon="1.97933">
        <ele>299.6</ele>
        <time>2020-07-15T12:37:26Z</time>
      </trkpt>
      <trkpt lat="43.82895" lon="1.97935">
        <ele>299.6</ele>
        <time>2020-07-15T12:37:27Z</time>
      </trkpt>
      <trkpt lat="43.82892" lon="1.97938">
        <ele>299.6</ele>
        <time>2020-07-15T12:37:28Z</time>
      </trkpt>
      <trkpt lat="43.8289" lon="1.97941">
        <ele>299.6</ele>
        <time>2020-07-15T12:37:29Z</time>
      </trkpt>
      <trkpt lat="43.82888" lon="1.97945">
        <ele>299.4</ele>
        <time>2020-07-15T12:37:30Z</time>
      </trkpt>
      <trkpt lat="43.82885" lon="1.97949">
        <ele>299.4</ele>
        <time>2020-07-15T12:37:31Z</time>
      </trkpt>
      <trkpt lat="43.82882" lon="1.97953">
        <ele>299.4</ele>
        <time>2020-07-15T12:37:32Z</time>
      </trkpt>
      <trkpt lat="43.82879" lon="1.97957">
        <ele>299.2</ele>
        <time>2020-07-15T12:37:33Z</time>
      </trkpt>
      <trkpt lat="43.82877" lon="1.97961">
        <ele>299.2</ele>
        <time>2020-07-15T12:37:34Z</time>
      </trkpt>
      <trkpt lat="43.82876" lon="1.97966">
        <ele>299</ele>
        <time>2020-07-15T12:37:35Z</time>
      </trkpt>
      <trkpt lat="43.82875" lon="1.97971">
        <ele>298.8</ele>
        <time>2020-07-15T12:37:36Z</time>
      </trkpt>
      <trkpt lat="43.82875" lon="1.97977">
        <ele>298.6</ele>
        <time>2020-07-15T12:37:37Z</time>
      </trkpt>
      <trkpt lat="43.82875" lon="1.97984">
        <ele>298.4</ele>
        <time>2020-07-15T12:37:38Z</time>
      </trkpt>
      <trkpt lat="43.82875" lon="1.97991">
        <ele>298.2</ele>
        <time>2020-07-15T12:37:39Z</time>
      </trkpt>
      <trkpt lat="43.82875" lon="1.97998">
        <ele>298</ele>
        <time>2020-07-15T12:37:40Z</time>
      </trkpt>
      <trkpt lat="43.82875" lon="1.98004">
        <ele>297.8</ele>
        <time>2020-07-15T12:37:41Z</time>
      </trkpt>
      <trkpt lat="43.82874" lon="1.98011">
        <ele>297.6</ele>
        <time>2020-07-15T12:37:42Z</time>
      </trkpt>
      <trkpt lat="43.82873" lon="1.98019">
        <ele>297.2</ele>
        <time>2020-07-15T12:37:43Z</time>
      </trkpt>
      <trkpt lat="43.82872" lon="1.98028">
        <ele>297</ele>
        <time>2020-07-15T12:37:44Z</time>
      </trkpt>
      <trkpt lat="43.82871" lon="1.98037">
        <ele>296.6</ele>
        <time>2020-07-15T12:37:45Z</time>
      </trkpt>
      <trkpt lat="43.82869" lon="1.98047">
        <ele>296.4</ele>
        <time>2020-07-15T12:37:46Z</time>
      </trkpt>
      <trkpt lat="43.82867" lon="1.98057">
        <ele>296</ele>
        <time>2020-07-15T12:37:47Z</time>
      </trkpt>
      <trkpt lat="43.82864" lon="1.98067">
        <ele>295.6</ele>
        <time>2020-07-15T12:37:48Z</time>
      </trkpt>
      <trkpt lat="43.82862" lon="1.98078">
        <ele>295.2</ele>
        <time>2020-07-15T12:37:49Z</time>
      </trkpt>
      <trkpt lat="43.82859" lon="1.98089">
        <ele>294.6</ele>
        <time>2020-07-15T12:37:50Z</time>
      </trkpt>
      <trkpt lat="43.82856" lon="1.98101">
        <ele>294.2</ele>
        <time>2020-07-15T12:37:51Z</time>
      </trkpt>
      <trkpt lat="43.82854" lon="1.98113">
        <ele>293.6</ele>
        <time>2020-07-15T12:37:52Z</time>
      </trkpt>
      <trkpt lat="43.82851" lon="1.98124">
        <ele>293</ele>
        <time>2020-07-15T12:37:53Z</time>
      </trkpt>
      <trkpt lat="43.82848" lon="1.98137">
        <ele>292.6</ele>
        <time>2020-07-15T12:37:54Z</time>
      </trkpt>
      <trkpt lat="43.82846" lon="1.98148">
        <ele>292.4</ele>
        <time>2020-07-15T12:37:55Z</time>
      </trkpt>
      <trkpt lat="43.82842" lon="1.98161">
        <ele>292</ele>
        <time>2020-07-15T12:37:56Z</time>
      </trkpt>
      <trkpt lat="43.82837" lon="1.98173">
        <ele>291.8</ele>
        <time>2020-07-15T12:37:57Z</time>
      </trkpt>
      <trkpt lat="43.82833" lon="1.98185">
        <ele>291.8</ele>
        <time>2020-07-15T12:37:58Z</time>
      </trkpt>
      <trkpt lat="43.82829" lon="1.98194">
        <ele>291.8</ele>
        <time>2020-07-15T12:37:59Z</time>
      </trkpt>
      <trkpt lat="43.82823" lon="1.98205">
        <ele>292</ele>
        <time>2020-07-15T12:38:00Z</time>
      </trkpt>
      <trkpt lat="43.82818" lon="1.98214">
        <ele>292.4</ele>
        <time>2020-07-15T12:38:01Z</time>
      </trkpt>
      <trkpt lat="43.82814" lon="1.98223">
        <ele>292.6</ele>
        <time>2020-07-15T12:38:02Z</time>
      </trkpt>
      <trkpt lat="43.8281" lon="1.98231">
        <ele>292.8</ele>
        <time>2020-07-15T12:38:03Z</time>
      </trkpt>
      <trkpt lat="43.82806" lon="1.98239">
        <ele>293.2</ele>
        <time>2020-07-15T12:38:04Z</time>
      </trkpt>
      <trkpt lat="43.82803" lon="1.98246">
        <ele>293.4</ele>
        <time>2020-07-15T12:38:05Z</time>
      </trkpt>
      <trkpt lat="43.828" lon="1.98254">
        <ele>293.6</ele>
        <time>2020-07-15T12:38:06Z</time>
      </trkpt>
      <trkpt lat="43.82798" lon="1.98261">
        <ele>293.6</ele>
        <time>2020-07-15T12:38:07Z</time>
      </trkpt>
      <trkpt lat="43.82795" lon="1.9827">
        <ele>293.8</ele>
        <time>2020-07-15T12:38:08Z</time>
      </trkpt>
      <trkpt lat="43.82794" lon="1.98279">
        <ele>293.6</ele>
        <time>2020-07-15T12:38:09Z</time>
      </trkpt>
      <trkpt lat="43.82792" lon="1.98288">
        <ele>293.4</ele>
        <time>2020-07-15T12:38:10Z</time>
      </trkpt>
      <trkpt lat="43.8279" lon="1.98298">
        <ele>293</ele>
        <time>2020-07-15T12:38:11Z</time>
      </trkpt>
      <trkpt lat="43.82789" lon="1.98309">
        <ele>292.8</ele>
        <time>2020-07-15T12:38:12Z</time>
      </trkpt>
      <trkpt lat="43.82787" lon="1.9832">
        <ele>292.4</ele>
        <time>2020-07-15T12:38:13Z</time>
      </trkpt>
      <trkpt lat="43.82785" lon="1.98331">
        <ele>292.2</ele>
        <time>2020-07-15T12:38:14Z</time>
      </trkpt>
      <trkpt lat="43.82784" lon="1.98342">
        <ele>291.8</ele>
        <time>2020-07-15T12:38:15Z</time>
      </trkpt>
      <trkpt lat="43.82782" lon="1.98352">
        <ele>291.4</ele>
        <time>2020-07-15T12:38:16Z</time>
      </trkpt>
      <trkpt lat="43.82781" lon="1.98363">
        <ele>291</ele>
        <time>2020-07-15T12:38:17Z</time>
      </trkpt>
      <trkpt lat="43.82779" lon="1.98374">
        <ele>290.8</ele>
        <time>2020-07-15T12:38:18Z</time>
      </trkpt>
      <trkpt lat="43.82777" lon="1.98385">
        <ele>290.6</ele>
        <time>2020-07-15T12:38:19Z</time>
      </trkpt>
      <trkpt lat="43.82776" lon="1.98396">
        <ele>290.4</ele>
        <time>2020-07-15T12:38:20Z</time>
      </trkpt>
      <trkpt lat="43.82774" lon="1.98406">
        <ele>290.4</ele>
        <time>2020-07-15T12:38:21Z</time>
      </trkpt>
      <trkpt lat="43.82772" lon="1.98416">
        <ele>290.2</ele>
        <time>2020-07-15T12:38:22Z</time>
      </trkpt>
      <trkpt lat="43.82771" lon="1.98426">
        <ele>290.2</ele>
        <time>2020-07-15T12:38:23Z</time>
      </trkpt>
      <trkpt lat="43.82771" lon="1.98435">
        <ele>290.2</ele>
        <time>2020-07-15T12:38:24Z</time>
      </trkpt>
      <trkpt lat="43.8277" lon="1.98444">
        <ele>290</ele>
        <time>2020-07-15T12:38:25Z</time>
      </trkpt>
      <trkpt lat="43.82769" lon="1.98454">
        <ele>290</ele>
        <time>2020-07-15T12:38:26Z</time>
      </trkpt>
      <trkpt lat="43.82769" lon="1.98462">
        <ele>290</ele>
        <time>2020-07-15T12:38:27Z</time>
      </trkpt>
      <trkpt lat="43.82768" lon="1.98471">
        <ele>289.8</ele>
        <time>2020-07-15T12:38:28Z</time>
      </trkpt>
      <trkpt lat="43.82768" lon="1.98481">
        <ele>289.6</ele>
        <time>2020-07-15T12:38:29Z</time>
      </trkpt>
      <trkpt lat="43.82769" lon="1.98491">
        <ele>289.4</ele>
        <time>2020-07-15T12:38:30Z</time>
      </trkpt>
      <trkpt lat="43.82769" lon="1.98501">
        <ele>289</ele>
        <time>2020-07-15T12:38:31Z</time>
      </trkpt>
      <trkpt lat="43.82769" lon="1.98512">
        <ele>288.6</ele>
        <time>2020-07-15T12:38:32Z</time>
      </trkpt>
      <trkpt lat="43.82767" lon="1.98523">
        <ele>288.2</ele>
        <time>2020-07-15T12:38:33Z</time>
      </trkpt>
      <trkpt lat="43.82765" lon="1.98535">
        <ele>287.6</ele>
        <time>2020-07-15T12:38:34Z</time>
      </trkpt>
      <trkpt lat="43.82762" lon="1.98547">
        <ele>286.8</ele>
        <time>2020-07-15T12:38:35Z</time>
      </trkpt>
      <trkpt lat="43.82758" lon="1.98559">
        <ele>286</ele>
        <time>2020-07-15T12:38:36Z</time>
      </trkpt>
      <trkpt lat="43.82753" lon="1.98571">
        <ele>285.2</ele>
        <time>2020-07-15T12:38:37Z</time>
      </trkpt>
      <trkpt lat="43.82748" lon="1.98582">
        <ele>284.2</ele>
        <time>2020-07-15T12:38:38Z</time>
      </trkpt>
      <trkpt lat="43.82743" lon="1.98592">
        <ele>283.2</ele>
        <time>2020-07-15T12:38:39Z</time>
      </trkpt>
      <trkpt lat="43.82738" lon="1.98604">
        <ele>282</ele>
        <time>2020-07-15T12:38:40Z</time>
      </trkpt>
      <trkpt lat="43.82733" lon="1.98616">
        <ele>280.6</ele>
        <time>2020-07-15T12:38:41Z</time>
      </trkpt>
      <trkpt lat="43.82729" lon="1.98628">
        <ele>279.4</ele>
        <time>2020-07-15T12:38:42Z</time>
      </trkpt>
      <trkpt lat="43.82725" lon="1.98639">
        <ele>278.4</ele>
        <time>2020-07-15T12:38:43Z</time>
      </trkpt>
      <trkpt lat="43.82721" lon="1.98652">
        <ele>277.2</ele>
        <time>2020-07-15T12:38:44Z</time>
      </trkpt>
      <trkpt lat="43.82718" lon="1.98665">
        <ele>276</ele>
        <time>2020-07-15T12:38:45Z</time>
      </trkpt>
      <trkpt lat="43.82713" lon="1.98679">
        <ele>274.6</ele>
        <time>2020-07-15T12:38:46Z</time>
      </trkpt>
      <trkpt lat="43.82708" lon="1.98692">
        <ele>273.4</ele>
        <time>2020-07-15T12:38:47Z</time>
      </trkpt>
      <trkpt lat="43.82702" lon="1.98705">
        <ele>272.2</ele>
        <time>2020-07-15T12:38:48Z</time>
      </trkpt>
      <trkpt lat="43.82696" lon="1.98716">
        <ele>271</ele>
        <time>2020-07-15T12:38:49Z</time>
      </trkpt>
      <trkpt lat="43.82691" lon="1.98724">
        <ele>269.8</ele>
        <time>2020-07-15T12:38:50Z</time>
      </trkpt>
      <trkpt lat="43.82685" lon="1.98732">
        <ele>268.8</ele>
        <time>2020-07-15T12:38:51Z</time>
      </trkpt>
      <trkpt lat="43.82679" lon="1.98738">
        <ele>267.8</ele>
        <time>2020-07-15T12:38:52Z</time>
      </trkpt>
      <trkpt lat="43.82673" lon="1.98742">
        <ele>266.8</ele>
        <time>2020-07-15T12:38:53Z</time>
      </trkpt>
      <trkpt lat="43.82666" lon="1.98744">
        <ele>265.8</ele>
        <time>2020-07-15T12:38:54Z</time>
      </trkpt>
      <trkpt lat="43.82659" lon="1.98743">
        <ele>264.8</ele>
        <time>2020-07-15T12:38:55Z</time>
      </trkpt>
      <trkpt lat="43.82652" lon="1.9874">
        <ele>264</ele>
        <time>2020-07-15T12:38:56Z</time>
      </trkpt>
      <trkpt lat="43.82645" lon="1.98735">
        <ele>263</ele>
        <time>2020-07-15T12:38:57Z</time>
      </trkpt>
      <trkpt lat="43.82639" lon="1.9873">
        <ele>261.8</ele>
        <time>2020-07-15T12:38:58Z</time>
      </trkpt>
      <trkpt lat="43.82631" lon="1.98724">
        <ele>260.6</ele>
        <time>2020-07-15T12:38:59Z</time>
      </trkpt>
      <trkpt lat="43.82623" lon="1.98718">
        <ele>259.6</ele>
        <time>2020-07-15T12:39:00Z</time>
      </trkpt>
      <trkpt lat="43.82616" lon="1.98712">
        <ele>258.4</ele>
        <time>2020-07-15T12:39:01Z</time>
      </trkpt>
      <trkpt lat="43.82608" lon="1.98705">
        <ele>257</ele>
        <time>2020-07-15T12:39:02Z</time>
      </trkpt>
      <trkpt lat="43.826" lon="1.98696">
        <ele>255.6</ele>
        <time>2020-07-15T12:39:03Z</time>
      </trkpt>
      <trkpt lat="43.82593" lon="1.98687">
        <ele>255</ele>
        <time>2020-07-15T12:39:04Z</time>
      </trkpt>
      <trkpt lat="43.82586" lon="1.98677">
        <ele>254.4</ele>
        <time>2020-07-15T12:39:05Z</time>
      </trkpt>
      <trkpt lat="43.82579" lon="1.98666">
        <ele>253.6</ele>
        <time>2020-07-15T12:39:06Z</time>
      </trkpt>
      <trkpt lat="43.82573" lon="1.98656">
        <ele>252.8</ele>
        <time>2020-07-15T12:39:07Z</time>
      </trkpt>
      <trkpt lat="43.82568" lon="1.98646">
        <ele>252.2</ele>
        <time>2020-07-15T12:39:08Z</time>
      </trkpt>
      <trkpt lat="43.82562" lon="1.98635">
        <ele>251.6</ele>
        <time>2020-07-15T12:39:09Z</time>
      </trkpt>
      <trkpt lat="43.82556" lon="1.98624">
        <ele>250.6</ele>
        <time>2020-07-15T12:39:10Z</time>
      </trkpt>
      <trkpt lat="43.82551" lon="1.98611">
        <ele>249.6</ele>
        <time>2020-07-15T12:39:11Z</time>
      </trkpt>
      <trkpt lat="43.82545" lon="1.98599">
        <ele>248.2</ele>
        <time>2020-07-15T12:39:12Z</time>
      </trkpt>
      <trkpt lat="43.82539" lon="1.98587">
        <ele>247</ele>
        <time>2020-07-15T12:39:13Z</time>
      </trkpt>
      <trkpt lat="43.82533" lon="1.98576">
        <ele>246</ele>
        <time>2020-07-15T12:39:14Z</time>
      </trkpt>
      <trkpt lat="43.82527" lon="1.98567">
        <ele>245.2</ele>
        <time>2020-07-15T12:39:15Z</time>
      </trkpt>
      <trkpt lat="43.8252" lon="1.98561">
        <ele>244.6</ele>
        <time>2020-07-15T12:39:16Z</time>
      </trkpt>
      <trkpt lat="43.82512" lon="1.98557">
        <ele>244.6</ele>
        <time>2020-07-15T12:39:17Z</time>
      </trkpt>
      <trkpt lat="43.82504" lon="1.98555">
        <ele>244.6</ele>
        <time>2020-07-15T12:39:18Z</time>
      </trkpt>
      <trkpt lat="43.82495" lon="1.98553">
        <ele>244.6</ele>
        <time>2020-07-15T12:39:19Z</time>
      </trkpt>
      <trkpt lat="43.82488" lon="1.98551">
        <ele>244.8</ele>
        <time>2020-07-15T12:39:20Z</time>
      </trkpt>
      <trkpt lat="43.8248" lon="1.98548">
        <ele>244.8</ele>
        <time>2020-07-15T12:39:21Z</time>
      </trkpt>
      <trkpt lat="43.82473" lon="1.98545">
        <ele>245</ele>
        <time>2020-07-15T12:39:22Z</time>
      </trkpt>
      <trkpt lat="43.82467" lon="1.98542">
        <ele>245.2</ele>
        <time>2020-07-15T12:39:23Z</time>
      </trkpt>
      <trkpt lat="43.82461" lon="1.9854">
        <ele>245.6</ele>
        <time>2020-07-15T12:39:24Z</time>
      </trkpt>
      <trkpt lat="43.82455" lon="1.98538">
        <ele>245.8</ele>
        <time>2020-07-15T12:39:25Z</time>
      </trkpt>
      <trkpt lat="43.82451" lon="1.98535">
        <ele>246.2</ele>
        <time>2020-07-15T12:39:26Z</time>
      </trkpt>
      <trkpt lat="43.82446" lon="1.98533">
        <ele>246.6</ele>
        <time>2020-07-15T12:39:27Z</time>
      </trkpt>
      <trkpt lat="43.82441" lon="1.98531">
        <ele>246.8</ele>
        <time>2020-07-15T12:39:28Z</time>
      </trkpt>
      <trkpt lat="43.82437" lon="1.9853">
        <ele>247.4</ele>
        <time>2020-07-15T12:39:29Z</time>
      </trkpt>
      <trkpt lat="43.82433" lon="1.98529">
        <ele>247.8</ele>
        <time>2020-07-15T12:39:30Z</time>
      </trkpt>
      <trkpt lat="43.82428" lon="1.98528">
        <ele>248.4</ele>
        <time>2020-07-15T12:39:31Z</time>
      </trkpt>
      <trkpt lat="43.82425" lon="1.98529">
        <ele>248.8</ele>
        <time>2020-07-15T12:39:32Z</time>
      </trkpt>
      <trkpt lat="43.82421" lon="1.9853">
        <ele>249.4</ele>
        <time>2020-07-15T12:39:33Z</time>
      </trkpt>
      <trkpt lat="43.82418" lon="1.98533">
        <ele>249.8</ele>
        <time>2020-07-15T12:39:34Z</time>
      </trkpt>
      <trkpt lat="43.82414" lon="1.98535">
        <ele>250.2</ele>
        <time>2020-07-15T12:39:35Z</time>
      </trkpt>
      <trkpt lat="43.82411" lon="1.98539">
        <ele>250.6</ele>
        <time>2020-07-15T12:39:36Z</time>
      </trkpt>
      <trkpt lat="43.82407" lon="1.98544">
        <ele>250.6</ele>
        <time>2020-07-15T12:39:37Z</time>
      </trkpt>
      <trkpt lat="43.82403" lon="1.98549">
        <ele>250.6</ele>
        <time>2020-07-15T12:39:38Z</time>
      </trkpt>
      <trkpt lat="43.82399" lon="1.98555">
        <ele>250.6</ele>
        <time>2020-07-15T12:39:39Z</time>
      </trkpt>
      <trkpt lat="43.82395" lon="1.98561">
        <ele>250.4</ele>
        <time>2020-07-15T12:39:40Z</time>
      </trkpt>
      <trkpt lat="43.8239" lon="1.98568">
        <ele>250</ele>
        <time>2020-07-15T12:39:41Z</time>
      </trkpt>
      <trkpt lat="43.82385" lon="1.98576">
        <ele>249.8</ele>
        <time>2020-07-15T12:39:42Z</time>
      </trkpt>
      <trkpt lat="43.8238" lon="1.98584">
        <ele>249.4</ele>
        <time>2020-07-15T12:39:43Z</time>
      </trkpt>
      <trkpt lat="43.82375" lon="1.98593">
        <ele>249</ele>
        <time>2020-07-15T12:39:44Z</time>
      </trkpt>
      <trkpt lat="43.8237" lon="1.98602">
        <ele>248.8</ele>
        <time>2020-07-15T12:39:45Z</time>
      </trkpt>
      <trkpt lat="43.82365" lon="1.98611">
        <ele>248.4</ele>
        <time>2020-07-15T12:39:46Z</time>
      </trkpt>
      <trkpt lat="43.8236" lon="1.98619">
        <ele>248.2</ele>
        <time>2020-07-15T12:39:47Z</time>
      </trkpt>
      <trkpt lat="43.82354" lon="1.98626">
        <ele>248</ele>
        <time>2020-07-15T12:39:48Z</time>
      </trkpt>
      <trkpt lat="43.82349" lon="1.98629">
        <ele>247.6</ele>
        <time>2020-07-15T12:39:49Z</time>
      </trkpt>
      <trkpt lat="43.82343" lon="1.9863">
        <ele>247.4</ele>
        <time>2020-07-15T12:39:50Z</time>
      </trkpt>
      <trkpt lat="43.82336" lon="1.98628">
        <ele>247</ele>
        <time>2020-07-15T12:39:51Z</time>
      </trkpt>
      <trkpt lat="43.8233" lon="1.98623">
        <ele>246.6</ele>
        <time>2020-07-15T12:39:52Z</time>
      </trkpt>
      <trkpt lat="43.82324" lon="1.98617">
        <ele>245.8</ele>
        <time>2020-07-15T12:39:53Z</time>
      </trkpt>
      <trkpt lat="43.82318" lon="1.98611">
        <ele>245.4</ele>
        <time>2020-07-15T12:39:54Z</time>
      </trkpt>
      <trkpt lat="43.82311" lon="1.98604">
        <ele>244.8</ele>
        <time>2020-07-15T12:39:55Z</time>
      </trkpt>
      <trkpt lat="43.82304" lon="1.98598">
        <ele>244</ele>
        <time>2020-07-15T12:39:56Z</time>
      </trkpt>
      <trkpt lat="43.82297" lon="1.98591">
        <ele>243.4</ele>
        <time>2020-07-15T12:39:57Z</time>
      </trkpt>
      <trkpt lat="43.8229" lon="1.98584">
        <ele>242.8</ele>
        <time>2020-07-15T12:39:58Z</time>
      </trkpt>
      <trkpt lat="43.82283" lon="1.98577">
        <ele>242.2</ele>
        <time>2020-07-15T12:39:59Z</time>
      </trkpt>
      <trkpt lat="43.82276" lon="1.98571">
        <ele>241.4</ele>
        <time>2020-07-15T12:40:00Z</time>
      </trkpt>
      <trkpt lat="43.82267" lon="1.98563">
        <ele>240.8</ele>
        <time>2020-07-15T12:40:01Z</time>
      </trkpt>
      <trkpt lat="43.82259" lon="1.98555">
        <ele>240</ele>
        <time>2020-07-15T12:40:02Z</time>
      </trkpt>
      <trkpt lat="43.82251" lon="1.98546">
        <ele>239.4</ele>
        <time>2020-07-15T12:40:03Z</time>
      </trkpt>
      <trkpt lat="43.82243" lon="1.98537">
        <ele>238.8</ele>
        <time>2020-07-15T12:40:04Z</time>
      </trkpt>
      <trkpt lat="43.82235" lon="1.98528">
        <ele>238.4</ele>
        <time>2020-07-15T12:40:05Z</time>
      </trkpt>
      <trkpt lat="43.82226" lon="1.9852">
        <ele>237.8</ele>
        <time>2020-07-15T12:40:06Z</time>
      </trkpt>
      <trkpt lat="43.82217" lon="1.98513">
        <ele>236.8</ele>
        <time>2020-07-15T12:40:07Z</time>
      </trkpt>
      <trkpt lat="43.82208" lon="1.98507">
        <ele>236.4</ele>
        <time>2020-07-15T12:40:08Z</time>
      </trkpt>
      <trkpt lat="43.82199" lon="1.98502">
        <ele>236</ele>
        <time>2020-07-15T12:40:09Z</time>
      </trkpt>
      <trkpt lat="43.8219" lon="1.98498">
        <ele>236</ele>
        <time>2020-07-15T12:40:10Z</time>
      </trkpt>
      <trkpt lat="43.82182" lon="1.98496">
        <ele>236</ele>
        <time>2020-07-15T12:40:11Z</time>
      </trkpt>
      <trkpt lat="43.82174" lon="1.98494">
        <ele>236.4</ele>
        <time>2020-07-15T12:40:12Z</time>
      </trkpt>
      <trkpt lat="43.82167" lon="1.98494">
        <ele>236.6</ele>
        <time>2020-07-15T12:40:13Z</time>
      </trkpt>
      <trkpt lat="43.82161" lon="1.98494">
        <ele>237</ele>
        <time>2020-07-15T12:40:14Z</time>
      </trkpt>
      <trkpt lat="43.82156" lon="1.98493">
        <ele>237.4</ele>
        <time>2020-07-15T12:40:15Z</time>
      </trkpt>
      <trkpt lat="43.82151" lon="1.98494">
        <ele>237.8</ele>
        <time>2020-07-15T12:40:16Z</time>
      </trkpt>
      <trkpt lat="43.82147" lon="1.98494">
        <ele>238.4</ele>
        <time>2020-07-15T12:40:17Z</time>
      </trkpt>
      <trkpt lat="43.82142" lon="1.98494">
        <ele>238.8</ele>
        <time>2020-07-15T12:40:18Z</time>
      </trkpt>
      <trkpt lat="43.82137" lon="1.98495">
        <ele>239.4</ele>
        <time>2020-07-15T12:40:19Z</time>
      </trkpt>
      <trkpt lat="43.82132" lon="1.98495">
        <ele>240</ele>
        <time>2020-07-15T12:40:20Z</time>
      </trkpt>
      <trkpt lat="43.82128" lon="1.98494">
        <ele>240.6</ele>
        <time>2020-07-15T12:40:21Z</time>
      </trkpt>
      <trkpt lat="43.82124" lon="1.98491">
        <ele>241.2</ele>
        <time>2020-07-15T12:40:22Z</time>
      </trkpt>
      <trkpt lat="43.8212" lon="1.98488">
        <ele>241.8</ele>
        <time>2020-07-15T12:40:23Z</time>
      </trkpt>
      <trkpt lat="43.82117" lon="1.98483">
        <ele>242.2</ele>
        <time>2020-07-15T12:40:24Z</time>
      </trkpt>
      <trkpt lat="43.82115" lon="1.98478">
        <ele>242.6</ele>
        <time>2020-07-15T12:40:25Z</time>
      </trkpt>
      <trkpt lat="43.82113" lon="1.98474">
        <ele>243.2</ele>
        <time>2020-07-15T12:40:26Z</time>
      </trkpt>
      <trkpt lat="43.82111" lon="1.9847">
        <ele>243.6</ele>
        <time>2020-07-15T12:40:27Z</time>
      </trkpt>
      <trkpt lat="43.8211" lon="1.98465">
        <ele>244.2</ele>
        <time>2020-07-15T12:40:28Z</time>
      </trkpt>
      <trkpt lat="43.82108" lon="1.98461">
        <ele>244.4</ele>
        <time>2020-07-15T12:40:29Z</time>
      </trkpt>
      <trkpt lat="43.82107" lon="1.98457">
        <ele>244.8</ele>
        <time>2020-07-15T12:40:30Z</time>
      </trkpt>
      <trkpt lat="43.82105" lon="1.98452">
        <ele>244.8</ele>
        <time>2020-07-15T12:40:31Z</time>
      </trkpt>
      <trkpt lat="43.82103" lon="1.98447">
        <ele>245</ele>
        <time>2020-07-15T12:40:32Z</time>
      </trkpt>
      <trkpt lat="43.82101" lon="1.98441">
        <ele>245</ele>
        <time>2020-07-15T12:40:33Z</time>
      </trkpt>
      <trkpt lat="43.82099" lon="1.98435">
        <ele>245</ele>
        <time>2020-07-15T12:40:34Z</time>
      </trkpt>
      <trkpt lat="43.82097" lon="1.98429">
        <ele>244.8</ele>
        <time>2020-07-15T12:40:35Z</time>
      </trkpt>
      <trkpt lat="43.82094" lon="1.98423">
        <ele>244.8</ele>
        <time>2020-07-15T12:40:36Z</time>
      </trkpt>
      <trkpt lat="43.82092" lon="1.98418">
        <ele>244.6</ele>
        <time>2020-07-15T12:40:37Z</time>
      </trkpt>
      <trkpt lat="43.82089" lon="1.98413">
        <ele>244.6</ele>
        <time>2020-07-15T12:40:38Z</time>
      </trkpt>
      <trkpt lat="43.82087" lon="1.98408">
        <ele>244.6</ele>
        <time>2020-07-15T12:40:39Z</time>
      </trkpt>
      <trkpt lat="43.82085" lon="1.98402">
        <ele>244.6</ele>
        <time>2020-07-15T12:40:40Z</time>
      </trkpt>
      <trkpt lat="43.82083" lon="1.98397">
        <ele>244.6</ele>
        <time>2020-07-15T12:40:41Z</time>
      </trkpt>
      <trkpt lat="43.82081" lon="1.98391">
        <ele>244.6</ele>
        <time>2020-07-15T12:40:42Z</time>
      </trkpt>
      <trkpt lat="43.82079" lon="1.98387">
        <ele>244.6</ele>
        <time>2020-07-15T12:40:43Z</time>
      </trkpt>
      <trkpt lat="43.82078" lon="1.98383">
        <ele>244.6</ele>
        <time>2020-07-15T12:40:44Z</time>
      </trkpt>
      <trkpt lat="43.82076" lon="1.98378">
        <ele>244.8</ele>
        <time>2020-07-15T12:40:45Z</time>
      </trkpt>
      <trkpt lat="43.82074" lon="1.98373">
        <ele>244.6</ele>
        <time>2020-07-15T12:40:46Z</time>
      </trkpt>
      <trkpt lat="43.82072" lon="1.98366">
        <ele>244.4</ele>
        <time>2020-07-15T12:40:47Z</time>
      </trkpt>
      <trkpt lat="43.82069" lon="1.98357">
        <ele>244.2</ele>
        <time>2020-07-15T12:40:48Z</time>
      </trkpt>
      <trkpt lat="43.82067" lon="1.98348">
        <ele>243.6</ele>
        <time>2020-07-15T12:40:49Z</time>
      </trkpt>
      <trkpt lat="43.82066" lon="1.98338">
        <ele>243.2</ele>
        <time>2020-07-15T12:40:50Z</time>
      </trkpt>
      <trkpt lat="43.82064" lon="1.98328">
        <ele>242.8</ele>
        <time>2020-07-15T12:40:51Z</time>
      </trkpt>
      <trkpt lat="43.82063" lon="1.98318">
        <ele>242.4</ele>
        <time>2020-07-15T12:40:52Z</time>
      </trkpt>
      <trkpt lat="43.82061" lon="1.98309">
        <ele>242</ele>
        <time>2020-07-15T12:40:53Z</time>
      </trkpt>
      <trkpt lat="43.82058" lon="1.98299">
        <ele>241.4</ele>
        <time>2020-07-15T12:40:54Z</time>
      </trkpt>
      <trkpt lat="43.82055" lon="1.9829">
        <ele>241.2</ele>
        <time>2020-07-15T12:40:55Z</time>
      </trkpt>
      <trkpt lat="43.82051" lon="1.98281">
        <ele>241</ele>
        <time>2020-07-15T12:40:56Z</time>
      </trkpt>
      <trkpt lat="43.82048" lon="1.98273">
        <ele>241</ele>
        <time>2020-07-15T12:40:57Z</time>
      </trkpt>
      <trkpt lat="43.82045" lon="1.98265">
        <ele>240.8</ele>
        <time>2020-07-15T12:40:58Z</time>
      </trkpt>
      <trkpt lat="43.82043" lon="1.98257">
        <ele>240.8</ele>
        <time>2020-07-15T12:40:59Z</time>
      </trkpt>
      <trkpt lat="43.82042" lon="1.9825">
        <ele>241</ele>
        <time>2020-07-15T12:41:00Z</time>
      </trkpt>
      <trkpt lat="43.82042" lon="1.98242">
        <ele>241.2</ele>
        <time>2020-07-15T12:41:01Z</time>
      </trkpt>
      <trkpt lat="43.82044" lon="1.98235">
        <ele>241.4</ele>
        <time>2020-07-15T12:41:02Z</time>
      </trkpt>
      <trkpt lat="43.82046" lon="1.98229">
        <ele>241.8</ele>
        <time>2020-07-15T12:41:03Z</time>
      </trkpt>
      <trkpt lat="43.82048" lon="1.98224">
        <ele>242.2</ele>
        <time>2020-07-15T12:41:04Z</time>
      </trkpt>
      <trkpt lat="43.8205" lon="1.98218">
        <ele>242.6</ele>
        <time>2020-07-15T12:41:05Z</time>
      </trkpt>
      <trkpt lat="43.82052" lon="1.98212">
        <ele>243</ele>
        <time>2020-07-15T12:41:06Z</time>
      </trkpt>
      <trkpt lat="43.82053" lon="1.98206">
        <ele>243.4</ele>
        <time>2020-07-15T12:41:07Z</time>
      </trkpt>
      <trkpt lat="43.82055" lon="1.98201">
        <ele>243.8</ele>
        <time>2020-07-15T12:41:08Z</time>
      </trkpt>
      <trkpt lat="43.82057" lon="1.98195">
        <ele>244.2</ele>
        <time>2020-07-15T12:41:09Z</time>
      </trkpt>
      <trkpt lat="43.82058" lon="1.9819">
        <ele>244.4</ele>
        <time>2020-07-15T12:41:10Z</time>
      </trkpt>
      <trkpt lat="43.8206" lon="1.98185">
        <ele>244.8</ele>
        <time>2020-07-15T12:41:11Z</time>
      </trkpt>
      <trkpt lat="43.82063" lon="1.9818">
        <ele>245</ele>
        <time>2020-07-15T12:41:12Z</time>
      </trkpt>
      <trkpt lat="43.82066" lon="1.98175">
        <ele>245.2</ele>
        <time>2020-07-15T12:41:13Z</time>
      </trkpt>
      <trkpt lat="43.82069" lon="1.9817">
        <ele>245.2</ele>
        <time>2020-07-15T12:41:14Z</time>
      </trkpt>
      <trkpt lat="43.82073" lon="1.98165">
        <ele>245.2</ele>
        <time>2020-07-15T12:41:15Z</time>
      </trkpt>
      <trkpt lat="43.82077" lon="1.98159">
        <ele>245</ele>
        <time>2020-07-15T12:41:16Z</time>
      </trkpt>
      <trkpt lat="43.82081" lon="1.98153">
        <ele>244.8</ele>
        <time>2020-07-15T12:41:17Z</time>
      </trkpt>
      <trkpt lat="43.82085" lon="1.98147">
        <ele>244.6</ele>
        <time>2020-07-15T12:41:18Z</time>
      </trkpt>
      <trkpt lat="43.82088" lon="1.98141">
        <ele>244.4</ele>
        <time>2020-07-15T12:41:19Z</time>
      </trkpt>
      <trkpt lat="43.82092" lon="1.98134">
        <ele>244</ele>
        <time>2020-07-15T12:41:20Z</time>
      </trkpt>
      <trkpt lat="43.82097" lon="1.98127">
        <ele>243.8</ele>
        <time>2020-07-15T12:41:21Z</time>
      </trkpt>
      <trkpt lat="43.82101" lon="1.98121">
        <ele>243.6</ele>
        <time>2020-07-15T12:41:22Z</time>
      </trkpt>
      <trkpt lat="43.82105" lon="1.98114">
        <ele>243.2</ele>
        <time>2020-07-15T12:41:23Z</time>
      </trkpt>
      <trkpt lat="43.82109" lon="1.98107">
        <ele>243</ele>
        <time>2020-07-15T12:41:24Z</time>
      </trkpt>
      <trkpt lat="43.82113" lon="1.98101">
        <ele>242.8</ele>
        <time>2020-07-15T12:41:25Z</time>
      </trkpt>
      <trkpt lat="43.82117" lon="1.98094">
        <ele>242.6</ele>
        <time>2020-07-15T12:41:26Z</time>
      </trkpt>
      <trkpt lat="43.82122" lon="1.98087">
        <ele>242.4</ele>
        <time>2020-07-15T12:41:27Z</time>
      </trkpt>
      <trkpt lat="43.82126" lon="1.9808">
        <ele>242</ele>
        <time>2020-07-15T12:41:28Z</time>
      </trkpt>
      <trkpt lat="43.8213" lon="1.98073">
        <ele>241.6</ele>
        <time>2020-07-15T12:41:29Z</time>
      </trkpt>
      <trkpt lat="43.82135" lon="1.98066">
        <ele>241.2</ele>
        <time>2020-07-15T12:41:30Z</time>
      </trkpt>
      <trkpt lat="43.82139" lon="1.98059">
        <ele>241</ele>
        <time>2020-07-15T12:41:31Z</time>
      </trkpt>
      <trkpt lat="43.82143" lon="1.98052">
        <ele>240.8</ele>
        <time>2020-07-15T12:41:32Z</time>
      </trkpt>
      <trkpt lat="43.82147" lon="1.98045">
        <ele>240.4</ele>
        <time>2020-07-15T12:41:33Z</time>
      </trkpt>
      <trkpt lat="43.82152" lon="1.98038">
        <ele>240.2</ele>
        <time>2020-07-15T12:41:34Z</time>
      </trkpt>
      <trkpt lat="43.82156" lon="1.98031">
        <ele>240</ele>
        <time>2020-07-15T12:41:35Z</time>
      </trkpt>
      <trkpt lat="43.8216" lon="1.98025">
        <ele>239.6</ele>
        <time>2020-07-15T12:41:36Z</time>
      </trkpt>
      <trkpt lat="43.82164" lon="1.98018">
        <ele>239.4</ele>
        <time>2020-07-15T12:41:37Z</time>
      </trkpt>
      <trkpt lat="43.82169" lon="1.98011">
        <ele>239.2</ele>
        <time>2020-07-15T12:41:38Z</time>
      </trkpt>
      <trkpt lat="43.82173" lon="1.98004">
        <ele>239</ele>
        <time>2020-07-15T12:41:39Z</time>
      </trkpt>
      <trkpt lat="43.82177" lon="1.97997">
        <ele>238.6</ele>
        <time>2020-07-15T12:41:40Z</time>
      </trkpt>
      <trkpt lat="43.82181" lon="1.9799">
        <ele>238.2</ele>
        <time>2020-07-15T12:41:41Z</time>
      </trkpt>
      <trkpt lat="43.82185" lon="1.97983">
        <ele>238</ele>
        <time>2020-07-15T12:41:42Z</time>
      </trkpt>
      <trkpt lat="43.8219" lon="1.97977">
        <ele>237.8</ele>
        <time>2020-07-15T12:41:43Z</time>
      </trkpt>
      <trkpt lat="43.82194" lon="1.9797">
        <ele>237.6</ele>
        <time>2020-07-15T12:41:44Z</time>
      </trkpt>
      <trkpt lat="43.82198" lon="1.97963">
        <ele>237.4</ele>
        <time>2020-07-15T12:41:45Z</time>
      </trkpt>
      <trkpt lat="43.82202" lon="1.97957">
        <ele>237.4</ele>
        <time>2020-07-15T12:41:46Z</time>
      </trkpt>
      <trkpt lat="43.82206" lon="1.97951">
        <ele>237.6</ele>
        <time>2020-07-15T12:41:47Z</time>
      </trkpt>
      <trkpt lat="43.8221" lon="1.97944">
        <ele>237.6</ele>
        <time>2020-07-15T12:41:48Z</time>
      </trkpt>
      <trkpt lat="43.82213" lon="1.97938">
        <ele>237.6</ele>
        <time>2020-07-15T12:41:49Z</time>
      </trkpt>
      <trkpt lat="43.82217" lon="1.97932">
        <ele>237.6</ele>
        <time>2020-07-15T12:41:50Z</time>
      </trkpt>
      <trkpt lat="43.8222" lon="1.97926">
        <ele>237.8</ele>
        <time>2020-07-15T12:41:51Z</time>
      </trkpt>
      <trkpt lat="43.82223" lon="1.9792">
        <ele>237.8</ele>
        <time>2020-07-15T12:41:52Z</time>
      </trkpt>
      <trkpt lat="43.82226" lon="1.97914">
        <ele>237.8</ele>
        <time>2020-07-15T12:41:53Z</time>
      </trkpt>
      <trkpt lat="43.8223" lon="1.97909">
        <ele>237.8</ele>
        <time>2020-07-15T12:41:54Z</time>
      </trkpt>
      <trkpt lat="43.82233" lon="1.97903">
        <ele>238</ele>
        <time>2020-07-15T12:41:55Z</time>
      </trkpt>
      <trkpt lat="43.82235" lon="1.97898">
        <ele>238</ele>
        <time>2020-07-15T12:41:56Z</time>
      </trkpt>
      <trkpt lat="43.82238" lon="1.97893">
        <ele>238.2</ele>
        <time>2020-07-15T12:41:57Z</time>
      </trkpt>
      <trkpt lat="43.82241" lon="1.97889">
        <ele>238.2</ele>
        <time>2020-07-15T12:41:58Z</time>
      </trkpt>
      <trkpt lat="43.82244" lon="1.97884">
        <ele>238.4</ele>
        <time>2020-07-15T12:41:59Z</time>
      </trkpt>
      <trkpt lat="43.82246" lon="1.97879">
        <ele>238.6</ele>
        <time>2020-07-15T12:42:00Z</time>
      </trkpt>
      <trkpt lat="43.82249" lon="1.97875">
        <ele>238.8</ele>
        <time>2020-07-15T12:42:01Z</time>
      </trkpt>
      <trkpt lat="43.82253" lon="1.97871">
        <ele>238.8</ele>
        <time>2020-07-15T12:42:02Z</time>
      </trkpt>
      <trkpt lat="43.82256" lon="1.97867">
        <ele>239</ele>
        <time>2020-07-15T12:42:03Z</time>
      </trkpt>
      <trkpt lat="43.82259" lon="1.97863">
        <ele>239.2</ele>
        <time>2020-07-15T12:42:04Z</time>
      </trkpt>
      <trkpt lat="43.82262" lon="1.9786">
        <ele>239.4</ele>
        <time>2020-07-15T12:42:05Z</time>
      </trkpt>
      <trkpt lat="43.82264" lon="1.97856">
        <ele>239.6</ele>
        <time>2020-07-15T12:42:06Z</time>
      </trkpt>
      <trkpt lat="43.82268" lon="1.97852">
        <ele>239.8</ele>
        <time>2020-07-15T12:42:07Z</time>
      </trkpt>
      <trkpt lat="43.82271" lon="1.97848">
        <ele>240</ele>
        <time>2020-07-15T12:42:08Z</time>
      </trkpt>
      <trkpt lat="43.82274" lon="1.97845">
        <ele>240</ele>
        <time>2020-07-15T12:42:09Z</time>
      </trkpt>
      <trkpt lat="43.82278" lon="1.97841">
        <ele>240.2</ele>
        <time>2020-07-15T12:42:10Z</time>
      </trkpt>
      <trkpt lat="43.82281" lon="1.97838">
        <ele>240.4</ele>
        <time>2020-07-15T12:42:11Z</time>
      </trkpt>
      <trkpt lat="43.82284" lon="1.97835">
        <ele>240.6</ele>
        <time>2020-07-15T12:42:12Z</time>
      </trkpt>
      <trkpt lat="43.82287" lon="1.97831">
        <ele>240.6</ele>
        <time>2020-07-15T12:42:13Z</time>
      </trkpt>
      <trkpt lat="43.82291" lon="1.97828">
        <ele>241</ele>
        <time>2020-07-15T12:42:14Z</time>
      </trkpt>
      <trkpt lat="43.82294" lon="1.97825">
        <ele>241</ele>
        <time>2020-07-15T12:42:15Z</time>
      </trkpt>
      <trkpt lat="43.82297" lon="1.97822">
        <ele>241.2</ele>
        <time>2020-07-15T12:42:16Z</time>
      </trkpt>
      <trkpt lat="43.82301" lon="1.97818">
        <ele>241.4</ele>
        <time>2020-07-15T12:42:17Z</time>
      </trkpt>
      <trkpt lat="43.82304" lon="1.97815">
        <ele>241.4</ele>
        <time>2020-07-15T12:42:18Z</time>
      </trkpt>
      <trkpt lat="43.82307" lon="1.97812">
        <ele>241.6</ele>
        <time>2020-07-15T12:42:19Z</time>
      </trkpt>
      <trkpt lat="43.8231" lon="1.97808">
        <ele>241.8</ele>
        <time>2020-07-15T12:42:20Z</time>
      </trkpt>
      <trkpt lat="43.82313" lon="1.97805">
        <ele>242</ele>
        <time>2020-07-15T12:42:21Z</time>
      </trkpt>
      <trkpt lat="43.82316" lon="1.97802">
        <ele>242</ele>
        <time>2020-07-15T12:42:22Z</time>
      </trkpt>
      <trkpt lat="43.82319" lon="1.97799">
        <ele>242.2</ele>
        <time>2020-07-15T12:42:23Z</time>
      </trkpt>
      <trkpt lat="43.82322" lon="1.97796">
        <ele>242.4</ele>
        <time>2020-07-15T12:42:24Z</time>
      </trkpt>
      <trkpt lat="43.82325" lon="1.97793">
        <ele>242.6</ele>
        <time>2020-07-15T12:42:25Z</time>
      </trkpt>
      <trkpt lat="43.82328" lon="1.9779">
        <ele>242.8</ele>
        <time>2020-07-15T12:42:26Z</time>
      </trkpt>
      <trkpt lat="43.82331" lon="1.97788">
        <ele>243</ele>
        <time>2020-07-15T12:42:27Z</time>
      </trkpt>
      <trkpt lat="43.82334" lon="1.97785">
        <ele>243.2</ele>
        <time>2020-07-15T12:42:28Z</time>
      </trkpt>
      <trkpt lat="43.82337" lon="1.97782">
        <ele>243.6</ele>
        <time>2020-07-15T12:42:29Z</time>
      </trkpt>
      <trkpt lat="43.8234" lon="1.97779">
        <ele>243.8</ele>
        <time>2020-07-15T12:42:30Z</time>
      </trkpt>
      <trkpt lat="43.82343" lon="1.97776">
        <ele>244</ele>
        <time>2020-07-15T12:42:31Z</time>
      </trkpt>
      <trkpt lat="43.82346" lon="1.97773">
        <ele>244.2</ele>
        <time>2020-07-15T12:42:32Z</time>
      </trkpt>
      <trkpt lat="43.82349" lon="1.9777">
        <ele>244.2</ele>
        <time>2020-07-15T12:42:33Z</time>
      </trkpt>
      <trkpt lat="43.82352" lon="1.97767">
        <ele>244.4</ele>
        <time>2020-07-15T12:42:34Z</time>
      </trkpt>
      <trkpt lat="43.82354" lon="1.97765">
        <ele>244.6</ele>
        <time>2020-07-15T12:42:35Z</time>
      </trkpt>
      <trkpt lat="43.82357" lon="1.97762">
        <ele>244.8</ele>
        <time>2020-07-15T12:42:36Z</time>
      </trkpt>
      <trkpt lat="43.8236" lon="1.97759">
        <ele>245</ele>
        <time>2020-07-15T12:42:37Z</time>
      </trkpt>
      <trkpt lat="43.82363" lon="1.97756">
        <ele>245.2</ele>
        <time>2020-07-15T12:42:38Z</time>
      </trkpt>
      <trkpt lat="43.82365" lon="1.97754">
        <ele>245.4</ele>
        <time>2020-07-15T12:42:39Z</time>
      </trkpt>
      <trkpt lat="43.82368" lon="1.97751">
        <ele>245.6</ele>
        <time>2020-07-15T12:42:40Z</time>
      </trkpt>
      <trkpt lat="43.8237" lon="1.97748">
        <ele>245.8</ele>
        <time>2020-07-15T12:42:41Z</time>
      </trkpt>
      <trkpt lat="43.82373" lon="1.97746">
        <ele>246</ele>
        <time>2020-07-15T12:42:42Z</time>
      </trkpt>
      <trkpt lat="43.82376" lon="1.97743">
        <ele>246.2</ele>
        <time>2020-07-15T12:42:43Z</time>
      </trkpt>
      <trkpt lat="43.82379" lon="1.97741">
        <ele>246.6</ele>
        <time>2020-07-15T12:42:44Z</time>
      </trkpt>
      <trkpt lat="43.82382" lon="1.97738">
        <ele>246.8</ele>
        <time>2020-07-15T12:42:45Z</time>
      </trkpt>
      <trkpt lat="43.82385" lon="1.97736">
        <ele>247.2</ele>
        <time>2020-07-15T12:42:46Z</time>
      </trkpt>
      <trkpt lat="43.82388" lon="1.97734">
        <ele>247.6</ele>
        <time>2020-07-15T12:42:47Z</time>
      </trkpt>
      <trkpt lat="43.8239" lon="1.97732">
        <ele>248</ele>
        <time>2020-07-15T12:42:48Z</time>
      </trkpt>
      <trkpt lat="43.82393" lon="1.9773">
        <ele>248.4</ele>
        <time>2020-07-15T12:42:49Z</time>
      </trkpt>
      <trkpt lat="43.82396" lon="1.97728">
        <ele>248.8</ele>
        <time>2020-07-15T12:42:50Z</time>
      </trkpt>
      <trkpt lat="43.82399" lon="1.97726">
        <ele>249.2</ele>
        <time>2020-07-15T12:42:51Z</time>
      </trkpt>
      <trkpt lat="43.82402" lon="1.97724">
        <ele>249.6</ele>
        <time>2020-07-15T12:42:52Z</time>
      </trkpt>
      <trkpt lat="43.82405" lon="1.97722">
        <ele>249.8</ele>
        <time>2020-07-15T12:42:53Z</time>
      </trkpt>
      <trkpt lat="43.82409" lon="1.9772">
        <ele>250.2</ele>
        <time>2020-07-15T12:42:54Z</time>
      </trkpt>
      <trkpt lat="43.82411" lon="1.97719">
        <ele>250.6</ele>
        <time>2020-07-15T12:42:55Z</time>
      </trkpt>
      <trkpt lat="43.82414" lon="1.97716">
        <ele>251</ele>
        <time>2020-07-15T12:42:56Z</time>
      </trkpt>
      <trkpt lat="43.82417" lon="1.97715">
        <ele>251.4</ele>
        <time>2020-07-15T12:42:57Z</time>
      </trkpt>
      <trkpt lat="43.8242" lon="1.97713">
        <ele>252</ele>
        <time>2020-07-15T12:42:58Z</time>
      </trkpt>
      <trkpt lat="43.82423" lon="1.97711">
        <ele>252.4</ele>
        <time>2020-07-15T12:42:59Z</time>
      </trkpt>
      <trkpt lat="43.82425" lon="1.9771">
        <ele>252.8</ele>
        <time>2020-07-15T12:43:00Z</time>
      </trkpt>
      <trkpt lat="43.82429" lon="1.97707">
        <ele>253.4</ele>
        <time>2020-07-15T12:43:01Z</time>
      </trkpt>
      <trkpt lat="43.82432" lon="1.97705">
        <ele>253.8</ele>
        <time>2020-07-15T12:43:02Z</time>
      </trkpt>
      <trkpt lat="43.82435" lon="1.97704">
        <ele>254.2</ele>
        <time>2020-07-15T12:43:03Z</time>
      </trkpt>
      <trkpt lat="43.82438" lon="1.97702">
        <ele>254.8</ele>
        <time>2020-07-15T12:43:04Z</time>
      </trkpt>
      <trkpt lat="43.82441" lon="1.97701">
        <ele>255.2</ele>
        <time>2020-07-15T12:43:05Z</time>
      </trkpt>
      <trkpt lat="43.82444" lon="1.97699">
        <ele>255.6</ele>
        <time>2020-07-15T12:43:06Z</time>
      </trkpt>
      <trkpt lat="43.82447" lon="1.97697">
        <ele>256</ele>
        <time>2020-07-15T12:43:07Z</time>
      </trkpt>
      <trkpt lat="43.82449" lon="1.97695">
        <ele>256.4</ele>
        <time>2020-07-15T12:43:08Z</time>
      </trkpt>
      <trkpt lat="43.82453" lon="1.97693">
        <ele>256.8</ele>
        <time>2020-07-15T12:43:09Z</time>
      </trkpt>
      <trkpt lat="43.82455" lon="1.97691">
        <ele>257.2</ele>
        <time>2020-07-15T12:43:10Z</time>
      </trkpt>
      <trkpt lat="43.82459" lon="1.9769">
        <ele>257.6</ele>
        <time>2020-07-15T12:43:11Z</time>
      </trkpt>
      <trkpt lat="43.82462" lon="1.97687">
        <ele>258</ele>
        <time>2020-07-15T12:43:12Z</time>
      </trkpt>
      <trkpt lat="43.82465" lon="1.97685">
        <ele>258.4</ele>
        <time>2020-07-15T12:43:13Z</time>
      </trkpt>
      <trkpt lat="43.82469" lon="1.97683">
        <ele>258.8</ele>
        <time>2020-07-15T12:43:14Z</time>
      </trkpt>
      <trkpt lat="43.82472" lon="1.97681">
        <ele>259.2</ele>
        <time>2020-07-15T12:43:15Z</time>
      </trkpt>
      <trkpt lat="43.82476" lon="1.97678">
        <ele>259.6</ele>
        <time>2020-07-15T12:43:16Z</time>
      </trkpt>
      <trkpt lat="43.8248" lon="1.97677">
        <ele>260</ele>
        <time>2020-07-15T12:43:17Z</time>
      </trkpt>
      <trkpt lat="43.82484" lon="1.97675">
        <ele>260.4</ele>
        <time>2020-07-15T12:43:18Z</time>
      </trkpt>
      <trkpt lat="43.82487" lon="1.97673">
        <ele>260.8</ele>
        <time>2020-07-15T12:43:19Z</time>
      </trkpt>
      <trkpt lat="43.82491" lon="1.97672">
        <ele>261.2</ele>
        <time>2020-07-15T12:43:20Z</time>
      </trkpt>
      <trkpt lat="43.82494" lon="1.9767">
        <ele>261.6</ele>
        <time>2020-07-15T12:43:21Z</time>
      </trkpt>
      <trkpt lat="43.82498" lon="1.97669">
        <ele>262</ele>
        <time>2020-07-15T12:43:22Z</time>
      </trkpt>
      <trkpt lat="43.82501" lon="1.97667">
        <ele>262.4</ele>
        <time>2020-07-15T12:43:23Z</time>
      </trkpt>
      <trkpt lat="43.82505" lon="1.97666">
        <ele>262.8</ele>
        <time>2020-07-15T12:43:24Z</time>
      </trkpt>
      <trkpt lat="43.82508" lon="1.97664">
        <ele>263.2</ele>
        <time>2020-07-15T12:43:25Z</time>
      </trkpt>
      <trkpt lat="43.82512" lon="1.97663">
        <ele>263.6</ele>
        <time>2020-07-15T12:43:26Z</time>
      </trkpt>
      <trkpt lat="43.82515" lon="1.97662">
        <ele>264</ele>
        <time>2020-07-15T12:43:27Z</time>
      </trkpt>
      <trkpt lat="43.82518" lon="1.97661">
        <ele>264.6</ele>
        <time>2020-07-15T12:43:28Z</time>
      </trkpt>
      <trkpt lat="43.82521" lon="1.9766">
        <ele>265</ele>
        <time>2020-07-15T12:43:29Z</time>
      </trkpt>
      <trkpt lat="43.82524" lon="1.97659">
        <ele>265.4</ele>
        <time>2020-07-15T12:43:30Z</time>
      </trkpt>
      <trkpt lat="43.82527" lon="1.97658">
        <ele>265.8</ele>
        <time>2020-07-15T12:43:31Z</time>
      </trkpt>
      <trkpt lat="43.8253" lon="1.97657">
        <ele>266.4</ele>
        <time>2020-07-15T12:43:32Z</time>
      </trkpt>
      <trkpt lat="43.82533" lon="1.97655">
        <ele>266.8</ele>
        <time>2020-07-15T12:43:33Z</time>
      </trkpt>
      <trkpt lat="43.82536" lon="1.97654">
        <ele>267.2</ele>
        <time>2020-07-15T12:43:34Z</time>
      </trkpt>
      <trkpt lat="43.82538" lon="1.97652">
        <ele>267.6</ele>
        <time>2020-07-15T12:43:35Z</time>
      </trkpt>
      <trkpt lat="43.82541" lon="1.97651">
        <ele>268.2</ele>
        <time>2020-07-15T12:43:36Z</time>
      </trkpt>
      <trkpt lat="43.82544" lon="1.97648">
        <ele>268.6</ele>
        <time>2020-07-15T12:43:37Z</time>
      </trkpt>
      <trkpt lat="43.82546" lon="1.97646">
        <ele>269.2</ele>
        <time>2020-07-15T12:43:38Z</time>
      </trkpt>
      <trkpt lat="43.82549" lon="1.97643">
        <ele>269.6</ele>
        <time>2020-07-15T12:43:39Z</time>
      </trkpt>
      <trkpt lat="43.8255" lon="1.97639">
        <ele>270</ele>
        <time>2020-07-15T12:43:40Z</time>
      </trkpt>
      <trkpt lat="43.82552" lon="1.97636">
        <ele>270.4</ele>
        <time>2020-07-15T12:43:41Z</time>
      </trkpt>
      <trkpt lat="43.82554" lon="1.97633">
        <ele>270.8</ele>
        <time>2020-07-15T12:43:42Z</time>
      </trkpt>
      <trkpt lat="43.82555" lon="1.9763">
        <ele>271.2</ele>
        <time>2020-07-15T12:43:43Z</time>
      </trkpt>
      <trkpt lat="43.82557" lon="1.97626">
        <ele>271.6</ele>
        <time>2020-07-15T12:43:44Z</time>
      </trkpt>
      <trkpt lat="43.82559" lon="1.97623">
        <ele>272</ele>
        <time>2020-07-15T12:43:45Z</time>
      </trkpt>
      <trkpt lat="43.8256" lon="1.97619">
        <ele>272.4</ele>
        <time>2020-07-15T12:43:46Z</time>
      </trkpt>
      <trkpt lat="43.82562" lon="1.97616">
        <ele>272.8</ele>
        <time>2020-07-15T12:43:47Z</time>
      </trkpt>
      <trkpt lat="43.82563" lon="1.97613">
        <ele>273.2</ele>
        <time>2020-07-15T12:43:48Z</time>
      </trkpt>
      <trkpt lat="43.82565" lon="1.9761">
        <ele>273.6</ele>
        <time>2020-07-15T12:43:49Z</time>
      </trkpt>
      <trkpt lat="43.82567" lon="1.97607">
        <ele>273.8</ele>
        <time>2020-07-15T12:43:50Z</time>
      </trkpt>
      <trkpt lat="43.82568" lon="1.97605">
        <ele>274</ele>
        <time>2020-07-15T12:43:51Z</time>
      </trkpt>
      <trkpt lat="43.82569" lon="1.97602">
        <ele>274.2</ele>
        <time>2020-07-15T12:43:52Z</time>
      </trkpt>
      <trkpt lat="43.82571" lon="1.97598">
        <ele>274.2</ele>
        <time>2020-07-15T12:43:53Z</time>
      </trkpt>
      <trkpt lat="43.82573" lon="1.97594">
        <ele>274.2</ele>
        <time>2020-07-15T12:43:54Z</time>
      </trkpt>
      <trkpt lat="43.82575" lon="1.97589">
        <ele>274</ele>
        <time>2020-07-15T12:43:55Z</time>
      </trkpt>
      <trkpt lat="43.82578" lon="1.97584">
        <ele>274</ele>
        <time>2020-07-15T12:43:56Z</time>
      </trkpt>
      <trkpt lat="43.8258" lon="1.97579">
        <ele>273.8</ele>
        <time>2020-07-15T12:43:57Z</time>
      </trkpt>
      <trkpt lat="43.82583" lon="1.97573">
        <ele>273.6</ele>
        <time>2020-07-15T12:43:58Z</time>
      </trkpt>
      <trkpt lat="43.82586" lon="1.97567">
        <ele>273.2</ele>
        <time>2020-07-15T12:43:59Z</time>
      </trkpt>
      <trkpt lat="43.82589" lon="1.97561">
        <ele>273</ele>
        <time>2020-07-15T12:44:00Z</time>
      </trkpt>
      <trkpt lat="43.82592" lon="1.97555">
        <ele>272.8</ele>
        <time>2020-07-15T12:44:01Z</time>
      </trkpt>
      <trkpt lat="43.82595" lon="1.97548">
        <ele>272.4</ele>
        <time>2020-07-15T12:44:02Z</time>
      </trkpt>
      <trkpt lat="43.82599" lon="1.97542">
        <ele>272.2</ele>
        <time>2020-07-15T12:44:03Z</time>
      </trkpt>
      <trkpt lat="43.82602" lon="1.97535">
        <ele>272</ele>
        <time>2020-07-15T12:44:04Z</time>
      </trkpt>
      <trkpt lat="43.82605" lon="1.97528">
        <ele>271.8</ele>
        <time>2020-07-15T12:44:05Z</time>
      </trkpt>
      <trkpt lat="43.82608" lon="1.97521">
        <ele>271.4</ele>
        <time>2020-07-15T12:44:06Z</time>
      </trkpt>
      <trkpt lat="43.82612" lon="1.97514">
        <ele>271.2</ele>
        <time>2020-07-15T12:44:07Z</time>
      </trkpt>
      <trkpt lat="43.82616" lon="1.97507">
        <ele>271</ele>
        <time>2020-07-15T12:44:08Z</time>
      </trkpt>
      <trkpt lat="43.8262" lon="1.975">
        <ele>271</ele>
        <time>2020-07-15T12:44:09Z</time>
      </trkpt>
      <trkpt lat="43.82623" lon="1.97494">
        <ele>271</ele>
        <time>2020-07-15T12:44:10Z</time>
      </trkpt>
      <trkpt lat="43.82627" lon="1.97487">
        <ele>271</ele>
        <time>2020-07-15T12:44:11Z</time>
      </trkpt>
      <trkpt lat="43.82631" lon="1.97481">
        <ele>271</ele>
        <time>2020-07-15T12:44:12Z</time>
      </trkpt>
      <trkpt lat="43.82634" lon="1.97476">
        <ele>271</ele>
        <time>2020-07-15T12:44:13Z</time>
      </trkpt>
      <trkpt lat="43.82638" lon="1.97471">
        <ele>271.2</ele>
        <time>2020-07-15T12:44:14Z</time>
      </trkpt>
      <trkpt lat="43.82642" lon="1.97466">
        <ele>271.2</ele>
        <time>2020-07-15T12:44:15Z</time>
      </trkpt>
      <trkpt lat="43.82645" lon="1.97461">
        <ele>271.4</ele>
        <time>2020-07-15T12:44:16Z</time>
      </trkpt>
      <trkpt lat="43.82648" lon="1.97456">
        <ele>271.4</ele>
        <time>2020-07-15T12:44:17Z</time>
      </trkpt>
      <trkpt lat="43.82651" lon="1.97451">
        <ele>271.6</ele>
        <time>2020-07-15T12:44:18Z</time>
      </trkpt>
      <trkpt lat="43.82653" lon="1.97447">
        <ele>271.8</ele>
        <time>2020-07-15T12:44:19Z</time>
      </trkpt>
      <trkpt lat="43.82654" lon="1.97442">
        <ele>272</ele>
        <time>2020-07-15T12:44:20Z</time>
      </trkpt>
      <trkpt lat="43.82656" lon="1.97437">
        <ele>272.2</ele>
        <time>2020-07-15T12:44:21Z</time>
      </trkpt>
      <trkpt lat="43.82658" lon="1.97432">
        <ele>272.4</ele>
        <time>2020-07-15T12:44:22Z</time>
      </trkpt>
      <trkpt lat="43.8266" lon="1.97428">
        <ele>272.6</ele>
        <time>2020-07-15T12:44:23Z</time>
      </trkpt>
      <trkpt lat="43.82662" lon="1.97423">
        <ele>272.8</ele>
        <time>2020-07-15T12:44:24Z</time>
      </trkpt>
      <trkpt lat="43.82665" lon="1.97417">
        <ele>272.8</ele>
        <time>2020-07-15T12:44:25Z</time>
      </trkpt>
      <trkpt lat="43.82666" lon="1.97411">
        <ele>272.8</ele>
        <time>2020-07-15T12:44:26Z</time>
      </trkpt>
      <trkpt lat="43.82669" lon="1.97405">
        <ele>272.8</ele>
        <time>2020-07-15T12:44:27Z</time>
      </trkpt>
      <trkpt lat="43.82671" lon="1.97399">
        <ele>272.8</ele>
        <time>2020-07-15T12:44:28Z</time>
      </trkpt>
      <trkpt lat="43.82673" lon="1.97393">
        <ele>272.8</ele>
        <time>2020-07-15T12:44:29Z</time>
      </trkpt>
      <trkpt lat="43.82676" lon="1.97386">
        <ele>272.8</ele>
        <time>2020-07-15T12:44:30Z</time>
      </trkpt>
      <trkpt lat="43.82679" lon="1.9738">
        <ele>272.8</ele>
        <time>2020-07-15T12:44:31Z</time>
      </trkpt>
      <trkpt lat="43.82682" lon="1.97375">
        <ele>272.8</ele>
        <time>2020-07-15T12:44:32Z</time>
      </trkpt>
      <trkpt lat="43.82684" lon="1.97369">
        <ele>272.6</ele>
        <time>2020-07-15T12:44:33Z</time>
      </trkpt>
      <trkpt lat="43.82688" lon="1.97364">
        <ele>272.8</ele>
        <time>2020-07-15T12:44:34Z</time>
      </trkpt>
      <trkpt lat="43.82691" lon="1.97359">
        <ele>272.8</ele>
        <time>2020-07-15T12:44:35Z</time>
      </trkpt>
      <trkpt lat="43.82695" lon="1.97355">
        <ele>272.8</ele>
        <time>2020-07-15T12:44:36Z</time>
      </trkpt>
      <trkpt lat="43.82697" lon="1.9735">
        <ele>273</ele>
        <time>2020-07-15T12:44:37Z</time>
      </trkpt>
      <trkpt lat="43.827" lon="1.97345">
        <ele>273.2</ele>
        <time>2020-07-15T12:44:38Z</time>
      </trkpt>
      <trkpt lat="43.82703" lon="1.9734">
        <ele>273.2</ele>
        <time>2020-07-15T12:44:39Z</time>
      </trkpt>
      <trkpt lat="43.82706" lon="1.97336">
        <ele>273.4</ele>
        <time>2020-07-15T12:44:40Z</time>
      </trkpt>
      <trkpt lat="43.82709" lon="1.97332">
        <ele>273.6</ele>
        <time>2020-07-15T12:44:41Z</time>
      </trkpt>
      <trkpt lat="43.82712" lon="1.97328">
        <ele>273.8</ele>
        <time>2020-07-15T12:44:42Z</time>
      </trkpt>
      <trkpt lat="43.82716" lon="1.97324">
        <ele>274</ele>
        <time>2020-07-15T12:44:43Z</time>
      </trkpt>
      <trkpt lat="43.82719" lon="1.97321">
        <ele>274.2</ele>
        <time>2020-07-15T12:44:44Z</time>
      </trkpt>
      <trkpt lat="43.82723" lon="1.97319">
        <ele>274.4</ele>
        <time>2020-07-15T12:44:45Z</time>
      </trkpt>
      <trkpt lat="43.82726" lon="1.97317">
        <ele>274.6</ele>
        <time>2020-07-15T12:44:46Z</time>
      </trkpt>
      <trkpt lat="43.8273" lon="1.97315">
        <ele>274.8</ele>
        <time>2020-07-15T12:44:47Z</time>
      </trkpt>
      <trkpt lat="43.82733" lon="1.97314">
        <ele>275</ele>
        <time>2020-07-15T12:44:48Z</time>
      </trkpt>
      <trkpt lat="43.82737" lon="1.97313">
        <ele>275.2</ele>
        <time>2020-07-15T12:44:49Z</time>
      </trkpt>
      <trkpt lat="43.8274" lon="1.97312">
        <ele>275.6</ele>
        <time>2020-07-15T12:44:50Z</time>
      </trkpt>
      <trkpt lat="43.82743" lon="1.97311">
        <ele>275.8</ele>
        <time>2020-07-15T12:44:51Z</time>
      </trkpt>
      <trkpt lat="43.82747" lon="1.97311">
        <ele>276.2</ele>
        <time>2020-07-15T12:44:52Z</time>
      </trkpt>
      <trkpt lat="43.82749" lon="1.9731">
        <ele>276.4</ele>
        <time>2020-07-15T12:44:53Z</time>
      </trkpt>
      <trkpt lat="43.82752" lon="1.9731">
        <ele>276.8</ele>
        <time>2020-07-15T12:44:54Z</time>
      </trkpt>
      <trkpt lat="43.82755" lon="1.97311">
        <ele>277</ele>
        <time>2020-07-15T12:44:55Z</time>
      </trkpt>
      <trkpt lat="43.82757" lon="1.9731">
        <ele>277.4</ele>
        <time>2020-07-15T12:44:56Z</time>
      </trkpt>
      <trkpt lat="43.8276" lon="1.9731">
        <ele>277.6</ele>
        <time>2020-07-15T12:44:57Z</time>
      </trkpt>
      <trkpt lat="43.82762" lon="1.97308">
        <ele>277.8</ele>
        <time>2020-07-15T12:44:58Z</time>
      </trkpt>
      <trkpt lat="43.82764" lon="1.97307">
        <ele>277.8</ele>
        <time>2020-07-15T12:44:59Z</time>
      </trkpt>
      <trkpt lat="43.82766" lon="1.97304">
        <ele>277.8</ele>
        <time>2020-07-15T12:45:00Z</time>
      </trkpt>
      <trkpt lat="43.82769" lon="1.973">
        <ele>277.8</ele>
        <time>2020-07-15T12:45:01Z</time>
      </trkpt>
      <trkpt lat="43.82772" lon="1.97295">
        <ele>277.6</ele>
        <time>2020-07-15T12:45:02Z</time>
      </trkpt>
      <trkpt lat="43.82774" lon="1.97291">
        <ele>277.6</ele>
        <time>2020-07-15T12:45:03Z</time>
      </trkpt>
      <trkpt lat="43.82777" lon="1.97285">
        <ele>277.4</ele>
        <time>2020-07-15T12:45:04Z</time>
      </trkpt>
      <trkpt lat="43.82781" lon="1.9728">
        <ele>277.2</ele>
        <time>2020-07-15T12:45:05Z</time>
      </trkpt>
      <trkpt lat="43.82784" lon="1.97274">
        <ele>277</ele>
        <time>2020-07-15T12:45:06Z</time>
      </trkpt>
      <trkpt lat="43.82788" lon="1.97269">
        <ele>276.8</ele>
        <time>2020-07-15T12:45:07Z</time>
      </trkpt>
      <trkpt lat="43.82792" lon="1.97265">
        <ele>276.6</ele>
        <time>2020-07-15T12:45:08Z</time>
      </trkpt>
      <trkpt lat="43.82796" lon="1.97262">
        <ele>276.4</ele>
        <time>2020-07-15T12:45:09Z</time>
      </trkpt>
      <trkpt lat="43.82801" lon="1.97258">
        <ele>276</ele>
        <time>2020-07-15T12:45:10Z</time>
      </trkpt>
      <trkpt lat="43.82805" lon="1.97254">
        <ele>276</ele>
        <time>2020-07-15T12:45:11Z</time>
      </trkpt>
      <trkpt lat="43.82809" lon="1.9725">
        <ele>275.8</ele>
        <time>2020-07-15T12:45:12Z</time>
      </trkpt>
      <trkpt lat="43.82813" lon="1.97246">
        <ele>275.6</ele>
        <time>2020-07-15T12:45:13Z</time>
      </trkpt>
      <trkpt lat="43.82818" lon="1.97242">
        <ele>275.6</ele>
        <time>2020-07-15T12:45:14Z</time>
      </trkpt>
      <trkpt lat="43.82822" lon="1.97239">
        <ele>275.6</ele>
        <time>2020-07-15T12:45:15Z</time>
      </trkpt>
      <trkpt lat="43.82824" lon="1.97235">
        <ele>275.6</ele>
        <time>2020-07-15T12:45:16Z</time>
      </trkpt>
      <trkpt lat="43.82824" lon="1.9723">
        <ele>275.6</ele>
        <time>2020-07-15T12:45:17Z</time>
      </trkpt>
      <trkpt lat="43.82823" lon="1.97226">
        <ele>275.6</ele>
        <time>2020-07-15T12:45:18Z</time>
      </trkpt>
      <trkpt lat="43.82822" lon="1.97221">
        <ele>275.6</ele>
        <time>2020-07-15T12:45:19Z</time>
      </trkpt>
      <trkpt lat="43.82821" lon="1.97216">
        <ele>275.8</ele>
        <time>2020-07-15T12:45:20Z</time>
      </trkpt>
      <trkpt lat="43.82819" lon="1.97211">
        <ele>276</ele>
        <time>2020-07-15T12:45:21Z</time>
      </trkpt>
      <trkpt lat="43.82819" lon="1.97206">
        <ele>276</ele>
        <time>2020-07-15T12:45:22Z</time>
      </trkpt>
      <trkpt lat="43.82819" lon="1.97201">
        <ele>276.2</ele>
        <time>2020-07-15T12:45:23Z</time>
      </trkpt>
      <trkpt lat="43.82818" lon="1.97196">
        <ele>276.6</ele>
        <time>2020-07-15T12:45:24Z</time>
      </trkpt>
      <trkpt lat="43.82818" lon="1.97191">
        <ele>276.8</ele>
        <time>2020-07-15T12:45:25Z</time>
      </trkpt>
      <trkpt lat="43.82817" lon="1.97187">
        <ele>277.2</ele>
        <time>2020-07-15T12:45:26Z</time>
      </trkpt>
      <trkpt lat="43.82816" lon="1.97183">
        <ele>277.4</ele>
        <time>2020-07-15T12:45:27Z</time>
      </trkpt>
      <trkpt lat="43.82815" lon="1.97179">
        <ele>277.6</ele>
        <time>2020-07-15T12:45:28Z</time>
      </trkpt>
      <trkpt lat="43.82814" lon="1.97175">
        <ele>277.8</ele>
        <time>2020-07-15T12:45:29Z</time>
      </trkpt>
      <trkpt lat="43.82813" lon="1.97172">
        <ele>278</ele>
        <time>2020-07-15T12:45:30Z</time>
      </trkpt>
      <trkpt lat="43.82812" lon="1.97169">
        <ele>278.2</ele>
        <time>2020-07-15T12:45:31Z</time>
      </trkpt>
      <trkpt lat="43.82812" lon="1.97166">
        <ele>278.2</ele>
        <time>2020-07-15T12:45:32Z</time>
      </trkpt>
      <trkpt lat="43.82813" lon="1.97162">
        <ele>278.4</ele>
        <time>2020-07-15T12:45:33Z</time>
      </trkpt>
      <trkpt lat="43.82814" lon="1.97158">
        <ele>278.6</ele>
        <time>2020-07-15T12:45:34Z</time>
      </trkpt>
      <trkpt lat="43.82816" lon="1.97155">
        <ele>278.8</ele>
        <time>2020-07-15T12:45:35Z</time>
      </trkpt>
      <trkpt lat="43.82818" lon="1.97151">
        <ele>279</ele>
        <time>2020-07-15T12:45:36Z</time>
      </trkpt>
      <trkpt lat="43.82821" lon="1.97148">
        <ele>279.2</ele>
        <time>2020-07-15T12:45:37Z</time>
      </trkpt>
      <trkpt lat="43.82822" lon="1.97144">
        <ele>279.4</ele>
        <time>2020-07-15T12:45:38Z</time>
      </trkpt>
      <trkpt lat="43.82824" lon="1.9714">
        <ele>279.6</ele>
        <time>2020-07-15T12:45:39Z</time>
      </trkpt>
      <trkpt lat="43.82826" lon="1.97136">
        <ele>280</ele>
        <time>2020-07-15T12:45:40Z</time>
      </trkpt>
      <trkpt lat="43.82828" lon="1.97131">
        <ele>280.2</ele>
        <time>2020-07-15T12:45:41Z</time>
      </trkpt>
      <trkpt lat="43.82829" lon="1.97127">
        <ele>280.6</ele>
        <time>2020-07-15T12:45:42Z</time>
      </trkpt>
      <trkpt lat="43.82831" lon="1.97123">
        <ele>281</ele>
        <time>2020-07-15T12:45:43Z</time>
      </trkpt>
      <trkpt lat="43.82833" lon="1.97119">
        <ele>281.6</ele>
        <time>2020-07-15T12:45:44Z</time>
      </trkpt>
      <trkpt lat="43.82835" lon="1.97115">
        <ele>282</ele>
        <time>2020-07-15T12:45:45Z</time>
      </trkpt>
      <trkpt lat="43.82836" lon="1.97112">
        <ele>282.4</ele>
        <time>2020-07-15T12:45:46Z</time>
      </trkpt>
      <trkpt lat="43.82837" lon="1.97109">
        <ele>283</ele>
        <time>2020-07-15T12:45:47Z</time>
      </trkpt>
      <trkpt lat="43.82839" lon="1.97105">
        <ele>283.6</ele>
        <time>2020-07-15T12:45:48Z</time>
      </trkpt>
      <trkpt lat="43.8284" lon="1.97101">
        <ele>284</ele>
        <time>2020-07-15T12:45:49Z</time>
      </trkpt>
      <trkpt lat="43.82842" lon="1.97097">
        <ele>284.6</ele>
        <time>2020-07-15T12:45:50Z</time>
      </trkpt>
      <trkpt lat="43.82844" lon="1.97093">
        <ele>285</ele>
        <time>2020-07-15T12:45:51Z</time>
      </trkpt>
      <trkpt lat="43.82846" lon="1.97089">
        <ele>285.4</ele>
        <time>2020-07-15T12:45:52Z</time>
      </trkpt>
      <trkpt lat="43.82847" lon="1.97085">
        <ele>286</ele>
        <time>2020-07-15T12:45:53Z</time>
      </trkpt>
      <trkpt lat="43.82849" lon="1.97082">
        <ele>286.4</ele>
        <time>2020-07-15T12:45:54Z</time>
      </trkpt>
      <trkpt lat="43.82851" lon="1.97079">
        <ele>286.8</ele>
        <time>2020-07-15T12:45:55Z</time>
      </trkpt>
      <trkpt lat="43.82852" lon="1.97075">
        <ele>287.4</ele>
        <time>2020-07-15T12:45:56Z</time>
      </trkpt>
      <trkpt lat="43.82853" lon="1.97071">
        <ele>287.8</ele>
        <time>2020-07-15T12:45:57Z</time>
      </trkpt>
      <trkpt lat="43.82855" lon="1.97067">
        <ele>288.2</ele>
        <time>2020-07-15T12:45:58Z</time>
      </trkpt>
      <trkpt lat="43.82856" lon="1.97063">
        <ele>288.6</ele>
        <time>2020-07-15T12:45:59Z</time>
      </trkpt>
      <trkpt lat="43.82857" lon="1.97059">
        <ele>289</ele>
        <time>2020-07-15T12:46:00Z</time>
      </trkpt>
      <trkpt lat="43.82858" lon="1.97055">
        <ele>289.4</ele>
        <time>2020-07-15T12:46:01Z</time>
      </trkpt>
      <trkpt lat="43.82859" lon="1.9705">
        <ele>289.6</ele>
        <time>2020-07-15T12:46:02Z</time>
      </trkpt>
      <trkpt lat="43.8286" lon="1.97046">
        <ele>290</ele>
        <time>2020-07-15T12:46:03Z</time>
      </trkpt>
      <trkpt lat="43.82862" lon="1.97042">
        <ele>290.4</ele>
        <time>2020-07-15T12:46:04Z</time>
      </trkpt>
      <trkpt lat="43.82863" lon="1.97038">
        <ele>290.6</ele>
        <time>2020-07-15T12:46:05Z</time>
      </trkpt>
      <trkpt lat="43.82864" lon="1.97034">
        <ele>291</ele>
        <time>2020-07-15T12:46:06Z</time>
      </trkpt>
      <trkpt lat="43.82866" lon="1.97031">
        <ele>291.2</ele>
        <time>2020-07-15T12:46:07Z</time>
      </trkpt>
      <trkpt lat="43.82867" lon="1.97027">
        <ele>291.4</ele>
        <time>2020-07-15T12:46:08Z</time>
      </trkpt>
      <trkpt lat="43.82869" lon="1.97023">
        <ele>291.6</ele>
        <time>2020-07-15T12:46:09Z</time>
      </trkpt>
      <trkpt lat="43.8287" lon="1.97019">
        <ele>291.8</ele>
        <time>2020-07-15T12:46:10Z</time>
      </trkpt>
      <trkpt lat="43.82871" lon="1.97015">
        <ele>292</ele>
        <time>2020-07-15T12:46:11Z</time>
      </trkpt>
      <trkpt lat="43.82871" lon="1.9701">
        <ele>292.2</ele>
        <time>2020-07-15T12:46:12Z</time>
      </trkpt>
      <trkpt lat="43.82871" lon="1.97006">
        <ele>292.4</ele>
        <time>2020-07-15T12:46:13Z</time>
      </trkpt>
      <trkpt lat="43.82871" lon="1.97001">
        <ele>292.6</ele>
        <time>2020-07-15T12:46:14Z</time>
      </trkpt>
      <trkpt lat="43.82871" lon="1.96997">
        <ele>292.6</ele>
        <time>2020-07-15T12:46:15Z</time>
      </trkpt>
      <trkpt lat="43.82871" lon="1.96992">
        <ele>292.8</ele>
        <time>2020-07-15T12:46:16Z</time>
      </trkpt>
      <trkpt lat="43.82872" lon="1.96986">
        <ele>292.8</ele>
        <time>2020-07-15T12:46:17Z</time>
      </trkpt>
      <trkpt lat="43.82872" lon="1.96982">
        <ele>293</ele>
        <time>2020-07-15T12:46:18Z</time>
      </trkpt>
      <trkpt lat="43.82872" lon="1.96977">
        <ele>293.2</ele>
        <time>2020-07-15T12:46:19Z</time>
      </trkpt>
      <trkpt lat="43.82872" lon="1.96973">
        <ele>293.2</ele>
        <time>2020-07-15T12:46:20Z</time>
      </trkpt>
      <trkpt lat="43.82872" lon="1.96969">
        <ele>293.4</ele>
        <time>2020-07-15T12:46:21Z</time>
      </trkpt>
      <trkpt lat="43.82872" lon="1.96965">
        <ele>293.6</ele>
        <time>2020-07-15T12:46:22Z</time>
      </trkpt>
      <trkpt lat="43.82872" lon="1.96961">
        <ele>294</ele>
        <time>2020-07-15T12:46:23Z</time>
      </trkpt>
      <trkpt lat="43.82871" lon="1.96958">
        <ele>294.2</ele>
        <time>2020-07-15T12:46:24Z</time>
      </trkpt>
      <trkpt lat="43.82872" lon="1.96955">
        <ele>294.6</ele>
        <time>2020-07-15T12:46:25Z</time>
      </trkpt>
      <trkpt lat="43.82871" lon="1.96952">
        <ele>295</ele>
        <time>2020-07-15T12:46:26Z</time>
      </trkpt>
      <trkpt lat="43.82871" lon="1.96949">
        <ele>295.2</ele>
        <time>2020-07-15T12:46:27Z</time>
      </trkpt>
      <trkpt lat="43.82871" lon="1.96947">
        <ele>295.6</ele>
        <time>2020-07-15T12:46:28Z</time>
      </trkpt>
      <trkpt lat="43.8287" lon="1.96944">
        <ele>296</ele>
        <time>2020-07-15T12:46:29Z</time>
      </trkpt>
      <trkpt lat="43.82869" lon="1.96942">
        <ele>296.4</ele>
        <time>2020-07-15T12:46:30Z</time>
      </trkpt>
      <trkpt lat="43.82869" lon="1.96939">
        <ele>296.6</ele>
        <time>2020-07-15T12:46:31Z</time>
      </trkpt>
      <trkpt lat="43.82868" lon="1.96936">
        <ele>297</ele>
        <time>2020-07-15T12:46:32Z</time>
      </trkpt>
      <trkpt lat="43.82867" lon="1.96933">
        <ele>297.4</ele>
        <time>2020-07-15T12:46:33Z</time>
      </trkpt>
      <trkpt lat="43.82867" lon="1.96931">
        <ele>298</ele>
        <time>2020-07-15T12:46:34Z</time>
      </trkpt>
      <trkpt lat="43.82865" lon="1.96928">
        <ele>298.4</ele>
        <time>2020-07-15T12:46:35Z</time>
      </trkpt>
      <trkpt lat="43.82864" lon="1.96925">
        <ele>299</ele>
        <time>2020-07-15T12:46:36Z</time>
      </trkpt>
      <trkpt lat="43.82863" lon="1.96923">
        <ele>299.4</ele>
        <time>2020-07-15T12:46:37Z</time>
      </trkpt>
      <trkpt lat="43.82862" lon="1.9692">
        <ele>300</ele>
        <time>2020-07-15T12:46:38Z</time>
      </trkpt>
      <trkpt lat="43.82861" lon="1.96918">
        <ele>300.4</ele>
        <time>2020-07-15T12:46:39Z</time>
      </trkpt>
      <trkpt lat="43.82859" lon="1.96915">
        <ele>301</ele>
        <time>2020-07-15T12:46:40Z</time>
      </trkpt>
      <trkpt lat="43.82858" lon="1.96913">
        <ele>301.4</ele>
        <time>2020-07-15T12:46:41Z</time>
      </trkpt>
      <trkpt lat="43.82857" lon="1.9691">
        <ele>301.8</ele>
        <time>2020-07-15T12:46:42Z</time>
      </trkpt>
      <trkpt lat="43.82855" lon="1.96908">
        <ele>302.4</ele>
        <time>2020-07-15T12:46:43Z</time>
      </trkpt>
      <trkpt lat="43.82854" lon="1.96906">
        <ele>302.8</ele>
        <time>2020-07-15T12:46:44Z</time>
      </trkpt>
      <trkpt lat="43.82852" lon="1.96903">
        <ele>303.2</ele>
        <time>2020-07-15T12:46:45Z</time>
      </trkpt>
      <trkpt lat="43.8285" lon="1.96901">
        <ele>303.6</ele>
        <time>2020-07-15T12:46:46Z</time>
      </trkpt>
      <trkpt lat="43.82848" lon="1.96898">
        <ele>304.2</ele>
        <time>2020-07-15T12:46:47Z</time>
      </trkpt>
      <trkpt lat="43.82846" lon="1.96896">
        <ele>304.6</ele>
        <time>2020-07-15T12:46:48Z</time>
      </trkpt>
      <trkpt lat="43.82844" lon="1.96893">
        <ele>305.2</ele>
        <time>2020-07-15T12:46:49Z</time>
      </trkpt>
      <trkpt lat="43.82842" lon="1.9689">
        <ele>305.6</ele>
        <time>2020-07-15T12:46:50Z</time>
      </trkpt>
      <trkpt lat="43.8284" lon="1.96887">
        <ele>306</ele>
        <time>2020-07-15T12:46:51Z</time>
      </trkpt>
      <trkpt lat="43.82839" lon="1.96884">
        <ele>306.6</ele>
        <time>2020-07-15T12:46:52Z</time>
      </trkpt>
      <trkpt lat="43.82838" lon="1.96881">
        <ele>307</ele>
        <time>2020-07-15T12:46:53Z</time>
      </trkpt>
      <trkpt lat="43.82836" lon="1.96878">
        <ele>307.4</ele>
        <time>2020-07-15T12:46:54Z</time>
      </trkpt>
      <trkpt lat="43.82835" lon="1.96875">
        <ele>307.8</ele>
        <time>2020-07-15T12:46:55Z</time>
      </trkpt>
      <trkpt lat="43.82834" lon="1.96873">
        <ele>308.2</ele>
        <time>2020-07-15T12:46:56Z</time>
      </trkpt>
      <trkpt lat="43.82832" lon="1.9687">
        <ele>308.6</ele>
        <time>2020-07-15T12:46:57Z</time>
      </trkpt>
      <trkpt lat="43.82831" lon="1.96866">
        <ele>309</ele>
        <time>2020-07-15T12:46:58Z</time>
      </trkpt>
      <trkpt lat="43.8283" lon="1.96862">
        <ele>309.4</ele>
        <time>2020-07-15T12:46:59Z</time>
      </trkpt>
      <trkpt lat="43.8283" lon="1.96858">
        <ele>310</ele>
        <time>2020-07-15T12:47:00Z</time>
      </trkpt>
      <trkpt lat="43.82829" lon="1.96854">
        <ele>310.4</ele>
        <time>2020-07-15T12:47:01Z</time>
      </trkpt>
      <trkpt lat="43.82827" lon="1.9685">
        <ele>311</ele>
        <time>2020-07-15T12:47:02Z</time>
      </trkpt>
      <trkpt lat="43.82827" lon="1.96846">
        <ele>311.6</ele>
        <time>2020-07-15T12:47:03Z</time>
      </trkpt>
      <trkpt lat="43.82825" lon="1.96842">
        <ele>312</ele>
        <time>2020-07-15T12:47:04Z</time>
      </trkpt>
      <trkpt lat="43.82824" lon="1.96838">
        <ele>312.6</ele>
        <time>2020-07-15T12:47:05Z</time>
      </trkpt>
      <trkpt lat="43.82823" lon="1.96834">
        <ele>313.2</ele>
        <time>2020-07-15T12:47:06Z</time>
      </trkpt>
      <trkpt lat="43.82822" lon="1.96831">
        <ele>313.6</ele>
        <time>2020-07-15T12:47:07Z</time>
      </trkpt>
      <trkpt lat="43.82821" lon="1.96827">
        <ele>314.2</ele>
        <time>2020-07-15T12:47:08Z</time>
      </trkpt>
      <trkpt lat="43.8282" lon="1.96824">
        <ele>314.6</ele>
        <time>2020-07-15T12:47:09Z</time>
      </trkpt>
      <trkpt lat="43.82819" lon="1.9682">
        <ele>315</ele>
        <time>2020-07-15T12:47:10Z</time>
      </trkpt>
      <trkpt lat="43.82818" lon="1.96817">
        <ele>315.4</ele>
        <time>2020-07-15T12:47:11Z</time>
      </trkpt>
      <trkpt lat="43.82814" lon="1.96805">
        <ele>315.8</ele>
        <time>2020-07-15T12:47:12Z</time>
      </trkpt>
      <trkpt lat="43.82811" lon="1.96793">
        <ele>316.2</ele>
        <time>2020-07-15T12:47:13Z</time>
      </trkpt>
      <trkpt lat="43.82808" lon="1.96781">
        <ele>316.4</ele>
        <time>2020-07-15T12:47:14Z</time>
      </trkpt>
      <trkpt lat="43.82809" lon="1.96778">
        <ele>316.8</ele>
        <time>2020-07-15T12:47:15Z</time>
      </trkpt>
      <trkpt lat="43.8281" lon="1.96773">
        <ele>317.2</ele>
        <time>2020-07-15T12:47:16Z</time>
      </trkpt>
      <trkpt lat="43.82811" lon="1.9677">
        <ele>317.4</ele>
        <time>2020-07-15T12:47:17Z</time>
      </trkpt>
      <trkpt lat="43.82811" lon="1.96765">
        <ele>317.6</ele>
        <time>2020-07-15T12:47:18Z</time>
      </trkpt>
      <trkpt lat="43.82811" lon="1.9676">
        <ele>317.8</ele>
        <time>2020-07-15T12:47:19Z</time>
      </trkpt>
      <trkpt lat="43.82812" lon="1.96756">
        <ele>317.8</ele>
        <time>2020-07-15T12:47:20Z</time>
      </trkpt>
      <trkpt lat="43.82812" lon="1.96751">
        <ele>317.8</ele>
        <time>2020-07-15T12:47:21Z</time>
      </trkpt>
      <trkpt lat="43.82813" lon="1.96746">
        <ele>318</ele>
        <time>2020-07-15T12:47:22Z</time>
      </trkpt>
      <trkpt lat="43.82814" lon="1.96741">
        <ele>318.2</ele>
        <time>2020-07-15T12:47:23Z</time>
      </trkpt>
      <trkpt lat="43.82815" lon="1.96736">
        <ele>318.2</ele>
        <time>2020-07-15T12:47:24Z</time>
      </trkpt>
      <trkpt lat="43.82816" lon="1.96731">
        <ele>318.4</ele>
        <time>2020-07-15T12:47:25Z</time>
      </trkpt>
      <trkpt lat="43.82816" lon="1.96726">
        <ele>318.8</ele>
        <time>2020-07-15T12:47:26Z</time>
      </trkpt>
      <trkpt lat="43.82817" lon="1.96721">
        <ele>319</ele>
        <time>2020-07-15T12:47:27Z</time>
      </trkpt>
      <trkpt lat="43.82817" lon="1.96717">
        <ele>319.4</ele>
        <time>2020-07-15T12:47:28Z</time>
      </trkpt>
      <trkpt lat="43.82817" lon="1.96712">
        <ele>319.8</ele>
        <time>2020-07-15T12:47:29Z</time>
      </trkpt>
      <trkpt lat="43.82817" lon="1.96708">
        <ele>320</ele>
        <time>2020-07-15T12:47:30Z</time>
      </trkpt>
      <trkpt lat="43.82818" lon="1.96704">
        <ele>320.4</ele>
        <time>2020-07-15T12:47:31Z</time>
      </trkpt>
      <trkpt lat="43.82818" lon="1.967">
        <ele>320.6</ele>
        <time>2020-07-15T12:47:32Z</time>
      </trkpt>
      <trkpt lat="43.82817" lon="1.96695">
        <ele>320.6</ele>
        <time>2020-07-15T12:47:33Z</time>
      </trkpt>
      <trkpt lat="43.82817" lon="1.96691">
        <ele>320.8</ele>
        <time>2020-07-15T12:47:34Z</time>
      </trkpt>
      <trkpt lat="43.82816" lon="1.96686">
        <ele>321</ele>
        <time>2020-07-15T12:47:35Z</time>
      </trkpt>
      <trkpt lat="43.82816" lon="1.96681">
        <ele>320.8</ele>
        <time>2020-07-15T12:47:36Z</time>
      </trkpt>
      <trkpt lat="43.82815" lon="1.96676">
        <ele>320.6</ele>
        <time>2020-07-15T12:47:37Z</time>
      </trkpt>
      <trkpt lat="43.82814" lon="1.9667">
        <ele>320.2</ele>
        <time>2020-07-15T12:47:38Z</time>
      </trkpt>
      <trkpt lat="43.82811" lon="1.96664">
        <ele>319.6</ele>
        <time>2020-07-15T12:47:39Z</time>
      </trkpt>
      <trkpt lat="43.82808" lon="1.96657">
        <ele>319</ele>
        <time>2020-07-15T12:47:40Z</time>
      </trkpt>
      <trkpt lat="43.82805" lon="1.96651">
        <ele>318.8</ele>
        <time>2020-07-15T12:47:41Z</time>
      </trkpt>
      <trkpt lat="43.82801" lon="1.96643">
        <ele>318.4</ele>
        <time>2020-07-15T12:47:42Z</time>
      </trkpt>
      <trkpt lat="43.82797" lon="1.96636">
        <ele>318.2</ele>
        <time>2020-07-15T12:47:43Z</time>
      </trkpt>
      <trkpt lat="43.82793" lon="1.96628">
        <ele>317.6</ele>
        <time>2020-07-15T12:47:44Z</time>
      </trkpt>
      <trkpt lat="43.82788" lon="1.96622">
        <ele>317.2</ele>
        <time>2020-07-15T12:47:45Z</time>
      </trkpt>
      <trkpt lat="43.82783" lon="1.96616">
        <ele>317</ele>
        <time>2020-07-15T12:47:46Z</time>
      </trkpt>
      <trkpt lat="43.82778" lon="1.9661">
        <ele>316.6</ele>
        <time>2020-07-15T12:47:47Z</time>
      </trkpt>
      <trkpt lat="43.82773" lon="1.96605">
        <ele>316.4</ele>
        <time>2020-07-15T12:47:48Z</time>
      </trkpt>
      <trkpt lat="43.82768" lon="1.966">
        <ele>316</ele>
        <time>2020-07-15T12:47:49Z</time>
      </trkpt>
      <trkpt lat="43.82763" lon="1.96594">
        <ele>315.6</ele>
        <time>2020-07-15T12:47:50Z</time>
      </trkpt>
      <trkpt lat="43.82759" lon="1.96588">
        <ele>315</ele>
        <time>2020-07-15T12:47:51Z</time>
      </trkpt>
      <trkpt lat="43.82754" lon="1.9658">
        <ele>314.4</ele>
        <time>2020-07-15T12:47:52Z</time>
      </trkpt>
      <trkpt lat="43.82751" lon="1.96573">
        <ele>313.8</ele>
        <time>2020-07-15T12:47:53Z</time>
      </trkpt>
      <trkpt lat="43.82749" lon="1.96566">
        <ele>313</ele>
        <time>2020-07-15T12:47:54Z</time>
      </trkpt>
      <trkpt lat="43.82748" lon="1.9656">
        <ele>312.6</ele>
        <time>2020-07-15T12:47:55Z</time>
      </trkpt>
      <trkpt lat="43.82747" lon="1.96555">
        <ele>312.2</ele>
        <time>2020-07-15T12:47:56Z</time>
      </trkpt>
      <trkpt lat="43.82747" lon="1.9655">
        <ele>312</ele>
        <time>2020-07-15T12:47:57Z</time>
      </trkpt>
      <trkpt lat="43.82748" lon="1.96546">
        <ele>311.6</ele>
        <time>2020-07-15T12:47:58Z</time>
      </trkpt>
      <trkpt lat="43.8275" lon="1.96545">
        <ele>311.2</ele>
        <time>2020-07-15T12:47:59Z</time>
      </trkpt>
      <trkpt lat="43.82753" lon="1.96544">
        <ele>310.8</ele>
        <time>2020-07-15T12:48:00Z</time>
      </trkpt>
      <trkpt lat="43.82756" lon="1.96543">
        <ele>310.6</ele>
        <time>2020-07-15T12:48:01Z</time>
      </trkpt>
      <trkpt lat="43.82762" lon="1.96544">
        <ele>310.2</ele>
        <time>2020-07-15T12:48:02Z</time>
      </trkpt>
      <trkpt lat="43.82768" lon="1.96544">
        <ele>309.8</ele>
        <time>2020-07-15T12:48:03Z</time>
      </trkpt>
      <trkpt lat="43.82773" lon="1.96545">
        <ele>309.2</ele>
        <time>2020-07-15T12:48:04Z</time>
      </trkpt>
      <trkpt lat="43.82779" lon="1.96547">
        <ele>308.8</ele>
        <time>2020-07-15T12:48:05Z</time>
      </trkpt>
      <trkpt lat="43.82785" lon="1.96549">
        <ele>308.6</ele>
        <time>2020-07-15T12:48:06Z</time>
      </trkpt>
      <trkpt lat="43.82791" lon="1.96552">
        <ele>308.2</ele>
        <time>2020-07-15T12:48:07Z</time>
      </trkpt>
      <trkpt lat="43.82797" lon="1.96555">
        <ele>308</ele>
        <time>2020-07-15T12:48:08Z</time>
      </trkpt>
      <trkpt lat="43.82803" lon="1.96557">
        <ele>307.6</ele>
        <time>2020-07-15T12:48:09Z</time>
      </trkpt>
      <trkpt lat="43.82809" lon="1.96559">
        <ele>307.2</ele>
        <time>2020-07-15T12:48:10Z</time>
      </trkpt>
      <trkpt lat="43.82816" lon="1.9656">
        <ele>306.8</ele>
        <time>2020-07-15T12:48:11Z</time>
      </trkpt>
      <trkpt lat="43.82824" lon="1.9656">
        <ele>306.4</ele>
        <time>2020-07-15T12:48:12Z</time>
      </trkpt>
      <trkpt lat="43.82831" lon="1.96559">
        <ele>306</ele>
        <time>2020-07-15T12:48:13Z</time>
      </trkpt>
      <trkpt lat="43.82839" lon="1.96558">
        <ele>305.4</ele>
        <time>2020-07-15T12:48:14Z</time>
      </trkpt>
      <trkpt lat="43.82846" lon="1.96559">
        <ele>305</ele>
        <time>2020-07-15T12:48:15Z</time>
      </trkpt>
      <trkpt lat="43.82854" lon="1.9656">
        <ele>304.6</ele>
        <time>2020-07-15T12:48:16Z</time>
      </trkpt>
      <trkpt lat="43.82861" lon="1.96561">
        <ele>304.4</ele>
        <time>2020-07-15T12:48:17Z</time>
      </trkpt>
      <trkpt lat="43.82867" lon="1.96562">
        <ele>304</ele>
        <time>2020-07-15T12:48:18Z</time>
      </trkpt>
      <trkpt lat="43.82873" lon="1.96564">
        <ele>303.8</ele>
        <time>2020-07-15T12:48:19Z</time>
      </trkpt>
      <trkpt lat="43.82879" lon="1.96565">
        <ele>303.4</ele>
        <time>2020-07-15T12:48:20Z</time>
      </trkpt>
      <trkpt lat="43.82885" lon="1.96567">
        <ele>303</ele>
        <time>2020-07-15T12:48:21Z</time>
      </trkpt>
      <trkpt lat="43.82892" lon="1.9657">
        <ele>302.4</ele>
        <time>2020-07-15T12:48:22Z</time>
      </trkpt>
      <trkpt lat="43.82897" lon="1.96574">
        <ele>302</ele>
        <time>2020-07-15T12:48:23Z</time>
      </trkpt>
      <trkpt lat="43.82903" lon="1.96577">
        <ele>301.6</ele>
        <time>2020-07-15T12:48:24Z</time>
      </trkpt>
      <trkpt lat="43.8291" lon="1.96582">
        <ele>301.2</ele>
        <time>2020-07-15T12:48:25Z</time>
      </trkpt>
      <trkpt lat="43.82917" lon="1.96587">
        <ele>300.8</ele>
        <time>2020-07-15T12:48:26Z</time>
      </trkpt>
      <trkpt lat="43.82924" lon="1.96593">
        <ele>300.2</ele>
        <time>2020-07-15T12:48:27Z</time>
      </trkpt>
      <trkpt lat="43.82932" lon="1.96601">
        <ele>299.8</ele>
        <time>2020-07-15T12:48:28Z</time>
      </trkpt>
      <trkpt lat="43.82938" lon="1.96609">
        <ele>299.2</ele>
        <time>2020-07-15T12:48:29Z</time>
      </trkpt>
      <trkpt lat="43.82945" lon="1.96617">
        <ele>298.6</ele>
        <time>2020-07-15T12:48:30Z</time>
      </trkpt>
      <trkpt lat="43.82951" lon="1.96625">
        <ele>298</ele>
        <time>2020-07-15T12:48:31Z</time>
      </trkpt>
      <trkpt lat="43.82956" lon="1.96632">
        <ele>297.4</ele>
        <time>2020-07-15T12:48:32Z</time>
      </trkpt>
      <trkpt lat="43.82962" lon="1.96641">
        <ele>296.6</ele>
        <time>2020-07-15T12:48:33Z</time>
      </trkpt>
      <trkpt lat="43.82968" lon="1.96649">
        <ele>295.8</ele>
        <time>2020-07-15T12:48:34Z</time>
      </trkpt>
      <trkpt lat="43.82975" lon="1.96657">
        <ele>295.2</ele>
        <time>2020-07-15T12:48:35Z</time>
      </trkpt>
      <trkpt lat="43.82982" lon="1.96664">
        <ele>294.4</ele>
        <time>2020-07-15T12:48:36Z</time>
      </trkpt>
      <trkpt lat="43.82991" lon="1.96669">
        <ele>293.4</ele>
        <time>2020-07-15T12:48:37Z</time>
      </trkpt>
      <trkpt lat="43.83" lon="1.96674">
        <ele>292.4</ele>
        <time>2020-07-15T12:48:38Z</time>
      </trkpt>
      <trkpt lat="43.8301" lon="1.96678">
        <ele>291.4</ele>
        <time>2020-07-15T12:48:39Z</time>
      </trkpt>
      <trkpt lat="43.8302" lon="1.96682">
        <ele>290.4</ele>
        <time>2020-07-15T12:48:40Z</time>
      </trkpt>
      <trkpt lat="43.83029" lon="1.96686">
        <ele>289.2</ele>
        <time>2020-07-15T12:48:41Z</time>
      </trkpt>
      <trkpt lat="43.83037" lon="1.96689">
        <ele>288.2</ele>
        <time>2020-07-15T12:48:42Z</time>
      </trkpt>
      <trkpt lat="43.83044" lon="1.96692">
        <ele>287.2</ele>
        <time>2020-07-15T12:48:43Z</time>
      </trkpt>
      <trkpt lat="43.8305" lon="1.96694">
        <ele>286.4</ele>
        <time>2020-07-15T12:48:44Z</time>
      </trkpt>
      <trkpt lat="43.83054" lon="1.96696">
        <ele>285.6</ele>
        <time>2020-07-15T12:48:45Z</time>
      </trkpt>
      <trkpt lat="43.83058" lon="1.96698">
        <ele>284.8</ele>
        <time>2020-07-15T12:48:46Z</time>
      </trkpt>
      <trkpt lat="43.83061" lon="1.96698">
        <ele>284</ele>
        <time>2020-07-15T12:48:47Z</time>
      </trkpt>
      <trkpt lat="43.83064" lon="1.96696">
        <ele>283.4</ele>
        <time>2020-07-15T12:48:48Z</time>
      </trkpt>
      <trkpt lat="43.83066" lon="1.96693">
        <ele>282.8</ele>
        <time>2020-07-15T12:48:49Z</time>
      </trkpt>
      <trkpt lat="43.83067" lon="1.96689">
        <ele>282.4</ele>
        <time>2020-07-15T12:48:50Z</time>
      </trkpt>
      <trkpt lat="43.83068" lon="1.96684">
        <ele>282.2</ele>
        <time>2020-07-15T12:48:51Z</time>
      </trkpt>
      <trkpt lat="43.8307" lon="1.96679">
        <ele>282</ele>
        <time>2020-07-15T12:48:52Z</time>
      </trkpt>
      <trkpt lat="43.83072" lon="1.96673">
        <ele>281.8</ele>
        <time>2020-07-15T12:48:53Z</time>
      </trkpt>
      <trkpt lat="43.83075" lon="1.96666">
        <ele>281.6</ele>
        <time>2020-07-15T12:48:54Z</time>
      </trkpt>
      <trkpt lat="43.83077" lon="1.96659">
        <ele>281.4</ele>
        <time>2020-07-15T12:48:55Z</time>
      </trkpt>
      <trkpt lat="43.8308" lon="1.96653">
        <ele>281.2</ele>
        <time>2020-07-15T12:48:56Z</time>
      </trkpt>
      <trkpt lat="43.83082" lon="1.96648">
        <ele>281</ele>
        <time>2020-07-15T12:48:57Z</time>
      </trkpt>
      <trkpt lat="43.83084" lon="1.96645">
        <ele>281</ele>
        <time>2020-07-15T12:48:58Z</time>
      </trkpt>
      <trkpt lat="43.83085" lon="1.96641">
        <ele>280.8</ele>
        <time>2020-07-15T12:48:59Z</time>
      </trkpt>
      <trkpt lat="43.83087" lon="1.96637">
        <ele>280.6</ele>
        <time>2020-07-15T12:49:00Z</time>
      </trkpt>
      <trkpt lat="43.83089" lon="1.96633">
        <ele>280.6</ele>
        <time>2020-07-15T12:49:01Z</time>
      </trkpt>
      <trkpt lat="43.83093" lon="1.96626">
        <ele>280.4</ele>
        <time>2020-07-15T12:49:02Z</time>
      </trkpt>
      <trkpt lat="43.83096" lon="1.9662">
        <ele>280.2</ele>
        <time>2020-07-15T12:49:03Z</time>
      </trkpt>
      <trkpt lat="43.83101" lon="1.96614">
        <ele>280.2</ele>
        <time>2020-07-15T12:49:04Z</time>
      </trkpt>
      <trkpt lat="43.83104" lon="1.96608">
        <ele>280.2</ele>
        <time>2020-07-15T12:49:05Z</time>
      </trkpt>
      <trkpt lat="43.83108" lon="1.96602">
        <ele>280.2</ele>
        <time>2020-07-15T12:49:06Z</time>
      </trkpt>
      <trkpt lat="43.83111" lon="1.96596">
        <ele>280.4</ele>
        <time>2020-07-15T12:49:07Z</time>
      </trkpt>
      <trkpt lat="43.83115" lon="1.9659">
        <ele>280.4</ele>
        <time>2020-07-15T12:49:08Z</time>
      </trkpt>
      <trkpt lat="43.83118" lon="1.96584">
        <ele>280.4</ele>
        <time>2020-07-15T12:49:09Z</time>
      </trkpt>
      <trkpt lat="43.83122" lon="1.96578">
        <ele>280.6</ele>
        <time>2020-07-15T12:49:10Z</time>
      </trkpt>
      <trkpt lat="43.83126" lon="1.96573">
        <ele>280.6</ele>
        <time>2020-07-15T12:49:11Z</time>
      </trkpt>
      <trkpt lat="43.8313" lon="1.96569">
        <ele>280.8</ele>
        <time>2020-07-15T12:49:12Z</time>
      </trkpt>
      <trkpt lat="43.83135" lon="1.96565">
        <ele>281</ele>
        <time>2020-07-15T12:49:13Z</time>
      </trkpt>
      <trkpt lat="43.83139" lon="1.96562">
        <ele>281.2</ele>
        <time>2020-07-15T12:49:14Z</time>
      </trkpt>
      <trkpt lat="43.83143" lon="1.9656">
        <ele>281.4</ele>
        <time>2020-07-15T12:49:15Z</time>
      </trkpt>
      <trkpt lat="43.83147" lon="1.96557">
        <ele>281.6</ele>
        <time>2020-07-15T12:49:16Z</time>
      </trkpt>
      <trkpt lat="43.83151" lon="1.96554">
        <ele>281.6</ele>
        <time>2020-07-15T12:49:17Z</time>
      </trkpt>
      <trkpt lat="43.83153" lon="1.9655">
        <ele>281.8</ele>
        <time>2020-07-15T12:49:18Z</time>
      </trkpt>
      <trkpt lat="43.83155" lon="1.96546">
        <ele>281.8</ele>
        <time>2020-07-15T12:49:19Z</time>
      </trkpt>
      <trkpt lat="43.83154" lon="1.9654">
        <ele>281.6</ele>
        <time>2020-07-15T12:49:20Z</time>
      </trkpt>
      <trkpt lat="43.83154" lon="1.96533">
        <ele>281.4</ele>
        <time>2020-07-15T12:49:21Z</time>
      </trkpt>
      <trkpt lat="43.83155" lon="1.96526">
        <ele>280.8</ele>
        <time>2020-07-15T12:49:22Z</time>
      </trkpt>
      <trkpt lat="43.83157" lon="1.96518">
        <ele>280.4</ele>
        <time>2020-07-15T12:49:23Z</time>
      </trkpt>
      <trkpt lat="43.8316" lon="1.9651">
        <ele>279.8</ele>
        <time>2020-07-15T12:49:24Z</time>
      </trkpt>
      <trkpt lat="43.83163" lon="1.96501">
        <ele>279.2</ele>
        <time>2020-07-15T12:49:25Z</time>
      </trkpt>
      <trkpt lat="43.83167" lon="1.96491">
        <ele>278.4</ele>
        <time>2020-07-15T12:49:26Z</time>
      </trkpt>
      <trkpt lat="43.83172" lon="1.96482">
        <ele>277.8</ele>
        <time>2020-07-15T12:49:27Z</time>
      </trkpt>
      <trkpt lat="43.83177" lon="1.96473">
        <ele>277.2</ele>
        <time>2020-07-15T12:49:28Z</time>
      </trkpt>
      <trkpt lat="43.83182" lon="1.96465">
        <ele>276.6</ele>
        <time>2020-07-15T12:49:29Z</time>
      </trkpt>
      <trkpt lat="43.83188" lon="1.96456">
        <ele>276</ele>
        <time>2020-07-15T12:49:30Z</time>
      </trkpt>
      <trkpt lat="43.83193" lon="1.96447">
        <ele>275.4</ele>
        <time>2020-07-15T12:49:31Z</time>
      </trkpt>
      <trkpt lat="43.83198" lon="1.96438">
        <ele>274.8</ele>
        <time>2020-07-15T12:49:32Z</time>
      </trkpt>
      <trkpt lat="43.83202" lon="1.9643">
        <ele>274.4</ele>
        <time>2020-07-15T12:49:33Z</time>
      </trkpt>
      <trkpt lat="43.83206" lon="1.96422">
        <ele>274</ele>
        <time>2020-07-15T12:49:34Z</time>
      </trkpt>
      <trkpt lat="43.8321" lon="1.96415">
        <ele>273.6</ele>
        <time>2020-07-15T12:49:35Z</time>
      </trkpt>
      <trkpt lat="43.83215" lon="1.96409">
        <ele>273.2</ele>
        <time>2020-07-15T12:49:36Z</time>
      </trkpt>
      <trkpt lat="43.8322" lon="1.96403">
        <ele>273</ele>
        <time>2020-07-15T12:49:37Z</time>
      </trkpt>
      <trkpt lat="43.83225" lon="1.96397">
        <ele>272.8</ele>
        <time>2020-07-15T12:49:38Z</time>
      </trkpt>
      <trkpt lat="43.83229" lon="1.9639">
        <ele>272.6</ele>
        <time>2020-07-15T12:49:39Z</time>
      </trkpt>
      <trkpt lat="43.83234" lon="1.96382">
        <ele>272.4</ele>
        <time>2020-07-15T12:49:40Z</time>
      </trkpt>
      <trkpt lat="43.83239" lon="1.96375">
        <ele>272.4</ele>
        <time>2020-07-15T12:49:41Z</time>
      </trkpt>
      <trkpt lat="43.83244" lon="1.96368">
        <ele>272.2</ele>
        <time>2020-07-15T12:49:42Z</time>
      </trkpt>
      <trkpt lat="43.83249" lon="1.9636">
        <ele>272</ele>
        <time>2020-07-15T12:49:43Z</time>
      </trkpt>
      <trkpt lat="43.83252" lon="1.96352">
        <ele>272</ele>
        <time>2020-07-15T12:49:44Z</time>
      </trkpt>
      <trkpt lat="43.83256" lon="1.96345">
        <ele>272</ele>
        <time>2020-07-15T12:49:45Z</time>
      </trkpt>
      <trkpt lat="43.8326" lon="1.96338">
        <ele>272.2</ele>
        <time>2020-07-15T12:49:46Z</time>
      </trkpt>
      <trkpt lat="43.83263" lon="1.96332">
        <ele>272.4</ele>
        <time>2020-07-15T12:49:47Z</time>
      </trkpt>
      <trkpt lat="43.83267" lon="1.96326">
        <ele>272.4</ele>
        <time>2020-07-15T12:49:48Z</time>
      </trkpt>
      <trkpt lat="43.83271" lon="1.96321">
        <ele>272.6</ele>
        <time>2020-07-15T12:49:49Z</time>
      </trkpt>
      <trkpt lat="43.83275" lon="1.96315">
        <ele>272.8</ele>
        <time>2020-07-15T12:49:50Z</time>
      </trkpt>
      <trkpt lat="43.83279" lon="1.96309">
        <ele>272.8</ele>
        <time>2020-07-15T12:49:51Z</time>
      </trkpt>
      <trkpt lat="43.83283" lon="1.96303">
        <ele>273</ele>
        <time>2020-07-15T12:49:52Z</time>
      </trkpt>
      <trkpt lat="43.83286" lon="1.96299">
        <ele>273</ele>
        <time>2020-07-15T12:49:53Z</time>
      </trkpt>
      <trkpt lat="43.83291" lon="1.96294">
        <ele>273</ele>
        <time>2020-07-15T12:49:54Z</time>
      </trkpt>
      <trkpt lat="43.83295" lon="1.9629">
        <ele>273.2</ele>
        <time>2020-07-15T12:49:55Z</time>
      </trkpt>
      <trkpt lat="43.83301" lon="1.96284">
        <ele>273.4</ele>
        <time>2020-07-15T12:49:56Z</time>
      </trkpt>
      <trkpt lat="43.83305" lon="1.96278">
        <ele>273.4</ele>
        <time>2020-07-15T12:49:57Z</time>
      </trkpt>
      <trkpt lat="43.83308" lon="1.96272">
        <ele>273.6</ele>
        <time>2020-07-15T12:49:58Z</time>
      </trkpt>
      <trkpt lat="43.83312" lon="1.96265">
        <ele>273.6</ele>
        <time>2020-07-15T12:49:59Z</time>
      </trkpt>
      <trkpt lat="43.83316" lon="1.96259">
        <ele>273.6</ele>
        <time>2020-07-15T12:50:00Z</time>
      </trkpt>
      <trkpt lat="43.83318" lon="1.96253">
        <ele>273.4</ele>
        <time>2020-07-15T12:50:01Z</time>
      </trkpt>
      <trkpt lat="43.83321" lon="1.96246">
        <ele>273.2</ele>
        <time>2020-07-15T12:50:02Z</time>
      </trkpt>
      <trkpt lat="43.83323" lon="1.96239">
        <ele>273</ele>
        <time>2020-07-15T12:50:03Z</time>
      </trkpt>
      <trkpt lat="43.83325" lon="1.96233">
        <ele>273</ele>
        <time>2020-07-15T12:50:04Z</time>
      </trkpt>
      <trkpt lat="43.83328" lon="1.96227">
        <ele>272.8</ele>
        <time>2020-07-15T12:50:05Z</time>
      </trkpt>
      <trkpt lat="43.8333" lon="1.96221">
        <ele>272.8</ele>
        <time>2020-07-15T12:50:06Z</time>
      </trkpt>
      <trkpt lat="43.83333" lon="1.96216">
        <ele>272.8</ele>
        <time>2020-07-15T12:50:07Z</time>
      </trkpt>
      <trkpt lat="43.83335" lon="1.96212">
        <ele>272.8</ele>
        <time>2020-07-15T12:50:08Z</time>
      </trkpt>
      <trkpt lat="43.83337" lon="1.96209">
        <ele>272.8</ele>
        <time>2020-07-15T12:50:09Z</time>
      </trkpt>
      <trkpt lat="43.83339" lon="1.96206">
        <ele>272.8</ele>
        <time>2020-07-15T12:50:10Z</time>
      </trkpt>
      <trkpt lat="43.83339" lon="1.96203">
        <ele>272.8</ele>
        <time>2020-07-15T12:50:11Z</time>
      </trkpt>
      <trkpt lat="43.83341" lon="1.962">
        <ele>272.8</ele>
        <time>2020-07-15T12:50:12Z</time>
      </trkpt>
      <trkpt lat="43.83342" lon="1.96196">
        <ele>273</ele>
        <time>2020-07-15T12:50:13Z</time>
      </trkpt>
      <trkpt lat="43.83345" lon="1.96191">
        <ele>273</ele>
        <time>2020-07-15T12:50:14Z</time>
      </trkpt>
      <trkpt lat="43.83347" lon="1.96186">
        <ele>272.8</ele>
        <time>2020-07-15T12:50:15Z</time>
      </trkpt>
      <trkpt lat="43.83351" lon="1.96182">
        <ele>272.8</ele>
        <time>2020-07-15T12:50:16Z</time>
      </trkpt>
      <trkpt lat="43.83353" lon="1.96178">
        <ele>272.8</ele>
        <time>2020-07-15T12:50:17Z</time>
      </trkpt>
      <trkpt lat="43.83359" lon="1.96173">
        <ele>272.8</ele>
        <time>2020-07-15T12:50:18Z</time>
      </trkpt>
      <trkpt lat="43.83363" lon="1.96169">
        <ele>272.6</ele>
        <time>2020-07-15T12:50:19Z</time>
      </trkpt>
      <trkpt lat="43.83368" lon="1.96167">
        <ele>272.6</ele>
        <time>2020-07-15T12:50:20Z</time>
      </trkpt>
      <trkpt lat="43.83372" lon="1.96164">
        <ele>272.4</ele>
        <time>2020-07-15T12:50:21Z</time>
      </trkpt>
      <trkpt lat="43.83377" lon="1.96161">
        <ele>272.4</ele>
        <time>2020-07-15T12:50:22Z</time>
      </trkpt>
      <trkpt lat="43.83383" lon="1.96159">
        <ele>272.4</ele>
        <time>2020-07-15T12:50:23Z</time>
      </trkpt>
      <trkpt lat="43.83388" lon="1.96157">
        <ele>272.4</ele>
        <time>2020-07-15T12:50:24Z</time>
      </trkpt>
      <trkpt lat="43.83392" lon="1.96156">
        <ele>272.4</ele>
        <time>2020-07-15T12:50:25Z</time>
      </trkpt>
      <trkpt lat="43.83397" lon="1.96154">
        <ele>272.4</ele>
        <time>2020-07-15T12:50:26Z</time>
      </trkpt>
      <trkpt lat="43.83403" lon="1.96154">
        <ele>272.4</ele>
        <time>2020-07-15T12:50:27Z</time>
      </trkpt>
      <trkpt lat="43.83408" lon="1.96153">
        <ele>272.6</ele>
        <time>2020-07-15T12:50:28Z</time>
      </trkpt>
      <trkpt lat="43.83414" lon="1.96152">
        <ele>272.6</ele>
        <time>2020-07-15T12:50:29Z</time>
      </trkpt>
      <trkpt lat="43.83419" lon="1.96151">
        <ele>272.6</ele>
        <time>2020-07-15T12:50:30Z</time>
      </trkpt>
      <trkpt lat="43.83425" lon="1.96151">
        <ele>272.8</ele>
        <time>2020-07-15T12:50:31Z</time>
      </trkpt>
      <trkpt lat="43.83431" lon="1.96151">
        <ele>272.8</ele>
        <time>2020-07-15T12:50:32Z</time>
      </trkpt>
      <trkpt lat="43.83436" lon="1.96151">
        <ele>272.8</ele>
        <time>2020-07-15T12:50:33Z</time>
      </trkpt>
      <trkpt lat="43.83442" lon="1.96153">
        <ele>272.8</ele>
        <time>2020-07-15T12:50:34Z</time>
      </trkpt>
      <trkpt lat="43.83447" lon="1.96155">
        <ele>272.8</ele>
        <time>2020-07-15T12:50:35Z</time>
      </trkpt>
      <trkpt lat="43.83452" lon="1.96158">
        <ele>272.8</ele>
        <time>2020-07-15T12:50:36Z</time>
      </trkpt>
      <trkpt lat="43.83456" lon="1.96161">
        <ele>272.8</ele>
        <time>2020-07-15T12:50:37Z</time>
      </trkpt>
      <trkpt lat="43.83462" lon="1.96164">
        <ele>272.8</ele>
        <time>2020-07-15T12:50:38Z</time>
      </trkpt>
      <trkpt lat="43.83467" lon="1.96169">
        <ele>272.6</ele>
        <time>2020-07-15T12:50:39Z</time>
      </trkpt>
      <trkpt lat="43.83472" lon="1.96174">
        <ele>272.6</ele>
        <time>2020-07-15T12:50:40Z</time>
      </trkpt>
      <trkpt lat="43.83477" lon="1.96178">
        <ele>272.4</ele>
        <time>2020-07-15T12:50:41Z</time>
      </trkpt>
      <trkpt lat="43.83483" lon="1.96183">
        <ele>272.4</ele>
        <time>2020-07-15T12:50:42Z</time>
      </trkpt>
      <trkpt lat="43.83487" lon="1.96189">
        <ele>272.4</ele>
        <time>2020-07-15T12:50:43Z</time>
      </trkpt>
      <trkpt lat="43.83492" lon="1.96194">
        <ele>272.2</ele>
        <time>2020-07-15T12:50:44Z</time>
      </trkpt>
      <trkpt lat="43.83498" lon="1.96199">
        <ele>272.2</ele>
        <time>2020-07-15T12:50:45Z</time>
      </trkpt>
      <trkpt lat="43.83503" lon="1.96203">
        <ele>272</ele>
        <time>2020-07-15T12:50:46Z</time>
      </trkpt>
      <trkpt lat="43.8351" lon="1.96207">
        <ele>271.8</ele>
        <time>2020-07-15T12:50:47Z</time>
      </trkpt>
      <trkpt lat="43.83516" lon="1.96211">
        <ele>271.6</ele>
        <time>2020-07-15T12:50:48Z</time>
      </trkpt>
      <trkpt lat="43.83522" lon="1.96216">
        <ele>271.4</ele>
        <time>2020-07-15T12:50:49Z</time>
      </trkpt>
      <trkpt lat="43.83528" lon="1.9622">
        <ele>271.2</ele>
        <time>2020-07-15T12:50:50Z</time>
      </trkpt>
      <trkpt lat="43.83534" lon="1.96225">
        <ele>271</ele>
        <time>2020-07-15T12:50:51Z</time>
      </trkpt>
      <trkpt lat="43.83541" lon="1.9623">
        <ele>270.6</ele>
        <time>2020-07-15T12:50:52Z</time>
      </trkpt>
      <trkpt lat="43.83547" lon="1.96234">
        <ele>270.4</ele>
        <time>2020-07-15T12:50:53Z</time>
      </trkpt>
      <trkpt lat="43.83554" lon="1.96237">
        <ele>269.8</ele>
        <time>2020-07-15T12:50:54Z</time>
      </trkpt>
      <trkpt lat="43.8356" lon="1.96239">
        <ele>269.6</ele>
        <time>2020-07-15T12:50:55Z</time>
      </trkpt>
      <trkpt lat="43.83567" lon="1.96241">
        <ele>269.4</ele>
        <time>2020-07-15T12:50:56Z</time>
      </trkpt>
      <trkpt lat="43.83574" lon="1.96241">
        <ele>269</ele>
        <time>2020-07-15T12:50:57Z</time>
      </trkpt>
      <trkpt lat="43.83581" lon="1.96241">
        <ele>268.8</ele>
        <time>2020-07-15T12:50:58Z</time>
      </trkpt>
      <trkpt lat="43.83588" lon="1.96239">
        <ele>268.4</ele>
        <time>2020-07-15T12:50:59Z</time>
      </trkpt>
      <trkpt lat="43.83595" lon="1.96236">
        <ele>268.2</ele>
        <time>2020-07-15T12:51:00Z</time>
      </trkpt>
      <trkpt lat="43.83601" lon="1.96234">
        <ele>267.8</ele>
        <time>2020-07-15T12:51:01Z</time>
      </trkpt>
      <trkpt lat="43.83608" lon="1.9623">
        <ele>267.6</ele>
        <time>2020-07-15T12:51:02Z</time>
      </trkpt>
      <trkpt lat="43.83615" lon="1.96226">
        <ele>267.4</ele>
        <time>2020-07-15T12:51:03Z</time>
      </trkpt>
      <trkpt lat="43.83622" lon="1.96222">
        <ele>267</ele>
        <time>2020-07-15T12:51:04Z</time>
      </trkpt>
      <trkpt lat="43.83629" lon="1.96219">
        <ele>266.8</ele>
        <time>2020-07-15T12:51:05Z</time>
      </trkpt>
      <trkpt lat="43.83635" lon="1.96215">
        <ele>266.6</ele>
        <time>2020-07-15T12:51:06Z</time>
      </trkpt>
      <trkpt lat="43.83641" lon="1.96213">
        <ele>266.4</ele>
        <time>2020-07-15T12:51:07Z</time>
      </trkpt>
      <trkpt lat="43.83646" lon="1.9621">
        <ele>266</ele>
        <time>2020-07-15T12:51:08Z</time>
      </trkpt>
      <trkpt lat="43.83651" lon="1.96206">
        <ele>265.8</ele>
        <time>2020-07-15T12:51:09Z</time>
      </trkpt>
      <trkpt lat="43.83658" lon="1.96203">
        <ele>265.6</ele>
        <time>2020-07-15T12:51:10Z</time>
      </trkpt>
      <trkpt lat="43.83664" lon="1.96199">
        <ele>265.2</ele>
        <time>2020-07-15T12:51:11Z</time>
      </trkpt>
      <trkpt lat="43.8367" lon="1.96196">
        <ele>265</ele>
        <time>2020-07-15T12:51:12Z</time>
      </trkpt>
      <trkpt lat="43.83678" lon="1.96192">
        <ele>264.8</ele>
        <time>2020-07-15T12:51:13Z</time>
      </trkpt>
      <trkpt lat="43.83683" lon="1.96189">
        <ele>264.6</ele>
        <time>2020-07-15T12:51:14Z</time>
      </trkpt>
      <trkpt lat="43.8369" lon="1.96187">
        <ele>264.6</ele>
        <time>2020-07-15T12:51:15Z</time>
      </trkpt>
      <trkpt lat="43.83697" lon="1.96184">
        <ele>264.4</ele>
        <time>2020-07-15T12:51:16Z</time>
      </trkpt>
      <trkpt lat="43.83703" lon="1.96181">
        <ele>264.4</ele>
        <time>2020-07-15T12:51:17Z</time>
      </trkpt>
      <trkpt lat="43.83709" lon="1.96177">
        <ele>264.2</ele>
        <time>2020-07-15T12:51:18Z</time>
      </trkpt>
      <trkpt lat="43.83715" lon="1.96174">
        <ele>264</ele>
        <time>2020-07-15T12:51:19Z</time>
      </trkpt>
      <trkpt lat="43.83722" lon="1.9617">
        <ele>264</ele>
        <time>2020-07-15T12:51:20Z</time>
      </trkpt>
      <trkpt lat="43.8373" lon="1.96166">
        <ele>264.2</ele>
        <time>2020-07-15T12:51:21Z</time>
      </trkpt>
      <trkpt lat="43.83736" lon="1.96162">
        <ele>264.2</ele>
        <time>2020-07-15T12:51:22Z</time>
      </trkpt>
      <trkpt lat="43.83744" lon="1.96158">
        <ele>264</ele>
        <time>2020-07-15T12:51:23Z</time>
      </trkpt>
      <trkpt lat="43.83751" lon="1.96153">
        <ele>264</ele>
        <time>2020-07-15T12:51:24Z</time>
      </trkpt>
      <trkpt lat="43.83758" lon="1.96148">
        <ele>264</ele>
        <time>2020-07-15T12:51:25Z</time>
      </trkpt>
      <trkpt lat="43.83765" lon="1.96142">
        <ele>263.6</ele>
        <time>2020-07-15T12:51:26Z</time>
      </trkpt>
      <trkpt lat="43.83772" lon="1.96136">
        <ele>263.4</ele>
        <time>2020-07-15T12:51:27Z</time>
      </trkpt>
      <trkpt lat="43.83778" lon="1.9613">
        <ele>263.2</ele>
        <time>2020-07-15T12:51:28Z</time>
      </trkpt>
      <trkpt lat="43.83784" lon="1.96123">
        <ele>262.8</ele>
        <time>2020-07-15T12:51:29Z</time>
      </trkpt>
      <trkpt lat="43.83789" lon="1.96117">
        <ele>262.4</ele>
        <time>2020-07-15T12:51:30Z</time>
      </trkpt>
      <trkpt lat="43.83796" lon="1.9611">
        <ele>262</ele>
        <time>2020-07-15T12:51:31Z</time>
      </trkpt>
      <trkpt lat="43.83801" lon="1.96104">
        <ele>261.8</ele>
        <time>2020-07-15T12:51:32Z</time>
      </trkpt>
      <trkpt lat="43.83807" lon="1.96097">
        <ele>261.4</ele>
        <time>2020-07-15T12:51:33Z</time>
      </trkpt>
      <trkpt lat="43.83812" lon="1.9609">
        <ele>261.2</ele>
        <time>2020-07-15T12:51:34Z</time>
      </trkpt>
      <trkpt lat="43.83818" lon="1.96083">
        <ele>260.8</ele>
        <time>2020-07-15T12:51:35Z</time>
      </trkpt>
      <trkpt lat="43.83823" lon="1.96076">
        <ele>260.6</ele>
        <time>2020-07-15T12:51:36Z</time>
      </trkpt>
      <trkpt lat="43.83828" lon="1.96069">
        <ele>260.2</ele>
        <time>2020-07-15T12:51:37Z</time>
      </trkpt>
      <trkpt lat="43.83833" lon="1.96062">
        <ele>259.8</ele>
        <time>2020-07-15T12:51:38Z</time>
      </trkpt>
      <trkpt lat="43.83839" lon="1.96054">
        <ele>259.2</ele>
        <time>2020-07-15T12:51:39Z</time>
      </trkpt>
      <trkpt lat="43.83844" lon="1.96047">
        <ele>258.6</ele>
        <time>2020-07-15T12:51:40Z</time>
      </trkpt>
      <trkpt lat="43.83849" lon="1.96038">
        <ele>258</ele>
        <time>2020-07-15T12:51:41Z</time>
      </trkpt>
      <trkpt lat="43.83853" lon="1.96029">
        <ele>257.4</ele>
        <time>2020-07-15T12:51:42Z</time>
      </trkpt>
      <trkpt lat="43.83857" lon="1.96019">
        <ele>256.8</ele>
        <time>2020-07-15T12:51:43Z</time>
      </trkpt>
      <trkpt lat="43.8386" lon="1.96008">
        <ele>256.2</ele>
        <time>2020-07-15T12:51:44Z</time>
      </trkpt>
      <trkpt lat="43.83862" lon="1.95997">
        <ele>255.4</ele>
        <time>2020-07-15T12:51:45Z</time>
      </trkpt>
      <trkpt lat="43.83865" lon="1.95986">
        <ele>254.6</ele>
        <time>2020-07-15T12:51:46Z</time>
      </trkpt>
      <trkpt lat="43.83867" lon="1.95975">
        <ele>253.8</ele>
        <time>2020-07-15T12:51:47Z</time>
      </trkpt>
      <trkpt lat="43.83869" lon="1.95964">
        <ele>253</ele>
        <time>2020-07-15T12:51:48Z</time>
      </trkpt>
      <trkpt lat="43.83872" lon="1.95952">
        <ele>252.4</ele>
        <time>2020-07-15T12:51:49Z</time>
      </trkpt>
      <trkpt lat="43.83874" lon="1.9594">
        <ele>251.6</ele>
        <time>2020-07-15T12:51:50Z</time>
      </trkpt>
      <trkpt lat="43.83875" lon="1.95928">
        <ele>250.6</ele>
        <time>2020-07-15T12:51:51Z</time>
      </trkpt>
      <trkpt lat="43.83876" lon="1.95915">
        <ele>249.6</ele>
        <time>2020-07-15T12:51:52Z</time>
      </trkpt>
      <trkpt lat="43.83878" lon="1.95903">
        <ele>248.4</ele>
        <time>2020-07-15T12:51:53Z</time>
      </trkpt>
      <trkpt lat="43.83879" lon="1.9589">
        <ele>247.6</ele>
        <time>2020-07-15T12:51:54Z</time>
      </trkpt>
      <trkpt lat="43.8388" lon="1.95877">
        <ele>246.6</ele>
        <time>2020-07-15T12:51:55Z</time>
      </trkpt>
      <trkpt lat="43.83882" lon="1.95864">
        <ele>245.6</ele>
        <time>2020-07-15T12:51:56Z</time>
      </trkpt>
      <trkpt lat="43.83883" lon="1.95851">
        <ele>244.8</ele>
        <time>2020-07-15T12:51:57Z</time>
      </trkpt>
      <trkpt lat="43.83886" lon="1.95839">
        <ele>244.2</ele>
        <time>2020-07-15T12:51:58Z</time>
      </trkpt>
      <trkpt lat="43.83889" lon="1.95826">
        <ele>243.8</ele>
        <time>2020-07-15T12:51:59Z</time>
      </trkpt>
      <trkpt lat="43.83892" lon="1.95815">
        <ele>243.4</ele>
        <time>2020-07-15T12:52:00Z</time>
      </trkpt>
      <trkpt lat="43.83896" lon="1.95804">
        <ele>243.2</ele>
        <time>2020-07-15T12:52:01Z</time>
      </trkpt>
      <trkpt lat="43.839" lon="1.95792">
        <ele>242.6</ele>
        <time>2020-07-15T12:52:02Z</time>
      </trkpt>
      <trkpt lat="43.83904" lon="1.95781">
        <ele>242.2</ele>
        <time>2020-07-15T12:52:03Z</time>
      </trkpt>
      <trkpt lat="43.83909" lon="1.9577">
        <ele>241.6</ele>
        <time>2020-07-15T12:52:04Z</time>
      </trkpt>
      <trkpt lat="43.83913" lon="1.95759">
        <ele>241</ele>
        <time>2020-07-15T12:52:05Z</time>
      </trkpt>
      <trkpt lat="43.83918" lon="1.95748">
        <ele>240.6</ele>
        <time>2020-07-15T12:52:06Z</time>
      </trkpt>
      <trkpt lat="43.83922" lon="1.95737">
        <ele>240</ele>
        <time>2020-07-15T12:52:07Z</time>
      </trkpt>
      <trkpt lat="43.83926" lon="1.95726">
        <ele>239.6</ele>
        <time>2020-07-15T12:52:08Z</time>
      </trkpt>
      <trkpt lat="43.83931" lon="1.95715">
        <ele>239</ele>
        <time>2020-07-15T12:52:09Z</time>
      </trkpt>
      <trkpt lat="43.83935" lon="1.95704">
        <ele>238.4</ele>
        <time>2020-07-15T12:52:10Z</time>
      </trkpt>
      <trkpt lat="43.83938" lon="1.95692">
        <ele>237.6</ele>
        <time>2020-07-15T12:52:11Z</time>
      </trkpt>
      <trkpt lat="43.83941" lon="1.9568">
        <ele>236.8</ele>
        <time>2020-07-15T12:52:12Z</time>
      </trkpt>
      <trkpt lat="43.83944" lon="1.95668">
        <ele>236.2</ele>
        <time>2020-07-15T12:52:13Z</time>
      </trkpt>
      <trkpt lat="43.83946" lon="1.95656">
        <ele>235.6</ele>
        <time>2020-07-15T12:52:14Z</time>
      </trkpt>
      <trkpt lat="43.83949" lon="1.95645">
        <ele>235.2</ele>
        <time>2020-07-15T12:52:15Z</time>
      </trkpt>
      <trkpt lat="43.83952" lon="1.95633">
        <ele>234.6</ele>
        <time>2020-07-15T12:52:16Z</time>
      </trkpt>
      <trkpt lat="43.83954" lon="1.95621">
        <ele>234.4</ele>
        <time>2020-07-15T12:52:17Z</time>
      </trkpt>
      <trkpt lat="43.83956" lon="1.9561">
        <ele>234</ele>
        <time>2020-07-15T12:52:18Z</time>
      </trkpt>
      <trkpt lat="43.83959" lon="1.95599">
        <ele>233.8</ele>
        <time>2020-07-15T12:52:19Z</time>
      </trkpt>
      <trkpt lat="43.83962" lon="1.95588">
        <ele>233.4</ele>
        <time>2020-07-15T12:52:20Z</time>
      </trkpt>
      <trkpt lat="43.83964" lon="1.95577">
        <ele>233.2</ele>
        <time>2020-07-15T12:52:21Z</time>
      </trkpt>
      <trkpt lat="43.83967" lon="1.95567">
        <ele>233</ele>
        <time>2020-07-15T12:52:22Z</time>
      </trkpt>
      <trkpt lat="43.8397" lon="1.95557">
        <ele>233</ele>
        <time>2020-07-15T12:52:23Z</time>
      </trkpt>
      <trkpt lat="43.83973" lon="1.95547">
        <ele>232.6</ele>
        <time>2020-07-15T12:52:24Z</time>
      </trkpt>
      <trkpt lat="43.83976" lon="1.95537">
        <ele>232.4</ele>
        <time>2020-07-15T12:52:25Z</time>
      </trkpt>
      <trkpt lat="43.83979" lon="1.95528">
        <ele>232.2</ele>
        <time>2020-07-15T12:52:26Z</time>
      </trkpt>
      <trkpt lat="43.83981" lon="1.9552">
        <ele>232</ele>
        <time>2020-07-15T12:52:27Z</time>
      </trkpt>
      <trkpt lat="43.83984" lon="1.95511">
        <ele>232</ele>
        <time>2020-07-15T12:52:28Z</time>
      </trkpt>
      <trkpt lat="43.83987" lon="1.95503">
        <ele>232</ele>
        <time>2020-07-15T12:52:29Z</time>
      </trkpt>
      <trkpt lat="43.8399" lon="1.95495">
        <ele>231.8</ele>
        <time>2020-07-15T12:52:30Z</time>
      </trkpt>
      <trkpt lat="43.83992" lon="1.95487">
        <ele>231.8</ele>
        <time>2020-07-15T12:52:31Z</time>
      </trkpt>
      <trkpt lat="43.83995" lon="1.9548">
        <ele>231.6</ele>
        <time>2020-07-15T12:52:32Z</time>
      </trkpt>
      <trkpt lat="43.83997" lon="1.95472">
        <ele>231.4</ele>
        <time>2020-07-15T12:52:33Z</time>
      </trkpt>
      <trkpt lat="43.84" lon="1.95465">
        <ele>231.2</ele>
        <time>2020-07-15T12:52:34Z</time>
      </trkpt>
      <trkpt lat="43.84003" lon="1.95457">
        <ele>231</ele>
        <time>2020-07-15T12:52:35Z</time>
      </trkpt>
      <trkpt lat="43.84005" lon="1.9545">
        <ele>230.8</ele>
        <time>2020-07-15T12:52:36Z</time>
      </trkpt>
      <trkpt lat="43.84008" lon="1.95442">
        <ele>230.6</ele>
        <time>2020-07-15T12:52:37Z</time>
      </trkpt>
      <trkpt lat="43.84012" lon="1.95435">
        <ele>230.4</ele>
        <time>2020-07-15T12:52:38Z</time>
      </trkpt>
      <trkpt lat="43.84015" lon="1.95428">
        <ele>230.2</ele>
        <time>2020-07-15T12:52:39Z</time>
      </trkpt>
      <trkpt lat="43.84018" lon="1.95421">
        <ele>230.2</ele>
        <time>2020-07-15T12:52:40Z</time>
      </trkpt>
      <trkpt lat="43.84021" lon="1.95415">
        <ele>230</ele>
        <time>2020-07-15T12:52:41Z</time>
      </trkpt>
      <trkpt lat="43.84024" lon="1.95408">
        <ele>229.8</ele>
        <time>2020-07-15T12:52:42Z</time>
      </trkpt>
      <trkpt lat="43.84027" lon="1.95401">
        <ele>229.8</ele>
        <time>2020-07-15T12:52:43Z</time>
      </trkpt>
      <trkpt lat="43.8403" lon="1.95394">
        <ele>229.8</ele>
        <time>2020-07-15T12:52:44Z</time>
      </trkpt>
      <trkpt lat="43.84033" lon="1.95388">
        <ele>229.6</ele>
        <time>2020-07-15T12:52:45Z</time>
      </trkpt>
      <trkpt lat="43.84036" lon="1.95381">
        <ele>229.6</ele>
        <time>2020-07-15T12:52:46Z</time>
      </trkpt>
      <trkpt lat="43.84039" lon="1.95374">
        <ele>229.6</ele>
        <time>2020-07-15T12:52:47Z</time>
      </trkpt>
      <trkpt lat="43.84042" lon="1.95368">
        <ele>229.4</ele>
        <time>2020-07-15T12:52:48Z</time>
      </trkpt>
      <trkpt lat="43.84045" lon="1.95361">
        <ele>229.4</ele>
        <time>2020-07-15T12:52:49Z</time>
      </trkpt>
      <trkpt lat="43.84047" lon="1.95354">
        <ele>229.4</ele>
        <time>2020-07-15T12:52:50Z</time>
      </trkpt>
      <trkpt lat="43.8405" lon="1.95348">
        <ele>229.4</ele>
        <time>2020-07-15T12:52:51Z</time>
      </trkpt>
      <trkpt lat="43.84053" lon="1.95342">
        <ele>229.6</ele>
        <time>2020-07-15T12:52:52Z</time>
      </trkpt>
      <trkpt lat="43.84056" lon="1.95335">
        <ele>229.4</ele>
        <time>2020-07-15T12:52:53Z</time>
      </trkpt>
      <trkpt lat="43.84059" lon="1.95329">
        <ele>229.4</ele>
        <time>2020-07-15T12:52:54Z</time>
      </trkpt>
      <trkpt lat="43.84063" lon="1.95323">
        <ele>229.2</ele>
        <time>2020-07-15T12:52:55Z</time>
      </trkpt>
      <trkpt lat="43.84066" lon="1.95317">
        <ele>229.4</ele>
        <time>2020-07-15T12:52:56Z</time>
      </trkpt>
      <trkpt lat="43.84069" lon="1.95311">
        <ele>229.4</ele>
        <time>2020-07-15T12:52:57Z</time>
      </trkpt>
      <trkpt lat="43.84073" lon="1.95305">
        <ele>229.4</ele>
        <time>2020-07-15T12:52:58Z</time>
      </trkpt>
      <trkpt lat="43.84076" lon="1.95299">
        <ele>229.4</ele>
        <time>2020-07-15T12:52:59Z</time>
      </trkpt>
      <trkpt lat="43.8408" lon="1.95293">
        <ele>229.4</ele>
        <time>2020-07-15T12:53:00Z</time>
      </trkpt>
      <trkpt lat="43.84082" lon="1.95289">
        <ele>229.4</ele>
        <time>2020-07-15T12:53:01Z</time>
      </trkpt>
      <trkpt lat="43.84087" lon="1.95282">
        <ele>229.6</ele>
        <time>2020-07-15T12:53:02Z</time>
      </trkpt>
      <trkpt lat="43.84091" lon="1.95277">
        <ele>229.6</ele>
        <time>2020-07-15T12:53:03Z</time>
      </trkpt>
      <trkpt lat="43.84095" lon="1.95271">
        <ele>229.6</ele>
        <time>2020-07-15T12:53:04Z</time>
      </trkpt>
      <trkpt lat="43.84098" lon="1.95266">
        <ele>229.6</ele>
        <time>2020-07-15T12:53:05Z</time>
      </trkpt>
      <trkpt lat="43.84102" lon="1.95261">
        <ele>229.8</ele>
        <time>2020-07-15T12:53:06Z</time>
      </trkpt>
      <trkpt lat="43.84106" lon="1.95256">
        <ele>229.8</ele>
        <time>2020-07-15T12:53:07Z</time>
      </trkpt>
      <trkpt lat="43.8411" lon="1.95251">
        <ele>229.8</ele>
        <time>2020-07-15T12:53:08Z</time>
      </trkpt>
      <trkpt lat="43.84113" lon="1.95246">
        <ele>229.8</ele>
        <time>2020-07-15T12:53:09Z</time>
      </trkpt>
      <trkpt lat="43.84117" lon="1.95241">
        <ele>229.8</ele>
        <time>2020-07-15T12:53:10Z</time>
      </trkpt>
      <trkpt lat="43.84121" lon="1.95236">
        <ele>230</ele>
        <time>2020-07-15T12:53:11Z</time>
      </trkpt>
      <trkpt lat="43.84124" lon="1.95232">
        <ele>230.2</ele>
        <time>2020-07-15T12:53:12Z</time>
      </trkpt>
      <trkpt lat="43.84127" lon="1.95227">
        <ele>230.2</ele>
        <time>2020-07-15T12:53:13Z</time>
      </trkpt>
      <trkpt lat="43.84131" lon="1.95222">
        <ele>230.2</ele>
        <time>2020-07-15T12:53:14Z</time>
      </trkpt>
      <trkpt lat="43.84134" lon="1.95218">
        <ele>230.2</ele>
        <time>2020-07-15T12:53:15Z</time>
      </trkpt>
      <trkpt lat="43.84137" lon="1.95213">
        <ele>230.2</ele>
        <time>2020-07-15T12:53:16Z</time>
      </trkpt>
      <trkpt lat="43.8414" lon="1.95209">
        <ele>230.2</ele>
        <time>2020-07-15T12:53:17Z</time>
      </trkpt>
      <trkpt lat="43.84144" lon="1.95204">
        <ele>230.2</ele>
        <time>2020-07-15T12:53:18Z</time>
      </trkpt>
      <trkpt lat="43.84147" lon="1.952">
        <ele>230.4</ele>
        <time>2020-07-15T12:53:19Z</time>
      </trkpt>
      <trkpt lat="43.8415" lon="1.95195">
        <ele>230.4</ele>
        <time>2020-07-15T12:53:20Z</time>
      </trkpt>
      <trkpt lat="43.84153" lon="1.9519">
        <ele>230.4</ele>
        <time>2020-07-15T12:53:21Z</time>
      </trkpt>
      <trkpt lat="43.84157" lon="1.95186">
        <ele>230.4</ele>
        <time>2020-07-15T12:53:22Z</time>
      </trkpt>
      <trkpt lat="43.8416" lon="1.95182">
        <ele>230.6</ele>
        <time>2020-07-15T12:53:23Z</time>
      </trkpt>
      <trkpt lat="43.84164" lon="1.95178">
        <ele>230.6</ele>
        <time>2020-07-15T12:53:24Z</time>
      </trkpt>
      <trkpt lat="43.84167" lon="1.95174">
        <ele>230.8</ele>
        <time>2020-07-15T12:53:25Z</time>
      </trkpt>
      <trkpt lat="43.8417" lon="1.95169">
        <ele>230.8</ele>
        <time>2020-07-15T12:53:26Z</time>
      </trkpt>
      <trkpt lat="43.84173" lon="1.95165">
        <ele>231</ele>
        <time>2020-07-15T12:53:27Z</time>
      </trkpt>
      <trkpt lat="43.84177" lon="1.95161">
        <ele>231</ele>
        <time>2020-07-15T12:53:28Z</time>
      </trkpt>
      <trkpt lat="43.8418" lon="1.95156">
        <ele>231.2</ele>
        <time>2020-07-15T12:53:29Z</time>
      </trkpt>
      <trkpt lat="43.84182" lon="1.95152">
        <ele>231.2</ele>
        <time>2020-07-15T12:53:30Z</time>
      </trkpt>
      <trkpt lat="43.84185" lon="1.95149">
        <ele>231.4</ele>
        <time>2020-07-15T12:53:31Z</time>
      </trkpt>
      <trkpt lat="43.84189" lon="1.95144">
        <ele>231.6</ele>
        <time>2020-07-15T12:53:32Z</time>
      </trkpt>
      <trkpt lat="43.84192" lon="1.9514">
        <ele>231.6</ele>
        <time>2020-07-15T12:53:33Z</time>
      </trkpt>
      <trkpt lat="43.84195" lon="1.95136">
        <ele>231.8</ele>
        <time>2020-07-15T12:53:34Z</time>
      </trkpt>
      <trkpt lat="43.84221" lon="1.95104">
        <ele>234.2</ele>
        <time>2020-07-15T12:54:13Z</time>
      </trkpt>
      <trkpt lat="43.84223" lon="1.951">
        <ele>234.2</ele>
        <time>2020-07-15T12:54:14Z</time>
      </trkpt>
      <trkpt lat="43.84225" lon="1.95096">
        <ele>234.4</ele>
        <time>2020-07-15T12:54:15Z</time>
      </trkpt>
      <trkpt lat="43.84228" lon="1.95092">
        <ele>234.6</ele>
        <time>2020-07-15T12:54:16Z</time>
      </trkpt>
      <trkpt lat="43.8423" lon="1.95088">
        <ele>234.8</ele>
        <time>2020-07-15T12:54:17Z</time>
      </trkpt>
      <trkpt lat="43.84233" lon="1.95084">
        <ele>235.2</ele>
        <time>2020-07-15T12:54:18Z</time>
      </trkpt>
      <trkpt lat="43.84235" lon="1.9508">
        <ele>235.4</ele>
        <time>2020-07-15T12:54:19Z</time>
      </trkpt>
      <trkpt lat="43.84238" lon="1.95076">
        <ele>235.8</ele>
        <time>2020-07-15T12:54:20Z</time>
      </trkpt>
      <trkpt lat="43.84242" lon="1.95072">
        <ele>235.8</ele>
        <time>2020-07-15T12:54:21Z</time>
      </trkpt>
      <trkpt lat="43.84244" lon="1.95068">
        <ele>236.2</ele>
        <time>2020-07-15T12:54:22Z</time>
      </trkpt>
      <trkpt lat="43.84247" lon="1.95063">
        <ele>236.4</ele>
        <time>2020-07-15T12:54:23Z</time>
      </trkpt>
      <trkpt lat="43.8425" lon="1.95059">
        <ele>236.6</ele>
        <time>2020-07-15T12:54:24Z</time>
      </trkpt>
      <trkpt lat="43.84253" lon="1.95056">
        <ele>237</ele>
        <time>2020-07-15T12:54:25Z</time>
      </trkpt>
      <trkpt lat="43.84256" lon="1.95052">
        <ele>237.2</ele>
        <time>2020-07-15T12:54:26Z</time>
      </trkpt>
      <trkpt lat="43.84258" lon="1.95047">
        <ele>237.6</ele>
        <time>2020-07-15T12:54:27Z</time>
      </trkpt>
      <trkpt lat="43.84261" lon="1.95043">
        <ele>238</ele>
        <time>2020-07-15T12:54:28Z</time>
      </trkpt>
      <trkpt lat="43.84263" lon="1.95039">
        <ele>238.2</ele>
        <time>2020-07-15T12:54:29Z</time>
      </trkpt>
      <trkpt lat="43.84266" lon="1.95035">
        <ele>238.6</ele>
        <time>2020-07-15T12:54:30Z</time>
      </trkpt>
      <trkpt lat="43.84268" lon="1.95032">
        <ele>239</ele>
        <time>2020-07-15T12:54:31Z</time>
      </trkpt>
      <trkpt lat="43.8427" lon="1.95028">
        <ele>239.6</ele>
        <time>2020-07-15T12:54:32Z</time>
      </trkpt>
      <trkpt lat="43.84271" lon="1.95023">
        <ele>240</ele>
        <time>2020-07-15T12:54:33Z</time>
      </trkpt>
      <trkpt lat="43.8427" lon="1.95019">
        <ele>240.2</ele>
        <time>2020-07-15T12:54:34Z</time>
      </trkpt>
      <trkpt lat="43.84267" lon="1.95015">
        <ele>240.4</ele>
        <time>2020-07-15T12:54:35Z</time>
      </trkpt>
      <trkpt lat="43.84263" lon="1.95012">
        <ele>240.4</ele>
        <time>2020-07-15T12:54:36Z</time>
      </trkpt>
      <trkpt lat="43.84259" lon="1.95009">
        <ele>240.4</ele>
        <time>2020-07-15T12:54:37Z</time>
      </trkpt>
      <trkpt lat="43.84255" lon="1.95005">
        <ele>240.4</ele>
        <time>2020-07-15T12:54:38Z</time>
      </trkpt>
      <trkpt lat="43.8425" lon="1.95001">
        <ele>240</ele>
        <time>2020-07-15T12:54:39Z</time>
      </trkpt>
      <trkpt lat="43.84244" lon="1.94997">
        <ele>239.6</ele>
        <time>2020-07-15T12:54:40Z</time>
      </trkpt>
      <trkpt lat="43.84237" lon="1.94993">
        <ele>238.8</ele>
        <time>2020-07-15T12:54:41Z</time>
      </trkpt>
      <trkpt lat="43.8423" lon="1.94988">
        <ele>238.4</ele>
        <time>2020-07-15T12:54:42Z</time>
      </trkpt>
      <trkpt lat="43.84223" lon="1.94983">
        <ele>237.6</ele>
        <time>2020-07-15T12:54:43Z</time>
      </trkpt>
      <trkpt lat="43.84215" lon="1.94978">
        <ele>237</ele>
        <time>2020-07-15T12:54:44Z</time>
      </trkpt>
      <trkpt lat="43.84205" lon="1.94972">
        <ele>235.8</ele>
        <time>2020-07-15T12:54:45Z</time>
      </trkpt>
      <trkpt lat="43.84196" lon="1.94965">
        <ele>234.6</ele>
        <time>2020-07-15T12:54:46Z</time>
      </trkpt>
      <trkpt lat="43.84186" lon="1.94959">
        <ele>233.2</ele>
        <time>2020-07-15T12:54:47Z</time>
      </trkpt>
      <trkpt lat="43.84176" lon="1.94952">
        <ele>231.6</ele>
        <time>2020-07-15T12:54:48Z</time>
      </trkpt>
      <trkpt lat="43.84165" lon="1.94943">
        <ele>229.8</ele>
        <time>2020-07-15T12:54:49Z</time>
      </trkpt>
      <trkpt lat="43.84155" lon="1.94935">
        <ele>228</ele>
        <time>2020-07-15T12:54:50Z</time>
      </trkpt>
      <trkpt lat="43.84144" lon="1.94925">
        <ele>226.4</ele>
        <time>2020-07-15T12:54:51Z</time>
      </trkpt>
      <trkpt lat="43.84133" lon="1.94915">
        <ele>224.8</ele>
        <time>2020-07-15T12:54:52Z</time>
      </trkpt>
      <trkpt lat="43.84122" lon="1.94906">
        <ele>223.4</ele>
        <time>2020-07-15T12:54:53Z</time>
      </trkpt>
      <trkpt lat="43.84111" lon="1.94897">
        <ele>222.2</ele>
        <time>2020-07-15T12:54:54Z</time>
      </trkpt>
      <trkpt lat="43.84099" lon="1.94888">
        <ele>221.4</ele>
        <time>2020-07-15T12:54:55Z</time>
      </trkpt>
      <trkpt lat="43.84087" lon="1.9488">
        <ele>220.2</ele>
        <time>2020-07-15T12:54:56Z</time>
      </trkpt>
      <trkpt lat="43.84074" lon="1.94873">
        <ele>219.6</ele>
        <time>2020-07-15T12:54:57Z</time>
      </trkpt>
      <trkpt lat="43.84061" lon="1.94866">
        <ele>218.8</ele>
        <time>2020-07-15T12:54:58Z</time>
      </trkpt>
      <trkpt lat="43.84048" lon="1.94859">
        <ele>218</ele>
        <time>2020-07-15T12:54:59Z</time>
      </trkpt>
      <trkpt lat="43.84035" lon="1.94853">
        <ele>217.4</ele>
        <time>2020-07-15T12:55:00Z</time>
      </trkpt>
      <trkpt lat="43.84024" lon="1.94849">
        <ele>216.6</ele>
        <time>2020-07-15T12:55:01Z</time>
      </trkpt>
      <trkpt lat="43.8401" lon="1.94843">
        <ele>215.6</ele>
        <time>2020-07-15T12:55:02Z</time>
      </trkpt>
      <trkpt lat="43.83999" lon="1.94839">
        <ele>214.6</ele>
        <time>2020-07-15T12:55:03Z</time>
      </trkpt>
      <trkpt lat="43.83989" lon="1.94835">
        <ele>214</ele>
        <time>2020-07-15T12:55:04Z</time>
      </trkpt>
      <trkpt lat="43.83981" lon="1.94832">
        <ele>213.6</ele>
        <time>2020-07-15T12:55:05Z</time>
      </trkpt>
      <trkpt lat="43.83973" lon="1.94828">
        <ele>213.4</ele>
        <time>2020-07-15T12:55:06Z</time>
      </trkpt>
      <trkpt lat="43.83966" lon="1.94821">
        <ele>213.4</ele>
        <time>2020-07-15T12:55:07Z</time>
      </trkpt>
      <trkpt lat="43.8396" lon="1.94813">
        <ele>213.4</ele>
        <time>2020-07-15T12:55:08Z</time>
      </trkpt>
      <trkpt lat="43.83958" lon="1.94803">
        <ele>213.2</ele>
        <time>2020-07-15T12:55:09Z</time>
      </trkpt>
      <trkpt lat="43.83957" lon="1.94792">
        <ele>213.2</ele>
        <time>2020-07-15T12:55:10Z</time>
      </trkpt>
      <trkpt lat="43.83956" lon="1.94783">
        <ele>213.2</ele>
        <time>2020-07-15T12:55:11Z</time>
      </trkpt>
      <trkpt lat="43.83955" lon="1.94774">
        <ele>213.6</ele>
        <time>2020-07-15T12:55:12Z</time>
      </trkpt>
      <trkpt lat="43.83955" lon="1.94765">
        <ele>213.8</ele>
        <time>2020-07-15T12:55:13Z</time>
      </trkpt>
      <trkpt lat="43.83955" lon="1.94757">
        <ele>214</ele>
        <time>2020-07-15T12:55:14Z</time>
      </trkpt>
      <trkpt lat="43.83955" lon="1.94749">
        <ele>214.2</ele>
        <time>2020-07-15T12:55:15Z</time>
      </trkpt>
      <trkpt lat="43.83955" lon="1.94742">
        <ele>214.8</ele>
        <time>2020-07-15T12:55:16Z</time>
      </trkpt>
      <trkpt lat="43.83955" lon="1.94734">
        <ele>215</ele>
        <time>2020-07-15T12:55:17Z</time>
      </trkpt>
      <trkpt lat="43.83955" lon="1.94726">
        <ele>215.4</ele>
        <time>2020-07-15T12:55:18Z</time>
      </trkpt>
      <trkpt lat="43.83955" lon="1.94719">
        <ele>215.6</ele>
        <time>2020-07-15T12:55:19Z</time>
      </trkpt>
      <trkpt lat="43.83955" lon="1.94711">
        <ele>215.6</ele>
        <time>2020-07-15T12:55:20Z</time>
      </trkpt>
      <trkpt lat="43.83955" lon="1.94704">
        <ele>215.8</ele>
        <time>2020-07-15T12:55:21Z</time>
      </trkpt>
      <trkpt lat="43.83955" lon="1.94697">
        <ele>215.8</ele>
        <time>2020-07-15T12:55:22Z</time>
      </trkpt>
      <trkpt lat="43.83955" lon="1.94689">
        <ele>215.8</ele>
        <time>2020-07-15T12:55:23Z</time>
      </trkpt>
      <trkpt lat="43.83955" lon="1.94682">
        <ele>215.8</ele>
        <time>2020-07-15T12:55:24Z</time>
      </trkpt>
      <trkpt lat="43.83955" lon="1.94674">
        <ele>216</ele>
        <time>2020-07-15T12:55:25Z</time>
      </trkpt>
      <trkpt lat="43.83954" lon="1.94667">
        <ele>216</ele>
        <time>2020-07-15T12:55:26Z</time>
      </trkpt>
      <trkpt lat="43.83954" lon="1.94659">
        <ele>216.2</ele>
        <time>2020-07-15T12:55:27Z</time>
      </trkpt>
      <trkpt lat="43.83953" lon="1.94652">
        <ele>216.4</ele>
        <time>2020-07-15T12:55:28Z</time>
      </trkpt>
      <trkpt lat="43.83952" lon="1.94644">
        <ele>216.6</ele>
        <time>2020-07-15T12:55:29Z</time>
      </trkpt>
      <trkpt lat="43.83952" lon="1.94637">
        <ele>216.8</ele>
        <time>2020-07-15T12:55:30Z</time>
      </trkpt>
      <trkpt lat="43.83951" lon="1.9463">
        <ele>217</ele>
        <time>2020-07-15T12:55:31Z</time>
      </trkpt>
      <trkpt lat="43.8395" lon="1.94623">
        <ele>217.2</ele>
        <time>2020-07-15T12:55:32Z</time>
      </trkpt>
      <trkpt lat="43.83949" lon="1.94615">
        <ele>217.4</ele>
        <time>2020-07-15T12:55:33Z</time>
      </trkpt>
      <trkpt lat="43.83949" lon="1.94608">
        <ele>217.6</ele>
        <time>2020-07-15T12:55:34Z</time>
      </trkpt>
      <trkpt lat="43.83948" lon="1.94601">
        <ele>217.8</ele>
        <time>2020-07-15T12:55:35Z</time>
      </trkpt>
      <trkpt lat="43.83947" lon="1.94595">
        <ele>218.2</ele>
        <time>2020-07-15T12:55:36Z</time>
      </trkpt>
      <trkpt lat="43.83946" lon="1.94588">
        <ele>218.4</ele>
        <time>2020-07-15T12:55:37Z</time>
      </trkpt>
      <trkpt lat="43.83945" lon="1.94582">
        <ele>218.8</ele>
        <time>2020-07-15T12:55:38Z</time>
      </trkpt>
      <trkpt lat="43.83944" lon="1.94576">
        <ele>219.2</ele>
        <time>2020-07-15T12:55:39Z</time>
      </trkpt>
      <trkpt lat="43.83944" lon="1.9457">
        <ele>219.6</ele>
        <time>2020-07-15T12:55:40Z</time>
      </trkpt>
      <trkpt lat="43.83943" lon="1.94564">
        <ele>219.8</ele>
        <time>2020-07-15T12:55:41Z</time>
      </trkpt>
      <trkpt lat="43.83942" lon="1.94558">
        <ele>220.2</ele>
        <time>2020-07-15T12:55:42Z</time>
      </trkpt>
      <trkpt lat="43.83942" lon="1.94553">
        <ele>220.6</ele>
        <time>2020-07-15T12:55:43Z</time>
      </trkpt>
      <trkpt lat="43.83941" lon="1.94548">
        <ele>221</ele>
        <time>2020-07-15T12:55:44Z</time>
      </trkpt>
      <trkpt lat="43.83941" lon="1.94543">
        <ele>221.4</ele>
        <time>2020-07-15T12:55:45Z</time>
      </trkpt>
      <trkpt lat="43.83941" lon="1.94537">
        <ele>221.8</ele>
        <time>2020-07-15T12:55:46Z</time>
      </trkpt>
      <trkpt lat="43.8394" lon="1.94532">
        <ele>222.2</ele>
        <time>2020-07-15T12:55:47Z</time>
      </trkpt>
      <trkpt lat="43.83939" lon="1.94527">
        <ele>222.6</ele>
        <time>2020-07-15T12:55:48Z</time>
      </trkpt>
      <trkpt lat="43.83939" lon="1.94521">
        <ele>222.8</ele>
        <time>2020-07-15T12:55:49Z</time>
      </trkpt>
      <trkpt lat="43.83938" lon="1.94516">
        <ele>223.2</ele>
        <time>2020-07-15T12:55:50Z</time>
      </trkpt>
      <trkpt lat="43.83938" lon="1.94511">
        <ele>223.4</ele>
        <time>2020-07-15T12:55:51Z</time>
      </trkpt>
      <trkpt lat="43.83936" lon="1.94506">
        <ele>223.8</ele>
        <time>2020-07-15T12:55:52Z</time>
      </trkpt>
      <trkpt lat="43.83936" lon="1.94502">
        <ele>224.2</ele>
        <time>2020-07-15T12:55:53Z</time>
      </trkpt>
      <trkpt lat="43.83935" lon="1.94497">
        <ele>224.4</ele>
        <time>2020-07-15T12:55:54Z</time>
      </trkpt>
      <trkpt lat="43.83935" lon="1.94494">
        <ele>224.8</ele>
        <time>2020-07-15T12:55:55Z</time>
      </trkpt>
      <trkpt lat="43.83934" lon="1.94488">
        <ele>225.2</ele>
        <time>2020-07-15T12:55:56Z</time>
      </trkpt>
      <trkpt lat="43.83934" lon="1.94484">
        <ele>225.4</ele>
        <time>2020-07-15T12:55:57Z</time>
      </trkpt>
      <trkpt lat="43.83933" lon="1.9448">
        <ele>225.8</ele>
        <time>2020-07-15T12:55:58Z</time>
      </trkpt>
      <trkpt lat="43.83933" lon="1.94475">
        <ele>226.2</ele>
        <time>2020-07-15T12:55:59Z</time>
      </trkpt>
      <trkpt lat="43.83932" lon="1.94471">
        <ele>226.4</ele>
        <time>2020-07-15T12:56:00Z</time>
      </trkpt>
      <trkpt lat="43.83931" lon="1.94466">
        <ele>226.8</ele>
        <time>2020-07-15T12:56:01Z</time>
      </trkpt>
      <trkpt lat="43.8393" lon="1.94462">
        <ele>227.2</ele>
        <time>2020-07-15T12:56:02Z</time>
      </trkpt>
      <trkpt lat="43.83929" lon="1.94458">
        <ele>227.6</ele>
        <time>2020-07-15T12:56:03Z</time>
      </trkpt>
      <trkpt lat="43.83928" lon="1.94454">
        <ele>228</ele>
        <time>2020-07-15T12:56:04Z</time>
      </trkpt>
      <trkpt lat="43.83926" lon="1.9445">
        <ele>228.4</ele>
        <time>2020-07-15T12:56:05Z</time>
      </trkpt>
      <trkpt lat="43.83925" lon="1.94447">
        <ele>228.8</ele>
        <time>2020-07-15T12:56:06Z</time>
      </trkpt>
      <trkpt lat="43.83923" lon="1.94444">
        <ele>229.2</ele>
        <time>2020-07-15T12:56:07Z</time>
      </trkpt>
      <trkpt lat="43.83922" lon="1.94441">
        <ele>229.6</ele>
        <time>2020-07-15T12:56:08Z</time>
      </trkpt>
      <trkpt lat="43.83921" lon="1.94438">
        <ele>229.8</ele>
        <time>2020-07-15T12:56:09Z</time>
      </trkpt>
      <trkpt lat="43.83919" lon="1.94434">
        <ele>230</ele>
        <time>2020-07-15T12:56:10Z</time>
      </trkpt>
      <trkpt lat="43.83918" lon="1.9443">
        <ele>230.4</ele>
        <time>2020-07-15T12:56:11Z</time>
      </trkpt>
      <trkpt lat="43.83916" lon="1.94426">
        <ele>230.6</ele>
        <time>2020-07-15T12:56:12Z</time>
      </trkpt>
      <trkpt lat="43.83914" lon="1.94422">
        <ele>230.8</ele>
        <time>2020-07-15T12:56:13Z</time>
      </trkpt>
      <trkpt lat="43.83912" lon="1.94417">
        <ele>231.2</ele>
        <time>2020-07-15T12:56:14Z</time>
      </trkpt>
      <trkpt lat="43.83911" lon="1.94413">
        <ele>231.4</ele>
        <time>2020-07-15T12:56:15Z</time>
      </trkpt>
      <trkpt lat="43.8391" lon="1.94409">
        <ele>231.6</ele>
        <time>2020-07-15T12:56:16Z</time>
      </trkpt>
      <trkpt lat="43.83908" lon="1.94405">
        <ele>231.8</ele>
        <time>2020-07-15T12:56:17Z</time>
      </trkpt>
      <trkpt lat="43.83907" lon="1.94402">
        <ele>232</ele>
        <time>2020-07-15T12:56:18Z</time>
      </trkpt>
      <trkpt lat="43.83905" lon="1.94399">
        <ele>232.2</ele>
        <time>2020-07-15T12:56:19Z</time>
      </trkpt>
      <trkpt lat="43.83904" lon="1.94396">
        <ele>232.4</ele>
        <time>2020-07-15T12:56:20Z</time>
      </trkpt>
      <trkpt lat="43.83903" lon="1.94392">
        <ele>232.6</ele>
        <time>2020-07-15T12:56:21Z</time>
      </trkpt>
      <trkpt lat="43.83901" lon="1.94388">
        <ele>232.8</ele>
        <time>2020-07-15T12:56:22Z</time>
      </trkpt>
      <trkpt lat="43.839" lon="1.94384">
        <ele>233</ele>
        <time>2020-07-15T12:56:23Z</time>
      </trkpt>
      <trkpt lat="43.83898" lon="1.94379">
        <ele>233.2</ele>
        <time>2020-07-15T12:56:24Z</time>
      </trkpt>
      <trkpt lat="43.83896" lon="1.94375">
        <ele>233.4</ele>
        <time>2020-07-15T12:56:25Z</time>
      </trkpt>
      <trkpt lat="43.83895" lon="1.9437">
        <ele>233.6</ele>
        <time>2020-07-15T12:56:26Z</time>
      </trkpt>
      <trkpt lat="43.83894" lon="1.94366">
        <ele>234</ele>
        <time>2020-07-15T12:56:27Z</time>
      </trkpt>
      <trkpt lat="43.83892" lon="1.94361">
        <ele>234.2</ele>
        <time>2020-07-15T12:56:28Z</time>
      </trkpt>
      <trkpt lat="43.83891" lon="1.94357">
        <ele>234.6</ele>
        <time>2020-07-15T12:56:29Z</time>
      </trkpt>
      <trkpt lat="43.83889" lon="1.94353">
        <ele>234.8</ele>
        <time>2020-07-15T12:56:30Z</time>
      </trkpt>
      <trkpt lat="43.83888" lon="1.94349">
        <ele>235.2</ele>
        <time>2020-07-15T12:56:31Z</time>
      </trkpt>
      <trkpt lat="43.83887" lon="1.94344">
        <ele>235.4</ele>
        <time>2020-07-15T12:56:32Z</time>
      </trkpt>
      <trkpt lat="43.83886" lon="1.94339">
        <ele>235.6</ele>
        <time>2020-07-15T12:56:33Z</time>
      </trkpt>
      <trkpt lat="43.83884" lon="1.94334">
        <ele>236</ele>
        <time>2020-07-15T12:56:34Z</time>
      </trkpt>
      <trkpt lat="43.83883" lon="1.94329">
        <ele>236.2</ele>
        <time>2020-07-15T12:56:35Z</time>
      </trkpt>
      <trkpt lat="43.83881" lon="1.94324">
        <ele>236.4</ele>
        <time>2020-07-15T12:56:36Z</time>
      </trkpt>
      <trkpt lat="43.8388" lon="1.94319">
        <ele>236.6</ele>
        <time>2020-07-15T12:56:37Z</time>
      </trkpt>
      <trkpt lat="43.83878" lon="1.94314">
        <ele>237</ele>
        <time>2020-07-15T12:56:38Z</time>
      </trkpt>
      <trkpt lat="43.83876" lon="1.94309">
        <ele>237.2</ele>
        <time>2020-07-15T12:56:39Z</time>
      </trkpt>
      <trkpt lat="43.83875" lon="1.94304">
        <ele>237.6</ele>
        <time>2020-07-15T12:56:40Z</time>
      </trkpt>
      <trkpt lat="43.83875" lon="1.94299">
        <ele>237.8</ele>
        <time>2020-07-15T12:56:41Z</time>
      </trkpt>
      <trkpt lat="43.83873" lon="1.94294">
        <ele>238</ele>
        <time>2020-07-15T12:56:42Z</time>
      </trkpt>
      <trkpt lat="43.83871" lon="1.94289">
        <ele>238.4</ele>
        <time>2020-07-15T12:56:43Z</time>
      </trkpt>
      <trkpt lat="43.83869" lon="1.94284">
        <ele>238.6</ele>
        <time>2020-07-15T12:56:44Z</time>
      </trkpt>
      <trkpt lat="43.83868" lon="1.94279">
        <ele>238.8</ele>
        <time>2020-07-15T12:56:45Z</time>
      </trkpt>
      <trkpt lat="43.83866" lon="1.94275">
        <ele>239</ele>
        <time>2020-07-15T12:56:46Z</time>
      </trkpt>
      <trkpt lat="43.83865" lon="1.9427">
        <ele>239.2</ele>
        <time>2020-07-15T12:56:47Z</time>
      </trkpt>
      <trkpt lat="43.83864" lon="1.94266">
        <ele>239.4</ele>
        <time>2020-07-15T12:56:48Z</time>
      </trkpt>
      <trkpt lat="43.83862" lon="1.94262">
        <ele>239.6</ele>
        <time>2020-07-15T12:56:49Z</time>
      </trkpt>
      <trkpt lat="43.83861" lon="1.94259">
        <ele>239.8</ele>
        <time>2020-07-15T12:56:50Z</time>
      </trkpt>
      <trkpt lat="43.8386" lon="1.94255">
        <ele>240</ele>
        <time>2020-07-15T12:56:51Z</time>
      </trkpt>
      <trkpt lat="43.83859" lon="1.94253">
        <ele>240.2</ele>
        <time>2020-07-15T12:56:52Z</time>
      </trkpt>
      <trkpt lat="43.83858" lon="1.94251">
        <ele>240.4</ele>
        <time>2020-07-15T12:56:53Z</time>
      </trkpt>
      <trkpt lat="43.83855" lon="1.94246">
        <ele>240.4</ele>
        <time>2020-07-15T12:57:14Z</time>
      </trkpt>
      <trkpt lat="43.83854" lon="1.94244">
        <ele>240.4</ele>
        <time>2020-07-15T12:57:15Z</time>
      </trkpt>
      <trkpt lat="43.83852" lon="1.9424">
        <ele>240.2</ele>
        <time>2020-07-15T12:57:16Z</time>
      </trkpt>
      <trkpt lat="43.8385" lon="1.94236">
        <ele>240</ele>
        <time>2020-07-15T12:57:17Z</time>
      </trkpt>
      <trkpt lat="43.83848" lon="1.94231">
        <ele>239.8</ele>
        <time>2020-07-15T12:57:18Z</time>
      </trkpt>
      <trkpt lat="43.83846" lon="1.94226">
        <ele>239.2</ele>
        <time>2020-07-15T12:57:19Z</time>
      </trkpt>
      <trkpt lat="43.83843" lon="1.94219">
        <ele>238.8</ele>
        <time>2020-07-15T12:57:20Z</time>
      </trkpt>
      <trkpt lat="43.8384" lon="1.94212">
        <ele>238.2</ele>
        <time>2020-07-15T12:57:21Z</time>
      </trkpt>
      <trkpt lat="43.83836" lon="1.94204">
        <ele>237.4</ele>
        <time>2020-07-15T12:57:22Z</time>
      </trkpt>
      <trkpt lat="43.83833" lon="1.94196">
        <ele>236.6</ele>
        <time>2020-07-15T12:57:23Z</time>
      </trkpt>
      <trkpt lat="43.83828" lon="1.94187">
        <ele>235.6</ele>
        <time>2020-07-15T12:57:24Z</time>
      </trkpt>
      <trkpt lat="43.83823" lon="1.94177">
        <ele>234.8</ele>
        <time>2020-07-15T12:57:25Z</time>
      </trkpt>
      <trkpt lat="43.83818" lon="1.94166">
        <ele>233.6</ele>
        <time>2020-07-15T12:57:26Z</time>
      </trkpt>
      <trkpt lat="43.83812" lon="1.94152">
        <ele>232.6</ele>
        <time>2020-07-15T12:57:27Z</time>
      </trkpt>
      <trkpt lat="43.83805" lon="1.94139">
        <ele>231.6</ele>
        <time>2020-07-15T12:57:28Z</time>
      </trkpt>
      <trkpt lat="43.83799" lon="1.94127">
        <ele>230.4</ele>
        <time>2020-07-15T12:57:29Z</time>
      </trkpt>
      <trkpt lat="43.83793" lon="1.94115">
        <ele>229.2</ele>
        <time>2020-07-15T12:57:30Z</time>
      </trkpt>
      <trkpt lat="43.83788" lon="1.94105">
        <ele>228</ele>
        <time>2020-07-15T12:57:31Z</time>
      </trkpt>
      <trkpt lat="43.83783" lon="1.94095">
        <ele>226.6</ele>
        <time>2020-07-15T12:57:32Z</time>
      </trkpt>
      <trkpt lat="43.83778" lon="1.94085">
        <ele>225.2</ele>
        <time>2020-07-15T12:57:33Z</time>
      </trkpt>
      <trkpt lat="43.83773" lon="1.94074">
        <ele>223.8</ele>
        <time>2020-07-15T12:57:34Z</time>
      </trkpt>
      <trkpt lat="43.83769" lon="1.94063">
        <ele>222.2</ele>
        <time>2020-07-15T12:57:35Z</time>
      </trkpt>
      <trkpt lat="43.83764" lon="1.94051">
        <ele>221</ele>
        <time>2020-07-15T12:57:36Z</time>
      </trkpt>
      <trkpt lat="43.83758" lon="1.94039">
        <ele>220.2</ele>
        <time>2020-07-15T12:57:37Z</time>
      </trkpt>
      <trkpt lat="43.83752" lon="1.94028">
        <ele>219.2</ele>
        <time>2020-07-15T12:57:38Z</time>
      </trkpt>
      <trkpt lat="43.83748" lon="1.94015">
        <ele>218</ele>
        <time>2020-07-15T12:57:39Z</time>
      </trkpt>
      <trkpt lat="43.83743" lon="1.94004">
        <ele>217.4</ele>
        <time>2020-07-15T12:57:40Z</time>
      </trkpt>
      <trkpt lat="43.83739" lon="1.93993">
        <ele>217</ele>
        <time>2020-07-15T12:57:41Z</time>
      </trkpt>
      <trkpt lat="43.83734" lon="1.93983">
        <ele>217</ele>
        <time>2020-07-15T12:57:42Z</time>
      </trkpt>
      <trkpt lat="43.83729" lon="1.93973">
        <ele>217</ele>
        <time>2020-07-15T12:57:43Z</time>
      </trkpt>
      <trkpt lat="43.83725" lon="1.93964">
        <ele>217</ele>
        <time>2020-07-15T12:57:44Z</time>
      </trkpt>
      <trkpt lat="43.8372" lon="1.93956">
        <ele>217.2</ele>
        <time>2020-07-15T12:57:45Z</time>
      </trkpt>
      <trkpt lat="43.83716" lon="1.93948">
        <ele>217.2</ele>
        <time>2020-07-15T12:57:46Z</time>
      </trkpt>
      <trkpt lat="43.83713" lon="1.93942">
        <ele>217.6</ele>
        <time>2020-07-15T12:57:47Z</time>
      </trkpt>
      <trkpt lat="43.83711" lon="1.93937">
        <ele>218</ele>
        <time>2020-07-15T12:57:48Z</time>
      </trkpt>
      <trkpt lat="43.8371" lon="1.93934">
        <ele>218.4</ele>
        <time>2020-07-15T12:57:49Z</time>
      </trkpt>
      <trkpt lat="43.83707" lon="1.93929">
        <ele>219.6</ele>
        <time>2020-07-15T12:57:55Z</time>
      </trkpt>
      <trkpt lat="43.83706" lon="1.93926">
        <ele>219.8</ele>
        <time>2020-07-15T12:57:56Z</time>
      </trkpt>
      <trkpt lat="43.83705" lon="1.93923">
        <ele>219.8</ele>
        <time>2020-07-15T12:57:57Z</time>
      </trkpt>
      <trkpt lat="43.83703" lon="1.9392">
        <ele>219.8</ele>
        <time>2020-07-15T12:57:58Z</time>
      </trkpt>
      <trkpt lat="43.83701" lon="1.93917">
        <ele>219.8</ele>
        <time>2020-07-15T12:57:59Z</time>
      </trkpt>
      <trkpt lat="43.83699" lon="1.93913">
        <ele>219.8</ele>
        <time>2020-07-15T12:58:00Z</time>
      </trkpt>
      <trkpt lat="43.83698" lon="1.9391">
        <ele>219.8</ele>
        <time>2020-07-15T12:58:01Z</time>
      </trkpt>
      <trkpt lat="43.83696" lon="1.93905">
        <ele>219.8</ele>
        <time>2020-07-15T12:58:02Z</time>
      </trkpt>
      <trkpt lat="43.83695" lon="1.939">
        <ele>219.8</ele>
        <time>2020-07-15T12:58:03Z</time>
      </trkpt>
      <trkpt lat="43.83693" lon="1.93895">
        <ele>220</ele>
        <time>2020-07-15T12:58:04Z</time>
      </trkpt>
      <trkpt lat="43.83691" lon="1.9389">
        <ele>220.2</ele>
        <time>2020-07-15T12:58:05Z</time>
      </trkpt>
      <trkpt lat="43.83689" lon="1.93887">
        <ele>220.4</ele>
        <time>2020-07-15T12:58:06Z</time>
      </trkpt>
      <trkpt lat="43.83688" lon="1.93886">
        <ele>220.4</ele>
        <time>2020-07-15T12:58:07Z</time>
      </trkpt>
      <trkpt lat="43.83688" lon="1.93888">
        <ele>220.6</ele>
        <time>2020-07-15T12:58:08Z</time>
      </trkpt>
      <trkpt lat="43.83689" lon="1.9389">
        <ele>220.6</ele>
        <time>2020-07-15T12:58:09Z</time>
      </trkpt>
      <trkpt lat="43.8369" lon="1.93892">
        <ele>220.8</ele>
        <time>2020-07-15T12:58:10Z</time>
      </trkpt>
      <trkpt lat="43.83691" lon="1.93895">
        <ele>220.8</ele>
        <time>2020-07-15T12:58:11Z</time>
      </trkpt>
      <trkpt lat="43.83692" lon="1.93898">
        <ele>220.8</ele>
        <time>2020-07-15T12:58:12Z</time>
      </trkpt>
      <trkpt lat="43.83693" lon="1.93902">
        <ele>220.6</ele>
        <time>2020-07-15T12:58:13Z</time>
      </trkpt>
      <trkpt lat="43.83695" lon="1.93907">
        <ele>220.6</ele>
        <time>2020-07-15T12:58:14Z</time>
      </trkpt>
      <trkpt lat="43.83696" lon="1.93911">
        <ele>220.6</ele>
        <time>2020-07-15T12:58:15Z</time>
      </trkpt>
      <trkpt lat="43.83698" lon="1.93915">
        <ele>220.6</ele>
        <time>2020-07-15T12:58:16Z</time>
      </trkpt>
      <trkpt lat="43.83699" lon="1.93917">
        <ele>220.6</ele>
        <time>2020-07-15T12:58:17Z</time>
      </trkpt>
      <trkpt lat="43.837" lon="1.93918">
        <ele>220.6</ele>
        <time>2020-07-15T12:58:18Z</time>
      </trkpt>
      <trkpt lat="43.83699" lon="1.93918">
        <ele>220.6</ele>
        <time>2020-07-15T12:58:19Z</time>
      </trkpt>
      <trkpt lat="43.83699" lon="1.93918">
        <ele>220.8</ele>
        <time>2020-07-15T12:58:20Z</time>
      </trkpt>
      <trkpt lat="43.83699" lon="1.93918">
        <ele>220.6</ele>
        <time>2020-07-15T12:58:21Z</time>
      </trkpt>
      <trkpt lat="43.83699" lon="1.93918">
        <ele>220.6</ele>
        <time>2020-07-15T12:58:22Z</time>
      </trkpt>
      <trkpt lat="43.83699" lon="1.93918">
        <ele>220.4</ele>
        <time>2020-07-15T12:58:41Z</time>
      </trkpt>
      <trkpt lat="43.837" lon="1.9392">
        <ele>220.4</ele>
        <time>2020-07-15T12:58:42Z</time>
      </trkpt>
      <trkpt lat="43.83701" lon="1.93922">
        <ele>220.4</ele>
        <time>2020-07-15T12:58:43Z</time>
      </trkpt>
      <trkpt lat="43.83703" lon="1.93924">
        <ele>220.4</ele>
        <time>2020-07-15T12:58:44Z</time>
      </trkpt>
      <trkpt lat="43.83704" lon="1.93926">
        <ele>220.4</ele>
        <time>2020-07-15T12:58:45Z</time>
      </trkpt>
      <trkpt lat="43.83705" lon="1.93929">
        <ele>220.2</ele>
        <time>2020-07-15T12:58:46Z</time>
      </trkpt>
      <trkpt lat="43.83707" lon="1.93933">
        <ele>220.2</ele>
        <time>2020-07-15T12:58:47Z</time>
      </trkpt>
      <trkpt lat="43.83708" lon="1.93937">
        <ele>220</ele>
        <time>2020-07-15T12:58:48Z</time>
      </trkpt>
      <trkpt lat="43.83711" lon="1.93944">
        <ele>219.8</ele>
        <time>2020-07-15T12:58:49Z</time>
      </trkpt>
      <trkpt lat="43.83715" lon="1.93951">
        <ele>219.4</ele>
        <time>2020-07-15T12:58:50Z</time>
      </trkpt>
      <trkpt lat="43.83719" lon="1.93959">
        <ele>219.2</ele>
        <time>2020-07-15T12:58:51Z</time>
      </trkpt>
      <trkpt lat="43.83722" lon="1.93967">
        <ele>219</ele>
        <time>2020-07-15T12:58:52Z</time>
      </trkpt>
      <trkpt lat="43.83726" lon="1.93975">
        <ele>218.6</ele>
        <time>2020-07-15T12:58:53Z</time>
      </trkpt>
      <trkpt lat="43.8373" lon="1.93984">
        <ele>218.4</ele>
        <time>2020-07-15T12:58:54Z</time>
      </trkpt>
      <trkpt lat="43.83733" lon="1.93993">
        <ele>218.4</ele>
        <time>2020-07-15T12:58:55Z</time>
      </trkpt>
      <trkpt lat="43.83737" lon="1.94001">
        <ele>218.2</ele>
        <time>2020-07-15T12:58:56Z</time>
      </trkpt>
      <trkpt lat="43.83741" lon="1.94009">
        <ele>218.2</ele>
        <time>2020-07-15T12:58:57Z</time>
      </trkpt>
      <trkpt lat="43.83745" lon="1.94017">
        <ele>218.2</ele>
        <time>2020-07-15T12:58:58Z</time>
      </trkpt>
      <trkpt lat="43.83748" lon="1.94025">
        <ele>218.2</ele>
        <time>2020-07-15T12:58:59Z</time>
      </trkpt>
      <trkpt lat="43.83752" lon="1.94033">
        <ele>218.2</ele>
        <time>2020-07-15T12:59:00Z</time>
      </trkpt>
      <trkpt lat="43.83754" lon="1.94039">
        <ele>218.4</ele>
        <time>2020-07-15T12:59:01Z</time>
      </trkpt>
      <trkpt lat="43.83758" lon="1.94047">
        <ele>218.6</ele>
        <time>2020-07-15T12:59:02Z</time>
      </trkpt>
      <trkpt lat="43.83761" lon="1.94053">
        <ele>218.8</ele>
        <time>2020-07-15T12:59:03Z</time>
      </trkpt>
      <trkpt lat="43.83764" lon="1.9406">
        <ele>219</ele>
        <time>2020-07-15T12:59:04Z</time>
      </trkpt>
      <trkpt lat="43.83767" lon="1.94066">
        <ele>219.4</ele>
        <time>2020-07-15T12:59:05Z</time>
      </trkpt>
      <trkpt lat="43.83769" lon="1.94071">
        <ele>219.8</ele>
        <time>2020-07-15T12:59:06Z</time>
      </trkpt>
      <trkpt lat="43.83772" lon="1.94076">
        <ele>220</ele>
        <time>2020-07-15T12:59:07Z</time>
      </trkpt>
      <trkpt lat="43.83774" lon="1.94081">
        <ele>220.6</ele>
        <time>2020-07-15T12:59:08Z</time>
      </trkpt>
      <trkpt lat="43.83777" lon="1.94086">
        <ele>221</ele>
        <time>2020-07-15T12:59:09Z</time>
      </trkpt>
      <trkpt lat="43.83779" lon="1.94091">
        <ele>221.4</ele>
        <time>2020-07-15T12:59:10Z</time>
      </trkpt>
      <trkpt lat="43.83781" lon="1.94096">
        <ele>221.6</ele>
        <time>2020-07-15T12:59:11Z</time>
      </trkpt>
      <trkpt lat="43.83783" lon="1.941">
        <ele>222.2</ele>
        <time>2020-07-15T12:59:12Z</time>
      </trkpt>
      <trkpt lat="43.83786" lon="1.94105">
        <ele>222.6</ele>
        <time>2020-07-15T12:59:13Z</time>
      </trkpt>
      <trkpt lat="43.83788" lon="1.94109">
        <ele>223</ele>
        <time>2020-07-15T12:59:14Z</time>
      </trkpt>
      <trkpt lat="43.8379" lon="1.94114">
        <ele>223.6</ele>
        <time>2020-07-15T12:59:15Z</time>
      </trkpt>
      <trkpt lat="43.83793" lon="1.94119">
        <ele>224.2</ele>
        <time>2020-07-15T12:59:16Z</time>
      </trkpt>
      <trkpt lat="43.83794" lon="1.94123">
        <ele>224.8</ele>
        <time>2020-07-15T12:59:17Z</time>
      </trkpt>
      <trkpt lat="43.83797" lon="1.94128">
        <ele>225.4</ele>
        <time>2020-07-15T12:59:18Z</time>
      </trkpt>
      <trkpt lat="43.83799" lon="1.94133">
        <ele>225.8</ele>
        <time>2020-07-15T12:59:19Z</time>
      </trkpt>
      <trkpt lat="43.83801" lon="1.94138">
        <ele>226.4</ele>
        <time>2020-07-15T12:59:20Z</time>
      </trkpt>
      <trkpt lat="43.83804" lon="1.94142">
        <ele>227</ele>
        <time>2020-07-15T12:59:21Z</time>
      </trkpt>
      <trkpt lat="43.83806" lon="1.94147">
        <ele>227.6</ele>
        <time>2020-07-15T12:59:22Z</time>
      </trkpt>
      <trkpt lat="43.83809" lon="1.94152">
        <ele>228.2</ele>
        <time>2020-07-15T12:59:23Z</time>
      </trkpt>
      <trkpt lat="43.83811" lon="1.94156">
        <ele>228.8</ele>
        <time>2020-07-15T12:59:24Z</time>
      </trkpt>
      <trkpt lat="43.83813" lon="1.94161">
        <ele>229.4</ele>
        <time>2020-07-15T12:59:25Z</time>
      </trkpt>
      <trkpt lat="43.83815" lon="1.94165">
        <ele>230.2</ele>
        <time>2020-07-15T12:59:26Z</time>
      </trkpt>
      <trkpt lat="43.83817" lon="1.9417">
        <ele>230.8</ele>
        <time>2020-07-15T12:59:27Z</time>
      </trkpt>
      <trkpt lat="43.8382" lon="1.94175">
        <ele>231.4</ele>
        <time>2020-07-15T12:59:28Z</time>
      </trkpt>
      <trkpt lat="43.83822" lon="1.9418">
        <ele>232</ele>
        <time>2020-07-15T12:59:29Z</time>
      </trkpt>
      <trkpt lat="43.83824" lon="1.94185">
        <ele>232.6</ele>
        <time>2020-07-15T12:59:30Z</time>
      </trkpt>
      <trkpt lat="43.83826" lon="1.9419">
        <ele>233.2</ele>
        <time>2020-07-15T12:59:31Z</time>
      </trkpt>
      <trkpt lat="43.83828" lon="1.94195">
        <ele>233.8</ele>
        <time>2020-07-15T12:59:32Z</time>
      </trkpt>
      <trkpt lat="43.83831" lon="1.942">
        <ele>234.4</ele>
        <time>2020-07-15T12:59:33Z</time>
      </trkpt>
      <trkpt lat="43.83833" lon="1.94205">
        <ele>235</ele>
        <time>2020-07-15T12:59:34Z</time>
      </trkpt>
      <trkpt lat="43.83835" lon="1.94209">
        <ele>235.6</ele>
        <time>2020-07-15T12:59:35Z</time>
      </trkpt>
      <trkpt lat="43.83837" lon="1.94214">
        <ele>236.4</ele>
        <time>2020-07-15T12:59:36Z</time>
      </trkpt>
      <trkpt lat="43.83839" lon="1.94219">
        <ele>237</ele>
        <time>2020-07-15T12:59:37Z</time>
      </trkpt>
      <trkpt lat="43.83841" lon="1.94224">
        <ele>237.6</ele>
        <time>2020-07-15T12:59:38Z</time>
      </trkpt>
      <trkpt lat="43.83844" lon="1.94228">
        <ele>238.2</ele>
        <time>2020-07-15T12:59:39Z</time>
      </trkpt>
      <trkpt lat="43.83846" lon="1.94233">
        <ele>238.6</ele>
        <time>2020-07-15T12:59:40Z</time>
      </trkpt>
      <trkpt lat="43.83848" lon="1.94238">
        <ele>239.2</ele>
        <time>2020-07-15T12:59:41Z</time>
      </trkpt>
      <trkpt lat="43.8385" lon="1.94243">
        <ele>239.6</ele>
        <time>2020-07-15T12:59:42Z</time>
      </trkpt>
      <trkpt lat="43.83852" lon="1.94249">
        <ele>240</ele>
        <time>2020-07-15T12:59:43Z</time>
      </trkpt>
      <trkpt lat="43.83854" lon="1.94254">
        <ele>240.2</ele>
        <time>2020-07-15T12:59:44Z</time>
      </trkpt>
      <trkpt lat="43.83856" lon="1.9426">
        <ele>240.6</ele>
        <time>2020-07-15T12:59:45Z</time>
      </trkpt>
      <trkpt lat="43.83859" lon="1.94266">
        <ele>240.6</ele>
        <time>2020-07-15T12:59:46Z</time>
      </trkpt>
      <trkpt lat="43.83862" lon="1.94274">
        <ele>240.6</ele>
        <time>2020-07-15T12:59:47Z</time>
      </trkpt>
      <trkpt lat="43.83864" lon="1.94282">
        <ele>240.4</ele>
        <time>2020-07-15T12:59:48Z</time>
      </trkpt>
      <trkpt lat="43.83867" lon="1.94291">
        <ele>240</ele>
        <time>2020-07-15T12:59:49Z</time>
      </trkpt>
      <trkpt lat="43.8387" lon="1.943">
        <ele>239.6</ele>
        <time>2020-07-15T12:59:50Z</time>
      </trkpt>
      <trkpt lat="43.83874" lon="1.9431">
        <ele>239.2</ele>
        <time>2020-07-15T12:59:51Z</time>
      </trkpt>
      <trkpt lat="43.83877" lon="1.94321">
        <ele>238.6</ele>
        <time>2020-07-15T12:59:52Z</time>
      </trkpt>
      <trkpt lat="43.83881" lon="1.94331">
        <ele>238</ele>
        <time>2020-07-15T12:59:53Z</time>
      </trkpt>
      <trkpt lat="43.83885" lon="1.94343">
        <ele>237.4</ele>
        <time>2020-07-15T12:59:54Z</time>
      </trkpt>
      <trkpt lat="43.83888" lon="1.94355">
        <ele>236.8</ele>
        <time>2020-07-15T12:59:55Z</time>
      </trkpt>
      <trkpt lat="43.83892" lon="1.94367">
        <ele>236</ele>
        <time>2020-07-15T12:59:56Z</time>
      </trkpt>
      <trkpt lat="43.83896" lon="1.9438">
        <ele>235.4</ele>
        <time>2020-07-15T12:59:57Z</time>
      </trkpt>
      <trkpt lat="43.839" lon="1.94392">
        <ele>234.8</ele>
        <time>2020-07-15T12:59:58Z</time>
      </trkpt>
      <trkpt lat="43.83905" lon="1.94405">
        <ele>234.2</ele>
        <time>2020-07-15T12:59:59Z</time>
      </trkpt>
      <trkpt lat="43.8391" lon="1.94418">
        <ele>233.4</ele>
        <time>2020-07-15T13:00:00Z</time>
      </trkpt>
      <trkpt lat="43.83914" lon="1.9443">
        <ele>232.6</ele>
        <time>2020-07-15T13:00:01Z</time>
      </trkpt>
      <trkpt lat="43.8392" lon="1.94443">
        <ele>232</ele>
        <time>2020-07-15T13:00:02Z</time>
      </trkpt>
      <trkpt lat="43.83925" lon="1.94455">
        <ele>231</ele>
        <time>2020-07-15T13:00:03Z</time>
      </trkpt>
      <trkpt lat="43.83929" lon="1.94467">
        <ele>230.2</ele>
        <time>2020-07-15T13:00:04Z</time>
      </trkpt>
      <trkpt lat="43.83932" lon="1.94481">
        <ele>229.2</ele>
        <time>2020-07-15T13:00:05Z</time>
      </trkpt>
      <trkpt lat="43.83934" lon="1.94497">
        <ele>228.2</ele>
        <time>2020-07-15T13:00:06Z</time>
      </trkpt>
      <trkpt lat="43.83935" lon="1.94512">
        <ele>227</ele>
        <time>2020-07-15T13:00:07Z</time>
      </trkpt>
      <trkpt lat="43.83938" lon="1.94527">
        <ele>226.2</ele>
        <time>2020-07-15T13:00:08Z</time>
      </trkpt>
      <trkpt lat="43.8394" lon="1.94542">
        <ele>225</ele>
        <time>2020-07-15T13:00:09Z</time>
      </trkpt>
      <trkpt lat="43.83942" lon="1.94556">
        <ele>224</ele>
        <time>2020-07-15T13:00:10Z</time>
      </trkpt>
      <trkpt lat="43.83943" lon="1.94569">
        <ele>223</ele>
        <time>2020-07-15T13:00:11Z</time>
      </trkpt>
      <trkpt lat="43.83945" lon="1.94585">
        <ele>222</ele>
        <time>2020-07-15T13:00:12Z</time>
      </trkpt>
      <trkpt lat="43.83947" lon="1.94599">
        <ele>221.2</ele>
        <time>2020-07-15T13:00:13Z</time>
      </trkpt>
      <trkpt lat="43.83949" lon="1.94613">
        <ele>220.4</ele>
        <time>2020-07-15T13:00:14Z</time>
      </trkpt>
      <trkpt lat="43.83951" lon="1.94628">
        <ele>219.4</ele>
        <time>2020-07-15T13:00:15Z</time>
      </trkpt>
      <trkpt lat="43.83952" lon="1.94643">
        <ele>218.6</ele>
        <time>2020-07-15T13:00:16Z</time>
      </trkpt>
      <trkpt lat="43.83954" lon="1.94658">
        <ele>218</ele>
        <time>2020-07-15T13:00:17Z</time>
      </trkpt>
      <trkpt lat="43.83955" lon="1.94673">
        <ele>217.4</ele>
        <time>2020-07-15T13:00:18Z</time>
      </trkpt>
      <trkpt lat="43.83956" lon="1.94687">
        <ele>217</ele>
        <time>2020-07-15T13:00:19Z</time>
      </trkpt>
      <trkpt lat="43.83955" lon="1.94701">
        <ele>216.6</ele>
        <time>2020-07-15T13:00:20Z</time>
      </trkpt>
      <trkpt lat="43.83955" lon="1.94716">
        <ele>216.2</ele>
        <time>2020-07-15T13:00:21Z</time>
      </trkpt>
      <trkpt lat="43.83955" lon="1.94731">
        <ele>215.8</ele>
        <time>2020-07-15T13:00:22Z</time>
      </trkpt>
      <trkpt lat="43.83956" lon="1.94745">
        <ele>215.6</ele>
        <time>2020-07-15T13:00:23Z</time>
      </trkpt>
      <trkpt lat="43.83956" lon="1.94759">
        <ele>215.4</ele>
        <time>2020-07-15T13:00:24Z</time>
      </trkpt>
      <trkpt lat="43.83956" lon="1.94773">
        <ele>215</ele>
        <time>2020-07-15T13:00:25Z</time>
      </trkpt>
      <trkpt lat="43.83957" lon="1.94787">
        <ele>214.6</ele>
        <time>2020-07-15T13:00:26Z</time>
      </trkpt>
      <trkpt lat="43.83958" lon="1.948">
        <ele>214.2</ele>
        <time>2020-07-15T13:00:27Z</time>
      </trkpt>
      <trkpt lat="43.8396" lon="1.94812">
        <ele>213.8</ele>
        <time>2020-07-15T13:00:28Z</time>
      </trkpt>
      <trkpt lat="43.83962" lon="1.94821">
        <ele>213.6</ele>
        <time>2020-07-15T13:00:29Z</time>
      </trkpt>
      <trkpt lat="43.83966" lon="1.94828">
        <ele>213.2</ele>
        <time>2020-07-15T13:00:30Z</time>
      </trkpt>
      <trkpt lat="43.8397" lon="1.94832">
        <ele>213</ele>
        <time>2020-07-15T13:00:31Z</time>
      </trkpt>
      <trkpt lat="43.83976" lon="1.94836">
        <ele>212.8</ele>
        <time>2020-07-15T13:00:32Z</time>
      </trkpt>
      <trkpt lat="43.83983" lon="1.94838">
        <ele>212.4</ele>
        <time>2020-07-15T13:00:33Z</time>
      </trkpt>
      <trkpt lat="43.8399" lon="1.94841">
        <ele>212</ele>
        <time>2020-07-15T13:00:34Z</time>
      </trkpt>
      <trkpt lat="43.83997" lon="1.94843">
        <ele>211.8</ele>
        <time>2020-07-15T13:00:35Z</time>
      </trkpt>
      <trkpt lat="43.84004" lon="1.94846">
        <ele>211.4</ele>
        <time>2020-07-15T13:00:36Z</time>
      </trkpt>
      <trkpt lat="43.84011" lon="1.94848">
        <ele>211.4</ele>
        <time>2020-07-15T13:00:37Z</time>
      </trkpt>
      <trkpt lat="43.84018" lon="1.94851">
        <ele>211.4</ele>
        <time>2020-07-15T13:00:38Z</time>
      </trkpt>
      <trkpt lat="43.84026" lon="1.94854">
        <ele>211.4</ele>
        <time>2020-07-15T13:00:39Z</time>
      </trkpt>
      <trkpt lat="43.84032" lon="1.94857">
        <ele>211.6</ele>
        <time>2020-07-15T13:00:40Z</time>
      </trkpt>
      <trkpt lat="43.84039" lon="1.9486">
        <ele>211.6</ele>
        <time>2020-07-15T13:00:41Z</time>
      </trkpt>
      <trkpt lat="43.84046" lon="1.94862">
        <ele>211.8</ele>
        <time>2020-07-15T13:00:42Z</time>
      </trkpt>
      <trkpt lat="43.84052" lon="1.94865">
        <ele>212</ele>
        <time>2020-07-15T13:00:43Z</time>
      </trkpt>
      <trkpt lat="43.84058" lon="1.94867">
        <ele>212.4</ele>
        <time>2020-07-15T13:00:44Z</time>
      </trkpt>
      <trkpt lat="43.84063" lon="1.9487">
        <ele>212.6</ele>
        <time>2020-07-15T13:00:45Z</time>
      </trkpt>
      <trkpt lat="43.84068" lon="1.94872">
        <ele>213.2</ele>
        <time>2020-07-15T13:00:46Z</time>
      </trkpt>
      <trkpt lat="43.84073" lon="1.94875">
        <ele>213.6</ele>
        <time>2020-07-15T13:00:47Z</time>
      </trkpt>
      <trkpt lat="43.84078" lon="1.94878">
        <ele>214.2</ele>
        <time>2020-07-15T13:00:48Z</time>
      </trkpt>
      <trkpt lat="43.84083" lon="1.94881">
        <ele>214.6</ele>
        <time>2020-07-15T13:00:49Z</time>
      </trkpt>
      <trkpt lat="43.84087" lon="1.94884">
        <ele>214.8</ele>
        <time>2020-07-15T13:00:50Z</time>
      </trkpt>
      <trkpt lat="43.84092" lon="1.94887">
        <ele>215.2</ele>
        <time>2020-07-15T13:00:51Z</time>
      </trkpt>
      <trkpt lat="43.84097" lon="1.9489">
        <ele>215.6</ele>
        <time>2020-07-15T13:00:52Z</time>
      </trkpt>
      <trkpt lat="43.84101" lon="1.94893">
        <ele>216</ele>
        <time>2020-07-15T13:00:53Z</time>
      </trkpt>
      <trkpt lat="43.84105" lon="1.94896">
        <ele>216.4</ele>
        <time>2020-07-15T13:00:54Z</time>
      </trkpt>
      <trkpt lat="43.84109" lon="1.94899">
        <ele>216.8</ele>
        <time>2020-07-15T13:00:55Z</time>
      </trkpt>
      <trkpt lat="43.84113" lon="1.94902">
        <ele>217.2</ele>
        <time>2020-07-15T13:00:56Z</time>
      </trkpt>
      <trkpt lat="43.84117" lon="1.94905">
        <ele>217.4</ele>
        <time>2020-07-15T13:00:57Z</time>
      </trkpt>
      <trkpt lat="43.84121" lon="1.94908">
        <ele>217.8</ele>
        <time>2020-07-15T13:00:58Z</time>
      </trkpt>
      <trkpt lat="43.84125" lon="1.94911">
        <ele>218.2</ele>
        <time>2020-07-15T13:00:59Z</time>
      </trkpt>
      <trkpt lat="43.84129" lon="1.94914">
        <ele>218.6</ele>
        <time>2020-07-15T13:01:00Z</time>
      </trkpt>
      <trkpt lat="43.84133" lon="1.94917">
        <ele>219.2</ele>
        <time>2020-07-15T13:01:01Z</time>
      </trkpt>
      <trkpt lat="43.84137" lon="1.94921">
        <ele>219.6</ele>
        <time>2020-07-15T13:01:02Z</time>
      </trkpt>
      <trkpt lat="43.84141" lon="1.94924">
        <ele>220.2</ele>
        <time>2020-07-15T13:01:03Z</time>
      </trkpt>
      <trkpt lat="43.84145" lon="1.94927">
        <ele>220.8</ele>
        <time>2020-07-15T13:01:04Z</time>
      </trkpt>
      <trkpt lat="43.84148" lon="1.9493">
        <ele>221.4</ele>
        <time>2020-07-15T13:01:05Z</time>
      </trkpt>
      <trkpt lat="43.84152" lon="1.94933">
        <ele>222</ele>
        <time>2020-07-15T13:01:06Z</time>
      </trkpt>
      <trkpt lat="43.84155" lon="1.94937">
        <ele>222.6</ele>
        <time>2020-07-15T13:01:07Z</time>
      </trkpt>
      <trkpt lat="43.84159" lon="1.9494">
        <ele>223</ele>
        <time>2020-07-15T13:01:08Z</time>
      </trkpt>
      <trkpt lat="43.84163" lon="1.94943">
        <ele>223.6</ele>
        <time>2020-07-15T13:01:09Z</time>
      </trkpt>
      <trkpt lat="43.84166" lon="1.94946">
        <ele>224.2</ele>
        <time>2020-07-15T13:01:10Z</time>
      </trkpt>
      <trkpt lat="43.84169" lon="1.94949">
        <ele>225</ele>
        <time>2020-07-15T13:01:11Z</time>
      </trkpt>
      <trkpt lat="43.84172" lon="1.94952">
        <ele>225.6</ele>
        <time>2020-07-15T13:01:12Z</time>
      </trkpt>
      <trkpt lat="43.84176" lon="1.94955">
        <ele>226.2</ele>
        <time>2020-07-15T13:01:13Z</time>
      </trkpt>
      <trkpt lat="43.84179" lon="1.94958">
        <ele>227</ele>
        <time>2020-07-15T13:01:14Z</time>
      </trkpt>
      <trkpt lat="43.84183" lon="1.94961">
        <ele>227.6</ele>
        <time>2020-07-15T13:01:15Z</time>
      </trkpt>
      <trkpt lat="43.84186" lon="1.94963">
        <ele>228.2</ele>
        <time>2020-07-15T13:01:16Z</time>
      </trkpt>
      <trkpt lat="43.8419" lon="1.94966">
        <ele>228.6</ele>
        <time>2020-07-15T13:01:17Z</time>
      </trkpt>
      <trkpt lat="43.84193" lon="1.94968">
        <ele>229.2</ele>
        <time>2020-07-15T13:01:18Z</time>
      </trkpt>
      <trkpt lat="43.84197" lon="1.9497">
        <ele>229.6</ele>
        <time>2020-07-15T13:01:19Z</time>
      </trkpt>
      <trkpt lat="43.842" lon="1.94973">
        <ele>230.2</ele>
        <time>2020-07-15T13:01:20Z</time>
      </trkpt>
      <trkpt lat="43.84204" lon="1.94975">
        <ele>230.6</ele>
        <time>2020-07-15T13:01:21Z</time>
      </trkpt>
      <trkpt lat="43.84208" lon="1.94978">
        <ele>231.2</ele>
        <time>2020-07-15T13:01:22Z</time>
      </trkpt>
      <trkpt lat="43.84212" lon="1.9498">
        <ele>231.6</ele>
        <time>2020-07-15T13:01:23Z</time>
      </trkpt>
      <trkpt lat="43.84215" lon="1.94983">
        <ele>232.2</ele>
        <time>2020-07-15T13:01:24Z</time>
      </trkpt>
      <trkpt lat="43.84219" lon="1.94985">
        <ele>232.6</ele>
        <time>2020-07-15T13:01:25Z</time>
      </trkpt>
      <trkpt lat="43.84223" lon="1.94988">
        <ele>233.2</ele>
        <time>2020-07-15T13:01:26Z</time>
      </trkpt>
      <trkpt lat="43.84227" lon="1.9499">
        <ele>233.6</ele>
        <time>2020-07-15T13:01:27Z</time>
      </trkpt>
      <trkpt lat="43.84231" lon="1.94992">
        <ele>234.2</ele>
        <time>2020-07-15T13:01:28Z</time>
      </trkpt>
      <trkpt lat="43.84235" lon="1.94994">
        <ele>234.6</ele>
        <time>2020-07-15T13:01:29Z</time>
      </trkpt>
      <trkpt lat="43.84239" lon="1.94997">
        <ele>235.4</ele>
        <time>2020-07-15T13:01:30Z</time>
      </trkpt>
      <trkpt lat="43.84242" lon="1.94999">
        <ele>236</ele>
        <time>2020-07-15T13:01:31Z</time>
      </trkpt>
      <trkpt lat="43.84246" lon="1.95002">
        <ele>236.6</ele>
        <time>2020-07-15T13:01:32Z</time>
      </trkpt>
      <trkpt lat="43.84249" lon="1.95005">
        <ele>237</ele>
        <time>2020-07-15T13:01:33Z</time>
      </trkpt>
      <trkpt lat="43.84253" lon="1.95008">
        <ele>237.6</ele>
        <time>2020-07-15T13:01:34Z</time>
      </trkpt>
      <trkpt lat="43.84256" lon="1.95011">
        <ele>238</ele>
        <time>2020-07-15T13:01:35Z</time>
      </trkpt>
      <trkpt lat="43.84259" lon="1.95014">
        <ele>238.6</ele>
        <time>2020-07-15T13:01:36Z</time>
      </trkpt>
      <trkpt lat="43.84263" lon="1.95017">
        <ele>239</ele>
        <time>2020-07-15T13:01:37Z</time>
      </trkpt>
      <trkpt lat="43.84265" lon="1.9502">
        <ele>239.2</ele>
        <time>2020-07-15T13:01:38Z</time>
      </trkpt>
      <trkpt lat="43.84267" lon="1.95023">
        <ele>239.6</ele>
        <time>2020-07-15T13:01:39Z</time>
      </trkpt>
      <trkpt lat="43.84269" lon="1.95027">
        <ele>239.8</ele>
        <time>2020-07-15T13:01:40Z</time>
      </trkpt>
      <trkpt lat="43.84268" lon="1.95031">
        <ele>239.8</ele>
        <time>2020-07-15T13:01:41Z</time>
      </trkpt>
      <trkpt lat="43.84266" lon="1.95035">
        <ele>239.8</ele>
        <time>2020-07-15T13:01:42Z</time>
      </trkpt>
      <trkpt lat="43.84263" lon="1.9504">
        <ele>239.6</ele>
        <time>2020-07-15T13:01:43Z</time>
      </trkpt>
      <trkpt lat="43.84259" lon="1.95044">
        <ele>239.2</ele>
        <time>2020-07-15T13:01:44Z</time>
      </trkpt>
      <trkpt lat="43.84256" lon="1.9505">
        <ele>238.8</ele>
        <time>2020-07-15T13:01:45Z</time>
      </trkpt>
      <trkpt lat="43.84251" lon="1.95055">
        <ele>238.6</ele>
        <time>2020-07-15T13:01:46Z</time>
      </trkpt>
      <trkpt lat="43.84247" lon="1.95062">
        <ele>238</ele>
        <time>2020-07-15T13:01:47Z</time>
      </trkpt>
      <trkpt lat="43.84243" lon="1.95068">
        <ele>237.6</ele>
        <time>2020-07-15T13:01:48Z</time>
      </trkpt>
      <trkpt lat="43.84238" lon="1.95074">
        <ele>237.4</ele>
        <time>2020-07-15T13:01:49Z</time>
      </trkpt>
      <trkpt lat="43.84233" lon="1.95081">
        <ele>237</ele>
        <time>2020-07-15T13:01:50Z</time>
      </trkpt>
      <trkpt lat="43.84227" lon="1.95089">
        <ele>236.6</ele>
        <time>2020-07-15T13:01:51Z</time>
      </trkpt>
      <trkpt lat="43.84222" lon="1.95097">
        <ele>236</ele>
        <time>2020-07-15T13:01:52Z</time>
      </trkpt>
      <trkpt lat="43.84216" lon="1.95105">
        <ele>235.4</ele>
        <time>2020-07-15T13:01:53Z</time>
      </trkpt>
      <trkpt lat="43.8421" lon="1.95113">
        <ele>234.8</ele>
        <time>2020-07-15T13:01:54Z</time>
      </trkpt>
      <trkpt lat="43.84204" lon="1.95121">
        <ele>234.2</ele>
        <time>2020-07-15T13:01:55Z</time>
      </trkpt>
      <trkpt lat="43.84197" lon="1.95129">
        <ele>233.6</ele>
        <time>2020-07-15T13:01:56Z</time>
      </trkpt>
      <trkpt lat="43.84191" lon="1.95138">
        <ele>233</ele>
        <time>2020-07-15T13:01:57Z</time>
      </trkpt>
      <trkpt lat="43.84185" lon="1.95146">
        <ele>232.2</ele>
        <time>2020-07-15T13:01:58Z</time>
      </trkpt>
      <trkpt lat="43.84178" lon="1.95155">
        <ele>231.8</ele>
        <time>2020-07-15T13:01:59Z</time>
      </trkpt>
      <trkpt lat="43.84172" lon="1.95164">
        <ele>231.2</ele>
        <time>2020-07-15T13:02:00Z</time>
      </trkpt>
      <trkpt lat="43.84166" lon="1.95173">
        <ele>230.8</ele>
        <time>2020-07-15T13:02:01Z</time>
      </trkpt>
      <trkpt lat="43.8416" lon="1.95182">
        <ele>230.4</ele>
        <time>2020-07-15T13:02:02Z</time>
      </trkpt>
      <trkpt lat="43.84154" lon="1.95191">
        <ele>230.2</ele>
        <time>2020-07-15T13:02:03Z</time>
      </trkpt>
      <trkpt lat="43.84148" lon="1.952">
        <ele>230</ele>
        <time>2020-07-15T13:02:04Z</time>
      </trkpt>
      <trkpt lat="43.84141" lon="1.95208">
        <ele>229.8</ele>
        <time>2020-07-15T13:02:05Z</time>
      </trkpt>
      <trkpt lat="43.84135" lon="1.95217">
        <ele>229.6</ele>
        <time>2020-07-15T13:02:06Z</time>
      </trkpt>
      <trkpt lat="43.8413" lon="1.95225">
        <ele>229.6</ele>
        <time>2020-07-15T13:02:07Z</time>
      </trkpt>
      <trkpt lat="43.84124" lon="1.95233">
        <ele>229.6</ele>
        <time>2020-07-15T13:02:08Z</time>
      </trkpt>
      <trkpt lat="43.84118" lon="1.95241">
        <ele>229.4</ele>
        <time>2020-07-15T13:02:09Z</time>
      </trkpt>
      <trkpt lat="43.84113" lon="1.95248">
        <ele>229.4</ele>
        <time>2020-07-15T13:02:10Z</time>
      </trkpt>
      <trkpt lat="43.84107" lon="1.95256">
        <ele>229.4</ele>
        <time>2020-07-15T13:02:11Z</time>
      </trkpt>
      <trkpt lat="43.84101" lon="1.95263">
        <ele>229.2</ele>
        <time>2020-07-15T13:02:12Z</time>
      </trkpt>
      <trkpt lat="43.84096" lon="1.9527">
        <ele>229</ele>
        <time>2020-07-15T13:02:13Z</time>
      </trkpt>
      <trkpt lat="43.8409" lon="1.95278">
        <ele>228.8</ele>
        <time>2020-07-15T13:02:14Z</time>
      </trkpt>
      <trkpt lat="43.84085" lon="1.95286">
        <ele>228.6</ele>
        <time>2020-07-15T13:02:15Z</time>
      </trkpt>
      <trkpt lat="43.8408" lon="1.95293">
        <ele>228.2</ele>
        <time>2020-07-15T13:02:16Z</time>
      </trkpt>
      <trkpt lat="43.84075" lon="1.95301">
        <ele>228</ele>
        <time>2020-07-15T13:02:17Z</time>
      </trkpt>
      <trkpt lat="43.8407" lon="1.95309">
        <ele>227.8</ele>
        <time>2020-07-15T13:02:18Z</time>
      </trkpt>
      <trkpt lat="43.84065" lon="1.95317">
        <ele>227.8</ele>
        <time>2020-07-15T13:02:19Z</time>
      </trkpt>
      <trkpt lat="43.84061" lon="1.95324">
        <ele>227.6</ele>
        <time>2020-07-15T13:02:20Z</time>
      </trkpt>
      <trkpt lat="43.84056" lon="1.95333">
        <ele>227.8</ele>
        <time>2020-07-15T13:02:21Z</time>
      </trkpt>
      <trkpt lat="43.84052" lon="1.95341">
        <ele>227.8</ele>
        <time>2020-07-15T13:02:22Z</time>
      </trkpt>
      <trkpt lat="43.84048" lon="1.95349">
        <ele>227.6</ele>
        <time>2020-07-15T13:02:23Z</time>
      </trkpt>
      <trkpt lat="43.84045" lon="1.95358">
        <ele>227.6</ele>
        <time>2020-07-15T13:02:24Z</time>
      </trkpt>
      <trkpt lat="43.84042" lon="1.95366">
        <ele>227.8</ele>
        <time>2020-07-15T13:02:25Z</time>
      </trkpt>
      <trkpt lat="43.84038" lon="1.95374">
        <ele>227.6</ele>
        <time>2020-07-15T13:02:26Z</time>
      </trkpt>
      <trkpt lat="43.84034" lon="1.95382">
        <ele>227.6</ele>
        <time>2020-07-15T13:02:27Z</time>
      </trkpt>
      <trkpt lat="43.84031" lon="1.95389">
        <ele>227.6</ele>
        <time>2020-07-15T13:02:28Z</time>
      </trkpt>
      <trkpt lat="43.84028" lon="1.95397">
        <ele>227.8</ele>
        <time>2020-07-15T13:02:29Z</time>
      </trkpt>
      <trkpt lat="43.84024" lon="1.95405">
        <ele>227.8</ele>
        <time>2020-07-15T13:02:30Z</time>
      </trkpt>
      <trkpt lat="43.84021" lon="1.95412">
        <ele>227.8</ele>
        <time>2020-07-15T13:02:31Z</time>
      </trkpt>
      <trkpt lat="43.84018" lon="1.95419">
        <ele>227.8</ele>
        <time>2020-07-15T13:02:32Z</time>
      </trkpt>
      <trkpt lat="43.84015" lon="1.95427">
        <ele>228</ele>
        <time>2020-07-15T13:02:33Z</time>
      </trkpt>
      <trkpt lat="43.84012" lon="1.95434">
        <ele>228</ele>
        <time>2020-07-15T13:02:34Z</time>
      </trkpt>
      <trkpt lat="43.84008" lon="1.95441">
        <ele>228</ele>
        <time>2020-07-15T13:02:35Z</time>
      </trkpt>
      <trkpt lat="43.84005" lon="1.95449">
        <ele>228.2</ele>
        <time>2020-07-15T13:02:36Z</time>
      </trkpt>
      <trkpt lat="43.84002" lon="1.95456">
        <ele>228.2</ele>
        <time>2020-07-15T13:02:37Z</time>
      </trkpt>
      <trkpt lat="43.83999" lon="1.95463">
        <ele>228.2</ele>
        <time>2020-07-15T13:02:38Z</time>
      </trkpt>
      <trkpt lat="43.83997" lon="1.95471">
        <ele>228.4</ele>
        <time>2020-07-15T13:02:39Z</time>
      </trkpt>
      <trkpt lat="43.83994" lon="1.95478">
        <ele>228.6</ele>
        <time>2020-07-15T13:02:40Z</time>
      </trkpt>
      <trkpt lat="43.83992" lon="1.95486">
        <ele>228.6</ele>
        <time>2020-07-15T13:02:41Z</time>
      </trkpt>
      <trkpt lat="43.83989" lon="1.95493">
        <ele>228.8</ele>
        <time>2020-07-15T13:02:42Z</time>
      </trkpt>
      <trkpt lat="43.83987" lon="1.95501">
        <ele>228.8</ele>
        <time>2020-07-15T13:02:43Z</time>
      </trkpt>
      <trkpt lat="43.83984" lon="1.95509">
        <ele>229</ele>
        <time>2020-07-15T13:02:44Z</time>
      </trkpt>
      <trkpt lat="43.83982" lon="1.95516">
        <ele>229.2</ele>
        <time>2020-07-15T13:02:45Z</time>
      </trkpt>
      <trkpt lat="43.83979" lon="1.95524">
        <ele>229.4</ele>
        <time>2020-07-15T13:02:46Z</time>
      </trkpt>
      <trkpt lat="43.83977" lon="1.95531">
        <ele>229.4</ele>
        <time>2020-07-15T13:02:47Z</time>
      </trkpt>
      <trkpt lat="43.83975" lon="1.95539">
        <ele>229.6</ele>
        <time>2020-07-15T13:02:48Z</time>
      </trkpt>
      <trkpt lat="43.83972" lon="1.95546">
        <ele>229.8</ele>
        <time>2020-07-15T13:02:49Z</time>
      </trkpt>
      <trkpt lat="43.8397" lon="1.95554">
        <ele>230</ele>
        <time>2020-07-15T13:02:50Z</time>
      </trkpt>
      <trkpt lat="43.83968" lon="1.95561">
        <ele>230.2</ele>
        <time>2020-07-15T13:02:51Z</time>
      </trkpt>
      <trkpt lat="43.83965" lon="1.95569">
        <ele>230.4</ele>
        <time>2020-07-15T13:02:52Z</time>
      </trkpt>
      <trkpt lat="43.83963" lon="1.95576">
        <ele>230.4</ele>
        <time>2020-07-15T13:02:53Z</time>
      </trkpt>
      <trkpt lat="43.83961" lon="1.95584">
        <ele>230.6</ele>
        <time>2020-07-15T13:02:54Z</time>
      </trkpt>
      <trkpt lat="43.83959" lon="1.95591">
        <ele>230.8</ele>
        <time>2020-07-15T13:02:55Z</time>
      </trkpt>
      <trkpt lat="43.83957" lon="1.956">
        <ele>231</ele>
        <time>2020-07-15T13:02:56Z</time>
      </trkpt>
      <trkpt lat="43.83955" lon="1.95607">
        <ele>231.2</ele>
        <time>2020-07-15T13:02:57Z</time>
      </trkpt>
      <trkpt lat="43.83954" lon="1.95615">
        <ele>231.4</ele>
        <time>2020-07-15T13:02:58Z</time>
      </trkpt>
      <trkpt lat="43.83952" lon="1.95623">
        <ele>231.6</ele>
        <time>2020-07-15T13:02:59Z</time>
      </trkpt>
      <trkpt lat="43.8395" lon="1.95631">
        <ele>231.8</ele>
        <time>2020-07-15T13:03:00Z</time>
      </trkpt>
      <trkpt lat="43.83949" lon="1.95638">
        <ele>232</ele>
        <time>2020-07-15T13:03:01Z</time>
      </trkpt>
      <trkpt lat="43.83947" lon="1.95646">
        <ele>232.2</ele>
        <time>2020-07-15T13:03:02Z</time>
      </trkpt>
      <trkpt lat="43.83946" lon="1.95653">
        <ele>232.4</ele>
        <time>2020-07-15T13:03:03Z</time>
      </trkpt>
      <trkpt lat="43.83944" lon="1.95661">
        <ele>232.6</ele>
        <time>2020-07-15T13:03:04Z</time>
      </trkpt>
      <trkpt lat="43.83942" lon="1.95669">
        <ele>233</ele>
        <time>2020-07-15T13:03:05Z</time>
      </trkpt>
      <trkpt lat="43.83941" lon="1.95676">
        <ele>233.2</ele>
        <time>2020-07-15T13:03:06Z</time>
      </trkpt>
      <trkpt lat="43.83939" lon="1.95684">
        <ele>233.4</ele>
        <time>2020-07-15T13:03:07Z</time>
      </trkpt>
      <trkpt lat="43.83937" lon="1.95691">
        <ele>233.8</ele>
        <time>2020-07-15T13:03:08Z</time>
      </trkpt>
      <trkpt lat="43.83935" lon="1.95699">
        <ele>234.2</ele>
        <time>2020-07-15T13:03:09Z</time>
      </trkpt>
      <trkpt lat="43.83933" lon="1.95706">
        <ele>234.4</ele>
        <time>2020-07-15T13:03:10Z</time>
      </trkpt>
      <trkpt lat="43.83931" lon="1.95714">
        <ele>234.8</ele>
        <time>2020-07-15T13:03:11Z</time>
      </trkpt>
      <trkpt lat="43.83929" lon="1.95721">
        <ele>235.2</ele>
        <time>2020-07-15T13:03:12Z</time>
      </trkpt>
      <trkpt lat="43.83926" lon="1.95728">
        <ele>235.4</ele>
        <time>2020-07-15T13:03:13Z</time>
      </trkpt>
      <trkpt lat="43.83923" lon="1.95734">
        <ele>235.8</ele>
        <time>2020-07-15T13:03:14Z</time>
      </trkpt>
      <trkpt lat="43.8392" lon="1.95741">
        <ele>236.2</ele>
        <time>2020-07-15T13:03:15Z</time>
      </trkpt>
      <trkpt lat="43.83917" lon="1.95748">
        <ele>236.6</ele>
        <time>2020-07-15T13:03:16Z</time>
      </trkpt>
      <trkpt lat="43.83915" lon="1.95755">
        <ele>236.8</ele>
        <time>2020-07-15T13:03:17Z</time>
      </trkpt>
      <trkpt lat="43.83912" lon="1.95762">
        <ele>237.2</ele>
        <time>2020-07-15T13:03:18Z</time>
      </trkpt>
      <trkpt lat="43.83909" lon="1.95769">
        <ele>237.4</ele>
        <time>2020-07-15T13:03:19Z</time>
      </trkpt>
      <trkpt lat="43.83906" lon="1.95776">
        <ele>237.8</ele>
        <time>2020-07-15T13:03:20Z</time>
      </trkpt>
      <trkpt lat="43.83904" lon="1.95783">
        <ele>238.2</ele>
        <time>2020-07-15T13:03:21Z</time>
      </trkpt>
      <trkpt lat="43.83901" lon="1.9579">
        <ele>238.6</ele>
        <time>2020-07-15T13:03:22Z</time>
      </trkpt>
      <trkpt lat="43.83898" lon="1.95797">
        <ele>238.8</ele>
        <time>2020-07-15T13:03:23Z</time>
      </trkpt>
      <trkpt lat="43.83896" lon="1.95803">
        <ele>239.2</ele>
        <time>2020-07-15T13:03:24Z</time>
      </trkpt>
      <trkpt lat="43.83893" lon="1.9581">
        <ele>239.6</ele>
        <time>2020-07-15T13:03:25Z</time>
      </trkpt>
      <trkpt lat="43.83891" lon="1.95817">
        <ele>239.8</ele>
        <time>2020-07-15T13:03:26Z</time>
      </trkpt>
      <trkpt lat="43.83888" lon="1.95824">
        <ele>240.2</ele>
        <time>2020-07-15T13:03:27Z</time>
      </trkpt>
      <trkpt lat="43.83886" lon="1.95832">
        <ele>240.4</ele>
        <time>2020-07-15T13:03:28Z</time>
      </trkpt>
      <trkpt lat="43.83884" lon="1.95839">
        <ele>240.8</ele>
        <time>2020-07-15T13:03:29Z</time>
      </trkpt>
      <trkpt lat="43.83883" lon="1.95846">
        <ele>241</ele>
        <time>2020-07-15T13:03:30Z</time>
      </trkpt>
      <trkpt lat="43.83881" lon="1.95854">
        <ele>241.4</ele>
        <time>2020-07-15T13:03:31Z</time>
      </trkpt>
      <trkpt lat="43.83881" lon="1.95861">
        <ele>241.8</ele>
        <time>2020-07-15T13:03:32Z</time>
      </trkpt>
      <trkpt lat="43.8388" lon="1.95869">
        <ele>242.2</ele>
        <time>2020-07-15T13:03:33Z</time>
      </trkpt>
      <trkpt lat="43.8388" lon="1.95876">
        <ele>242.6</ele>
        <time>2020-07-15T13:03:34Z</time>
      </trkpt>
      <trkpt lat="43.83879" lon="1.95883">
        <ele>243.2</ele>
        <time>2020-07-15T13:03:35Z</time>
      </trkpt>
      <trkpt lat="43.83878" lon="1.95891">
        <ele>243.6</ele>
        <time>2020-07-15T13:03:36Z</time>
      </trkpt>
      <trkpt lat="43.83878" lon="1.95898">
        <ele>244</ele>
        <time>2020-07-15T13:03:37Z</time>
      </trkpt>
      <trkpt lat="43.83877" lon="1.95906">
        <ele>244.6</ele>
        <time>2020-07-15T13:03:38Z</time>
      </trkpt>
      <trkpt lat="43.83877" lon="1.95914">
        <ele>245</ele>
        <time>2020-07-15T13:03:39Z</time>
      </trkpt>
      <trkpt lat="43.83876" lon="1.95921">
        <ele>245.4</ele>
        <time>2020-07-15T13:03:40Z</time>
      </trkpt>
      <trkpt lat="43.83876" lon="1.95929">
        <ele>246</ele>
        <time>2020-07-15T13:03:41Z</time>
      </trkpt>
      <trkpt lat="43.83875" lon="1.95936">
        <ele>246.6</ele>
        <time>2020-07-15T13:03:42Z</time>
      </trkpt>
      <trkpt lat="43.83874" lon="1.95943">
        <ele>247</ele>
        <time>2020-07-15T13:03:43Z</time>
      </trkpt>
      <trkpt lat="43.83873" lon="1.9595">
        <ele>247.6</ele>
        <time>2020-07-15T13:03:44Z</time>
      </trkpt>
      <trkpt lat="43.83871" lon="1.95957">
        <ele>248.2</ele>
        <time>2020-07-15T13:03:45Z</time>
      </trkpt>
      <trkpt lat="43.8387" lon="1.95964">
        <ele>248.6</ele>
        <time>2020-07-15T13:03:46Z</time>
      </trkpt>
      <trkpt lat="43.83868" lon="1.95971">
        <ele>249</ele>
        <time>2020-07-15T13:03:47Z</time>
      </trkpt>
      <trkpt lat="43.83867" lon="1.95978">
        <ele>249.6</ele>
        <time>2020-07-15T13:03:48Z</time>
      </trkpt>
      <trkpt lat="43.83866" lon="1.95985">
        <ele>250</ele>
        <time>2020-07-15T13:03:49Z</time>
      </trkpt>
      <trkpt lat="43.83865" lon="1.95993">
        <ele>250.4</ele>
        <time>2020-07-15T13:03:50Z</time>
      </trkpt>
      <trkpt lat="43.83864" lon="1.96">
        <ele>250.8</ele>
        <time>2020-07-15T13:03:51Z</time>
      </trkpt>
      <trkpt lat="43.83862" lon="1.96007">
        <ele>251.2</ele>
        <time>2020-07-15T13:03:52Z</time>
      </trkpt>
      <trkpt lat="43.83861" lon="1.96015">
        <ele>251.6</ele>
        <time>2020-07-15T13:03:53Z</time>
      </trkpt>
      <trkpt lat="43.83859" lon="1.96022">
        <ele>252</ele>
        <time>2020-07-15T13:03:54Z</time>
      </trkpt>
      <trkpt lat="43.83856" lon="1.96029">
        <ele>252.4</ele>
        <time>2020-07-15T13:03:55Z</time>
      </trkpt>
      <trkpt lat="43.83853" lon="1.96035">
        <ele>253</ele>
        <time>2020-07-15T13:03:56Z</time>
      </trkpt>
      <trkpt lat="43.8385" lon="1.96041">
        <ele>253.4</ele>
        <time>2020-07-15T13:03:57Z</time>
      </trkpt>
      <trkpt lat="43.83846" lon="1.96047">
        <ele>254</ele>
        <time>2020-07-15T13:03:58Z</time>
      </trkpt>
      <trkpt lat="43.83843" lon="1.96053">
        <ele>254.4</ele>
        <time>2020-07-15T13:03:59Z</time>
      </trkpt>
      <trkpt lat="43.83839" lon="1.96059">
        <ele>254.8</ele>
        <time>2020-07-15T13:04:00Z</time>
      </trkpt>
      <trkpt lat="43.83836" lon="1.96064">
        <ele>255.4</ele>
        <time>2020-07-15T13:04:01Z</time>
      </trkpt>
      <trkpt lat="43.83831" lon="1.9607">
        <ele>256</ele>
        <time>2020-07-15T13:04:02Z</time>
      </trkpt>
      <trkpt lat="43.83828" lon="1.96075">
        <ele>256.4</ele>
        <time>2020-07-15T13:04:03Z</time>
      </trkpt>
      <trkpt lat="43.83824" lon="1.9608">
        <ele>256.8</ele>
        <time>2020-07-15T13:04:04Z</time>
      </trkpt>
      <trkpt lat="43.8382" lon="1.96086">
        <ele>257.2</ele>
        <time>2020-07-15T13:04:05Z</time>
      </trkpt>
      <trkpt lat="43.83816" lon="1.96091">
        <ele>257.6</ele>
        <time>2020-07-15T13:04:06Z</time>
      </trkpt>
      <trkpt lat="43.83812" lon="1.96097">
        <ele>257.8</ele>
        <time>2020-07-15T13:04:07Z</time>
      </trkpt>
      <trkpt lat="43.83807" lon="1.96102">
        <ele>258</ele>
        <time>2020-07-15T13:04:08Z</time>
      </trkpt>
      <trkpt lat="43.83803" lon="1.96107">
        <ele>258.2</ele>
        <time>2020-07-15T13:04:09Z</time>
      </trkpt>
      <trkpt lat="43.83799" lon="1.96113">
        <ele>258.4</ele>
        <time>2020-07-15T13:04:10Z</time>
      </trkpt>
      <trkpt lat="43.83795" lon="1.96118">
        <ele>258.6</ele>
        <time>2020-07-15T13:04:11Z</time>
      </trkpt>
      <trkpt lat="43.8379" lon="1.96123">
        <ele>258.8</ele>
        <time>2020-07-15T13:04:12Z</time>
      </trkpt>
      <trkpt lat="43.83786" lon="1.96128">
        <ele>259.2</ele>
        <time>2020-07-15T13:04:13Z</time>
      </trkpt>
      <trkpt lat="43.83781" lon="1.96133">
        <ele>259.4</ele>
        <time>2020-07-15T13:04:14Z</time>
      </trkpt>
      <trkpt lat="43.83777" lon="1.96138">
        <ele>259.8</ele>
        <time>2020-07-15T13:04:15Z</time>
      </trkpt>
      <trkpt lat="43.83773" lon="1.96142">
        <ele>260</ele>
        <time>2020-07-15T13:04:16Z</time>
      </trkpt>
      <trkpt lat="43.83768" lon="1.96147">
        <ele>260.2</ele>
        <time>2020-07-15T13:04:17Z</time>
      </trkpt>
      <trkpt lat="43.83764" lon="1.96151">
        <ele>260.6</ele>
        <time>2020-07-15T13:04:18Z</time>
      </trkpt>
      <trkpt lat="43.83759" lon="1.96154">
        <ele>260.8</ele>
        <time>2020-07-15T13:04:19Z</time>
      </trkpt>
      <trkpt lat="43.83755" lon="1.96158">
        <ele>260.8</ele>
        <time>2020-07-15T13:04:20Z</time>
      </trkpt>
      <trkpt lat="43.83751" lon="1.96161">
        <ele>261</ele>
        <time>2020-07-15T13:04:21Z</time>
      </trkpt>
      <trkpt lat="43.83746" lon="1.96165">
        <ele>261.2</ele>
        <time>2020-07-15T13:04:22Z</time>
      </trkpt>
      <trkpt lat="43.83741" lon="1.96168">
        <ele>261.4</ele>
        <time>2020-07-15T13:04:23Z</time>
      </trkpt>
      <trkpt lat="43.83737" lon="1.9617">
        <ele>261.4</ele>
        <time>2020-07-15T13:04:24Z</time>
      </trkpt>
      <trkpt lat="43.83732" lon="1.96173">
        <ele>261.4</ele>
        <time>2020-07-15T13:04:25Z</time>
      </trkpt>
      <trkpt lat="43.83728" lon="1.96176">
        <ele>261.6</ele>
        <time>2020-07-15T13:04:26Z</time>
      </trkpt>
      <trkpt lat="43.83723" lon="1.96179">
        <ele>261.6</ele>
        <time>2020-07-15T13:04:27Z</time>
      </trkpt>
      <trkpt lat="43.83719" lon="1.96182">
        <ele>261.8</ele>
        <time>2020-07-15T13:04:28Z</time>
      </trkpt>
      <trkpt lat="43.83714" lon="1.96184">
        <ele>262.2</ele>
        <time>2020-07-15T13:04:29Z</time>
      </trkpt>
      <trkpt lat="43.83709" lon="1.96187">
        <ele>262.4</ele>
        <time>2020-07-15T13:04:30Z</time>
      </trkpt>
      <trkpt lat="43.83704" lon="1.96189">
        <ele>262.6</ele>
        <time>2020-07-15T13:04:31Z</time>
      </trkpt>
      <trkpt lat="43.83698" lon="1.96192">
        <ele>262.6</ele>
        <time>2020-07-15T13:04:32Z</time>
      </trkpt>
      <trkpt lat="43.83693" lon="1.96195">
        <ele>262.6</ele>
        <time>2020-07-15T13:04:33Z</time>
      </trkpt>
      <trkpt lat="43.83688" lon="1.96198">
        <ele>262.8</ele>
        <time>2020-07-15T13:04:34Z</time>
      </trkpt>
      <trkpt lat="43.83683" lon="1.962">
        <ele>262.8</ele>
        <time>2020-07-15T13:04:35Z</time>
      </trkpt>
      <trkpt lat="43.83678" lon="1.96203">
        <ele>262.8</ele>
        <time>2020-07-15T13:04:36Z</time>
      </trkpt>
      <trkpt lat="43.83674" lon="1.96206">
        <ele>262.8</ele>
        <time>2020-07-15T13:04:37Z</time>
      </trkpt>
      <trkpt lat="43.83669" lon="1.96209">
        <ele>263</ele>
        <time>2020-07-15T13:04:38Z</time>
      </trkpt>
      <trkpt lat="43.83664" lon="1.96212">
        <ele>263.2</ele>
        <time>2020-07-15T13:04:39Z</time>
      </trkpt>
      <trkpt lat="43.83659" lon="1.96214">
        <ele>263.4</ele>
        <time>2020-07-15T13:04:40Z</time>
      </trkpt>
      <trkpt lat="43.83655" lon="1.96216">
        <ele>263.6</ele>
        <time>2020-07-15T13:04:41Z</time>
      </trkpt>
      <trkpt lat="43.83651" lon="1.96219">
        <ele>263.8</ele>
        <time>2020-07-15T13:04:42Z</time>
      </trkpt>
      <trkpt lat="43.83647" lon="1.96222">
        <ele>263.8</ele>
        <time>2020-07-15T13:04:43Z</time>
      </trkpt>
      <trkpt lat="43.83643" lon="1.96224">
        <ele>264</ele>
        <time>2020-07-15T13:04:44Z</time>
      </trkpt>
      <trkpt lat="43.83638" lon="1.96226">
        <ele>264.2</ele>
        <time>2020-07-15T13:04:45Z</time>
      </trkpt>
      <trkpt lat="43.83635" lon="1.96227">
        <ele>264.4</ele>
        <time>2020-07-15T13:04:46Z</time>
      </trkpt>
      <trkpt lat="43.83631" lon="1.96229">
        <ele>264.6</ele>
        <time>2020-07-15T13:04:47Z</time>
      </trkpt>
      <trkpt lat="43.83628" lon="1.9623">
        <ele>264.8</ele>
        <time>2020-07-15T13:04:48Z</time>
      </trkpt>
      <trkpt lat="43.83626" lon="1.96232">
        <ele>265</ele>
        <time>2020-07-15T13:04:49Z</time>
      </trkpt>
      <trkpt lat="43.83624" lon="1.96233">
        <ele>265.2</ele>
        <time>2020-07-15T13:04:50Z</time>
      </trkpt>
      <trkpt lat="43.83621" lon="1.96235">
        <ele>265.2</ele>
        <time>2020-07-15T13:04:51Z</time>
      </trkpt>
      <trkpt lat="43.83617" lon="1.96237">
        <ele>265.4</ele>
        <time>2020-07-15T13:04:52Z</time>
      </trkpt>
      <trkpt lat="43.83614" lon="1.96238">
        <ele>265.4</ele>
        <time>2020-07-15T13:04:53Z</time>
      </trkpt>
      <trkpt lat="43.8361" lon="1.96239">
        <ele>265.6</ele>
        <time>2020-07-15T13:04:54Z</time>
      </trkpt>
      <trkpt lat="43.83606" lon="1.9624">
        <ele>265.6</ele>
        <time>2020-07-15T13:04:55Z</time>
      </trkpt>
      <trkpt lat="43.83601" lon="1.96241">
        <ele>265.8</ele>
        <time>2020-07-15T13:04:56Z</time>
      </trkpt>
      <trkpt lat="43.83596" lon="1.96242">
        <ele>266</ele>
        <time>2020-07-15T13:04:57Z</time>
      </trkpt>
      <trkpt lat="43.83593" lon="1.96243">
        <ele>266</ele>
        <time>2020-07-15T13:04:58Z</time>
      </trkpt>
      <trkpt lat="43.83588" lon="1.96244">
        <ele>266.2</ele>
        <time>2020-07-15T13:04:59Z</time>
      </trkpt>
      <trkpt lat="43.83584" lon="1.96243">
        <ele>266.4</ele>
        <time>2020-07-15T13:05:00Z</time>
      </trkpt>
      <trkpt lat="43.83581" lon="1.96243">
        <ele>266.6</ele>
        <time>2020-07-15T13:05:01Z</time>
      </trkpt>
      <trkpt lat="43.83576" lon="1.96242">
        <ele>266.8</ele>
        <time>2020-07-15T13:05:02Z</time>
      </trkpt>
      <trkpt lat="43.83572" lon="1.96241">
        <ele>267</ele>
        <time>2020-07-15T13:05:03Z</time>
      </trkpt>
      <trkpt lat="43.83567" lon="1.9624">
        <ele>267.2</ele>
        <time>2020-07-15T13:05:04Z</time>
      </trkpt>
      <trkpt lat="43.83563" lon="1.96239">
        <ele>267.2</ele>
        <time>2020-07-15T13:05:05Z</time>
      </trkpt>
      <trkpt lat="43.83559" lon="1.96237">
        <ele>267.4</ele>
        <time>2020-07-15T13:05:06Z</time>
      </trkpt>
      <trkpt lat="43.83555" lon="1.96235">
        <ele>267.6</ele>
        <time>2020-07-15T13:05:07Z</time>
      </trkpt>
      <trkpt lat="43.83551" lon="1.96233">
        <ele>267.8</ele>
        <time>2020-07-15T13:05:08Z</time>
      </trkpt>
      <trkpt lat="43.83547" lon="1.9623">
        <ele>268</ele>
        <time>2020-07-15T13:05:09Z</time>
      </trkpt>
      <trkpt lat="43.83544" lon="1.96227">
        <ele>268.4</ele>
        <time>2020-07-15T13:05:10Z</time>
      </trkpt>
      <trkpt lat="43.8354" lon="1.96225">
        <ele>268.6</ele>
        <time>2020-07-15T13:05:11Z</time>
      </trkpt>
      <trkpt lat="43.83537" lon="1.96222">
        <ele>269</ele>
        <time>2020-07-15T13:05:12Z</time>
      </trkpt>
      <trkpt lat="43.83533" lon="1.9622">
        <ele>269.2</ele>
        <time>2020-07-15T13:05:13Z</time>
      </trkpt>
      <trkpt lat="43.8353" lon="1.96218">
        <ele>269.4</ele>
        <time>2020-07-15T13:05:14Z</time>
      </trkpt>
      <trkpt lat="43.83526" lon="1.96216">
        <ele>269.6</ele>
        <time>2020-07-15T13:05:15Z</time>
      </trkpt>
      <trkpt lat="43.83522" lon="1.96213">
        <ele>269.8</ele>
        <time>2020-07-15T13:05:16Z</time>
      </trkpt>
      <trkpt lat="43.83518" lon="1.9621">
        <ele>270</ele>
        <time>2020-07-15T13:05:17Z</time>
      </trkpt>
      <trkpt lat="43.83514" lon="1.96207">
        <ele>270.2</ele>
        <time>2020-07-15T13:05:18Z</time>
      </trkpt>
      <trkpt lat="43.8351" lon="1.96204">
        <ele>270.2</ele>
        <time>2020-07-15T13:05:19Z</time>
      </trkpt>
      <trkpt lat="43.83506" lon="1.96201">
        <ele>270.4</ele>
        <time>2020-07-15T13:05:20Z</time>
      </trkpt>
      <trkpt lat="43.83502" lon="1.96197">
        <ele>270.4</ele>
        <time>2020-07-15T13:05:21Z</time>
      </trkpt>
      <trkpt lat="43.83498" lon="1.96193">
        <ele>270.6</ele>
        <time>2020-07-15T13:05:22Z</time>
      </trkpt>
      <trkpt lat="43.83494" lon="1.9619">
        <ele>270.6</ele>
        <time>2020-07-15T13:05:23Z</time>
      </trkpt>
      <trkpt lat="43.8349" lon="1.96186">
        <ele>270.8</ele>
        <time>2020-07-15T13:05:24Z</time>
      </trkpt>
      <trkpt lat="43.83486" lon="1.96183">
        <ele>271</ele>
        <time>2020-07-15T13:05:25Z</time>
      </trkpt>
      <trkpt lat="43.83482" lon="1.96179">
        <ele>271</ele>
        <time>2020-07-15T13:05:26Z</time>
      </trkpt>
      <trkpt lat="43.83478" lon="1.96175">
        <ele>271.2</ele>
        <time>2020-07-15T13:05:27Z</time>
      </trkpt>
      <trkpt lat="43.83474" lon="1.96172">
        <ele>271.4</ele>
        <time>2020-07-15T13:05:28Z</time>
      </trkpt>
      <trkpt lat="43.8347" lon="1.96169">
        <ele>271.4</ele>
        <time>2020-07-15T13:05:29Z</time>
      </trkpt>
      <trkpt lat="43.83466" lon="1.96166">
        <ele>271.6</ele>
        <time>2020-07-15T13:05:30Z</time>
      </trkpt>
      <trkpt lat="43.83461" lon="1.96163">
        <ele>271.8</ele>
        <time>2020-07-15T13:05:31Z</time>
      </trkpt>
      <trkpt lat="43.83457" lon="1.9616">
        <ele>271.8</ele>
        <time>2020-07-15T13:05:32Z</time>
      </trkpt>
      <trkpt lat="43.83453" lon="1.96159">
        <ele>271.8</ele>
        <time>2020-07-15T13:05:33Z</time>
      </trkpt>
      <trkpt lat="43.83447" lon="1.96157">
        <ele>272</ele>
        <time>2020-07-15T13:05:34Z</time>
      </trkpt>
      <trkpt lat="43.83442" lon="1.96156">
        <ele>272</ele>
        <time>2020-07-15T13:05:35Z</time>
      </trkpt>
      <trkpt lat="43.83436" lon="1.96154">
        <ele>272</ele>
        <time>2020-07-15T13:05:36Z</time>
      </trkpt>
      <trkpt lat="43.83431" lon="1.96154">
        <ele>272</ele>
        <time>2020-07-15T13:05:37Z</time>
      </trkpt>
      <trkpt lat="43.83426" lon="1.96154">
        <ele>272</ele>
        <time>2020-07-15T13:05:38Z</time>
      </trkpt>
      <trkpt lat="43.83421" lon="1.96155">
        <ele>271.8</ele>
        <time>2020-07-15T13:05:39Z</time>
      </trkpt>
      <trkpt lat="43.83415" lon="1.96155">
        <ele>271.8</ele>
        <time>2020-07-15T13:05:40Z</time>
      </trkpt>
      <trkpt lat="43.8341" lon="1.96155">
        <ele>271.6</ele>
        <time>2020-07-15T13:05:41Z</time>
      </trkpt>
      <trkpt lat="43.83405" lon="1.96156">
        <ele>271.4</ele>
        <time>2020-07-15T13:05:42Z</time>
      </trkpt>
      <trkpt lat="43.83399" lon="1.96158">
        <ele>271.4</ele>
        <time>2020-07-15T13:05:43Z</time>
      </trkpt>
      <trkpt lat="43.83394" lon="1.9616">
        <ele>271.4</ele>
        <time>2020-07-15T13:05:44Z</time>
      </trkpt>
      <trkpt lat="43.83389" lon="1.96162">
        <ele>271.4</ele>
        <time>2020-07-15T13:05:45Z</time>
      </trkpt>
      <trkpt lat="43.83384" lon="1.96165">
        <ele>271.2</ele>
        <time>2020-07-15T13:05:46Z</time>
      </trkpt>
      <trkpt lat="43.83379" lon="1.96167">
        <ele>271.2</ele>
        <time>2020-07-15T13:05:47Z</time>
      </trkpt>
      <trkpt lat="43.83373" lon="1.96169">
        <ele>271.2</ele>
        <time>2020-07-15T13:05:48Z</time>
      </trkpt>
      <trkpt lat="43.83368" lon="1.96171">
        <ele>271.4</ele>
        <time>2020-07-15T13:05:49Z</time>
      </trkpt>
      <trkpt lat="43.83365" lon="1.96175">
        <ele>271.4</ele>
        <time>2020-07-15T13:05:50Z</time>
      </trkpt>
      <trkpt lat="43.83362" lon="1.9618">
        <ele>271.4</ele>
        <time>2020-07-15T13:05:51Z</time>
      </trkpt>
      <trkpt lat="43.8336" lon="1.96185">
        <ele>271.4</ele>
        <time>2020-07-15T13:05:52Z</time>
      </trkpt>
      <trkpt lat="43.83357" lon="1.96191">
        <ele>271.6</ele>
        <time>2020-07-15T13:05:53Z</time>
      </trkpt>
      <trkpt lat="43.83355" lon="1.96196">
        <ele>271.6</ele>
        <time>2020-07-15T13:05:54Z</time>
      </trkpt>
      <trkpt lat="43.83353" lon="1.96202">
        <ele>271.4</ele>
        <time>2020-07-15T13:05:55Z</time>
      </trkpt>
      <trkpt lat="43.83352" lon="1.96209">
        <ele>271.4</ele>
        <time>2020-07-15T13:05:56Z</time>
      </trkpt>
      <trkpt lat="43.8335" lon="1.96215">
        <ele>271.4</ele>
        <time>2020-07-15T13:05:57Z</time>
      </trkpt>
      <trkpt lat="43.83347" lon="1.96221">
        <ele>271.4</ele>
        <time>2020-07-15T13:05:58Z</time>
      </trkpt>
      <trkpt lat="43.83345" lon="1.96227">
        <ele>271.6</ele>
        <time>2020-07-15T13:05:59Z</time>
      </trkpt>
      <trkpt lat="43.83344" lon="1.96233">
        <ele>271.6</ele>
        <time>2020-07-15T13:06:00Z</time>
      </trkpt>
      <trkpt lat="43.83342" lon="1.96238">
        <ele>271.6</ele>
        <time>2020-07-15T13:06:01Z</time>
      </trkpt>
      <trkpt lat="43.8334" lon="1.96244">
        <ele>271.6</ele>
        <time>2020-07-15T13:06:02Z</time>
      </trkpt>
      <trkpt lat="43.83337" lon="1.96249">
        <ele>271.8</ele>
        <time>2020-07-15T13:06:03Z</time>
      </trkpt>
      <trkpt lat="43.83335" lon="1.96254">
        <ele>272</ele>
        <time>2020-07-15T13:06:04Z</time>
      </trkpt>
      <trkpt lat="43.83333" lon="1.96259">
        <ele>272.2</ele>
        <time>2020-07-15T13:06:05Z</time>
      </trkpt>
      <trkpt lat="43.83331" lon="1.96264">
        <ele>272.4</ele>
        <time>2020-07-15T13:06:06Z</time>
      </trkpt>
      <trkpt lat="43.83328" lon="1.96269">
        <ele>272.4</ele>
        <time>2020-07-15T13:06:07Z</time>
      </trkpt>
      <trkpt lat="43.83324" lon="1.96274">
        <ele>272.6</ele>
        <time>2020-07-15T13:06:08Z</time>
      </trkpt>
      <trkpt lat="43.83321" lon="1.96278">
        <ele>272.6</ele>
        <time>2020-07-15T13:06:09Z</time>
      </trkpt>
      <trkpt lat="43.83316" lon="1.96283">
        <ele>272.4</ele>
        <time>2020-07-15T13:06:10Z</time>
      </trkpt>
      <trkpt lat="43.83312" lon="1.96288">
        <ele>272.4</ele>
        <time>2020-07-15T13:06:11Z</time>
      </trkpt>
      <trkpt lat="43.83308" lon="1.96292">
        <ele>272.4</ele>
        <time>2020-07-15T13:06:12Z</time>
      </trkpt>
      <trkpt lat="43.83305" lon="1.96297">
        <ele>272.4</ele>
        <time>2020-07-15T13:06:13Z</time>
      </trkpt>
      <trkpt lat="43.83302" lon="1.96301">
        <ele>272.2</ele>
        <time>2020-07-15T13:06:14Z</time>
      </trkpt>
      <trkpt lat="43.83299" lon="1.96305">
        <ele>272.2</ele>
        <time>2020-07-15T13:06:15Z</time>
      </trkpt>
      <trkpt lat="43.83295" lon="1.96309">
        <ele>272.2</ele>
        <time>2020-07-15T13:06:16Z</time>
      </trkpt>
      <trkpt lat="43.83292" lon="1.96312">
        <ele>272</ele>
        <time>2020-07-15T13:06:17Z</time>
      </trkpt>
      <trkpt lat="43.83289" lon="1.96316">
        <ele>271.8</ele>
        <time>2020-07-15T13:06:18Z</time>
      </trkpt>
      <trkpt lat="43.83286" lon="1.96321">
        <ele>271.6</ele>
        <time>2020-07-15T13:06:19Z</time>
      </trkpt>
      <trkpt lat="43.83281" lon="1.96327">
        <ele>271.4</ele>
        <time>2020-07-15T13:06:20Z</time>
      </trkpt>
      <trkpt lat="43.83278" lon="1.96333">
        <ele>271.2</ele>
        <time>2020-07-15T13:06:21Z</time>
      </trkpt>
      <trkpt lat="43.83274" lon="1.9634">
        <ele>271</ele>
        <time>2020-07-15T13:06:22Z</time>
      </trkpt>
      <trkpt lat="43.8327" lon="1.96346">
        <ele>271</ele>
        <time>2020-07-15T13:06:23Z</time>
      </trkpt>
      <trkpt lat="43.83266" lon="1.96352">
        <ele>270.8</ele>
        <time>2020-07-15T13:06:24Z</time>
      </trkpt>
      <trkpt lat="43.83262" lon="1.96357">
        <ele>270.8</ele>
        <time>2020-07-15T13:06:25Z</time>
      </trkpt>
      <trkpt lat="43.83258" lon="1.96362">
        <ele>270.6</ele>
        <time>2020-07-15T13:06:26Z</time>
      </trkpt>
      <trkpt lat="43.83254" lon="1.96368">
        <ele>270.6</ele>
        <time>2020-07-15T13:06:27Z</time>
      </trkpt>
      <trkpt lat="43.8325" lon="1.96374">
        <ele>270.6</ele>
        <time>2020-07-15T13:06:28Z</time>
      </trkpt>
      <trkpt lat="43.83246" lon="1.96378">
        <ele>270.6</ele>
        <time>2020-07-15T13:06:29Z</time>
      </trkpt>
      <trkpt lat="43.83242" lon="1.96383">
        <ele>270.8</ele>
        <time>2020-07-15T13:06:30Z</time>
      </trkpt>
      <trkpt lat="43.83238" lon="1.96387">
        <ele>270.8</ele>
        <time>2020-07-15T13:06:31Z</time>
      </trkpt>
      <trkpt lat="43.83234" lon="1.96392">
        <ele>270.8</ele>
        <time>2020-07-15T13:06:32Z</time>
      </trkpt>
      <trkpt lat="43.8323" lon="1.96397">
        <ele>271</ele>
        <time>2020-07-15T13:06:33Z</time>
      </trkpt>
      <trkpt lat="43.83226" lon="1.96401">
        <ele>271.2</ele>
        <time>2020-07-15T13:06:34Z</time>
      </trkpt>
      <trkpt lat="43.83223" lon="1.96406">
        <ele>271.2</ele>
        <time>2020-07-15T13:06:35Z</time>
      </trkpt>
      <trkpt lat="43.83221" lon="1.96411">
        <ele>271.4</ele>
        <time>2020-07-15T13:06:36Z</time>
      </trkpt>
      <trkpt lat="43.83219" lon="1.96416">
        <ele>271.6</ele>
        <time>2020-07-15T13:06:37Z</time>
      </trkpt>
      <trkpt lat="43.83216" lon="1.96422">
        <ele>271.8</ele>
        <time>2020-07-15T13:06:38Z</time>
      </trkpt>
      <trkpt lat="43.83213" lon="1.96427">
        <ele>272</ele>
        <time>2020-07-15T13:06:39Z</time>
      </trkpt>
      <trkpt lat="43.8321" lon="1.96433">
        <ele>272.2</ele>
        <time>2020-07-15T13:06:40Z</time>
      </trkpt>
      <trkpt lat="43.83206" lon="1.96439">
        <ele>272.4</ele>
        <time>2020-07-15T13:06:41Z</time>
      </trkpt>
      <trkpt lat="43.83203" lon="1.96444">
        <ele>272.6</ele>
        <time>2020-07-15T13:06:42Z</time>
      </trkpt>
      <trkpt lat="43.832" lon="1.96448">
        <ele>272.8</ele>
        <time>2020-07-15T13:06:43Z</time>
      </trkpt>
      <trkpt lat="43.83197" lon="1.96452">
        <ele>273</ele>
        <time>2020-07-15T13:06:44Z</time>
      </trkpt>
      <trkpt lat="43.83194" lon="1.96456">
        <ele>273.2</ele>
        <time>2020-07-15T13:06:45Z</time>
      </trkpt>
      <trkpt lat="43.83192" lon="1.9646">
        <ele>273.4</ele>
        <time>2020-07-15T13:06:46Z</time>
      </trkpt>
      <trkpt lat="43.83189" lon="1.96464">
        <ele>273.6</ele>
        <time>2020-07-15T13:06:47Z</time>
      </trkpt>
      <trkpt lat="43.83187" lon="1.96468">
        <ele>274</ele>
        <time>2020-07-15T13:06:48Z</time>
      </trkpt>
      <trkpt lat="43.83186" lon="1.96472">
        <ele>274.2</ele>
        <time>2020-07-15T13:06:49Z</time>
      </trkpt>
      <trkpt lat="43.83184" lon="1.96475">
        <ele>274.6</ele>
        <time>2020-07-15T13:06:50Z</time>
      </trkpt>
      <trkpt lat="43.83182" lon="1.96478">
        <ele>274.8</ele>
        <time>2020-07-15T13:06:51Z</time>
      </trkpt>
      <trkpt lat="43.83181" lon="1.96482">
        <ele>275.2</ele>
        <time>2020-07-15T13:06:52Z</time>
      </trkpt>
      <trkpt lat="43.8318" lon="1.96486">
        <ele>275.4</ele>
        <time>2020-07-15T13:06:53Z</time>
      </trkpt>
      <trkpt lat="43.83178" lon="1.9649">
        <ele>275.8</ele>
        <time>2020-07-15T13:06:54Z</time>
      </trkpt>
      <trkpt lat="43.83175" lon="1.96494">
        <ele>276</ele>
        <time>2020-07-15T13:06:55Z</time>
      </trkpt>
      <trkpt lat="43.83173" lon="1.96498">
        <ele>276.4</ele>
        <time>2020-07-15T13:06:56Z</time>
      </trkpt>
      <trkpt lat="43.83171" lon="1.96501">
        <ele>276.8</ele>
        <time>2020-07-15T13:06:57Z</time>
      </trkpt>
      <trkpt lat="43.83169" lon="1.96505">
        <ele>277</ele>
        <time>2020-07-15T13:06:58Z</time>
      </trkpt>
      <trkpt lat="43.83168" lon="1.96509">
        <ele>277.4</ele>
        <time>2020-07-15T13:06:59Z</time>
      </trkpt>
      <trkpt lat="43.83167" lon="1.96513">
        <ele>277.8</ele>
        <time>2020-07-15T13:07:00Z</time>
      </trkpt>
      <trkpt lat="43.83167" lon="1.96517">
        <ele>278.2</ele>
        <time>2020-07-15T13:07:01Z</time>
      </trkpt>
      <trkpt lat="43.83166" lon="1.96521">
        <ele>278.6</ele>
        <time>2020-07-15T13:07:02Z</time>
      </trkpt>
      <trkpt lat="43.83165" lon="1.96524">
        <ele>279</ele>
        <time>2020-07-15T13:07:03Z</time>
      </trkpt>
      <trkpt lat="43.83164" lon="1.96528">
        <ele>279.4</ele>
        <time>2020-07-15T13:07:04Z</time>
      </trkpt>
      <trkpt lat="43.83163" lon="1.96532">
        <ele>279.6</ele>
        <time>2020-07-15T13:07:05Z</time>
      </trkpt>
      <trkpt lat="43.83162" lon="1.96535">
        <ele>280</ele>
        <time>2020-07-15T13:07:06Z</time>
      </trkpt>
      <trkpt lat="43.83124" lon="1.96577">
        <ele>280.2</ele>
        <time>2020-07-15T13:07:45Z</time>
      </trkpt>
      <trkpt lat="43.83123" lon="1.9658">
        <ele>280.2</ele>
        <time>2020-07-15T13:07:46Z</time>
      </trkpt>
      <trkpt lat="43.8312" lon="1.96585">
        <ele>280</ele>
        <time>2020-07-15T13:07:47Z</time>
      </trkpt>
      <trkpt lat="43.83117" lon="1.96591">
        <ele>279.8</ele>
        <time>2020-07-15T13:07:48Z</time>
      </trkpt>
      <trkpt lat="43.83113" lon="1.96596">
        <ele>279.6</ele>
        <time>2020-07-15T13:07:49Z</time>
      </trkpt>
      <trkpt lat="43.8311" lon="1.96601">
        <ele>279.4</ele>
        <time>2020-07-15T13:07:50Z</time>
      </trkpt>
      <trkpt lat="43.83106" lon="1.96606">
        <ele>279.2</ele>
        <time>2020-07-15T13:07:51Z</time>
      </trkpt>
      <trkpt lat="43.83101" lon="1.96611">
        <ele>279.2</ele>
        <time>2020-07-15T13:07:52Z</time>
      </trkpt>
      <trkpt lat="43.83097" lon="1.96616">
        <ele>279.2</ele>
        <time>2020-07-15T13:07:53Z</time>
      </trkpt>
      <trkpt lat="43.83094" lon="1.96621">
        <ele>279</ele>
        <time>2020-07-15T13:07:54Z</time>
      </trkpt>
      <trkpt lat="43.83091" lon="1.96624">
        <ele>279</ele>
        <time>2020-07-15T13:07:55Z</time>
      </trkpt>
      <trkpt lat="43.8309" lon="1.96627">
        <ele>279</ele>
        <time>2020-07-15T13:07:56Z</time>
      </trkpt>
      <trkpt lat="43.83088" lon="1.9663">
        <ele>279</ele>
        <time>2020-07-15T13:07:57Z</time>
      </trkpt>
      <trkpt lat="43.83087" lon="1.96634">
        <ele>279.2</ele>
        <time>2020-07-15T13:07:58Z</time>
      </trkpt>
      <trkpt lat="43.83086" lon="1.96639">
        <ele>279.2</ele>
        <time>2020-07-15T13:07:59Z</time>
      </trkpt>
      <trkpt lat="43.83085" lon="1.96644">
        <ele>279.2</ele>
        <time>2020-07-15T13:08:00Z</time>
      </trkpt>
      <trkpt lat="43.83083" lon="1.96649">
        <ele>279.4</ele>
        <time>2020-07-15T13:08:01Z</time>
      </trkpt>
      <trkpt lat="43.83081" lon="1.96654">
        <ele>279.4</ele>
        <time>2020-07-15T13:08:02Z</time>
      </trkpt>
      <trkpt lat="43.83079" lon="1.96659">
        <ele>279.6</ele>
        <time>2020-07-15T13:08:03Z</time>
      </trkpt>
      <trkpt lat="43.83078" lon="1.96664">
        <ele>279.8</ele>
        <time>2020-07-15T13:08:04Z</time>
      </trkpt>
      <trkpt lat="43.83076" lon="1.96669">
        <ele>280</ele>
        <time>2020-07-15T13:08:05Z</time>
      </trkpt>
      <trkpt lat="43.83075" lon="1.96673">
        <ele>280</ele>
        <time>2020-07-15T13:08:06Z</time>
      </trkpt>
      <trkpt lat="43.83074" lon="1.96678">
        <ele>280.2</ele>
        <time>2020-07-15T13:08:07Z</time>
      </trkpt>
      <trkpt lat="43.83072" lon="1.96684">
        <ele>280.2</ele>
        <time>2020-07-15T13:08:08Z</time>
      </trkpt>
      <trkpt lat="43.8307" lon="1.96688">
        <ele>280.2</ele>
        <time>2020-07-15T13:08:09Z</time>
      </trkpt>
      <trkpt lat="43.83067" lon="1.96691">
        <ele>280.2</ele>
        <time>2020-07-15T13:08:10Z</time>
      </trkpt>
      <trkpt lat="43.83064" lon="1.96692">
        <ele>280.4</ele>
        <time>2020-07-15T13:08:11Z</time>
      </trkpt>
      <trkpt lat="43.83061" lon="1.96692">
        <ele>280.6</ele>
        <time>2020-07-15T13:08:12Z</time>
      </trkpt>
      <trkpt lat="43.83058" lon="1.96691">
        <ele>281</ele>
        <time>2020-07-15T13:08:13Z</time>
      </trkpt>
      <trkpt lat="43.83055" lon="1.96691">
        <ele>281.2</ele>
        <time>2020-07-15T13:08:14Z</time>
      </trkpt>
      <trkpt lat="43.83052" lon="1.9669">
        <ele>281.6</ele>
        <time>2020-07-15T13:08:15Z</time>
      </trkpt>
      <trkpt lat="43.83049" lon="1.96688">
        <ele>281.8</ele>
        <time>2020-07-15T13:08:16Z</time>
      </trkpt>
      <trkpt lat="43.83045" lon="1.96687">
        <ele>282.2</ele>
        <time>2020-07-15T13:08:17Z</time>
      </trkpt>
      <trkpt lat="43.83042" lon="1.96686">
        <ele>282.4</ele>
        <time>2020-07-15T13:08:18Z</time>
      </trkpt>
      <trkpt lat="43.83038" lon="1.96685">
        <ele>282.8</ele>
        <time>2020-07-15T13:08:19Z</time>
      </trkpt>
      <trkpt lat="43.83035" lon="1.96684">
        <ele>283</ele>
        <time>2020-07-15T13:08:20Z</time>
      </trkpt>
      <trkpt lat="43.83032" lon="1.96682">
        <ele>283.2</ele>
        <time>2020-07-15T13:08:21Z</time>
      </trkpt>
      <trkpt lat="43.83028" lon="1.96681">
        <ele>283.6</ele>
        <time>2020-07-15T13:08:22Z</time>
      </trkpt>
      <trkpt lat="43.83025" lon="1.9668">
        <ele>284</ele>
        <time>2020-07-15T13:08:23Z</time>
      </trkpt>
      <trkpt lat="43.83023" lon="1.96679">
        <ele>284.2</ele>
        <time>2020-07-15T13:08:24Z</time>
      </trkpt>
      <trkpt lat="43.8302" lon="1.96677">
        <ele>284.6</ele>
        <time>2020-07-15T13:08:25Z</time>
      </trkpt>
      <trkpt lat="43.83017" lon="1.96677">
        <ele>285</ele>
        <time>2020-07-15T13:08:26Z</time>
      </trkpt>
      <trkpt lat="43.83014" lon="1.96676">
        <ele>285.6</ele>
        <time>2020-07-15T13:08:27Z</time>
      </trkpt>
      <trkpt lat="43.83012" lon="1.96674">
        <ele>286</ele>
        <time>2020-07-15T13:08:28Z</time>
      </trkpt>
      <trkpt lat="43.83009" lon="1.96673">
        <ele>286.4</ele>
        <time>2020-07-15T13:08:29Z</time>
      </trkpt>
      <trkpt lat="43.83006" lon="1.96672">
        <ele>286.8</ele>
        <time>2020-07-15T13:08:30Z</time>
      </trkpt>
      <trkpt lat="43.83003" lon="1.9667">
        <ele>287</ele>
        <time>2020-07-15T13:08:31Z</time>
      </trkpt>
      <trkpt lat="43.83001" lon="1.96669">
        <ele>287.6</ele>
        <time>2020-07-15T13:08:32Z</time>
      </trkpt>
      <trkpt lat="43.82998" lon="1.96667">
        <ele>287.8</ele>
        <time>2020-07-15T13:08:33Z</time>
      </trkpt>
      <trkpt lat="43.82995" lon="1.96666">
        <ele>288.2</ele>
        <time>2020-07-15T13:08:34Z</time>
      </trkpt>
      <trkpt lat="43.82993" lon="1.96664">
        <ele>288.6</ele>
        <time>2020-07-15T13:08:35Z</time>
      </trkpt>
      <trkpt lat="43.8299" lon="1.96662">
        <ele>289</ele>
        <time>2020-07-15T13:08:36Z</time>
      </trkpt>
      <trkpt lat="43.82988" lon="1.9666">
        <ele>289.4</ele>
        <time>2020-07-15T13:08:37Z</time>
      </trkpt>
      <trkpt lat="43.82986" lon="1.96658">
        <ele>289.6</ele>
        <time>2020-07-15T13:08:38Z</time>
      </trkpt>
      <trkpt lat="43.82984" lon="1.96655">
        <ele>290</ele>
        <time>2020-07-15T13:08:39Z</time>
      </trkpt>
      <trkpt lat="43.82982" lon="1.96653">
        <ele>290.4</ele>
        <time>2020-07-15T13:08:40Z</time>
      </trkpt>
      <trkpt lat="43.8298" lon="1.96651">
        <ele>290.6</ele>
        <time>2020-07-15T13:08:41Z</time>
      </trkpt>
      <trkpt lat="43.82978" lon="1.96648">
        <ele>290.8</ele>
        <time>2020-07-15T13:08:42Z</time>
      </trkpt>
      <trkpt lat="43.82976" lon="1.96646">
        <ele>291.2</ele>
        <time>2020-07-15T13:08:43Z</time>
      </trkpt>
      <trkpt lat="43.82974" lon="1.96643">
        <ele>291.4</ele>
        <time>2020-07-15T13:08:44Z</time>
      </trkpt>
      <trkpt lat="43.82972" lon="1.9664">
        <ele>291.8</ele>
        <time>2020-07-15T13:08:45Z</time>
      </trkpt>
      <trkpt lat="43.8297" lon="1.96637">
        <ele>292</ele>
        <time>2020-07-15T13:08:46Z</time>
      </trkpt>
      <trkpt lat="43.82968" lon="1.96634">
        <ele>292.2</ele>
        <time>2020-07-15T13:08:47Z</time>
      </trkpt>
      <trkpt lat="43.82966" lon="1.96631">
        <ele>292.6</ele>
        <time>2020-07-15T13:08:48Z</time>
      </trkpt>
      <trkpt lat="43.82964" lon="1.96628">
        <ele>293</ele>
        <time>2020-07-15T13:08:49Z</time>
      </trkpt>
      <trkpt lat="43.82962" lon="1.96625">
        <ele>293.4</ele>
        <time>2020-07-15T13:08:50Z</time>
      </trkpt>
      <trkpt lat="43.82961" lon="1.96622">
        <ele>293.8</ele>
        <time>2020-07-15T13:08:51Z</time>
      </trkpt>
      <trkpt lat="43.82959" lon="1.96619">
        <ele>294</ele>
        <time>2020-07-15T13:08:52Z</time>
      </trkpt>
      <trkpt lat="43.82956" lon="1.96616">
        <ele>294.4</ele>
        <time>2020-07-15T13:08:53Z</time>
      </trkpt>
      <trkpt lat="43.82954" lon="1.96613">
        <ele>294.6</ele>
        <time>2020-07-15T13:08:54Z</time>
      </trkpt>
      <trkpt lat="43.82952" lon="1.96611">
        <ele>295</ele>
        <time>2020-07-15T13:08:55Z</time>
      </trkpt>
      <trkpt lat="43.8295" lon="1.96608">
        <ele>295.4</ele>
        <time>2020-07-15T13:08:56Z</time>
      </trkpt>
      <trkpt lat="43.82948" lon="1.96606">
        <ele>295.6</ele>
        <time>2020-07-15T13:08:57Z</time>
      </trkpt>
      <trkpt lat="43.82945" lon="1.96603">
        <ele>295.8</ele>
        <time>2020-07-15T13:08:58Z</time>
      </trkpt>
      <trkpt lat="43.82943" lon="1.96601">
        <ele>296</ele>
        <time>2020-07-15T13:08:59Z</time>
      </trkpt>
      <trkpt lat="43.8294" lon="1.96598">
        <ele>296.2</ele>
        <time>2020-07-15T13:09:00Z</time>
      </trkpt>
      <trkpt lat="43.82937" lon="1.96595">
        <ele>296.2</ele>
        <time>2020-07-15T13:09:01Z</time>
      </trkpt>
      <trkpt lat="43.82934" lon="1.96592">
        <ele>296.6</ele>
        <time>2020-07-15T13:09:02Z</time>
      </trkpt>
      <trkpt lat="43.8293" lon="1.9659">
        <ele>296.8</ele>
        <time>2020-07-15T13:09:03Z</time>
      </trkpt>
      <trkpt lat="43.82927" lon="1.96587">
        <ele>297.2</ele>
        <time>2020-07-15T13:09:04Z</time>
      </trkpt>
      <trkpt lat="43.82925" lon="1.96585">
        <ele>297.4</ele>
        <time>2020-07-15T13:09:05Z</time>
      </trkpt>
      <trkpt lat="43.82921" lon="1.96582">
        <ele>297.8</ele>
        <time>2020-07-15T13:09:06Z</time>
      </trkpt>
      <trkpt lat="43.82918" lon="1.9658">
        <ele>298</ele>
        <time>2020-07-15T13:09:07Z</time>
      </trkpt>
      <trkpt lat="43.82915" lon="1.96578">
        <ele>298.4</ele>
        <time>2020-07-15T13:09:08Z</time>
      </trkpt>
      <trkpt lat="43.82911" lon="1.96577">
        <ele>298.6</ele>
        <time>2020-07-15T13:09:09Z</time>
      </trkpt>
      <trkpt lat="43.82908" lon="1.96575">
        <ele>299</ele>
        <time>2020-07-15T13:09:10Z</time>
      </trkpt>
      <trkpt lat="43.82904" lon="1.96574">
        <ele>299.2</ele>
        <time>2020-07-15T13:09:11Z</time>
      </trkpt>
      <trkpt lat="43.82901" lon="1.96572">
        <ele>299.4</ele>
        <time>2020-07-15T13:09:12Z</time>
      </trkpt>
      <trkpt lat="43.82897" lon="1.96571">
        <ele>299.6</ele>
        <time>2020-07-15T13:09:13Z</time>
      </trkpt>
      <trkpt lat="43.82893" lon="1.9657">
        <ele>299.8</ele>
        <time>2020-07-15T13:09:14Z</time>
      </trkpt>
      <trkpt lat="43.8289" lon="1.96568">
        <ele>300</ele>
        <time>2020-07-15T13:09:15Z</time>
      </trkpt>
      <trkpt lat="43.82887" lon="1.96567">
        <ele>300.2</ele>
        <time>2020-07-15T13:09:16Z</time>
      </trkpt>
      <trkpt lat="43.82884" lon="1.96566">
        <ele>300.6</ele>
        <time>2020-07-15T13:09:17Z</time>
      </trkpt>
      <trkpt lat="43.82881" lon="1.96565">
        <ele>300.8</ele>
        <time>2020-07-15T13:09:18Z</time>
      </trkpt>
      <trkpt lat="43.82878" lon="1.96564">
        <ele>301</ele>
        <time>2020-07-15T13:09:19Z</time>
      </trkpt>
      <trkpt lat="43.82876" lon="1.96564">
        <ele>301.2</ele>
        <time>2020-07-15T13:09:20Z</time>
      </trkpt>
      <trkpt lat="43.82874" lon="1.96564">
        <ele>301.4</ele>
        <time>2020-07-15T13:09:21Z</time>
      </trkpt>
      <trkpt lat="43.82871" lon="1.96564">
        <ele>301.4</ele>
        <time>2020-07-15T13:09:22Z</time>
      </trkpt>
      <trkpt lat="43.82869" lon="1.96564">
        <ele>301.6</ele>
        <time>2020-07-15T13:09:23Z</time>
      </trkpt>
      <trkpt lat="43.82866" lon="1.96563">
        <ele>301.6</ele>
        <time>2020-07-15T13:09:24Z</time>
      </trkpt>
      <trkpt lat="43.82863" lon="1.96563">
        <ele>301.6</ele>
        <time>2020-07-15T13:09:25Z</time>
      </trkpt>
      <trkpt lat="43.82859" lon="1.96562">
        <ele>301.8</ele>
        <time>2020-07-15T13:09:26Z</time>
      </trkpt>
      <trkpt lat="43.82856" lon="1.96562">
        <ele>301.8</ele>
        <time>2020-07-15T13:09:27Z</time>
      </trkpt>
      <trkpt lat="43.82852" lon="1.96562">
        <ele>301.8</ele>
        <time>2020-07-15T13:09:28Z</time>
      </trkpt>
      <trkpt lat="43.82848" lon="1.96561">
        <ele>301.8</ele>
        <time>2020-07-15T13:09:29Z</time>
      </trkpt>
      <trkpt lat="43.82845" lon="1.96561">
        <ele>302</ele>
        <time>2020-07-15T13:09:30Z</time>
      </trkpt>
      <trkpt lat="43.82842" lon="1.96561">
        <ele>302</ele>
        <time>2020-07-15T13:09:31Z</time>
      </trkpt>
      <trkpt lat="43.82838" lon="1.96561">
        <ele>302.2</ele>
        <time>2020-07-15T13:09:32Z</time>
      </trkpt>
      <trkpt lat="43.82836" lon="1.96561">
        <ele>302.4</ele>
        <time>2020-07-15T13:09:33Z</time>
      </trkpt>
      <trkpt lat="43.82833" lon="1.96561">
        <ele>302.6</ele>
        <time>2020-07-15T13:09:34Z</time>
      </trkpt>
      <trkpt lat="43.8283" lon="1.96561">
        <ele>302.8</ele>
        <time>2020-07-15T13:09:35Z</time>
      </trkpt>
      <trkpt lat="43.82827" lon="1.9656">
        <ele>303</ele>
        <time>2020-07-15T13:09:36Z</time>
      </trkpt>
      <trkpt lat="43.82824" lon="1.96559">
        <ele>303.2</ele>
        <time>2020-07-15T13:09:37Z</time>
      </trkpt>
      <trkpt lat="43.8282" lon="1.96558">
        <ele>303.4</ele>
        <time>2020-07-15T13:09:38Z</time>
      </trkpt>
      <trkpt lat="43.82817" lon="1.96558">
        <ele>303.6</ele>
        <time>2020-07-15T13:09:39Z</time>
      </trkpt>
      <trkpt lat="43.82814" lon="1.96557">
        <ele>303.8</ele>
        <time>2020-07-15T13:09:40Z</time>
      </trkpt>
      <trkpt lat="43.82811" lon="1.96557">
        <ele>304</ele>
        <time>2020-07-15T13:09:41Z</time>
      </trkpt>
      <trkpt lat="43.82808" lon="1.96556">
        <ele>304.2</ele>
        <time>2020-07-15T13:09:42Z</time>
      </trkpt>
      <trkpt lat="43.82805" lon="1.96555">
        <ele>304.6</ele>
        <time>2020-07-15T13:09:43Z</time>
      </trkpt>
      <trkpt lat="43.82802" lon="1.96554">
        <ele>304.8</ele>
        <time>2020-07-15T13:09:44Z</time>
      </trkpt>
      <trkpt lat="43.82798" lon="1.96552">
        <ele>305</ele>
        <time>2020-07-15T13:09:45Z</time>
      </trkpt>
      <trkpt lat="43.82796" lon="1.9655">
        <ele>305</ele>
        <time>2020-07-15T13:09:46Z</time>
      </trkpt>
      <trkpt lat="43.82793" lon="1.96549">
        <ele>305.4</ele>
        <time>2020-07-15T13:09:47Z</time>
      </trkpt>
      <trkpt lat="43.8279" lon="1.96546">
        <ele>305.4</ele>
        <time>2020-07-15T13:09:48Z</time>
      </trkpt>
      <trkpt lat="43.82787" lon="1.96544">
        <ele>305.6</ele>
        <time>2020-07-15T13:09:49Z</time>
      </trkpt>
      <trkpt lat="43.82784" lon="1.96543">
        <ele>305.6</ele>
        <time>2020-07-15T13:09:50Z</time>
      </trkpt>
      <trkpt lat="43.82781" lon="1.96541">
        <ele>305.8</ele>
        <time>2020-07-15T13:09:51Z</time>
      </trkpt>
      <trkpt lat="43.82778" lon="1.96541">
        <ele>305.8</ele>
        <time>2020-07-15T13:09:52Z</time>
      </trkpt>
      <trkpt lat="43.82775" lon="1.9654">
        <ele>306</ele>
        <time>2020-07-15T13:09:53Z</time>
      </trkpt>
      <trkpt lat="43.82772" lon="1.9654">
        <ele>306.2</ele>
        <time>2020-07-15T13:09:54Z</time>
      </trkpt>
      <trkpt lat="43.82768" lon="1.96539">
        <ele>306.4</ele>
        <time>2020-07-15T13:09:55Z</time>
      </trkpt>
      <trkpt lat="43.82765" lon="1.96539">
        <ele>306.6</ele>
        <time>2020-07-15T13:09:56Z</time>
      </trkpt>
      <trkpt lat="43.82761" lon="1.96538">
        <ele>306.8</ele>
        <time>2020-07-15T13:09:57Z</time>
      </trkpt>
      <trkpt lat="43.82758" lon="1.96537">
        <ele>307</ele>
        <time>2020-07-15T13:09:58Z</time>
      </trkpt>
      <trkpt lat="43.82756" lon="1.96537">
        <ele>307.2</ele>
        <time>2020-07-15T13:09:59Z</time>
      </trkpt>
      <trkpt lat="43.82753" lon="1.96536">
        <ele>307.2</ele>
        <time>2020-07-15T13:10:00Z</time>
      </trkpt>
      <trkpt lat="43.8275" lon="1.96535">
        <ele>307.4</ele>
        <time>2020-07-15T13:10:01Z</time>
      </trkpt>
      <trkpt lat="43.82746" lon="1.96534">
        <ele>307.6</ele>
        <time>2020-07-15T13:10:02Z</time>
      </trkpt>
      <trkpt lat="43.82743" lon="1.96532">
        <ele>307.8</ele>
        <time>2020-07-15T13:10:03Z</time>
      </trkpt>
      <trkpt lat="43.82737" lon="1.96534">
        <ele>309.6</ele>
        <time>2020-07-15T13:10:30Z</time>
      </trkpt>
      <trkpt lat="43.82738" lon="1.96537">
        <ele>309.6</ele>
        <time>2020-07-15T13:10:31Z</time>
      </trkpt>
      <trkpt lat="43.82738" lon="1.9654">
        <ele>309.8</ele>
        <time>2020-07-15T13:10:32Z</time>
      </trkpt>
      <trkpt lat="43.82739" lon="1.96544">
        <ele>310</ele>
        <time>2020-07-15T13:10:33Z</time>
      </trkpt>
      <trkpt lat="43.8274" lon="1.96548">
        <ele>310.2</ele>
        <time>2020-07-15T13:10:34Z</time>
      </trkpt>
      <trkpt lat="43.82742" lon="1.96553">
        <ele>310.4</ele>
        <time>2020-07-15T13:10:35Z</time>
      </trkpt>
      <trkpt lat="43.82743" lon="1.96557">
        <ele>310.8</ele>
        <time>2020-07-15T13:10:36Z</time>
      </trkpt>
      <trkpt lat="43.82745" lon="1.96561">
        <ele>311</ele>
        <time>2020-07-15T13:10:37Z</time>
      </trkpt>
      <trkpt lat="43.82748" lon="1.96563">
        <ele>311.2</ele>
        <time>2020-07-15T13:10:38Z</time>
      </trkpt>
      <trkpt lat="43.8275" lon="1.96566">
        <ele>311.6</ele>
        <time>2020-07-15T13:10:39Z</time>
      </trkpt>
      <trkpt lat="43.82752" lon="1.96568">
        <ele>312</ele>
        <time>2020-07-15T13:10:40Z</time>
      </trkpt>
      <trkpt lat="43.82753" lon="1.96571">
        <ele>312.2</ele>
        <time>2020-07-15T13:10:41Z</time>
      </trkpt>
      <trkpt lat="43.82756" lon="1.96574">
        <ele>312.6</ele>
        <time>2020-07-15T13:10:42Z</time>
      </trkpt>
      <trkpt lat="43.82758" lon="1.96576">
        <ele>313</ele>
        <time>2020-07-15T13:10:43Z</time>
      </trkpt>
      <trkpt lat="43.8276" lon="1.96578">
        <ele>313.2</ele>
        <time>2020-07-15T13:10:44Z</time>
      </trkpt>
      <trkpt lat="43.82763" lon="1.96581">
        <ele>313.6</ele>
        <time>2020-07-15T13:10:45Z</time>
      </trkpt>
      <trkpt lat="43.82766" lon="1.96584">
        <ele>313.8</ele>
        <time>2020-07-15T13:10:46Z</time>
      </trkpt>
      <trkpt lat="43.82769" lon="1.96587">
        <ele>314</ele>
        <time>2020-07-15T13:10:47Z</time>
      </trkpt>
      <trkpt lat="43.82771" lon="1.9659">
        <ele>314.2</ele>
        <time>2020-07-15T13:10:48Z</time>
      </trkpt>
      <trkpt lat="43.82773" lon="1.96593">
        <ele>314.4</ele>
        <time>2020-07-15T13:10:49Z</time>
      </trkpt>
      <trkpt lat="43.82776" lon="1.96597">
        <ele>314.4</ele>
        <time>2020-07-15T13:10:50Z</time>
      </trkpt>
      <trkpt lat="43.82778" lon="1.966">
        <ele>314.6</ele>
        <time>2020-07-15T13:10:51Z</time>
      </trkpt>
      <trkpt lat="43.8278" lon="1.96604">
        <ele>314.8</ele>
        <time>2020-07-15T13:10:52Z</time>
      </trkpt>
      <trkpt lat="43.82782" lon="1.96608">
        <ele>315</ele>
        <time>2020-07-15T13:10:53Z</time>
      </trkpt>
      <trkpt lat="43.82784" lon="1.96612">
        <ele>315.2</ele>
        <time>2020-07-15T13:10:54Z</time>
      </trkpt>
      <trkpt lat="43.82786" lon="1.96616">
        <ele>315.4</ele>
        <time>2020-07-15T13:10:55Z</time>
      </trkpt>
      <trkpt lat="43.82788" lon="1.9662">
        <ele>315.8</ele>
        <time>2020-07-15T13:10:56Z</time>
      </trkpt>
      <trkpt lat="43.8279" lon="1.96624">
        <ele>315.8</ele>
        <time>2020-07-15T13:10:57Z</time>
      </trkpt>
      <trkpt lat="43.82793" lon="1.96628">
        <ele>316</ele>
        <time>2020-07-15T13:10:58Z</time>
      </trkpt>
      <trkpt lat="43.82795" lon="1.96632">
        <ele>316.2</ele>
        <time>2020-07-15T13:10:59Z</time>
      </trkpt>
      <trkpt lat="43.82797" lon="1.96635">
        <ele>316.4</ele>
        <time>2020-07-15T13:11:00Z</time>
      </trkpt>
      <trkpt lat="43.82799" lon="1.96639">
        <ele>316.6</ele>
        <time>2020-07-15T13:11:01Z</time>
      </trkpt>
      <trkpt lat="43.82801" lon="1.96642">
        <ele>317</ele>
        <time>2020-07-15T13:11:02Z</time>
      </trkpt>
      <trkpt lat="43.82803" lon="1.96646">
        <ele>317.2</ele>
        <time>2020-07-15T13:11:03Z</time>
      </trkpt>
      <trkpt lat="43.82804" lon="1.9665">
        <ele>317.4</ele>
        <time>2020-07-15T13:11:04Z</time>
      </trkpt>
      <trkpt lat="43.82806" lon="1.96654">
        <ele>317.8</ele>
        <time>2020-07-15T13:11:05Z</time>
      </trkpt>
      <trkpt lat="43.82807" lon="1.96658">
        <ele>318</ele>
        <time>2020-07-15T13:11:06Z</time>
      </trkpt>
      <trkpt lat="43.82808" lon="1.96662">
        <ele>318.4</ele>
        <time>2020-07-15T13:11:07Z</time>
      </trkpt>
      <trkpt lat="43.82809" lon="1.96667">
        <ele>318.8</ele>
        <time>2020-07-15T13:11:08Z</time>
      </trkpt>
      <trkpt lat="43.8281" lon="1.9667">
        <ele>319</ele>
        <time>2020-07-15T13:11:09Z</time>
      </trkpt>
      <trkpt lat="43.82811" lon="1.96675">
        <ele>319.4</ele>
        <time>2020-07-15T13:11:10Z</time>
      </trkpt>
      <trkpt lat="43.82812" lon="1.96678">
        <ele>319.6</ele>
        <time>2020-07-15T13:11:11Z</time>
      </trkpt>
      <trkpt lat="43.82812" lon="1.96683">
        <ele>319.8</ele>
        <time>2020-07-15T13:11:12Z</time>
      </trkpt>
      <trkpt lat="43.82813" lon="1.96688">
        <ele>320</ele>
        <time>2020-07-15T13:11:13Z</time>
      </trkpt>
      <trkpt lat="43.82814" lon="1.96693">
        <ele>320</ele>
        <time>2020-07-15T13:11:14Z</time>
      </trkpt>
      <trkpt lat="43.82815" lon="1.96698">
        <ele>320</ele>
        <time>2020-07-15T13:11:15Z</time>
      </trkpt>
      <trkpt lat="43.82815" lon="1.96704">
        <ele>319.8</ele>
        <time>2020-07-15T13:11:16Z</time>
      </trkpt>
      <trkpt lat="43.82815" lon="1.96711">
        <ele>319.6</ele>
        <time>2020-07-15T13:11:17Z</time>
      </trkpt>
      <trkpt lat="43.82814" lon="1.96719">
        <ele>319.2</ele>
        <time>2020-07-15T13:11:18Z</time>
      </trkpt>
      <trkpt lat="43.82813" lon="1.96727">
        <ele>319</ele>
        <time>2020-07-15T13:11:19Z</time>
      </trkpt>
      <trkpt lat="43.82812" lon="1.96735">
        <ele>318.6</ele>
        <time>2020-07-15T13:11:20Z</time>
      </trkpt>
      <trkpt lat="43.8281" lon="1.96743">
        <ele>318.2</ele>
        <time>2020-07-15T13:11:21Z</time>
      </trkpt>
      <trkpt lat="43.82809" lon="1.9675">
        <ele>318</ele>
        <time>2020-07-15T13:11:22Z</time>
      </trkpt>
      <trkpt lat="43.82809" lon="1.96758">
        <ele>317.8</ele>
        <time>2020-07-15T13:11:23Z</time>
      </trkpt>
      <trkpt lat="43.82809" lon="1.96765">
        <ele>317.4</ele>
        <time>2020-07-15T13:11:24Z</time>
      </trkpt>
      <trkpt lat="43.8281" lon="1.96771">
        <ele>316.8</ele>
        <time>2020-07-15T13:11:25Z</time>
      </trkpt>
      <trkpt lat="43.82811" lon="1.96778">
        <ele>316.4</ele>
        <time>2020-07-15T13:11:26Z</time>
      </trkpt>
      <trkpt lat="43.82813" lon="1.96785">
        <ele>315.8</ele>
        <time>2020-07-15T13:11:27Z</time>
      </trkpt>
      <trkpt lat="43.82815" lon="1.96793">
        <ele>315.2</ele>
        <time>2020-07-15T13:11:28Z</time>
      </trkpt>
      <trkpt lat="43.82816" lon="1.96801">
        <ele>314.2</ele>
        <time>2020-07-15T13:11:29Z</time>
      </trkpt>
      <trkpt lat="43.82818" lon="1.96811">
        <ele>313</ele>
        <time>2020-07-15T13:11:30Z</time>
      </trkpt>
      <trkpt lat="43.82821" lon="1.96821">
        <ele>311.8</ele>
        <time>2020-07-15T13:11:31Z</time>
      </trkpt>
      <trkpt lat="43.82825" lon="1.96832">
        <ele>310.6</ele>
        <time>2020-07-15T13:11:32Z</time>
      </trkpt>
      <trkpt lat="43.82829" lon="1.96842">
        <ele>309.2</ele>
        <time>2020-07-15T13:11:33Z</time>
      </trkpt>
      <trkpt lat="43.82834" lon="1.96852">
        <ele>307.8</ele>
        <time>2020-07-15T13:11:34Z</time>
      </trkpt>
      <trkpt lat="43.8284" lon="1.96862">
        <ele>306.6</ele>
        <time>2020-07-15T13:11:35Z</time>
      </trkpt>
      <trkpt lat="43.82846" lon="1.96871">
        <ele>305.4</ele>
        <time>2020-07-15T13:11:36Z</time>
      </trkpt>
      <trkpt lat="43.82852" lon="1.9688">
        <ele>304.2</ele>
        <time>2020-07-15T13:11:37Z</time>
      </trkpt>
      <trkpt lat="43.82856" lon="1.96889">
        <ele>303</ele>
        <time>2020-07-15T13:11:38Z</time>
      </trkpt>
      <trkpt lat="43.82861" lon="1.96896">
        <ele>301.8</ele>
        <time>2020-07-15T13:11:39Z</time>
      </trkpt>
      <trkpt lat="43.82864" lon="1.96905">
        <ele>300.6</ele>
        <time>2020-07-15T13:11:40Z</time>
      </trkpt>
      <trkpt lat="43.82868" lon="1.96914">
        <ele>299.2</ele>
        <time>2020-07-15T13:11:41Z</time>
      </trkpt>
      <trkpt lat="43.82871" lon="1.96924">
        <ele>298</ele>
        <time>2020-07-15T13:11:42Z</time>
      </trkpt>
      <trkpt lat="43.82874" lon="1.96934">
        <ele>297</ele>
        <time>2020-07-15T13:11:43Z</time>
      </trkpt>
      <trkpt lat="43.82877" lon="1.96945">
        <ele>296</ele>
        <time>2020-07-15T13:11:44Z</time>
      </trkpt>
      <trkpt lat="43.82878" lon="1.96956">
        <ele>295</ele>
        <time>2020-07-15T13:11:45Z</time>
      </trkpt>
      <trkpt lat="43.82878" lon="1.96966">
        <ele>294.4</ele>
        <time>2020-07-15T13:11:46Z</time>
      </trkpt>
      <trkpt lat="43.82878" lon="1.96975">
        <ele>293.6</ele>
        <time>2020-07-15T13:11:47Z</time>
      </trkpt>
      <trkpt lat="43.82877" lon="1.96986">
        <ele>293.2</ele>
        <time>2020-07-15T13:11:48Z</time>
      </trkpt>
      <trkpt lat="43.82875" lon="1.96995">
        <ele>292.6</ele>
        <time>2020-07-15T13:11:49Z</time>
      </trkpt>
      <trkpt lat="43.82873" lon="1.97004">
        <ele>292.4</ele>
        <time>2020-07-15T13:11:50Z</time>
      </trkpt>
      <trkpt lat="43.8287" lon="1.97012">
        <ele>292</ele>
        <time>2020-07-15T13:11:51Z</time>
      </trkpt>
      <trkpt lat="43.82867" lon="1.97021">
        <ele>291.6</ele>
        <time>2020-07-15T13:11:52Z</time>
      </trkpt>
      <trkpt lat="43.82864" lon="1.9703">
        <ele>291.2</ele>
        <time>2020-07-15T13:11:53Z</time>
      </trkpt>
      <trkpt lat="43.82861" lon="1.97039">
        <ele>290.6</ele>
        <time>2020-07-15T13:11:54Z</time>
      </trkpt>
      <trkpt lat="43.82859" lon="1.97048">
        <ele>290.2</ele>
        <time>2020-07-15T13:11:55Z</time>
      </trkpt>
      <trkpt lat="43.82856" lon="1.97057">
        <ele>289.4</ele>
        <time>2020-07-15T13:11:56Z</time>
      </trkpt>
      <trkpt lat="43.82853" lon="1.97065">
        <ele>288.8</ele>
        <time>2020-07-15T13:11:57Z</time>
      </trkpt>
      <trkpt lat="43.82849" lon="1.97074">
        <ele>287.8</ele>
        <time>2020-07-15T13:11:58Z</time>
      </trkpt>
      <trkpt lat="43.82845" lon="1.97082">
        <ele>286.8</ele>
        <time>2020-07-15T13:11:59Z</time>
      </trkpt>
      <trkpt lat="43.82841" lon="1.97091">
        <ele>285.8</ele>
        <time>2020-07-15T13:12:00Z</time>
      </trkpt>
      <trkpt lat="43.82838" lon="1.97099">
        <ele>285</ele>
        <time>2020-07-15T13:12:01Z</time>
      </trkpt>
      <trkpt lat="43.82834" lon="1.97108">
        <ele>284.2</ele>
        <time>2020-07-15T13:12:02Z</time>
      </trkpt>
      <trkpt lat="43.8283" lon="1.97117">
        <ele>283.2</ele>
        <time>2020-07-15T13:12:03Z</time>
      </trkpt>
      <trkpt lat="43.82826" lon="1.97125">
        <ele>282.2</ele>
        <time>2020-07-15T13:12:04Z</time>
      </trkpt>
      <trkpt lat="43.82822" lon="1.97132">
        <ele>281.4</ele>
        <time>2020-07-15T13:12:05Z</time>
      </trkpt>
      <trkpt lat="43.82819" lon="1.9714">
        <ele>280.8</ele>
        <time>2020-07-15T13:12:06Z</time>
      </trkpt>
      <trkpt lat="43.82816" lon="1.97147">
        <ele>280</ele>
        <time>2020-07-15T13:12:07Z</time>
      </trkpt>
      <trkpt lat="43.82815" lon="1.97154">
        <ele>279.2</ele>
        <time>2020-07-15T13:12:08Z</time>
      </trkpt>
      <trkpt lat="43.82815" lon="1.97161">
        <ele>278.8</ele>
        <time>2020-07-15T13:12:09Z</time>
      </trkpt>
      <trkpt lat="43.82816" lon="1.97167">
        <ele>278.2</ele>
        <time>2020-07-15T13:12:10Z</time>
      </trkpt>
      <trkpt lat="43.82817" lon="1.97174">
        <ele>277.8</ele>
        <time>2020-07-15T13:12:11Z</time>
      </trkpt>
      <trkpt lat="43.82819" lon="1.97181">
        <ele>277.4</ele>
        <time>2020-07-15T13:12:12Z</time>
      </trkpt>
      <trkpt lat="43.8282" lon="1.97188">
        <ele>277</ele>
        <time>2020-07-15T13:12:13Z</time>
      </trkpt>
      <trkpt lat="43.82821" lon="1.97195">
        <ele>276.4</ele>
        <time>2020-07-15T13:12:14Z</time>
      </trkpt>
      <trkpt lat="43.82822" lon="1.97204">
        <ele>275.8</ele>
        <time>2020-07-15T13:12:15Z</time>
      </trkpt>
      <trkpt lat="43.82823" lon="1.97211">
        <ele>275.4</ele>
        <time>2020-07-15T13:12:16Z</time>
      </trkpt>
      <trkpt lat="43.82823" lon="1.97217">
        <ele>275</ele>
        <time>2020-07-15T13:12:17Z</time>
      </trkpt>
      <trkpt lat="43.82823" lon="1.97222">
        <ele>274.6</ele>
        <time>2020-07-15T13:12:18Z</time>
      </trkpt>
      <trkpt lat="43.82821" lon="1.97227">
        <ele>274.4</ele>
        <time>2020-07-15T13:12:19Z</time>
      </trkpt>
      <trkpt lat="43.82819" lon="1.97231">
        <ele>274.4</ele>
        <time>2020-07-15T13:12:20Z</time>
      </trkpt>
      <trkpt lat="43.82814" lon="1.97235">
        <ele>274.2</ele>
        <time>2020-07-15T13:12:21Z</time>
      </trkpt>
      <trkpt lat="43.8281" lon="1.9724">
        <ele>274.2</ele>
        <time>2020-07-15T13:12:22Z</time>
      </trkpt>
      <trkpt lat="43.82806" lon="1.97244">
        <ele>274.2</ele>
        <time>2020-07-15T13:12:23Z</time>
      </trkpt>
      <trkpt lat="43.82801" lon="1.97249">
        <ele>274.2</ele>
        <time>2020-07-15T13:12:24Z</time>
      </trkpt>
      <trkpt lat="43.82797" lon="1.97253">
        <ele>274.4</ele>
        <time>2020-07-15T13:12:25Z</time>
      </trkpt>
      <trkpt lat="43.82793" lon="1.97257">
        <ele>274.4</ele>
        <time>2020-07-15T13:12:26Z</time>
      </trkpt>
      <trkpt lat="43.82789" lon="1.97261">
        <ele>274.6</ele>
        <time>2020-07-15T13:12:27Z</time>
      </trkpt>
      <trkpt lat="43.82785" lon="1.97265">
        <ele>274.6</ele>
        <time>2020-07-15T13:12:28Z</time>
      </trkpt>
      <trkpt lat="43.82781" lon="1.97269">
        <ele>274.6</ele>
        <time>2020-07-15T13:12:29Z</time>
      </trkpt>
      <trkpt lat="43.82777" lon="1.97275">
        <ele>274.8</ele>
        <time>2020-07-15T13:12:30Z</time>
      </trkpt>
      <trkpt lat="43.82774" lon="1.9728">
        <ele>274.8</ele>
        <time>2020-07-15T13:12:31Z</time>
      </trkpt>
      <trkpt lat="43.82772" lon="1.97286">
        <ele>275</ele>
        <time>2020-07-15T13:12:32Z</time>
      </trkpt>
      <trkpt lat="43.82769" lon="1.97291">
        <ele>275.2</ele>
        <time>2020-07-15T13:12:33Z</time>
      </trkpt>
      <trkpt lat="43.82766" lon="1.97295">
        <ele>275.4</ele>
        <time>2020-07-15T13:12:34Z</time>
      </trkpt>
      <trkpt lat="43.82763" lon="1.973">
        <ele>275.8</ele>
        <time>2020-07-15T13:12:35Z</time>
      </trkpt>
      <trkpt lat="43.8276" lon="1.97304">
        <ele>276</ele>
        <time>2020-07-15T13:12:36Z</time>
      </trkpt>
      <trkpt lat="43.82756" lon="1.97306">
        <ele>276.2</ele>
        <time>2020-07-15T13:12:37Z</time>
      </trkpt>
      <trkpt lat="43.82752" lon="1.97307">
        <ele>276.2</ele>
        <time>2020-07-15T13:12:38Z</time>
      </trkpt>
      <trkpt lat="43.82748" lon="1.97307">
        <ele>276</ele>
        <time>2020-07-15T13:12:39Z</time>
      </trkpt>
      <trkpt lat="43.82742" lon="1.97308">
        <ele>275.6</ele>
        <time>2020-07-15T13:12:40Z</time>
      </trkpt>
      <trkpt lat="43.82737" lon="1.97309">
        <ele>275.4</ele>
        <time>2020-07-15T13:12:41Z</time>
      </trkpt>
      <trkpt lat="43.82731" lon="1.9731">
        <ele>274.8</ele>
        <time>2020-07-15T13:12:42Z</time>
      </trkpt>
      <trkpt lat="43.82724" lon="1.97313">
        <ele>274.2</ele>
        <time>2020-07-15T13:12:43Z</time>
      </trkpt>
      <trkpt lat="43.82718" lon="1.97317">
        <ele>273.8</ele>
        <time>2020-07-15T13:12:44Z</time>
      </trkpt>
      <trkpt lat="43.82711" lon="1.97322">
        <ele>273.4</ele>
        <time>2020-07-15T13:12:45Z</time>
      </trkpt>
      <trkpt lat="43.82706" lon="1.97328">
        <ele>273</ele>
        <time>2020-07-15T13:12:46Z</time>
      </trkpt>
      <trkpt lat="43.82701" lon="1.97334">
        <ele>272.6</ele>
        <time>2020-07-15T13:12:47Z</time>
      </trkpt>
      <trkpt lat="43.82696" lon="1.97342">
        <ele>272.4</ele>
        <time>2020-07-15T13:12:48Z</time>
      </trkpt>
      <trkpt lat="43.82692" lon="1.9735">
        <ele>272</ele>
        <time>2020-07-15T13:12:49Z</time>
      </trkpt>
      <trkpt lat="43.82688" lon="1.97358">
        <ele>271.6</ele>
        <time>2020-07-15T13:12:50Z</time>
      </trkpt>
      <trkpt lat="43.82684" lon="1.97366">
        <ele>271.4</ele>
        <time>2020-07-15T13:12:51Z</time>
      </trkpt>
      <trkpt lat="43.8268" lon="1.97373">
        <ele>271.4</ele>
        <time>2020-07-15T13:12:52Z</time>
      </trkpt>
      <trkpt lat="43.82676" lon="1.97381">
        <ele>271.4</ele>
        <time>2020-07-15T13:12:53Z</time>
      </trkpt>
      <trkpt lat="43.82673" lon="1.97388">
        <ele>271.2</ele>
        <time>2020-07-15T13:12:54Z</time>
      </trkpt>
      <trkpt lat="43.8267" lon="1.97397">
        <ele>271.2</ele>
        <time>2020-07-15T13:12:55Z</time>
      </trkpt>
      <trkpt lat="43.82668" lon="1.97405">
        <ele>271.2</ele>
        <time>2020-07-15T13:12:56Z</time>
      </trkpt>
      <trkpt lat="43.82665" lon="1.97413">
        <ele>271.2</ele>
        <time>2020-07-15T13:12:57Z</time>
      </trkpt>
      <trkpt lat="43.82663" lon="1.9742">
        <ele>271.2</ele>
        <time>2020-07-15T13:12:58Z</time>
      </trkpt>
      <trkpt lat="43.82661" lon="1.97428">
        <ele>271.4</ele>
        <time>2020-07-15T13:12:59Z</time>
      </trkpt>
      <trkpt lat="43.82658" lon="1.97436">
        <ele>271.2</ele>
        <time>2020-07-15T13:13:00Z</time>
      </trkpt>
      <trkpt lat="43.82656" lon="1.97443">
        <ele>271</ele>
        <time>2020-07-15T13:13:01Z</time>
      </trkpt>
      <trkpt lat="43.82653" lon="1.9745">
        <ele>270.6</ele>
        <time>2020-07-15T13:13:02Z</time>
      </trkpt>
      <trkpt lat="43.82648" lon="1.97458">
        <ele>270.4</ele>
        <time>2020-07-15T13:13:03Z</time>
      </trkpt>
      <trkpt lat="43.82642" lon="1.97466">
        <ele>270</ele>
        <time>2020-07-15T13:13:04Z</time>
      </trkpt>
      <trkpt lat="43.82637" lon="1.97474">
        <ele>269.8</ele>
        <time>2020-07-15T13:13:05Z</time>
      </trkpt>
      <trkpt lat="43.82632" lon="1.97483">
        <ele>269.6</ele>
        <time>2020-07-15T13:13:06Z</time>
      </trkpt>
      <trkpt lat="43.82627" lon="1.97491">
        <ele>269.6</ele>
        <time>2020-07-15T13:13:07Z</time>
      </trkpt>
      <trkpt lat="43.82622" lon="1.975">
        <ele>269.6</ele>
        <time>2020-07-15T13:13:08Z</time>
      </trkpt>
      <trkpt lat="43.82617" lon="1.97509">
        <ele>269.4</ele>
        <time>2020-07-15T13:13:09Z</time>
      </trkpt>
      <trkpt lat="43.82612" lon="1.97518">
        <ele>269.4</ele>
        <time>2020-07-15T13:13:10Z</time>
      </trkpt>
      <trkpt lat="43.82608" lon="1.97526">
        <ele>269.6</ele>
        <time>2020-07-15T13:13:11Z</time>
      </trkpt>
      <trkpt lat="43.82604" lon="1.97534">
        <ele>269.6</ele>
        <time>2020-07-15T13:13:12Z</time>
      </trkpt>
      <trkpt lat="43.826" lon="1.97541">
        <ele>269.8</ele>
        <time>2020-07-15T13:13:13Z</time>
      </trkpt>
      <trkpt lat="43.82597" lon="1.97548">
        <ele>270</ele>
        <time>2020-07-15T13:13:14Z</time>
      </trkpt>
      <trkpt lat="43.82593" lon="1.97555">
        <ele>270.4</ele>
        <time>2020-07-15T13:13:15Z</time>
      </trkpt>
      <trkpt lat="43.8259" lon="1.97562">
        <ele>270.6</ele>
        <time>2020-07-15T13:13:16Z</time>
      </trkpt>
      <trkpt lat="43.82586" lon="1.97569">
        <ele>270.8</ele>
        <time>2020-07-15T13:13:17Z</time>
      </trkpt>
      <trkpt lat="43.82583" lon="1.97575">
        <ele>271.2</ele>
        <time>2020-07-15T13:13:18Z</time>
      </trkpt>
      <trkpt lat="43.8258" lon="1.97582">
        <ele>271.4</ele>
        <time>2020-07-15T13:13:19Z</time>
      </trkpt>
      <trkpt lat="43.82577" lon="1.97588">
        <ele>271.8</ele>
        <time>2020-07-15T13:13:20Z</time>
      </trkpt>
      <trkpt lat="43.82574" lon="1.97594">
        <ele>272.2</ele>
        <time>2020-07-15T13:13:21Z</time>
      </trkpt>
      <trkpt lat="43.82571" lon="1.976">
        <ele>272.6</ele>
        <time>2020-07-15T13:13:22Z</time>
      </trkpt>
      <trkpt lat="43.82568" lon="1.97605">
        <ele>272.8</ele>
        <time>2020-07-15T13:13:23Z</time>
      </trkpt>
      <trkpt lat="43.82564" lon="1.97611">
        <ele>272.6</ele>
        <time>2020-07-15T13:13:24Z</time>
      </trkpt>
      <trkpt lat="43.82561" lon="1.97617">
        <ele>272.4</ele>
        <time>2020-07-15T13:13:25Z</time>
      </trkpt>
      <trkpt lat="43.82557" lon="1.97625">
        <ele>272.2</ele>
        <time>2020-07-15T13:13:26Z</time>
      </trkpt>
      <trkpt lat="43.82553" lon="1.97633">
        <ele>271.6</ele>
        <time>2020-07-15T13:13:27Z</time>
      </trkpt>
      <trkpt lat="43.82549" lon="1.97639">
        <ele>271</ele>
        <time>2020-07-15T13:13:28Z</time>
      </trkpt>
      <trkpt lat="43.82543" lon="1.97646">
        <ele>270.2</ele>
        <time>2020-07-15T13:13:29Z</time>
      </trkpt>
      <trkpt lat="43.82536" lon="1.97651">
        <ele>269.2</ele>
        <time>2020-07-15T13:13:30Z</time>
      </trkpt>
      <trkpt lat="43.82529" lon="1.97656">
        <ele>268.2</ele>
        <time>2020-07-15T13:13:31Z</time>
      </trkpt>
      <trkpt lat="43.8252" lon="1.97659">
        <ele>266.8</ele>
        <time>2020-07-15T13:13:32Z</time>
      </trkpt>
      <trkpt lat="43.8251" lon="1.97664">
        <ele>265.4</ele>
        <time>2020-07-15T13:13:33Z</time>
      </trkpt>
      <trkpt lat="43.82499" lon="1.97669">
        <ele>264</ele>
        <time>2020-07-15T13:13:34Z</time>
      </trkpt>
      <trkpt lat="43.82488" lon="1.97674">
        <ele>262.6</ele>
        <time>2020-07-15T13:13:35Z</time>
      </trkpt>
      <trkpt lat="43.82478" lon="1.97679">
        <ele>261.2</ele>
        <time>2020-07-15T13:13:36Z</time>
      </trkpt>
      <trkpt lat="43.82467" lon="1.97684">
        <ele>260</ele>
        <time>2020-07-15T13:13:37Z</time>
      </trkpt>
      <trkpt lat="43.82457" lon="1.97691">
        <ele>258.8</ele>
        <time>2020-07-15T13:13:38Z</time>
      </trkpt>
      <trkpt lat="43.82447" lon="1.97697">
        <ele>257.6</ele>
        <time>2020-07-15T13:13:39Z</time>
      </trkpt>
      <trkpt lat="43.82438" lon="1.97703">
        <ele>256.8</ele>
        <time>2020-07-15T13:13:40Z</time>
      </trkpt>
      <trkpt lat="43.82429" lon="1.97708">
        <ele>255.8</ele>
        <time>2020-07-15T13:13:41Z</time>
      </trkpt>
      <trkpt lat="43.82421" lon="1.97712">
        <ele>254.6</ele>
        <time>2020-07-15T13:13:42Z</time>
      </trkpt>
      <trkpt lat="43.82413" lon="1.97717">
        <ele>253.6</ele>
        <time>2020-07-15T13:13:43Z</time>
      </trkpt>
      <trkpt lat="43.82406" lon="1.97722">
        <ele>252.4</ele>
        <time>2020-07-15T13:13:44Z</time>
      </trkpt>
      <trkpt lat="43.82398" lon="1.97725">
        <ele>251.4</ele>
        <time>2020-07-15T13:13:45Z</time>
      </trkpt>
      <trkpt lat="43.82393" lon="1.97729">
        <ele>250.6</ele>
        <time>2020-07-15T13:13:46Z</time>
      </trkpt>
      <trkpt lat="43.82387" lon="1.97733">
        <ele>249.8</ele>
        <time>2020-07-15T13:13:47Z</time>
      </trkpt>
      <trkpt lat="43.82381" lon="1.97738">
        <ele>249</ele>
        <time>2020-07-15T13:13:48Z</time>
      </trkpt>
      <trkpt lat="43.82374" lon="1.97744">
        <ele>248</ele>
        <time>2020-07-15T13:13:49Z</time>
      </trkpt>
      <trkpt lat="43.82367" lon="1.9775">
        <ele>247.2</ele>
        <time>2020-07-15T13:13:50Z</time>
      </trkpt>
      <trkpt lat="43.8236" lon="1.97757">
        <ele>246.2</ele>
        <time>2020-07-15T13:13:51Z</time>
      </trkpt>
      <trkpt lat="43.82352" lon="1.97765">
        <ele>245.6</ele>
        <time>2020-07-15T13:13:52Z</time>
      </trkpt>
      <trkpt lat="43.82345" lon="1.97773">
        <ele>245</ele>
        <time>2020-07-15T13:13:53Z</time>
      </trkpt>
      <trkpt lat="43.82338" lon="1.9778">
        <ele>244.4</ele>
        <time>2020-07-15T13:13:54Z</time>
      </trkpt>
      <trkpt lat="43.8233" lon="1.97788">
        <ele>243.6</ele>
        <time>2020-07-15T13:13:55Z</time>
      </trkpt>
      <trkpt lat="43.82322" lon="1.97796">
        <ele>243</ele>
        <time>2020-07-15T13:13:56Z</time>
      </trkpt>
      <trkpt lat="43.82314" lon="1.97804">
        <ele>242.2</ele>
        <time>2020-07-15T13:13:57Z</time>
      </trkpt>
      <trkpt lat="43.82306" lon="1.97812">
        <ele>241.8</ele>
        <time>2020-07-15T13:13:58Z</time>
      </trkpt>
      <trkpt lat="43.82298" lon="1.97819">
        <ele>241.4</ele>
        <time>2020-07-15T13:13:59Z</time>
      </trkpt>
      <trkpt lat="43.82291" lon="1.97826">
        <ele>241</ele>
        <time>2020-07-15T13:14:00Z</time>
      </trkpt>
      <trkpt lat="43.82285" lon="1.97833">
        <ele>240.6</ele>
        <time>2020-07-15T13:14:01Z</time>
      </trkpt>
      <trkpt lat="43.82278" lon="1.9784">
        <ele>240.2</ele>
        <time>2020-07-15T13:14:02Z</time>
      </trkpt>
      <trkpt lat="43.8227" lon="1.97848">
        <ele>240</ele>
        <time>2020-07-15T13:14:03Z</time>
      </trkpt>
      <trkpt lat="43.82264" lon="1.97855">
        <ele>239.8</ele>
        <time>2020-07-15T13:14:04Z</time>
      </trkpt>
      <trkpt lat="43.82257" lon="1.97863">
        <ele>239.4</ele>
        <time>2020-07-15T13:14:05Z</time>
      </trkpt>
      <trkpt lat="43.82251" lon="1.97871">
        <ele>239</ele>
        <time>2020-07-15T13:14:06Z</time>
      </trkpt>
      <trkpt lat="43.82245" lon="1.97879">
        <ele>238.6</ele>
        <time>2020-07-15T13:14:07Z</time>
      </trkpt>
      <trkpt lat="43.82239" lon="1.97888">
        <ele>238.2</ele>
        <time>2020-07-15T13:14:08Z</time>
      </trkpt>
      <trkpt lat="43.82234" lon="1.97897">
        <ele>238</ele>
        <time>2020-07-15T13:14:09Z</time>
      </trkpt>
      <trkpt lat="43.82228" lon="1.97906">
        <ele>237.6</ele>
        <time>2020-07-15T13:14:10Z</time>
      </trkpt>
      <trkpt lat="43.82223" lon="1.97916">
        <ele>237.4</ele>
        <time>2020-07-15T13:14:11Z</time>
      </trkpt>
      <trkpt lat="43.82218" lon="1.97926">
        <ele>237</ele>
        <time>2020-07-15T13:14:12Z</time>
      </trkpt>
      <trkpt lat="43.82213" lon="1.97935">
        <ele>236.8</ele>
        <time>2020-07-15T13:14:13Z</time>
      </trkpt>
      <trkpt lat="43.82207" lon="1.97945">
        <ele>236.4</ele>
        <time>2020-07-15T13:14:14Z</time>
      </trkpt>
      <trkpt lat="43.82202" lon="1.97954">
        <ele>236.2</ele>
        <time>2020-07-15T13:14:15Z</time>
      </trkpt>
      <trkpt lat="43.82196" lon="1.97962">
        <ele>236</ele>
        <time>2020-07-15T13:14:16Z</time>
      </trkpt>
      <trkpt lat="43.82191" lon="1.97971">
        <ele>236</ele>
        <time>2020-07-15T13:14:17Z</time>
      </trkpt>
      <trkpt lat="43.82186" lon="1.97978">
        <ele>236</ele>
        <time>2020-07-15T13:14:18Z</time>
      </trkpt>
      <trkpt lat="43.82181" lon="1.97986">
        <ele>236</ele>
        <time>2020-07-15T13:14:19Z</time>
      </trkpt>
      <trkpt lat="43.82177" lon="1.97994">
        <ele>236</ele>
        <time>2020-07-15T13:14:20Z</time>
      </trkpt>
      <trkpt lat="43.82172" lon="1.98001">
        <ele>236</ele>
        <time>2020-07-15T13:14:21Z</time>
      </trkpt>
      <trkpt lat="43.82168" lon="1.98008">
        <ele>236.2</ele>
        <time>2020-07-15T13:14:22Z</time>
      </trkpt>
      <trkpt lat="43.82164" lon="1.98015">
        <ele>236.4</ele>
        <time>2020-07-15T13:14:23Z</time>
      </trkpt>
      <trkpt lat="43.82161" lon="1.98021">
        <ele>236.6</ele>
        <time>2020-07-15T13:14:24Z</time>
      </trkpt>
      <trkpt lat="43.82156" lon="1.98027">
        <ele>236.8</ele>
        <time>2020-07-15T13:14:25Z</time>
      </trkpt>
      <trkpt lat="43.82153" lon="1.98033">
        <ele>237</ele>
        <time>2020-07-15T13:14:26Z</time>
      </trkpt>
      <trkpt lat="43.8215" lon="1.98039">
        <ele>237.2</ele>
        <time>2020-07-15T13:14:27Z</time>
      </trkpt>
      <trkpt lat="43.82146" lon="1.98045">
        <ele>237.4</ele>
        <time>2020-07-15T13:14:28Z</time>
      </trkpt>
      <trkpt lat="43.82142" lon="1.98051">
        <ele>237.6</ele>
        <time>2020-07-15T13:14:29Z</time>
      </trkpt>
      <trkpt lat="43.82139" lon="1.98057">
        <ele>238</ele>
        <time>2020-07-15T13:14:30Z</time>
      </trkpt>
      <trkpt lat="43.82135" lon="1.98062">
        <ele>238.2</ele>
        <time>2020-07-15T13:14:31Z</time>
      </trkpt>
      <trkpt lat="43.82132" lon="1.98068">
        <ele>238.4</ele>
        <time>2020-07-15T13:14:32Z</time>
      </trkpt>
      <trkpt lat="43.82128" lon="1.98074">
        <ele>238.6</ele>
        <time>2020-07-15T13:14:33Z</time>
      </trkpt>
      <trkpt lat="43.82125" lon="1.98079">
        <ele>238.8</ele>
        <time>2020-07-15T13:14:34Z</time>
      </trkpt>
      <trkpt lat="43.82121" lon="1.98085">
        <ele>239</ele>
        <time>2020-07-15T13:14:35Z</time>
      </trkpt>
      <trkpt lat="43.82118" lon="1.98091">
        <ele>239.2</ele>
        <time>2020-07-15T13:14:36Z</time>
      </trkpt>
      <trkpt lat="43.82114" lon="1.98097">
        <ele>239.4</ele>
        <time>2020-07-15T13:14:37Z</time>
      </trkpt>
      <trkpt lat="43.82111" lon="1.98103">
        <ele>239.6</ele>
        <time>2020-07-15T13:14:38Z</time>
      </trkpt>
      <trkpt lat="43.82107" lon="1.98108">
        <ele>239.8</ele>
        <time>2020-07-15T13:14:39Z</time>
      </trkpt>
      <trkpt lat="43.82103" lon="1.98113">
        <ele>240</ele>
        <time>2020-07-15T13:14:40Z</time>
      </trkpt>
      <trkpt lat="43.821" lon="1.98118">
        <ele>240.2</ele>
        <time>2020-07-15T13:14:41Z</time>
      </trkpt>
      <trkpt lat="43.82097" lon="1.98123">
        <ele>240.4</ele>
        <time>2020-07-15T13:14:42Z</time>
      </trkpt>
      <trkpt lat="43.82093" lon="1.98129">
        <ele>240.6</ele>
        <time>2020-07-15T13:14:43Z</time>
      </trkpt>
      <trkpt lat="43.8209" lon="1.98134">
        <ele>240.8</ele>
        <time>2020-07-15T13:14:44Z</time>
      </trkpt>
      <trkpt lat="43.82087" lon="1.98139">
        <ele>241</ele>
        <time>2020-07-15T13:14:45Z</time>
      </trkpt>
      <trkpt lat="43.82084" lon="1.98145">
        <ele>241.2</ele>
        <time>2020-07-15T13:14:46Z</time>
      </trkpt>
      <trkpt lat="43.82081" lon="1.9815">
        <ele>241.4</ele>
        <time>2020-07-15T13:14:47Z</time>
      </trkpt>
      <trkpt lat="43.82078" lon="1.98155">
        <ele>241.6</ele>
        <time>2020-07-15T13:14:48Z</time>
      </trkpt>
      <trkpt lat="43.82075" lon="1.9816">
        <ele>241.8</ele>
        <time>2020-07-15T13:14:49Z</time>
      </trkpt>
      <trkpt lat="43.82072" lon="1.98166">
        <ele>242</ele>
        <time>2020-07-15T13:14:50Z</time>
      </trkpt>
      <trkpt lat="43.82069" lon="1.98171">
        <ele>242.2</ele>
        <time>2020-07-15T13:14:51Z</time>
      </trkpt>
      <trkpt lat="43.82067" lon="1.98176">
        <ele>242.4</ele>
        <time>2020-07-15T13:14:52Z</time>
      </trkpt>
      <trkpt lat="43.82064" lon="1.98181">
        <ele>242.8</ele>
        <time>2020-07-15T13:14:53Z</time>
      </trkpt>
      <trkpt lat="43.82062" lon="1.98186">
        <ele>243</ele>
        <time>2020-07-15T13:14:54Z</time>
      </trkpt>
      <trkpt lat="43.82059" lon="1.98191">
        <ele>243.2</ele>
        <time>2020-07-15T13:14:55Z</time>
      </trkpt>
      <trkpt lat="43.82056" lon="1.98196">
        <ele>243.2</ele>
        <time>2020-07-15T13:14:56Z</time>
      </trkpt>
      <trkpt lat="43.82054" lon="1.98201">
        <ele>243.2</ele>
        <time>2020-07-15T13:14:57Z</time>
      </trkpt>
      <trkpt lat="43.82052" lon="1.98206">
        <ele>243.2</ele>
        <time>2020-07-15T13:14:58Z</time>
      </trkpt>
      <trkpt lat="43.82049" lon="1.98212">
        <ele>243.2</ele>
        <time>2020-07-15T13:14:59Z</time>
      </trkpt>
      <trkpt lat="43.82046" lon="1.98218">
        <ele>242.8</ele>
        <time>2020-07-15T13:15:00Z</time>
      </trkpt>
      <trkpt lat="43.82043" lon="1.98225">
        <ele>242.6</ele>
        <time>2020-07-15T13:15:01Z</time>
      </trkpt>
      <trkpt lat="43.8204" lon="1.98233">
        <ele>242.2</ele>
        <time>2020-07-15T13:15:02Z</time>
      </trkpt>
      <trkpt lat="43.82037" lon="1.9824">
        <ele>241.6</ele>
        <time>2020-07-15T13:15:03Z</time>
      </trkpt>
      <trkpt lat="43.82035" lon="1.98246">
        <ele>241.2</ele>
        <time>2020-07-15T13:15:04Z</time>
      </trkpt>
      <trkpt lat="43.82034" lon="1.98252">
        <ele>240.8</ele>
        <time>2020-07-15T13:15:05Z</time>
      </trkpt>
      <trkpt lat="43.82035" lon="1.98259">
        <ele>240.4</ele>
        <time>2020-07-15T13:15:06Z</time>
      </trkpt>
      <trkpt lat="43.82036" lon="1.98265">
        <ele>240.2</ele>
        <time>2020-07-15T13:15:07Z</time>
      </trkpt>
      <trkpt lat="43.82039" lon="1.98271">
        <ele>240</ele>
        <time>2020-07-15T13:15:08Z</time>
      </trkpt>
      <trkpt lat="43.82042" lon="1.98278">
        <ele>239.8</ele>
        <time>2020-07-15T13:15:09Z</time>
      </trkpt>
      <trkpt lat="43.82045" lon="1.98286">
        <ele>239.6</ele>
        <time>2020-07-15T13:15:10Z</time>
      </trkpt>
      <trkpt lat="43.82048" lon="1.98293">
        <ele>239.4</ele>
        <time>2020-07-15T13:15:11Z</time>
      </trkpt>
      <trkpt lat="43.8205" lon="1.983">
        <ele>239.6</ele>
        <time>2020-07-15T13:15:12Z</time>
      </trkpt>
      <trkpt lat="43.82052" lon="1.98308">
        <ele>239.4</ele>
        <time>2020-07-15T13:15:13Z</time>
      </trkpt>
      <trkpt lat="43.82053" lon="1.98315">
        <ele>239.4</ele>
        <time>2020-07-15T13:15:14Z</time>
      </trkpt>
      <trkpt lat="43.82053" lon="1.98321">
        <ele>239.6</ele>
        <time>2020-07-15T13:15:15Z</time>
      </trkpt>
      <trkpt lat="43.82054" lon="1.98328">
        <ele>239.8</ele>
        <time>2020-07-15T13:15:16Z</time>
      </trkpt>
      <trkpt lat="43.82055" lon="1.98334">
        <ele>240</ele>
        <time>2020-07-15T13:15:17Z</time>
      </trkpt>
      <trkpt lat="43.82055" lon="1.9834">
        <ele>240.2</ele>
        <time>2020-07-15T13:15:18Z</time>
      </trkpt>
      <trkpt lat="43.82056" lon="1.98346">
        <ele>240.6</ele>
        <time>2020-07-15T13:15:19Z</time>
      </trkpt>
      <trkpt lat="43.82056" lon="1.98351">
        <ele>240.8</ele>
        <time>2020-07-15T13:15:20Z</time>
      </trkpt>
      <trkpt lat="43.82057" lon="1.98357">
        <ele>241.2</ele>
        <time>2020-07-15T13:15:21Z</time>
      </trkpt>
      <trkpt lat="43.82059" lon="1.98362">
        <ele>241.4</ele>
        <time>2020-07-15T13:15:22Z</time>
      </trkpt>
      <trkpt lat="43.82061" lon="1.98367">
        <ele>241.8</ele>
        <time>2020-07-15T13:15:23Z</time>
      </trkpt>
      <trkpt lat="43.82063" lon="1.98372">
        <ele>242</ele>
        <time>2020-07-15T13:15:24Z</time>
      </trkpt>
      <trkpt lat="43.82065" lon="1.98377">
        <ele>242.4</ele>
        <time>2020-07-15T13:15:25Z</time>
      </trkpt>
      <trkpt lat="43.82067" lon="1.98382">
        <ele>242.6</ele>
        <time>2020-07-15T13:15:26Z</time>
      </trkpt>
      <trkpt lat="43.82069" lon="1.98387">
        <ele>242.8</ele>
        <time>2020-07-15T13:15:27Z</time>
      </trkpt>
      <trkpt lat="43.82072" lon="1.98392">
        <ele>243</ele>
        <time>2020-07-15T13:15:28Z</time>
      </trkpt>
      <trkpt lat="43.82074" lon="1.98397">
        <ele>243.2</ele>
        <time>2020-07-15T13:15:29Z</time>
      </trkpt>
      <trkpt lat="43.82077" lon="1.98403">
        <ele>243.2</ele>
        <time>2020-07-15T13:15:30Z</time>
      </trkpt>
      <trkpt lat="43.82079" lon="1.98409">
        <ele>243.2</ele>
        <time>2020-07-15T13:15:31Z</time>
      </trkpt>
      <trkpt lat="43.82082" lon="1.98416">
        <ele>243.4</ele>
        <time>2020-07-15T13:15:32Z</time>
      </trkpt>
      <trkpt lat="43.82085" lon="1.98423">
        <ele>243.4</ele>
        <time>2020-07-15T13:15:33Z</time>
      </trkpt>
      <trkpt lat="43.82087" lon="1.98429">
        <ele>243.4</ele>
        <time>2020-07-15T13:15:34Z</time>
      </trkpt>
      <trkpt lat="43.8209" lon="1.98436">
        <ele>243.4</ele>
        <time>2020-07-15T13:15:35Z</time>
      </trkpt>
      <trkpt lat="43.82093" lon="1.98442">
        <ele>243.2</ele>
        <time>2020-07-15T13:15:36Z</time>
      </trkpt>
      <trkpt lat="43.82095" lon="1.98449">
        <ele>243.2</ele>
        <time>2020-07-15T13:15:37Z</time>
      </trkpt>
      <trkpt lat="43.82098" lon="1.98454">
        <ele>243.2</ele>
        <time>2020-07-15T13:15:38Z</time>
      </trkpt>
      <trkpt lat="43.821" lon="1.9846">
        <ele>243.2</ele>
        <time>2020-07-15T13:15:39Z</time>
      </trkpt>
      <trkpt lat="43.82103" lon="1.98466">
        <ele>243.2</ele>
        <time>2020-07-15T13:15:40Z</time>
      </trkpt>
      <trkpt lat="43.82105" lon="1.98471">
        <ele>243.2</ele>
        <time>2020-07-15T13:15:41Z</time>
      </trkpt>
      <trkpt lat="43.82108" lon="1.98477">
        <ele>243</ele>
        <time>2020-07-15T13:15:42Z</time>
      </trkpt>
      <trkpt lat="43.82111" lon="1.98484">
        <ele>242.8</ele>
        <time>2020-07-15T13:15:43Z</time>
      </trkpt>
      <trkpt lat="43.82114" lon="1.9849">
        <ele>242.4</ele>
        <time>2020-07-15T13:15:44Z</time>
      </trkpt>
      <trkpt lat="43.82119" lon="1.98494">
        <ele>242</ele>
        <time>2020-07-15T13:15:45Z</time>
      </trkpt>
      <trkpt lat="43.82124" lon="1.98497">
        <ele>241.6</ele>
        <time>2020-07-15T13:15:46Z</time>
      </trkpt>
      <trkpt lat="43.8213" lon="1.98497">
        <ele>241.2</ele>
        <time>2020-07-15T13:15:47Z</time>
      </trkpt>
      <trkpt lat="43.82138" lon="1.98497">
        <ele>240.4</ele>
        <time>2020-07-15T13:15:48Z</time>
      </trkpt>
      <trkpt lat="43.82146" lon="1.98496">
        <ele>239.8</ele>
        <time>2020-07-15T13:15:49Z</time>
      </trkpt>
      <trkpt lat="43.82155" lon="1.98495">
        <ele>238.8</ele>
        <time>2020-07-15T13:15:50Z</time>
      </trkpt>
      <trkpt lat="43.82164" lon="1.98495">
        <ele>238</ele>
        <time>2020-07-15T13:15:51Z</time>
      </trkpt>
      <trkpt lat="43.82173" lon="1.98496">
        <ele>237.2</ele>
        <time>2020-07-15T13:15:52Z</time>
      </trkpt>
      <trkpt lat="43.82184" lon="1.98499">
        <ele>236.2</ele>
        <time>2020-07-15T13:15:53Z</time>
      </trkpt>
      <trkpt lat="43.82194" lon="1.98503">
        <ele>235.4</ele>
        <time>2020-07-15T13:15:54Z</time>
      </trkpt>
      <trkpt lat="43.82204" lon="1.98508">
        <ele>234.8</ele>
        <time>2020-07-15T13:15:55Z</time>
      </trkpt>
      <trkpt lat="43.82214" lon="1.98515">
        <ele>234.2</ele>
        <time>2020-07-15T13:15:56Z</time>
      </trkpt>
      <trkpt lat="43.82223" lon="1.98521">
        <ele>234</ele>
        <time>2020-07-15T13:15:57Z</time>
      </trkpt>
      <trkpt lat="43.8223" lon="1.98529">
        <ele>234</ele>
        <time>2020-07-15T13:15:58Z</time>
      </trkpt>
      <trkpt lat="43.82237" lon="1.98536">
        <ele>234</ele>
        <time>2020-07-15T13:15:59Z</time>
      </trkpt>
      <trkpt lat="43.82243" lon="1.98543">
        <ele>234.2</ele>
        <time>2020-07-15T13:16:00Z</time>
      </trkpt>
      <trkpt lat="43.82247" lon="1.98548">
        <ele>234.4</ele>
        <time>2020-07-15T13:16:01Z</time>
      </trkpt>
      <trkpt lat="43.82253" lon="1.98554">
        <ele>234.8</ele>
        <time>2020-07-15T13:16:02Z</time>
      </trkpt>
      <trkpt lat="43.82256" lon="1.98558">
        <ele>235</ele>
        <time>2020-07-15T13:16:03Z</time>
      </trkpt>
      <trkpt lat="43.82261" lon="1.98562">
        <ele>235.4</ele>
        <time>2020-07-15T13:16:04Z</time>
      </trkpt>
      <trkpt lat="43.82264" lon="1.98566">
        <ele>235.8</ele>
        <time>2020-07-15T13:16:05Z</time>
      </trkpt>
      <trkpt lat="43.82267" lon="1.98569">
        <ele>236.2</ele>
        <time>2020-07-15T13:16:06Z</time>
      </trkpt>
      <trkpt lat="43.8227" lon="1.98572">
        <ele>236.6</ele>
        <time>2020-07-15T13:16:07Z</time>
      </trkpt>
      <trkpt lat="43.82274" lon="1.98575">
        <ele>236.8</ele>
        <time>2020-07-15T13:16:08Z</time>
      </trkpt>
      <trkpt lat="43.82277" lon="1.98579">
        <ele>237.2</ele>
        <time>2020-07-15T13:16:09Z</time>
      </trkpt>
      <trkpt lat="43.8228" lon="1.98582">
        <ele>237.4</ele>
        <time>2020-07-15T13:16:10Z</time>
      </trkpt>
      <trkpt lat="43.82283" lon="1.98585">
        <ele>237.8</ele>
        <time>2020-07-15T13:16:11Z</time>
      </trkpt>
      <trkpt lat="43.82287" lon="1.98588">
        <ele>238</ele>
        <time>2020-07-15T13:16:12Z</time>
      </trkpt>
      <trkpt lat="43.8229" lon="1.98592">
        <ele>238.2</ele>
        <time>2020-07-15T13:16:13Z</time>
      </trkpt>
      <trkpt lat="43.82294" lon="1.98595">
        <ele>238.4</ele>
        <time>2020-07-15T13:16:14Z</time>
      </trkpt>
      <trkpt lat="43.82297" lon="1.98599">
        <ele>238.8</ele>
        <time>2020-07-15T13:16:15Z</time>
      </trkpt>
      <trkpt lat="43.82301" lon="1.98602">
        <ele>238.8</ele>
        <time>2020-07-15T13:16:16Z</time>
      </trkpt>
      <trkpt lat="43.82304" lon="1.98605">
        <ele>239.2</ele>
        <time>2020-07-15T13:16:17Z</time>
      </trkpt>
      <trkpt lat="43.82307" lon="1.98609">
        <ele>239.4</ele>
        <time>2020-07-15T13:16:18Z</time>
      </trkpt>
      <trkpt lat="43.8231" lon="1.98612">
        <ele>239.8</ele>
        <time>2020-07-15T13:16:19Z</time>
      </trkpt>
      <trkpt lat="43.82313" lon="1.98615">
        <ele>240.2</ele>
        <time>2020-07-15T13:16:20Z</time>
      </trkpt>
      <trkpt lat="43.82316" lon="1.98618">
        <ele>240.4</ele>
        <time>2020-07-15T13:16:21Z</time>
      </trkpt>
      <trkpt lat="43.82319" lon="1.98621">
        <ele>240.8</ele>
        <time>2020-07-15T13:16:22Z</time>
      </trkpt>
      <trkpt lat="43.82322" lon="1.98624">
        <ele>241</ele>
        <time>2020-07-15T13:16:23Z</time>
      </trkpt>
      <trkpt lat="43.82325" lon="1.98627">
        <ele>241.4</ele>
        <time>2020-07-15T13:16:24Z</time>
      </trkpt>
      <trkpt lat="43.82328" lon="1.9863">
        <ele>241.8</ele>
        <time>2020-07-15T13:16:25Z</time>
      </trkpt>
      <trkpt lat="43.82332" lon="1.98633">
        <ele>242</ele>
        <time>2020-07-15T13:16:26Z</time>
      </trkpt>
      <trkpt lat="43.82335" lon="1.98635">
        <ele>242.4</ele>
        <time>2020-07-15T13:16:27Z</time>
      </trkpt>
      <trkpt lat="43.82339" lon="1.98636">
        <ele>242.6</ele>
        <time>2020-07-15T13:16:28Z</time>
      </trkpt>
      <trkpt lat="43.82343" lon="1.98637">
        <ele>243</ele>
        <time>2020-07-15T13:16:29Z</time>
      </trkpt>
      <trkpt lat="43.82346" lon="1.98635">
        <ele>243.4</ele>
        <time>2020-07-15T13:16:30Z</time>
      </trkpt>
      <trkpt lat="43.8235" lon="1.98633">
        <ele>243.6</ele>
        <time>2020-07-15T13:16:31Z</time>
      </trkpt>
      <trkpt lat="43.82354" lon="1.98629">
        <ele>243.8</ele>
        <time>2020-07-15T13:16:32Z</time>
      </trkpt>
      <trkpt lat="43.82356" lon="1.98625">
        <ele>244</ele>
        <time>2020-07-15T13:16:33Z</time>
      </trkpt>
      <trkpt lat="43.82359" lon="1.9862">
        <ele>244.2</ele>
        <time>2020-07-15T13:16:34Z</time>
      </trkpt>
      <trkpt lat="43.82362" lon="1.98616">
        <ele>244.4</ele>
        <time>2020-07-15T13:16:35Z</time>
      </trkpt>
      <trkpt lat="43.82365" lon="1.98611">
        <ele>244.6</ele>
        <time>2020-07-15T13:16:36Z</time>
      </trkpt>
      <trkpt lat="43.82368" lon="1.98607">
        <ele>244.8</ele>
        <time>2020-07-15T13:16:37Z</time>
      </trkpt>
      <trkpt lat="43.82371" lon="1.98602">
        <ele>244.8</ele>
        <time>2020-07-15T13:16:38Z</time>
      </trkpt>
      <trkpt lat="43.82373" lon="1.98597">
        <ele>245</ele>
        <time>2020-07-15T13:16:39Z</time>
      </trkpt>
      <trkpt lat="43.82376" lon="1.98593">
        <ele>245.2</ele>
        <time>2020-07-15T13:16:40Z</time>
      </trkpt>
      <trkpt lat="43.82379" lon="1.98588">
        <ele>245.2</ele>
        <time>2020-07-15T13:16:41Z</time>
      </trkpt>
      <trkpt lat="43.82382" lon="1.98583">
        <ele>245.4</ele>
        <time>2020-07-15T13:16:42Z</time>
      </trkpt>
      <trkpt lat="43.82385" lon="1.98579">
        <ele>245.6</ele>
        <time>2020-07-15T13:16:43Z</time>
      </trkpt>
      <trkpt lat="43.82387" lon="1.98574">
        <ele>245.8</ele>
        <time>2020-07-15T13:16:44Z</time>
      </trkpt>
      <trkpt lat="43.8239" lon="1.9857">
        <ele>246</ele>
        <time>2020-07-15T13:16:45Z</time>
      </trkpt>
      <trkpt lat="43.82393" lon="1.98565">
        <ele>246.4</ele>
        <time>2020-07-15T13:16:46Z</time>
      </trkpt>
      <trkpt lat="43.82395" lon="1.98561">
        <ele>246.6</ele>
        <time>2020-07-15T13:16:47Z</time>
      </trkpt>
      <trkpt lat="43.82398" lon="1.98557">
        <ele>247</ele>
        <time>2020-07-15T13:16:48Z</time>
      </trkpt>
      <trkpt lat="43.82401" lon="1.98553">
        <ele>247.4</ele>
        <time>2020-07-15T13:16:49Z</time>
      </trkpt>
      <trkpt lat="43.82403" lon="1.98549">
        <ele>247.6</ele>
        <time>2020-07-15T13:16:50Z</time>
      </trkpt>
      <trkpt lat="43.82406" lon="1.98546">
        <ele>248</ele>
        <time>2020-07-15T13:16:51Z</time>
      </trkpt>
      <trkpt lat="43.82409" lon="1.98542">
        <ele>248.2</ele>
        <time>2020-07-15T13:16:52Z</time>
      </trkpt>
      <trkpt lat="43.82412" lon="1.9854">
        <ele>248.4</ele>
        <time>2020-07-15T13:16:53Z</time>
      </trkpt>
      <trkpt lat="43.82416" lon="1.98537">
        <ele>248.6</ele>
        <time>2020-07-15T13:16:54Z</time>
      </trkpt>
      <trkpt lat="43.8242" lon="1.98536">
        <ele>248.6</ele>
        <time>2020-07-15T13:16:55Z</time>
      </trkpt>
      <trkpt lat="43.82425" lon="1.98535">
        <ele>248.2</ele>
        <time>2020-07-15T13:16:56Z</time>
      </trkpt>
      <trkpt lat="43.82431" lon="1.98535">
        <ele>247.8</ele>
        <time>2020-07-15T13:16:57Z</time>
      </trkpt>
      <trkpt lat="43.82438" lon="1.98537">
        <ele>247.4</ele>
        <time>2020-07-15T13:16:58Z</time>
      </trkpt>
      <trkpt lat="43.82446" lon="1.98539">
        <ele>246.6</ele>
        <time>2020-07-15T13:16:59Z</time>
      </trkpt>
      <trkpt lat="43.82454" lon="1.98542">
        <ele>246</ele>
        <time>2020-07-15T13:17:00Z</time>
      </trkpt>
      <trkpt lat="43.82463" lon="1.98545">
        <ele>245.4</ele>
        <time>2020-07-15T13:17:01Z</time>
      </trkpt>
      <trkpt lat="43.82472" lon="1.98549">
        <ele>244.8</ele>
        <time>2020-07-15T13:17:02Z</time>
      </trkpt>
      <trkpt lat="43.8248" lon="1.98552">
        <ele>244.4</ele>
        <time>2020-07-15T13:17:03Z</time>
      </trkpt>
      <trkpt lat="43.82489" lon="1.98554">
        <ele>244</ele>
        <time>2020-07-15T13:17:04Z</time>
      </trkpt>
      <trkpt lat="43.82496" lon="1.98557">
        <ele>243.6</ele>
        <time>2020-07-15T13:17:05Z</time>
      </trkpt>
      <trkpt lat="43.82504" lon="1.98561">
        <ele>243.2</ele>
        <time>2020-07-15T13:17:06Z</time>
      </trkpt>
      <trkpt lat="43.82511" lon="1.98566">
        <ele>242.8</ele>
        <time>2020-07-15T13:17:07Z</time>
      </trkpt>
      <trkpt lat="43.82517" lon="1.98573">
        <ele>242.6</ele>
        <time>2020-07-15T13:17:08Z</time>
      </trkpt>
      <trkpt lat="43.82522" lon="1.9858">
        <ele>242.4</ele>
        <time>2020-07-15T13:17:09Z</time>
      </trkpt>
      <trkpt lat="43.82526" lon="1.98588">
        <ele>242.4</ele>
        <time>2020-07-15T13:17:10Z</time>
      </trkpt>
      <trkpt lat="43.8253" lon="1.98595">
        <ele>242.4</ele>
        <time>2020-07-15T13:17:11Z</time>
      </trkpt>
      <trkpt lat="43.82533" lon="1.98602">
        <ele>242.4</ele>
        <time>2020-07-15T13:17:12Z</time>
      </trkpt>
      <trkpt lat="43.82536" lon="1.98607">
        <ele>242.8</ele>
        <time>2020-07-15T13:17:13Z</time>
      </trkpt>
      <trkpt lat="43.82539" lon="1.98613">
        <ele>243</ele>
        <time>2020-07-15T13:17:14Z</time>
      </trkpt>
      <trkpt lat="43.82541" lon="1.98618">
        <ele>243.6</ele>
        <time>2020-07-15T13:17:15Z</time>
      </trkpt>
      <trkpt lat="43.82543" lon="1.98623">
        <ele>244</ele>
        <time>2020-07-15T13:17:16Z</time>
      </trkpt>
      <trkpt lat="43.82546" lon="1.98627">
        <ele>244.6</ele>
        <time>2020-07-15T13:17:17Z</time>
      </trkpt>
      <trkpt lat="43.82547" lon="1.98632">
        <ele>245</ele>
        <time>2020-07-15T13:17:18Z</time>
      </trkpt>
      <trkpt lat="43.8255" lon="1.98636">
        <ele>245.6</ele>
        <time>2020-07-15T13:17:19Z</time>
      </trkpt>
      <trkpt lat="43.82552" lon="1.98641">
        <ele>246.2</ele>
        <time>2020-07-15T13:17:20Z</time>
      </trkpt>
      <trkpt lat="43.82554" lon="1.98645">
        <ele>246.6</ele>
        <time>2020-07-15T13:17:21Z</time>
      </trkpt>
      <trkpt lat="43.82556" lon="1.98649">
        <ele>247.2</ele>
        <time>2020-07-15T13:17:22Z</time>
      </trkpt>
      <trkpt lat="43.82558" lon="1.98653">
        <ele>247.6</ele>
        <time>2020-07-15T13:17:23Z</time>
      </trkpt>
      <trkpt lat="43.82561" lon="1.98657">
        <ele>248</ele>
        <time>2020-07-15T13:17:24Z</time>
      </trkpt>
      <trkpt lat="43.82563" lon="1.9866">
        <ele>248.4</ele>
        <time>2020-07-15T13:17:25Z</time>
      </trkpt>
      <trkpt lat="43.82566" lon="1.98665">
        <ele>248.8</ele>
        <time>2020-07-15T13:17:26Z</time>
      </trkpt>
      <trkpt lat="43.82569" lon="1.9867">
        <ele>249</ele>
        <time>2020-07-15T13:17:27Z</time>
      </trkpt>
      <trkpt lat="43.82572" lon="1.98675">
        <ele>249.2</ele>
        <time>2020-07-15T13:17:28Z</time>
      </trkpt>
      <trkpt lat="43.82575" lon="1.98679">
        <ele>249.4</ele>
        <time>2020-07-15T13:17:29Z</time>
      </trkpt>
      <trkpt lat="43.82578" lon="1.98684">
        <ele>249.6</ele>
        <time>2020-07-15T13:17:30Z</time>
      </trkpt>
      <trkpt lat="43.82581" lon="1.98689">
        <ele>249.8</ele>
        <time>2020-07-15T13:17:31Z</time>
      </trkpt>
      <trkpt lat="43.82584" lon="1.98694">
        <ele>250</ele>
        <time>2020-07-15T13:17:32Z</time>
      </trkpt>
      <trkpt lat="43.82587" lon="1.98699">
        <ele>250.2</ele>
        <time>2020-07-15T13:17:33Z</time>
      </trkpt>
      <trkpt lat="43.82591" lon="1.98703">
        <ele>250.4</ele>
        <time>2020-07-15T13:17:34Z</time>
      </trkpt>
      <trkpt lat="43.82594" lon="1.98707">
        <ele>250.8</ele>
        <time>2020-07-15T13:17:35Z</time>
      </trkpt>
      <trkpt lat="43.82598" lon="1.9871">
        <ele>251</ele>
        <time>2020-07-15T13:17:36Z</time>
      </trkpt>
      <trkpt lat="43.82601" lon="1.98713">
        <ele>251.4</ele>
        <time>2020-07-15T13:17:37Z</time>
      </trkpt>
      <trkpt lat="43.82605" lon="1.98715">
        <ele>251.6</ele>
        <time>2020-07-15T13:17:38Z</time>
      </trkpt>
      <trkpt lat="43.82608" lon="1.98717">
        <ele>252</ele>
        <time>2020-07-15T13:17:39Z</time>
      </trkpt>
      <trkpt lat="43.82611" lon="1.9872">
        <ele>252.2</ele>
        <time>2020-07-15T13:17:40Z</time>
      </trkpt>
      <trkpt lat="43.82614" lon="1.98723">
        <ele>252.6</ele>
        <time>2020-07-15T13:17:41Z</time>
      </trkpt>
      <trkpt lat="43.82617" lon="1.98725">
        <ele>253.2</ele>
        <time>2020-07-15T13:17:42Z</time>
      </trkpt>
      <trkpt lat="43.8262" lon="1.98728">
        <ele>253.6</ele>
        <time>2020-07-15T13:17:43Z</time>
      </trkpt>
      <trkpt lat="43.82623" lon="1.98731">
        <ele>254</ele>
        <time>2020-07-15T13:17:44Z</time>
      </trkpt>
      <trkpt lat="43.82626" lon="1.98734">
        <ele>254.6</ele>
        <time>2020-07-15T13:17:45Z</time>
      </trkpt>
      <trkpt lat="43.82629" lon="1.98736">
        <ele>255</ele>
        <time>2020-07-15T13:17:46Z</time>
      </trkpt>
      <trkpt lat="43.82632" lon="1.98739">
        <ele>255.4</ele>
        <time>2020-07-15T13:17:47Z</time>
      </trkpt>
      <trkpt lat="43.82635" lon="1.98741">
        <ele>256</ele>
        <time>2020-07-15T13:17:48Z</time>
      </trkpt>
      <trkpt lat="43.82638" lon="1.98744">
        <ele>256.4</ele>
        <time>2020-07-15T13:17:49Z</time>
      </trkpt>
      <trkpt lat="43.82641" lon="1.98746">
        <ele>256.8</ele>
        <time>2020-07-15T13:17:50Z</time>
      </trkpt>
      <trkpt lat="43.82644" lon="1.98749">
        <ele>257.2</ele>
        <time>2020-07-15T13:17:51Z</time>
      </trkpt>
      <trkpt lat="43.82647" lon="1.98752">
        <ele>257.6</ele>
        <time>2020-07-15T13:17:52Z</time>
      </trkpt>
      <trkpt lat="43.8265" lon="1.98754">
        <ele>258</ele>
        <time>2020-07-15T13:17:53Z</time>
      </trkpt>
      <trkpt lat="43.82653" lon="1.98756">
        <ele>258.4</ele>
        <time>2020-07-15T13:17:54Z</time>
      </trkpt>
      <trkpt lat="43.82657" lon="1.98757">
        <ele>258.8</ele>
        <time>2020-07-15T13:17:55Z</time>
      </trkpt>
      <trkpt lat="43.8266" lon="1.98757">
        <ele>259.2</ele>
        <time>2020-07-15T13:17:56Z</time>
      </trkpt>
      <trkpt lat="43.82663" lon="1.98756">
        <ele>259.6</ele>
        <time>2020-07-15T13:17:57Z</time>
      </trkpt>
      <trkpt lat="43.82667" lon="1.98755">
        <ele>260</ele>
        <time>2020-07-15T13:17:58Z</time>
      </trkpt>
      <trkpt lat="43.8267" lon="1.98753">
        <ele>260.4</ele>
        <time>2020-07-15T13:17:59Z</time>
      </trkpt>
      <trkpt lat="43.82673" lon="1.98751">
        <ele>260.8</ele>
        <time>2020-07-15T13:18:00Z</time>
      </trkpt>
      <trkpt lat="43.82675" lon="1.98749">
        <ele>261.4</ele>
        <time>2020-07-15T13:18:01Z</time>
      </trkpt>
      <trkpt lat="43.82678" lon="1.98746">
        <ele>261.8</ele>
        <time>2020-07-15T13:18:02Z</time>
      </trkpt>
      <trkpt lat="43.82681" lon="1.98743">
        <ele>262.2</ele>
        <time>2020-07-15T13:18:03Z</time>
      </trkpt>
      <trkpt lat="43.82683" lon="1.98739">
        <ele>262.8</ele>
        <time>2020-07-15T13:18:04Z</time>
      </trkpt>
      <trkpt lat="43.82685" lon="1.98735">
        <ele>263.2</ele>
        <time>2020-07-15T13:18:05Z</time>
      </trkpt>
      <trkpt lat="43.82687" lon="1.98732">
        <ele>263.6</ele>
        <time>2020-07-15T13:18:06Z</time>
      </trkpt>
      <trkpt lat="43.82689" lon="1.98728">
        <ele>264</ele>
        <time>2020-07-15T13:18:07Z</time>
      </trkpt>
      <trkpt lat="43.82691" lon="1.98724">
        <ele>264.6</ele>
        <time>2020-07-15T13:18:08Z</time>
      </trkpt>
      <trkpt lat="43.82693" lon="1.9872">
        <ele>265</ele>
        <time>2020-07-15T13:18:09Z</time>
      </trkpt>
      <trkpt lat="43.82695" lon="1.98716">
        <ele>265.4</ele>
        <time>2020-07-15T13:18:10Z</time>
      </trkpt>
      <trkpt lat="43.82697" lon="1.98712">
        <ele>265.8</ele>
        <time>2020-07-15T13:18:11Z</time>
      </trkpt>
      <trkpt lat="43.82698" lon="1.98708">
        <ele>266.2</ele>
        <time>2020-07-15T13:18:12Z</time>
      </trkpt>
      <trkpt lat="43.827" lon="1.98704">
        <ele>266.6</ele>
        <time>2020-07-15T13:18:13Z</time>
      </trkpt>
      <trkpt lat="43.82701" lon="1.98701">
        <ele>267</ele>
        <time>2020-07-15T13:18:14Z</time>
      </trkpt>
      <trkpt lat="43.82703" lon="1.98697">
        <ele>267.4</ele>
        <time>2020-07-15T13:18:15Z</time>
      </trkpt>
      <trkpt lat="43.82704" lon="1.98693">
        <ele>268</ele>
        <time>2020-07-15T13:18:16Z</time>
      </trkpt>
      <trkpt lat="43.82705" lon="1.98689">
        <ele>268.2</ele>
        <time>2020-07-15T13:18:17Z</time>
      </trkpt>
      <trkpt lat="43.82707" lon="1.98685">
        <ele>268.6</ele>
        <time>2020-07-15T13:18:18Z</time>
      </trkpt>
      <trkpt lat="43.82708" lon="1.98681">
        <ele>269</ele>
        <time>2020-07-15T13:18:19Z</time>
      </trkpt>
      <trkpt lat="43.82709" lon="1.98677">
        <ele>269.6</ele>
        <time>2020-07-15T13:18:20Z</time>
      </trkpt>
      <trkpt lat="43.8271" lon="1.98673">
        <ele>270</ele>
        <time>2020-07-15T13:18:21Z</time>
      </trkpt>
      <trkpt lat="43.82711" lon="1.98669">
        <ele>270.4</ele>
        <time>2020-07-15T13:18:22Z</time>
      </trkpt>
      <trkpt lat="43.82713" lon="1.98665">
        <ele>270.8</ele>
        <time>2020-07-15T13:18:23Z</time>
      </trkpt>
      <trkpt lat="43.82713" lon="1.98661">
        <ele>271.2</ele>
        <time>2020-07-15T13:18:24Z</time>
      </trkpt>
      <trkpt lat="43.82715" lon="1.98657">
        <ele>271.6</ele>
        <time>2020-07-15T13:18:25Z</time>
      </trkpt>
      <trkpt lat="43.82716" lon="1.98653">
        <ele>272.2</ele>
        <time>2020-07-15T13:18:26Z</time>
      </trkpt>
      <trkpt lat="43.82718" lon="1.98649">
        <ele>272.6</ele>
        <time>2020-07-15T13:18:27Z</time>
      </trkpt>
      <trkpt lat="43.82719" lon="1.98646">
        <ele>273</ele>
        <time>2020-07-15T13:18:28Z</time>
      </trkpt>
      <trkpt lat="43.8272" lon="1.98642">
        <ele>273.4</ele>
        <time>2020-07-15T13:18:29Z</time>
      </trkpt>
      <trkpt lat="43.82721" lon="1.98638">
        <ele>273.8</ele>
        <time>2020-07-15T13:18:30Z</time>
      </trkpt>
      <trkpt lat="43.82722" lon="1.98635">
        <ele>274.4</ele>
        <time>2020-07-15T13:18:31Z</time>
      </trkpt>
      <trkpt lat="43.82723" lon="1.98631">
        <ele>274.8</ele>
        <time>2020-07-15T13:18:32Z</time>
      </trkpt>
      <trkpt lat="43.82725" lon="1.98628">
        <ele>275.2</ele>
        <time>2020-07-15T13:18:33Z</time>
      </trkpt>
      <trkpt lat="43.82726" lon="1.98625">
        <ele>275.8</ele>
        <time>2020-07-15T13:18:34Z</time>
      </trkpt>
      <trkpt lat="43.82727" lon="1.98622">
        <ele>276.2</ele>
        <time>2020-07-15T13:18:35Z</time>
      </trkpt>
      <trkpt lat="43.82729" lon="1.98619">
        <ele>276.6</ele>
        <time>2020-07-15T13:18:36Z</time>
      </trkpt>
      <trkpt lat="43.8273" lon="1.98616">
        <ele>277</ele>
        <time>2020-07-15T13:18:37Z</time>
      </trkpt>
      <trkpt lat="43.82731" lon="1.98612">
        <ele>277.4</ele>
        <time>2020-07-15T13:18:38Z</time>
      </trkpt>
      <trkpt lat="43.82733" lon="1.98608">
        <ele>278</ele>
        <time>2020-07-15T13:18:39Z</time>
      </trkpt>
      <trkpt lat="43.82735" lon="1.98604">
        <ele>278.2</ele>
        <time>2020-07-15T13:18:40Z</time>
      </trkpt>
      <trkpt lat="43.82736" lon="1.98601">
        <ele>278.6</ele>
        <time>2020-07-15T13:18:41Z</time>
      </trkpt>
      <trkpt lat="43.82738" lon="1.98597">
        <ele>279</ele>
        <time>2020-07-15T13:18:42Z</time>
      </trkpt>
      <trkpt lat="43.8274" lon="1.98593">
        <ele>279.4</ele>
        <time>2020-07-15T13:18:43Z</time>
      </trkpt>
      <trkpt lat="43.82742" lon="1.98589">
        <ele>279.8</ele>
        <time>2020-07-15T13:18:44Z</time>
      </trkpt>
      <trkpt lat="43.82744" lon="1.98585">
        <ele>280.2</ele>
        <time>2020-07-15T13:18:45Z</time>
      </trkpt>
      <trkpt lat="43.82745" lon="1.98581">
        <ele>280.6</ele>
        <time>2020-07-15T13:18:46Z</time>
      </trkpt>
      <trkpt lat="43.82746" lon="1.98577">
        <ele>280.8</ele>
        <time>2020-07-15T13:18:47Z</time>
      </trkpt>
      <trkpt lat="43.82747" lon="1.98572">
        <ele>281.2</ele>
        <time>2020-07-15T13:18:48Z</time>
      </trkpt>
      <trkpt lat="43.82748" lon="1.98568">
        <ele>281.4</ele>
        <time>2020-07-15T13:18:49Z</time>
      </trkpt>
      <trkpt lat="43.8275" lon="1.98564">
        <ele>281.6</ele>
        <time>2020-07-15T13:18:50Z</time>
      </trkpt>
      <trkpt lat="43.82751" lon="1.9856">
        <ele>281.8</ele>
        <time>2020-07-15T13:18:51Z</time>
      </trkpt>
      <trkpt lat="43.82752" lon="1.98556">
        <ele>282.2</ele>
        <time>2020-07-15T13:18:52Z</time>
      </trkpt>
      <trkpt lat="43.82753" lon="1.98551">
        <ele>282.4</ele>
        <time>2020-07-15T13:18:53Z</time>
      </trkpt>
      <trkpt lat="43.82753" lon="1.98546">
        <ele>282.8</ele>
        <time>2020-07-15T13:18:54Z</time>
      </trkpt>
      <trkpt lat="43.82753" lon="1.98542">
        <ele>283.2</ele>
        <time>2020-07-15T13:18:55Z</time>
      </trkpt>
      <trkpt lat="43.82754" lon="1.98537">
        <ele>283.6</ele>
        <time>2020-07-15T13:18:56Z</time>
      </trkpt>
      <trkpt lat="43.82755" lon="1.98532">
        <ele>284</ele>
        <time>2020-07-15T13:18:57Z</time>
      </trkpt>
      <trkpt lat="43.82756" lon="1.98527">
        <ele>284.4</ele>
        <time>2020-07-15T13:18:58Z</time>
      </trkpt>
      <trkpt lat="43.82756" lon="1.98522">
        <ele>284.8</ele>
        <time>2020-07-15T13:18:59Z</time>
      </trkpt>
      <trkpt lat="43.82756" lon="1.98517">
        <ele>285</ele>
        <time>2020-07-15T13:19:00Z</time>
      </trkpt>
      <trkpt lat="43.82756" lon="1.98513">
        <ele>285.2</ele>
        <time>2020-07-15T13:19:01Z</time>
      </trkpt>
      <trkpt lat="43.82757" lon="1.98506">
        <ele>285.6</ele>
        <time>2020-07-15T13:19:02Z</time>
      </trkpt>
      <trkpt lat="43.82757" lon="1.98501">
        <ele>286</ele>
        <time>2020-07-15T13:19:03Z</time>
      </trkpt>
      <trkpt lat="43.82758" lon="1.98496">
        <ele>286.2</ele>
        <time>2020-07-15T13:19:04Z</time>
      </trkpt>
      <trkpt lat="43.82758" lon="1.9849">
        <ele>286.4</ele>
        <time>2020-07-15T13:19:05Z</time>
      </trkpt>
      <trkpt lat="43.82758" lon="1.98485">
        <ele>286.6</ele>
        <time>2020-07-15T13:19:06Z</time>
      </trkpt>
      <trkpt lat="43.82759" lon="1.9848">
        <ele>286.8</ele>
        <time>2020-07-15T13:19:07Z</time>
      </trkpt>
      <trkpt lat="43.8276" lon="1.98474">
        <ele>287</ele>
        <time>2020-07-15T13:19:08Z</time>
      </trkpt>
      <trkpt lat="43.8276" lon="1.98469">
        <ele>287.2</ele>
        <time>2020-07-15T13:19:09Z</time>
      </trkpt>
      <trkpt lat="43.8276" lon="1.98463">
        <ele>287.4</ele>
        <time>2020-07-15T13:19:10Z</time>
      </trkpt>
      <trkpt lat="43.82761" lon="1.98458">
        <ele>287.6</ele>
        <time>2020-07-15T13:19:11Z</time>
      </trkpt>
      <trkpt lat="43.82762" lon="1.98453">
        <ele>287.8</ele>
        <time>2020-07-15T13:19:12Z</time>
      </trkpt>
      <trkpt lat="43.82763" lon="1.98448">
        <ele>287.8</ele>
        <time>2020-07-15T13:19:13Z</time>
      </trkpt>
      <trkpt lat="43.82764" lon="1.98442">
        <ele>288</ele>
        <time>2020-07-15T13:19:14Z</time>
      </trkpt>
      <trkpt lat="43.82764" lon="1.98435">
        <ele>288</ele>
        <time>2020-07-15T13:19:15Z</time>
      </trkpt>
      <trkpt lat="43.82765" lon="1.98429">
        <ele>288</ele>
        <time>2020-07-15T13:19:16Z</time>
      </trkpt>
      <trkpt lat="43.82766" lon="1.98422">
        <ele>288</ele>
        <time>2020-07-15T13:19:17Z</time>
      </trkpt>
      <trkpt lat="43.82767" lon="1.98415">
        <ele>288</ele>
        <time>2020-07-15T13:19:18Z</time>
      </trkpt>
      <trkpt lat="43.82768" lon="1.98408">
        <ele>288</ele>
        <time>2020-07-15T13:19:19Z</time>
      </trkpt>
      <trkpt lat="43.82768" lon="1.98401">
        <ele>288</ele>
        <time>2020-07-15T13:19:20Z</time>
      </trkpt>
      <trkpt lat="43.82769" lon="1.98394">
        <ele>288</ele>
        <time>2020-07-15T13:19:21Z</time>
      </trkpt>
      <trkpt lat="43.8277" lon="1.98387">
        <ele>288</ele>
        <time>2020-07-15T13:19:22Z</time>
      </trkpt>
      <trkpt lat="43.82771" lon="1.9838">
        <ele>288.2</ele>
        <time>2020-07-15T13:19:23Z</time>
      </trkpt>
      <trkpt lat="43.82772" lon="1.98373">
        <ele>288.2</ele>
        <time>2020-07-15T13:19:24Z</time>
      </trkpt>
      <trkpt lat="43.82773" lon="1.98367">
        <ele>288.4</ele>
        <time>2020-07-15T13:19:25Z</time>
      </trkpt>
      <trkpt lat="43.82774" lon="1.9836">
        <ele>288.6</ele>
        <time>2020-07-15T13:19:26Z</time>
      </trkpt>
      <trkpt lat="43.82774" lon="1.98354">
        <ele>288.6</ele>
        <time>2020-07-15T13:19:27Z</time>
      </trkpt>
      <trkpt lat="43.82776" lon="1.98348">
        <ele>288.8</ele>
        <time>2020-07-15T13:19:28Z</time>
      </trkpt>
      <trkpt lat="43.82777" lon="1.98342">
        <ele>288.8</ele>
        <time>2020-07-15T13:19:29Z</time>
      </trkpt>
      <trkpt lat="43.82777" lon="1.98335">
        <ele>289</ele>
        <time>2020-07-15T13:19:30Z</time>
      </trkpt>
      <trkpt lat="43.82778" lon="1.98329">
        <ele>289.2</ele>
        <time>2020-07-15T13:19:31Z</time>
      </trkpt>
      <trkpt lat="43.82779" lon="1.98323">
        <ele>289.4</ele>
        <time>2020-07-15T13:19:32Z</time>
      </trkpt>
      <trkpt lat="43.82781" lon="1.98318">
        <ele>289.6</ele>
        <time>2020-07-15T13:19:33Z</time>
      </trkpt>
      <trkpt lat="43.82781" lon="1.98313">
        <ele>290</ele>
        <time>2020-07-15T13:19:34Z</time>
      </trkpt>
      <trkpt lat="43.82783" lon="1.98308">
        <ele>290.2</ele>
        <time>2020-07-15T13:19:35Z</time>
      </trkpt>
      <trkpt lat="43.82784" lon="1.98303">
        <ele>290.6</ele>
        <time>2020-07-15T13:19:36Z</time>
      </trkpt>
      <trkpt lat="43.82784" lon="1.98298">
        <ele>290.8</ele>
        <time>2020-07-15T13:19:37Z</time>
      </trkpt>
      <trkpt lat="43.82785" lon="1.98293">
        <ele>291</ele>
        <time>2020-07-15T13:19:38Z</time>
      </trkpt>
      <trkpt lat="43.82786" lon="1.98288">
        <ele>291.4</ele>
        <time>2020-07-15T13:19:39Z</time>
      </trkpt>
      <trkpt lat="43.82787" lon="1.98283">
        <ele>291.6</ele>
        <time>2020-07-15T13:19:40Z</time>
      </trkpt>
      <trkpt lat="43.82789" lon="1.98278">
        <ele>291.8</ele>
        <time>2020-07-15T13:19:41Z</time>
      </trkpt>
      <trkpt lat="43.82791" lon="1.98273">
        <ele>292</ele>
        <time>2020-07-15T13:19:42Z</time>
      </trkpt>
      <trkpt lat="43.82793" lon="1.98268">
        <ele>292.2</ele>
        <time>2020-07-15T13:19:43Z</time>
      </trkpt>
      <trkpt lat="43.82795" lon="1.98263">
        <ele>292.2</ele>
        <time>2020-07-15T13:19:44Z</time>
      </trkpt>
      <trkpt lat="43.82798" lon="1.98257">
        <ele>292.2</ele>
        <time>2020-07-15T13:19:45Z</time>
      </trkpt>
      <trkpt lat="43.828" lon="1.98252">
        <ele>292.2</ele>
        <time>2020-07-15T13:19:46Z</time>
      </trkpt>
      <trkpt lat="43.82803" lon="1.98245">
        <ele>292</ele>
        <time>2020-07-15T13:19:47Z</time>
      </trkpt>
      <trkpt lat="43.82806" lon="1.98238">
        <ele>291.8</ele>
        <time>2020-07-15T13:19:48Z</time>
      </trkpt>
      <trkpt lat="43.8281" lon="1.98231">
        <ele>291.6</ele>
        <time>2020-07-15T13:19:49Z</time>
      </trkpt>
      <trkpt lat="43.82813" lon="1.98224">
        <ele>291.6</ele>
        <time>2020-07-15T13:19:50Z</time>
      </trkpt>
      <trkpt lat="43.82816" lon="1.98216">
        <ele>291.6</ele>
        <time>2020-07-15T13:19:51Z</time>
      </trkpt>
      <trkpt lat="43.82818" lon="1.98208">
        <ele>291.4</ele>
        <time>2020-07-15T13:19:52Z</time>
      </trkpt>
      <trkpt lat="43.82821" lon="1.982">
        <ele>291.2</ele>
        <time>2020-07-15T13:19:53Z</time>
      </trkpt>
      <trkpt lat="43.82823" lon="1.98192">
        <ele>291.2</ele>
        <time>2020-07-15T13:19:54Z</time>
      </trkpt>
      <trkpt lat="43.82825" lon="1.98184">
        <ele>291.2</ele>
        <time>2020-07-15T13:19:55Z</time>
      </trkpt>
      <trkpt lat="43.82827" lon="1.98176">
        <ele>291.2</ele>
        <time>2020-07-15T13:19:56Z</time>
      </trkpt>
      <trkpt lat="43.82829" lon="1.98169">
        <ele>291.4</ele>
        <time>2020-07-15T13:19:57Z</time>
      </trkpt>
      <trkpt lat="43.8283" lon="1.98161">
        <ele>291.4</ele>
        <time>2020-07-15T13:19:58Z</time>
      </trkpt>
      <trkpt lat="43.82832" lon="1.98155">
        <ele>291.4</ele>
        <time>2020-07-15T13:19:59Z</time>
      </trkpt>
      <trkpt lat="43.82833" lon="1.98148">
        <ele>291.6</ele>
        <time>2020-07-15T13:20:00Z</time>
      </trkpt>
      <trkpt lat="43.82835" lon="1.98142">
        <ele>291.6</ele>
        <time>2020-07-15T13:20:01Z</time>
      </trkpt>
      <trkpt lat="43.82836" lon="1.98135">
        <ele>291.8</ele>
        <time>2020-07-15T13:20:02Z</time>
      </trkpt>
      <trkpt lat="43.82838" lon="1.98128">
        <ele>291.8</ele>
        <time>2020-07-15T13:20:03Z</time>
      </trkpt>
      <trkpt lat="43.8284" lon="1.98122">
        <ele>292</ele>
        <time>2020-07-15T13:20:04Z</time>
      </trkpt>
      <trkpt lat="43.82841" lon="1.98116">
        <ele>292</ele>
        <time>2020-07-15T13:20:05Z</time>
      </trkpt>
      <trkpt lat="43.82842" lon="1.9811">
        <ele>292.2</ele>
        <time>2020-07-15T13:20:06Z</time>
      </trkpt>
      <trkpt lat="43.82843" lon="1.98105">
        <ele>292.4</ele>
        <time>2020-07-15T13:20:07Z</time>
      </trkpt>
      <trkpt lat="43.82844" lon="1.98099">
        <ele>292.6</ele>
        <time>2020-07-15T13:20:08Z</time>
      </trkpt>
      <trkpt lat="43.82845" lon="1.98094">
        <ele>292.8</ele>
        <time>2020-07-15T13:20:09Z</time>
      </trkpt>
      <trkpt lat="43.82846" lon="1.98088">
        <ele>293.2</ele>
        <time>2020-07-15T13:20:10Z</time>
      </trkpt>
      <trkpt lat="43.82847" lon="1.98082">
        <ele>293.6</ele>
        <time>2020-07-15T13:20:11Z</time>
      </trkpt>
      <trkpt lat="43.82848" lon="1.98076">
        <ele>293.8</ele>
        <time>2020-07-15T13:20:12Z</time>
      </trkpt>
      <trkpt lat="43.82848" lon="1.98069">
        <ele>294.2</ele>
        <time>2020-07-15T13:20:13Z</time>
      </trkpt>
      <trkpt lat="43.82849" lon="1.98063">
        <ele>294.4</ele>
        <time>2020-07-15T13:20:14Z</time>
      </trkpt>
      <trkpt lat="43.8285" lon="1.98057">
        <ele>294.6</ele>
        <time>2020-07-15T13:20:15Z</time>
      </trkpt>
      <trkpt lat="43.8285" lon="1.98051">
        <ele>294.8</ele>
        <time>2020-07-15T13:20:16Z</time>
      </trkpt>
      <trkpt lat="43.8285" lon="1.98045">
        <ele>295.2</ele>
        <time>2020-07-15T13:20:17Z</time>
      </trkpt>
      <trkpt lat="43.8285" lon="1.9804">
        <ele>295.4</ele>
        <time>2020-07-15T13:20:18Z</time>
      </trkpt>
      <trkpt lat="43.82851" lon="1.98034">
        <ele>295.6</ele>
        <time>2020-07-15T13:20:19Z</time>
      </trkpt>
      <trkpt lat="43.82851" lon="1.98028">
        <ele>295.8</ele>
        <time>2020-07-15T13:20:20Z</time>
      </trkpt>
      <trkpt lat="43.82851" lon="1.98022">
        <ele>296</ele>
        <time>2020-07-15T13:20:21Z</time>
      </trkpt>
      <trkpt lat="43.82852" lon="1.98016">
        <ele>296.2</ele>
        <time>2020-07-15T13:20:22Z</time>
      </trkpt>
      <trkpt lat="43.82852" lon="1.9801">
        <ele>296.4</ele>
        <time>2020-07-15T13:20:23Z</time>
      </trkpt>
      <trkpt lat="43.82852" lon="1.98004">
        <ele>296.4</ele>
        <time>2020-07-15T13:20:24Z</time>
      </trkpt>
      <trkpt lat="43.82853" lon="1.97998">
        <ele>296.6</ele>
        <time>2020-07-15T13:20:25Z</time>
      </trkpt>
      <trkpt lat="43.82853" lon="1.97992">
        <ele>296.8</ele>
        <time>2020-07-15T13:20:26Z</time>
      </trkpt>
      <trkpt lat="43.82855" lon="1.97988">
        <ele>297</ele>
        <time>2020-07-15T13:20:27Z</time>
      </trkpt>
      <trkpt lat="43.82856" lon="1.97984">
        <ele>297.2</ele>
        <time>2020-07-15T13:20:28Z</time>
      </trkpt>
      <trkpt lat="43.82858" lon="1.97979">
        <ele>297.2</ele>
        <time>2020-07-15T13:20:29Z</time>
      </trkpt>
      <trkpt lat="43.82859" lon="1.97975">
        <ele>297.4</ele>
        <time>2020-07-15T13:20:30Z</time>
      </trkpt>
      <trkpt lat="43.82859" lon="1.97971">
        <ele>297.4</ele>
        <time>2020-07-15T13:20:31Z</time>
      </trkpt>
      <trkpt lat="43.8286" lon="1.97967">
        <ele>297.6</ele>
        <time>2020-07-15T13:20:32Z</time>
      </trkpt>
      <trkpt lat="43.82861" lon="1.97962">
        <ele>297.6</ele>
        <time>2020-07-15T13:20:33Z</time>
      </trkpt>
      <trkpt lat="43.82863" lon="1.97958">
        <ele>297.6</ele>
        <time>2020-07-15T13:20:34Z</time>
      </trkpt>
      <trkpt lat="43.82865" lon="1.97954">
        <ele>297.6</ele>
        <time>2020-07-15T13:20:35Z</time>
      </trkpt>
      <trkpt lat="43.82868" lon="1.97953">
        <ele>297.6</ele>
        <time>2020-07-15T13:20:36Z</time>
      </trkpt>
      <trkpt lat="43.82871" lon="1.97953">
        <ele>297.8</ele>
        <time>2020-07-15T13:20:37Z</time>
      </trkpt>
      <trkpt lat="43.82873" lon="1.97955">
        <ele>297.8</ele>
        <time>2020-07-15T13:20:38Z</time>
      </trkpt>
      <trkpt lat="43.82877" lon="1.97955">
        <ele>298</ele>
        <time>2020-07-15T13:20:39Z</time>
      </trkpt>
      <trkpt lat="43.82879" lon="1.97957">
        <ele>298</ele>
        <time>2020-07-15T13:20:40Z</time>
      </trkpt>
      <trkpt lat="43.82882" lon="1.97958">
        <ele>298.2</ele>
        <time>2020-07-15T13:20:41Z</time>
      </trkpt>
      <trkpt lat="43.82885" lon="1.9796">
        <ele>298.4</ele>
        <time>2020-07-15T13:20:42Z</time>
      </trkpt>
      <trkpt lat="43.82888" lon="1.97961">
        <ele>298.6</ele>
        <time>2020-07-15T13:20:43Z</time>
      </trkpt>
      <trkpt lat="43.82892" lon="1.97962">
        <ele>298.8</ele>
        <time>2020-07-15T13:20:44Z</time>
      </trkpt>
      <trkpt lat="43.82896" lon="1.97962">
        <ele>299</ele>
        <time>2020-07-15T13:20:45Z</time>
      </trkpt>
      <trkpt lat="43.82899" lon="1.9796">
        <ele>299</ele>
        <time>2020-07-15T13:20:46Z</time>
      </trkpt>
      <trkpt lat="43.82901" lon="1.97958">
        <ele>299</ele>
        <time>2020-07-15T13:20:47Z</time>
      </trkpt>
      <trkpt lat="43.82904" lon="1.97954">
        <ele>299</ele>
        <time>2020-07-15T13:20:48Z</time>
      </trkpt>
      <trkpt lat="43.82907" lon="1.9795">
        <ele>299</ele>
        <time>2020-07-15T13:20:49Z</time>
      </trkpt>
      <trkpt lat="43.82909" lon="1.97946">
        <ele>298.8</ele>
        <time>2020-07-15T13:20:50Z</time>
      </trkpt>
      <trkpt lat="43.82911" lon="1.97943">
        <ele>298.6</ele>
        <time>2020-07-15T13:20:51Z</time>
      </trkpt>
      <trkpt lat="43.82915" lon="1.97939">
        <ele>298.4</ele>
        <time>2020-07-15T13:20:52Z</time>
      </trkpt>
      <trkpt lat="43.82918" lon="1.97934">
        <ele>298.2</ele>
        <time>2020-07-15T13:20:53Z</time>
      </trkpt>
      <trkpt lat="43.82922" lon="1.9793">
        <ele>297.8</ele>
        <time>2020-07-15T13:20:54Z</time>
      </trkpt>
      <trkpt lat="43.82927" lon="1.97924">
        <ele>297.6</ele>
        <time>2020-07-15T13:20:55Z</time>
      </trkpt>
      <trkpt lat="43.82931" lon="1.97919">
        <ele>297.2</ele>
        <time>2020-07-15T13:20:56Z</time>
      </trkpt>
      <trkpt lat="43.82935" lon="1.97914">
        <ele>296.8</ele>
        <time>2020-07-15T13:20:57Z</time>
      </trkpt>
      <trkpt lat="43.82941" lon="1.97907">
        <ele>296.4</ele>
        <time>2020-07-15T13:20:58Z</time>
      </trkpt>
      <trkpt lat="43.82946" lon="1.97899">
        <ele>296.2</ele>
        <time>2020-07-15T13:20:59Z</time>
      </trkpt>
      <trkpt lat="43.82952" lon="1.97891">
        <ele>295.8</ele>
        <time>2020-07-15T13:21:00Z</time>
      </trkpt>
      <trkpt lat="43.82958" lon="1.97883">
        <ele>295.6</ele>
        <time>2020-07-15T13:21:01Z</time>
      </trkpt>
      <trkpt lat="43.82964" lon="1.97875">
        <ele>295.4</ele>
        <time>2020-07-15T13:21:02Z</time>
      </trkpt>
      <trkpt lat="43.8297" lon="1.97867">
        <ele>295.2</ele>
        <time>2020-07-15T13:21:03Z</time>
      </trkpt>
      <trkpt lat="43.82976" lon="1.97859">
        <ele>295</ele>
        <time>2020-07-15T13:21:04Z</time>
      </trkpt>
      <trkpt lat="43.82982" lon="1.9785">
        <ele>294.8</ele>
        <time>2020-07-15T13:21:05Z</time>
      </trkpt>
      <trkpt lat="43.82988" lon="1.97842">
        <ele>294.6</ele>
        <time>2020-07-15T13:21:06Z</time>
      </trkpt>
      <trkpt lat="43.82994" lon="1.97835">
        <ele>294.4</ele>
        <time>2020-07-15T13:21:07Z</time>
      </trkpt>
      <trkpt lat="43.82999" lon="1.97828">
        <ele>294.2</ele>
        <time>2020-07-15T13:21:08Z</time>
      </trkpt>
      <trkpt lat="43.83004" lon="1.97821">
        <ele>293.8</ele>
        <time>2020-07-15T13:21:09Z</time>
      </trkpt>
      <trkpt lat="43.83009" lon="1.97814">
        <ele>293.8</ele>
        <time>2020-07-15T13:21:10Z</time>
      </trkpt>
      <trkpt lat="43.83015" lon="1.97807">
        <ele>293.6</ele>
        <time>2020-07-15T13:21:11Z</time>
      </trkpt>
      <trkpt lat="43.8302" lon="1.97799">
        <ele>293.4</ele>
        <time>2020-07-15T13:21:12Z</time>
      </trkpt>
      <trkpt lat="43.83026" lon="1.97792">
        <ele>293.2</ele>
        <time>2020-07-15T13:21:13Z</time>
      </trkpt>
      <trkpt lat="43.83031" lon="1.97786">
        <ele>293</ele>
        <time>2020-07-15T13:21:14Z</time>
      </trkpt>
      <trkpt lat="43.83037" lon="1.97782">
        <ele>293</ele>
        <time>2020-07-15T13:21:15Z</time>
      </trkpt>
      <trkpt lat="43.83043" lon="1.97777">
        <ele>292.8</ele>
        <time>2020-07-15T13:21:16Z</time>
      </trkpt>
      <trkpt lat="43.83048" lon="1.97771">
        <ele>292.6</ele>
        <time>2020-07-15T13:21:17Z</time>
      </trkpt>
      <trkpt lat="43.83052" lon="1.97764">
        <ele>292.6</ele>
        <time>2020-07-15T13:21:18Z</time>
      </trkpt>
      <trkpt lat="43.83057" lon="1.97757">
        <ele>292.4</ele>
        <time>2020-07-15T13:21:19Z</time>
      </trkpt>
      <trkpt lat="43.83061" lon="1.97749">
        <ele>292.4</ele>
        <time>2020-07-15T13:21:20Z</time>
      </trkpt>
      <trkpt lat="43.83065" lon="1.97741">
        <ele>292.2</ele>
        <time>2020-07-15T13:21:21Z</time>
      </trkpt>
      <trkpt lat="43.8307" lon="1.97732">
        <ele>292.2</ele>
        <time>2020-07-15T13:21:22Z</time>
      </trkpt>
      <trkpt lat="43.83075" lon="1.97724">
        <ele>292</ele>
        <time>2020-07-15T13:21:23Z</time>
      </trkpt>
      <trkpt lat="43.83081" lon="1.97716">
        <ele>292</ele>
        <time>2020-07-15T13:21:24Z</time>
      </trkpt>
      <trkpt lat="43.83086" lon="1.9771">
        <ele>292</ele>
        <time>2020-07-15T13:21:25Z</time>
      </trkpt>
      <trkpt lat="43.83091" lon="1.97703">
        <ele>292</ele>
        <time>2020-07-15T13:21:26Z</time>
      </trkpt>
      <trkpt lat="43.83098" lon="1.97698">
        <ele>292</ele>
        <time>2020-07-15T13:21:27Z</time>
      </trkpt>
      <trkpt lat="43.83103" lon="1.97695">
        <ele>292</ele>
        <time>2020-07-15T13:21:28Z</time>
      </trkpt>
      <trkpt lat="43.8311" lon="1.97691">
        <ele>292</ele>
        <time>2020-07-15T13:21:29Z</time>
      </trkpt>
      <trkpt lat="43.83117" lon="1.97688">
        <ele>291.8</ele>
        <time>2020-07-15T13:21:30Z</time>
      </trkpt>
      <trkpt lat="43.83124" lon="1.97684">
        <ele>291.8</ele>
        <time>2020-07-15T13:21:31Z</time>
      </trkpt>
      <trkpt lat="43.83131" lon="1.97681">
        <ele>291.8</ele>
        <time>2020-07-15T13:21:32Z</time>
      </trkpt>
      <trkpt lat="43.83137" lon="1.97677">
        <ele>291.6</ele>
        <time>2020-07-15T13:21:33Z</time>
      </trkpt>
      <trkpt lat="43.83144" lon="1.97672">
        <ele>291.4</ele>
        <time>2020-07-15T13:21:34Z</time>
      </trkpt>
      <trkpt lat="43.83151" lon="1.97667">
        <ele>291</ele>
        <time>2020-07-15T13:21:35Z</time>
      </trkpt>
      <trkpt lat="43.83156" lon="1.97661">
        <ele>290.6</ele>
        <time>2020-07-15T13:21:36Z</time>
      </trkpt>
      <trkpt lat="43.83163" lon="1.97654">
        <ele>290.4</ele>
        <time>2020-07-15T13:21:37Z</time>
      </trkpt>
      <trkpt lat="43.83169" lon="1.97647">
        <ele>290.2</ele>
        <time>2020-07-15T13:21:38Z</time>
      </trkpt>
      <trkpt lat="43.83174" lon="1.9764">
        <ele>290</ele>
        <time>2020-07-15T13:21:39Z</time>
      </trkpt>
      <trkpt lat="43.83179" lon="1.97634">
        <ele>289.8</ele>
        <time>2020-07-15T13:21:40Z</time>
      </trkpt>
      <trkpt lat="43.83184" lon="1.97627">
        <ele>289.8</ele>
        <time>2020-07-15T13:21:41Z</time>
      </trkpt>
      <trkpt lat="43.8319" lon="1.9762">
        <ele>289.8</ele>
        <time>2020-07-15T13:21:42Z</time>
      </trkpt>
      <trkpt lat="43.83196" lon="1.97613">
        <ele>289.8</ele>
        <time>2020-07-15T13:21:43Z</time>
      </trkpt>
      <trkpt lat="43.83201" lon="1.97608">
        <ele>289.8</ele>
        <time>2020-07-15T13:21:44Z</time>
      </trkpt>
      <trkpt lat="43.83206" lon="1.97602">
        <ele>289.8</ele>
        <time>2020-07-15T13:21:45Z</time>
      </trkpt>
      <trkpt lat="43.83212" lon="1.97597">
        <ele>289.8</ele>
        <time>2020-07-15T13:21:46Z</time>
      </trkpt>
      <trkpt lat="43.83218" lon="1.97592">
        <ele>289.8</ele>
        <time>2020-07-15T13:21:47Z</time>
      </trkpt>
      <trkpt lat="43.83223" lon="1.97586">
        <ele>289.8</ele>
        <time>2020-07-15T13:21:48Z</time>
      </trkpt>
      <trkpt lat="43.83228" lon="1.9758">
        <ele>289.8</ele>
        <time>2020-07-15T13:21:49Z</time>
      </trkpt>
      <trkpt lat="43.83233" lon="1.97575">
        <ele>289.6</ele>
        <time>2020-07-15T13:21:50Z</time>
      </trkpt>
      <trkpt lat="43.83239" lon="1.97569">
        <ele>289.4</ele>
        <time>2020-07-15T13:21:51Z</time>
      </trkpt>
      <trkpt lat="43.83244" lon="1.97563">
        <ele>289.2</ele>
        <time>2020-07-15T13:21:52Z</time>
      </trkpt>
      <trkpt lat="43.8325" lon="1.97557">
        <ele>288.8</ele>
        <time>2020-07-15T13:21:53Z</time>
      </trkpt>
      <trkpt lat="43.83257" lon="1.97551">
        <ele>288.2</ele>
        <time>2020-07-15T13:21:54Z</time>
      </trkpt>
      <trkpt lat="43.83263" lon="1.97543">
        <ele>287.8</ele>
        <time>2020-07-15T13:21:55Z</time>
      </trkpt>
      <trkpt lat="43.8327" lon="1.97536">
        <ele>287.2</ele>
        <time>2020-07-15T13:21:56Z</time>
      </trkpt>
      <trkpt lat="43.83275" lon="1.97527">
        <ele>286.4</ele>
        <time>2020-07-15T13:21:57Z</time>
      </trkpt>
      <trkpt lat="43.83281" lon="1.97519">
        <ele>286</ele>
        <time>2020-07-15T13:21:58Z</time>
      </trkpt>
      <trkpt lat="43.83286" lon="1.97511">
        <ele>285.4</ele>
        <time>2020-07-15T13:21:59Z</time>
      </trkpt>
      <trkpt lat="43.83292" lon="1.97505">
        <ele>285</ele>
        <time>2020-07-15T13:22:00Z</time>
      </trkpt>
      <trkpt lat="43.83298" lon="1.975">
        <ele>284.4</ele>
        <time>2020-07-15T13:22:01Z</time>
      </trkpt>
      <trkpt lat="43.83305" lon="1.97497">
        <ele>284</ele>
        <time>2020-07-15T13:22:02Z</time>
      </trkpt>
      <trkpt lat="43.83313" lon="1.97493">
        <ele>283.6</ele>
        <time>2020-07-15T13:22:03Z</time>
      </trkpt>
      <trkpt lat="43.8332" lon="1.97489">
        <ele>283.4</ele>
        <time>2020-07-15T13:22:04Z</time>
      </trkpt>
      <trkpt lat="43.83328" lon="1.97485">
        <ele>283.2</ele>
        <time>2020-07-15T13:22:05Z</time>
      </trkpt>
      <trkpt lat="43.83334" lon="1.97481">
        <ele>283</ele>
        <time>2020-07-15T13:22:06Z</time>
      </trkpt>
      <trkpt lat="43.83341" lon="1.97477">
        <ele>283</ele>
        <time>2020-07-15T13:22:07Z</time>
      </trkpt>
      <trkpt lat="43.83347" lon="1.97473">
        <ele>283</ele>
        <time>2020-07-15T13:22:08Z</time>
      </trkpt>
      <trkpt lat="43.83352" lon="1.97469">
        <ele>283.2</ele>
        <time>2020-07-15T13:22:09Z</time>
      </trkpt>
      <trkpt lat="43.83358" lon="1.97466">
        <ele>283.4</ele>
        <time>2020-07-15T13:22:10Z</time>
      </trkpt>
      <trkpt lat="43.83363" lon="1.97463">
        <ele>283.6</ele>
        <time>2020-07-15T13:22:11Z</time>
      </trkpt>
      <trkpt lat="43.83368" lon="1.97461">
        <ele>283.8</ele>
        <time>2020-07-15T13:22:12Z</time>
      </trkpt>
      <trkpt lat="43.83373" lon="1.9746">
        <ele>284</ele>
        <time>2020-07-15T13:22:13Z</time>
      </trkpt>
      <trkpt lat="43.83379" lon="1.97458">
        <ele>284.2</ele>
        <time>2020-07-15T13:22:14Z</time>
      </trkpt>
      <trkpt lat="43.83384" lon="1.97457">
        <ele>284.2</ele>
        <time>2020-07-15T13:22:15Z</time>
      </trkpt>
      <trkpt lat="43.8339" lon="1.97455">
        <ele>284.4</ele>
        <time>2020-07-15T13:22:16Z</time>
      </trkpt>
      <trkpt lat="43.83396" lon="1.97454">
        <ele>284.2</ele>
        <time>2020-07-15T13:22:17Z</time>
      </trkpt>
      <trkpt lat="43.83402" lon="1.97452">
        <ele>284.2</ele>
        <time>2020-07-15T13:22:18Z</time>
      </trkpt>
      <trkpt lat="43.83408" lon="1.97451">
        <ele>284</ele>
        <time>2020-07-15T13:22:19Z</time>
      </trkpt>
      <trkpt lat="43.83415" lon="1.9745">
        <ele>283.8</ele>
        <time>2020-07-15T13:22:20Z</time>
      </trkpt>
      <trkpt lat="43.83421" lon="1.9745">
        <ele>283.4</ele>
        <time>2020-07-15T13:22:21Z</time>
      </trkpt>
      <trkpt lat="43.83428" lon="1.97452">
        <ele>283</ele>
        <time>2020-07-15T13:22:22Z</time>
      </trkpt>
      <trkpt lat="43.83435" lon="1.97454">
        <ele>282.6</ele>
        <time>2020-07-15T13:22:23Z</time>
      </trkpt>
      <trkpt lat="43.83443" lon="1.97457">
        <ele>282</ele>
        <time>2020-07-15T13:22:24Z</time>
      </trkpt>
      <trkpt lat="43.8345" lon="1.9746">
        <ele>281.6</ele>
        <time>2020-07-15T13:22:25Z</time>
      </trkpt>
      <trkpt lat="43.83457" lon="1.97465">
        <ele>281</ele>
        <time>2020-07-15T13:22:26Z</time>
      </trkpt>
      <trkpt lat="43.83465" lon="1.9747">
        <ele>280.6</ele>
        <time>2020-07-15T13:22:27Z</time>
      </trkpt>
      <trkpt lat="43.83472" lon="1.97476">
        <ele>280</ele>
        <time>2020-07-15T13:22:28Z</time>
      </trkpt>
      <trkpt lat="43.8348" lon="1.97481">
        <ele>279.4</ele>
        <time>2020-07-15T13:22:29Z</time>
      </trkpt>
      <trkpt lat="43.83487" lon="1.97484">
        <ele>278.8</ele>
        <time>2020-07-15T13:22:30Z</time>
      </trkpt>
      <trkpt lat="43.83493" lon="1.97487">
        <ele>278.2</ele>
        <time>2020-07-15T13:22:31Z</time>
      </trkpt>
      <trkpt lat="43.835" lon="1.97488">
        <ele>277.6</ele>
        <time>2020-07-15T13:22:32Z</time>
      </trkpt>
      <trkpt lat="43.83507" lon="1.97487">
        <ele>277.2</ele>
        <time>2020-07-15T13:22:33Z</time>
      </trkpt>
      <trkpt lat="43.83515" lon="1.97486">
        <ele>276.6</ele>
        <time>2020-07-15T13:22:34Z</time>
      </trkpt>
      <trkpt lat="43.83523" lon="1.97483">
        <ele>276</ele>
        <time>2020-07-15T13:22:35Z</time>
      </trkpt>
      <trkpt lat="43.83531" lon="1.9748">
        <ele>275.2</ele>
        <time>2020-07-15T13:22:36Z</time>
      </trkpt>
      <trkpt lat="43.83539" lon="1.97476">
        <ele>274.6</ele>
        <time>2020-07-15T13:22:37Z</time>
      </trkpt>
      <trkpt lat="43.83546" lon="1.97472">
        <ele>273.8</ele>
        <time>2020-07-15T13:22:38Z</time>
      </trkpt>
      <trkpt lat="43.83553" lon="1.97469">
        <ele>273.2</ele>
        <time>2020-07-15T13:22:39Z</time>
      </trkpt>
      <trkpt lat="43.83559" lon="1.97467">
        <ele>272.4</ele>
        <time>2020-07-15T13:22:40Z</time>
      </trkpt>
      <trkpt lat="43.83565" lon="1.97466">
        <ele>271.6</ele>
        <time>2020-07-15T13:22:41Z</time>
      </trkpt>
      <trkpt lat="43.8357" lon="1.97466">
        <ele>270.8</ele>
        <time>2020-07-15T13:22:42Z</time>
      </trkpt>
      <trkpt lat="43.83575" lon="1.97468">
        <ele>269.8</ele>
        <time>2020-07-15T13:22:43Z</time>
      </trkpt>
      <trkpt lat="43.8358" lon="1.97471">
        <ele>268.8</ele>
        <time>2020-07-15T13:22:44Z</time>
      </trkpt>
      <trkpt lat="43.83587" lon="1.97473">
        <ele>267.8</ele>
        <time>2020-07-15T13:22:45Z</time>
      </trkpt>
      <trkpt lat="43.83593" lon="1.97475">
        <ele>266.6</ele>
        <time>2020-07-15T13:22:46Z</time>
      </trkpt>
      <trkpt lat="43.836" lon="1.97474">
        <ele>265.4</ele>
        <time>2020-07-15T13:22:47Z</time>
      </trkpt>
      <trkpt lat="43.83606" lon="1.97471">
        <ele>264.2</ele>
        <time>2020-07-15T13:22:48Z</time>
      </trkpt>
      <trkpt lat="43.83612" lon="1.97468">
        <ele>263</ele>
        <time>2020-07-15T13:22:49Z</time>
      </trkpt>
      <trkpt lat="43.83617" lon="1.97463">
        <ele>261.8</ele>
        <time>2020-07-15T13:22:50Z</time>
      </trkpt>
      <trkpt lat="43.83623" lon="1.97457">
        <ele>260.8</ele>
        <time>2020-07-15T13:22:51Z</time>
      </trkpt>
      <trkpt lat="43.83628" lon="1.97453">
        <ele>259.8</ele>
        <time>2020-07-15T13:22:52Z</time>
      </trkpt>
      <trkpt lat="43.83632" lon="1.97449">
        <ele>259</ele>
        <time>2020-07-15T13:22:53Z</time>
      </trkpt>
      <trkpt lat="43.83635" lon="1.97445">
        <ele>258.4</ele>
        <time>2020-07-15T13:22:54Z</time>
      </trkpt>
      <trkpt lat="43.83638" lon="1.97443">
        <ele>258</ele>
        <time>2020-07-15T13:22:55Z</time>
      </trkpt>
      <trkpt lat="43.83643" lon="1.97441">
        <ele>257.6</ele>
        <time>2020-07-15T13:22:56Z</time>
      </trkpt>
      <trkpt lat="43.83647" lon="1.9744">
        <ele>257.2</ele>
        <time>2020-07-15T13:22:57Z</time>
      </trkpt>
      <trkpt lat="43.83653" lon="1.9744">
        <ele>256.8</ele>
        <time>2020-07-15T13:22:58Z</time>
      </trkpt>
      <trkpt lat="43.83658" lon="1.9744">
        <ele>256.4</ele>
        <time>2020-07-15T13:22:59Z</time>
      </trkpt>
      <trkpt lat="43.83664" lon="1.9744">
        <ele>256</ele>
        <time>2020-07-15T13:23:00Z</time>
      </trkpt>
      <trkpt lat="43.8367" lon="1.9744">
        <ele>255.4</ele>
        <time>2020-07-15T13:23:01Z</time>
      </trkpt>
      <trkpt lat="43.83678" lon="1.9744">
        <ele>254.6</ele>
        <time>2020-07-15T13:23:02Z</time>
      </trkpt>
      <trkpt lat="43.83686" lon="1.97439">
        <ele>254</ele>
        <time>2020-07-15T13:23:03Z</time>
      </trkpt>
      <trkpt lat="43.83693" lon="1.9744">
        <ele>253.4</ele>
        <time>2020-07-15T13:23:04Z</time>
      </trkpt>
      <trkpt lat="43.83701" lon="1.97442">
        <ele>252.6</ele>
        <time>2020-07-15T13:23:05Z</time>
      </trkpt>
      <trkpt lat="43.8371" lon="1.97445">
        <ele>251.8</ele>
        <time>2020-07-15T13:23:06Z</time>
      </trkpt>
      <trkpt lat="43.8372" lon="1.97452">
        <ele>251.2</ele>
        <time>2020-07-15T13:23:07Z</time>
      </trkpt>
      <trkpt lat="43.8373" lon="1.9746">
        <ele>250.6</ele>
        <time>2020-07-15T13:23:08Z</time>
      </trkpt>
      <trkpt lat="43.83738" lon="1.9747">
        <ele>249.8</ele>
        <time>2020-07-15T13:23:09Z</time>
      </trkpt>
      <trkpt lat="43.83746" lon="1.9748">
        <ele>249</ele>
        <time>2020-07-15T13:23:10Z</time>
      </trkpt>
      <trkpt lat="43.83754" lon="1.97491">
        <ele>248.2</ele>
        <time>2020-07-15T13:23:11Z</time>
      </trkpt>
      <trkpt lat="43.83763" lon="1.97501">
        <ele>247.2</ele>
        <time>2020-07-15T13:23:12Z</time>
      </trkpt>
      <trkpt lat="43.83772" lon="1.97512">
        <ele>246.6</ele>
        <time>2020-07-15T13:23:13Z</time>
      </trkpt>
      <trkpt lat="43.83781" lon="1.97522">
        <ele>246</ele>
        <time>2020-07-15T13:23:14Z</time>
      </trkpt>
      <trkpt lat="43.83789" lon="1.97533">
        <ele>245</ele>
        <time>2020-07-15T13:23:15Z</time>
      </trkpt>
      <trkpt lat="43.83798" lon="1.97543">
        <ele>244.2</ele>
        <time>2020-07-15T13:23:16Z</time>
      </trkpt>
      <trkpt lat="43.83807" lon="1.97554">
        <ele>243.4</ele>
        <time>2020-07-15T13:23:17Z</time>
      </trkpt>
      <trkpt lat="43.83816" lon="1.97564">
        <ele>242.4</ele>
        <time>2020-07-15T13:23:18Z</time>
      </trkpt>
      <trkpt lat="43.83825" lon="1.97574">
        <ele>241.4</ele>
        <time>2020-07-15T13:23:19Z</time>
      </trkpt>
      <trkpt lat="43.83833" lon="1.97584">
        <ele>240.6</ele>
        <time>2020-07-15T13:23:20Z</time>
      </trkpt>
      <trkpt lat="43.83842" lon="1.97594">
        <ele>240.4</ele>
        <time>2020-07-15T13:23:21Z</time>
      </trkpt>
      <trkpt lat="43.8385" lon="1.97602">
        <ele>240.2</ele>
        <time>2020-07-15T13:23:22Z</time>
      </trkpt>
      <trkpt lat="43.83859" lon="1.97607">
        <ele>240</ele>
        <time>2020-07-15T13:23:23Z</time>
      </trkpt>
      <trkpt lat="43.83867" lon="1.97609">
        <ele>239.8</ele>
        <time>2020-07-15T13:23:24Z</time>
      </trkpt>
      <trkpt lat="43.83877" lon="1.97607">
        <ele>239.6</ele>
        <time>2020-07-15T13:23:25Z</time>
      </trkpt>
      <trkpt lat="43.83884" lon="1.97601">
        <ele>239.6</ele>
        <time>2020-07-15T13:23:26Z</time>
      </trkpt>
      <trkpt lat="43.83891" lon="1.97594">
        <ele>239.4</ele>
        <time>2020-07-15T13:23:27Z</time>
      </trkpt>
      <trkpt lat="43.83898" lon="1.97586">
        <ele>239.2</ele>
        <time>2020-07-15T13:23:28Z</time>
      </trkpt>
      <trkpt lat="43.83905" lon="1.97579">
        <ele>239</ele>
        <time>2020-07-15T13:23:29Z</time>
      </trkpt>
      <trkpt lat="43.83912" lon="1.97571">
        <ele>238.6</ele>
        <time>2020-07-15T13:23:30Z</time>
      </trkpt>
      <trkpt lat="43.83918" lon="1.97564">
        <ele>238.4</ele>
        <time>2020-07-15T13:23:31Z</time>
      </trkpt>
      <trkpt lat="43.83924" lon="1.97556">
        <ele>238</ele>
        <time>2020-07-15T13:23:32Z</time>
      </trkpt>
      <trkpt lat="43.8393" lon="1.9755">
        <ele>237.8</ele>
        <time>2020-07-15T13:23:33Z</time>
      </trkpt>
      <trkpt lat="43.83937" lon="1.97543">
        <ele>237.6</ele>
        <time>2020-07-15T13:23:34Z</time>
      </trkpt>
      <trkpt lat="43.83944" lon="1.97536">
        <ele>237.8</ele>
        <time>2020-07-15T13:23:35Z</time>
      </trkpt>
      <trkpt lat="43.8395" lon="1.9753">
        <ele>237.8</ele>
        <time>2020-07-15T13:23:36Z</time>
      </trkpt>
      <trkpt lat="43.83956" lon="1.97524">
        <ele>237.8</ele>
        <time>2020-07-15T13:23:37Z</time>
      </trkpt>
      <trkpt lat="43.83962" lon="1.97518">
        <ele>237.8</ele>
        <time>2020-07-15T13:23:38Z</time>
      </trkpt>
      <trkpt lat="43.83969" lon="1.97512">
        <ele>238</ele>
        <time>2020-07-15T13:23:39Z</time>
      </trkpt>
      <trkpt lat="43.83975" lon="1.97506">
        <ele>237.8</ele>
        <time>2020-07-15T13:23:40Z</time>
      </trkpt>
      <trkpt lat="43.83981" lon="1.975">
        <ele>237.8</ele>
        <time>2020-07-15T13:23:41Z</time>
      </trkpt>
      <trkpt lat="43.83987" lon="1.97495">
        <ele>237.6</ele>
        <time>2020-07-15T13:23:42Z</time>
      </trkpt>
      <trkpt lat="43.83993" lon="1.9749">
        <ele>237.4</ele>
        <time>2020-07-15T13:23:43Z</time>
      </trkpt>
      <trkpt lat="43.83999" lon="1.97485">
        <ele>237.2</ele>
        <time>2020-07-15T13:23:44Z</time>
      </trkpt>
      <trkpt lat="43.84004" lon="1.9748">
        <ele>237</ele>
        <time>2020-07-15T13:23:45Z</time>
      </trkpt>
      <trkpt lat="43.84009" lon="1.97476">
        <ele>237</ele>
        <time>2020-07-15T13:23:46Z</time>
      </trkpt>
      <trkpt lat="43.84014" lon="1.97472">
        <ele>236.8</ele>
        <time>2020-07-15T13:23:47Z</time>
      </trkpt>
      <trkpt lat="43.84018" lon="1.97469">
        <ele>236.8</ele>
        <time>2020-07-15T13:23:48Z</time>
      </trkpt>
      <trkpt lat="43.84021" lon="1.97466">
        <ele>236.8</ele>
        <time>2020-07-15T13:23:49Z</time>
      </trkpt>
      <trkpt lat="43.84023" lon="1.97461">
        <ele>237</ele>
        <time>2020-07-15T13:23:50Z</time>
      </trkpt>
      <trkpt lat="43.84025" lon="1.97455">
        <ele>236.8</ele>
        <time>2020-07-15T13:23:51Z</time>
      </trkpt>
      <trkpt lat="43.84026" lon="1.97449">
        <ele>236.8</ele>
        <time>2020-07-15T13:23:52Z</time>
      </trkpt>
      <trkpt lat="43.84028" lon="1.97444">
        <ele>237</ele>
        <time>2020-07-15T13:23:53Z</time>
      </trkpt>
      <trkpt lat="43.84031" lon="1.97438">
        <ele>237</ele>
        <time>2020-07-15T13:23:54Z</time>
      </trkpt>
      <trkpt lat="43.84034" lon="1.97434">
        <ele>237.2</ele>
        <time>2020-07-15T13:23:55Z</time>
      </trkpt>
      <trkpt lat="43.84038" lon="1.9743">
        <ele>237.4</ele>
        <time>2020-07-15T13:23:56Z</time>
      </trkpt>
      <trkpt lat="43.84042" lon="1.97427">
        <ele>237.8</ele>
        <time>2020-07-15T13:23:57Z</time>
      </trkpt>
      <trkpt lat="43.84047" lon="1.97424">
        <ele>238</ele>
        <time>2020-07-15T13:23:58Z</time>
      </trkpt>
      <trkpt lat="43.84052" lon="1.97421">
        <ele>238.2</ele>
        <time>2020-07-15T13:23:59Z</time>
      </trkpt>
      <trkpt lat="43.84056" lon="1.97419">
        <ele>238.6</ele>
        <time>2020-07-15T13:24:00Z</time>
      </trkpt>
      <trkpt lat="43.8406" lon="1.97416">
        <ele>238.8</ele>
        <time>2020-07-15T13:24:01Z</time>
      </trkpt>
      <trkpt lat="43.84066" lon="1.97413">
        <ele>239</ele>
        <time>2020-07-15T13:24:02Z</time>
      </trkpt>
      <trkpt lat="43.84071" lon="1.97411">
        <ele>239.2</ele>
        <time>2020-07-15T13:24:03Z</time>
      </trkpt>
      <trkpt lat="43.84075" lon="1.97408">
        <ele>239.4</ele>
        <time>2020-07-15T13:24:04Z</time>
      </trkpt>
      <trkpt lat="43.8408" lon="1.97405">
        <ele>239.6</ele>
        <time>2020-07-15T13:24:05Z</time>
      </trkpt>
      <trkpt lat="43.84084" lon="1.97402">
        <ele>239.8</ele>
        <time>2020-07-15T13:24:06Z</time>
      </trkpt>
      <trkpt lat="43.84089" lon="1.97399">
        <ele>240.2</ele>
        <time>2020-07-15T13:24:07Z</time>
      </trkpt>
      <trkpt lat="43.84094" lon="1.97396">
        <ele>240.4</ele>
        <time>2020-07-15T13:24:08Z</time>
      </trkpt>
      <trkpt lat="43.84098" lon="1.97394">
        <ele>240.6</ele>
        <time>2020-07-15T13:24:09Z</time>
      </trkpt>
      <trkpt lat="43.84102" lon="1.97391">
        <ele>240.8</ele>
        <time>2020-07-15T13:24:10Z</time>
      </trkpt>
      <trkpt lat="43.84107" lon="1.97388">
        <ele>241.2</ele>
        <time>2020-07-15T13:24:11Z</time>
      </trkpt>
      <trkpt lat="43.84111" lon="1.97385">
        <ele>241.4</ele>
        <time>2020-07-15T13:24:12Z</time>
      </trkpt>
      <trkpt lat="43.84115" lon="1.97382">
        <ele>241.8</ele>
        <time>2020-07-15T13:24:13Z</time>
      </trkpt>
      <trkpt lat="43.84119" lon="1.97378">
        <ele>242</ele>
        <time>2020-07-15T13:24:14Z</time>
      </trkpt>
      <trkpt lat="43.84123" lon="1.97375">
        <ele>242.4</ele>
        <time>2020-07-15T13:24:15Z</time>
      </trkpt>
      <trkpt lat="43.84126" lon="1.97372">
        <ele>242.6</ele>
        <time>2020-07-15T13:24:16Z</time>
      </trkpt>
      <trkpt lat="43.8413" lon="1.97369">
        <ele>242.8</ele>
        <time>2020-07-15T13:24:17Z</time>
      </trkpt>
      <trkpt lat="43.84133" lon="1.97365">
        <ele>243</ele>
        <time>2020-07-15T13:24:18Z</time>
      </trkpt>
      <trkpt lat="43.84137" lon="1.97362">
        <ele>243.4</ele>
        <time>2020-07-15T13:24:19Z</time>
      </trkpt>
      <trkpt lat="43.84141" lon="1.97359">
        <ele>243.6</ele>
        <time>2020-07-15T13:24:20Z</time>
      </trkpt>
      <trkpt lat="43.84145" lon="1.97355">
        <ele>244</ele>
        <time>2020-07-15T13:24:21Z</time>
      </trkpt>
      <trkpt lat="43.84148" lon="1.97352">
        <ele>244.2</ele>
        <time>2020-07-15T13:24:22Z</time>
      </trkpt>
      <trkpt lat="43.84152" lon="1.9735">
        <ele>244.6</ele>
        <time>2020-07-15T13:24:23Z</time>
      </trkpt>
      <trkpt lat="43.84156" lon="1.97347">
        <ele>244.8</ele>
        <time>2020-07-15T13:24:24Z</time>
      </trkpt>
      <trkpt lat="43.8416" lon="1.97345">
        <ele>245.2</ele>
        <time>2020-07-15T13:24:25Z</time>
      </trkpt>
      <trkpt lat="43.84164" lon="1.97343">
        <ele>245.4</ele>
        <time>2020-07-15T13:24:26Z</time>
      </trkpt>
      <trkpt lat="43.84168" lon="1.97342">
        <ele>245.6</ele>
        <time>2020-07-15T13:24:27Z</time>
      </trkpt>
      <trkpt lat="43.84171" lon="1.97342">
        <ele>246</ele>
        <time>2020-07-15T13:24:28Z</time>
      </trkpt>
      <trkpt lat="43.84176" lon="1.97341">
        <ele>246.4</ele>
        <time>2020-07-15T13:24:29Z</time>
      </trkpt>
      <trkpt lat="43.8418" lon="1.97341">
        <ele>246.6</ele>
        <time>2020-07-15T13:24:30Z</time>
      </trkpt>
      <trkpt lat="43.84183" lon="1.97341">
        <ele>247</ele>
        <time>2020-07-15T13:24:31Z</time>
      </trkpt>
      <trkpt lat="43.84187" lon="1.97341">
        <ele>247.4</ele>
        <time>2020-07-15T13:24:32Z</time>
      </trkpt>
      <trkpt lat="43.8419" lon="1.97341">
        <ele>247.8</ele>
        <time>2020-07-15T13:24:33Z</time>
      </trkpt>
      <trkpt lat="43.84193" lon="1.97341">
        <ele>248</ele>
        <time>2020-07-15T13:24:34Z</time>
      </trkpt>
      <trkpt lat="43.84197" lon="1.97341">
        <ele>248.4</ele>
        <time>2020-07-15T13:24:35Z</time>
      </trkpt>
      <trkpt lat="43.842" lon="1.9734">
        <ele>248.6</ele>
        <time>2020-07-15T13:24:36Z</time>
      </trkpt>
      <trkpt lat="43.84203" lon="1.97339">
        <ele>249</ele>
        <time>2020-07-15T13:24:37Z</time>
      </trkpt>
      <trkpt lat="43.84207" lon="1.97338">
        <ele>249.2</ele>
        <time>2020-07-15T13:24:38Z</time>
      </trkpt>
      <trkpt lat="43.8421" lon="1.97337">
        <ele>249.4</ele>
        <time>2020-07-15T13:24:39Z</time>
      </trkpt>
      <trkpt lat="43.84213" lon="1.97335">
        <ele>249.6</ele>
        <time>2020-07-15T13:24:40Z</time>
      </trkpt>
      <trkpt lat="43.84216" lon="1.97334">
        <ele>250</ele>
        <time>2020-07-15T13:24:41Z</time>
      </trkpt>
      <trkpt lat="43.84219" lon="1.97332">
        <ele>250.2</ele>
        <time>2020-07-15T13:24:42Z</time>
      </trkpt>
      <trkpt lat="43.84222" lon="1.97329">
        <ele>250.4</ele>
        <time>2020-07-15T13:24:43Z</time>
      </trkpt>
      <trkpt lat="43.84225" lon="1.97327">
        <ele>250.8</ele>
        <time>2020-07-15T13:24:44Z</time>
      </trkpt>
      <trkpt lat="43.84228" lon="1.97325">
        <ele>251</ele>
        <time>2020-07-15T13:24:45Z</time>
      </trkpt>
      <trkpt lat="43.84231" lon="1.97323">
        <ele>251.2</ele>
        <time>2020-07-15T13:24:46Z</time>
      </trkpt>
      <trkpt lat="43.84234" lon="1.9732">
        <ele>251.6</ele>
        <time>2020-07-15T13:24:47Z</time>
      </trkpt>
      <trkpt lat="43.84237" lon="1.97318">
        <ele>251.8</ele>
        <time>2020-07-15T13:24:48Z</time>
      </trkpt>
      <trkpt lat="43.8424" lon="1.97316">
        <ele>252</ele>
        <time>2020-07-15T13:24:49Z</time>
      </trkpt>
      <trkpt lat="43.84243" lon="1.97313">
        <ele>252</ele>
        <time>2020-07-15T13:24:50Z</time>
      </trkpt>
      <trkpt lat="43.84246" lon="1.97311">
        <ele>252.2</ele>
        <time>2020-07-15T13:24:51Z</time>
      </trkpt>
      <trkpt lat="43.8425" lon="1.97308">
        <ele>252.2</ele>
        <time>2020-07-15T13:24:52Z</time>
      </trkpt>
      <trkpt lat="43.84253" lon="1.97305">
        <ele>252.2</ele>
        <time>2020-07-15T13:24:53Z</time>
      </trkpt>
      <trkpt lat="43.84257" lon="1.97301">
        <ele>252.4</ele>
        <time>2020-07-15T13:24:54Z</time>
      </trkpt>
      <trkpt lat="43.8426" lon="1.97298">
        <ele>252.4</ele>
        <time>2020-07-15T13:24:55Z</time>
      </trkpt>
      <trkpt lat="43.84264" lon="1.97295">
        <ele>252.6</ele>
        <time>2020-07-15T13:24:56Z</time>
      </trkpt>
      <trkpt lat="43.84268" lon="1.97292">
        <ele>252.6</ele>
        <time>2020-07-15T13:24:57Z</time>
      </trkpt>
      <trkpt lat="43.84272" lon="1.97289">
        <ele>252.8</ele>
        <time>2020-07-15T13:24:58Z</time>
      </trkpt>
      <trkpt lat="43.84276" lon="1.97286">
        <ele>252.8</ele>
        <time>2020-07-15T13:24:59Z</time>
      </trkpt>
      <trkpt lat="43.8428" lon="1.97283">
        <ele>252.8</ele>
        <time>2020-07-15T13:25:00Z</time>
      </trkpt>
      <trkpt lat="43.84284" lon="1.9728">
        <ele>252.8</ele>
        <time>2020-07-15T13:25:01Z</time>
      </trkpt>
      <trkpt lat="43.84288" lon="1.97277">
        <ele>252.8</ele>
        <time>2020-07-15T13:25:02Z</time>
      </trkpt>
      <trkpt lat="43.84292" lon="1.97274">
        <ele>253</ele>
        <time>2020-07-15T13:25:03Z</time>
      </trkpt>
      <trkpt lat="43.84296" lon="1.97271">
        <ele>252.8</ele>
        <time>2020-07-15T13:25:04Z</time>
      </trkpt>
      <trkpt lat="43.843" lon="1.97267">
        <ele>252.8</ele>
        <time>2020-07-15T13:25:05Z</time>
      </trkpt>
      <trkpt lat="43.84303" lon="1.97263">
        <ele>252.6</ele>
        <time>2020-07-15T13:25:06Z</time>
      </trkpt>
      <trkpt lat="43.84306" lon="1.9726">
        <ele>252.6</ele>
        <time>2020-07-15T13:25:07Z</time>
      </trkpt>
      <trkpt lat="43.8431" lon="1.97257">
        <ele>252.4</ele>
        <time>2020-07-15T13:25:08Z</time>
      </trkpt>
      <trkpt lat="43.84314" lon="1.97255">
        <ele>252.4</ele>
        <time>2020-07-15T13:25:09Z</time>
      </trkpt>
      <trkpt lat="43.84319" lon="1.97252">
        <ele>252.2</ele>
        <time>2020-07-15T13:25:10Z</time>
      </trkpt>
      <trkpt lat="43.84323" lon="1.97249">
        <ele>252.2</ele>
        <time>2020-07-15T13:25:11Z</time>
      </trkpt>
      <trkpt lat="43.84326" lon="1.97247">
        <ele>252</ele>
        <time>2020-07-15T13:25:12Z</time>
      </trkpt>
      <trkpt lat="43.8433" lon="1.97244">
        <ele>252</ele>
        <time>2020-07-15T13:25:13Z</time>
      </trkpt>
      <trkpt lat="43.84334" lon="1.97241">
        <ele>251.8</ele>
        <time>2020-07-15T13:25:14Z</time>
      </trkpt>
      <trkpt lat="43.84338" lon="1.97239">
        <ele>251.6</ele>
        <time>2020-07-15T13:25:15Z</time>
      </trkpt>
      <trkpt lat="43.84342" lon="1.97237">
        <ele>251.6</ele>
        <time>2020-07-15T13:25:16Z</time>
      </trkpt>
      <trkpt lat="43.84346" lon="1.97235">
        <ele>251.4</ele>
        <time>2020-07-15T13:25:17Z</time>
      </trkpt>
      <trkpt lat="43.84351" lon="1.97234">
        <ele>251.2</ele>
        <time>2020-07-15T13:25:18Z</time>
      </trkpt>
      <trkpt lat="43.84357" lon="1.97235">
        <ele>250.8</ele>
        <time>2020-07-15T13:25:19Z</time>
      </trkpt>
      <trkpt lat="43.84362" lon="1.97236">
        <ele>250.4</ele>
        <time>2020-07-15T13:25:20Z</time>
      </trkpt>
      <trkpt lat="43.84368" lon="1.97237">
        <ele>249.8</ele>
        <time>2020-07-15T13:25:21Z</time>
      </trkpt>
      <trkpt lat="43.84375" lon="1.97238">
        <ele>249.2</ele>
        <time>2020-07-15T13:25:22Z</time>
      </trkpt>
      <trkpt lat="43.84382" lon="1.9724">
        <ele>248.4</ele>
        <time>2020-07-15T13:25:23Z</time>
      </trkpt>
      <trkpt lat="43.84389" lon="1.97243">
        <ele>247.6</ele>
        <time>2020-07-15T13:25:24Z</time>
      </trkpt>
      <trkpt lat="43.84397" lon="1.97247">
        <ele>247</ele>
        <time>2020-07-15T13:25:25Z</time>
      </trkpt>
      <trkpt lat="43.84405" lon="1.9725">
        <ele>246</ele>
        <time>2020-07-15T13:25:26Z</time>
      </trkpt>
      <trkpt lat="43.84414" lon="1.97253">
        <ele>245.2</ele>
        <time>2020-07-15T13:25:27Z</time>
      </trkpt>
      <trkpt lat="43.84424" lon="1.97257">
        <ele>244</ele>
        <time>2020-07-15T13:25:28Z</time>
      </trkpt>
      <trkpt lat="43.84434" lon="1.9726">
        <ele>243</ele>
        <time>2020-07-15T13:25:29Z</time>
      </trkpt>
      <trkpt lat="43.84443" lon="1.97265">
        <ele>242</ele>
        <time>2020-07-15T13:25:30Z</time>
      </trkpt>
      <trkpt lat="43.84452" lon="1.97268">
        <ele>240.8</ele>
        <time>2020-07-15T13:25:31Z</time>
      </trkpt>
      <trkpt lat="43.84462" lon="1.97272">
        <ele>239.8</ele>
        <time>2020-07-15T13:25:32Z</time>
      </trkpt>
      <trkpt lat="43.8447" lon="1.97274">
        <ele>238.6</ele>
        <time>2020-07-15T13:25:33Z</time>
      </trkpt>
      <trkpt lat="43.84478" lon="1.97277">
        <ele>237.6</ele>
        <time>2020-07-15T13:25:34Z</time>
      </trkpt>
      <trkpt lat="43.84485" lon="1.97279">
        <ele>236.6</ele>
        <time>2020-07-15T13:25:35Z</time>
      </trkpt>
      <trkpt lat="43.84491" lon="1.97282">
        <ele>235.6</ele>
        <time>2020-07-15T13:25:36Z</time>
      </trkpt>
      <trkpt lat="43.84496" lon="1.97284">
        <ele>234.8</ele>
        <time>2020-07-15T13:25:37Z</time>
      </trkpt>
      <trkpt lat="43.84499" lon="1.97286">
        <ele>234.2</ele>
        <time>2020-07-15T13:25:38Z</time>
      </trkpt>
      <trkpt lat="43.84501" lon="1.97285">
        <ele>233.6</ele>
        <time>2020-07-15T13:25:39Z</time>
      </trkpt>
      <trkpt lat="43.84502" lon="1.97283">
        <ele>233</ele>
        <time>2020-07-15T13:25:40Z</time>
      </trkpt>
      <trkpt lat="43.84502" lon="1.97279">
        <ele>232.6</ele>
        <time>2020-07-15T13:25:41Z</time>
      </trkpt>
      <trkpt lat="43.84502" lon="1.97275">
        <ele>232</ele>
        <time>2020-07-15T13:25:42Z</time>
      </trkpt>
      <trkpt lat="43.84503" lon="1.97271">
        <ele>231.6</ele>
        <time>2020-07-15T13:25:43Z</time>
      </trkpt>
      <trkpt lat="43.84503" lon="1.97266">
        <ele>231.4</ele>
        <time>2020-07-15T13:25:44Z</time>
      </trkpt>
      <trkpt lat="43.84503" lon="1.97261">
        <ele>231</ele>
        <time>2020-07-15T13:25:45Z</time>
      </trkpt>
      <trkpt lat="43.84503" lon="1.97255">
        <ele>230.8</ele>
        <time>2020-07-15T13:25:46Z</time>
      </trkpt>
      <trkpt lat="43.84503" lon="1.9725">
        <ele>230.6</ele>
        <time>2020-07-15T13:25:47Z</time>
      </trkpt>
      <trkpt lat="43.84503" lon="1.97245">
        <ele>230.6</ele>
        <time>2020-07-15T13:25:48Z</time>
      </trkpt>
      <trkpt lat="43.84503" lon="1.97242">
        <ele>230.4</ele>
        <time>2020-07-15T13:25:49Z</time>
      </trkpt>
      <trkpt lat="43.84504" lon="1.97247">
        <ele>230.2</ele>
        <time>2020-07-15T13:26:03Z</time>
      </trkpt>
      <trkpt lat="43.84503" lon="1.9725">
        <ele>230.2</ele>
        <time>2020-07-15T13:26:04Z</time>
      </trkpt>
      <trkpt lat="43.84503" lon="1.97254">
        <ele>230.2</ele>
        <time>2020-07-15T13:26:05Z</time>
      </trkpt>
      <trkpt lat="43.84502" lon="1.97259">
        <ele>230.4</ele>
        <time>2020-07-15T13:26:06Z</time>
      </trkpt>
      <trkpt lat="43.84502" lon="1.97265">
        <ele>230.4</ele>
        <time>2020-07-15T13:26:07Z</time>
      </trkpt>
      <trkpt lat="43.84502" lon="1.97271">
        <ele>230.6</ele>
        <time>2020-07-15T13:26:08Z</time>
      </trkpt>
      <trkpt lat="43.84501" lon="1.97277">
        <ele>230.8</ele>
        <time>2020-07-15T13:26:09Z</time>
      </trkpt>
      <trkpt lat="43.84501" lon="1.97283">
        <ele>231</ele>
        <time>2020-07-15T13:26:10Z</time>
      </trkpt>
      <trkpt lat="43.84501" lon="1.97288">
        <ele>231.2</ele>
        <time>2020-07-15T13:26:11Z</time>
      </trkpt>
      <trkpt lat="43.84502" lon="1.97293">
        <ele>231.4</ele>
        <time>2020-07-15T13:26:12Z</time>
      </trkpt>
      <trkpt lat="43.84505" lon="1.97299">
        <ele>231.6</ele>
        <time>2020-07-15T13:26:13Z</time>
      </trkpt>
      <trkpt lat="43.84507" lon="1.97306">
        <ele>231.6</ele>
        <time>2020-07-15T13:26:14Z</time>
      </trkpt>
      <trkpt lat="43.84509" lon="1.97312">
        <ele>231.6</ele>
        <time>2020-07-15T13:26:15Z</time>
      </trkpt>
      <trkpt lat="43.8451" lon="1.97318">
        <ele>231.6</ele>
        <time>2020-07-15T13:26:16Z</time>
      </trkpt>
      <trkpt lat="43.84512" lon="1.97324">
        <ele>231.4</ele>
        <time>2020-07-15T13:26:17Z</time>
      </trkpt>
      <trkpt lat="43.84513" lon="1.9733">
        <ele>231.2</ele>
        <time>2020-07-15T13:26:18Z</time>
      </trkpt>
      <trkpt lat="43.84514" lon="1.97336">
        <ele>231</ele>
        <time>2020-07-15T13:26:19Z</time>
      </trkpt>
      <trkpt lat="43.84516" lon="1.97342">
        <ele>230.6</ele>
        <time>2020-07-15T13:26:20Z</time>
      </trkpt>
      <trkpt lat="43.84519" lon="1.97347">
        <ele>230.2</ele>
        <time>2020-07-15T13:26:21Z</time>
      </trkpt>
      <trkpt lat="43.84523" lon="1.97352">
        <ele>229.8</ele>
        <time>2020-07-15T13:26:22Z</time>
      </trkpt>
      <trkpt lat="43.84528" lon="1.97357">
        <ele>229.4</ele>
        <time>2020-07-15T13:26:23Z</time>
      </trkpt>
      <trkpt lat="43.84533" lon="1.97363">
        <ele>228.8</ele>
        <time>2020-07-15T13:26:24Z</time>
      </trkpt>
      <trkpt lat="43.84539" lon="1.97369">
        <ele>228.2</ele>
        <time>2020-07-15T13:26:25Z</time>
      </trkpt>
      <trkpt lat="43.84546" lon="1.97375">
        <ele>227.6</ele>
        <time>2020-07-15T13:26:26Z</time>
      </trkpt>
      <trkpt lat="43.84552" lon="1.97381">
        <ele>226.8</ele>
        <time>2020-07-15T13:26:27Z</time>
      </trkpt>
      <trkpt lat="43.8456" lon="1.97387">
        <ele>226</ele>
        <time>2020-07-15T13:26:28Z</time>
      </trkpt>
      <trkpt lat="43.84567" lon="1.97393">
        <ele>225.4</ele>
        <time>2020-07-15T13:26:29Z</time>
      </trkpt>
      <trkpt lat="43.84575" lon="1.97398">
        <ele>224.8</ele>
        <time>2020-07-15T13:26:30Z</time>
      </trkpt>
      <trkpt lat="43.84584" lon="1.97405">
        <ele>224</ele>
        <time>2020-07-15T13:26:31Z</time>
      </trkpt>
      <trkpt lat="43.84592" lon="1.9741">
        <ele>223.2</ele>
        <time>2020-07-15T13:26:32Z</time>
      </trkpt>
      <trkpt lat="43.84601" lon="1.97415">
        <ele>222.6</ele>
        <time>2020-07-15T13:26:33Z</time>
      </trkpt>
      <trkpt lat="43.8461" lon="1.9742">
        <ele>222</ele>
        <time>2020-07-15T13:26:34Z</time>
      </trkpt>
      <trkpt lat="43.84618" lon="1.97425">
        <ele>221.4</ele>
        <time>2020-07-15T13:26:35Z</time>
      </trkpt>
      <trkpt lat="43.84626" lon="1.97429">
        <ele>220.8</ele>
        <time>2020-07-15T13:26:36Z</time>
      </trkpt>
      <trkpt lat="43.84634" lon="1.97433">
        <ele>220.4</ele>
        <time>2020-07-15T13:26:37Z</time>
      </trkpt>
      <trkpt lat="43.84639" lon="1.97434">
        <ele>220</ele>
        <time>2020-07-15T13:26:38Z</time>
      </trkpt>
      <trkpt lat="43.84644" lon="1.97436">
        <ele>219.6</ele>
        <time>2020-07-15T13:26:39Z</time>
      </trkpt>
      <trkpt lat="43.84649" lon="1.97438">
        <ele>219</ele>
        <time>2020-07-15T13:26:40Z</time>
      </trkpt>
      <trkpt lat="43.84653" lon="1.97438">
        <ele>218.6</ele>
        <time>2020-07-15T13:26:41Z</time>
      </trkpt>
      <trkpt lat="43.84655" lon="1.97434">
        <ele>218.2</ele>
        <time>2020-07-15T13:26:42Z</time>
      </trkpt>
      <trkpt lat="43.84656" lon="1.97428">
        <ele>217.8</ele>
        <time>2020-07-15T13:26:43Z</time>
      </trkpt>
      <trkpt lat="43.84657" lon="1.9742">
        <ele>217.4</ele>
        <time>2020-07-15T13:26:44Z</time>
      </trkpt>
      <trkpt lat="43.84657" lon="1.97413">
        <ele>217</ele>
        <time>2020-07-15T13:26:45Z</time>
      </trkpt>
      <trkpt lat="43.84658" lon="1.97405">
        <ele>216.6</ele>
        <time>2020-07-15T13:26:46Z</time>
      </trkpt>
      <trkpt lat="43.8466" lon="1.97397">
        <ele>216.4</ele>
        <time>2020-07-15T13:26:47Z</time>
      </trkpt>
      <trkpt lat="43.84662" lon="1.9739">
        <ele>216.2</ele>
        <time>2020-07-15T13:26:48Z</time>
      </trkpt>
      <trkpt lat="43.84665" lon="1.97383">
        <ele>215.8</ele>
        <time>2020-07-15T13:26:49Z</time>
      </trkpt>
      <trkpt lat="43.84666" lon="1.97375">
        <ele>215.8</ele>
        <time>2020-07-15T13:26:50Z</time>
      </trkpt>
      <trkpt lat="43.84669" lon="1.97368">
        <ele>215.8</ele>
        <time>2020-07-15T13:26:51Z</time>
      </trkpt>
      <trkpt lat="43.84671" lon="1.9736">
        <ele>215.6</ele>
        <time>2020-07-15T13:26:52Z</time>
      </trkpt>
      <trkpt lat="43.84674" lon="1.97353">
        <ele>215.4</ele>
        <time>2020-07-15T13:26:53Z</time>
      </trkpt>
      <trkpt lat="43.84677" lon="1.97345">
        <ele>215.4</ele>
        <time>2020-07-15T13:26:54Z</time>
      </trkpt>
      <trkpt lat="43.84679" lon="1.97337">
        <ele>215.2</ele>
        <time>2020-07-15T13:26:55Z</time>
      </trkpt>
      <trkpt lat="43.84681" lon="1.9733">
        <ele>214.8</ele>
        <time>2020-07-15T13:26:56Z</time>
      </trkpt>
      <trkpt lat="43.84683" lon="1.97322">
        <ele>214.6</ele>
        <time>2020-07-15T13:26:57Z</time>
      </trkpt>
      <trkpt lat="43.84684" lon="1.97315">
        <ele>214.4</ele>
        <time>2020-07-15T13:26:58Z</time>
      </trkpt>
      <trkpt lat="43.84687" lon="1.97307">
        <ele>214.2</ele>
        <time>2020-07-15T13:26:59Z</time>
      </trkpt>
      <trkpt lat="43.84689" lon="1.97299">
        <ele>214</ele>
        <time>2020-07-15T13:27:00Z</time>
      </trkpt>
      <trkpt lat="43.84692" lon="1.97291">
        <ele>213.6</ele>
        <time>2020-07-15T13:27:01Z</time>
      </trkpt>
      <trkpt lat="43.84694" lon="1.97282">
        <ele>213.6</ele>
        <time>2020-07-15T13:27:02Z</time>
      </trkpt>
      <trkpt lat="43.84695" lon="1.97274">
        <ele>213.2</ele>
        <time>2020-07-15T13:27:03Z</time>
      </trkpt>
      <trkpt lat="43.84696" lon="1.97265">
        <ele>213</ele>
        <time>2020-07-15T13:27:04Z</time>
      </trkpt>
      <trkpt lat="43.84697" lon="1.97256">
        <ele>212.8</ele>
        <time>2020-07-15T13:27:05Z</time>
      </trkpt>
      <trkpt lat="43.84696" lon="1.97247">
        <ele>212.4</ele>
        <time>2020-07-15T13:27:06Z</time>
      </trkpt>
      <trkpt lat="43.84696" lon="1.97238">
        <ele>212.2</ele>
        <time>2020-07-15T13:27:07Z</time>
      </trkpt>
      <trkpt lat="43.84695" lon="1.97229">
        <ele>212</ele>
        <time>2020-07-15T13:27:08Z</time>
      </trkpt>
      <trkpt lat="43.84694" lon="1.97219">
        <ele>211.8</ele>
        <time>2020-07-15T13:27:09Z</time>
      </trkpt>
      <trkpt lat="43.84693" lon="1.9721">
        <ele>211.6</ele>
        <time>2020-07-15T13:27:10Z</time>
      </trkpt>
      <trkpt lat="43.84692" lon="1.97201">
        <ele>211.4</ele>
        <time>2020-07-15T13:27:11Z</time>
      </trkpt>
      <trkpt lat="43.84691" lon="1.97191">
        <ele>211.2</ele>
        <time>2020-07-15T13:27:12Z</time>
      </trkpt>
      <trkpt lat="43.84691" lon="1.97182">
        <ele>211.2</ele>
        <time>2020-07-15T13:27:13Z</time>
      </trkpt>
      <trkpt lat="43.8469" lon="1.97173">
        <ele>211</ele>
        <time>2020-07-15T13:27:14Z</time>
      </trkpt>
      <trkpt lat="43.8469" lon="1.97165">
        <ele>211</ele>
        <time>2020-07-15T13:27:15Z</time>
      </trkpt>
      <trkpt lat="43.84691" lon="1.97156">
        <ele>210.8</ele>
        <time>2020-07-15T13:27:16Z</time>
      </trkpt>
      <trkpt lat="43.84691" lon="1.97147">
        <ele>210.6</ele>
        <time>2020-07-15T13:27:17Z</time>
      </trkpt>
      <trkpt lat="43.84691" lon="1.97139">
        <ele>210.4</ele>
        <time>2020-07-15T13:27:18Z</time>
      </trkpt>
      <trkpt lat="43.8469" lon="1.97131">
        <ele>210.4</ele>
        <time>2020-07-15T13:27:19Z</time>
      </trkpt>
      <trkpt lat="43.8469" lon="1.97123">
        <ele>210.4</ele>
        <time>2020-07-15T13:27:20Z</time>
      </trkpt>
      <trkpt lat="43.8469" lon="1.97115">
        <ele>210.4</ele>
        <time>2020-07-15T13:27:21Z</time>
      </trkpt>
      <trkpt lat="43.8469" lon="1.97108">
        <ele>210.6</ele>
        <time>2020-07-15T13:27:22Z</time>
      </trkpt>
      <trkpt lat="43.8469" lon="1.97101">
        <ele>211</ele>
        <time>2020-07-15T13:27:23Z</time>
      </trkpt>
      <trkpt lat="43.84691" lon="1.97094">
        <ele>211.2</ele>
        <time>2020-07-15T13:27:24Z</time>
      </trkpt>
      <trkpt lat="43.84691" lon="1.97087">
        <ele>211.4</ele>
        <time>2020-07-15T13:27:25Z</time>
      </trkpt>
      <trkpt lat="43.84692" lon="1.9708">
        <ele>211.8</ele>
        <time>2020-07-15T13:27:26Z</time>
      </trkpt>
      <trkpt lat="43.84692" lon="1.97073">
        <ele>212</ele>
        <time>2020-07-15T13:27:27Z</time>
      </trkpt>
      <trkpt lat="43.84693" lon="1.97067">
        <ele>212.2</ele>
        <time>2020-07-15T13:27:28Z</time>
      </trkpt>
      <trkpt lat="43.84694" lon="1.9706">
        <ele>212.4</ele>
        <time>2020-07-15T13:27:29Z</time>
      </trkpt>
      <trkpt lat="43.84695" lon="1.97054">
        <ele>212.6</ele>
        <time>2020-07-15T13:27:30Z</time>
      </trkpt>
      <trkpt lat="43.84697" lon="1.97048">
        <ele>212.8</ele>
        <time>2020-07-15T13:27:31Z</time>
      </trkpt>
      <trkpt lat="43.84698" lon="1.97042">
        <ele>212.8</ele>
        <time>2020-07-15T13:27:32Z</time>
      </trkpt>
      <trkpt lat="43.847" lon="1.97036">
        <ele>212.8</ele>
        <time>2020-07-15T13:27:33Z</time>
      </trkpt>
      <trkpt lat="43.84701" lon="1.9703">
        <ele>213</ele>
        <time>2020-07-15T13:27:34Z</time>
      </trkpt>
      <trkpt lat="43.84703" lon="1.97024">
        <ele>213</ele>
        <time>2020-07-15T13:27:35Z</time>
      </trkpt>
      <trkpt lat="43.84705" lon="1.97019">
        <ele>213.4</ele>
        <time>2020-07-15T13:27:36Z</time>
      </trkpt>
      <trkpt lat="43.84707" lon="1.97013">
        <ele>213.6</ele>
        <time>2020-07-15T13:27:37Z</time>
      </trkpt>
      <trkpt lat="43.84708" lon="1.97008">
        <ele>213.6</ele>
        <time>2020-07-15T13:27:38Z</time>
      </trkpt>
      <trkpt lat="43.84709" lon="1.97003">
        <ele>213.8</ele>
        <time>2020-07-15T13:27:39Z</time>
      </trkpt>
      <trkpt lat="43.8471" lon="1.96997">
        <ele>214</ele>
        <time>2020-07-15T13:27:40Z</time>
      </trkpt>
      <trkpt lat="43.84712" lon="1.96992">
        <ele>214</ele>
        <time>2020-07-15T13:27:41Z</time>
      </trkpt>
      <trkpt lat="43.84713" lon="1.96987">
        <ele>214.2</ele>
        <time>2020-07-15T13:27:42Z</time>
      </trkpt>
      <trkpt lat="43.84715" lon="1.96981">
        <ele>214.6</ele>
        <time>2020-07-15T13:27:43Z</time>
      </trkpt>
      <trkpt lat="43.84716" lon="1.96976">
        <ele>214.8</ele>
        <time>2020-07-15T13:27:44Z</time>
      </trkpt>
      <trkpt lat="43.84717" lon="1.96972">
        <ele>215</ele>
        <time>2020-07-15T13:27:45Z</time>
      </trkpt>
      <trkpt lat="43.84718" lon="1.96968">
        <ele>215.2</ele>
        <time>2020-07-15T13:27:46Z</time>
      </trkpt>
      <trkpt lat="43.84718" lon="1.96964">
        <ele>215.6</ele>
        <time>2020-07-15T13:27:47Z</time>
      </trkpt>
      <trkpt lat="43.84719" lon="1.9696">
        <ele>215.8</ele>
        <time>2020-07-15T13:27:48Z</time>
      </trkpt>
      <trkpt lat="43.8472" lon="1.96957">
        <ele>216</ele>
        <time>2020-07-15T13:27:49Z</time>
      </trkpt>
      <trkpt lat="43.84721" lon="1.96954">
        <ele>216.2</ele>
        <time>2020-07-15T13:27:50Z</time>
      </trkpt>
      <trkpt lat="43.84722" lon="1.96951">
        <ele>216.6</ele>
        <time>2020-07-15T13:27:51Z</time>
      </trkpt>
      <trkpt lat="43.84723" lon="1.96947">
        <ele>216.6</ele>
        <time>2020-07-15T13:27:52Z</time>
      </trkpt>
      <trkpt lat="43.84722" lon="1.96944">
        <ele>216.8</ele>
        <time>2020-07-15T13:27:53Z</time>
      </trkpt>
      <trkpt lat="43.8472" lon="1.9694">
        <ele>217</ele>
        <time>2020-07-15T13:27:54Z</time>
      </trkpt>
      <trkpt lat="43.84718" lon="1.96937">
        <ele>217</ele>
        <time>2020-07-15T13:27:55Z</time>
      </trkpt>
      <trkpt lat="43.84717" lon="1.96934">
        <ele>217.2</ele>
        <time>2020-07-15T13:27:56Z</time>
      </trkpt>
      <trkpt lat="43.84715" lon="1.9693">
        <ele>217.4</ele>
        <time>2020-07-15T13:27:57Z</time>
      </trkpt>
      <trkpt lat="43.84713" lon="1.96927">
        <ele>217.4</ele>
        <time>2020-07-15T13:27:58Z</time>
      </trkpt>
      <trkpt lat="43.84711" lon="1.96923">
        <ele>217.4</ele>
        <time>2020-07-15T13:27:59Z</time>
      </trkpt>
      <trkpt lat="43.84708" lon="1.9692">
        <ele>217.4</ele>
        <time>2020-07-15T13:28:00Z</time>
      </trkpt>
      <trkpt lat="43.84707" lon="1.96917">
        <ele>217.6</ele>
        <time>2020-07-15T13:28:01Z</time>
      </trkpt>
      <trkpt lat="43.84705" lon="1.96913">
        <ele>217.8</ele>
        <time>2020-07-15T13:28:02Z</time>
      </trkpt>
      <trkpt lat="43.84703" lon="1.9691">
        <ele>218</ele>
        <time>2020-07-15T13:28:03Z</time>
      </trkpt>
      <trkpt lat="43.84701" lon="1.96907">
        <ele>218</ele>
        <time>2020-07-15T13:28:04Z</time>
      </trkpt>
      <trkpt lat="43.84699" lon="1.96904">
        <ele>218.4</ele>
        <time>2020-07-15T13:28:05Z</time>
      </trkpt>
      <trkpt lat="43.84697" lon="1.96901">
        <ele>218.6</ele>
        <time>2020-07-15T13:28:06Z</time>
      </trkpt>
      <trkpt lat="43.84695" lon="1.96897">
        <ele>218.8</ele>
        <time>2020-07-15T13:28:07Z</time>
      </trkpt>
      <trkpt lat="43.84693" lon="1.96893">
        <ele>219</ele>
        <time>2020-07-15T13:28:08Z</time>
      </trkpt>
      <trkpt lat="43.84691" lon="1.9689">
        <ele>219.4</ele>
        <time>2020-07-15T13:28:09Z</time>
      </trkpt>
      <trkpt lat="43.84688" lon="1.96886">
        <ele>219.6</ele>
        <time>2020-07-15T13:28:10Z</time>
      </trkpt>
      <trkpt lat="43.84686" lon="1.96882">
        <ele>219.8</ele>
        <time>2020-07-15T13:28:11Z</time>
      </trkpt>
      <trkpt lat="43.84684" lon="1.96877">
        <ele>219.8</ele>
        <time>2020-07-15T13:28:12Z</time>
      </trkpt>
      <trkpt lat="43.84681" lon="1.96872">
        <ele>219.6</ele>
        <time>2020-07-15T13:28:13Z</time>
      </trkpt>
      <trkpt lat="43.84678" lon="1.96866">
        <ele>219.6</ele>
        <time>2020-07-15T13:28:14Z</time>
      </trkpt>
      <trkpt lat="43.84675" lon="1.96859">
        <ele>219.2</ele>
        <time>2020-07-15T13:28:15Z</time>
      </trkpt>
      <trkpt lat="43.84671" lon="1.96852">
        <ele>219</ele>
        <time>2020-07-15T13:28:16Z</time>
      </trkpt>
      <trkpt lat="43.84667" lon="1.96845">
        <ele>218.4</ele>
        <time>2020-07-15T13:28:17Z</time>
      </trkpt>
      <trkpt lat="43.84663" lon="1.96836">
        <ele>217.8</ele>
        <time>2020-07-15T13:28:18Z</time>
      </trkpt>
      <trkpt lat="43.84658" lon="1.96828">
        <ele>217.2</ele>
        <time>2020-07-15T13:28:19Z</time>
      </trkpt>
      <trkpt lat="43.84654" lon="1.96819">
        <ele>216.6</ele>
        <time>2020-07-15T13:28:20Z</time>
      </trkpt>
      <trkpt lat="43.84649" lon="1.9681">
        <ele>216</ele>
        <time>2020-07-15T13:28:21Z</time>
      </trkpt>
      <trkpt lat="43.84645" lon="1.96801">
        <ele>215.4</ele>
        <time>2020-07-15T13:28:22Z</time>
      </trkpt>
      <trkpt lat="43.8464" lon="1.96792">
        <ele>214.4</ele>
        <time>2020-07-15T13:28:23Z</time>
      </trkpt>
      <trkpt lat="43.84636" lon="1.96783">
        <ele>213.4</ele>
        <time>2020-07-15T13:28:24Z</time>
      </trkpt>
      <trkpt lat="43.84631" lon="1.96772">
        <ele>212.8</ele>
        <time>2020-07-15T13:28:25Z</time>
      </trkpt>
      <trkpt lat="43.84626" lon="1.96762">
        <ele>212.4</ele>
        <time>2020-07-15T13:28:26Z</time>
      </trkpt>
      <trkpt lat="43.84621" lon="1.96752">
        <ele>212</ele>
        <time>2020-07-15T13:28:27Z</time>
      </trkpt>
      <trkpt lat="43.84617" lon="1.96742">
        <ele>211.6</ele>
        <time>2020-07-15T13:28:28Z</time>
      </trkpt>
      <trkpt lat="43.84613" lon="1.96731">
        <ele>211.4</ele>
        <time>2020-07-15T13:28:29Z</time>
      </trkpt>
      <trkpt lat="43.84609" lon="1.9672">
        <ele>211.2</ele>
        <time>2020-07-15T13:28:30Z</time>
      </trkpt>
      <trkpt lat="43.84604" lon="1.9671">
        <ele>210.8</ele>
        <time>2020-07-15T13:28:31Z</time>
      </trkpt>
      <trkpt lat="43.846" lon="1.96699">
        <ele>210.4</ele>
        <time>2020-07-15T13:28:32Z</time>
      </trkpt>
      <trkpt lat="43.84596" lon="1.96688">
        <ele>210.2</ele>
        <time>2020-07-15T13:28:33Z</time>
      </trkpt>
      <trkpt lat="43.84592" lon="1.96678">
        <ele>209.8</ele>
        <time>2020-07-15T13:28:34Z</time>
      </trkpt>
      <trkpt lat="43.84588" lon="1.96668">
        <ele>209.6</ele>
        <time>2020-07-15T13:28:35Z</time>
      </trkpt>
      <trkpt lat="43.84584" lon="1.96658">
        <ele>209.6</ele>
        <time>2020-07-15T13:28:36Z</time>
      </trkpt>
      <trkpt lat="43.84581" lon="1.96648">
        <ele>209.4</ele>
        <time>2020-07-15T13:28:37Z</time>
      </trkpt>
      <trkpt lat="43.84577" lon="1.96638">
        <ele>209.2</ele>
        <time>2020-07-15T13:28:38Z</time>
      </trkpt>
      <trkpt lat="43.84573" lon="1.96629">
        <ele>208.8</ele>
        <time>2020-07-15T13:28:39Z</time>
      </trkpt>
      <trkpt lat="43.8457" lon="1.96619">
        <ele>208.8</ele>
        <time>2020-07-15T13:28:40Z</time>
      </trkpt>
      <trkpt lat="43.84567" lon="1.9661">
        <ele>208.6</ele>
        <time>2020-07-15T13:28:41Z</time>
      </trkpt>
      <trkpt lat="43.84563" lon="1.96601">
        <ele>208.6</ele>
        <time>2020-07-15T13:28:42Z</time>
      </trkpt>
      <trkpt lat="43.8456" lon="1.96592">
        <ele>208.2</ele>
        <time>2020-07-15T13:28:43Z</time>
      </trkpt>
      <trkpt lat="43.84557" lon="1.96584">
        <ele>208</ele>
        <time>2020-07-15T13:28:44Z</time>
      </trkpt>
      <trkpt lat="43.84554" lon="1.96575">
        <ele>207.8</ele>
        <time>2020-07-15T13:28:45Z</time>
      </trkpt>
      <trkpt lat="43.84552" lon="1.96567">
        <ele>207.6</ele>
        <time>2020-07-15T13:28:46Z</time>
      </trkpt>
      <trkpt lat="43.84549" lon="1.96558">
        <ele>207.4</ele>
        <time>2020-07-15T13:28:47Z</time>
      </trkpt>
      <trkpt lat="43.84547" lon="1.9655">
        <ele>207.4</ele>
        <time>2020-07-15T13:28:48Z</time>
      </trkpt>
      <trkpt lat="43.84545" lon="1.96542">
        <ele>207.6</ele>
        <time>2020-07-15T13:28:49Z</time>
      </trkpt>
      <trkpt lat="43.84543" lon="1.96535">
        <ele>207.6</ele>
        <time>2020-07-15T13:28:50Z</time>
      </trkpt>
      <trkpt lat="43.84541" lon="1.96527">
        <ele>207.6</ele>
        <time>2020-07-15T13:28:51Z</time>
      </trkpt>
      <trkpt lat="43.84539" lon="1.96519">
        <ele>207.6</ele>
        <time>2020-07-15T13:28:52Z</time>
      </trkpt>
      <trkpt lat="43.84538" lon="1.96511">
        <ele>207.6</ele>
        <time>2020-07-15T13:28:53Z</time>
      </trkpt>
      <trkpt lat="43.84536" lon="1.96504">
        <ele>207.4</ele>
        <time>2020-07-15T13:28:54Z</time>
      </trkpt>
      <trkpt lat="43.84535" lon="1.96497">
        <ele>207.4</ele>
        <time>2020-07-15T13:28:55Z</time>
      </trkpt>
      <trkpt lat="43.84533" lon="1.96489">
        <ele>207.4</ele>
        <time>2020-07-15T13:28:56Z</time>
      </trkpt>
      <trkpt lat="43.84531" lon="1.96481">
        <ele>207.4</ele>
        <time>2020-07-15T13:28:57Z</time>
      </trkpt>
      <trkpt lat="43.8453" lon="1.96474">
        <ele>207.4</ele>
        <time>2020-07-15T13:28:58Z</time>
      </trkpt>
      <trkpt lat="43.84529" lon="1.96466">
        <ele>207.4</ele>
        <time>2020-07-15T13:28:59Z</time>
      </trkpt>
      <trkpt lat="43.84528" lon="1.96459">
        <ele>207.4</ele>
        <time>2020-07-15T13:29:00Z</time>
      </trkpt>
      <trkpt lat="43.84526" lon="1.96451">
        <ele>207.6</ele>
        <time>2020-07-15T13:29:01Z</time>
      </trkpt>
      <trkpt lat="43.84525" lon="1.96443">
        <ele>207.4</ele>
        <time>2020-07-15T13:29:02Z</time>
      </trkpt>
      <trkpt lat="43.84524" lon="1.96435">
        <ele>207.2</ele>
        <time>2020-07-15T13:29:03Z</time>
      </trkpt>
      <trkpt lat="43.84523" lon="1.96428">
        <ele>207</ele>
        <time>2020-07-15T13:29:04Z</time>
      </trkpt>
      <trkpt lat="43.84522" lon="1.9642">
        <ele>206.8</ele>
        <time>2020-07-15T13:29:05Z</time>
      </trkpt>
      <trkpt lat="43.84521" lon="1.96412">
        <ele>206.8</ele>
        <time>2020-07-15T13:29:06Z</time>
      </trkpt>
      <trkpt lat="43.8452" lon="1.96405">
        <ele>207</ele>
        <time>2020-07-15T13:29:07Z</time>
      </trkpt>
      <trkpt lat="43.84519" lon="1.96397">
        <ele>207.2</ele>
        <time>2020-07-15T13:29:08Z</time>
      </trkpt>
      <trkpt lat="43.84518" lon="1.9639">
        <ele>207.4</ele>
        <time>2020-07-15T13:29:09Z</time>
      </trkpt>
      <trkpt lat="43.84517" lon="1.96382">
        <ele>207.6</ele>
        <time>2020-07-15T13:29:10Z</time>
      </trkpt>
      <trkpt lat="43.84516" lon="1.96375">
        <ele>207.8</ele>
        <time>2020-07-15T13:29:11Z</time>
      </trkpt>
      <trkpt lat="43.84515" lon="1.96367">
        <ele>207.8</ele>
        <time>2020-07-15T13:29:12Z</time>
      </trkpt>
      <trkpt lat="43.84514" lon="1.9636">
        <ele>208</ele>
        <time>2020-07-15T13:29:13Z</time>
      </trkpt>
      <trkpt lat="43.84513" lon="1.96353">
        <ele>208</ele>
        <time>2020-07-15T13:29:14Z</time>
      </trkpt>
      <trkpt lat="43.84511" lon="1.96345">
        <ele>208</ele>
        <time>2020-07-15T13:29:15Z</time>
      </trkpt>
      <trkpt lat="43.8451" lon="1.96338">
        <ele>208</ele>
        <time>2020-07-15T13:29:16Z</time>
      </trkpt>
      <trkpt lat="43.84509" lon="1.96331">
        <ele>208.2</ele>
        <time>2020-07-15T13:29:17Z</time>
      </trkpt>
      <trkpt lat="43.84508" lon="1.96323">
        <ele>208.4</ele>
        <time>2020-07-15T13:29:18Z</time>
      </trkpt>
      <trkpt lat="43.84507" lon="1.96316">
        <ele>208.6</ele>
        <time>2020-07-15T13:29:19Z</time>
      </trkpt>
      <trkpt lat="43.84506" lon="1.96308">
        <ele>208.8</ele>
        <time>2020-07-15T13:29:20Z</time>
      </trkpt>
      <trkpt lat="43.84504" lon="1.96301">
        <ele>209.2</ele>
        <time>2020-07-15T13:29:21Z</time>
      </trkpt>
      <trkpt lat="43.84503" lon="1.96294">
        <ele>209.4</ele>
        <time>2020-07-15T13:29:22Z</time>
      </trkpt>
      <trkpt lat="43.84501" lon="1.96286">
        <ele>209.4</ele>
        <time>2020-07-15T13:29:23Z</time>
      </trkpt>
      <trkpt lat="43.845" lon="1.96279">
        <ele>209.4</ele>
        <time>2020-07-15T13:29:24Z</time>
      </trkpt>
      <trkpt lat="43.84498" lon="1.96272">
        <ele>209.6</ele>
        <time>2020-07-15T13:29:25Z</time>
      </trkpt>
      <trkpt lat="43.84496" lon="1.96265">
        <ele>209.6</ele>
        <time>2020-07-15T13:29:26Z</time>
      </trkpt>
      <trkpt lat="43.84493" lon="1.96258">
        <ele>209.6</ele>
        <time>2020-07-15T13:29:27Z</time>
      </trkpt>
      <trkpt lat="43.84491" lon="1.96251">
        <ele>209.6</ele>
        <time>2020-07-15T13:29:28Z</time>
      </trkpt>
      <trkpt lat="43.84489" lon="1.96244">
        <ele>210</ele>
        <time>2020-07-15T13:29:29Z</time>
      </trkpt>
      <trkpt lat="43.84486" lon="1.96237">
        <ele>210.4</ele>
        <time>2020-07-15T13:29:30Z</time>
      </trkpt>
      <trkpt lat="43.84484" lon="1.96231">
        <ele>210.6</ele>
        <time>2020-07-15T13:29:31Z</time>
      </trkpt>
      <trkpt lat="43.84481" lon="1.96224">
        <ele>210.8</ele>
        <time>2020-07-15T13:29:32Z</time>
      </trkpt>
      <trkpt lat="43.84479" lon="1.96218">
        <ele>211</ele>
        <time>2020-07-15T13:29:33Z</time>
      </trkpt>
      <trkpt lat="43.84476" lon="1.96212">
        <ele>211</ele>
        <time>2020-07-15T13:29:34Z</time>
      </trkpt>
      <trkpt lat="43.84474" lon="1.96205">
        <ele>211.2</ele>
        <time>2020-07-15T13:29:35Z</time>
      </trkpt>
      <trkpt lat="43.84471" lon="1.96199">
        <ele>211.2</ele>
        <time>2020-07-15T13:29:36Z</time>
      </trkpt>
      <trkpt lat="43.84469" lon="1.96194">
        <ele>211.4</ele>
        <time>2020-07-15T13:29:37Z</time>
      </trkpt>
      <trkpt lat="43.84465" lon="1.96188">
        <ele>211.6</ele>
        <time>2020-07-15T13:29:38Z</time>
      </trkpt>
      <trkpt lat="43.84463" lon="1.96182">
        <ele>211.8</ele>
        <time>2020-07-15T13:29:39Z</time>
      </trkpt>
      <trkpt lat="43.8446" lon="1.96177">
        <ele>212</ele>
        <time>2020-07-15T13:29:40Z</time>
      </trkpt>
      <trkpt lat="43.84457" lon="1.96171">
        <ele>212.2</ele>
        <time>2020-07-15T13:29:41Z</time>
      </trkpt>
      <trkpt lat="43.84453" lon="1.96166">
        <ele>212.4</ele>
        <time>2020-07-15T13:29:42Z</time>
      </trkpt>
      <trkpt lat="43.8445" lon="1.96161">
        <ele>212.6</ele>
        <time>2020-07-15T13:29:43Z</time>
      </trkpt>
      <trkpt lat="43.84446" lon="1.96157">
        <ele>213</ele>
        <time>2020-07-15T13:29:44Z</time>
      </trkpt>
      <trkpt lat="43.84443" lon="1.96152">
        <ele>213.2</ele>
        <time>2020-07-15T13:29:45Z</time>
      </trkpt>
      <trkpt lat="43.8444" lon="1.96148">
        <ele>213.4</ele>
        <time>2020-07-15T13:29:46Z</time>
      </trkpt>
      <trkpt lat="43.84437" lon="1.96143">
        <ele>213.6</ele>
        <time>2020-07-15T13:29:47Z</time>
      </trkpt>
      <trkpt lat="43.84434" lon="1.96139">
        <ele>213.8</ele>
        <time>2020-07-15T13:29:48Z</time>
      </trkpt>
      <trkpt lat="43.8443" lon="1.96135">
        <ele>214.2</ele>
        <time>2020-07-15T13:29:49Z</time>
      </trkpt>
      <trkpt lat="43.84428" lon="1.96131">
        <ele>214.6</ele>
        <time>2020-07-15T13:29:50Z</time>
      </trkpt>
      <trkpt lat="43.84425" lon="1.96127">
        <ele>215</ele>
        <time>2020-07-15T13:29:51Z</time>
      </trkpt>
      <trkpt lat="43.84422" lon="1.96123">
        <ele>215.2</ele>
        <time>2020-07-15T13:29:52Z</time>
      </trkpt>
      <trkpt lat="43.84419" lon="1.96119">
        <ele>215.4</ele>
        <time>2020-07-15T13:29:53Z</time>
      </trkpt>
      <trkpt lat="43.84417" lon="1.96115">
        <ele>215.6</ele>
        <time>2020-07-15T13:29:54Z</time>
      </trkpt>
      <trkpt lat="43.84414" lon="1.9611">
        <ele>215.8</ele>
        <time>2020-07-15T13:29:55Z</time>
      </trkpt>
      <trkpt lat="43.84412" lon="1.96105">
        <ele>215.8</ele>
        <time>2020-07-15T13:29:56Z</time>
      </trkpt>
      <trkpt lat="43.84412" lon="1.961">
        <ele>216</ele>
        <time>2020-07-15T13:29:57Z</time>
      </trkpt>
      <trkpt lat="43.84467" lon="1.96003">
        <ele>216</ele>
        <time>2020-07-15T13:32:09Z</time>
      </trkpt>
      <trkpt lat="43.84469" lon="1.95999">
        <ele>215.8</ele>
        <time>2020-07-15T13:32:10Z</time>
      </trkpt>
      <trkpt lat="43.84473" lon="1.95991">
        <ele>215.6</ele>
        <time>2020-07-15T13:32:11Z</time>
      </trkpt>
      <trkpt lat="43.84476" lon="1.95983">
        <ele>215.6</ele>
        <time>2020-07-15T13:32:12Z</time>
      </trkpt>
      <trkpt lat="43.8448" lon="1.95975">
        <ele>215.6</ele>
        <time>2020-07-15T13:32:13Z</time>
      </trkpt>
      <trkpt lat="43.84483" lon="1.95967">
        <ele>215.6</ele>
        <time>2020-07-15T13:32:14Z</time>
      </trkpt>
      <trkpt lat="43.84486" lon="1.95958">
        <ele>215.4</ele>
        <time>2020-07-15T13:32:15Z</time>
      </trkpt>
      <trkpt lat="43.84489" lon="1.9595">
        <ele>215</ele>
        <time>2020-07-15T13:32:16Z</time>
      </trkpt>
      <trkpt lat="43.84493" lon="1.95941">
        <ele>214.8</ele>
        <time>2020-07-15T13:32:17Z</time>
      </trkpt>
      <trkpt lat="43.84496" lon="1.95933">
        <ele>214.6</ele>
        <time>2020-07-15T13:32:18Z</time>
      </trkpt>
      <trkpt lat="43.84498" lon="1.95924">
        <ele>214.4</ele>
        <time>2020-07-15T13:32:19Z</time>
      </trkpt>
      <trkpt lat="43.84501" lon="1.95916">
        <ele>214.2</ele>
        <time>2020-07-15T13:32:20Z</time>
      </trkpt>
      <trkpt lat="43.84504" lon="1.95908">
        <ele>214.2</ele>
        <time>2020-07-15T13:32:21Z</time>
      </trkpt>
      <trkpt lat="43.84507" lon="1.959">
        <ele>214</ele>
        <time>2020-07-15T13:32:22Z</time>
      </trkpt>
      <trkpt lat="43.8451" lon="1.95892">
        <ele>214</ele>
        <time>2020-07-15T13:32:23Z</time>
      </trkpt>
      <trkpt lat="43.84513" lon="1.95885">
        <ele>213.8</ele>
        <time>2020-07-15T13:32:24Z</time>
      </trkpt>
      <trkpt lat="43.84517" lon="1.95877">
        <ele>213.6</ele>
        <time>2020-07-15T13:32:25Z</time>
      </trkpt>
      <trkpt lat="43.8452" lon="1.9587">
        <ele>213.4</ele>
        <time>2020-07-15T13:32:26Z</time>
      </trkpt>
      <trkpt lat="43.84523" lon="1.95863">
        <ele>213.2</ele>
        <time>2020-07-15T13:32:27Z</time>
      </trkpt>
      <trkpt lat="43.84527" lon="1.95856">
        <ele>213</ele>
        <time>2020-07-15T13:32:28Z</time>
      </trkpt>
      <trkpt lat="43.84531" lon="1.95849">
        <ele>212.8</ele>
        <time>2020-07-15T13:32:29Z</time>
      </trkpt>
      <trkpt lat="43.84536" lon="1.95842">
        <ele>212.8</ele>
        <time>2020-07-15T13:32:30Z</time>
      </trkpt>
      <trkpt lat="43.84539" lon="1.95836">
        <ele>212.6</ele>
        <time>2020-07-15T13:32:31Z</time>
      </trkpt>
      <trkpt lat="43.84544" lon="1.95829">
        <ele>212.4</ele>
        <time>2020-07-15T13:32:32Z</time>
      </trkpt>
      <trkpt lat="43.84548" lon="1.95822">
        <ele>212.2</ele>
        <time>2020-07-15T13:32:33Z</time>
      </trkpt>
      <trkpt lat="43.84552" lon="1.95816">
        <ele>212.2</ele>
        <time>2020-07-15T13:32:34Z</time>
      </trkpt>
      <trkpt lat="43.84557" lon="1.95809">
        <ele>212</ele>
        <time>2020-07-15T13:32:35Z</time>
      </trkpt>
      <trkpt lat="43.8456" lon="1.95802">
        <ele>211.8</ele>
        <time>2020-07-15T13:32:36Z</time>
      </trkpt>
      <trkpt lat="43.84564" lon="1.95794">
        <ele>211.8</ele>
        <time>2020-07-15T13:32:37Z</time>
      </trkpt>
      <trkpt lat="43.84568" lon="1.95787">
        <ele>211.8</ele>
        <time>2020-07-15T13:32:38Z</time>
      </trkpt>
      <trkpt lat="43.84571" lon="1.95779">
        <ele>211.6</ele>
        <time>2020-07-15T13:32:39Z</time>
      </trkpt>
      <trkpt lat="43.84575" lon="1.95771">
        <ele>211.6</ele>
        <time>2020-07-15T13:32:40Z</time>
      </trkpt>
      <trkpt lat="43.84578" lon="1.95763">
        <ele>211.6</ele>
        <time>2020-07-15T13:32:41Z</time>
      </trkpt>
      <trkpt lat="43.84581" lon="1.95755">
        <ele>211.6</ele>
        <time>2020-07-15T13:32:42Z</time>
      </trkpt>
      <trkpt lat="43.84584" lon="1.95747">
        <ele>211.6</ele>
        <time>2020-07-15T13:32:43Z</time>
      </trkpt>
      <trkpt lat="43.84587" lon="1.95739">
        <ele>211.6</ele>
        <time>2020-07-15T13:32:44Z</time>
      </trkpt>
      <trkpt lat="43.8459" lon="1.95731">
        <ele>211.6</ele>
        <time>2020-07-15T13:32:45Z</time>
      </trkpt>
      <trkpt lat="43.84593" lon="1.95723">
        <ele>211.6</ele>
        <time>2020-07-15T13:32:46Z</time>
      </trkpt>
      <trkpt lat="43.84595" lon="1.95714">
        <ele>211.6</ele>
        <time>2020-07-15T13:32:47Z</time>
      </trkpt>
      <trkpt lat="43.84598" lon="1.95706">
        <ele>211.6</ele>
        <time>2020-07-15T13:32:48Z</time>
      </trkpt>
      <trkpt lat="43.846" lon="1.95698">
        <ele>211.6</ele>
        <time>2020-07-15T13:32:49Z</time>
      </trkpt>
      <trkpt lat="43.84602" lon="1.95689">
        <ele>211.4</ele>
        <time>2020-07-15T13:32:50Z</time>
      </trkpt>
      <trkpt lat="43.84605" lon="1.9568">
        <ele>211.2</ele>
        <time>2020-07-15T13:32:51Z</time>
      </trkpt>
      <trkpt lat="43.84607" lon="1.95671">
        <ele>211</ele>
        <time>2020-07-15T13:32:52Z</time>
      </trkpt>
      <trkpt lat="43.8461" lon="1.95663">
        <ele>210.8</ele>
        <time>2020-07-15T13:32:53Z</time>
      </trkpt>
      <trkpt lat="43.84613" lon="1.95654">
        <ele>210.6</ele>
        <time>2020-07-15T13:32:54Z</time>
      </trkpt>
      <trkpt lat="43.84616" lon="1.95645">
        <ele>210.4</ele>
        <time>2020-07-15T13:32:55Z</time>
      </trkpt>
      <trkpt lat="43.8462" lon="1.95637">
        <ele>210.2</ele>
        <time>2020-07-15T13:32:56Z</time>
      </trkpt>
      <trkpt lat="43.84623" lon="1.95628">
        <ele>210.2</ele>
        <time>2020-07-15T13:32:57Z</time>
      </trkpt>
      <trkpt lat="43.84626" lon="1.9562">
        <ele>210</ele>
        <time>2020-07-15T13:32:58Z</time>
      </trkpt>
      <trkpt lat="43.8463" lon="1.95613">
        <ele>209.8</ele>
        <time>2020-07-15T13:32:59Z</time>
      </trkpt>
      <trkpt lat="43.84634" lon="1.95604">
        <ele>209.8</ele>
        <time>2020-07-15T13:33:00Z</time>
      </trkpt>
      <trkpt lat="43.84639" lon="1.95596">
        <ele>209.6</ele>
        <time>2020-07-15T13:33:01Z</time>
      </trkpt>
      <trkpt lat="43.84643" lon="1.95588">
        <ele>209.4</ele>
        <time>2020-07-15T13:33:02Z</time>
      </trkpt>
      <trkpt lat="43.84648" lon="1.9558">
        <ele>209.2</ele>
        <time>2020-07-15T13:33:03Z</time>
      </trkpt>
      <trkpt lat="43.84653" lon="1.95572">
        <ele>209</ele>
        <time>2020-07-15T13:33:04Z</time>
      </trkpt>
      <trkpt lat="43.84658" lon="1.95564">
        <ele>209</ele>
        <time>2020-07-15T13:33:05Z</time>
      </trkpt>
      <trkpt lat="43.84663" lon="1.95557">
        <ele>208.8</ele>
        <time>2020-07-15T13:33:06Z</time>
      </trkpt>
      <trkpt lat="43.84668" lon="1.9555">
        <ele>208.6</ele>
        <time>2020-07-15T13:33:07Z</time>
      </trkpt>
      <trkpt lat="43.84674" lon="1.95544">
        <ele>208.6</ele>
        <time>2020-07-15T13:33:08Z</time>
      </trkpt>
      <trkpt lat="43.84679" lon="1.95538">
        <ele>208.4</ele>
        <time>2020-07-15T13:33:09Z</time>
      </trkpt>
      <trkpt lat="43.84683" lon="1.95532">
        <ele>208.2</ele>
        <time>2020-07-15T13:33:10Z</time>
      </trkpt>
      <trkpt lat="43.84688" lon="1.95527">
        <ele>208.2</ele>
        <time>2020-07-15T13:33:11Z</time>
      </trkpt>
      <trkpt lat="43.84691" lon="1.95522">
        <ele>208.2</ele>
        <time>2020-07-15T13:33:12Z</time>
      </trkpt>
      <trkpt lat="43.84693" lon="1.95517">
        <ele>208.2</ele>
        <time>2020-07-15T13:33:13Z</time>
      </trkpt>
      <trkpt lat="43.84692" lon="1.95512">
        <ele>208.4</ele>
        <time>2020-07-15T13:33:14Z</time>
      </trkpt>
      <trkpt lat="43.84691" lon="1.95507">
        <ele>208.4</ele>
        <time>2020-07-15T13:33:15Z</time>
      </trkpt>
      <trkpt lat="43.84688" lon="1.95504">
        <ele>208.6</ele>
        <time>2020-07-15T13:33:16Z</time>
      </trkpt>
      <trkpt lat="43.84686" lon="1.955">
        <ele>208.8</ele>
        <time>2020-07-15T13:33:17Z</time>
      </trkpt>
      <trkpt lat="43.84684" lon="1.95496">
        <ele>209.2</ele>
        <time>2020-07-15T13:33:18Z</time>
      </trkpt>
      <trkpt lat="43.84681" lon="1.95492">
        <ele>209.2</ele>
        <time>2020-07-15T13:33:19Z</time>
      </trkpt>
      <trkpt lat="43.84678" lon="1.95487">
        <ele>209.4</ele>
        <time>2020-07-15T13:33:20Z</time>
      </trkpt>
      <trkpt lat="43.84675" lon="1.95481">
        <ele>209.6</ele>
        <time>2020-07-15T13:33:21Z</time>
      </trkpt>
      <trkpt lat="43.84671" lon="1.95476">
        <ele>209.8</ele>
        <time>2020-07-15T13:33:22Z</time>
      </trkpt>
      <trkpt lat="43.84668" lon="1.9547">
        <ele>210</ele>
        <time>2020-07-15T13:33:23Z</time>
      </trkpt>
      <trkpt lat="43.84665" lon="1.95464">
        <ele>210.2</ele>
        <time>2020-07-15T13:33:24Z</time>
      </trkpt>
      <trkpt lat="43.84662" lon="1.95458">
        <ele>210.4</ele>
        <time>2020-07-15T13:33:25Z</time>
      </trkpt>
      <trkpt lat="43.84658" lon="1.95452">
        <ele>210.6</ele>
        <time>2020-07-15T13:33:26Z</time>
      </trkpt>
      <trkpt lat="43.84655" lon="1.95445">
        <ele>211</ele>
        <time>2020-07-15T13:33:27Z</time>
      </trkpt>
      <trkpt lat="43.84652" lon="1.95438">
        <ele>211.4</ele>
        <time>2020-07-15T13:33:28Z</time>
      </trkpt>
      <trkpt lat="43.84649" lon="1.95432">
        <ele>211.8</ele>
        <time>2020-07-15T13:33:29Z</time>
      </trkpt>
      <trkpt lat="43.84646" lon="1.95425">
        <ele>212.2</ele>
        <time>2020-07-15T13:33:30Z</time>
      </trkpt>
      <trkpt lat="43.84644" lon="1.95418">
        <ele>212.6</ele>
        <time>2020-07-15T13:33:31Z</time>
      </trkpt>
      <trkpt lat="43.84641" lon="1.95412">
        <ele>212.8</ele>
        <time>2020-07-15T13:33:32Z</time>
      </trkpt>
      <trkpt lat="43.84639" lon="1.95405">
        <ele>213.2</ele>
        <time>2020-07-15T13:33:33Z</time>
      </trkpt>
      <trkpt lat="43.84636" lon="1.95398">
        <ele>213.6</ele>
        <time>2020-07-15T13:33:34Z</time>
      </trkpt>
      <trkpt lat="43.84633" lon="1.95392">
        <ele>214</ele>
        <time>2020-07-15T13:33:35Z</time>
      </trkpt>
      <trkpt lat="43.84631" lon="1.95386">
        <ele>214.6</ele>
        <time>2020-07-15T13:33:36Z</time>
      </trkpt>
      <trkpt lat="43.84628" lon="1.9538">
        <ele>215</ele>
        <time>2020-07-15T13:33:37Z</time>
      </trkpt>
      <trkpt lat="43.84626" lon="1.95375">
        <ele>215.6</ele>
        <time>2020-07-15T13:33:38Z</time>
      </trkpt>
      <trkpt lat="43.84624" lon="1.9537">
        <ele>216</ele>
        <time>2020-07-15T13:33:39Z</time>
      </trkpt>
      <trkpt lat="43.84621" lon="1.95365">
        <ele>216.4</ele>
        <time>2020-07-15T13:33:40Z</time>
      </trkpt>
      <trkpt lat="43.84619" lon="1.95359">
        <ele>216.8</ele>
        <time>2020-07-15T13:33:41Z</time>
      </trkpt>
      <trkpt lat="43.84617" lon="1.95354">
        <ele>217.2</ele>
        <time>2020-07-15T13:33:42Z</time>
      </trkpt>
      <trkpt lat="43.84614" lon="1.95348">
        <ele>217.6</ele>
        <time>2020-07-15T13:33:43Z</time>
      </trkpt>
      <trkpt lat="43.84612" lon="1.95343">
        <ele>218</ele>
        <time>2020-07-15T13:33:44Z</time>
      </trkpt>
      <trkpt lat="43.84609" lon="1.95337">
        <ele>218.4</ele>
        <time>2020-07-15T13:33:45Z</time>
      </trkpt>
      <trkpt lat="43.84607" lon="1.95331">
        <ele>218.8</ele>
        <time>2020-07-15T13:33:46Z</time>
      </trkpt>
      <trkpt lat="43.84604" lon="1.95325">
        <ele>219.2</ele>
        <time>2020-07-15T13:33:47Z</time>
      </trkpt>
      <trkpt lat="43.84602" lon="1.95319">
        <ele>219.8</ele>
        <time>2020-07-15T13:33:48Z</time>
      </trkpt>
      <trkpt lat="43.846" lon="1.95313">
        <ele>220.2</ele>
        <time>2020-07-15T13:33:49Z</time>
      </trkpt>
      <trkpt lat="43.84597" lon="1.95307">
        <ele>220.8</ele>
        <time>2020-07-15T13:33:50Z</time>
      </trkpt>
      <trkpt lat="43.84595" lon="1.95302">
        <ele>221.2</ele>
        <time>2020-07-15T13:33:51Z</time>
      </trkpt>
      <trkpt lat="43.84592" lon="1.95296">
        <ele>221.6</ele>
        <time>2020-07-15T13:33:52Z</time>
      </trkpt>
      <trkpt lat="43.84589" lon="1.95291">
        <ele>222</ele>
        <time>2020-07-15T13:33:53Z</time>
      </trkpt>
      <trkpt lat="43.84586" lon="1.95286">
        <ele>222.6</ele>
        <time>2020-07-15T13:33:54Z</time>
      </trkpt>
      <trkpt lat="43.84582" lon="1.95282">
        <ele>223</ele>
        <time>2020-07-15T13:33:55Z</time>
      </trkpt>
      <trkpt lat="43.84578" lon="1.95279">
        <ele>223.4</ele>
        <time>2020-07-15T13:33:56Z</time>
      </trkpt>
      <trkpt lat="43.84575" lon="1.95275">
        <ele>223.8</ele>
        <time>2020-07-15T13:33:57Z</time>
      </trkpt>
      <trkpt lat="43.84571" lon="1.95272">
        <ele>224.2</ele>
        <time>2020-07-15T13:33:58Z</time>
      </trkpt>
      <trkpt lat="43.84567" lon="1.95269">
        <ele>224.6</ele>
        <time>2020-07-15T13:33:59Z</time>
      </trkpt>
      <trkpt lat="43.84564" lon="1.95266">
        <ele>225.2</ele>
        <time>2020-07-15T13:34:00Z</time>
      </trkpt>
      <trkpt lat="43.8456" lon="1.95263">
        <ele>225.8</ele>
        <time>2020-07-15T13:34:01Z</time>
      </trkpt>
      <trkpt lat="43.84557" lon="1.9526">
        <ele>226.2</ele>
        <time>2020-07-15T13:34:02Z</time>
      </trkpt>
      <trkpt lat="43.84554" lon="1.95256">
        <ele>226.8</ele>
        <time>2020-07-15T13:34:03Z</time>
      </trkpt>
      <trkpt lat="43.84551" lon="1.95253">
        <ele>227.2</ele>
        <time>2020-07-15T13:34:04Z</time>
      </trkpt>
      <trkpt lat="43.84547" lon="1.95249">
        <ele>227.8</ele>
        <time>2020-07-15T13:34:05Z</time>
      </trkpt>
      <trkpt lat="43.84544" lon="1.95245">
        <ele>228</ele>
        <time>2020-07-15T13:34:06Z</time>
      </trkpt>
      <trkpt lat="43.8454" lon="1.95242">
        <ele>228.4</ele>
        <time>2020-07-15T13:34:07Z</time>
      </trkpt>
      <trkpt lat="43.84536" lon="1.95238">
        <ele>228.6</ele>
        <time>2020-07-15T13:34:08Z</time>
      </trkpt>
      <trkpt lat="43.84532" lon="1.95234">
        <ele>229</ele>
        <time>2020-07-15T13:34:09Z</time>
      </trkpt>
      <trkpt lat="43.84528" lon="1.95231">
        <ele>229.2</ele>
        <time>2020-07-15T13:34:10Z</time>
      </trkpt>
      <trkpt lat="43.84523" lon="1.95228">
        <ele>229.4</ele>
        <time>2020-07-15T13:34:11Z</time>
      </trkpt>
      <trkpt lat="43.84519" lon="1.95224">
        <ele>229.8</ele>
        <time>2020-07-15T13:34:12Z</time>
      </trkpt>
      <trkpt lat="43.84515" lon="1.9522">
        <ele>230</ele>
        <time>2020-07-15T13:34:13Z</time>
      </trkpt>
      <trkpt lat="43.84511" lon="1.95216">
        <ele>230.4</ele>
        <time>2020-07-15T13:34:14Z</time>
      </trkpt>
      <trkpt lat="43.84507" lon="1.95212">
        <ele>230.8</ele>
        <time>2020-07-15T13:34:15Z</time>
      </trkpt>
      <trkpt lat="43.84503" lon="1.95208">
        <ele>231.2</ele>
        <time>2020-07-15T13:34:16Z</time>
      </trkpt>
      <trkpt lat="43.84499" lon="1.95204">
        <ele>231.6</ele>
        <time>2020-07-15T13:34:17Z</time>
      </trkpt>
      <trkpt lat="43.84496" lon="1.95201">
        <ele>232.2</ele>
        <time>2020-07-15T13:34:18Z</time>
      </trkpt>
      <trkpt lat="43.84493" lon="1.95197">
        <ele>232.6</ele>
        <time>2020-07-15T13:34:19Z</time>
      </trkpt>
      <trkpt lat="43.8449" lon="1.95193">
        <ele>233.2</ele>
        <time>2020-07-15T13:34:20Z</time>
      </trkpt>
      <trkpt lat="43.84486" lon="1.95188">
        <ele>233.6</ele>
        <time>2020-07-15T13:34:21Z</time>
      </trkpt>
      <trkpt lat="43.84483" lon="1.95184">
        <ele>233.8</ele>
        <time>2020-07-15T13:34:22Z</time>
      </trkpt>
      <trkpt lat="43.8448" lon="1.95179">
        <ele>234.2</ele>
        <time>2020-07-15T13:34:23Z</time>
      </trkpt>
      <trkpt lat="43.84477" lon="1.95173">
        <ele>234.6</ele>
        <time>2020-07-15T13:34:24Z</time>
      </trkpt>
      <trkpt lat="43.84474" lon="1.95168">
        <ele>235</ele>
        <time>2020-07-15T13:34:25Z</time>
      </trkpt>
      <trkpt lat="43.84472" lon="1.95163">
        <ele>235.6</ele>
        <time>2020-07-15T13:34:26Z</time>
      </trkpt>
      <trkpt lat="43.84469" lon="1.95158">
        <ele>236.2</ele>
        <time>2020-07-15T13:34:27Z</time>
      </trkpt>
      <trkpt lat="43.84467" lon="1.95153">
        <ele>236.8</ele>
        <time>2020-07-15T13:34:28Z</time>
      </trkpt>
      <trkpt lat="43.84465" lon="1.95148">
        <ele>237.4</ele>
        <time>2020-07-15T13:34:29Z</time>
      </trkpt>
      <trkpt lat="43.84462" lon="1.95142">
        <ele>237.8</ele>
        <time>2020-07-15T13:34:30Z</time>
      </trkpt>
      <trkpt lat="43.8446" lon="1.95137">
        <ele>238.2</ele>
        <time>2020-07-15T13:34:31Z</time>
      </trkpt>
      <trkpt lat="43.84457" lon="1.95132">
        <ele>238.6</ele>
        <time>2020-07-15T13:34:32Z</time>
      </trkpt>
      <trkpt lat="43.84454" lon="1.95127">
        <ele>239</ele>
        <time>2020-07-15T13:34:33Z</time>
      </trkpt>
      <trkpt lat="43.84451" lon="1.95122">
        <ele>239.4</ele>
        <time>2020-07-15T13:34:34Z</time>
      </trkpt>
      <trkpt lat="43.84449" lon="1.95118">
        <ele>239.8</ele>
        <time>2020-07-15T13:34:35Z</time>
      </trkpt>
      <trkpt lat="43.84446" lon="1.95113">
        <ele>240.2</ele>
        <time>2020-07-15T13:34:36Z</time>
      </trkpt>
      <trkpt lat="43.84443" lon="1.95109">
        <ele>240.6</ele>
        <time>2020-07-15T13:34:37Z</time>
      </trkpt>
      <trkpt lat="43.8444" lon="1.95105">
        <ele>241</ele>
        <time>2020-07-15T13:34:38Z</time>
      </trkpt>
      <trkpt lat="43.84438" lon="1.95101">
        <ele>241.4</ele>
        <time>2020-07-15T13:34:39Z</time>
      </trkpt>
      <trkpt lat="43.84435" lon="1.95097">
        <ele>241.8</ele>
        <time>2020-07-15T13:34:40Z</time>
      </trkpt>
      <trkpt lat="43.84433" lon="1.95093">
        <ele>242.2</ele>
        <time>2020-07-15T13:34:41Z</time>
      </trkpt>
      <trkpt lat="43.84431" lon="1.9509">
        <ele>242.6</ele>
        <time>2020-07-15T13:34:42Z</time>
      </trkpt>
      <trkpt lat="43.84429" lon="1.95087">
        <ele>243</ele>
        <time>2020-07-15T13:34:43Z</time>
      </trkpt>
      <trkpt lat="43.84426" lon="1.95086">
        <ele>243.2</ele>
        <time>2020-07-15T13:34:44Z</time>
      </trkpt>
      <trkpt lat="43.84423" lon="1.95085">
        <ele>243.4</ele>
        <time>2020-07-15T13:34:45Z</time>
      </trkpt>
      <trkpt lat="43.84419" lon="1.95086">
        <ele>243.6</ele>
        <time>2020-07-15T13:34:46Z</time>
      </trkpt>
      <trkpt lat="43.84414" lon="1.95088">
        <ele>243.8</ele>
        <time>2020-07-15T13:34:47Z</time>
      </trkpt>
      <trkpt lat="43.8441" lon="1.95089">
        <ele>243.8</ele>
        <time>2020-07-15T13:34:48Z</time>
      </trkpt>
      <trkpt lat="43.84404" lon="1.9509">
        <ele>243.8</ele>
        <time>2020-07-15T13:34:49Z</time>
      </trkpt>
      <trkpt lat="43.84399" lon="1.95091">
        <ele>243.8</ele>
        <time>2020-07-15T13:34:50Z</time>
      </trkpt>
      <trkpt lat="43.84394" lon="1.95091">
        <ele>243.8</ele>
        <time>2020-07-15T13:34:51Z</time>
      </trkpt>
      <trkpt lat="43.84388" lon="1.95091">
        <ele>243.8</ele>
        <time>2020-07-15T13:34:52Z</time>
      </trkpt>
      <trkpt lat="43.84383" lon="1.9509">
        <ele>244</ele>
        <time>2020-07-15T13:34:53Z</time>
      </trkpt>
      <trkpt lat="43.84377" lon="1.95089">
        <ele>244</ele>
        <time>2020-07-15T13:34:54Z</time>
      </trkpt>
      <trkpt lat="43.84372" lon="1.95088">
        <ele>244</ele>
        <time>2020-07-15T13:34:55Z</time>
      </trkpt>
      <trkpt lat="43.84367" lon="1.95086">
        <ele>244.2</ele>
        <time>2020-07-15T13:34:56Z</time>
      </trkpt>
      <trkpt lat="43.84362" lon="1.95083">
        <ele>244.4</ele>
        <time>2020-07-15T13:34:57Z</time>
      </trkpt>
      <trkpt lat="43.84357" lon="1.9508">
        <ele>244.6</ele>
        <time>2020-07-15T13:34:58Z</time>
      </trkpt>
      <trkpt lat="43.84351" lon="1.95076">
        <ele>244.8</ele>
        <time>2020-07-15T13:34:59Z</time>
      </trkpt>
      <trkpt lat="43.84347" lon="1.95073">
        <ele>245</ele>
        <time>2020-07-15T13:35:00Z</time>
      </trkpt>
      <trkpt lat="43.84343" lon="1.95071">
        <ele>245</ele>
        <time>2020-07-15T13:35:01Z</time>
      </trkpt>
      <trkpt lat="43.84337" lon="1.95067">
        <ele>245.2</ele>
        <time>2020-07-15T13:35:02Z</time>
      </trkpt>
      <trkpt lat="43.84332" lon="1.95063">
        <ele>245.4</ele>
        <time>2020-07-15T13:35:03Z</time>
      </trkpt>
      <trkpt lat="43.84327" lon="1.9506">
        <ele>245.4</ele>
        <time>2020-07-15T13:35:04Z</time>
      </trkpt>
      <trkpt lat="43.84322" lon="1.95057">
        <ele>245.2</ele>
        <time>2020-07-15T13:35:05Z</time>
      </trkpt>
      <trkpt lat="43.84316" lon="1.95054">
        <ele>245.2</ele>
        <time>2020-07-15T13:35:06Z</time>
      </trkpt>
      <trkpt lat="43.84311" lon="1.95051">
        <ele>245.4</ele>
        <time>2020-07-15T13:35:07Z</time>
      </trkpt>
      <trkpt lat="43.84306" lon="1.95047">
        <ele>245.4</ele>
        <time>2020-07-15T13:35:08Z</time>
      </trkpt>
      <trkpt lat="43.84301" lon="1.95044">
        <ele>245.6</ele>
        <time>2020-07-15T13:35:09Z</time>
      </trkpt>
      <trkpt lat="43.84296" lon="1.95041">
        <ele>245.6</ele>
        <time>2020-07-15T13:35:10Z</time>
      </trkpt>
      <trkpt lat="43.84291" lon="1.95038">
        <ele>245.6</ele>
        <time>2020-07-15T13:35:11Z</time>
      </trkpt>
      <trkpt lat="43.84286" lon="1.95035">
        <ele>245.6</ele>
        <time>2020-07-15T13:35:12Z</time>
      </trkpt>
      <trkpt lat="43.84281" lon="1.95032">
        <ele>245.4</ele>
        <time>2020-07-15T13:35:13Z</time>
      </trkpt>
      <trkpt lat="43.84278" lon="1.9503">
        <ele>245.4</ele>
        <time>2020-07-15T13:35:14Z</time>
      </trkpt>
      <trkpt lat="43.84275" lon="1.95027">
        <ele>245.6</ele>
        <time>2020-07-15T13:35:15Z</time>
      </trkpt>
      <trkpt lat="43.84273" lon="1.95024">
        <ele>245.8</ele>
        <time>2020-07-15T13:35:16Z</time>
      </trkpt>
      <trkpt lat="43.84273" lon="1.95021">
        <ele>245.8</ele>
        <time>2020-07-15T13:35:17Z</time>
      </trkpt>
      <trkpt lat="43.84274" lon="1.95018">
        <ele>246</ele>
        <time>2020-07-15T13:35:18Z</time>
      </trkpt>
      <trkpt lat="43.84275" lon="1.95016">
        <ele>246.2</ele>
        <time>2020-07-15T13:35:19Z</time>
      </trkpt>
      <trkpt lat="43.84277" lon="1.95013">
        <ele>246.4</ele>
        <time>2020-07-15T13:35:20Z</time>
      </trkpt>
      <trkpt lat="43.8428" lon="1.95011">
        <ele>246.6</ele>
        <time>2020-07-15T13:35:21Z</time>
      </trkpt>
      <trkpt lat="43.84282" lon="1.95009">
        <ele>246.8</ele>
        <time>2020-07-15T13:35:22Z</time>
      </trkpt>
      <trkpt lat="43.84284" lon="1.95006">
        <ele>247</ele>
        <time>2020-07-15T13:35:23Z</time>
      </trkpt>
      <trkpt lat="43.84287" lon="1.95003">
        <ele>247.2</ele>
        <time>2020-07-15T13:35:24Z</time>
      </trkpt>
      <trkpt lat="43.84289" lon="1.94999">
        <ele>247.6</ele>
        <time>2020-07-15T13:35:25Z</time>
      </trkpt>
      <trkpt lat="43.84291" lon="1.94995">
        <ele>248</ele>
        <time>2020-07-15T13:35:26Z</time>
      </trkpt>
      <trkpt lat="43.84293" lon="1.94991">
        <ele>248.4</ele>
        <time>2020-07-15T13:35:27Z</time>
      </trkpt>
      <trkpt lat="43.84296" lon="1.94987">
        <ele>248.6</ele>
        <time>2020-07-15T13:35:28Z</time>
      </trkpt>
      <trkpt lat="43.84298" lon="1.94982">
        <ele>249</ele>
        <time>2020-07-15T13:35:29Z</time>
      </trkpt>
      <trkpt lat="43.843" lon="1.94978">
        <ele>249.4</ele>
        <time>2020-07-15T13:35:30Z</time>
      </trkpt>
      <trkpt lat="43.84301" lon="1.94973">
        <ele>249.8</ele>
        <time>2020-07-15T13:35:31Z</time>
      </trkpt>
      <trkpt lat="43.84302" lon="1.94968">
        <ele>250.2</ele>
        <time>2020-07-15T13:35:32Z</time>
      </trkpt>
      <trkpt lat="43.84304" lon="1.94963">
        <ele>250.6</ele>
        <time>2020-07-15T13:35:33Z</time>
      </trkpt>
      <trkpt lat="43.84306" lon="1.94959">
        <ele>251.2</ele>
        <time>2020-07-15T13:35:34Z</time>
      </trkpt>
      <trkpt lat="43.84308" lon="1.94957">
        <ele>251.6</ele>
        <time>2020-07-15T13:35:35Z</time>
      </trkpt>
      <trkpt lat="43.8431" lon="1.94957">
        <ele>252.2</ele>
        <time>2020-07-15T13:35:36Z</time>
      </trkpt>
      <trkpt lat="43.84312" lon="1.9496">
        <ele>252.6</ele>
        <time>2020-07-15T13:35:37Z</time>
      </trkpt>
      <trkpt lat="43.84313" lon="1.94964">
        <ele>253.2</ele>
        <time>2020-07-15T13:35:38Z</time>
      </trkpt>
      <trkpt lat="43.84315" lon="1.94968">
        <ele>253.6</ele>
        <time>2020-07-15T13:35:39Z</time>
      </trkpt>
      <trkpt lat="43.84318" lon="1.9497">
        <ele>254.2</ele>
        <time>2020-07-15T13:35:40Z</time>
      </trkpt>
      <trkpt lat="43.84322" lon="1.94972">
        <ele>254.6</ele>
        <time>2020-07-15T13:35:41Z</time>
      </trkpt>
      <trkpt lat="43.84325" lon="1.94972">
        <ele>255.2</ele>
        <time>2020-07-15T13:35:42Z</time>
      </trkpt>
      <trkpt lat="43.8433" lon="1.94971">
        <ele>255.6</ele>
        <time>2020-07-15T13:35:43Z</time>
      </trkpt>
      <trkpt lat="43.84333" lon="1.9497">
        <ele>256</ele>
        <time>2020-07-15T13:35:44Z</time>
      </trkpt>
      <trkpt lat="43.84336" lon="1.94968">
        <ele>256.6</ele>
        <time>2020-07-15T13:35:45Z</time>
      </trkpt>
      <trkpt lat="43.8434" lon="1.94966">
        <ele>257</ele>
        <time>2020-07-15T13:35:46Z</time>
      </trkpt>
      <trkpt lat="43.84342" lon="1.94963">
        <ele>257.4</ele>
        <time>2020-07-15T13:35:47Z</time>
      </trkpt>
      <trkpt lat="43.84345" lon="1.9496">
        <ele>257.8</ele>
        <time>2020-07-15T13:35:48Z</time>
      </trkpt>
      <trkpt lat="43.84346" lon="1.94956">
        <ele>258.2</ele>
        <time>2020-07-15T13:35:49Z</time>
      </trkpt>
      <trkpt lat="43.84347" lon="1.94953">
        <ele>258.6</ele>
        <time>2020-07-15T13:35:50Z</time>
      </trkpt>
      <trkpt lat="43.84349" lon="1.94948">
        <ele>258.8</ele>
        <time>2020-07-15T13:35:51Z</time>
      </trkpt>
      <trkpt lat="43.84351" lon="1.94944">
        <ele>259</ele>
        <time>2020-07-15T13:35:52Z</time>
      </trkpt>
      <trkpt lat="43.84353" lon="1.94941">
        <ele>259.2</ele>
        <time>2020-07-15T13:35:53Z</time>
      </trkpt>
      <trkpt lat="43.84357" lon="1.94939">
        <ele>259.4</ele>
        <time>2020-07-15T13:35:54Z</time>
      </trkpt>
      <trkpt lat="43.8436" lon="1.94937">
        <ele>259.4</ele>
        <time>2020-07-15T13:35:55Z</time>
      </trkpt>
      <trkpt lat="43.84363" lon="1.94937">
        <ele>259.4</ele>
        <time>2020-07-15T13:35:56Z</time>
      </trkpt>
      <trkpt lat="43.84367" lon="1.94937">
        <ele>259.4</ele>
        <time>2020-07-15T13:35:57Z</time>
      </trkpt>
      <trkpt lat="43.84371" lon="1.9494">
        <ele>259.6</ele>
        <time>2020-07-15T13:35:58Z</time>
      </trkpt>
      <trkpt lat="43.84374" lon="1.94945">
        <ele>259.6</ele>
        <time>2020-07-15T13:35:59Z</time>
      </trkpt>
      <trkpt lat="43.84378" lon="1.9495">
        <ele>259.4</ele>
        <time>2020-07-15T13:36:00Z</time>
      </trkpt>
      <trkpt lat="43.84382" lon="1.94956">
        <ele>259.4</ele>
        <time>2020-07-15T13:36:01Z</time>
      </trkpt>
      <trkpt lat="43.84386" lon="1.94962">
        <ele>259.2</ele>
        <time>2020-07-15T13:36:02Z</time>
      </trkpt>
      <trkpt lat="43.8439" lon="1.94969">
        <ele>259</ele>
        <time>2020-07-15T13:36:03Z</time>
      </trkpt>
      <trkpt lat="43.84394" lon="1.94977">
        <ele>258.8</ele>
        <time>2020-07-15T13:36:04Z</time>
      </trkpt>
      <trkpt lat="43.84397" lon="1.94985">
        <ele>258.4</ele>
        <time>2020-07-15T13:36:05Z</time>
      </trkpt>
      <trkpt lat="43.84398" lon="1.94991">
        <ele>258</ele>
        <time>2020-07-15T13:36:06Z</time>
      </trkpt>
      <trkpt lat="43.84399" lon="1.94996">
        <ele>257.8</ele>
        <time>2020-07-15T13:36:07Z</time>
      </trkpt>
      <trkpt lat="43.84401" lon="1.94999">
        <ele>257.6</ele>
        <time>2020-07-15T13:36:08Z</time>
      </trkpt>
      <trkpt lat="43.84403" lon="1.95">
        <ele>257.4</ele>
        <time>2020-07-15T13:36:09Z</time>
      </trkpt>
      <trkpt lat="43.84405" lon="1.94998">
        <ele>257.2</ele>
        <time>2020-07-15T13:36:10Z</time>
      </trkpt>
      <trkpt lat="43.84406" lon="1.94994">
        <ele>257</ele>
        <time>2020-07-15T13:36:11Z</time>
      </trkpt>
      <trkpt lat="43.84405" lon="1.9499">
        <ele>256.8</ele>
        <time>2020-07-15T13:36:12Z</time>
      </trkpt>
      <trkpt lat="43.84403" lon="1.94986">
        <ele>256.8</ele>
        <time>2020-07-15T13:36:13Z</time>
      </trkpt>
      <trkpt lat="43.84401" lon="1.94981">
        <ele>256.8</ele>
        <time>2020-07-15T13:36:14Z</time>
      </trkpt>
      <trkpt lat="43.84399" lon="1.94977">
        <ele>256.8</ele>
        <time>2020-07-15T13:36:15Z</time>
      </trkpt>
      <trkpt lat="43.84396" lon="1.94972">
        <ele>257.2</ele>
        <time>2020-07-15T13:36:16Z</time>
      </trkpt>
      <trkpt lat="43.84393" lon="1.94967">
        <ele>257.4</ele>
        <time>2020-07-15T13:36:17Z</time>
      </trkpt>
      <trkpt lat="43.84391" lon="1.94962">
        <ele>257.8</ele>
        <time>2020-07-15T13:36:18Z</time>
      </trkpt>
      <trkpt lat="43.84388" lon="1.94958">
        <ele>258.2</ele>
        <time>2020-07-15T13:36:19Z</time>
      </trkpt>
      <trkpt lat="43.84386" lon="1.94954">
        <ele>258.4</ele>
        <time>2020-07-15T13:36:20Z</time>
      </trkpt>
      <trkpt lat="43.84384" lon="1.94951">
        <ele>258.8</ele>
        <time>2020-07-15T13:36:21Z</time>
      </trkpt>
      <trkpt lat="43.84382" lon="1.94948">
        <ele>259</ele>
        <time>2020-07-15T13:36:22Z</time>
      </trkpt>
      <trkpt lat="43.8438" lon="1.94946">
        <ele>259.2</ele>
        <time>2020-07-15T13:36:23Z</time>
      </trkpt>
      <trkpt lat="43.8438" lon="1.94943">
        <ele>259</ele>
        <time>2020-07-15T13:36:24Z</time>
      </trkpt>
      <trkpt lat="43.84382" lon="1.94939">
        <ele>259</ele>
        <time>2020-07-15T13:36:25Z</time>
      </trkpt>
      <trkpt lat="43.84385" lon="1.94936">
        <ele>258.8</ele>
        <time>2020-07-15T13:36:26Z</time>
      </trkpt>
      <trkpt lat="43.84387" lon="1.94932">
        <ele>258.6</ele>
        <time>2020-07-15T13:36:27Z</time>
      </trkpt>
      <trkpt lat="43.84388" lon="1.94929">
        <ele>258.6</ele>
        <time>2020-07-15T13:36:28Z</time>
      </trkpt>
      <trkpt lat="43.84388" lon="1.94926">
        <ele>258.4</ele>
        <time>2020-07-15T13:36:29Z</time>
      </trkpt>
      <trkpt lat="43.84388" lon="1.94924">
        <ele>258.6</ele>
        <time>2020-07-15T13:36:30Z</time>
      </trkpt>
      <trkpt lat="43.84388" lon="1.94923">
        <ele>258.8</ele>
        <time>2020-07-15T13:36:31Z</time>
      </trkpt>
      <trkpt lat="43.84388" lon="1.94923">
        <ele>258.8</ele>
        <time>2020-07-15T13:36:32Z</time>
      </trkpt>
      <trkpt lat="43.84388" lon="1.94923">
        <ele>258.8</ele>
        <time>2020-07-15T13:36:33Z</time>
      </trkpt>
      <trkpt lat="43.84388" lon="1.94923">
        <ele>258.8</ele>
        <time>2020-07-15T13:36:34Z</time>
      </trkpt>
      <trkpt lat="43.84388" lon="1.94923">
        <ele>259</ele>
        <time>2020-07-15T13:36:35Z</time>
      </trkpt>
      <trkpt lat="43.84388" lon="1.94923">
        <ele>259</ele>
        <time>2020-07-15T13:36:36Z</time>
      </trkpt>
      <trkpt lat="43.84391" lon="1.94922">
        <ele>258.8</ele>
        <time>2020-07-15T13:36:37Z</time>
      </trkpt>
      <trkpt lat="43.84393" lon="1.94923">
        <ele>258.4</ele>
        <time>2020-07-15T13:36:38Z</time>
      </trkpt>
      <trkpt lat="43.84396" lon="1.94924">
        <ele>257.8</ele>
        <time>2020-07-15T13:36:39Z</time>
      </trkpt>
      <trkpt lat="43.84401" lon="1.94927">
        <ele>257</ele>
        <time>2020-07-15T13:36:40Z</time>
      </trkpt>
      <trkpt lat="43.84405" lon="1.94931">
        <ele>256.2</ele>
        <time>2020-07-15T13:36:41Z</time>
      </trkpt>
      <trkpt lat="43.84409" lon="1.94935">
        <ele>255.4</ele>
        <time>2020-07-15T13:36:42Z</time>
      </trkpt>
      <trkpt lat="43.84414" lon="1.9494">
        <ele>254.4</ele>
        <time>2020-07-15T13:36:43Z</time>
      </trkpt>
      <trkpt lat="43.84418" lon="1.94943">
        <ele>253.6</ele>
        <time>2020-07-15T13:36:44Z</time>
      </trkpt>
      <trkpt lat="43.84422" lon="1.94944">
        <ele>252.8</ele>
        <time>2020-07-15T13:36:45Z</time>
      </trkpt>
      <trkpt lat="43.84425" lon="1.94942">
        <ele>252</ele>
        <time>2020-07-15T13:36:46Z</time>
      </trkpt>
      <trkpt lat="43.8443" lon="1.9494">
        <ele>251.2</ele>
        <time>2020-07-15T13:36:47Z</time>
      </trkpt>
      <trkpt lat="43.84435" lon="1.94937">
        <ele>250.6</ele>
        <time>2020-07-15T13:36:48Z</time>
      </trkpt>
      <trkpt lat="43.84438" lon="1.94935">
        <ele>250</ele>
        <time>2020-07-15T13:36:49Z</time>
      </trkpt>
      <trkpt lat="43.84441" lon="1.94933">
        <ele>249.4</ele>
        <time>2020-07-15T13:36:50Z</time>
      </trkpt>
      <trkpt lat="43.84442" lon="1.94929">
        <ele>249</ele>
        <time>2020-07-15T13:36:51Z</time>
      </trkpt>
      <trkpt lat="43.84441" lon="1.94926">
        <ele>248.6</ele>
        <time>2020-07-15T13:36:52Z</time>
      </trkpt>
      <trkpt lat="43.8444" lon="1.94922">
        <ele>248.4</ele>
        <time>2020-07-15T13:36:53Z</time>
      </trkpt>
      <trkpt lat="43.84439" lon="1.94919">
        <ele>248</ele>
        <time>2020-07-15T13:36:54Z</time>
      </trkpt>
      <trkpt lat="43.84437" lon="1.94916">
        <ele>248</ele>
        <time>2020-07-15T13:36:55Z</time>
      </trkpt>
      <trkpt lat="43.84436" lon="1.94913">
        <ele>247.8</ele>
        <time>2020-07-15T13:36:56Z</time>
      </trkpt>
      <trkpt lat="43.84434" lon="1.9491">
        <ele>247.8</ele>
        <time>2020-07-15T13:36:57Z</time>
      </trkpt>
      <trkpt lat="43.84432" lon="1.94906">
        <ele>247.6</ele>
        <time>2020-07-15T13:36:58Z</time>
      </trkpt>
      <trkpt lat="43.84429" lon="1.94901">
        <ele>247.6</ele>
        <time>2020-07-15T13:36:59Z</time>
      </trkpt>
      <trkpt lat="43.84426" lon="1.94896">
        <ele>247.4</ele>
        <time>2020-07-15T13:37:00Z</time>
      </trkpt>
      <trkpt lat="43.84423" lon="1.94891">
        <ele>247.2</ele>
        <time>2020-07-15T13:37:01Z</time>
      </trkpt>
      <trkpt lat="43.84418" lon="1.94885">
        <ele>247.2</ele>
        <time>2020-07-15T13:37:02Z</time>
      </trkpt>
      <trkpt lat="43.84414" lon="1.9488">
        <ele>247</ele>
        <time>2020-07-15T13:37:03Z</time>
      </trkpt>
      <trkpt lat="43.8441" lon="1.94875">
        <ele>246.8</ele>
        <time>2020-07-15T13:37:04Z</time>
      </trkpt>
      <trkpt lat="43.84406" lon="1.94869">
        <ele>246.8</ele>
        <time>2020-07-15T13:37:05Z</time>
      </trkpt>
      <trkpt lat="43.84401" lon="1.94864">
        <ele>246.8</ele>
        <time>2020-07-15T13:37:06Z</time>
      </trkpt>
      <trkpt lat="43.84397" lon="1.94858">
        <ele>246.8</ele>
        <time>2020-07-15T13:37:07Z</time>
      </trkpt>
      <trkpt lat="43.84392" lon="1.94853">
        <ele>246.6</ele>
        <time>2020-07-15T13:37:08Z</time>
      </trkpt>
      <trkpt lat="43.84387" lon="1.94848">
        <ele>246.6</ele>
        <time>2020-07-15T13:37:09Z</time>
      </trkpt>
      <trkpt lat="43.84382" lon="1.94844">
        <ele>246.6</ele>
        <time>2020-07-15T13:37:10Z</time>
      </trkpt>
      <trkpt lat="43.84377" lon="1.9484">
        <ele>246.4</ele>
        <time>2020-07-15T13:37:11Z</time>
      </trkpt>
      <trkpt lat="43.84373" lon="1.94836">
        <ele>246</ele>
        <time>2020-07-15T13:37:12Z</time>
      </trkpt>
      <trkpt lat="43.8437" lon="1.94833">
        <ele>245.6</ele>
        <time>2020-07-15T13:37:13Z</time>
      </trkpt>
      <trkpt lat="43.84367" lon="1.9483">
        <ele>245.2</ele>
        <time>2020-07-15T13:37:14Z</time>
      </trkpt>
      <trkpt lat="43.84366" lon="1.94827">
        <ele>245</ele>
        <time>2020-07-15T13:37:15Z</time>
      </trkpt>
      <trkpt lat="43.84364" lon="1.94823">
        <ele>244.6</ele>
        <time>2020-07-15T13:37:16Z</time>
      </trkpt>
      <trkpt lat="43.84365" lon="1.94816">
        <ele>244</ele>
        <time>2020-07-15T13:37:17Z</time>
      </trkpt>
      <trkpt lat="43.84367" lon="1.94808">
        <ele>243.6</ele>
        <time>2020-07-15T13:37:18Z</time>
      </trkpt>
      <trkpt lat="43.8437" lon="1.94799">
        <ele>242.8</ele>
        <time>2020-07-15T13:37:19Z</time>
      </trkpt>
      <trkpt lat="43.84372" lon="1.94789">
        <ele>242.2</ele>
        <time>2020-07-15T13:37:20Z</time>
      </trkpt>
      <trkpt lat="43.84374" lon="1.94778">
        <ele>241.6</ele>
        <time>2020-07-15T13:37:21Z</time>
      </trkpt>
      <trkpt lat="43.84376" lon="1.94766">
        <ele>241</ele>
        <time>2020-07-15T13:37:22Z</time>
      </trkpt>
      <trkpt lat="43.84378" lon="1.94755">
        <ele>240.4</ele>
        <time>2020-07-15T13:37:23Z</time>
      </trkpt>
      <trkpt lat="43.8438" lon="1.94742">
        <ele>239.6</ele>
        <time>2020-07-15T13:37:24Z</time>
      </trkpt>
      <trkpt lat="43.84383" lon="1.94728">
        <ele>239</ele>
        <time>2020-07-15T13:37:25Z</time>
      </trkpt>
      <trkpt lat="43.84385" lon="1.94714">
        <ele>238.4</ele>
        <time>2020-07-15T13:37:26Z</time>
      </trkpt>
      <trkpt lat="43.84388" lon="1.947">
        <ele>237.8</ele>
        <time>2020-07-15T13:37:27Z</time>
      </trkpt>
      <trkpt lat="43.8439" lon="1.94687">
        <ele>237.2</ele>
        <time>2020-07-15T13:37:28Z</time>
      </trkpt>
      <trkpt lat="43.84392" lon="1.94674">
        <ele>236.2</ele>
        <time>2020-07-15T13:37:29Z</time>
      </trkpt>
      <trkpt lat="43.84395" lon="1.9466">
        <ele>235.6</ele>
        <time>2020-07-15T13:37:30Z</time>
      </trkpt>
      <trkpt lat="43.84398" lon="1.94646">
        <ele>235</ele>
        <time>2020-07-15T13:37:31Z</time>
      </trkpt>
      <trkpt lat="43.84401" lon="1.94632">
        <ele>234.2</ele>
        <time>2020-07-15T13:37:32Z</time>
      </trkpt>
      <trkpt lat="43.84405" lon="1.94619">
        <ele>233.4</ele>
        <time>2020-07-15T13:37:33Z</time>
      </trkpt>
      <trkpt lat="43.84409" lon="1.94606">
        <ele>232.6</ele>
        <time>2020-07-15T13:37:34Z</time>
      </trkpt>
      <trkpt lat="43.84415" lon="1.94594">
        <ele>231.6</ele>
        <time>2020-07-15T13:37:35Z</time>
      </trkpt>
      <trkpt lat="43.84422" lon="1.94582">
        <ele>230.6</ele>
        <time>2020-07-15T13:37:36Z</time>
      </trkpt>
      <trkpt lat="43.84429" lon="1.9457">
        <ele>229.2</ele>
        <time>2020-07-15T13:37:37Z</time>
      </trkpt>
      <trkpt lat="43.84437" lon="1.94559">
        <ele>228.2</ele>
        <time>2020-07-15T13:37:38Z</time>
      </trkpt>
      <trkpt lat="43.84446" lon="1.94548">
        <ele>227</ele>
        <time>2020-07-15T13:37:39Z</time>
      </trkpt>
      <trkpt lat="43.84454" lon="1.94537">
        <ele>225.8</ele>
        <time>2020-07-15T13:37:40Z</time>
      </trkpt>
      <trkpt lat="43.84464" lon="1.94525">
        <ele>224.8</ele>
        <time>2020-07-15T13:37:41Z</time>
      </trkpt>
      <trkpt lat="43.84473" lon="1.94513">
        <ele>223.6</ele>
        <time>2020-07-15T13:37:42Z</time>
      </trkpt>
      <trkpt lat="43.84483" lon="1.94501">
        <ele>222.4</ele>
        <time>2020-07-15T13:37:43Z</time>
      </trkpt>
      <trkpt lat="43.84492" lon="1.94489">
        <ele>221.2</ele>
        <time>2020-07-15T13:37:44Z</time>
      </trkpt>
      <trkpt lat="43.84502" lon="1.94477">
        <ele>220.2</ele>
        <time>2020-07-15T13:37:45Z</time>
      </trkpt>
      <trkpt lat="43.84512" lon="1.94465">
        <ele>219.2</ele>
        <time>2020-07-15T13:37:46Z</time>
      </trkpt>
      <trkpt lat="43.8452" lon="1.94453">
        <ele>218.4</ele>
        <time>2020-07-15T13:37:47Z</time>
      </trkpt>
      <trkpt lat="43.8453" lon="1.94442">
        <ele>217.6</ele>
        <time>2020-07-15T13:37:48Z</time>
      </trkpt>
      <trkpt lat="43.8454" lon="1.94431">
        <ele>216.6</ele>
        <time>2020-07-15T13:37:49Z</time>
      </trkpt>
      <trkpt lat="43.84549" lon="1.94421">
        <ele>215.8</ele>
        <time>2020-07-15T13:37:50Z</time>
      </trkpt>
      <trkpt lat="43.84559" lon="1.9441">
        <ele>214.8</ele>
        <time>2020-07-15T13:37:51Z</time>
      </trkpt>
      <trkpt lat="43.84569" lon="1.94401">
        <ele>213.8</ele>
        <time>2020-07-15T13:37:52Z</time>
      </trkpt>
      <trkpt lat="43.8458" lon="1.94391">
        <ele>212.8</ele>
        <time>2020-07-15T13:37:53Z</time>
      </trkpt>
      <trkpt lat="43.84589" lon="1.94381">
        <ele>211.6</ele>
        <time>2020-07-15T13:37:54Z</time>
      </trkpt>
      <trkpt lat="43.84598" lon="1.94373">
        <ele>210.8</ele>
        <time>2020-07-15T13:37:55Z</time>
      </trkpt>
      <trkpt lat="43.84606" lon="1.94365">
        <ele>209.8</ele>
        <time>2020-07-15T13:37:56Z</time>
      </trkpt>
      <trkpt lat="43.84614" lon="1.94358">
        <ele>209.2</ele>
        <time>2020-07-15T13:37:57Z</time>
      </trkpt>
      <trkpt lat="43.84621" lon="1.94349">
        <ele>208.4</ele>
        <time>2020-07-15T13:37:58Z</time>
      </trkpt>
      <trkpt lat="43.84628" lon="1.9434">
        <ele>207.8</ele>
        <time>2020-07-15T13:37:59Z</time>
      </trkpt>
      <trkpt lat="43.8463" lon="1.94328">
        <ele>207.2</ele>
        <time>2020-07-15T13:38:00Z</time>
      </trkpt>
      <trkpt lat="43.84629" lon="1.94317">
        <ele>206.8</ele>
        <time>2020-07-15T13:38:01Z</time>
      </trkpt>
      <trkpt lat="43.84627" lon="1.94305">
        <ele>206.4</ele>
        <time>2020-07-15T13:38:02Z</time>
      </trkpt>
      <trkpt lat="43.84623" lon="1.94294">
        <ele>206.2</ele>
        <time>2020-07-15T13:38:03Z</time>
      </trkpt>
      <trkpt lat="43.8462" lon="1.94283">
        <ele>206</ele>
        <time>2020-07-15T13:38:04Z</time>
      </trkpt>
      <trkpt lat="43.84617" lon="1.94273">
        <ele>205.6</ele>
        <time>2020-07-15T13:38:05Z</time>
      </trkpt>
      <trkpt lat="43.84613" lon="1.94263">
        <ele>205.4</ele>
        <time>2020-07-15T13:38:06Z</time>
      </trkpt>
      <trkpt lat="43.8461" lon="1.94253">
        <ele>205.4</ele>
        <time>2020-07-15T13:38:07Z</time>
      </trkpt>
      <trkpt lat="43.84609" lon="1.94244">
        <ele>205.2</ele>
        <time>2020-07-15T13:38:08Z</time>
      </trkpt>
      <trkpt lat="43.84608" lon="1.94234">
        <ele>205.2</ele>
        <time>2020-07-15T13:38:09Z</time>
      </trkpt>
      <trkpt lat="43.84608" lon="1.94225">
        <ele>205.2</ele>
        <time>2020-07-15T13:38:10Z</time>
      </trkpt>
      <trkpt lat="43.84609" lon="1.94216">
        <ele>205</ele>
        <time>2020-07-15T13:38:11Z</time>
      </trkpt>
      <trkpt lat="43.8461" lon="1.94207">
        <ele>205</ele>
        <time>2020-07-15T13:38:12Z</time>
      </trkpt>
      <trkpt lat="43.8461" lon="1.94199">
        <ele>205</ele>
        <time>2020-07-15T13:38:13Z</time>
      </trkpt>
      <trkpt lat="43.84609" lon="1.94192">
        <ele>205</ele>
        <time>2020-07-15T13:38:14Z</time>
      </trkpt>
      <trkpt lat="43.84607" lon="1.94186">
        <ele>205.2</ele>
        <time>2020-07-15T13:38:15Z</time>
      </trkpt>
      <trkpt lat="43.84604" lon="1.94183">
        <ele>205.2</ele>
        <time>2020-07-15T13:38:16Z</time>
      </trkpt>
      <trkpt lat="43.846" lon="1.94179">
        <ele>205.2</ele>
        <time>2020-07-15T13:38:17Z</time>
      </trkpt>
      <trkpt lat="43.84597" lon="1.94176">
        <ele>205</ele>
        <time>2020-07-15T13:38:18Z</time>
      </trkpt>
      <trkpt lat="43.84594" lon="1.94172">
        <ele>205</ele>
        <time>2020-07-15T13:38:19Z</time>
      </trkpt>
      <trkpt lat="43.84591" lon="1.94169">
        <ele>205</ele>
        <time>2020-07-15T13:38:20Z</time>
      </trkpt>
      <trkpt lat="43.84588" lon="1.94165">
        <ele>205.2</ele>
        <time>2020-07-15T13:38:21Z</time>
      </trkpt>
      <trkpt lat="43.84585" lon="1.9416">
        <ele>205.2</ele>
        <time>2020-07-15T13:38:22Z</time>
      </trkpt>
      <trkpt lat="43.84581" lon="1.94156">
        <ele>205.4</ele>
        <time>2020-07-15T13:38:23Z</time>
      </trkpt>
      <trkpt lat="43.84578" lon="1.94151">
        <ele>205.6</ele>
        <time>2020-07-15T13:38:24Z</time>
      </trkpt>
      <trkpt lat="43.84575" lon="1.94147">
        <ele>206</ele>
        <time>2020-07-15T13:38:25Z</time>
      </trkpt>
      <trkpt lat="43.84572" lon="1.94142">
        <ele>206.4</ele>
        <time>2020-07-15T13:38:26Z</time>
      </trkpt>
      <trkpt lat="43.84568" lon="1.94137">
        <ele>206.8</ele>
        <time>2020-07-15T13:38:27Z</time>
      </trkpt>
      <trkpt lat="43.84565" lon="1.94132">
        <ele>207.2</ele>
        <time>2020-07-15T13:38:28Z</time>
      </trkpt>
      <trkpt lat="43.8456" lon="1.94127">
        <ele>207.4</ele>
        <time>2020-07-15T13:38:29Z</time>
      </trkpt>
      <trkpt lat="43.84556" lon="1.94121">
        <ele>207.8</ele>
        <time>2020-07-15T13:38:30Z</time>
      </trkpt>
      <trkpt lat="43.84552" lon="1.94116">
        <ele>208</ele>
        <time>2020-07-15T13:38:31Z</time>
      </trkpt>
      <trkpt lat="43.84547" lon="1.9411">
        <ele>208.4</ele>
        <time>2020-07-15T13:38:32Z</time>
      </trkpt>
      <trkpt lat="43.84543" lon="1.94104">
        <ele>208.6</ele>
        <time>2020-07-15T13:38:33Z</time>
      </trkpt>
      <trkpt lat="43.84538" lon="1.94099">
        <ele>208.8</ele>
        <time>2020-07-15T13:38:34Z</time>
      </trkpt>
      <trkpt lat="43.84534" lon="1.94094">
        <ele>209.2</ele>
        <time>2020-07-15T13:38:35Z</time>
      </trkpt>
      <trkpt lat="43.8453" lon="1.94089">
        <ele>209.4</ele>
        <time>2020-07-15T13:38:36Z</time>
      </trkpt>
      <trkpt lat="43.84526" lon="1.94084">
        <ele>209.6</ele>
        <time>2020-07-15T13:38:37Z</time>
      </trkpt>
      <trkpt lat="43.84522" lon="1.94079">
        <ele>209.6</ele>
        <time>2020-07-15T13:38:38Z</time>
      </trkpt>
      <trkpt lat="43.84518" lon="1.94074">
        <ele>209.8</ele>
        <time>2020-07-15T13:38:39Z</time>
      </trkpt>
      <trkpt lat="43.84513" lon="1.94068">
        <ele>210.2</ele>
        <time>2020-07-15T13:38:40Z</time>
      </trkpt>
      <trkpt lat="43.84509" lon="1.94063">
        <ele>210.6</ele>
        <time>2020-07-15T13:38:41Z</time>
      </trkpt>
      <trkpt lat="43.84504" lon="1.94059">
        <ele>211</ele>
        <time>2020-07-15T13:38:42Z</time>
      </trkpt>
      <trkpt lat="43.845" lon="1.94054">
        <ele>211.4</ele>
        <time>2020-07-15T13:38:43Z</time>
      </trkpt>
      <trkpt lat="43.84495" lon="1.94049">
        <ele>211.8</ele>
        <time>2020-07-15T13:38:44Z</time>
      </trkpt>
      <trkpt lat="43.84491" lon="1.94044">
        <ele>212</ele>
        <time>2020-07-15T13:38:45Z</time>
      </trkpt>
      <trkpt lat="43.84486" lon="1.94039">
        <ele>212.4</ele>
        <time>2020-07-15T13:38:46Z</time>
      </trkpt>
      <trkpt lat="43.84482" lon="1.94034">
        <ele>212.6</ele>
        <time>2020-07-15T13:38:47Z</time>
      </trkpt>
      <trkpt lat="43.84477" lon="1.9403">
        <ele>212.8</ele>
        <time>2020-07-15T13:38:48Z</time>
      </trkpt>
      <trkpt lat="43.84473" lon="1.94026">
        <ele>213</ele>
        <time>2020-07-15T13:38:49Z</time>
      </trkpt>
      <trkpt lat="43.84469" lon="1.94022">
        <ele>213.4</ele>
        <time>2020-07-15T13:38:50Z</time>
      </trkpt>
      <trkpt lat="43.84464" lon="1.94018">
        <ele>213.6</ele>
        <time>2020-07-15T13:38:51Z</time>
      </trkpt>
      <trkpt lat="43.8446" lon="1.94014">
        <ele>213.8</ele>
        <time>2020-07-15T13:38:52Z</time>
      </trkpt>
      <trkpt lat="43.84455" lon="1.94009">
        <ele>214.2</ele>
        <time>2020-07-15T13:38:53Z</time>
      </trkpt>
      <trkpt lat="43.8445" lon="1.94006">
        <ele>214.6</ele>
        <time>2020-07-15T13:38:54Z</time>
      </trkpt>
      <trkpt lat="43.84445" lon="1.94002">
        <ele>214.8</ele>
        <time>2020-07-15T13:38:55Z</time>
      </trkpt>
      <trkpt lat="43.84439" lon="1.94001">
        <ele>215</ele>
        <time>2020-07-15T13:38:56Z</time>
      </trkpt>
      <trkpt lat="43.84434" lon="1.94">
        <ele>215.2</ele>
        <time>2020-07-15T13:38:57Z</time>
      </trkpt>
      <trkpt lat="43.84428" lon="1.93999">
        <ele>215.4</ele>
        <time>2020-07-15T13:38:58Z</time>
      </trkpt>
      <trkpt lat="43.84422" lon="1.93999">
        <ele>215.8</ele>
        <time>2020-07-15T13:38:59Z</time>
      </trkpt>
      <trkpt lat="43.84417" lon="1.93999">
        <ele>216</ele>
        <time>2020-07-15T13:39:00Z</time>
      </trkpt>
      <trkpt lat="43.84411" lon="1.93999">
        <ele>216</ele>
        <time>2020-07-15T13:39:01Z</time>
      </trkpt>
      <trkpt lat="43.84406" lon="1.93998">
        <ele>216.2</ele>
        <time>2020-07-15T13:39:02Z</time>
      </trkpt>
      <trkpt lat="43.84399" lon="1.93997">
        <ele>216.6</ele>
        <time>2020-07-15T13:39:03Z</time>
      </trkpt>
      <trkpt lat="43.84395" lon="1.93993">
        <ele>216.8</ele>
        <time>2020-07-15T13:39:04Z</time>
      </trkpt>
      <trkpt lat="43.8439" lon="1.93989">
        <ele>216.8</ele>
        <time>2020-07-15T13:39:05Z</time>
      </trkpt>
      <trkpt lat="43.84386" lon="1.93982">
        <ele>217.2</ele>
        <time>2020-07-15T13:39:06Z</time>
      </trkpt>
      <trkpt lat="43.84384" lon="1.93975">
        <ele>217.4</ele>
        <time>2020-07-15T13:39:07Z</time>
      </trkpt>
      <trkpt lat="43.84383" lon="1.93967">
        <ele>217.6</ele>
        <time>2020-07-15T13:39:08Z</time>
      </trkpt>
      <trkpt lat="43.84381" lon="1.93959">
        <ele>217.8</ele>
        <time>2020-07-15T13:39:09Z</time>
      </trkpt>
      <trkpt lat="43.84379" lon="1.93952">
        <ele>218</ele>
        <time>2020-07-15T13:39:10Z</time>
      </trkpt>
      <trkpt lat="43.84378" lon="1.93944">
        <ele>218.2</ele>
        <time>2020-07-15T13:39:11Z</time>
      </trkpt>
      <trkpt lat="43.84377" lon="1.93937">
        <ele>218.4</ele>
        <time>2020-07-15T13:39:12Z</time>
      </trkpt>
      <trkpt lat="43.84375" lon="1.9393">
        <ele>218.6</ele>
        <time>2020-07-15T13:39:13Z</time>
      </trkpt>
      <trkpt lat="43.84374" lon="1.93924">
        <ele>219</ele>
        <time>2020-07-15T13:39:14Z</time>
      </trkpt>
      <trkpt lat="43.84373" lon="1.93918">
        <ele>219.2</ele>
        <time>2020-07-15T13:39:15Z</time>
      </trkpt>
      <trkpt lat="43.84373" lon="1.93913">
        <ele>219.6</ele>
        <time>2020-07-15T13:39:16Z</time>
      </trkpt>
      <trkpt lat="43.84374" lon="1.93909">
        <ele>219.8</ele>
        <time>2020-07-15T13:39:17Z</time>
      </trkpt>
      <trkpt lat="43.84375" lon="1.93906">
        <ele>220</ele>
        <time>2020-07-15T13:39:18Z</time>
      </trkpt>
      <trkpt lat="43.84376" lon="1.93904">
        <ele>220.8</ele>
        <time>2020-07-15T13:39:35Z</time>
      </trkpt>
      <trkpt lat="43.84376" lon="1.93904">
        <ele>220.8</ele>
        <time>2020-07-15T13:39:36Z</time>
      </trkpt>
      <trkpt lat="43.84377" lon="1.939">
        <ele>220.8</ele>
        <time>2020-07-15T13:39:37Z</time>
      </trkpt>
      <trkpt lat="43.84376" lon="1.93897">
        <ele>220.6</ele>
        <time>2020-07-15T13:39:38Z</time>
      </trkpt>
      <trkpt lat="43.84375" lon="1.93892">
        <ele>220.6</ele>
        <time>2020-07-15T13:39:39Z</time>
      </trkpt>
      <trkpt lat="43.84374" lon="1.93886">
        <ele>220.6</ele>
        <time>2020-07-15T13:39:40Z</time>
      </trkpt>
      <trkpt lat="43.84372" lon="1.9388">
        <ele>220.6</ele>
        <time>2020-07-15T13:39:41Z</time>
      </trkpt>
      <trkpt lat="43.84372" lon="1.93874">
        <ele>220.4</ele>
        <time>2020-07-15T13:39:42Z</time>
      </trkpt>
      <trkpt lat="43.84371" lon="1.93866">
        <ele>220.4</ele>
        <time>2020-07-15T13:39:43Z</time>
      </trkpt>
      <trkpt lat="43.84371" lon="1.93858">
        <ele>220.4</ele>
        <time>2020-07-15T13:39:44Z</time>
      </trkpt>
      <trkpt lat="43.8437" lon="1.9385">
        <ele>220.2</ele>
        <time>2020-07-15T13:39:45Z</time>
      </trkpt>
      <trkpt lat="43.8437" lon="1.93841">
        <ele>220.2</ele>
        <time>2020-07-15T13:39:46Z</time>
      </trkpt>
      <trkpt lat="43.8437" lon="1.93833">
        <ele>220</ele>
        <time>2020-07-15T13:39:47Z</time>
      </trkpt>
      <trkpt lat="43.8437" lon="1.93824">
        <ele>219.8</ele>
        <time>2020-07-15T13:39:48Z</time>
      </trkpt>
      <trkpt lat="43.8437" lon="1.93815">
        <ele>219.4</ele>
        <time>2020-07-15T13:39:49Z</time>
      </trkpt>
      <trkpt lat="43.8437" lon="1.93806">
        <ele>219</ele>
        <time>2020-07-15T13:39:50Z</time>
      </trkpt>
      <trkpt lat="43.8437" lon="1.93796">
        <ele>218.6</ele>
        <time>2020-07-15T13:39:51Z</time>
      </trkpt>
      <trkpt lat="43.8437" lon="1.93786">
        <ele>218</ele>
        <time>2020-07-15T13:39:52Z</time>
      </trkpt>
      <trkpt lat="43.8437" lon="1.93775">
        <ele>217.4</ele>
        <time>2020-07-15T13:39:53Z</time>
      </trkpt>
      <trkpt lat="43.84371" lon="1.93763">
        <ele>216.6</ele>
        <time>2020-07-15T13:39:54Z</time>
      </trkpt>
      <trkpt lat="43.84371" lon="1.93752">
        <ele>215.6</ele>
        <time>2020-07-15T13:39:55Z</time>
      </trkpt>
      <trkpt lat="43.84371" lon="1.93739">
        <ele>214.8</ele>
        <time>2020-07-15T13:39:56Z</time>
      </trkpt>
      <trkpt lat="43.84371" lon="1.93726">
        <ele>213.8</ele>
        <time>2020-07-15T13:39:57Z</time>
      </trkpt>
      <trkpt lat="43.84372" lon="1.93712">
        <ele>212.6</ele>
        <time>2020-07-15T13:39:58Z</time>
      </trkpt>
      <trkpt lat="43.84373" lon="1.93699">
        <ele>211.8</ele>
        <time>2020-07-15T13:39:59Z</time>
      </trkpt>
      <trkpt lat="43.84374" lon="1.93686">
        <ele>211.4</ele>
        <time>2020-07-15T13:40:00Z</time>
      </trkpt>
      <trkpt lat="43.84374" lon="1.93671">
        <ele>211</ele>
        <time>2020-07-15T13:40:01Z</time>
      </trkpt>
      <trkpt lat="43.84375" lon="1.93657">
        <ele>210.8</ele>
        <time>2020-07-15T13:40:02Z</time>
      </trkpt>
      <trkpt lat="43.84377" lon="1.93644">
        <ele>211</ele>
        <time>2020-07-15T13:40:03Z</time>
      </trkpt>
      <trkpt lat="43.84378" lon="1.93633">
        <ele>211.2</ele>
        <time>2020-07-15T13:40:04Z</time>
      </trkpt>
      <trkpt lat="43.8438" lon="1.93622">
        <ele>211.2</ele>
        <time>2020-07-15T13:40:05Z</time>
      </trkpt>
      <trkpt lat="43.84381" lon="1.93612">
        <ele>211.4</ele>
        <time>2020-07-15T13:40:06Z</time>
      </trkpt>
      <trkpt lat="43.84382" lon="1.93601">
        <ele>211.6</ele>
        <time>2020-07-15T13:40:07Z</time>
      </trkpt>
      <trkpt lat="43.84382" lon="1.93593">
        <ele>211.8</ele>
        <time>2020-07-15T13:40:08Z</time>
      </trkpt>
      <trkpt lat="43.84383" lon="1.93582">
        <ele>211.8</ele>
        <time>2020-07-15T13:40:09Z</time>
      </trkpt>
      <trkpt lat="43.84383" lon="1.93574">
        <ele>212</ele>
        <time>2020-07-15T13:40:10Z</time>
      </trkpt>
      <trkpt lat="43.84383" lon="1.93566">
        <ele>212.4</ele>
        <time>2020-07-15T13:40:11Z</time>
      </trkpt>
      <trkpt lat="43.84384" lon="1.93558">
        <ele>212.6</ele>
        <time>2020-07-15T13:40:12Z</time>
      </trkpt>
      <trkpt lat="43.84384" lon="1.9355">
        <ele>213</ele>
        <time>2020-07-15T13:40:13Z</time>
      </trkpt>
      <trkpt lat="43.84384" lon="1.93542">
        <ele>213.4</ele>
        <time>2020-07-15T13:40:14Z</time>
      </trkpt>
      <trkpt lat="43.84384" lon="1.93534">
        <ele>213.6</ele>
        <time>2020-07-15T13:40:15Z</time>
      </trkpt>
      <trkpt lat="43.84385" lon="1.93526">
        <ele>214</ele>
        <time>2020-07-15T13:40:16Z</time>
      </trkpt>
      <trkpt lat="43.84385" lon="1.93518">
        <ele>214.2</ele>
        <time>2020-07-15T13:40:17Z</time>
      </trkpt>
      <trkpt lat="43.84385" lon="1.9351">
        <ele>214.4</ele>
        <time>2020-07-15T13:40:18Z</time>
      </trkpt>
      <trkpt lat="43.84385" lon="1.93503">
        <ele>214.6</ele>
        <time>2020-07-15T13:40:19Z</time>
      </trkpt>
      <trkpt lat="43.84385" lon="1.93497">
        <ele>214.8</ele>
        <time>2020-07-15T13:40:20Z</time>
      </trkpt>
      <trkpt lat="43.84385" lon="1.93491">
        <ele>215</ele>
        <time>2020-07-15T13:40:21Z</time>
      </trkpt>
      <trkpt lat="43.84385" lon="1.93486">
        <ele>215.2</ele>
        <time>2020-07-15T13:40:22Z</time>
      </trkpt>
      <trkpt lat="43.84385" lon="1.93482">
        <ele>215.2</ele>
        <time>2020-07-15T13:40:23Z</time>
      </trkpt>
      <trkpt lat="43.84386" lon="1.93478">
        <ele>215.2</ele>
        <time>2020-07-15T13:40:24Z</time>
      </trkpt>
      <trkpt lat="43.84386" lon="1.93474">
        <ele>215.4</ele>
        <time>2020-07-15T13:40:25Z</time>
      </trkpt>
      <trkpt lat="43.84387" lon="1.93469">
        <ele>215.4</ele>
        <time>2020-07-15T13:40:26Z</time>
      </trkpt>
      <trkpt lat="43.84387" lon="1.93462">
        <ele>215.2</ele>
        <time>2020-07-15T13:40:27Z</time>
      </trkpt>
      <trkpt lat="43.84387" lon="1.93454">
        <ele>215</ele>
        <time>2020-07-15T13:40:28Z</time>
      </trkpt>
      <trkpt lat="43.84387" lon="1.93446">
        <ele>215</ele>
        <time>2020-07-15T13:40:29Z</time>
      </trkpt>
      <trkpt lat="43.84387" lon="1.93437">
        <ele>215</ele>
        <time>2020-07-15T13:40:30Z</time>
      </trkpt>
      <trkpt lat="43.84387" lon="1.93428">
        <ele>215</ele>
        <time>2020-07-15T13:40:31Z</time>
      </trkpt>
      <trkpt lat="43.84387" lon="1.9342">
        <ele>215</ele>
        <time>2020-07-15T13:40:32Z</time>
      </trkpt>
      <trkpt lat="43.84387" lon="1.93411">
        <ele>214.8</ele>
        <time>2020-07-15T13:40:33Z</time>
      </trkpt>
      <trkpt lat="43.84388" lon="1.93402">
        <ele>214.8</ele>
        <time>2020-07-15T13:40:34Z</time>
      </trkpt>
      <trkpt lat="43.84388" lon="1.93394">
        <ele>214.8</ele>
        <time>2020-07-15T13:40:35Z</time>
      </trkpt>
      <trkpt lat="43.84388" lon="1.93385">
        <ele>214.8</ele>
        <time>2020-07-15T13:40:36Z</time>
      </trkpt>
      <trkpt lat="43.84388" lon="1.93377">
        <ele>215</ele>
        <time>2020-07-15T13:40:37Z</time>
      </trkpt>
      <trkpt lat="43.84388" lon="1.93369">
        <ele>215</ele>
        <time>2020-07-15T13:40:38Z</time>
      </trkpt>
      <trkpt lat="43.84387" lon="1.93359">
        <ele>214.6</ele>
        <time>2020-07-15T13:40:39Z</time>
      </trkpt>
      <trkpt lat="43.84387" lon="1.93351">
        <ele>214.6</ele>
        <time>2020-07-15T13:40:40Z</time>
      </trkpt>
      <trkpt lat="43.84386" lon="1.93342">
        <ele>214.2</ele>
        <time>2020-07-15T13:40:41Z</time>
      </trkpt>
      <trkpt lat="43.84385" lon="1.93333">
        <ele>214</ele>
        <time>2020-07-15T13:40:42Z</time>
      </trkpt>
      <trkpt lat="43.84384" lon="1.93325">
        <ele>214</ele>
        <time>2020-07-15T13:40:43Z</time>
      </trkpt>
      <trkpt lat="43.84382" lon="1.93316">
        <ele>214</ele>
        <time>2020-07-15T13:40:44Z</time>
      </trkpt>
      <trkpt lat="43.8438" lon="1.93308">
        <ele>214</ele>
        <time>2020-07-15T13:40:45Z</time>
      </trkpt>
      <trkpt lat="43.84378" lon="1.93299">
        <ele>214</ele>
        <time>2020-07-15T13:40:46Z</time>
      </trkpt>
      <trkpt lat="43.84376" lon="1.93291">
        <ele>213.8</ele>
        <time>2020-07-15T13:40:47Z</time>
      </trkpt>
      <trkpt lat="43.84373" lon="1.93283">
        <ele>213.8</ele>
        <time>2020-07-15T13:40:48Z</time>
      </trkpt>
      <trkpt lat="43.8437" lon="1.93276">
        <ele>213.8</ele>
        <time>2020-07-15T13:40:49Z</time>
      </trkpt>
      <trkpt lat="43.84367" lon="1.93268">
        <ele>214</ele>
        <time>2020-07-15T13:40:50Z</time>
      </trkpt>
      <trkpt lat="43.84364" lon="1.9326">
        <ele>214</ele>
        <time>2020-07-15T13:40:51Z</time>
      </trkpt>
      <trkpt lat="43.84361" lon="1.93252">
        <ele>214</ele>
        <time>2020-07-15T13:40:52Z</time>
      </trkpt>
      <trkpt lat="43.84358" lon="1.93245">
        <ele>214.2</ele>
        <time>2020-07-15T13:40:53Z</time>
      </trkpt>
      <trkpt lat="43.84356" lon="1.93237">
        <ele>214.4</ele>
        <time>2020-07-15T13:40:54Z</time>
      </trkpt>
      <trkpt lat="43.84353" lon="1.93229">
        <ele>214.4</ele>
        <time>2020-07-15T13:40:55Z</time>
      </trkpt>
      <trkpt lat="43.84349" lon="1.93222">
        <ele>214.4</ele>
        <time>2020-07-15T13:40:56Z</time>
      </trkpt>
      <trkpt lat="43.84346" lon="1.93214">
        <ele>214.4</ele>
        <time>2020-07-15T13:40:57Z</time>
      </trkpt>
      <trkpt lat="43.84343" lon="1.93207">
        <ele>214.6</ele>
        <time>2020-07-15T13:40:58Z</time>
      </trkpt>
      <trkpt lat="43.8434" lon="1.932">
        <ele>214.6</ele>
        <time>2020-07-15T13:40:59Z</time>
      </trkpt>
      <trkpt lat="43.84336" lon="1.93193">
        <ele>214.8</ele>
        <time>2020-07-15T13:41:00Z</time>
      </trkpt>
      <trkpt lat="43.84334" lon="1.93189">
        <ele>214.8</ele>
        <time>2020-07-15T13:41:01Z</time>
      </trkpt>
      <trkpt lat="43.8433" lon="1.93181">
        <ele>214.8</ele>
        <time>2020-07-15T13:41:02Z</time>
      </trkpt>
      <trkpt lat="43.84325" lon="1.93174">
        <ele>214.8</ele>
        <time>2020-07-15T13:41:03Z</time>
      </trkpt>
      <trkpt lat="43.84322" lon="1.93168">
        <ele>215</ele>
        <time>2020-07-15T13:41:04Z</time>
      </trkpt>
      <trkpt lat="43.84319" lon="1.93162">
        <ele>214.8</ele>
        <time>2020-07-15T13:41:05Z</time>
      </trkpt>
      <trkpt lat="43.84314" lon="1.93155">
        <ele>214.6</ele>
        <time>2020-07-15T13:41:06Z</time>
      </trkpt>
      <trkpt lat="43.84309" lon="1.93149">
        <ele>214.6</ele>
        <time>2020-07-15T13:41:07Z</time>
      </trkpt>
      <trkpt lat="43.84306" lon="1.93143">
        <ele>214.6</ele>
        <time>2020-07-15T13:41:08Z</time>
      </trkpt>
      <trkpt lat="43.84301" lon="1.93137">
        <ele>214.6</ele>
        <time>2020-07-15T13:41:09Z</time>
      </trkpt>
      <trkpt lat="43.84298" lon="1.93131">
        <ele>214.6</ele>
        <time>2020-07-15T13:41:10Z</time>
      </trkpt>
      <trkpt lat="43.84293" lon="1.93124">
        <ele>214.6</ele>
        <time>2020-07-15T13:41:11Z</time>
      </trkpt>
      <trkpt lat="43.84289" lon="1.93118">
        <ele>214.6</ele>
        <time>2020-07-15T13:41:12Z</time>
      </trkpt>
      <trkpt lat="43.84285" lon="1.93112">
        <ele>214.4</ele>
        <time>2020-07-15T13:41:13Z</time>
      </trkpt>
      <trkpt lat="43.8428" lon="1.93105">
        <ele>214.2</ele>
        <time>2020-07-15T13:41:14Z</time>
      </trkpt>
      <trkpt lat="43.84276" lon="1.93099">
        <ele>214</ele>
        <time>2020-07-15T13:41:15Z</time>
      </trkpt>
      <trkpt lat="43.84271" lon="1.93093">
        <ele>213.6</ele>
        <time>2020-07-15T13:41:16Z</time>
      </trkpt>
      <trkpt lat="43.84266" lon="1.93086">
        <ele>213.2</ele>
        <time>2020-07-15T13:41:17Z</time>
      </trkpt>
      <trkpt lat="43.84259" lon="1.93079">
        <ele>212.8</ele>
        <time>2020-07-15T13:41:18Z</time>
      </trkpt>
      <trkpt lat="43.84253" lon="1.93072">
        <ele>212</ele>
        <time>2020-07-15T13:41:19Z</time>
      </trkpt>
      <trkpt lat="43.84246" lon="1.93064">
        <ele>211.4</ele>
        <time>2020-07-15T13:41:20Z</time>
      </trkpt>
      <trkpt lat="43.84239" lon="1.93056">
        <ele>210.4</ele>
        <time>2020-07-15T13:41:21Z</time>
      </trkpt>
      <trkpt lat="43.84232" lon="1.93048">
        <ele>209.4</ele>
        <time>2020-07-15T13:41:22Z</time>
      </trkpt>
      <trkpt lat="43.84224" lon="1.93039">
        <ele>208.2</ele>
        <time>2020-07-15T13:41:23Z</time>
      </trkpt>
      <trkpt lat="43.84215" lon="1.9303">
        <ele>207.2</ele>
        <time>2020-07-15T13:41:24Z</time>
      </trkpt>
      <trkpt lat="43.84206" lon="1.93021">
        <ele>206.4</ele>
        <time>2020-07-15T13:41:25Z</time>
      </trkpt>
      <trkpt lat="43.84198" lon="1.9301">
        <ele>205.4</ele>
        <time>2020-07-15T13:41:26Z</time>
      </trkpt>
      <trkpt lat="43.84189" lon="1.93">
        <ele>204.2</ele>
        <time>2020-07-15T13:41:27Z</time>
      </trkpt>
      <trkpt lat="43.84181" lon="1.92989">
        <ele>203.4</ele>
        <time>2020-07-15T13:41:28Z</time>
      </trkpt>
      <trkpt lat="43.84173" lon="1.92978">
        <ele>203</ele>
        <time>2020-07-15T13:41:29Z</time>
      </trkpt>
      <trkpt lat="43.84167" lon="1.92968">
        <ele>203</ele>
        <time>2020-07-15T13:41:30Z</time>
      </trkpt>
      <trkpt lat="43.8416" lon="1.92957">
        <ele>203</ele>
        <time>2020-07-15T13:41:31Z</time>
      </trkpt>
      <trkpt lat="43.84154" lon="1.92946">
        <ele>202.6</ele>
        <time>2020-07-15T13:41:32Z</time>
      </trkpt>
      <trkpt lat="43.84148" lon="1.92936">
        <ele>202.6</ele>
        <time>2020-07-15T13:41:33Z</time>
      </trkpt>
      <trkpt lat="43.84143" lon="1.92927">
        <ele>202.6</ele>
        <time>2020-07-15T13:41:34Z</time>
      </trkpt>
      <trkpt lat="43.84138" lon="1.92918">
        <ele>202.8</ele>
        <time>2020-07-15T13:41:35Z</time>
      </trkpt>
      <trkpt lat="43.84134" lon="1.92911">
        <ele>203</ele>
        <time>2020-07-15T13:41:36Z</time>
      </trkpt>
      <trkpt lat="43.8413" lon="1.92904">
        <ele>203.4</ele>
        <time>2020-07-15T13:41:37Z</time>
      </trkpt>
      <trkpt lat="43.84126" lon="1.92898">
        <ele>203.8</ele>
        <time>2020-07-15T13:41:38Z</time>
      </trkpt>
      <trkpt lat="43.84123" lon="1.92891">
        <ele>204.2</ele>
        <time>2020-07-15T13:41:39Z</time>
      </trkpt>
      <trkpt lat="43.84119" lon="1.92885">
        <ele>204.8</ele>
        <time>2020-07-15T13:41:40Z</time>
      </trkpt>
      <trkpt lat="43.84116" lon="1.92879">
        <ele>205.2</ele>
        <time>2020-07-15T13:41:41Z</time>
      </trkpt>
      <trkpt lat="43.84113" lon="1.92873">
        <ele>205.4</ele>
        <time>2020-07-15T13:41:42Z</time>
      </trkpt>
      <trkpt lat="43.8411" lon="1.92867">
        <ele>206</ele>
        <time>2020-07-15T13:41:43Z</time>
      </trkpt>
      <trkpt lat="43.84106" lon="1.9286">
        <ele>206.4</ele>
        <time>2020-07-15T13:41:44Z</time>
      </trkpt>
      <trkpt lat="43.84103" lon="1.92855">
        <ele>206.8</ele>
        <time>2020-07-15T13:41:45Z</time>
      </trkpt>
      <trkpt lat="43.841" lon="1.92848">
        <ele>207.4</ele>
        <time>2020-07-15T13:41:46Z</time>
      </trkpt>
      <trkpt lat="43.84098" lon="1.92842">
        <ele>207.8</ele>
        <time>2020-07-15T13:41:47Z</time>
      </trkpt>
      <trkpt lat="43.84095" lon="1.92836">
        <ele>208.6</ele>
        <time>2020-07-15T13:41:48Z</time>
      </trkpt>
      <trkpt lat="43.84092" lon="1.92829">
        <ele>209.4</ele>
        <time>2020-07-15T13:41:49Z</time>
      </trkpt>
      <trkpt lat="43.8409" lon="1.92822">
        <ele>210</ele>
        <time>2020-07-15T13:41:50Z</time>
      </trkpt>
      <trkpt lat="43.84088" lon="1.92815">
        <ele>210.6</ele>
        <time>2020-07-15T13:41:51Z</time>
      </trkpt>
      <trkpt lat="43.84086" lon="1.92808">
        <ele>211.2</ele>
        <time>2020-07-15T13:41:52Z</time>
      </trkpt>
      <trkpt lat="43.84084" lon="1.928">
        <ele>211.6</ele>
        <time>2020-07-15T13:41:53Z</time>
      </trkpt>
      <trkpt lat="43.84082" lon="1.92793">
        <ele>211.8</ele>
        <time>2020-07-15T13:41:54Z</time>
      </trkpt>
      <trkpt lat="43.84081" lon="1.92785">
        <ele>212.2</ele>
        <time>2020-07-15T13:41:55Z</time>
      </trkpt>
      <trkpt lat="43.84079" lon="1.92777">
        <ele>212.6</ele>
        <time>2020-07-15T13:41:56Z</time>
      </trkpt>
      <trkpt lat="43.84078" lon="1.9277">
        <ele>212.6</ele>
        <time>2020-07-15T13:41:57Z</time>
      </trkpt>
      <trkpt lat="43.84077" lon="1.92762">
        <ele>212.8</ele>
        <time>2020-07-15T13:41:58Z</time>
      </trkpt>
      <trkpt lat="43.84076" lon="1.92755">
        <ele>213.2</ele>
        <time>2020-07-15T13:41:59Z</time>
      </trkpt>
      <trkpt lat="43.84074" lon="1.92747">
        <ele>213.2</ele>
        <time>2020-07-15T13:42:00Z</time>
      </trkpt>
      <trkpt lat="43.84073" lon="1.9274">
        <ele>213.2</ele>
        <time>2020-07-15T13:42:01Z</time>
      </trkpt>
      <trkpt lat="43.84073" lon="1.92732">
        <ele>213.4</ele>
        <time>2020-07-15T13:42:02Z</time>
      </trkpt>
      <trkpt lat="43.84071" lon="1.92724">
        <ele>213.6</ele>
        <time>2020-07-15T13:42:03Z</time>
      </trkpt>
      <trkpt lat="43.8407" lon="1.92716">
        <ele>213.8</ele>
        <time>2020-07-15T13:42:04Z</time>
      </trkpt>
      <trkpt lat="43.84069" lon="1.92708">
        <ele>214</ele>
        <time>2020-07-15T13:42:05Z</time>
      </trkpt>
      <trkpt lat="43.84068" lon="1.92701">
        <ele>214.2</ele>
        <time>2020-07-15T13:42:06Z</time>
      </trkpt>
      <trkpt lat="43.84066" lon="1.92692">
        <ele>214.2</ele>
        <time>2020-07-15T13:42:07Z</time>
      </trkpt>
      <trkpt lat="43.84065" lon="1.92684">
        <ele>214.2</ele>
        <time>2020-07-15T13:42:08Z</time>
      </trkpt>
      <trkpt lat="43.84064" lon="1.92676">
        <ele>214.2</ele>
        <time>2020-07-15T13:42:09Z</time>
      </trkpt>
      <trkpt lat="43.84063" lon="1.92668">
        <ele>214.2</ele>
        <time>2020-07-15T13:42:10Z</time>
      </trkpt>
      <trkpt lat="43.84062" lon="1.92659">
        <ele>214.2</ele>
        <time>2020-07-15T13:42:11Z</time>
      </trkpt>
      <trkpt lat="43.8406" lon="1.92651">
        <ele>214.2</ele>
        <time>2020-07-15T13:42:12Z</time>
      </trkpt>
      <trkpt lat="43.84059" lon="1.92643">
        <ele>214.2</ele>
        <time>2020-07-15T13:42:13Z</time>
      </trkpt>
      <trkpt lat="43.84058" lon="1.92634">
        <ele>214.2</ele>
        <time>2020-07-15T13:42:14Z</time>
      </trkpt>
      <trkpt lat="43.84057" lon="1.92626">
        <ele>214.2</ele>
        <time>2020-07-15T13:42:15Z</time>
      </trkpt>
      <trkpt lat="43.84055" lon="1.92617">
        <ele>214</ele>
        <time>2020-07-15T13:42:16Z</time>
      </trkpt>
      <trkpt lat="43.84054" lon="1.92608">
        <ele>214</ele>
        <time>2020-07-15T13:42:17Z</time>
      </trkpt>
      <trkpt lat="43.84053" lon="1.92599">
        <ele>213.8</ele>
        <time>2020-07-15T13:42:18Z</time>
      </trkpt>
      <trkpt lat="43.84051" lon="1.9259">
        <ele>213.4</ele>
        <time>2020-07-15T13:42:19Z</time>
      </trkpt>
      <trkpt lat="43.8405" lon="1.92582">
        <ele>213</ele>
        <time>2020-07-15T13:42:20Z</time>
      </trkpt>
      <trkpt lat="43.84049" lon="1.92572">
        <ele>213</ele>
        <time>2020-07-15T13:42:21Z</time>
      </trkpt>
      <trkpt lat="43.84049" lon="1.92563">
        <ele>212.6</ele>
        <time>2020-07-15T13:42:22Z</time>
      </trkpt>
      <trkpt lat="43.84048" lon="1.92553">
        <ele>212.2</ele>
        <time>2020-07-15T13:42:23Z</time>
      </trkpt>
      <trkpt lat="43.84048" lon="1.92542">
        <ele>211.8</ele>
        <time>2020-07-15T13:42:24Z</time>
      </trkpt>
      <trkpt lat="43.84048" lon="1.92531">
        <ele>211</ele>
        <time>2020-07-15T13:42:25Z</time>
      </trkpt>
      <trkpt lat="43.84047" lon="1.92519">
        <ele>210.2</ele>
        <time>2020-07-15T13:42:26Z</time>
      </trkpt>
      <trkpt lat="43.84047" lon="1.92507">
        <ele>209.4</ele>
        <time>2020-07-15T13:42:27Z</time>
      </trkpt>
      <trkpt lat="43.84047" lon="1.92494">
        <ele>209</ele>
        <time>2020-07-15T13:42:28Z</time>
      </trkpt>
      <trkpt lat="43.84046" lon="1.9248">
        <ele>208.4</ele>
        <time>2020-07-15T13:42:29Z</time>
      </trkpt>
      <trkpt lat="43.84044" lon="1.92466">
        <ele>208</ele>
        <time>2020-07-15T13:42:30Z</time>
      </trkpt>
      <trkpt lat="43.84043" lon="1.92453">
        <ele>207.8</ele>
        <time>2020-07-15T13:42:31Z</time>
      </trkpt>
      <trkpt lat="43.84041" lon="1.92439">
        <ele>207</ele>
        <time>2020-07-15T13:42:32Z</time>
      </trkpt>
      <trkpt lat="43.84038" lon="1.92426">
        <ele>206.4</ele>
        <time>2020-07-15T13:42:33Z</time>
      </trkpt>
      <trkpt lat="43.84034" lon="1.92414">
        <ele>206</ele>
        <time>2020-07-15T13:42:34Z</time>
      </trkpt>
      <trkpt lat="43.84031" lon="1.92404">
        <ele>205.4</ele>
        <time>2020-07-15T13:42:35Z</time>
      </trkpt>
      <trkpt lat="43.84028" lon="1.92394">
        <ele>204.8</ele>
        <time>2020-07-15T13:42:36Z</time>
      </trkpt>
      <trkpt lat="43.84024" lon="1.92385">
        <ele>204.6</ele>
        <time>2020-07-15T13:42:37Z</time>
      </trkpt>
      <trkpt lat="43.84021" lon="1.92377">
        <ele>204.4</ele>
        <time>2020-07-15T13:42:38Z</time>
      </trkpt>
      <trkpt lat="43.84017" lon="1.92369">
        <ele>204.2</ele>
        <time>2020-07-15T13:42:39Z</time>
      </trkpt>
      <trkpt lat="43.84013" lon="1.92362">
        <ele>204.6</ele>
        <time>2020-07-15T13:42:40Z</time>
      </trkpt>
      <trkpt lat="43.8401" lon="1.92355">
        <ele>204.8</ele>
        <time>2020-07-15T13:42:41Z</time>
      </trkpt>
      <trkpt lat="43.84007" lon="1.92349">
        <ele>205.2</ele>
        <time>2020-07-15T13:42:42Z</time>
      </trkpt>
      <trkpt lat="43.84004" lon="1.92343">
        <ele>205.4</ele>
        <time>2020-07-15T13:42:43Z</time>
      </trkpt>
      <trkpt lat="43.84001" lon="1.92337">
        <ele>205.8</ele>
        <time>2020-07-15T13:42:44Z</time>
      </trkpt>
      <trkpt lat="43.83998" lon="1.92331">
        <ele>206.2</ele>
        <time>2020-07-15T13:42:45Z</time>
      </trkpt>
      <trkpt lat="43.83994" lon="1.92324">
        <ele>206.4</ele>
        <time>2020-07-15T13:42:46Z</time>
      </trkpt>
      <trkpt lat="43.83991" lon="1.92319">
        <ele>206.8</ele>
        <time>2020-07-15T13:42:47Z</time>
      </trkpt>
      <trkpt lat="43.83988" lon="1.92313">
        <ele>207.4</ele>
        <time>2020-07-15T13:42:48Z</time>
      </trkpt>
      <trkpt lat="43.83986" lon="1.92308">
        <ele>207.8</ele>
        <time>2020-07-15T13:42:49Z</time>
      </trkpt>
      <trkpt lat="43.83983" lon="1.92302">
        <ele>208.2</ele>
        <time>2020-07-15T13:42:50Z</time>
      </trkpt>
      <trkpt lat="43.8398" lon="1.92298">
        <ele>208.4</ele>
        <time>2020-07-15T13:42:51Z</time>
      </trkpt>
      <trkpt lat="43.83978" lon="1.92293">
        <ele>208.6</ele>
        <time>2020-07-15T13:42:52Z</time>
      </trkpt>
      <trkpt lat="43.83976" lon="1.92289">
        <ele>209</ele>
        <time>2020-07-15T13:42:53Z</time>
      </trkpt>
      <trkpt lat="43.83976" lon="1.92286">
        <ele>209.4</ele>
        <time>2020-07-15T13:42:54Z</time>
      </trkpt>
      <trkpt lat="43.83979" lon="1.92285">
        <ele>209.6</ele>
        <time>2020-07-15T13:42:55Z</time>
      </trkpt>
      <trkpt lat="43.83983" lon="1.92284">
        <ele>209.8</ele>
        <time>2020-07-15T13:42:56Z</time>
      </trkpt>
      <trkpt lat="43.83988" lon="1.92283">
        <ele>210</ele>
        <time>2020-07-15T13:42:57Z</time>
      </trkpt>
      <trkpt lat="43.83994" lon="1.92281">
        <ele>210.2</ele>
        <time>2020-07-15T13:42:58Z</time>
      </trkpt>
      <trkpt lat="43.83999" lon="1.92279">
        <ele>210.4</ele>
        <time>2020-07-15T13:42:59Z</time>
      </trkpt>
      <trkpt lat="43.84005" lon="1.92276">
        <ele>210.6</ele>
        <time>2020-07-15T13:43:00Z</time>
      </trkpt>
      <trkpt lat="43.84009" lon="1.92274">
        <ele>210.8</ele>
        <time>2020-07-15T13:43:01Z</time>
      </trkpt>
      <trkpt lat="43.84015" lon="1.9227">
        <ele>211</ele>
        <time>2020-07-15T13:43:02Z</time>
      </trkpt>
      <trkpt lat="43.8402" lon="1.92266">
        <ele>211</ele>
        <time>2020-07-15T13:43:03Z</time>
      </trkpt>
      <trkpt lat="43.84025" lon="1.92262">
        <ele>211</ele>
        <time>2020-07-15T13:43:04Z</time>
      </trkpt>
      <trkpt lat="43.84031" lon="1.92257">
        <ele>211</ele>
        <time>2020-07-15T13:43:05Z</time>
      </trkpt>
      <trkpt lat="43.84036" lon="1.92253">
        <ele>210.8</ele>
        <time>2020-07-15T13:43:06Z</time>
      </trkpt>
      <trkpt lat="43.84041" lon="1.92249">
        <ele>210.6</ele>
        <time>2020-07-15T13:43:07Z</time>
      </trkpt>
      <trkpt lat="43.84046" lon="1.92244">
        <ele>210.6</ele>
        <time>2020-07-15T13:43:08Z</time>
      </trkpt>
      <trkpt lat="43.84051" lon="1.92239">
        <ele>210.4</ele>
        <time>2020-07-15T13:43:09Z</time>
      </trkpt>
      <trkpt lat="43.84055" lon="1.92233">
        <ele>210.4</ele>
        <time>2020-07-15T13:43:10Z</time>
      </trkpt>
      <trkpt lat="43.8406" lon="1.92228">
        <ele>210.4</ele>
        <time>2020-07-15T13:43:11Z</time>
      </trkpt>
      <trkpt lat="43.84065" lon="1.92223">
        <ele>210.4</ele>
        <time>2020-07-15T13:43:12Z</time>
      </trkpt>
      <trkpt lat="43.84069" lon="1.92218">
        <ele>210.4</ele>
        <time>2020-07-15T13:43:13Z</time>
      </trkpt>
      <trkpt lat="43.84074" lon="1.92213">
        <ele>210.2</ele>
        <time>2020-07-15T13:43:14Z</time>
      </trkpt>
      <trkpt lat="43.84079" lon="1.92208">
        <ele>210.2</ele>
        <time>2020-07-15T13:43:15Z</time>
      </trkpt>
      <trkpt lat="43.84084" lon="1.92203">
        <ele>210</ele>
        <time>2020-07-15T13:43:16Z</time>
      </trkpt>
      <trkpt lat="43.84089" lon="1.92198">
        <ele>210</ele>
        <time>2020-07-15T13:43:17Z</time>
      </trkpt>
      <trkpt lat="43.84094" lon="1.92193">
        <ele>210</ele>
        <time>2020-07-15T13:43:18Z</time>
      </trkpt>
      <trkpt lat="43.84098" lon="1.92188">
        <ele>209.8</ele>
        <time>2020-07-15T13:43:19Z</time>
      </trkpt>
      <trkpt lat="43.84103" lon="1.92182">
        <ele>209.8</ele>
        <time>2020-07-15T13:43:20Z</time>
      </trkpt>
      <trkpt lat="43.84108" lon="1.92177">
        <ele>209.6</ele>
        <time>2020-07-15T13:43:21Z</time>
      </trkpt>
      <trkpt lat="43.84113" lon="1.92172">
        <ele>209.4</ele>
        <time>2020-07-15T13:43:22Z</time>
      </trkpt>
      <trkpt lat="43.84117" lon="1.92167">
        <ele>209.4</ele>
        <time>2020-07-15T13:43:23Z</time>
      </trkpt>
      <trkpt lat="43.84123" lon="1.92162">
        <ele>209.2</ele>
        <time>2020-07-15T13:43:24Z</time>
      </trkpt>
      <trkpt lat="43.84127" lon="1.92157">
        <ele>209.2</ele>
        <time>2020-07-15T13:43:25Z</time>
      </trkpt>
      <trkpt lat="43.84132" lon="1.92152">
        <ele>209</ele>
        <time>2020-07-15T13:43:26Z</time>
      </trkpt>
      <trkpt lat="43.84137" lon="1.92146">
        <ele>208.8</ele>
        <time>2020-07-15T13:43:27Z</time>
      </trkpt>
      <trkpt lat="43.84142" lon="1.92141">
        <ele>208.8</ele>
        <time>2020-07-15T13:43:28Z</time>
      </trkpt>
      <trkpt lat="43.84147" lon="1.92135">
        <ele>208.6</ele>
        <time>2020-07-15T13:43:29Z</time>
      </trkpt>
      <trkpt lat="43.84151" lon="1.9213">
        <ele>208.6</ele>
        <time>2020-07-15T13:43:30Z</time>
      </trkpt>
      <trkpt lat="43.84155" lon="1.92124">
        <ele>208.4</ele>
        <time>2020-07-15T13:43:31Z</time>
      </trkpt>
      <trkpt lat="43.8416" lon="1.92118">
        <ele>208.4</ele>
        <time>2020-07-15T13:43:32Z</time>
      </trkpt>
      <trkpt lat="43.84165" lon="1.92112">
        <ele>208.4</ele>
        <time>2020-07-15T13:43:33Z</time>
      </trkpt>
      <trkpt lat="43.84169" lon="1.92107">
        <ele>208.2</ele>
        <time>2020-07-15T13:43:34Z</time>
      </trkpt>
      <trkpt lat="43.84174" lon="1.92101">
        <ele>208.2</ele>
        <time>2020-07-15T13:43:35Z</time>
      </trkpt>
      <trkpt lat="43.84178" lon="1.92095">
        <ele>208</ele>
        <time>2020-07-15T13:43:36Z</time>
      </trkpt>
      <trkpt lat="43.84182" lon="1.92088">
        <ele>208</ele>
        <time>2020-07-15T13:43:37Z</time>
      </trkpt>
      <trkpt lat="43.84186" lon="1.92082">
        <ele>208</ele>
        <time>2020-07-15T13:43:38Z</time>
      </trkpt>
      <trkpt lat="43.8419" lon="1.92076">
        <ele>207.8</ele>
        <time>2020-07-15T13:43:39Z</time>
      </trkpt>
      <trkpt lat="43.84195" lon="1.9207">
        <ele>207.8</ele>
        <time>2020-07-15T13:43:40Z</time>
      </trkpt>
      <trkpt lat="43.84199" lon="1.92064">
        <ele>207.8</ele>
        <time>2020-07-15T13:43:41Z</time>
      </trkpt>
      <trkpt lat="43.84203" lon="1.92057">
        <ele>207.8</ele>
        <time>2020-07-15T13:43:42Z</time>
      </trkpt>
      <trkpt lat="43.84207" lon="1.92051">
        <ele>207.6</ele>
        <time>2020-07-15T13:43:43Z</time>
      </trkpt>
      <trkpt lat="43.84211" lon="1.92045">
        <ele>207.4</ele>
        <time>2020-07-15T13:43:44Z</time>
      </trkpt>
      <trkpt lat="43.84215" lon="1.92039">
        <ele>207.4</ele>
        <time>2020-07-15T13:43:45Z</time>
      </trkpt>
      <trkpt lat="43.84219" lon="1.92032">
        <ele>207.2</ele>
        <time>2020-07-15T13:43:46Z</time>
      </trkpt>
      <trkpt lat="43.84223" lon="1.92026">
        <ele>207.2</ele>
        <time>2020-07-15T13:43:47Z</time>
      </trkpt>
      <trkpt lat="43.84228" lon="1.92019">
        <ele>207</ele>
        <time>2020-07-15T13:43:48Z</time>
      </trkpt>
      <trkpt lat="43.84232" lon="1.92013">
        <ele>207</ele>
        <time>2020-07-15T13:43:49Z</time>
      </trkpt>
      <trkpt lat="43.84236" lon="1.92007">
        <ele>206.8</ele>
        <time>2020-07-15T13:43:50Z</time>
      </trkpt>
      <trkpt lat="43.8424" lon="1.92001">
        <ele>206.8</ele>
        <time>2020-07-15T13:43:51Z</time>
      </trkpt>
      <trkpt lat="43.84244" lon="1.91995">
        <ele>206.6</ele>
        <time>2020-07-15T13:43:52Z</time>
      </trkpt>
      <trkpt lat="43.84248" lon="1.91989">
        <ele>206.6</ele>
        <time>2020-07-15T13:43:53Z</time>
      </trkpt>
      <trkpt lat="43.84252" lon="1.91983">
        <ele>206.4</ele>
        <time>2020-07-15T13:43:54Z</time>
      </trkpt>
      <trkpt lat="43.84256" lon="1.91977">
        <ele>206.4</ele>
        <time>2020-07-15T13:43:55Z</time>
      </trkpt>
      <trkpt lat="43.8426" lon="1.91971">
        <ele>206.4</ele>
        <time>2020-07-15T13:43:56Z</time>
      </trkpt>
      <trkpt lat="43.84264" lon="1.91965">
        <ele>206.2</ele>
        <time>2020-07-15T13:43:57Z</time>
      </trkpt>
      <trkpt lat="43.84268" lon="1.91959">
        <ele>206.2</ele>
        <time>2020-07-15T13:43:58Z</time>
      </trkpt>
      <trkpt lat="43.84272" lon="1.91953">
        <ele>206.2</ele>
        <time>2020-07-15T13:43:59Z</time>
      </trkpt>
      <trkpt lat="43.84276" lon="1.91947">
        <ele>206.2</ele>
        <time>2020-07-15T13:44:00Z</time>
      </trkpt>
      <trkpt lat="43.84279" lon="1.91941">
        <ele>206</ele>
        <time>2020-07-15T13:44:01Z</time>
      </trkpt>
      <trkpt lat="43.84283" lon="1.91934">
        <ele>206</ele>
        <time>2020-07-15T13:44:02Z</time>
      </trkpt>
      <trkpt lat="43.84287" lon="1.91927">
        <ele>205.8</ele>
        <time>2020-07-15T13:44:03Z</time>
      </trkpt>
      <trkpt lat="43.8429" lon="1.9192">
        <ele>205.8</ele>
        <time>2020-07-15T13:44:04Z</time>
      </trkpt>
      <trkpt lat="43.84293" lon="1.91914">
        <ele>205.8</ele>
        <time>2020-07-15T13:44:05Z</time>
      </trkpt>
      <trkpt lat="43.84297" lon="1.91908">
        <ele>205.6</ele>
        <time>2020-07-15T13:44:06Z</time>
      </trkpt>
      <trkpt lat="43.84301" lon="1.91901">
        <ele>205.6</ele>
        <time>2020-07-15T13:44:07Z</time>
      </trkpt>
      <trkpt lat="43.84304" lon="1.91894">
        <ele>205.6</ele>
        <time>2020-07-15T13:44:08Z</time>
      </trkpt>
      <trkpt lat="43.84308" lon="1.91887">
        <ele>205.4</ele>
        <time>2020-07-15T13:44:09Z</time>
      </trkpt>
      <trkpt lat="43.84311" lon="1.91881">
        <ele>205.4</ele>
        <time>2020-07-15T13:44:10Z</time>
      </trkpt>
      <trkpt lat="43.84314" lon="1.91874">
        <ele>205.4</ele>
        <time>2020-07-15T13:44:11Z</time>
      </trkpt>
      <trkpt lat="43.84318" lon="1.91867">
        <ele>205.4</ele>
        <time>2020-07-15T13:44:12Z</time>
      </trkpt>
      <trkpt lat="43.84321" lon="1.91861">
        <ele>205.2</ele>
        <time>2020-07-15T13:44:13Z</time>
      </trkpt>
      <trkpt lat="43.84325" lon="1.91854">
        <ele>205.2</ele>
        <time>2020-07-15T13:44:14Z</time>
      </trkpt>
      <trkpt lat="43.84328" lon="1.91848">
        <ele>205.2</ele>
        <time>2020-07-15T13:44:15Z</time>
      </trkpt>
      <trkpt lat="43.84332" lon="1.91841">
        <ele>205</ele>
        <time>2020-07-15T13:44:16Z</time>
      </trkpt>
      <trkpt lat="43.84335" lon="1.91834">
        <ele>205</ele>
        <time>2020-07-15T13:44:17Z</time>
      </trkpt>
      <trkpt lat="43.84339" lon="1.91827">
        <ele>205</ele>
        <time>2020-07-15T13:44:18Z</time>
      </trkpt>
      <trkpt lat="43.84343" lon="1.9182">
        <ele>205</ele>
        <time>2020-07-15T13:44:19Z</time>
      </trkpt>
      <trkpt lat="43.84346" lon="1.91814">
        <ele>204.8</ele>
        <time>2020-07-15T13:44:20Z</time>
      </trkpt>
      <trkpt lat="43.84349" lon="1.91807">
        <ele>204.8</ele>
        <time>2020-07-15T13:44:21Z</time>
      </trkpt>
      <trkpt lat="43.84353" lon="1.918">
        <ele>204.6</ele>
        <time>2020-07-15T13:44:22Z</time>
      </trkpt>
      <trkpt lat="43.84357" lon="1.91794">
        <ele>204.4</ele>
        <time>2020-07-15T13:44:23Z</time>
      </trkpt>
      <trkpt lat="43.84361" lon="1.91787">
        <ele>204</ele>
        <time>2020-07-15T13:44:24Z</time>
      </trkpt>
      <trkpt lat="43.84364" lon="1.91781">
        <ele>204</ele>
        <time>2020-07-15T13:44:25Z</time>
      </trkpt>
      <trkpt lat="43.84368" lon="1.91774">
        <ele>203.8</ele>
        <time>2020-07-15T13:44:26Z</time>
      </trkpt>
      <trkpt lat="43.84371" lon="1.91768">
        <ele>203.8</ele>
        <time>2020-07-15T13:44:27Z</time>
      </trkpt>
      <trkpt lat="43.84375" lon="1.91761">
        <ele>203.8</ele>
        <time>2020-07-15T13:44:28Z</time>
      </trkpt>
      <trkpt lat="43.84378" lon="1.91755">
        <ele>203.8</ele>
        <time>2020-07-15T13:44:29Z</time>
      </trkpt>
      <trkpt lat="43.84382" lon="1.91748">
        <ele>203.8</ele>
        <time>2020-07-15T13:44:30Z</time>
      </trkpt>
      <trkpt lat="43.84385" lon="1.91741">
        <ele>203.8</ele>
        <time>2020-07-15T13:44:31Z</time>
      </trkpt>
      <trkpt lat="43.84388" lon="1.91735">
        <ele>203.8</ele>
        <time>2020-07-15T13:44:32Z</time>
      </trkpt>
      <trkpt lat="43.84392" lon="1.91728">
        <ele>203.8</ele>
        <time>2020-07-15T13:44:33Z</time>
      </trkpt>
      <trkpt lat="43.84396" lon="1.91721">
        <ele>203.8</ele>
        <time>2020-07-15T13:44:34Z</time>
      </trkpt>
      <trkpt lat="43.84399" lon="1.91715">
        <ele>203.8</ele>
        <time>2020-07-15T13:44:35Z</time>
      </trkpt>
      <trkpt lat="43.84403" lon="1.91708">
        <ele>203.8</ele>
        <time>2020-07-15T13:44:36Z</time>
      </trkpt>
      <trkpt lat="43.84406" lon="1.91701">
        <ele>203.8</ele>
        <time>2020-07-15T13:44:37Z</time>
      </trkpt>
      <trkpt lat="43.8441" lon="1.91695">
        <ele>203.6</ele>
        <time>2020-07-15T13:44:38Z</time>
      </trkpt>
      <trkpt lat="43.84413" lon="1.91687">
        <ele>203.6</ele>
        <time>2020-07-15T13:44:39Z</time>
      </trkpt>
      <trkpt lat="43.84417" lon="1.91681">
        <ele>203.6</ele>
        <time>2020-07-15T13:44:40Z</time>
      </trkpt>
      <trkpt lat="43.8442" lon="1.91674">
        <ele>203.4</ele>
        <time>2020-07-15T13:44:41Z</time>
      </trkpt>
      <trkpt lat="43.84424" lon="1.91667">
        <ele>203.6</ele>
        <time>2020-07-15T13:44:42Z</time>
      </trkpt>
      <trkpt lat="43.84428" lon="1.9166">
        <ele>203.4</ele>
        <time>2020-07-15T13:44:43Z</time>
      </trkpt>
      <trkpt lat="43.84431" lon="1.91653">
        <ele>203.6</ele>
        <time>2020-07-15T13:44:44Z</time>
      </trkpt>
      <trkpt lat="43.84435" lon="1.91646">
        <ele>203.4</ele>
        <time>2020-07-15T13:44:45Z</time>
      </trkpt>
      <trkpt lat="43.84439" lon="1.91639">
        <ele>203.4</ele>
        <time>2020-07-15T13:44:46Z</time>
      </trkpt>
      <trkpt lat="43.84443" lon="1.91632">
        <ele>203.4</ele>
        <time>2020-07-15T13:44:47Z</time>
      </trkpt>
      <trkpt lat="43.84446" lon="1.91625">
        <ele>203.4</ele>
        <time>2020-07-15T13:44:48Z</time>
      </trkpt>
      <trkpt lat="43.8445" lon="1.91618">
        <ele>203.4</ele>
        <time>2020-07-15T13:44:49Z</time>
      </trkpt>
      <trkpt lat="43.84453" lon="1.91611">
        <ele>203.2</ele>
        <time>2020-07-15T13:44:50Z</time>
      </trkpt>
      <trkpt lat="43.84457" lon="1.91604">
        <ele>203.2</ele>
        <time>2020-07-15T13:44:51Z</time>
      </trkpt>
      <trkpt lat="43.84461" lon="1.91597">
        <ele>203.2</ele>
        <time>2020-07-15T13:44:52Z</time>
      </trkpt>
      <trkpt lat="43.84464" lon="1.9159">
        <ele>203.2</ele>
        <time>2020-07-15T13:44:53Z</time>
      </trkpt>
      <trkpt lat="43.84468" lon="1.91583">
        <ele>203.2</ele>
        <time>2020-07-15T13:44:54Z</time>
      </trkpt>
      <trkpt lat="43.84471" lon="1.91577">
        <ele>203.2</ele>
        <time>2020-07-15T13:44:55Z</time>
      </trkpt>
      <trkpt lat="43.84475" lon="1.9157">
        <ele>203.2</ele>
        <time>2020-07-15T13:44:56Z</time>
      </trkpt>
      <trkpt lat="43.84478" lon="1.91563">
        <ele>203</ele>
        <time>2020-07-15T13:44:57Z</time>
      </trkpt>
      <trkpt lat="43.84482" lon="1.91556">
        <ele>203</ele>
        <time>2020-07-15T13:44:58Z</time>
      </trkpt>
      <trkpt lat="43.84485" lon="1.91549">
        <ele>203</ele>
        <time>2020-07-15T13:44:59Z</time>
      </trkpt>
      <trkpt lat="43.84489" lon="1.91542">
        <ele>203</ele>
        <time>2020-07-15T13:45:00Z</time>
      </trkpt>
      <trkpt lat="43.84493" lon="1.91535">
        <ele>202.8</ele>
        <time>2020-07-15T13:45:01Z</time>
      </trkpt>
      <trkpt lat="43.84496" lon="1.91528">
        <ele>202.8</ele>
        <time>2020-07-15T13:45:02Z</time>
      </trkpt>
      <trkpt lat="43.845" lon="1.91521">
        <ele>202.6</ele>
        <time>2020-07-15T13:45:03Z</time>
      </trkpt>
      <trkpt lat="43.84503" lon="1.91515">
        <ele>202.6</ele>
        <time>2020-07-15T13:45:04Z</time>
      </trkpt>
      <trkpt lat="43.84507" lon="1.91508">
        <ele>202.6</ele>
        <time>2020-07-15T13:45:05Z</time>
      </trkpt>
      <trkpt lat="43.8451" lon="1.91501">
        <ele>202.6</ele>
        <time>2020-07-15T13:45:06Z</time>
      </trkpt>
      <trkpt lat="43.84514" lon="1.91494">
        <ele>202.4</ele>
        <time>2020-07-15T13:45:07Z</time>
      </trkpt>
      <trkpt lat="43.84517" lon="1.91487">
        <ele>202.4</ele>
        <time>2020-07-15T13:45:08Z</time>
      </trkpt>
      <trkpt lat="43.84521" lon="1.9148">
        <ele>202.4</ele>
        <time>2020-07-15T13:45:09Z</time>
      </trkpt>
      <trkpt lat="43.84525" lon="1.91473">
        <ele>202.2</ele>
        <time>2020-07-15T13:45:10Z</time>
      </trkpt>
      <trkpt lat="43.84528" lon="1.91467">
        <ele>202</ele>
        <time>2020-07-15T13:45:11Z</time>
      </trkpt>
      <trkpt lat="43.84532" lon="1.9146">
        <ele>202</ele>
        <time>2020-07-15T13:45:12Z</time>
      </trkpt>
      <trkpt lat="43.84535" lon="1.91453">
        <ele>202</ele>
        <time>2020-07-15T13:45:13Z</time>
      </trkpt>
      <trkpt lat="43.84539" lon="1.91446">
        <ele>202</ele>
        <time>2020-07-15T13:45:14Z</time>
      </trkpt>
      <trkpt lat="43.84542" lon="1.91439">
        <ele>202</ele>
        <time>2020-07-15T13:45:15Z</time>
      </trkpt>
      <trkpt lat="43.84546" lon="1.91433">
        <ele>201.8</ele>
        <time>2020-07-15T13:45:16Z</time>
      </trkpt>
      <trkpt lat="43.84549" lon="1.91426">
        <ele>201.8</ele>
        <time>2020-07-15T13:45:17Z</time>
      </trkpt>
      <trkpt lat="43.84552" lon="1.9142">
        <ele>201.8</ele>
        <time>2020-07-15T13:45:18Z</time>
      </trkpt>
      <trkpt lat="43.84554" lon="1.91413">
        <ele>201.6</ele>
        <time>2020-07-15T13:45:19Z</time>
      </trkpt>
      <trkpt lat="43.84557" lon="1.91406">
        <ele>201.4</ele>
        <time>2020-07-15T13:45:20Z</time>
      </trkpt>
      <trkpt lat="43.8456" lon="1.91399">
        <ele>201.4</ele>
        <time>2020-07-15T13:45:21Z</time>
      </trkpt>
      <trkpt lat="43.84563" lon="1.91391">
        <ele>201.2</ele>
        <time>2020-07-15T13:45:22Z</time>
      </trkpt>
      <trkpt lat="43.84565" lon="1.91383">
        <ele>201</ele>
        <time>2020-07-15T13:45:23Z</time>
      </trkpt>
      <trkpt lat="43.84568" lon="1.91375">
        <ele>200.8</ele>
        <time>2020-07-15T13:45:24Z</time>
      </trkpt>
      <trkpt lat="43.8457" lon="1.91367">
        <ele>200.6</ele>
        <time>2020-07-15T13:45:25Z</time>
      </trkpt>
      <trkpt lat="43.84572" lon="1.91359">
        <ele>200.6</ele>
        <time>2020-07-15T13:45:26Z</time>
      </trkpt>
      <trkpt lat="43.84575" lon="1.91352">
        <ele>200.8</ele>
        <time>2020-07-15T13:45:27Z</time>
      </trkpt>
      <trkpt lat="43.84577" lon="1.91344">
        <ele>200.8</ele>
        <time>2020-07-15T13:45:28Z</time>
      </trkpt>
      <trkpt lat="43.84579" lon="1.91336">
        <ele>200.8</ele>
        <time>2020-07-15T13:45:29Z</time>
      </trkpt>
      <trkpt lat="43.84581" lon="1.91328">
        <ele>200.8</ele>
        <time>2020-07-15T13:45:30Z</time>
      </trkpt>
      <trkpt lat="43.84583" lon="1.9132">
        <ele>200.6</ele>
        <time>2020-07-15T13:45:31Z</time>
      </trkpt>
      <trkpt lat="43.84585" lon="1.91313">
        <ele>200.6</ele>
        <time>2020-07-15T13:45:32Z</time>
      </trkpt>
      <trkpt lat="43.84588" lon="1.91305">
        <ele>200.6</ele>
        <time>2020-07-15T13:45:33Z</time>
      </trkpt>
      <trkpt lat="43.8459" lon="1.91297">
        <ele>200.6</ele>
        <time>2020-07-15T13:45:34Z</time>
      </trkpt>
      <trkpt lat="43.84592" lon="1.9129">
        <ele>200.6</ele>
        <time>2020-07-15T13:45:35Z</time>
      </trkpt>
      <trkpt lat="43.84594" lon="1.91282">
        <ele>200.8</ele>
        <time>2020-07-15T13:45:36Z</time>
      </trkpt>
      <trkpt lat="43.84597" lon="1.91275">
        <ele>200.8</ele>
        <time>2020-07-15T13:45:37Z</time>
      </trkpt>
      <trkpt lat="43.846" lon="1.91267">
        <ele>200.8</ele>
        <time>2020-07-15T13:45:38Z</time>
      </trkpt>
      <trkpt lat="43.84602" lon="1.9126">
        <ele>200.8</ele>
        <time>2020-07-15T13:45:39Z</time>
      </trkpt>
      <trkpt lat="43.84606" lon="1.91253">
        <ele>201</ele>
        <time>2020-07-15T13:45:40Z</time>
      </trkpt>
      <trkpt lat="43.84609" lon="1.91246">
        <ele>201</ele>
        <time>2020-07-15T13:45:41Z</time>
      </trkpt>
      <trkpt lat="43.84613" lon="1.9124">
        <ele>201</ele>
        <time>2020-07-15T13:45:42Z</time>
      </trkpt>
      <trkpt lat="43.84616" lon="1.91233">
        <ele>201</ele>
        <time>2020-07-15T13:45:43Z</time>
      </trkpt>
      <trkpt lat="43.8462" lon="1.91226">
        <ele>200.8</ele>
        <time>2020-07-15T13:45:44Z</time>
      </trkpt>
      <trkpt lat="43.84624" lon="1.9122">
        <ele>200.8</ele>
        <time>2020-07-15T13:45:45Z</time>
      </trkpt>
      <trkpt lat="43.84627" lon="1.91213">
        <ele>200.6</ele>
        <time>2020-07-15T13:45:46Z</time>
      </trkpt>
      <trkpt lat="43.84631" lon="1.91207">
        <ele>200.4</ele>
        <time>2020-07-15T13:45:47Z</time>
      </trkpt>
      <trkpt lat="43.84635" lon="1.91201">
        <ele>200.2</ele>
        <time>2020-07-15T13:45:48Z</time>
      </trkpt>
      <trkpt lat="43.84639" lon="1.91195">
        <ele>200</ele>
        <time>2020-07-15T13:45:49Z</time>
      </trkpt>
      <trkpt lat="43.84643" lon="1.91188">
        <ele>200</ele>
        <time>2020-07-15T13:45:50Z</time>
      </trkpt>
      <trkpt lat="43.84647" lon="1.91182">
        <ele>199.8</ele>
        <time>2020-07-15T13:45:51Z</time>
      </trkpt>
      <trkpt lat="43.8465" lon="1.91175">
        <ele>199.8</ele>
        <time>2020-07-15T13:45:52Z</time>
      </trkpt>
      <trkpt lat="43.84654" lon="1.91168">
        <ele>199.8</ele>
        <time>2020-07-15T13:45:53Z</time>
      </trkpt>
      <trkpt lat="43.84657" lon="1.91161">
        <ele>199.8</ele>
        <time>2020-07-15T13:45:54Z</time>
      </trkpt>
      <trkpt lat="43.8466" lon="1.91154">
        <ele>199.4</ele>
        <time>2020-07-15T13:45:55Z</time>
      </trkpt>
      <trkpt lat="43.84663" lon="1.91147">
        <ele>199.4</ele>
        <time>2020-07-15T13:45:56Z</time>
      </trkpt>
      <trkpt lat="43.84666" lon="1.9114">
        <ele>199.2</ele>
        <time>2020-07-15T13:45:57Z</time>
      </trkpt>
      <trkpt lat="43.8467" lon="1.91133">
        <ele>199.2</ele>
        <time>2020-07-15T13:45:58Z</time>
      </trkpt>
      <trkpt lat="43.84672" lon="1.91126">
        <ele>199</ele>
        <time>2020-07-15T13:45:59Z</time>
      </trkpt>
      <trkpt lat="43.84676" lon="1.91118">
        <ele>198.8</ele>
        <time>2020-07-15T13:46:00Z</time>
      </trkpt>
      <trkpt lat="43.84679" lon="1.91111">
        <ele>198.8</ele>
        <time>2020-07-15T13:46:01Z</time>
      </trkpt>
      <trkpt lat="43.84682" lon="1.91103">
        <ele>198.8</ele>
        <time>2020-07-15T13:46:02Z</time>
      </trkpt>
      <trkpt lat="43.84685" lon="1.91096">
        <ele>198.8</ele>
        <time>2020-07-15T13:46:03Z</time>
      </trkpt>
      <trkpt lat="43.84689" lon="1.91088">
        <ele>198.8</ele>
        <time>2020-07-15T13:46:04Z</time>
      </trkpt>
      <trkpt lat="43.84692" lon="1.9108">
        <ele>198.8</ele>
        <time>2020-07-15T13:46:05Z</time>
      </trkpt>
      <trkpt lat="43.84695" lon="1.91073">
        <ele>198.6</ele>
        <time>2020-07-15T13:46:06Z</time>
      </trkpt>
      <trkpt lat="43.84698" lon="1.91066">
        <ele>198.8</ele>
        <time>2020-07-15T13:46:07Z</time>
      </trkpt>
      <trkpt lat="43.84701" lon="1.9106">
        <ele>198.8</ele>
        <time>2020-07-15T13:46:08Z</time>
      </trkpt>
      <trkpt lat="43.84704" lon="1.91053">
        <ele>198.8</ele>
        <time>2020-07-15T13:46:09Z</time>
      </trkpt>
      <trkpt lat="43.84707" lon="1.91046">
        <ele>198.6</ele>
        <time>2020-07-15T13:46:10Z</time>
      </trkpt>
      <trkpt lat="43.8471" lon="1.91039">
        <ele>198.4</ele>
        <time>2020-07-15T13:46:11Z</time>
      </trkpt>
      <trkpt lat="43.84713" lon="1.91031">
        <ele>198.4</ele>
        <time>2020-07-15T13:46:12Z</time>
      </trkpt>
      <trkpt lat="43.84716" lon="1.91024">
        <ele>198.2</ele>
        <time>2020-07-15T13:46:13Z</time>
      </trkpt>
      <trkpt lat="43.8472" lon="1.91017">
        <ele>198.4</ele>
        <time>2020-07-15T13:46:14Z</time>
      </trkpt>
      <trkpt lat="43.84723" lon="1.91009">
        <ele>198.4</ele>
        <time>2020-07-15T13:46:15Z</time>
      </trkpt>
      <trkpt lat="43.84726" lon="1.91002">
        <ele>198.2</ele>
        <time>2020-07-15T13:46:16Z</time>
      </trkpt>
      <trkpt lat="43.84729" lon="1.90995">
        <ele>198.2</ele>
        <time>2020-07-15T13:46:17Z</time>
      </trkpt>
      <trkpt lat="43.84732" lon="1.90988">
        <ele>198.2</ele>
        <time>2020-07-15T13:46:18Z</time>
      </trkpt>
      <trkpt lat="43.84734" lon="1.9098">
        <ele>198.2</ele>
        <time>2020-07-15T13:46:19Z</time>
      </trkpt>
      <trkpt lat="43.84737" lon="1.90973">
        <ele>198.2</ele>
        <time>2020-07-15T13:46:20Z</time>
      </trkpt>
      <trkpt lat="43.8474" lon="1.90965">
        <ele>198.2</ele>
        <time>2020-07-15T13:46:21Z</time>
      </trkpt>
      <trkpt lat="43.84744" lon="1.90957">
        <ele>198</ele>
        <time>2020-07-15T13:46:22Z</time>
      </trkpt>
      <trkpt lat="43.84747" lon="1.9095">
        <ele>198</ele>
        <time>2020-07-15T13:46:23Z</time>
      </trkpt>
      <trkpt lat="43.8475" lon="1.90942">
        <ele>198</ele>
        <time>2020-07-15T13:46:24Z</time>
      </trkpt>
      <trkpt lat="43.84753" lon="1.90934">
        <ele>198</ele>
        <time>2020-07-15T13:46:25Z</time>
      </trkpt>
      <trkpt lat="43.84755" lon="1.90927">
        <ele>198</ele>
        <time>2020-07-15T13:46:26Z</time>
      </trkpt>
      <trkpt lat="43.84759" lon="1.90919">
        <ele>197.8</ele>
        <time>2020-07-15T13:46:27Z</time>
      </trkpt>
      <trkpt lat="43.84762" lon="1.90912">
        <ele>197.4</ele>
        <time>2020-07-15T13:46:28Z</time>
      </trkpt>
      <trkpt lat="43.84765" lon="1.90905">
        <ele>197.4</ele>
        <time>2020-07-15T13:46:29Z</time>
      </trkpt>
      <trkpt lat="43.84768" lon="1.90897">
        <ele>197.2</ele>
        <time>2020-07-15T13:46:30Z</time>
      </trkpt>
      <trkpt lat="43.84771" lon="1.9089">
        <ele>197.2</ele>
        <time>2020-07-15T13:46:31Z</time>
      </trkpt>
      <trkpt lat="43.84774" lon="1.90883">
        <ele>197.2</ele>
        <time>2020-07-15T13:46:32Z</time>
      </trkpt>
      <trkpt lat="43.84777" lon="1.90876">
        <ele>197</ele>
        <time>2020-07-15T13:46:33Z</time>
      </trkpt>
      <trkpt lat="43.8478" lon="1.90868">
        <ele>197</ele>
        <time>2020-07-15T13:46:34Z</time>
      </trkpt>
      <trkpt lat="43.84784" lon="1.90861">
        <ele>196.8</ele>
        <time>2020-07-15T13:46:35Z</time>
      </trkpt>
      <trkpt lat="43.84787" lon="1.90854">
        <ele>196.6</ele>
        <time>2020-07-15T13:46:36Z</time>
      </trkpt>
      <trkpt lat="43.8479" lon="1.90846">
        <ele>196.4</ele>
        <time>2020-07-15T13:46:37Z</time>
      </trkpt>
      <trkpt lat="43.84794" lon="1.90839">
        <ele>196.2</ele>
        <time>2020-07-15T13:46:38Z</time>
      </trkpt>
      <trkpt lat="43.84797" lon="1.90832">
        <ele>196.2</ele>
        <time>2020-07-15T13:46:39Z</time>
      </trkpt>
      <trkpt lat="43.848" lon="1.90825">
        <ele>196.2</ele>
        <time>2020-07-15T13:46:40Z</time>
      </trkpt>
      <trkpt lat="43.84804" lon="1.90818">
        <ele>196.2</ele>
        <time>2020-07-15T13:46:41Z</time>
      </trkpt>
      <trkpt lat="43.84807" lon="1.90811">
        <ele>196.2</ele>
        <time>2020-07-15T13:46:42Z</time>
      </trkpt>
      <trkpt lat="43.8481" lon="1.90804">
        <ele>196.2</ele>
        <time>2020-07-15T13:46:43Z</time>
      </trkpt>
      <trkpt lat="43.84814" lon="1.90797">
        <ele>196.2</ele>
        <time>2020-07-15T13:46:44Z</time>
      </trkpt>
      <trkpt lat="43.84817" lon="1.9079">
        <ele>196.2</ele>
        <time>2020-07-15T13:46:45Z</time>
      </trkpt>
      <trkpt lat="43.8482" lon="1.90782">
        <ele>196.2</ele>
        <time>2020-07-15T13:46:46Z</time>
      </trkpt>
      <trkpt lat="43.84823" lon="1.90775">
        <ele>196.2</ele>
        <time>2020-07-15T13:46:47Z</time>
      </trkpt>
      <trkpt lat="43.84827" lon="1.90768">
        <ele>196.2</ele>
        <time>2020-07-15T13:46:48Z</time>
      </trkpt>
      <trkpt lat="43.84831" lon="1.9076">
        <ele>196.2</ele>
        <time>2020-07-15T13:46:49Z</time>
      </trkpt>
      <trkpt lat="43.84834" lon="1.90753">
        <ele>196</ele>
        <time>2020-07-15T13:46:50Z</time>
      </trkpt>
      <trkpt lat="43.84837" lon="1.90745">
        <ele>195.8</ele>
        <time>2020-07-15T13:46:51Z</time>
      </trkpt>
      <trkpt lat="43.84841" lon="1.90738">
        <ele>195.8</ele>
        <time>2020-07-15T13:46:52Z</time>
      </trkpt>
      <trkpt lat="43.84845" lon="1.90731">
        <ele>195.8</ele>
        <time>2020-07-15T13:46:53Z</time>
      </trkpt>
      <trkpt lat="43.84849" lon="1.90724">
        <ele>195.6</ele>
        <time>2020-07-15T13:46:54Z</time>
      </trkpt>
      <trkpt lat="43.84853" lon="1.90717">
        <ele>195.6</ele>
        <time>2020-07-15T13:46:55Z</time>
      </trkpt>
      <trkpt lat="43.84857" lon="1.9071">
        <ele>195.6</ele>
        <time>2020-07-15T13:46:56Z</time>
      </trkpt>
      <trkpt lat="43.84861" lon="1.90703">
        <ele>195.6</ele>
        <time>2020-07-15T13:46:57Z</time>
      </trkpt>
      <trkpt lat="43.84866" lon="1.90696">
        <ele>195.6</ele>
        <time>2020-07-15T13:46:58Z</time>
      </trkpt>
      <trkpt lat="43.8487" lon="1.90689">
        <ele>195.6</ele>
        <time>2020-07-15T13:46:59Z</time>
      </trkpt>
      <trkpt lat="43.84875" lon="1.90682">
        <ele>195.4</ele>
        <time>2020-07-15T13:47:00Z</time>
      </trkpt>
      <trkpt lat="43.84879" lon="1.90675">
        <ele>195.4</ele>
        <time>2020-07-15T13:47:01Z</time>
      </trkpt>
      <trkpt lat="43.84884" lon="1.90668">
        <ele>195.2</ele>
        <time>2020-07-15T13:47:02Z</time>
      </trkpt>
      <trkpt lat="43.84889" lon="1.90661">
        <ele>195</ele>
        <time>2020-07-15T13:47:03Z</time>
      </trkpt>
      <trkpt lat="43.84893" lon="1.90654">
        <ele>195</ele>
        <time>2020-07-15T13:47:04Z</time>
      </trkpt>
      <trkpt lat="43.84897" lon="1.90647">
        <ele>195</ele>
        <time>2020-07-15T13:47:05Z</time>
      </trkpt>
      <trkpt lat="43.84902" lon="1.9064">
        <ele>195</ele>
        <time>2020-07-15T13:47:06Z</time>
      </trkpt>
      <trkpt lat="43.84906" lon="1.90633">
        <ele>194.8</ele>
        <time>2020-07-15T13:47:07Z</time>
      </trkpt>
      <trkpt lat="43.8491" lon="1.90626">
        <ele>194.6</ele>
        <time>2020-07-15T13:47:08Z</time>
      </trkpt>
      <trkpt lat="43.84915" lon="1.9062">
        <ele>194.6</ele>
        <time>2020-07-15T13:47:09Z</time>
      </trkpt>
      <trkpt lat="43.84919" lon="1.90614">
        <ele>194.6</ele>
        <time>2020-07-15T13:47:10Z</time>
      </trkpt>
      <trkpt lat="43.84923" lon="1.90608">
        <ele>194.6</ele>
        <time>2020-07-15T13:47:11Z</time>
      </trkpt>
      <trkpt lat="43.84927" lon="1.90602">
        <ele>194.8</ele>
        <time>2020-07-15T13:47:12Z</time>
      </trkpt>
      <trkpt lat="43.8493" lon="1.90596">
        <ele>194.8</ele>
        <time>2020-07-15T13:47:13Z</time>
      </trkpt>
      <trkpt lat="43.84934" lon="1.90591">
        <ele>195</ele>
        <time>2020-07-15T13:47:14Z</time>
      </trkpt>
      <trkpt lat="43.84938" lon="1.90585">
        <ele>195.4</ele>
        <time>2020-07-15T13:47:15Z</time>
      </trkpt>
      <trkpt lat="43.84943" lon="1.90582">
        <ele>195.4</ele>
        <time>2020-07-15T13:47:16Z</time>
      </trkpt>
      <trkpt lat="43.84947" lon="1.90578">
        <ele>195.6</ele>
        <time>2020-07-15T13:47:17Z</time>
      </trkpt>
      <trkpt lat="43.84951" lon="1.90574">
        <ele>196</ele>
        <time>2020-07-15T13:47:18Z</time>
      </trkpt>
      <trkpt lat="43.84955" lon="1.90569">
        <ele>196.2</ele>
        <time>2020-07-15T13:47:19Z</time>
      </trkpt>
      <trkpt lat="43.84957" lon="1.90564">
        <ele>196.2</ele>
        <time>2020-07-15T13:47:20Z</time>
      </trkpt>
      <trkpt lat="43.8496" lon="1.90559">
        <ele>196.6</ele>
        <time>2020-07-15T13:47:21Z</time>
      </trkpt>
      <trkpt lat="43.84963" lon="1.90554">
        <ele>196.8</ele>
        <time>2020-07-15T13:47:22Z</time>
      </trkpt>
      <trkpt lat="43.84967" lon="1.9055">
        <ele>197</ele>
        <time>2020-07-15T13:47:23Z</time>
      </trkpt>
      <trkpt lat="43.84971" lon="1.90545">
        <ele>197</ele>
        <time>2020-07-15T13:47:24Z</time>
      </trkpt>
      <trkpt lat="43.84974" lon="1.9054">
        <ele>197.2</ele>
        <time>2020-07-15T13:47:25Z</time>
      </trkpt>
      <trkpt lat="43.84979" lon="1.90535">
        <ele>197.2</ele>
        <time>2020-07-15T13:47:26Z</time>
      </trkpt>
      <trkpt lat="43.84983" lon="1.90531">
        <ele>197.4</ele>
        <time>2020-07-15T13:47:27Z</time>
      </trkpt>
      <trkpt lat="43.84988" lon="1.90526">
        <ele>197.4</ele>
        <time>2020-07-15T13:47:28Z</time>
      </trkpt>
      <trkpt lat="43.84992" lon="1.90521">
        <ele>197.6</ele>
        <time>2020-07-15T13:47:29Z</time>
      </trkpt>
      <trkpt lat="43.84997" lon="1.90517">
        <ele>197.6</ele>
        <time>2020-07-15T13:47:30Z</time>
      </trkpt>
      <trkpt lat="43.85002" lon="1.90512">
        <ele>197.8</ele>
        <time>2020-07-15T13:47:31Z</time>
      </trkpt>
      <trkpt lat="43.85006" lon="1.90507">
        <ele>197.8</ele>
        <time>2020-07-15T13:47:32Z</time>
      </trkpt>
      <trkpt lat="43.85011" lon="1.90502">
        <ele>197.8</ele>
        <time>2020-07-15T13:47:33Z</time>
      </trkpt>
      <trkpt lat="43.85016" lon="1.90497">
        <ele>197.8</ele>
        <time>2020-07-15T13:47:34Z</time>
      </trkpt>
      <trkpt lat="43.85021" lon="1.90492">
        <ele>197.6</ele>
        <time>2020-07-15T13:47:35Z</time>
      </trkpt>
      <trkpt lat="43.85026" lon="1.90487">
        <ele>197.6</ele>
        <time>2020-07-15T13:47:36Z</time>
      </trkpt>
      <trkpt lat="43.85031" lon="1.90482">
        <ele>197.6</ele>
        <time>2020-07-15T13:47:37Z</time>
      </trkpt>
      <trkpt lat="43.85036" lon="1.90477">
        <ele>197.4</ele>
        <time>2020-07-15T13:47:38Z</time>
      </trkpt>
      <trkpt lat="43.85041" lon="1.90472">
        <ele>197.4</ele>
        <time>2020-07-15T13:47:39Z</time>
      </trkpt>
      <trkpt lat="43.85046" lon="1.90467">
        <ele>197.4</ele>
        <time>2020-07-15T13:47:40Z</time>
      </trkpt>
      <trkpt lat="43.8505" lon="1.90463">
        <ele>197.2</ele>
        <time>2020-07-15T13:47:41Z</time>
      </trkpt>
      <trkpt lat="43.85055" lon="1.90458">
        <ele>197.2</ele>
        <time>2020-07-15T13:47:42Z</time>
      </trkpt>
      <trkpt lat="43.85061" lon="1.90453">
        <ele>197.2</ele>
        <time>2020-07-15T13:47:43Z</time>
      </trkpt>
      <trkpt lat="43.85066" lon="1.90449">
        <ele>197.2</ele>
        <time>2020-07-15T13:47:44Z</time>
      </trkpt>
      <trkpt lat="43.8507" lon="1.90444">
        <ele>197.2</ele>
        <time>2020-07-15T13:47:45Z</time>
      </trkpt>
      <trkpt lat="43.85075" lon="1.90439">
        <ele>197.2</ele>
        <time>2020-07-15T13:47:46Z</time>
      </trkpt>
      <trkpt lat="43.8508" lon="1.90434">
        <ele>197</ele>
        <time>2020-07-15T13:47:47Z</time>
      </trkpt>
      <trkpt lat="43.85085" lon="1.90429">
        <ele>196.8</ele>
        <time>2020-07-15T13:47:48Z</time>
      </trkpt>
      <trkpt lat="43.85089" lon="1.90425">
        <ele>196.8</ele>
        <time>2020-07-15T13:47:49Z</time>
      </trkpt>
      <trkpt lat="43.85094" lon="1.9042">
        <ele>196.6</ele>
        <time>2020-07-15T13:47:50Z</time>
      </trkpt>
      <trkpt lat="43.85099" lon="1.90415">
        <ele>196.4</ele>
        <time>2020-07-15T13:47:51Z</time>
      </trkpt>
      <trkpt lat="43.85104" lon="1.9041">
        <ele>196.2</ele>
        <time>2020-07-15T13:47:52Z</time>
      </trkpt>
      <trkpt lat="43.85109" lon="1.90405">
        <ele>196</ele>
        <time>2020-07-15T13:47:53Z</time>
      </trkpt>
      <trkpt lat="43.85113" lon="1.90399">
        <ele>195.8</ele>
        <time>2020-07-15T13:47:54Z</time>
      </trkpt>
      <trkpt lat="43.85117" lon="1.90392">
        <ele>195.6</ele>
        <time>2020-07-15T13:47:55Z</time>
      </trkpt>
      <trkpt lat="43.85121" lon="1.90386">
        <ele>195.4</ele>
        <time>2020-07-15T13:47:56Z</time>
      </trkpt>
      <trkpt lat="43.85124" lon="1.9038">
        <ele>195.2</ele>
        <time>2020-07-15T13:47:57Z</time>
      </trkpt>
      <trkpt lat="43.85127" lon="1.90372">
        <ele>195</ele>
        <time>2020-07-15T13:47:58Z</time>
      </trkpt>
      <trkpt lat="43.8513" lon="1.90365">
        <ele>194.8</ele>
        <time>2020-07-15T13:47:59Z</time>
      </trkpt>
      <trkpt lat="43.85134" lon="1.90358">
        <ele>194.6</ele>
        <time>2020-07-15T13:48:00Z</time>
      </trkpt>
      <trkpt lat="43.85138" lon="1.90352">
        <ele>194.6</ele>
        <time>2020-07-15T13:48:01Z</time>
      </trkpt>
      <trkpt lat="43.85143" lon="1.90346">
        <ele>194.6</ele>
        <time>2020-07-15T13:48:02Z</time>
      </trkpt>
      <trkpt lat="43.85149" lon="1.90341">
        <ele>194.6</ele>
        <time>2020-07-15T13:48:03Z</time>
      </trkpt>
      <trkpt lat="43.85154" lon="1.90336">
        <ele>194.4</ele>
        <time>2020-07-15T13:48:04Z</time>
      </trkpt>
      <trkpt lat="43.85159" lon="1.9033">
        <ele>194.4</ele>
        <time>2020-07-15T13:48:05Z</time>
      </trkpt>
      <trkpt lat="43.85164" lon="1.90323">
        <ele>194.2</ele>
        <time>2020-07-15T13:48:06Z</time>
      </trkpt>
      <trkpt lat="43.85169" lon="1.90316">
        <ele>194</ele>
        <time>2020-07-15T13:48:07Z</time>
      </trkpt>
      <trkpt lat="43.85174" lon="1.9031">
        <ele>194</ele>
        <time>2020-07-15T13:48:08Z</time>
      </trkpt>
      <trkpt lat="43.8518" lon="1.90304">
        <ele>193.8</ele>
        <time>2020-07-15T13:48:09Z</time>
      </trkpt>
      <trkpt lat="43.85185" lon="1.90298">
        <ele>193.8</ele>
        <time>2020-07-15T13:48:10Z</time>
      </trkpt>
      <trkpt lat="43.8519" lon="1.90292">
        <ele>193.6</ele>
        <time>2020-07-15T13:48:11Z</time>
      </trkpt>
      <trkpt lat="43.85196" lon="1.90286">
        <ele>193.6</ele>
        <time>2020-07-15T13:48:12Z</time>
      </trkpt>
      <trkpt lat="43.85201" lon="1.90281">
        <ele>193.4</ele>
        <time>2020-07-15T13:48:13Z</time>
      </trkpt>
      <trkpt lat="43.85206" lon="1.90275">
        <ele>193</ele>
        <time>2020-07-15T13:48:14Z</time>
      </trkpt>
      <trkpt lat="43.85212" lon="1.90269">
        <ele>192.8</ele>
        <time>2020-07-15T13:48:15Z</time>
      </trkpt>
      <trkpt lat="43.85217" lon="1.90264">
        <ele>192.6</ele>
        <time>2020-07-15T13:48:16Z</time>
      </trkpt>
      <trkpt lat="43.85222" lon="1.90259">
        <ele>192.4</ele>
        <time>2020-07-15T13:48:17Z</time>
      </trkpt>
      <trkpt lat="43.85228" lon="1.90254">
        <ele>192.2</ele>
        <time>2020-07-15T13:48:18Z</time>
      </trkpt>
      <trkpt lat="43.85232" lon="1.9025">
        <ele>192.2</ele>
        <time>2020-07-15T13:48:19Z</time>
      </trkpt>
      <trkpt lat="43.85238" lon="1.90245">
        <ele>192</ele>
        <time>2020-07-15T13:48:20Z</time>
      </trkpt>
      <trkpt lat="43.85242" lon="1.9024">
        <ele>192</ele>
        <time>2020-07-15T13:48:21Z</time>
      </trkpt>
      <trkpt lat="43.85247" lon="1.90236">
        <ele>192</ele>
        <time>2020-07-15T13:48:22Z</time>
      </trkpt>
      <trkpt lat="43.85252" lon="1.90231">
        <ele>192</ele>
        <time>2020-07-15T13:48:23Z</time>
      </trkpt>
      <trkpt lat="43.85257" lon="1.90227">
        <ele>192.2</ele>
        <time>2020-07-15T13:48:24Z</time>
      </trkpt>
      <trkpt lat="43.85262" lon="1.90223">
        <ele>192.2</ele>
        <time>2020-07-15T13:48:25Z</time>
      </trkpt>
      <trkpt lat="43.85266" lon="1.90219">
        <ele>192.4</ele>
        <time>2020-07-15T13:48:26Z</time>
      </trkpt>
      <trkpt lat="43.85271" lon="1.90215">
        <ele>192.4</ele>
        <time>2020-07-15T13:48:27Z</time>
      </trkpt>
      <trkpt lat="43.85275" lon="1.9021">
        <ele>192.4</ele>
        <time>2020-07-15T13:48:28Z</time>
      </trkpt>
      <trkpt lat="43.8528" lon="1.90206">
        <ele>192.4</ele>
        <time>2020-07-15T13:48:29Z</time>
      </trkpt>
      <trkpt lat="43.85284" lon="1.90202">
        <ele>192.4</ele>
        <time>2020-07-15T13:48:30Z</time>
      </trkpt>
      <trkpt lat="43.85289" lon="1.90197">
        <ele>192.4</ele>
        <time>2020-07-15T13:48:31Z</time>
      </trkpt>
      <trkpt lat="43.85293" lon="1.90193">
        <ele>192.4</ele>
        <time>2020-07-15T13:48:32Z</time>
      </trkpt>
      <trkpt lat="43.85298" lon="1.90188">
        <ele>192.6</ele>
        <time>2020-07-15T13:48:33Z</time>
      </trkpt>
      <trkpt lat="43.85303" lon="1.90184">
        <ele>192.8</ele>
        <time>2020-07-15T13:48:34Z</time>
      </trkpt>
      <trkpt lat="43.85307" lon="1.90179">
        <ele>192.8</ele>
        <time>2020-07-15T13:48:35Z</time>
      </trkpt>
      <trkpt lat="43.85312" lon="1.90174">
        <ele>193</ele>
        <time>2020-07-15T13:48:36Z</time>
      </trkpt>
      <trkpt lat="43.85317" lon="1.90169">
        <ele>193</ele>
        <time>2020-07-15T13:48:37Z</time>
      </trkpt>
      <trkpt lat="43.85321" lon="1.90164">
        <ele>192.8</ele>
        <time>2020-07-15T13:48:38Z</time>
      </trkpt>
      <trkpt lat="43.85326" lon="1.90159">
        <ele>192.8</ele>
        <time>2020-07-15T13:48:39Z</time>
      </trkpt>
      <trkpt lat="43.8533" lon="1.90154">
        <ele>192.8</ele>
        <time>2020-07-15T13:48:40Z</time>
      </trkpt>
      <trkpt lat="43.85335" lon="1.90149">
        <ele>192.6</ele>
        <time>2020-07-15T13:48:41Z</time>
      </trkpt>
      <trkpt lat="43.85339" lon="1.90145">
        <ele>192.6</ele>
        <time>2020-07-15T13:48:42Z</time>
      </trkpt>
      <trkpt lat="43.85344" lon="1.90141">
        <ele>192.4</ele>
        <time>2020-07-15T13:48:43Z</time>
      </trkpt>
      <trkpt lat="43.85349" lon="1.90137">
        <ele>192</ele>
        <time>2020-07-15T13:48:44Z</time>
      </trkpt>
      <trkpt lat="43.85355" lon="1.90133">
        <ele>191.8</ele>
        <time>2020-07-15T13:48:45Z</time>
      </trkpt>
      <trkpt lat="43.8536" lon="1.90129">
        <ele>191.6</ele>
        <time>2020-07-15T13:48:46Z</time>
      </trkpt>
      <trkpt lat="43.85367" lon="1.90126">
        <ele>191.2</ele>
        <time>2020-07-15T13:48:47Z</time>
      </trkpt>
      <trkpt lat="43.85373" lon="1.90122">
        <ele>191</ele>
        <time>2020-07-15T13:48:48Z</time>
      </trkpt>
      <trkpt lat="43.85379" lon="1.90117">
        <ele>190.6</ele>
        <time>2020-07-15T13:48:49Z</time>
      </trkpt>
      <trkpt lat="43.85386" lon="1.90113">
        <ele>190.4</ele>
        <time>2020-07-15T13:48:50Z</time>
      </trkpt>
      <trkpt lat="43.85392" lon="1.90107">
        <ele>190</ele>
        <time>2020-07-15T13:48:51Z</time>
      </trkpt>
      <trkpt lat="43.85399" lon="1.90102">
        <ele>189.6</ele>
        <time>2020-07-15T13:48:52Z</time>
      </trkpt>
      <trkpt lat="43.85404" lon="1.90095">
        <ele>189.2</ele>
        <time>2020-07-15T13:48:53Z</time>
      </trkpt>
      <trkpt lat="43.8541" lon="1.90088">
        <ele>189</ele>
        <time>2020-07-15T13:48:54Z</time>
      </trkpt>
      <trkpt lat="43.85415" lon="1.9008">
        <ele>188.8</ele>
        <time>2020-07-15T13:48:55Z</time>
      </trkpt>
      <trkpt lat="43.8542" lon="1.90072">
        <ele>188.6</ele>
        <time>2020-07-15T13:48:56Z</time>
      </trkpt>
      <trkpt lat="43.85425" lon="1.90064">
        <ele>188.4</ele>
        <time>2020-07-15T13:48:57Z</time>
      </trkpt>
      <trkpt lat="43.8543" lon="1.90056">
        <ele>188</ele>
        <time>2020-07-15T13:48:58Z</time>
      </trkpt>
      <trkpt lat="43.85435" lon="1.90049">
        <ele>187.8</ele>
        <time>2020-07-15T13:48:59Z</time>
      </trkpt>
      <trkpt lat="43.8544" lon="1.90041">
        <ele>187.4</ele>
        <time>2020-07-15T13:49:00Z</time>
      </trkpt>
      <trkpt lat="43.85444" lon="1.90033">
        <ele>187.2</ele>
        <time>2020-07-15T13:49:01Z</time>
      </trkpt>
      <trkpt lat="43.85449" lon="1.90025">
        <ele>187</ele>
        <time>2020-07-15T13:49:02Z</time>
      </trkpt>
      <trkpt lat="43.85453" lon="1.90017">
        <ele>186.8</ele>
        <time>2020-07-15T13:49:03Z</time>
      </trkpt>
      <trkpt lat="43.85457" lon="1.90009">
        <ele>186.6</ele>
        <time>2020-07-15T13:49:04Z</time>
      </trkpt>
      <trkpt lat="43.8546" lon="1.90001">
        <ele>186.6</ele>
        <time>2020-07-15T13:49:05Z</time>
      </trkpt>
      <trkpt lat="43.85463" lon="1.89994">
        <ele>186.4</ele>
        <time>2020-07-15T13:49:06Z</time>
      </trkpt>
      <trkpt lat="43.85466" lon="1.89987">
        <ele>186.4</ele>
        <time>2020-07-15T13:49:07Z</time>
      </trkpt>
      <trkpt lat="43.85469" lon="1.8998">
        <ele>186.2</ele>
        <time>2020-07-15T13:49:08Z</time>
      </trkpt>
      <trkpt lat="43.85471" lon="1.89973">
        <ele>186</ele>
        <time>2020-07-15T13:49:09Z</time>
      </trkpt>
      <trkpt lat="43.85474" lon="1.89966">
        <ele>186</ele>
        <time>2020-07-15T13:49:10Z</time>
      </trkpt>
      <trkpt lat="43.85477" lon="1.89958">
        <ele>186</ele>
        <time>2020-07-15T13:49:11Z</time>
      </trkpt>
      <trkpt lat="43.85479" lon="1.89951">
        <ele>186</ele>
        <time>2020-07-15T13:49:12Z</time>
      </trkpt>
      <trkpt lat="43.85481" lon="1.89944">
        <ele>186</ele>
        <time>2020-07-15T13:49:13Z</time>
      </trkpt>
      <trkpt lat="43.85482" lon="1.89936">
        <ele>186</ele>
        <time>2020-07-15T13:49:14Z</time>
      </trkpt>
      <trkpt lat="43.85484" lon="1.89929">
        <ele>186.2</ele>
        <time>2020-07-15T13:49:15Z</time>
      </trkpt>
      <trkpt lat="43.85485" lon="1.89923">
        <ele>186.2</ele>
        <time>2020-07-15T13:49:16Z</time>
      </trkpt>
      <trkpt lat="43.85487" lon="1.89916">
        <ele>186.2</ele>
        <time>2020-07-15T13:49:17Z</time>
      </trkpt>
      <trkpt lat="43.85489" lon="1.89909">
        <ele>186.4</ele>
        <time>2020-07-15T13:49:18Z</time>
      </trkpt>
      <trkpt lat="43.8549" lon="1.89903">
        <ele>186.4</ele>
        <time>2020-07-15T13:49:19Z</time>
      </trkpt>
      <trkpt lat="43.85493" lon="1.89896">
        <ele>186.4</ele>
        <time>2020-07-15T13:49:20Z</time>
      </trkpt>
      <trkpt lat="43.85497" lon="1.89889">
        <ele>186.2</ele>
        <time>2020-07-15T13:49:21Z</time>
      </trkpt>
      <trkpt lat="43.855" lon="1.89882">
        <ele>186</ele>
        <time>2020-07-15T13:49:22Z</time>
      </trkpt>
      <trkpt lat="43.85504" lon="1.89875">
        <ele>185.8</ele>
        <time>2020-07-15T13:49:23Z</time>
      </trkpt>
      <trkpt lat="43.85508" lon="1.89868">
        <ele>185.6</ele>
        <time>2020-07-15T13:49:24Z</time>
      </trkpt>
      <trkpt lat="43.85512" lon="1.89861">
        <ele>185.4</ele>
        <time>2020-07-15T13:49:25Z</time>
      </trkpt>
      <trkpt lat="43.85517" lon="1.89855">
        <ele>185.2</ele>
        <time>2020-07-15T13:49:26Z</time>
      </trkpt>
      <trkpt lat="43.85522" lon="1.89849">
        <ele>184.8</ele>
        <time>2020-07-15T13:49:27Z</time>
      </trkpt>
      <trkpt lat="43.85527" lon="1.89843">
        <ele>184.6</ele>
        <time>2020-07-15T13:49:28Z</time>
      </trkpt>
      <trkpt lat="43.85532" lon="1.89837">
        <ele>184.2</ele>
        <time>2020-07-15T13:49:29Z</time>
      </trkpt>
      <trkpt lat="43.85537" lon="1.89831">
        <ele>184</ele>
        <time>2020-07-15T13:49:30Z</time>
      </trkpt>
      <trkpt lat="43.85543" lon="1.89825">
        <ele>183.8</ele>
        <time>2020-07-15T13:49:31Z</time>
      </trkpt>
      <trkpt lat="43.85548" lon="1.8982">
        <ele>183.6</ele>
        <time>2020-07-15T13:49:32Z</time>
      </trkpt>
      <trkpt lat="43.85554" lon="1.89815">
        <ele>183.4</ele>
        <time>2020-07-15T13:49:33Z</time>
      </trkpt>
      <trkpt lat="43.8556" lon="1.8981">
        <ele>183.2</ele>
        <time>2020-07-15T13:49:34Z</time>
      </trkpt>
      <trkpt lat="43.85566" lon="1.89805">
        <ele>182.8</ele>
        <time>2020-07-15T13:49:35Z</time>
      </trkpt>
      <trkpt lat="43.85572" lon="1.898">
        <ele>182.6</ele>
        <time>2020-07-15T13:49:36Z</time>
      </trkpt>
      <trkpt lat="43.85578" lon="1.89796">
        <ele>182.2</ele>
        <time>2020-07-15T13:49:37Z</time>
      </trkpt>
      <trkpt lat="43.85585" lon="1.89791">
        <ele>182</ele>
        <time>2020-07-15T13:49:38Z</time>
      </trkpt>
      <trkpt lat="43.8559" lon="1.89786">
        <ele>181.6</ele>
        <time>2020-07-15T13:49:39Z</time>
      </trkpt>
      <trkpt lat="43.85597" lon="1.89782">
        <ele>181.4</ele>
        <time>2020-07-15T13:49:40Z</time>
      </trkpt>
      <trkpt lat="43.85603" lon="1.89778">
        <ele>181</ele>
        <time>2020-07-15T13:49:41Z</time>
      </trkpt>
      <trkpt lat="43.85609" lon="1.89773">
        <ele>180.6</ele>
        <time>2020-07-15T13:49:42Z</time>
      </trkpt>
      <trkpt lat="43.85616" lon="1.89768">
        <ele>180.2</ele>
        <time>2020-07-15T13:49:43Z</time>
      </trkpt>
      <trkpt lat="43.85622" lon="1.89762">
        <ele>179.8</ele>
        <time>2020-07-15T13:49:44Z</time>
      </trkpt>
      <trkpt lat="43.85629" lon="1.89758">
        <ele>179.2</ele>
        <time>2020-07-15T13:49:45Z</time>
      </trkpt>
      <trkpt lat="43.85635" lon="1.89753">
        <ele>178.6</ele>
        <time>2020-07-15T13:49:46Z</time>
      </trkpt>
      <trkpt lat="43.8564" lon="1.89749">
        <ele>178</ele>
        <time>2020-07-15T13:49:47Z</time>
      </trkpt>
      <trkpt lat="43.85646" lon="1.89746">
        <ele>177.4</ele>
        <time>2020-07-15T13:49:48Z</time>
      </trkpt>
      <trkpt lat="43.85652" lon="1.89745">
        <ele>177</ele>
        <time>2020-07-15T13:49:49Z</time>
      </trkpt>
      <trkpt lat="43.85659" lon="1.89745">
        <ele>176.6</ele>
        <time>2020-07-15T13:49:50Z</time>
      </trkpt>
      <trkpt lat="43.85665" lon="1.89745">
        <ele>176.2</ele>
        <time>2020-07-15T13:49:51Z</time>
      </trkpt>
      <trkpt lat="43.85672" lon="1.89746">
        <ele>175.8</ele>
        <time>2020-07-15T13:49:52Z</time>
      </trkpt>
      <trkpt lat="43.8568" lon="1.89747">
        <ele>175.2</ele>
        <time>2020-07-15T13:49:53Z</time>
      </trkpt>
      <trkpt lat="43.85687" lon="1.89749">
        <ele>174.6</ele>
        <time>2020-07-15T13:49:54Z</time>
      </trkpt>
      <trkpt lat="43.85696" lon="1.89751">
        <ele>173.8</ele>
        <time>2020-07-15T13:49:55Z</time>
      </trkpt>
      <trkpt lat="43.85704" lon="1.89753">
        <ele>173</ele>
        <time>2020-07-15T13:49:56Z</time>
      </trkpt>
      <trkpt lat="43.85712" lon="1.89757">
        <ele>172.4</ele>
        <time>2020-07-15T13:49:57Z</time>
      </trkpt>
      <trkpt lat="43.85721" lon="1.89761">
        <ele>171.6</ele>
        <time>2020-07-15T13:49:58Z</time>
      </trkpt>
      <trkpt lat="43.8573" lon="1.89764">
        <ele>170.8</ele>
        <time>2020-07-15T13:49:59Z</time>
      </trkpt>
      <trkpt lat="43.85738" lon="1.89769">
        <ele>170</ele>
        <time>2020-07-15T13:50:00Z</time>
      </trkpt>
      <trkpt lat="43.85746" lon="1.89774">
        <ele>169.2</ele>
        <time>2020-07-15T13:50:01Z</time>
      </trkpt>
      <trkpt lat="43.85754" lon="1.8978">
        <ele>168.4</ele>
        <time>2020-07-15T13:50:02Z</time>
      </trkpt>
      <trkpt lat="43.85762" lon="1.89786">
        <ele>167.4</ele>
        <time>2020-07-15T13:50:03Z</time>
      </trkpt>
      <trkpt lat="43.85769" lon="1.89793">
        <ele>166.6</ele>
        <time>2020-07-15T13:50:04Z</time>
      </trkpt>
      <trkpt lat="43.85777" lon="1.89801">
        <ele>165.8</ele>
        <time>2020-07-15T13:50:05Z</time>
      </trkpt>
      <trkpt lat="43.85785" lon="1.89809">
        <ele>164.8</ele>
        <time>2020-07-15T13:50:06Z</time>
      </trkpt>
      <trkpt lat="43.85791" lon="1.89816">
        <ele>164.2</ele>
        <time>2020-07-15T13:50:07Z</time>
      </trkpt>
      <trkpt lat="43.85796" lon="1.89822">
        <ele>163.6</ele>
        <time>2020-07-15T13:50:08Z</time>
      </trkpt>
      <trkpt lat="43.85801" lon="1.89828">
        <ele>163.2</ele>
        <time>2020-07-15T13:50:09Z</time>
      </trkpt>
      <trkpt lat="43.85805" lon="1.89832">
        <ele>162.8</ele>
        <time>2020-07-15T13:50:10Z</time>
      </trkpt>
      <trkpt lat="43.85808" lon="1.89836">
        <ele>162.4</ele>
        <time>2020-07-15T13:50:11Z</time>
      </trkpt>
      <trkpt lat="43.85811" lon="1.89839">
        <ele>162.2</ele>
        <time>2020-07-15T13:50:12Z</time>
      </trkpt>
      <trkpt lat="43.85812" lon="1.8984">
        <ele>161.8</ele>
        <time>2020-07-15T13:50:13Z</time>
      </trkpt>
      <trkpt lat="43.85814" lon="1.89841">
        <ele>161.6</ele>
        <time>2020-07-15T13:50:14Z</time>
      </trkpt>
      <trkpt lat="43.85816" lon="1.89842">
        <ele>161.4</ele>
        <time>2020-07-15T13:50:15Z</time>
      </trkpt>
      <trkpt lat="43.85818" lon="1.89842">
        <ele>161.2</ele>
        <time>2020-07-15T13:50:16Z</time>
      </trkpt>
      <trkpt lat="43.8582" lon="1.89842">
        <ele>161</ele>
        <time>2020-07-15T13:50:17Z</time>
      </trkpt>
      <trkpt lat="43.85821" lon="1.89841">
        <ele>160.8</ele>
        <time>2020-07-15T13:50:18Z</time>
      </trkpt>
      <trkpt lat="43.85822" lon="1.8984">
        <ele>160.6</ele>
        <time>2020-07-15T13:50:19Z</time>
      </trkpt>
      <trkpt lat="43.85823" lon="1.89838">
        <ele>160.4</ele>
        <time>2020-07-15T13:50:20Z</time>
      </trkpt>
      <trkpt lat="43.85823" lon="1.89837">
        <ele>160.2</ele>
        <time>2020-07-15T13:50:21Z</time>
      </trkpt>
      <trkpt lat="43.85823" lon="1.89835">
        <ele>160</ele>
        <time>2020-07-15T13:50:22Z</time>
      </trkpt>
      <trkpt lat="43.85824" lon="1.89833">
        <ele>159.8</ele>
        <time>2020-07-15T13:50:23Z</time>
      </trkpt>
      <trkpt lat="43.85824" lon="1.89831">
        <ele>159.8</ele>
        <time>2020-07-15T13:50:24Z</time>
      </trkpt>
      <trkpt lat="43.85824" lon="1.89828">
        <ele>159.6</ele>
        <time>2020-07-15T13:50:25Z</time>
      </trkpt>
      <trkpt lat="43.85825" lon="1.89824">
        <ele>159.6</ele>
        <time>2020-07-15T13:50:26Z</time>
      </trkpt>
      <trkpt lat="43.85827" lon="1.89819">
        <ele>159.4</ele>
        <time>2020-07-15T13:50:27Z</time>
      </trkpt>
      <trkpt lat="43.85829" lon="1.89815">
        <ele>159.2</ele>
        <time>2020-07-15T13:50:28Z</time>
      </trkpt>
      <trkpt lat="43.85831" lon="1.8981">
        <ele>159</ele>
        <time>2020-07-15T13:50:29Z</time>
      </trkpt>
      <trkpt lat="43.85834" lon="1.89805">
        <ele>158.8</ele>
        <time>2020-07-15T13:50:30Z</time>
      </trkpt>
      <trkpt lat="43.85836" lon="1.898">
        <ele>158.6</ele>
        <time>2020-07-15T13:50:31Z</time>
      </trkpt>
      <trkpt lat="43.85838" lon="1.89796">
        <ele>158.4</ele>
        <time>2020-07-15T13:50:32Z</time>
      </trkpt>
      <trkpt lat="43.8584" lon="1.89793">
        <ele>158.2</ele>
        <time>2020-07-15T13:50:33Z</time>
      </trkpt>
      <trkpt lat="43.85842" lon="1.89789">
        <ele>157.8</ele>
        <time>2020-07-15T13:50:34Z</time>
      </trkpt>
      <trkpt lat="43.85844" lon="1.89786">
        <ele>157.6</ele>
        <time>2020-07-15T13:50:35Z</time>
      </trkpt>
      <trkpt lat="43.85846" lon="1.89783">
        <ele>157.2</ele>
        <time>2020-07-15T13:50:36Z</time>
      </trkpt>
      <trkpt lat="43.85847" lon="1.89781">
        <ele>156.8</ele>
        <time>2020-07-15T13:50:37Z</time>
      </trkpt>
      <trkpt lat="43.85848" lon="1.89778">
        <ele>156.2</ele>
        <time>2020-07-15T13:50:38Z</time>
      </trkpt>
      <trkpt lat="43.85849" lon="1.89775">
        <ele>155.8</ele>
        <time>2020-07-15T13:50:39Z</time>
      </trkpt>
      <trkpt lat="43.85849" lon="1.89772">
        <ele>155.2</ele>
        <time>2020-07-15T13:50:40Z</time>
      </trkpt>
      <trkpt lat="43.8585" lon="1.89769">
        <ele>154.8</ele>
        <time>2020-07-15T13:50:41Z</time>
      </trkpt>
      <trkpt lat="43.8585" lon="1.89767">
        <ele>154.6</ele>
        <time>2020-07-15T13:50:42Z</time>
      </trkpt>
      <trkpt lat="43.8585" lon="1.89765">
        <ele>154.6</ele>
        <time>2020-07-15T13:50:43Z</time>
      </trkpt>
      <trkpt lat="43.85851" lon="1.89763">
        <ele>154.6</ele>
        <time>2020-07-15T13:50:44Z</time>
      </trkpt>
      <trkpt lat="43.85852" lon="1.89761">
        <ele>154.6</ele>
        <time>2020-07-15T13:50:45Z</time>
      </trkpt>
      <trkpt lat="43.85852" lon="1.89759">
        <ele>154.8</ele>
        <time>2020-07-15T13:50:46Z</time>
      </trkpt>
      <trkpt lat="43.85852" lon="1.89756">
        <ele>155.2</ele>
        <time>2020-07-15T13:50:47Z</time>
      </trkpt>
      <trkpt lat="43.85853" lon="1.89753">
        <ele>155.4</ele>
        <time>2020-07-15T13:50:48Z</time>
      </trkpt>
      <trkpt lat="43.85854" lon="1.89749">
        <ele>155.6</ele>
        <time>2020-07-15T13:50:49Z</time>
      </trkpt>
      <trkpt lat="43.85855" lon="1.89746">
        <ele>155.6</ele>
        <time>2020-07-15T13:50:50Z</time>
      </trkpt>
      <trkpt lat="43.85853" lon="1.89737">
        <ele>155.8</ele>
        <time>2020-07-15T13:50:51Z</time>
      </trkpt>
      <trkpt lat="43.85855" lon="1.89733">
        <ele>156</ele>
        <time>2020-07-15T13:50:52Z</time>
      </trkpt>
      <trkpt lat="43.85856" lon="1.89731">
        <ele>156.4</ele>
        <time>2020-07-15T13:50:53Z</time>
      </trkpt>
      <trkpt lat="43.85857" lon="1.8973">
        <ele>156.6</ele>
        <time>2020-07-15T13:50:54Z</time>
      </trkpt>
      <trkpt lat="43.85857" lon="1.8973">
        <ele>156.8</ele>
        <time>2020-07-15T13:50:55Z</time>
      </trkpt>
      <trkpt lat="43.85857" lon="1.8973">
        <ele>157.2</ele>
        <time>2020-07-15T13:50:56Z</time>
      </trkpt>
      <trkpt lat="43.85857" lon="1.8973">
        <ele>157.4</ele>
        <time>2020-07-15T13:50:57Z</time>
      </trkpt>
      <trkpt lat="43.85857" lon="1.89732">
        <ele>157.6</ele>
        <time>2020-07-15T13:50:58Z</time>
      </trkpt>
      <trkpt lat="43.85858" lon="1.89733">
        <ele>158</ele>
        <time>2020-07-15T13:50:59Z</time>
      </trkpt>
      <trkpt lat="43.85858" lon="1.89734">
        <ele>158.2</ele>
        <time>2020-07-15T13:51:00Z</time>
      </trkpt>
      <trkpt lat="43.85859" lon="1.89735">
        <ele>158.4</ele>
        <time>2020-07-15T13:51:01Z</time>
      </trkpt>
      <trkpt lat="43.8586" lon="1.89736">
        <ele>158.6</ele>
        <time>2020-07-15T13:51:02Z</time>
      </trkpt>
      <trkpt lat="43.8586" lon="1.89738">
        <ele>158.8</ele>
        <time>2020-07-15T13:51:03Z</time>
      </trkpt>
      <trkpt lat="43.8586" lon="1.89739">
        <ele>158.8</ele>
        <time>2020-07-15T13:51:04Z</time>
      </trkpt>
      <trkpt lat="43.85861" lon="1.89742">
        <ele>159</ele>
        <time>2020-07-15T13:51:05Z</time>
      </trkpt>
      <trkpt lat="43.85861" lon="1.89744">
        <ele>159</ele>
        <time>2020-07-15T13:51:06Z</time>
      </trkpt>
      <trkpt lat="43.85862" lon="1.89748">
        <ele>158.8</ele>
        <time>2020-07-15T13:51:07Z</time>
      </trkpt>
      <trkpt lat="43.85862" lon="1.89752">
        <ele>158.8</ele>
        <time>2020-07-15T13:51:08Z</time>
      </trkpt>
      <trkpt lat="43.85862" lon="1.89756">
        <ele>158.6</ele>
        <time>2020-07-15T13:51:09Z</time>
      </trkpt>
      <trkpt lat="43.85863" lon="1.89761">
        <ele>158.4</ele>
        <time>2020-07-15T13:51:10Z</time>
      </trkpt>
      <trkpt lat="43.85864" lon="1.89767">
        <ele>158.2</ele>
        <time>2020-07-15T13:51:11Z</time>
      </trkpt>
      <trkpt lat="43.85864" lon="1.89772">
        <ele>158</ele>
        <time>2020-07-15T13:51:12Z</time>
      </trkpt>
      <trkpt lat="43.85864" lon="1.89777">
        <ele>157.6</ele>
        <time>2020-07-15T13:51:13Z</time>
      </trkpt>
      <trkpt lat="43.85863" lon="1.89784">
        <ele>157</ele>
        <time>2020-07-15T13:51:14Z</time>
      </trkpt>
      <trkpt lat="43.85862" lon="1.89791">
        <ele>156.6</ele>
        <time>2020-07-15T13:51:15Z</time>
      </trkpt>
      <trkpt lat="43.85861" lon="1.89799">
        <ele>156.2</ele>
        <time>2020-07-15T13:51:16Z</time>
      </trkpt>
      <trkpt lat="43.8586" lon="1.89807">
        <ele>155.8</ele>
        <time>2020-07-15T13:51:17Z</time>
      </trkpt>
      <trkpt lat="43.85858" lon="1.89814">
        <ele>155.8</ele>
        <time>2020-07-15T13:51:18Z</time>
      </trkpt>
      <trkpt lat="43.85858" lon="1.89821">
        <ele>155.8</ele>
        <time>2020-07-15T13:51:19Z</time>
      </trkpt>
      <trkpt lat="43.85857" lon="1.89826">
        <ele>156</ele>
        <time>2020-07-15T13:51:20Z</time>
      </trkpt>
      <trkpt lat="43.85857" lon="1.89832">
        <ele>156.2</ele>
        <time>2020-07-15T13:51:21Z</time>
      </trkpt>
      <trkpt lat="43.85856" lon="1.89838">
        <ele>156.4</ele>
        <time>2020-07-15T13:51:22Z</time>
      </trkpt>
      <trkpt lat="43.85856" lon="1.89844">
        <ele>156.4</ele>
        <time>2020-07-15T13:51:23Z</time>
      </trkpt>
      <trkpt lat="43.85856" lon="1.8985">
        <ele>156.6</ele>
        <time>2020-07-15T13:51:24Z</time>
      </trkpt>
      <trkpt lat="43.85856" lon="1.89855">
        <ele>156.8</ele>
        <time>2020-07-15T13:51:25Z</time>
      </trkpt>
      <trkpt lat="43.85856" lon="1.8986">
        <ele>157</ele>
        <time>2020-07-15T13:51:26Z</time>
      </trkpt>
      <trkpt lat="43.85855" lon="1.89864">
        <ele>157.2</ele>
        <time>2020-07-15T13:51:27Z</time>
      </trkpt>
      <trkpt lat="43.85854" lon="1.89868">
        <ele>157.4</ele>
        <time>2020-07-15T13:51:28Z</time>
      </trkpt>
      <trkpt lat="43.85852" lon="1.89874">
        <ele>157.6</ele>
        <time>2020-07-15T13:51:29Z</time>
      </trkpt>
      <trkpt lat="43.85852" lon="1.89879">
        <ele>158</ele>
        <time>2020-07-15T13:51:30Z</time>
      </trkpt>
      <trkpt lat="43.85851" lon="1.89883">
        <ele>158.2</ele>
        <time>2020-07-15T13:51:31Z</time>
      </trkpt>
      <trkpt lat="43.8585" lon="1.89888">
        <ele>158.2</ele>
        <time>2020-07-15T13:51:32Z</time>
      </trkpt>
      <trkpt lat="43.8585" lon="1.89894">
        <ele>158.4</ele>
        <time>2020-07-15T13:51:33Z</time>
      </trkpt>
      <trkpt lat="43.85849" lon="1.89899">
        <ele>158.6</ele>
        <time>2020-07-15T13:51:34Z</time>
      </trkpt>
      <trkpt lat="43.85849" lon="1.89903">
        <ele>158.8</ele>
        <time>2020-07-15T13:51:35Z</time>
      </trkpt>
      <trkpt lat="43.8585" lon="1.89907">
        <ele>158.8</ele>
        <time>2020-07-15T13:51:36Z</time>
      </trkpt>
      <trkpt lat="43.85851" lon="1.89911">
        <ele>159</ele>
        <time>2020-07-15T13:51:37Z</time>
      </trkpt>
      <trkpt lat="43.85852" lon="1.89916">
        <ele>159.2</ele>
        <time>2020-07-15T13:51:38Z</time>
      </trkpt>
      <trkpt lat="43.85853" lon="1.8992">
        <ele>159.4</ele>
        <time>2020-07-15T13:51:39Z</time>
      </trkpt>
      <trkpt lat="43.85854" lon="1.89924">
        <ele>159.6</ele>
        <time>2020-07-15T13:51:40Z</time>
      </trkpt>
      <trkpt lat="43.85855" lon="1.89928">
        <ele>159.8</ele>
        <time>2020-07-15T13:51:41Z</time>
      </trkpt>
      <trkpt lat="43.85855" lon="1.89933">
        <ele>160</ele>
        <time>2020-07-15T13:51:42Z</time>
      </trkpt>
      <trkpt lat="43.85856" lon="1.89938">
        <ele>160.4</ele>
        <time>2020-07-15T13:51:43Z</time>
      </trkpt>
      <trkpt lat="43.85857" lon="1.89942">
        <ele>160.6</ele>
        <time>2020-07-15T13:51:44Z</time>
      </trkpt>
      <trkpt lat="43.85858" lon="1.89945">
        <ele>161</ele>
        <time>2020-07-15T13:51:45Z</time>
      </trkpt>
      <trkpt lat="43.85858" lon="1.8995">
        <ele>161.2</ele>
        <time>2020-07-15T13:51:46Z</time>
      </trkpt>
      <trkpt lat="43.85859" lon="1.89955">
        <ele>161.4</ele>
        <time>2020-07-15T13:51:47Z</time>
      </trkpt>
      <trkpt lat="43.8586" lon="1.89961">
        <ele>161.4</ele>
        <time>2020-07-15T13:51:48Z</time>
      </trkpt>
      <trkpt lat="43.8586" lon="1.89967">
        <ele>161.4</ele>
        <time>2020-07-15T13:51:49Z</time>
      </trkpt>
      <trkpt lat="43.85859" lon="1.89974">
        <ele>161.4</ele>
        <time>2020-07-15T13:51:50Z</time>
      </trkpt>
      <trkpt lat="43.85859" lon="1.89981">
        <ele>161.4</ele>
        <time>2020-07-15T13:51:51Z</time>
      </trkpt>
      <trkpt lat="43.8586" lon="1.89988">
        <ele>161.4</ele>
        <time>2020-07-15T13:51:52Z</time>
      </trkpt>
      <trkpt lat="43.8586" lon="1.89995">
        <ele>161.6</ele>
        <time>2020-07-15T13:51:53Z</time>
      </trkpt>
      <trkpt lat="43.85861" lon="1.90001">
        <ele>161.6</ele>
        <time>2020-07-15T13:51:54Z</time>
      </trkpt>
      <trkpt lat="43.85862" lon="1.90007">
        <ele>161.8</ele>
        <time>2020-07-15T13:51:55Z</time>
      </trkpt>
      <trkpt lat="43.85863" lon="1.90014">
        <ele>162</ele>
        <time>2020-07-15T13:51:56Z</time>
      </trkpt>
      <trkpt lat="43.85863" lon="1.9002">
        <ele>162</ele>
        <time>2020-07-15T13:51:57Z</time>
      </trkpt>
      <trkpt lat="43.85863" lon="1.90025">
        <ele>162</ele>
        <time>2020-07-15T13:51:58Z</time>
      </trkpt>
      <trkpt lat="43.85863" lon="1.90031">
        <ele>162</ele>
        <time>2020-07-15T13:51:59Z</time>
      </trkpt>
      <trkpt lat="43.85862" lon="1.90037">
        <ele>162</ele>
        <time>2020-07-15T13:52:00Z</time>
      </trkpt>
      <trkpt lat="43.85861" lon="1.90043">
        <ele>162</ele>
        <time>2020-07-15T13:52:01Z</time>
      </trkpt>
      <trkpt lat="43.8586" lon="1.90049">
        <ele>162.2</ele>
        <time>2020-07-15T13:52:02Z</time>
      </trkpt>
      <trkpt lat="43.85859" lon="1.90056">
        <ele>162.4</ele>
        <time>2020-07-15T13:52:03Z</time>
      </trkpt>
      <trkpt lat="43.85858" lon="1.90061">
        <ele>162.6</ele>
        <time>2020-07-15T13:52:04Z</time>
      </trkpt>
      <trkpt lat="43.85856" lon="1.90067">
        <ele>162.8</ele>
        <time>2020-07-15T13:52:05Z</time>
      </trkpt>
      <trkpt lat="43.85855" lon="1.90074">
        <ele>163</ele>
        <time>2020-07-15T13:52:06Z</time>
      </trkpt>
      <trkpt lat="43.85853" lon="1.9008">
        <ele>163.2</ele>
        <time>2020-07-15T13:52:07Z</time>
      </trkpt>
      <trkpt lat="43.85851" lon="1.90086">
        <ele>163.6</ele>
        <time>2020-07-15T13:52:08Z</time>
      </trkpt>
      <trkpt lat="43.85849" lon="1.90092">
        <ele>163.6</ele>
        <time>2020-07-15T13:52:09Z</time>
      </trkpt>
      <trkpt lat="43.85846" lon="1.90098">
        <ele>163.8</ele>
        <time>2020-07-15T13:52:10Z</time>
      </trkpt>
      <trkpt lat="43.85844" lon="1.90104">
        <ele>163.8</ele>
        <time>2020-07-15T13:52:11Z</time>
      </trkpt>
      <trkpt lat="43.85842" lon="1.90112">
        <ele>163.8</ele>
        <time>2020-07-15T13:52:12Z</time>
      </trkpt>
      <trkpt lat="43.8584" lon="1.9012">
        <ele>163.8</ele>
        <time>2020-07-15T13:52:13Z</time>
      </trkpt>
      <trkpt lat="43.85838" lon="1.90127">
        <ele>163.6</ele>
        <time>2020-07-15T13:52:14Z</time>
      </trkpt>
      <trkpt lat="43.85836" lon="1.90134">
        <ele>163.6</ele>
        <time>2020-07-15T13:52:15Z</time>
      </trkpt>
      <trkpt lat="43.85833" lon="1.90141">
        <ele>163.8</ele>
        <time>2020-07-15T13:52:16Z</time>
      </trkpt>
      <trkpt lat="43.8583" lon="1.90149">
        <ele>163.8</ele>
        <time>2020-07-15T13:52:17Z</time>
      </trkpt>
      <trkpt lat="43.85828" lon="1.90156">
        <ele>164.2</ele>
        <time>2020-07-15T13:52:18Z</time>
      </trkpt>
      <trkpt lat="43.85827" lon="1.90162">
        <ele>164.4</ele>
        <time>2020-07-15T13:52:19Z</time>
      </trkpt>
      <trkpt lat="43.85826" lon="1.90168">
        <ele>164.6</ele>
        <time>2020-07-15T13:52:20Z</time>
      </trkpt>
      <trkpt lat="43.85825" lon="1.90174">
        <ele>164.6</ele>
        <time>2020-07-15T13:52:21Z</time>
      </trkpt>
      <trkpt lat="43.85824" lon="1.90181">
        <ele>164.6</ele>
        <time>2020-07-15T13:52:22Z</time>
      </trkpt>
      <trkpt lat="43.85823" lon="1.90188">
        <ele>164.6</ele>
        <time>2020-07-15T13:52:23Z</time>
      </trkpt>
      <trkpt lat="43.85822" lon="1.90194">
        <ele>164.6</ele>
        <time>2020-07-15T13:52:24Z</time>
      </trkpt>
      <trkpt lat="43.85822" lon="1.90199">
        <ele>164.6</ele>
        <time>2020-07-15T13:52:25Z</time>
      </trkpt>
      <trkpt lat="43.85821" lon="1.90203">
        <ele>164.6</ele>
        <time>2020-07-15T13:52:26Z</time>
      </trkpt>
      <trkpt lat="43.85822" lon="1.90207">
        <ele>164.6</ele>
        <time>2020-07-15T13:52:27Z</time>
      </trkpt>
      <trkpt lat="43.85822" lon="1.9021">
        <ele>164.8</ele>
        <time>2020-07-15T13:52:28Z</time>
      </trkpt>
      <trkpt lat="43.85822" lon="1.90213">
        <ele>164.8</ele>
        <time>2020-07-15T13:52:29Z</time>
      </trkpt>
      <trkpt lat="43.85821" lon="1.90217">
        <ele>165</ele>
        <time>2020-07-15T13:52:30Z</time>
      </trkpt>
      <trkpt lat="43.85822" lon="1.90219">
        <ele>165.2</ele>
        <time>2020-07-15T13:52:31Z</time>
      </trkpt>
      <trkpt lat="43.85817" lon="1.90231">
        <ele>165.8</ele>
        <time>2020-07-15T13:53:15Z</time>
      </trkpt>
      <trkpt lat="43.85816" lon="1.90236">
        <ele>165.6</ele>
        <time>2020-07-15T13:53:16Z</time>
      </trkpt>
      <trkpt lat="43.85816" lon="1.9024">
        <ele>165.6</ele>
        <time>2020-07-15T13:53:17Z</time>
      </trkpt>
      <trkpt lat="43.85815" lon="1.90244">
        <ele>165.6</ele>
        <time>2020-07-15T13:53:18Z</time>
      </trkpt>
      <trkpt lat="43.85814" lon="1.90247">
        <ele>165.4</ele>
        <time>2020-07-15T13:53:19Z</time>
      </trkpt>
      <trkpt lat="43.85812" lon="1.90249">
        <ele>165.2</ele>
        <time>2020-07-15T13:53:20Z</time>
      </trkpt>
      <trkpt lat="43.85811" lon="1.90252">
        <ele>165.2</ele>
        <time>2020-07-15T13:53:21Z</time>
      </trkpt>
      <trkpt lat="43.8581" lon="1.90256">
        <ele>165</ele>
        <time>2020-07-15T13:53:22Z</time>
      </trkpt>
      <trkpt lat="43.85809" lon="1.90259">
        <ele>164.8</ele>
        <time>2020-07-15T13:53:23Z</time>
      </trkpt>
      <trkpt lat="43.85808" lon="1.90263">
        <ele>164.4</ele>
        <time>2020-07-15T13:53:24Z</time>
      </trkpt>
      <trkpt lat="43.85807" lon="1.90268">
        <ele>164.2</ele>
        <time>2020-07-15T13:53:25Z</time>
      </trkpt>
      <trkpt lat="43.85805" lon="1.90272">
        <ele>164</ele>
        <time>2020-07-15T13:53:26Z</time>
      </trkpt>
      <trkpt lat="43.85804" lon="1.90277">
        <ele>164</ele>
        <time>2020-07-15T13:53:27Z</time>
      </trkpt>
      <trkpt lat="43.85803" lon="1.90281">
        <ele>163.8</ele>
        <time>2020-07-15T13:53:28Z</time>
      </trkpt>
      <trkpt lat="43.85801" lon="1.90287">
        <ele>163.6</ele>
        <time>2020-07-15T13:53:29Z</time>
      </trkpt>
      <trkpt lat="43.858" lon="1.90291">
        <ele>163.6</ele>
        <time>2020-07-15T13:53:30Z</time>
      </trkpt>
      <trkpt lat="43.85798" lon="1.90296">
        <ele>163.6</ele>
        <time>2020-07-15T13:53:31Z</time>
      </trkpt>
      <trkpt lat="43.85796" lon="1.90301">
        <ele>163.4</ele>
        <time>2020-07-15T13:53:32Z</time>
      </trkpt>
      <trkpt lat="43.85795" lon="1.90306">
        <ele>163.4</ele>
        <time>2020-07-15T13:53:33Z</time>
      </trkpt>
      <trkpt lat="43.85791" lon="1.90311">
        <ele>163.2</ele>
        <time>2020-07-15T13:53:34Z</time>
      </trkpt>
      <trkpt lat="43.85789" lon="1.90316">
        <ele>163.2</ele>
        <time>2020-07-15T13:53:35Z</time>
      </trkpt>
      <trkpt lat="43.85787" lon="1.90322">
        <ele>163.2</ele>
        <time>2020-07-15T13:53:36Z</time>
      </trkpt>
      <trkpt lat="43.85862" lon="1.89932">
        <ele>159</ele>
        <time>2020-07-15T13:55:47Z</time>
      </trkpt>
      <trkpt lat="43.85862" lon="1.89929">
        <ele>158.8</ele>
        <time>2020-07-15T13:55:48Z</time>
      </trkpt>
      <trkpt lat="43.85862" lon="1.89922">
        <ele>158.4</ele>
        <time>2020-07-15T13:55:49Z</time>
      </trkpt>
      <trkpt lat="43.85862" lon="1.89916">
        <ele>158.2</ele>
        <time>2020-07-15T13:55:50Z</time>
      </trkpt>
      <trkpt lat="43.85861" lon="1.8991">
        <ele>158</ele>
        <time>2020-07-15T13:55:51Z</time>
      </trkpt>
      <trkpt lat="43.85862" lon="1.89905">
        <ele>157.8</ele>
        <time>2020-07-15T13:55:52Z</time>
      </trkpt>
      <trkpt lat="43.85863" lon="1.89899">
        <ele>157.6</ele>
        <time>2020-07-15T13:55:53Z</time>
      </trkpt>
      <trkpt lat="43.85863" lon="1.89893">
        <ele>157.2</ele>
        <time>2020-07-15T13:55:54Z</time>
      </trkpt>
      <trkpt lat="43.85864" lon="1.89887">
        <ele>157</ele>
        <time>2020-07-15T13:55:55Z</time>
      </trkpt>
      <trkpt lat="43.85864" lon="1.89882">
        <ele>156.6</ele>
        <time>2020-07-15T13:55:56Z</time>
      </trkpt>
      <trkpt lat="43.85865" lon="1.89877">
        <ele>156.6</ele>
        <time>2020-07-15T13:55:57Z</time>
      </trkpt>
      <trkpt lat="43.85866" lon="1.89871">
        <ele>156.6</ele>
        <time>2020-07-15T13:55:58Z</time>
      </trkpt>
      <trkpt lat="43.85867" lon="1.89865">
        <ele>156.6</ele>
        <time>2020-07-15T13:55:59Z</time>
      </trkpt>
      <trkpt lat="43.85867" lon="1.8986">
        <ele>156.8</ele>
        <time>2020-07-15T13:56:00Z</time>
      </trkpt>
      <trkpt lat="43.85868" lon="1.89853">
        <ele>157.2</ele>
        <time>2020-07-15T13:56:01Z</time>
      </trkpt>
      <trkpt lat="43.8587" lon="1.89847">
        <ele>157.6</ele>
        <time>2020-07-15T13:56:02Z</time>
      </trkpt>
      <trkpt lat="43.85872" lon="1.89839">
        <ele>157.8</ele>
        <time>2020-07-15T13:56:03Z</time>
      </trkpt>
      <trkpt lat="43.85873" lon="1.89834">
        <ele>158</ele>
        <time>2020-07-15T13:56:04Z</time>
      </trkpt>
      <trkpt lat="43.85875" lon="1.89826">
        <ele>158.4</ele>
        <time>2020-07-15T13:56:05Z</time>
      </trkpt>
      <trkpt lat="43.85877" lon="1.89819">
        <ele>158.6</ele>
        <time>2020-07-15T13:56:06Z</time>
      </trkpt>
      <trkpt lat="43.85878" lon="1.89814">
        <ele>158.8</ele>
        <time>2020-07-15T13:56:07Z</time>
      </trkpt>
      <trkpt lat="43.85878" lon="1.89809">
        <ele>159</ele>
        <time>2020-07-15T13:56:08Z</time>
      </trkpt>
      <trkpt lat="43.85877" lon="1.89806">
        <ele>159.2</ele>
        <time>2020-07-15T13:56:09Z</time>
      </trkpt>
      <trkpt lat="43.85877" lon="1.89802">
        <ele>159.4</ele>
        <time>2020-07-15T13:56:10Z</time>
      </trkpt>
      <trkpt lat="43.85877" lon="1.89799">
        <ele>159.4</ele>
        <time>2020-07-15T13:56:11Z</time>
      </trkpt>
      <trkpt lat="43.85878" lon="1.89796">
        <ele>159.6</ele>
        <time>2020-07-15T13:56:12Z</time>
      </trkpt>
      <trkpt lat="43.85879" lon="1.89793">
        <ele>159.8</ele>
        <time>2020-07-15T13:56:13Z</time>
      </trkpt>
      <trkpt lat="43.85878" lon="1.89779">
        <ele>160.2</ele>
        <time>2020-07-15T13:56:14Z</time>
      </trkpt>
      <trkpt lat="43.85878" lon="1.8977">
        <ele>160.6</ele>
        <time>2020-07-15T13:56:15Z</time>
      </trkpt>
      <trkpt lat="43.85877" lon="1.89761">
        <ele>160.8</ele>
        <time>2020-07-15T13:56:16Z</time>
      </trkpt>
      <trkpt lat="43.85876" lon="1.89753">
        <ele>161</ele>
        <time>2020-07-15T13:56:17Z</time>
      </trkpt>
      <trkpt lat="43.85876" lon="1.89744">
        <ele>161</ele>
        <time>2020-07-15T13:56:18Z</time>
      </trkpt>
      <trkpt lat="43.85875" lon="1.89735">
        <ele>162.6</ele>
        <time>2020-07-15T13:58:02Z</time>
      </trkpt>
      <trkpt lat="43.85874" lon="1.89726">
        <ele>162.6</ele>
        <time>2020-07-15T13:58:03Z</time>
      </trkpt>
      <trkpt lat="43.85876" lon="1.89718">
        <ele>162.6</ele>
        <time>2020-07-15T13:58:04Z</time>
      </trkpt>
      <trkpt lat="43.85877" lon="1.89716">
        <ele>162.6</ele>
        <time>2020-07-15T13:58:05Z</time>
      </trkpt>
      <trkpt lat="43.85877" lon="1.89713">
        <ele>162.6</ele>
        <time>2020-07-15T13:58:06Z</time>
      </trkpt>
      <trkpt lat="43.85877" lon="1.8971">
        <ele>162.6</ele>
        <time>2020-07-15T13:58:07Z</time>
      </trkpt>
      <trkpt lat="43.85878" lon="1.89708">
        <ele>162.6</ele>
        <time>2020-07-15T13:58:08Z</time>
      </trkpt>
      <trkpt lat="43.85877" lon="1.89705">
        <ele>162.4</ele>
        <time>2020-07-15T13:58:09Z</time>
      </trkpt>
      <trkpt lat="43.85877" lon="1.89701">
        <ele>162.2</ele>
        <time>2020-07-15T13:58:10Z</time>
      </trkpt>
      <trkpt lat="43.85877" lon="1.89698">
        <ele>162</ele>
        <time>2020-07-15T13:58:11Z</time>
      </trkpt>
      <trkpt lat="43.85876" lon="1.89695">
        <ele>161.8</ele>
        <time>2020-07-15T13:58:12Z</time>
      </trkpt>
      <trkpt lat="43.85875" lon="1.89691">
        <ele>161.6</ele>
        <time>2020-07-15T13:58:13Z</time>
      </trkpt>
      <trkpt lat="43.85873" lon="1.89687">
        <ele>161.4</ele>
        <time>2020-07-15T13:58:14Z</time>
      </trkpt>
      <trkpt lat="43.85873" lon="1.89682">
        <ele>161.2</ele>
        <time>2020-07-15T13:58:15Z</time>
      </trkpt>
      <trkpt lat="43.85872" lon="1.89677">
        <ele>161</ele>
        <time>2020-07-15T13:58:16Z</time>
      </trkpt>
      <trkpt lat="43.85872" lon="1.89673">
        <ele>160.8</ele>
        <time>2020-07-15T13:58:17Z</time>
      </trkpt>
      <trkpt lat="43.85872" lon="1.89667">
        <ele>160.8</ele>
        <time>2020-07-15T13:58:18Z</time>
      </trkpt>
      <trkpt lat="43.85872" lon="1.89663">
        <ele>160.8</ele>
        <time>2020-07-15T13:58:19Z</time>
      </trkpt>
      <trkpt lat="43.85873" lon="1.89658">
        <ele>160.8</ele>
        <time>2020-07-15T13:58:20Z</time>
      </trkpt>
      <trkpt lat="43.85874" lon="1.89653">
        <ele>160.6</ele>
        <time>2020-07-15T13:58:21Z</time>
      </trkpt>
      <trkpt lat="43.85875" lon="1.89648">
        <ele>160.6</ele>
        <time>2020-07-15T13:58:22Z</time>
      </trkpt>
      <trkpt lat="43.85875" lon="1.89643">
        <ele>160.8</ele>
        <time>2020-07-15T13:58:23Z</time>
      </trkpt>
      <trkpt lat="43.85875" lon="1.89639">
        <ele>161</ele>
        <time>2020-07-15T13:58:24Z</time>
      </trkpt>
      <trkpt lat="43.85876" lon="1.89635">
        <ele>161.2</ele>
        <time>2020-07-15T13:58:25Z</time>
      </trkpt>
      <trkpt lat="43.85878" lon="1.89631">
        <ele>161.6</ele>
        <time>2020-07-15T13:58:26Z</time>
      </trkpt>
      <trkpt lat="43.85878" lon="1.89627">
        <ele>162</ele>
        <time>2020-07-15T13:58:27Z</time>
      </trkpt>
      <trkpt lat="43.8588" lon="1.89623">
        <ele>162.4</ele>
        <time>2020-07-15T13:58:28Z</time>
      </trkpt>
      <trkpt lat="43.8588" lon="1.89619">
        <ele>162.8</ele>
        <time>2020-07-15T13:58:29Z</time>
      </trkpt>
      <trkpt lat="43.85881" lon="1.89615">
        <ele>163.2</ele>
        <time>2020-07-15T13:58:30Z</time>
      </trkpt>
      <trkpt lat="43.85882" lon="1.89611">
        <ele>163.8</ele>
        <time>2020-07-15T13:58:31Z</time>
      </trkpt>
      <trkpt lat="43.85883" lon="1.89607">
        <ele>164.4</ele>
        <time>2020-07-15T13:58:32Z</time>
      </trkpt>
      <trkpt lat="43.85884" lon="1.89601">
        <ele>164.8</ele>
        <time>2020-07-15T13:58:33Z</time>
      </trkpt>
      <trkpt lat="43.85886" lon="1.89597">
        <ele>165.4</ele>
        <time>2020-07-15T13:58:34Z</time>
      </trkpt>
      <trkpt lat="43.85886" lon="1.89592">
        <ele>166</ele>
        <time>2020-07-15T13:58:35Z</time>
      </trkpt>
      <trkpt lat="43.85888" lon="1.89589">
        <ele>166.6</ele>
        <time>2020-07-15T13:58:36Z</time>
      </trkpt>
      <trkpt lat="43.85891" lon="1.89586">
        <ele>167.2</ele>
        <time>2020-07-15T13:58:37Z</time>
      </trkpt>
      <trkpt lat="43.85894" lon="1.89583">
        <ele>167.8</ele>
        <time>2020-07-15T13:58:38Z</time>
      </trkpt>
      <trkpt lat="43.85895" lon="1.89583">
        <ele>168.4</ele>
        <time>2020-07-15T13:58:39Z</time>
      </trkpt>
      <trkpt lat="43.85895" lon="1.89581">
        <ele>168.8</ele>
        <time>2020-07-15T13:58:40Z</time>
      </trkpt>
      <trkpt lat="43.85894" lon="1.89577">
        <ele>169.2</ele>
        <time>2020-07-15T13:58:41Z</time>
      </trkpt>
      <trkpt lat="43.85894" lon="1.89579">
        <ele>169.4</ele>
        <time>2020-07-15T13:58:42Z</time>
      </trkpt>
      <trkpt lat="43.85894" lon="1.89581">
        <ele>169.4</ele>
        <time>2020-07-15T13:58:43Z</time>
      </trkpt>
    </trkseg>
  </trk>
</gpx>